<?xml version="1.0" encoding="UTF-8" standalone="no" ?>
<gpx xmlns="http://www.topografix.com/GPX/1/1" xmlns:xsi="http://www.w3.org/2001/XMLSchema-instance" xsi:schemaLocation="http://www.topografix.com/GPX/1/1 http://www.topografix.com/GPX/1/1/gpx.xsd" version="1.1" creator="VisuGPX - https://www.visugpx.com">
  <metadata>
    <name>2021 11 02 à 08:50 Roche Fourquin</name>
    <desc><![CDATA[Roche Fourquin au départ des hauts d Airole]]></desc>
  </metadata>
  <trk>
    <name><![CDATA[2021 11 02 à 08:50 Roche Fourquin]]></name>
    <trkseg>
      <trkpt lat="43.88633" lon="7.5618">
        <ele>612.56706988903</ele>
        <time>2021-11-02T07:50:53Z</time>
      </trkpt>
      <trkpt lat="43.88633" lon="7.5618">
        <ele>612.56706988903</ele>
        <time>2021-11-02T07:51:14Z</time>
      </trkpt>
      <trkpt lat="43.88631" lon="7.56184">
        <ele>615.56725629942</ele>
        <time>2021-11-02T07:51:15Z</time>
      </trkpt>
      <trkpt lat="43.88629" lon="7.56191">
        <ele>619.56749053842</ele>
        <time>2021-11-02T07:51:16Z</time>
      </trkpt>
      <trkpt lat="43.88628" lon="7.5619">
        <ele>623.56749396751</ele>
        <time>2021-11-02T07:55:09Z</time>
      </trkpt>
      <trkpt lat="43.88628" lon="7.56192">
        <ele>623.56754104006</ele>
        <time>2021-11-02T07:55:10Z</time>
      </trkpt>
      <trkpt lat="43.88627" lon="7.56192">
        <ele>624.56757843164</ele>
        <time>2021-11-02T07:55:11Z</time>
      </trkpt>
      <trkpt lat="43.88627" lon="7.56192">
        <ele>625.56759872459</ele>
        <time>2021-11-02T07:55:12Z</time>
      </trkpt>
      <trkpt lat="43.88627" lon="7.56193">
        <ele>625.56764441544</ele>
        <time>2021-11-02T07:55:13Z</time>
      </trkpt>
      <trkpt lat="43.88627" lon="7.56193">
        <ele>625.56764441544</ele>
        <time>2021-11-02T07:55:20Z</time>
      </trkpt>
      <trkpt lat="43.88627" lon="7.56195">
        <ele>625.56766168227</ele>
        <time>2021-11-02T07:55:21Z</time>
      </trkpt>
      <trkpt lat="43.88627" lon="7.56196">
        <ele>625.56768972575</ele>
        <time>2021-11-02T07:55:22Z</time>
      </trkpt>
      <trkpt lat="43.88627" lon="7.56197">
        <ele>625.56770650403</ele>
        <time>2021-11-02T07:55:23Z</time>
      </trkpt>
      <trkpt lat="43.88627" lon="7.56198">
        <ele>626.56773151469</ele>
        <time>2021-11-02T07:55:24Z</time>
      </trkpt>
      <trkpt lat="43.88627" lon="7.56199">
        <ele>626.56774203432</ele>
        <time>2021-11-02T07:55:26Z</time>
      </trkpt>
      <trkpt lat="43.88627" lon="7.562">
        <ele>626.56772904489</ele>
        <time>2021-11-02T07:55:45Z</time>
      </trkpt>
      <trkpt lat="43.88627" lon="7.56202">
        <ele>627.56775981374</ele>
        <time>2021-11-02T07:55:46Z</time>
      </trkpt>
      <trkpt lat="43.88628" lon="7.56202">
        <ele>627.56774269828</ele>
        <time>2021-11-02T07:55:48Z</time>
      </trkpt>
      <trkpt lat="43.88629" lon="7.56202">
        <ele>627.56770980045</ele>
        <time>2021-11-02T07:55:50Z</time>
      </trkpt>
      <trkpt lat="43.88629" lon="7.56203">
        <ele>627.56768881054</ele>
        <time>2021-11-02T07:55:51Z</time>
      </trkpt>
      <trkpt lat="43.88629" lon="7.56204">
        <ele>628.56768358006</ele>
        <time>2021-11-02T07:55:53Z</time>
      </trkpt>
      <trkpt lat="43.8863" lon="7.56204">
        <ele>628.56765521969</ele>
        <time>2021-11-02T07:55:54Z</time>
      </trkpt>
      <trkpt lat="43.88631" lon="7.56204">
        <ele>627.56763243296</ele>
        <time>2021-11-02T07:55:56Z</time>
      </trkpt>
      <trkpt lat="43.88631" lon="7.56205">
        <ele>628.56764693103</ele>
        <time>2021-11-02T07:55:57Z</time>
      </trkpt>
      <trkpt lat="43.88631" lon="7.56206">
        <ele>628.56766151672</ele>
        <time>2021-11-02T07:55:58Z</time>
      </trkpt>
      <trkpt lat="43.8863" lon="7.56207">
        <ele>628.56769510089</ele>
        <time>2021-11-02T07:55:59Z</time>
      </trkpt>
      <trkpt lat="43.8863" lon="7.56207">
        <ele>628.56773736471</ele>
        <time>2021-11-02T07:56:00Z</time>
      </trkpt>
      <trkpt lat="43.8863" lon="7.56208">
        <ele>628.56775071215</ele>
        <time>2021-11-02T07:56:01Z</time>
      </trkpt>
      <trkpt lat="43.88629" lon="7.56209">
        <ele>629.56779409911</ele>
        <time>2021-11-02T07:56:02Z</time>
      </trkpt>
      <trkpt lat="43.88629" lon="7.5621">
        <ele>629.56781224268</ele>
        <time>2021-11-02T07:56:04Z</time>
      </trkpt>
      <trkpt lat="43.88629" lon="7.56211">
        <ele>629.56783368644</ele>
        <time>2021-11-02T07:56:05Z</time>
      </trkpt>
      <trkpt lat="43.88629" lon="7.56211">
        <ele>629.56783175345</ele>
        <time>2021-11-02T07:56:06Z</time>
      </trkpt>
      <trkpt lat="43.8863" lon="7.56212">
        <ele>628.56783271089</ele>
        <time>2021-11-02T07:56:07Z</time>
      </trkpt>
      <trkpt lat="43.8863" lon="7.56213">
        <ele>629.56785576671</ele>
        <time>2021-11-02T07:56:08Z</time>
      </trkpt>
      <trkpt lat="43.88629" lon="7.56214">
        <ele>629.56787352745</ele>
        <time>2021-11-02T07:56:09Z</time>
      </trkpt>
      <trkpt lat="43.8863" lon="7.56215">
        <ele>628.56786703841</ele>
        <time>2021-11-02T07:56:10Z</time>
      </trkpt>
      <trkpt lat="43.8863" lon="7.56216">
        <ele>629.56785979742</ele>
        <time>2021-11-02T07:56:11Z</time>
      </trkpt>
      <trkpt lat="43.88631" lon="7.56216">
        <ele>629.5678369049</ele>
        <time>2021-11-02T07:56:12Z</time>
      </trkpt>
      <trkpt lat="43.88631" lon="7.56217">
        <ele>630.56784072958</ele>
        <time>2021-11-02T07:56:13Z</time>
      </trkpt>
      <trkpt lat="43.88632" lon="7.56218">
        <ele>630.56781142539</ele>
        <time>2021-11-02T07:56:14Z</time>
      </trkpt>
      <trkpt lat="43.88633" lon="7.56218">
        <ele>631.56779359382</ele>
        <time>2021-11-02T07:56:15Z</time>
      </trkpt>
      <trkpt lat="43.88633" lon="7.56219">
        <ele>631.56777283754</ele>
        <time>2021-11-02T07:56:16Z</time>
      </trkpt>
      <trkpt lat="43.88634" lon="7.56219">
        <ele>630.56772290158</ele>
        <time>2021-11-02T07:56:17Z</time>
      </trkpt>
      <trkpt lat="43.88635" lon="7.56219">
        <ele>630.56770485709</ele>
        <time>2021-11-02T07:56:18Z</time>
      </trkpt>
      <trkpt lat="43.88635" lon="7.56221">
        <ele>631.56771112271</ele>
        <time>2021-11-02T07:56:19Z</time>
      </trkpt>
      <trkpt lat="43.88635" lon="7.56222">
        <ele>631.56772714823</ele>
        <time>2021-11-02T07:56:20Z</time>
      </trkpt>
      <trkpt lat="43.88635" lon="7.56223">
        <ele>631.56775208241</ele>
        <time>2021-11-02T07:56:21Z</time>
      </trkpt>
      <trkpt lat="43.88635" lon="7.56223">
        <ele>631.5677485851</ele>
        <time>2021-11-02T07:56:24Z</time>
      </trkpt>
      <trkpt lat="43.88636" lon="7.56224">
        <ele>632.56771765656</ele>
        <time>2021-11-02T07:56:25Z</time>
      </trkpt>
      <trkpt lat="43.88637" lon="7.56225">
        <ele>632.5676925631</ele>
        <time>2021-11-02T07:56:26Z</time>
      </trkpt>
      <trkpt lat="43.88637" lon="7.56226">
        <ele>632.56771023782</ele>
        <time>2021-11-02T07:56:28Z</time>
      </trkpt>
      <trkpt lat="43.88637" lon="7.56227">
        <ele>631.56771152546</ele>
        <time>2021-11-02T07:56:30Z</time>
      </trkpt>
      <trkpt lat="43.88637" lon="7.56228">
        <ele>632.56773354872</ele>
        <time>2021-11-02T07:56:31Z</time>
      </trkpt>
      <trkpt lat="43.88638" lon="7.56229">
        <ele>631.56774446805</ele>
        <time>2021-11-02T07:56:32Z</time>
      </trkpt>
      <trkpt lat="43.88638" lon="7.5623">
        <ele>631.56772105583</ele>
        <time>2021-11-02T07:56:33Z</time>
      </trkpt>
      <trkpt lat="43.88639" lon="7.5623">
        <ele>631.56769314982</ele>
        <time>2021-11-02T07:56:34Z</time>
      </trkpt>
      <trkpt lat="43.8864" lon="7.5623">
        <ele>632.56763858738</ele>
        <time>2021-11-02T07:56:35Z</time>
      </trkpt>
      <trkpt lat="43.88641" lon="7.5623">
        <ele>632.56757688624</ele>
        <time>2021-11-02T07:56:36Z</time>
      </trkpt>
      <trkpt lat="43.88642" lon="7.5623">
        <ele>633.56753309934</ele>
        <time>2021-11-02T07:56:37Z</time>
      </trkpt>
      <trkpt lat="43.88643" lon="7.5623">
        <ele>633.56750541919</ele>
        <time>2021-11-02T07:56:38Z</time>
      </trkpt>
      <trkpt lat="43.88644" lon="7.5623">
        <ele>633.56746410745</ele>
        <time>2021-11-02T07:56:39Z</time>
      </trkpt>
      <trkpt lat="43.88644" lon="7.5623">
        <ele>633.56743155284</ele>
        <time>2021-11-02T07:56:40Z</time>
      </trkpt>
      <trkpt lat="43.88644" lon="7.56231">
        <ele>633.5674301625</ele>
        <time>2021-11-02T07:56:43Z</time>
      </trkpt>
      <trkpt lat="43.88646" lon="7.56231">
        <ele>634.5673460902</ele>
        <time>2021-11-02T07:56:44Z</time>
      </trkpt>
      <trkpt lat="43.88647" lon="7.56231">
        <ele>634.56730154167</ele>
        <time>2021-11-02T07:56:45Z</time>
      </trkpt>
      <trkpt lat="43.88648" lon="7.56231">
        <ele>634.56727282755</ele>
        <time>2021-11-02T07:56:46Z</time>
      </trkpt>
      <trkpt lat="43.88649" lon="7.56232">
        <ele>634.56724670295</ele>
        <time>2021-11-02T07:56:47Z</time>
      </trkpt>
      <trkpt lat="43.88649" lon="7.56233">
        <ele>633.5672273141</ele>
        <time>2021-11-02T07:56:48Z</time>
      </trkpt>
      <trkpt lat="43.88649" lon="7.56234">
        <ele>633.56724519824</ele>
        <time>2021-11-02T07:56:49Z</time>
      </trkpt>
      <trkpt lat="43.88649" lon="7.56236">
        <ele>633.56727680511</ele>
        <time>2021-11-02T07:56:50Z</time>
      </trkpt>
      <trkpt lat="43.88649" lon="7.56237">
        <ele>633.56730011283</ele>
        <time>2021-11-02T07:56:51Z</time>
      </trkpt>
      <trkpt lat="43.88649" lon="7.56238">
        <ele>633.56731280355</ele>
        <time>2021-11-02T07:56:52Z</time>
      </trkpt>
      <trkpt lat="43.8865" lon="7.56239">
        <ele>634.5673158155</ele>
        <time>2021-11-02T07:56:53Z</time>
      </trkpt>
      <trkpt lat="43.8865" lon="7.5624">
        <ele>634.56732569844</ele>
        <time>2021-11-02T07:56:54Z</time>
      </trkpt>
      <trkpt lat="43.88651" lon="7.56241">
        <ele>635.56731319098</ele>
        <time>2021-11-02T07:56:55Z</time>
      </trkpt>
      <trkpt lat="43.88651" lon="7.56241">
        <ele>635.56729220131</ele>
        <time>2021-11-02T07:56:56Z</time>
      </trkpt>
      <trkpt lat="43.88651" lon="7.56241">
        <ele>635.56727050595</ele>
        <time>2021-11-02T07:56:57Z</time>
      </trkpt>
      <trkpt lat="43.88652" lon="7.56241">
        <ele>635.56724746028</ele>
        <time>2021-11-02T07:56:58Z</time>
      </trkpt>
      <trkpt lat="43.88653" lon="7.56242">
        <ele>635.56720818685</ele>
        <time>2021-11-02T07:57:00Z</time>
      </trkpt>
      <trkpt lat="43.88653" lon="7.56242">
        <ele>635.56719778872</ele>
        <time>2021-11-02T07:57:01Z</time>
      </trkpt>
      <trkpt lat="43.88654" lon="7.56243">
        <ele>635.56717028493</ele>
        <time>2021-11-02T07:57:02Z</time>
      </trkpt>
      <trkpt lat="43.88655" lon="7.56244">
        <ele>635.56715141075</ele>
        <time>2021-11-02T07:57:03Z</time>
      </trkpt>
      <trkpt lat="43.88656" lon="7.56245">
        <ele>636.56713468246</ele>
        <time>2021-11-02T07:57:04Z</time>
      </trkpt>
      <trkpt lat="43.88656" lon="7.56246">
        <ele>636.56713158839</ele>
        <time>2021-11-02T07:57:05Z</time>
      </trkpt>
      <trkpt lat="43.88656" lon="7.56247">
        <ele>637.5671168253</ele>
        <time>2021-11-02T07:57:06Z</time>
      </trkpt>
      <trkpt lat="43.88657" lon="7.56248">
        <ele>637.56711776424</ele>
        <time>2021-11-02T07:57:07Z</time>
      </trkpt>
      <trkpt lat="43.88657" lon="7.56249">
        <ele>637.56712335804</ele>
        <time>2021-11-02T07:57:08Z</time>
      </trkpt>
      <trkpt lat="43.88657" lon="7.5625">
        <ele>636.56716194965</ele>
        <time>2021-11-02T07:57:09Z</time>
      </trkpt>
      <trkpt lat="43.88657" lon="7.5625">
        <ele>636.56716194965</ele>
        <time>2021-11-02T07:57:11Z</time>
      </trkpt>
      <trkpt lat="43.88656" lon="7.56251">
        <ele>636.56722125643</ele>
        <time>2021-11-02T07:57:12Z</time>
      </trkpt>
      <trkpt lat="43.88656" lon="7.56252">
        <ele>636.56726057834</ele>
        <time>2021-11-02T07:57:13Z</time>
      </trkpt>
      <trkpt lat="43.88655" lon="7.56252">
        <ele>637.56727599961</ele>
        <time>2021-11-02T07:57:14Z</time>
      </trkpt>
      <trkpt lat="43.88655" lon="7.56253">
        <ele>637.56730377094</ele>
        <time>2021-11-02T07:57:18Z</time>
      </trkpt>
      <trkpt lat="43.88655" lon="7.56256">
        <ele>638.56733842216</ele>
        <time>2021-11-02T07:57:19Z</time>
      </trkpt>
      <trkpt lat="43.88656" lon="7.56256">
        <ele>639.56732147674</ele>
        <time>2021-11-02T07:57:20Z</time>
      </trkpt>
      <trkpt lat="43.88656" lon="7.56256">
        <ele>639.56729186437</ele>
        <time>2021-11-02T07:57:21Z</time>
      </trkpt>
      <trkpt lat="43.88657" lon="7.56256">
        <ele>639.56726571678</ele>
        <time>2021-11-02T07:57:22Z</time>
      </trkpt>
      <trkpt lat="43.88658" lon="7.56256">
        <ele>639.56722361335</ele>
        <time>2021-11-02T07:57:23Z</time>
      </trkpt>
      <trkpt lat="43.88659" lon="7.56256">
        <ele>640.56717909578</ele>
        <time>2021-11-02T07:57:24Z</time>
      </trkpt>
      <trkpt lat="43.88659" lon="7.56256">
        <ele>640.5671520106</ele>
        <time>2021-11-02T07:57:25Z</time>
      </trkpt>
      <trkpt lat="43.8866" lon="7.56257">
        <ele>640.56710069409</ele>
        <time>2021-11-02T07:57:26Z</time>
      </trkpt>
      <trkpt lat="43.88661" lon="7.56257">
        <ele>640.56707424913</ele>
        <time>2021-11-02T07:57:27Z</time>
      </trkpt>
      <trkpt lat="43.88662" lon="7.56258">
        <ele>639.5670578516</ele>
        <time>2021-11-02T07:57:28Z</time>
      </trkpt>
      <trkpt lat="43.88662" lon="7.56259">
        <ele>639.56707458618</ele>
        <time>2021-11-02T07:57:29Z</time>
      </trkpt>
      <trkpt lat="43.88662" lon="7.56259">
        <ele>640.56707625399</ele>
        <time>2021-11-02T07:57:32Z</time>
      </trkpt>
      <trkpt lat="43.88663" lon="7.5626">
        <ele>639.56701400697</ele>
        <time>2021-11-02T07:57:33Z</time>
      </trkpt>
      <trkpt lat="43.88663" lon="7.5626">
        <ele>638.56703279499</ele>
        <time>2021-11-02T07:57:34Z</time>
      </trkpt>
      <trkpt lat="43.88664" lon="7.56261">
        <ele>639.56702092993</ele>
        <time>2021-11-02T07:57:35Z</time>
      </trkpt>
      <trkpt lat="43.88664" lon="7.56262">
        <ele>639.56702751307</ele>
        <time>2021-11-02T07:57:38Z</time>
      </trkpt>
      <trkpt lat="43.88664" lon="7.56264">
        <ele>639.56704029485</ele>
        <time>2021-11-02T07:57:39Z</time>
      </trkpt>
      <trkpt lat="43.88664" lon="7.56265">
        <ele>639.56705623653</ele>
        <time>2021-11-02T07:57:40Z</time>
      </trkpt>
      <trkpt lat="43.88664" lon="7.56266">
        <ele>639.56709132896</ele>
        <time>2021-11-02T07:57:42Z</time>
      </trkpt>
      <trkpt lat="43.88664" lon="7.56266">
        <ele>639.56709857981</ele>
        <time>2021-11-02T07:57:43Z</time>
      </trkpt>
      <trkpt lat="43.88664" lon="7.56267">
        <ele>639.56710075202</ele>
        <time>2021-11-02T07:57:45Z</time>
      </trkpt>
      <trkpt lat="43.88665" lon="7.56268">
        <ele>639.56708313724</ele>
        <time>2021-11-02T07:57:46Z</time>
      </trkpt>
      <trkpt lat="43.88666" lon="7.56269">
        <ele>639.56706274657</ele>
        <time>2021-11-02T07:57:47Z</time>
      </trkpt>
      <trkpt lat="43.88666" lon="7.5627">
        <ele>639.56704675723</ele>
        <time>2021-11-02T07:57:48Z</time>
      </trkpt>
      <trkpt lat="43.88667" lon="7.56271">
        <ele>639.56704103499</ele>
        <time>2021-11-02T07:57:49Z</time>
      </trkpt>
      <trkpt lat="43.88667" lon="7.56271">
        <ele>640.56703237716</ele>
        <time>2021-11-02T07:57:50Z</time>
      </trkpt>
      <trkpt lat="43.88667" lon="7.56272">
        <ele>640.56704184079</ele>
        <time>2021-11-02T07:57:51Z</time>
      </trkpt>
      <trkpt lat="43.88667" lon="7.56273">
        <ele>640.56705953827</ele>
        <time>2021-11-02T07:57:52Z</time>
      </trkpt>
      <trkpt lat="43.88668" lon="7.56275">
        <ele>640.56706131618</ele>
        <time>2021-11-02T07:57:53Z</time>
      </trkpt>
      <trkpt lat="43.88668" lon="7.56276">
        <ele>640.56705145095</ele>
        <time>2021-11-02T07:57:54Z</time>
      </trkpt>
      <trkpt lat="43.88669" lon="7.56277">
        <ele>639.56704720737</ele>
        <time>2021-11-02T07:57:55Z</time>
      </trkpt>
      <trkpt lat="43.88668" lon="7.56278">
        <ele>639.56709227653</ele>
        <time>2021-11-02T07:57:56Z</time>
      </trkpt>
      <trkpt lat="43.88668" lon="7.56278">
        <ele>640.56709440326</ele>
        <time>2021-11-02T07:57:57Z</time>
      </trkpt>
      <trkpt lat="43.8867" lon="7.56279">
        <ele>640.56705519735</ele>
        <time>2021-11-02T07:57:58Z</time>
      </trkpt>
      <trkpt lat="43.8867" lon="7.5628">
        <ele>640.56702588791</ele>
        <time>2021-11-02T07:57:59Z</time>
      </trkpt>
      <trkpt lat="43.88671" lon="7.56281">
        <ele>641.56701414775</ele>
        <time>2021-11-02T07:58:00Z</time>
      </trkpt>
      <trkpt lat="43.88671" lon="7.56282">
        <ele>641.56701123134</ele>
        <time>2021-11-02T07:58:01Z</time>
      </trkpt>
      <trkpt lat="43.88672" lon="7.56283">
        <ele>641.56702352504</ele>
        <time>2021-11-02T07:58:02Z</time>
      </trkpt>
      <trkpt lat="43.88672" lon="7.56284">
        <ele>642.5670076417</ele>
        <time>2021-11-02T07:58:03Z</time>
      </trkpt>
      <trkpt lat="43.88673" lon="7.56285">
        <ele>642.56700360555</ele>
        <time>2021-11-02T07:58:04Z</time>
      </trkpt>
      <trkpt lat="43.88673" lon="7.56285">
        <ele>642.56697042377</ele>
        <time>2021-11-02T07:58:05Z</time>
      </trkpt>
      <trkpt lat="43.88674" lon="7.56286">
        <ele>642.56696118411</ele>
        <time>2021-11-02T07:58:06Z</time>
      </trkpt>
      <trkpt lat="43.88674" lon="7.56287">
        <ele>642.56695670991</ele>
        <time>2021-11-02T07:58:07Z</time>
      </trkpt>
      <trkpt lat="43.88675" lon="7.56289">
        <ele>642.56695039468</ele>
        <time>2021-11-02T07:58:08Z</time>
      </trkpt>
      <trkpt lat="43.88675" lon="7.5629">
        <ele>643.56695752056</ele>
        <time>2021-11-02T07:58:09Z</time>
      </trkpt>
      <trkpt lat="43.88676" lon="7.56291">
        <ele>643.56697282642</ele>
        <time>2021-11-02T07:58:10Z</time>
      </trkpt>
      <trkpt lat="43.88676" lon="7.56292">
        <ele>643.56697539393</ele>
        <time>2021-11-02T07:58:11Z</time>
      </trkpt>
      <trkpt lat="43.88676" lon="7.56293">
        <ele>643.5669948634</ele>
        <time>2021-11-02T07:58:12Z</time>
      </trkpt>
      <trkpt lat="43.88676" lon="7.56294">
        <ele>642.56700599974</ele>
        <time>2021-11-02T07:58:15Z</time>
      </trkpt>
      <trkpt lat="43.88677" lon="7.56295">
        <ele>643.56695687432</ele>
        <time>2021-11-02T07:58:16Z</time>
      </trkpt>
      <trkpt lat="43.88678" lon="7.56295">
        <ele>643.56692938641</ele>
        <time>2021-11-02T07:58:17Z</time>
      </trkpt>
      <trkpt lat="43.88679" lon="7.56296">
        <ele>643.56690040381</ele>
        <time>2021-11-02T07:58:18Z</time>
      </trkpt>
      <trkpt lat="43.88679" lon="7.56297">
        <ele>642.56689631544</ele>
        <time>2021-11-02T07:58:19Z</time>
      </trkpt>
      <trkpt lat="43.88679" lon="7.56298">
        <ele>643.56691835251</ele>
        <time>2021-11-02T07:58:20Z</time>
      </trkpt>
      <trkpt lat="43.8868" lon="7.56299">
        <ele>643.56690611291</ele>
        <time>2021-11-02T07:58:21Z</time>
      </trkpt>
      <trkpt lat="43.8868" lon="7.56299">
        <ele>642.56689497568</ele>
        <time>2021-11-02T07:58:22Z</time>
      </trkpt>
      <trkpt lat="43.88681" lon="7.56299">
        <ele>642.56685558185</ele>
        <time>2021-11-02T07:58:23Z</time>
      </trkpt>
      <trkpt lat="43.88681" lon="7.56298">
        <ele>641.56682551385</ele>
        <time>2021-11-02T07:58:24Z</time>
      </trkpt>
      <trkpt lat="43.88681" lon="7.56298">
        <ele>641.56680202275</ele>
        <time>2021-11-02T07:58:25Z</time>
      </trkpt>
      <trkpt lat="43.88682" lon="7.56297">
        <ele>640.56673527884</ele>
        <time>2021-11-02T07:58:26Z</time>
      </trkpt>
      <trkpt lat="43.88684" lon="7.56297">
        <ele>641.56667052337</ele>
        <time>2021-11-02T07:58:27Z</time>
      </trkpt>
      <trkpt lat="43.88684" lon="7.56296">
        <ele>641.56662766248</ele>
        <time>2021-11-02T07:58:28Z</time>
      </trkpt>
      <trkpt lat="43.88685" lon="7.56297">
        <ele>641.5665930946</ele>
        <time>2021-11-02T07:58:29Z</time>
      </trkpt>
      <trkpt lat="43.88686" lon="7.56297">
        <ele>641.56655505113</ele>
        <time>2021-11-02T07:58:30Z</time>
      </trkpt>
      <trkpt lat="43.88687" lon="7.56298">
        <ele>641.56651295031</ele>
        <time>2021-11-02T07:58:31Z</time>
      </trkpt>
      <trkpt lat="43.88688" lon="7.56298">
        <ele>641.56647431675</ele>
        <time>2021-11-02T07:58:32Z</time>
      </trkpt>
      <trkpt lat="43.88689" lon="7.56299">
        <ele>642.56642523017</ele>
        <time>2021-11-02T07:58:33Z</time>
      </trkpt>
      <trkpt lat="43.8869" lon="7.563">
        <ele>642.56639616185</ele>
        <time>2021-11-02T07:58:34Z</time>
      </trkpt>
      <trkpt lat="43.88691" lon="7.563">
        <ele>642.56635669784</ele>
        <time>2021-11-02T07:58:35Z</time>
      </trkpt>
      <trkpt lat="43.88692" lon="7.56301">
        <ele>642.56633622892</ele>
        <time>2021-11-02T07:58:36Z</time>
      </trkpt>
      <trkpt lat="43.88692" lon="7.56303">
        <ele>643.56634793491</ele>
        <time>2021-11-02T07:58:37Z</time>
      </trkpt>
      <trkpt lat="43.88692" lon="7.56304">
        <ele>643.56636427909</ele>
        <time>2021-11-02T07:58:38Z</time>
      </trkpt>
      <trkpt lat="43.88692" lon="7.56305">
        <ele>644.56638648868</ele>
        <time>2021-11-02T07:58:39Z</time>
      </trkpt>
      <trkpt lat="43.88692" lon="7.56305">
        <ele>644.56641329107</ele>
        <time>2021-11-02T07:58:42Z</time>
      </trkpt>
      <trkpt lat="43.88691" lon="7.56307">
        <ele>644.56648256544</ele>
        <time>2021-11-02T07:58:43Z</time>
      </trkpt>
      <trkpt lat="43.88691" lon="7.56308">
        <ele>645.56650230597</ele>
        <time>2021-11-02T07:58:45Z</time>
      </trkpt>
      <trkpt lat="43.88692" lon="7.56309">
        <ele>645.56649168399</ele>
        <time>2021-11-02T07:58:48Z</time>
      </trkpt>
      <trkpt lat="43.88694" lon="7.56308">
        <ele>645.56637371926</ele>
        <time>2021-11-02T07:58:49Z</time>
      </trkpt>
      <trkpt lat="43.88695" lon="7.56308">
        <ele>645.56632784774</ele>
        <time>2021-11-02T07:58:50Z</time>
      </trkpt>
      <trkpt lat="43.88695" lon="7.56309">
        <ele>646.56629933081</ele>
        <time>2021-11-02T07:58:51Z</time>
      </trkpt>
      <trkpt lat="43.88696" lon="7.56309">
        <ele>646.56627784457</ele>
        <time>2021-11-02T07:58:52Z</time>
      </trkpt>
      <trkpt lat="43.88696" lon="7.5631">
        <ele>646.5662632626</ele>
        <time>2021-11-02T07:58:53Z</time>
      </trkpt>
      <trkpt lat="43.88697" lon="7.56311">
        <ele>646.56625013719</ele>
        <time>2021-11-02T07:58:54Z</time>
      </trkpt>
      <trkpt lat="43.88697" lon="7.56312">
        <ele>647.56625431539</ele>
        <time>2021-11-02T07:58:55Z</time>
      </trkpt>
      <trkpt lat="43.88697" lon="7.56313">
        <ele>647.5662697518</ele>
        <time>2021-11-02T07:58:56Z</time>
      </trkpt>
      <trkpt lat="43.88698" lon="7.56314">
        <ele>647.56628031257</ele>
        <time>2021-11-02T07:58:57Z</time>
      </trkpt>
      <trkpt lat="43.88698" lon="7.56314">
        <ele>647.56624714579</ele>
        <time>2021-11-02T07:58:59Z</time>
      </trkpt>
      <trkpt lat="43.88699" lon="7.56315">
        <ele>648.56624731481</ele>
        <time>2021-11-02T07:59:01Z</time>
      </trkpt>
      <trkpt lat="43.88698" lon="7.56316">
        <ele>648.56628154226</ele>
        <time>2021-11-02T07:59:02Z</time>
      </trkpt>
      <trkpt lat="43.88698" lon="7.56316">
        <ele>648.56631214237</ele>
        <time>2021-11-02T07:59:03Z</time>
      </trkpt>
      <trkpt lat="43.88697" lon="7.56317">
        <ele>648.56635535739</ele>
        <time>2021-11-02T07:59:05Z</time>
      </trkpt>
      <trkpt lat="43.88697" lon="7.56317">
        <ele>648.56636194648</ele>
        <time>2021-11-02T07:59:06Z</time>
      </trkpt>
      <trkpt lat="43.88696" lon="7.56318">
        <ele>648.56640676534</ele>
        <time>2021-11-02T07:59:07Z</time>
      </trkpt>
      <trkpt lat="43.88696" lon="7.56318">
        <ele>649.56644479312</ele>
        <time>2021-11-02T07:59:08Z</time>
      </trkpt>
      <trkpt lat="43.88696" lon="7.56319">
        <ele>649.56646987098</ele>
        <time>2021-11-02T07:59:09Z</time>
      </trkpt>
      <trkpt lat="43.88695" lon="7.5632">
        <ele>649.56650142508</ele>
        <time>2021-11-02T07:59:10Z</time>
      </trkpt>
      <trkpt lat="43.88695" lon="7.5632">
        <ele>649.56650382463</ele>
        <time>2021-11-02T07:59:15Z</time>
      </trkpt>
      <trkpt lat="43.88697" lon="7.5632">
        <ele>650.56643091167</ele>
        <time>2021-11-02T07:59:16Z</time>
      </trkpt>
      <trkpt lat="43.88698" lon="7.56321">
        <ele>651.56639999845</ele>
        <time>2021-11-02T07:59:18Z</time>
      </trkpt>
      <trkpt lat="43.88698" lon="7.56322">
        <ele>652.56640575443</ele>
        <time>2021-11-02T07:59:19Z</time>
      </trkpt>
      <trkpt lat="43.88698" lon="7.56322">
        <ele>652.56642333716</ele>
        <time>2021-11-02T07:59:20Z</time>
      </trkpt>
      <trkpt lat="43.88698" lon="7.56323">
        <ele>652.56644832974</ele>
        <time>2021-11-02T07:59:21Z</time>
      </trkpt>
      <trkpt lat="43.88697" lon="7.56324">
        <ele>652.56647923003</ele>
        <time>2021-11-02T07:59:22Z</time>
      </trkpt>
      <trkpt lat="43.88697" lon="7.56325">
        <ele>653.56652126584</ele>
        <time>2021-11-02T07:59:26Z</time>
      </trkpt>
      <trkpt lat="43.88697" lon="7.56326">
        <ele>653.56653207003</ele>
        <time>2021-11-02T07:59:28Z</time>
      </trkpt>
      <trkpt lat="43.88697" lon="7.56326">
        <ele>654.5665026253</ele>
        <time>2021-11-02T07:59:29Z</time>
      </trkpt>
      <trkpt lat="43.88698" lon="7.56327">
        <ele>654.56648081485</ele>
        <time>2021-11-02T07:59:30Z</time>
      </trkpt>
      <trkpt lat="43.88699" lon="7.56328">
        <ele>654.56647190728</ele>
        <time>2021-11-02T07:59:31Z</time>
      </trkpt>
      <trkpt lat="43.88699" lon="7.56327">
        <ele>654.56644503211</ele>
        <time>2021-11-02T07:59:32Z</time>
      </trkpt>
      <trkpt lat="43.887" lon="7.56328">
        <ele>654.56642297367</ele>
        <time>2021-11-02T07:59:33Z</time>
      </trkpt>
      <trkpt lat="43.887" lon="7.56329">
        <ele>655.56642769362</ele>
        <time>2021-11-02T07:59:44Z</time>
      </trkpt>
      <trkpt lat="43.88701" lon="7.5633">
        <ele>655.56638933888</ele>
        <time>2021-11-02T07:59:45Z</time>
      </trkpt>
      <trkpt lat="43.88702" lon="7.5633">
        <ele>655.56636622586</ele>
        <time>2021-11-02T07:59:46Z</time>
      </trkpt>
      <trkpt lat="43.88702" lon="7.5633">
        <ele>655.56634633647</ele>
        <time>2021-11-02T07:59:47Z</time>
      </trkpt>
      <trkpt lat="43.88703" lon="7.56331">
        <ele>655.56633531746</ele>
        <time>2021-11-02T07:59:48Z</time>
      </trkpt>
      <trkpt lat="43.88703" lon="7.56332">
        <ele>656.56633110726</ele>
        <time>2021-11-02T07:59:49Z</time>
      </trkpt>
      <trkpt lat="43.88703" lon="7.56333">
        <ele>656.56634282452</ele>
        <time>2021-11-02T07:59:50Z</time>
      </trkpt>
      <trkpt lat="43.88704" lon="7.56335">
        <ele>656.56635424771</ele>
        <time>2021-11-02T07:59:51Z</time>
      </trkpt>
      <trkpt lat="43.88704" lon="7.56336">
        <ele>656.56634656282</ele>
        <time>2021-11-02T07:59:53Z</time>
      </trkpt>
      <trkpt lat="43.88704" lon="7.56337">
        <ele>656.56634256111</ele>
        <time>2021-11-02T07:59:54Z</time>
      </trkpt>
      <trkpt lat="43.88705" lon="7.56338">
        <ele>656.56635049172</ele>
        <time>2021-11-02T07:59:55Z</time>
      </trkpt>
      <trkpt lat="43.88705" lon="7.56338">
        <ele>656.56633103174</ele>
        <time>2021-11-02T07:59:56Z</time>
      </trkpt>
      <trkpt lat="43.88706" lon="7.56338">
        <ele>657.56630153243</ele>
        <time>2021-11-02T07:59:57Z</time>
      </trkpt>
      <trkpt lat="43.88706" lon="7.56339">
        <ele>657.56628302896</ele>
        <time>2021-11-02T07:59:58Z</time>
      </trkpt>
      <trkpt lat="43.88707" lon="7.56339">
        <ele>657.56627130264</ele>
        <time>2021-11-02T07:59:59Z</time>
      </trkpt>
      <trkpt lat="43.88707" lon="7.56339">
        <ele>658.56624148079</ele>
        <time>2021-11-02T08:00:02Z</time>
      </trkpt>
      <trkpt lat="43.88708" lon="7.56341">
        <ele>658.5662258658</ele>
        <time>2021-11-02T08:00:03Z</time>
      </trkpt>
      <trkpt lat="43.88709" lon="7.56342">
        <ele>658.56622498696</ele>
        <time>2021-11-02T08:00:04Z</time>
      </trkpt>
      <trkpt lat="43.88709" lon="7.56343">
        <ele>658.5662269229</ele>
        <time>2021-11-02T08:00:05Z</time>
      </trkpt>
      <trkpt lat="43.88709" lon="7.56344">
        <ele>658.566219834</ele>
        <time>2021-11-02T08:00:06Z</time>
      </trkpt>
      <trkpt lat="43.8871" lon="7.56344">
        <ele>658.56620320489</ele>
        <time>2021-11-02T08:00:07Z</time>
      </trkpt>
      <trkpt lat="43.88711" lon="7.56345">
        <ele>658.56618821111</ele>
        <time>2021-11-02T08:00:08Z</time>
      </trkpt>
      <trkpt lat="43.88711" lon="7.56346">
        <ele>658.56618615713</ele>
        <time>2021-11-02T08:00:09Z</time>
      </trkpt>
      <trkpt lat="43.88711" lon="7.56346">
        <ele>658.56619165324</ele>
        <time>2021-11-02T08:00:12Z</time>
      </trkpt>
      <trkpt lat="43.88713" lon="7.56348">
        <ele>659.5661314437</ele>
        <time>2021-11-02T08:00:13Z</time>
      </trkpt>
      <trkpt lat="43.88714" lon="7.56348">
        <ele>660.56608917563</ele>
        <time>2021-11-02T08:00:14Z</time>
      </trkpt>
      <trkpt lat="43.88714" lon="7.56349">
        <ele>660.56607676627</ele>
        <time>2021-11-02T08:00:15Z</time>
      </trkpt>
      <trkpt lat="43.88715" lon="7.56349">
        <ele>660.56602450755</ele>
        <time>2021-11-02T08:00:16Z</time>
      </trkpt>
      <trkpt lat="43.88716" lon="7.5635">
        <ele>661.56598151251</ele>
        <time>2021-11-02T08:00:17Z</time>
      </trkpt>
      <trkpt lat="43.88717" lon="7.5635">
        <ele>661.56593903021</ele>
        <time>2021-11-02T08:00:18Z</time>
      </trkpt>
      <trkpt lat="43.88718" lon="7.56351">
        <ele>661.56593173565</ele>
        <time>2021-11-02T08:00:19Z</time>
      </trkpt>
      <trkpt lat="43.88718" lon="7.56352">
        <ele>662.56592597376</ele>
        <time>2021-11-02T08:00:20Z</time>
      </trkpt>
      <trkpt lat="43.88719" lon="7.56353">
        <ele>662.56589776109</ele>
        <time>2021-11-02T08:00:21Z</time>
      </trkpt>
      <trkpt lat="43.8872" lon="7.56353">
        <ele>662.56586184369</ele>
        <time>2021-11-02T08:00:22Z</time>
      </trkpt>
      <trkpt lat="43.88721" lon="7.56354">
        <ele>663.56581962131</ele>
        <time>2021-11-02T08:00:23Z</time>
      </trkpt>
      <trkpt lat="43.88722" lon="7.56354">
        <ele>663.56578825285</ele>
        <time>2021-11-02T08:00:24Z</time>
      </trkpt>
      <trkpt lat="43.88722" lon="7.56355">
        <ele>664.56577952328</ele>
        <time>2021-11-02T08:00:29Z</time>
      </trkpt>
      <trkpt lat="43.88724" lon="7.56356">
        <ele>664.56572708971</ele>
        <time>2021-11-02T08:00:30Z</time>
      </trkpt>
      <trkpt lat="43.88724" lon="7.56356">
        <ele>664.56572006173</ele>
        <time>2021-11-02T08:00:31Z</time>
      </trkpt>
      <trkpt lat="43.88725" lon="7.56357">
        <ele>664.56570591255</ele>
        <time>2021-11-02T08:00:32Z</time>
      </trkpt>
      <trkpt lat="43.88725" lon="7.56358">
        <ele>664.56568292765</ele>
        <time>2021-11-02T08:00:33Z</time>
      </trkpt>
      <trkpt lat="43.88725" lon="7.56359">
        <ele>665.56569423238</ele>
        <time>2021-11-02T08:00:34Z</time>
      </trkpt>
      <trkpt lat="43.88726" lon="7.56359">
        <ele>665.56566856818</ele>
        <time>2021-11-02T08:00:35Z</time>
      </trkpt>
      <trkpt lat="43.88727" lon="7.5636">
        <ele>665.56566649096</ele>
        <time>2021-11-02T08:00:36Z</time>
      </trkpt>
      <trkpt lat="43.88727" lon="7.56361">
        <ele>666.5656553949</ele>
        <time>2021-11-02T08:00:37Z</time>
      </trkpt>
      <trkpt lat="43.88727" lon="7.56362">
        <ele>666.56564197781</ele>
        <time>2021-11-02T08:00:38Z</time>
      </trkpt>
      <trkpt lat="43.88728" lon="7.56363">
        <ele>666.56563427132</ele>
        <time>2021-11-02T08:00:39Z</time>
      </trkpt>
      <trkpt lat="43.88728" lon="7.56363">
        <ele>667.56561836768</ele>
        <time>2021-11-02T08:00:42Z</time>
      </trkpt>
      <trkpt lat="43.8873" lon="7.56365">
        <ele>667.56557824346</ele>
        <time>2021-11-02T08:00:43Z</time>
      </trkpt>
      <trkpt lat="43.8873" lon="7.56365">
        <ele>667.56555951101</ele>
        <time>2021-11-02T08:00:44Z</time>
      </trkpt>
      <trkpt lat="43.88731" lon="7.56366">
        <ele>667.56553914067</ele>
        <time>2021-11-02T08:00:45Z</time>
      </trkpt>
      <trkpt lat="43.88732" lon="7.56366">
        <ele>668.56552300067</ele>
        <time>2021-11-02T08:00:46Z</time>
      </trkpt>
      <trkpt lat="43.88732" lon="7.56367">
        <ele>668.56550489464</ele>
        <time>2021-11-02T08:00:47Z</time>
      </trkpt>
      <trkpt lat="43.88733" lon="7.56368">
        <ele>668.56550012201</ele>
        <time>2021-11-02T08:00:50Z</time>
      </trkpt>
      <trkpt lat="43.88733" lon="7.5637">
        <ele>668.56550826629</ele>
        <time>2021-11-02T08:00:51Z</time>
      </trkpt>
      <trkpt lat="43.88733" lon="7.56371">
        <ele>669.56552372304</ele>
        <time>2021-11-02T08:00:52Z</time>
      </trkpt>
      <trkpt lat="43.88733" lon="7.56372">
        <ele>668.56553558844</ele>
        <time>2021-11-02T08:00:53Z</time>
      </trkpt>
      <trkpt lat="43.88734" lon="7.56373">
        <ele>668.56554608753</ele>
        <time>2021-11-02T08:00:54Z</time>
      </trkpt>
      <trkpt lat="43.88734" lon="7.56373">
        <ele>668.56553403335</ele>
        <time>2021-11-02T08:00:55Z</time>
      </trkpt>
      <trkpt lat="43.88734" lon="7.56374">
        <ele>669.56551110427</ele>
        <time>2021-11-02T08:00:56Z</time>
      </trkpt>
      <trkpt lat="43.88735" lon="7.56374">
        <ele>669.56547075994</ele>
        <time>2021-11-02T08:00:57Z</time>
      </trkpt>
      <trkpt lat="43.88736" lon="7.56374">
        <ele>669.5654525389</ele>
        <time>2021-11-02T08:01:00Z</time>
      </trkpt>
      <trkpt lat="43.88737" lon="7.56375">
        <ele>669.56541280082</ele>
        <time>2021-11-02T08:01:01Z</time>
      </trkpt>
      <trkpt lat="43.88737" lon="7.56376">
        <ele>669.56540107276</ele>
        <time>2021-11-02T08:01:02Z</time>
      </trkpt>
      <trkpt lat="43.88738" lon="7.56377">
        <ele>670.56537203729</ele>
        <time>2021-11-02T08:01:03Z</time>
      </trkpt>
      <trkpt lat="43.88739" lon="7.56378">
        <ele>671.56536442751</ele>
        <time>2021-11-02T08:01:05Z</time>
      </trkpt>
      <trkpt lat="43.88739" lon="7.56379">
        <ele>671.5653779846</ele>
        <time>2021-11-02T08:01:06Z</time>
      </trkpt>
      <trkpt lat="43.88739" lon="7.5638">
        <ele>671.56537397617</ele>
        <time>2021-11-02T08:01:07Z</time>
      </trkpt>
      <trkpt lat="43.8874" lon="7.5638">
        <ele>671.56533476408</ele>
        <time>2021-11-02T08:01:08Z</time>
      </trkpt>
      <trkpt lat="43.88741" lon="7.56379">
        <ele>671.56529659463</ele>
        <time>2021-11-02T08:01:09Z</time>
      </trkpt>
      <trkpt lat="43.88742" lon="7.5638">
        <ele>671.56524738157</ele>
        <time>2021-11-02T08:01:10Z</time>
      </trkpt>
      <trkpt lat="43.88743" lon="7.5638">
        <ele>671.56520981883</ele>
        <time>2021-11-02T08:01:12Z</time>
      </trkpt>
      <trkpt lat="43.88744" lon="7.56381">
        <ele>671.56513687128</ele>
        <time>2021-11-02T08:01:13Z</time>
      </trkpt>
      <trkpt lat="43.88745" lon="7.56381">
        <ele>671.56511494117</ele>
        <time>2021-11-02T08:01:14Z</time>
      </trkpt>
      <trkpt lat="43.88745" lon="7.56382">
        <ele>672.56509809635</ele>
        <time>2021-11-02T08:01:15Z</time>
      </trkpt>
      <trkpt lat="43.88746" lon="7.56383">
        <ele>672.56506775307</ele>
        <time>2021-11-02T08:01:18Z</time>
      </trkpt>
      <trkpt lat="43.88747" lon="7.56384">
        <ele>672.56504937539</ele>
        <time>2021-11-02T08:01:19Z</time>
      </trkpt>
      <trkpt lat="43.88748" lon="7.56385">
        <ele>672.56505364196</ele>
        <time>2021-11-02T08:01:20Z</time>
      </trkpt>
      <trkpt lat="43.88748" lon="7.56386">
        <ele>673.56505143165</ele>
        <time>2021-11-02T08:01:23Z</time>
      </trkpt>
      <trkpt lat="43.88749" lon="7.56387">
        <ele>674.56502960238</ele>
        <time>2021-11-02T08:01:24Z</time>
      </trkpt>
      <trkpt lat="43.88749" lon="7.56388">
        <ele>675.5650214845</ele>
        <time>2021-11-02T08:01:25Z</time>
      </trkpt>
      <trkpt lat="43.8875" lon="7.56389">
        <ele>676.56502332048</ele>
        <time>2021-11-02T08:01:26Z</time>
      </trkpt>
      <trkpt lat="43.8875" lon="7.5639">
        <ele>676.56502661775</ele>
        <time>2021-11-02T08:01:27Z</time>
      </trkpt>
      <trkpt lat="43.8875" lon="7.5639">
        <ele>675.56503205102</ele>
        <time>2021-11-02T08:01:31Z</time>
      </trkpt>
      <trkpt lat="43.88752" lon="7.56393">
        <ele>675.56498899993</ele>
        <time>2021-11-02T08:01:32Z</time>
      </trkpt>
      <trkpt lat="43.88752" lon="7.56394">
        <ele>675.56496337932</ele>
        <time>2021-11-02T08:01:33Z</time>
      </trkpt>
      <trkpt lat="43.88753" lon="7.56395">
        <ele>676.56493437776</ele>
        <time>2021-11-02T08:01:34Z</time>
      </trkpt>
      <trkpt lat="43.88754" lon="7.56396">
        <ele>676.56493813985</ele>
        <time>2021-11-02T08:01:35Z</time>
      </trkpt>
      <trkpt lat="43.88754" lon="7.56397">
        <ele>676.56494989468</ele>
        <time>2021-11-02T08:01:37Z</time>
      </trkpt>
      <trkpt lat="43.88752" lon="7.564">
        <ele>676.56506821761</ele>
        <time>2021-11-02T08:01:39Z</time>
      </trkpt>
      <trkpt lat="43.88752" lon="7.564">
        <ele>677.5651111421</ele>
        <time>2021-11-02T08:01:40Z</time>
      </trkpt>
      <trkpt lat="43.88751" lon="7.56401">
        <ele>677.56517860863</ele>
        <time>2021-11-02T08:01:41Z</time>
      </trkpt>
      <trkpt lat="43.8875" lon="7.56401">
        <ele>677.56521009938</ele>
        <time>2021-11-02T08:01:42Z</time>
      </trkpt>
      <trkpt lat="43.8875" lon="7.56401">
        <ele>677.56523348827</ele>
        <time>2021-11-02T08:01:43Z</time>
      </trkpt>
      <trkpt lat="43.88749" lon="7.56402">
        <ele>677.56527215073</ele>
        <time>2021-11-02T08:01:44Z</time>
      </trkpt>
      <trkpt lat="43.88748" lon="7.56402">
        <ele>677.56533310881</ele>
        <time>2021-11-02T08:01:45Z</time>
      </trkpt>
      <trkpt lat="43.88747" lon="7.56402">
        <ele>677.56538941797</ele>
        <time>2021-11-02T08:01:46Z</time>
      </trkpt>
      <trkpt lat="43.88746" lon="7.56403">
        <ele>677.56542580472</ele>
        <time>2021-11-02T08:01:48Z</time>
      </trkpt>
      <trkpt lat="43.88746" lon="7.56402">
        <ele>677.5654524265</ele>
        <time>2021-11-02T08:01:49Z</time>
      </trkpt>
      <trkpt lat="43.88745" lon="7.56402">
        <ele>676.56549131803</ele>
        <time>2021-11-02T08:01:50Z</time>
      </trkpt>
      <trkpt lat="43.88744" lon="7.56402">
        <ele>676.56553438033</ele>
        <time>2021-11-02T08:01:53Z</time>
      </trkpt>
      <trkpt lat="43.88743" lon="7.56403">
        <ele>676.56560689524</ele>
        <time>2021-11-02T08:01:54Z</time>
      </trkpt>
      <trkpt lat="43.88742" lon="7.56403">
        <ele>676.56565370951</ele>
        <time>2021-11-02T08:01:55Z</time>
      </trkpt>
      <trkpt lat="43.88741" lon="7.56403">
        <ele>675.56573155018</ele>
        <time>2021-11-02T08:01:57Z</time>
      </trkpt>
      <trkpt lat="43.88739" lon="7.56403">
        <ele>675.56581365461</ele>
        <time>2021-11-02T08:01:59Z</time>
      </trkpt>
      <trkpt lat="43.88738" lon="7.56403">
        <ele>675.56585874624</ele>
        <time>2021-11-02T08:02:00Z</time>
      </trkpt>
      <trkpt lat="43.88737" lon="7.56402">
        <ele>676.56589397671</ele>
        <time>2021-11-02T08:02:02Z</time>
      </trkpt>
      <trkpt lat="43.88735" lon="7.56402">
        <ele>676.56600996191</ele>
        <time>2021-11-02T08:02:03Z</time>
      </trkpt>
      <trkpt lat="43.88734" lon="7.56402">
        <ele>676.56604813047</ele>
        <time>2021-11-02T08:02:04Z</time>
      </trkpt>
      <trkpt lat="43.88733" lon="7.56402">
        <ele>676.56609417072</ele>
        <time>2021-11-02T08:02:05Z</time>
      </trkpt>
      <trkpt lat="43.88732" lon="7.56402">
        <ele>675.56614003709</ele>
        <time>2021-11-02T08:02:06Z</time>
      </trkpt>
      <trkpt lat="43.88731" lon="7.56402">
        <ele>676.56619656561</ele>
        <time>2021-11-02T08:02:07Z</time>
      </trkpt>
      <trkpt lat="43.8873" lon="7.56402">
        <ele>676.5662449455</ele>
        <time>2021-11-02T08:02:08Z</time>
      </trkpt>
      <trkpt lat="43.88729" lon="7.56403">
        <ele>677.56630225189</ele>
        <time>2021-11-02T08:02:09Z</time>
      </trkpt>
      <trkpt lat="43.88729" lon="7.56403">
        <ele>677.56633632101</ele>
        <time>2021-11-02T08:02:11Z</time>
      </trkpt>
      <trkpt lat="43.88727" lon="7.56403">
        <ele>677.5664273807</ele>
        <time>2021-11-02T08:02:12Z</time>
      </trkpt>
      <trkpt lat="43.88726" lon="7.56403">
        <ele>677.56647969528</ele>
        <time>2021-11-02T08:02:13Z</time>
      </trkpt>
      <trkpt lat="43.88725" lon="7.56404">
        <ele>677.56652769752</ele>
        <time>2021-11-02T08:02:14Z</time>
      </trkpt>
      <trkpt lat="43.88725" lon="7.56404">
        <ele>677.5665614083</ele>
        <time>2021-11-02T08:02:15Z</time>
      </trkpt>
      <trkpt lat="43.88724" lon="7.56404">
        <ele>677.56658288774</ele>
        <time>2021-11-02T08:02:16Z</time>
      </trkpt>
      <trkpt lat="43.88723" lon="7.56405">
        <ele>678.56665296209</ele>
        <time>2021-11-02T08:02:18Z</time>
      </trkpt>
      <trkpt lat="43.88722" lon="7.56406">
        <ele>679.56670135381</ele>
        <time>2021-11-02T08:02:20Z</time>
      </trkpt>
      <trkpt lat="43.88721" lon="7.56406">
        <ele>679.56675388001</ele>
        <time>2021-11-02T08:02:21Z</time>
      </trkpt>
      <trkpt lat="43.88721" lon="7.56406">
        <ele>679.56679639936</ele>
        <time>2021-11-02T08:02:22Z</time>
      </trkpt>
      <trkpt lat="43.8872" lon="7.56407">
        <ele>680.56684460832</ele>
        <time>2021-11-02T08:02:27Z</time>
      </trkpt>
      <trkpt lat="43.88719" lon="7.5641">
        <ele>680.56693438814</ele>
        <time>2021-11-02T08:02:28Z</time>
      </trkpt>
      <trkpt lat="43.88719" lon="7.56411">
        <ele>680.56694967442</ele>
        <time>2021-11-02T08:02:29Z</time>
      </trkpt>
      <trkpt lat="43.8872" lon="7.56411">
        <ele>680.56692106463</ele>
        <time>2021-11-02T08:02:30Z</time>
      </trkpt>
      <trkpt lat="43.88721" lon="7.56411">
        <ele>680.56687553292</ele>
        <time>2021-11-02T08:02:31Z</time>
      </trkpt>
      <trkpt lat="43.88721" lon="7.56412">
        <ele>681.56684725089</ele>
        <time>2021-11-02T08:02:32Z</time>
      </trkpt>
      <trkpt lat="43.88722" lon="7.56411">
        <ele>680.56680833807</ele>
        <time>2021-11-02T08:02:33Z</time>
      </trkpt>
      <trkpt lat="43.88723" lon="7.56411">
        <ele>681.56677207097</ele>
        <time>2021-11-02T08:02:34Z</time>
      </trkpt>
      <trkpt lat="43.88723" lon="7.5641">
        <ele>681.56672533774</ele>
        <time>2021-11-02T08:02:35Z</time>
      </trkpt>
      <trkpt lat="43.88724" lon="7.5641">
        <ele>681.56668059373</ele>
        <time>2021-11-02T08:02:36Z</time>
      </trkpt>
      <trkpt lat="43.88725" lon="7.5641">
        <ele>682.56663635822</ele>
        <time>2021-11-02T08:02:37Z</time>
      </trkpt>
      <trkpt lat="43.88726" lon="7.5641">
        <ele>682.56660431685</ele>
        <time>2021-11-02T08:02:38Z</time>
      </trkpt>
      <trkpt lat="43.88726" lon="7.56411">
        <ele>683.56659262285</ele>
        <time>2021-11-02T08:02:39Z</time>
      </trkpt>
      <trkpt lat="43.88727" lon="7.56411">
        <ele>683.56655237657</ele>
        <time>2021-11-02T08:02:40Z</time>
      </trkpt>
      <trkpt lat="43.88728" lon="7.56411">
        <ele>682.56652564555</ele>
        <time>2021-11-02T08:02:42Z</time>
      </trkpt>
      <trkpt lat="43.88728" lon="7.56413">
        <ele>682.5665275749</ele>
        <time>2021-11-02T08:02:43Z</time>
      </trkpt>
      <trkpt lat="43.88729" lon="7.56414">
        <ele>682.56651657641</ele>
        <time>2021-11-02T08:02:45Z</time>
      </trkpt>
      <trkpt lat="43.88729" lon="7.56415">
        <ele>682.56650259029</ele>
        <time>2021-11-02T08:02:48Z</time>
      </trkpt>
      <trkpt lat="43.8873" lon="7.56415">
        <ele>682.56649334668</ele>
        <time>2021-11-02T08:02:51Z</time>
      </trkpt>
      <trkpt lat="43.8873" lon="7.56416">
        <ele>683.56648960271</ele>
        <time>2021-11-02T08:02:54Z</time>
      </trkpt>
      <trkpt lat="43.88731" lon="7.56416">
        <ele>682.56642695349</ele>
        <time>2021-11-02T08:02:55Z</time>
      </trkpt>
      <trkpt lat="43.88732" lon="7.56416">
        <ele>683.56639567481</ele>
        <time>2021-11-02T08:02:57Z</time>
      </trkpt>
      <trkpt lat="43.88734" lon="7.56417">
        <ele>683.56632810694</ele>
        <time>2021-11-02T08:02:58Z</time>
      </trkpt>
      <trkpt lat="43.88735" lon="7.56418">
        <ele>683.56629487411</ele>
        <time>2021-11-02T08:02:59Z</time>
      </trkpt>
      <trkpt lat="43.88735" lon="7.56418">
        <ele>683.5662621049</ele>
        <time>2021-11-02T08:03:00Z</time>
      </trkpt>
      <trkpt lat="43.88736" lon="7.56419">
        <ele>683.56622592189</ele>
        <time>2021-11-02T08:03:01Z</time>
      </trkpt>
      <trkpt lat="43.88737" lon="7.56419">
        <ele>684.56618497435</ele>
        <time>2021-11-02T08:03:02Z</time>
      </trkpt>
      <trkpt lat="43.88738" lon="7.5642">
        <ele>684.56615875613</ele>
        <time>2021-11-02T08:03:03Z</time>
      </trkpt>
      <trkpt lat="43.88739" lon="7.56421">
        <ele>684.56614488257</ele>
        <time>2021-11-02T08:03:04Z</time>
      </trkpt>
      <trkpt lat="43.88739" lon="7.56422">
        <ele>685.56613622841</ele>
        <time>2021-11-02T08:03:05Z</time>
      </trkpt>
      <trkpt lat="43.8874" lon="7.56422">
        <ele>685.56610776</ele>
        <time>2021-11-02T08:03:06Z</time>
      </trkpt>
      <trkpt lat="43.88741" lon="7.56424">
        <ele>686.56608103282</ele>
        <time>2021-11-02T08:03:08Z</time>
      </trkpt>
      <trkpt lat="43.88742" lon="7.56425">
        <ele>686.56605275344</ele>
        <time>2021-11-02T08:03:09Z</time>
      </trkpt>
      <trkpt lat="43.88743" lon="7.56425">
        <ele>687.56602230646</ele>
        <time>2021-11-02T08:03:10Z</time>
      </trkpt>
      <trkpt lat="43.88743" lon="7.56426">
        <ele>687.56600162406</ele>
        <time>2021-11-02T08:03:12Z</time>
      </trkpt>
      <trkpt lat="43.88744" lon="7.56427">
        <ele>688.56597589764</ele>
        <time>2021-11-02T08:03:14Z</time>
      </trkpt>
      <trkpt lat="43.88745" lon="7.56428">
        <ele>689.56596193332</ele>
        <time>2021-11-02T08:03:15Z</time>
      </trkpt>
      <trkpt lat="43.88745" lon="7.56428">
        <ele>689.5659599914</ele>
        <time>2021-11-02T08:03:16Z</time>
      </trkpt>
      <trkpt lat="43.88746" lon="7.56426">
        <ele>689.56587071593</ele>
        <time>2021-11-02T08:03:18Z</time>
      </trkpt>
      <trkpt lat="43.88747" lon="7.56427">
        <ele>689.56585100303</ele>
        <time>2021-11-02T08:03:19Z</time>
      </trkpt>
      <trkpt lat="43.88748" lon="7.56429">
        <ele>689.56582170909</ele>
        <time>2021-11-02T08:03:20Z</time>
      </trkpt>
      <trkpt lat="43.88749" lon="7.5643">
        <ele>690.56577759089</ele>
        <time>2021-11-02T08:03:23Z</time>
      </trkpt>
      <trkpt lat="43.88751" lon="7.56431">
        <ele>690.56569938488</ele>
        <time>2021-11-02T08:03:24Z</time>
      </trkpt>
      <trkpt lat="43.88752" lon="7.56432">
        <ele>690.56567240451</ele>
        <time>2021-11-02T08:03:25Z</time>
      </trkpt>
      <trkpt lat="43.88752" lon="7.56432">
        <ele>690.56568261279</ele>
        <time>2021-11-02T08:03:26Z</time>
      </trkpt>
      <trkpt lat="43.88752" lon="7.56433">
        <ele>691.56567567785</ele>
        <time>2021-11-02T08:03:31Z</time>
      </trkpt>
      <trkpt lat="43.88754" lon="7.56435">
        <ele>692.56564113526</ele>
        <time>2021-11-02T08:03:32Z</time>
      </trkpt>
      <trkpt lat="43.88754" lon="7.56436">
        <ele>693.56563571645</ele>
        <time>2021-11-02T08:03:34Z</time>
      </trkpt>
      <trkpt lat="43.88754" lon="7.56436">
        <ele>694.56563753858</ele>
        <time>2021-11-02T08:03:38Z</time>
      </trkpt>
      <trkpt lat="43.88756" lon="7.56437">
        <ele>694.56557829818</ele>
        <time>2021-11-02T08:03:39Z</time>
      </trkpt>
      <trkpt lat="43.88757" lon="7.56438">
        <ele>694.5655498316</ele>
        <time>2021-11-02T08:03:41Z</time>
      </trkpt>
      <trkpt lat="43.88758" lon="7.5644">
        <ele>695.56551611965</ele>
        <time>2021-11-02T08:03:42Z</time>
      </trkpt>
      <trkpt lat="43.88758" lon="7.5644">
        <ele>695.56550263077</ele>
        <time>2021-11-02T08:03:46Z</time>
      </trkpt>
      <trkpt lat="43.88758" lon="7.56442">
        <ele>694.565555367</ele>
        <time>2021-11-02T08:03:47Z</time>
      </trkpt>
      <trkpt lat="43.88757" lon="7.56442">
        <ele>693.56558956889</ele>
        <time>2021-11-02T08:03:48Z</time>
      </trkpt>
      <trkpt lat="43.88758" lon="7.56443">
        <ele>693.56556590795</ele>
        <time>2021-11-02T08:03:52Z</time>
      </trkpt>
      <trkpt lat="43.88759" lon="7.56443">
        <ele>693.5655381413</ele>
        <time>2021-11-02T08:03:54Z</time>
      </trkpt>
      <trkpt lat="43.8876" lon="7.56444">
        <ele>693.56549887909</ele>
        <time>2021-11-02T08:03:55Z</time>
      </trkpt>
      <trkpt lat="43.88761" lon="7.56444">
        <ele>694.56544369504</ele>
        <time>2021-11-02T08:03:56Z</time>
      </trkpt>
      <trkpt lat="43.88763" lon="7.56445">
        <ele>694.56534900102</ele>
        <time>2021-11-02T08:03:58Z</time>
      </trkpt>
      <trkpt lat="43.88764" lon="7.56445">
        <ele>694.56529665415</ele>
        <time>2021-11-02T08:03:59Z</time>
      </trkpt>
      <trkpt lat="43.88765" lon="7.56446">
        <ele>694.56525927499</ele>
        <time>2021-11-02T08:04:00Z</time>
      </trkpt>
      <trkpt lat="43.88766" lon="7.56445">
        <ele>695.56521722337</ele>
        <time>2021-11-02T08:04:04Z</time>
      </trkpt>
      <trkpt lat="43.88767" lon="7.56448">
        <ele>695.56521871084</ele>
        <time>2021-11-02T08:04:05Z</time>
      </trkpt>
      <trkpt lat="43.88767" lon="7.56449">
        <ele>695.56521374183</ele>
        <time>2021-11-02T08:04:06Z</time>
      </trkpt>
      <trkpt lat="43.88768" lon="7.5645">
        <ele>696.5651915997</ele>
        <time>2021-11-02T08:04:07Z</time>
      </trkpt>
      <trkpt lat="43.88768" lon="7.56451">
        <ele>696.56519545508</ele>
        <time>2021-11-02T08:04:08Z</time>
      </trkpt>
      <trkpt lat="43.88769" lon="7.56453">
        <ele>695.56519267998</ele>
        <time>2021-11-02T08:04:10Z</time>
      </trkpt>
      <trkpt lat="43.88769" lon="7.56453">
        <ele>696.56522389147</ele>
        <time>2021-11-02T08:04:12Z</time>
      </trkpt>
      <trkpt lat="43.88769" lon="7.56454">
        <ele>697.56522943391</ele>
        <time>2021-11-02T08:04:13Z</time>
      </trkpt>
      <trkpt lat="43.88769" lon="7.56455">
        <ele>697.5652372349</ele>
        <time>2021-11-02T08:04:15Z</time>
      </trkpt>
      <trkpt lat="43.88769" lon="7.56456">
        <ele>696.56526118547</ele>
        <time>2021-11-02T08:04:18Z</time>
      </trkpt>
      <trkpt lat="43.88768" lon="7.56456">
        <ele>696.56528019742</ele>
        <time>2021-11-02T08:04:21Z</time>
      </trkpt>
      <trkpt lat="43.88769" lon="7.56456">
        <ele>696.56522813065</ele>
        <time>2021-11-02T08:04:23Z</time>
      </trkpt>
      <trkpt lat="43.88769" lon="7.56455">
        <ele>695.56522596583</ele>
        <time>2021-11-02T08:04:29Z</time>
      </trkpt>
      <trkpt lat="43.88769" lon="7.56454">
        <ele>695.56519294565</ele>
        <time>2021-11-02T08:04:57Z</time>
      </trkpt>
      <trkpt lat="43.8877" lon="7.56454">
        <ele>695.56516688441</ele>
        <time>2021-11-02T08:04:57Z</time>
      </trkpt>
      <trkpt lat="43.8877" lon="7.56454">
        <ele>695.56518948099</ele>
        <time>2021-11-02T08:05:12Z</time>
      </trkpt>
      <trkpt lat="43.8877" lon="7.56455">
        <ele>694.5651830574</ele>
        <time>2021-11-02T08:05:13Z</time>
      </trkpt>
      <trkpt lat="43.8877" lon="7.56455">
        <ele>694.56519932866</ele>
        <time>2021-11-02T08:05:24Z</time>
      </trkpt>
      <trkpt lat="43.88768" lon="7.56455">
        <ele>693.5652983712</ele>
        <time>2021-11-02T08:05:25Z</time>
      </trkpt>
      <trkpt lat="43.88767" lon="7.56455">
        <ele>693.56535309006</ele>
        <time>2021-11-02T08:05:26Z</time>
      </trkpt>
      <trkpt lat="43.88765" lon="7.56455">
        <ele>693.56542344772</ele>
        <time>2021-11-02T08:05:28Z</time>
      </trkpt>
      <trkpt lat="43.88764" lon="7.56456">
        <ele>694.56550441529</ele>
        <time>2021-11-02T08:05:29Z</time>
      </trkpt>
      <trkpt lat="43.88763" lon="7.56457">
        <ele>694.56555552304</ele>
        <time>2021-11-02T08:05:30Z</time>
      </trkpt>
      <trkpt lat="43.88762" lon="7.56457">
        <ele>694.56561217563</ele>
        <time>2021-11-02T08:05:32Z</time>
      </trkpt>
      <trkpt lat="43.88761" lon="7.56458">
        <ele>695.56569830495</ele>
        <time>2021-11-02T08:05:34Z</time>
      </trkpt>
      <trkpt lat="43.88759" lon="7.56458">
        <ele>696.56580543703</ele>
        <time>2021-11-02T08:05:35Z</time>
      </trkpt>
      <trkpt lat="43.88758" lon="7.56458">
        <ele>696.5658624524</ele>
        <time>2021-11-02T08:05:37Z</time>
      </trkpt>
      <trkpt lat="43.88757" lon="7.56458">
        <ele>696.56590038982</ele>
        <time>2021-11-02T08:05:39Z</time>
      </trkpt>
      <trkpt lat="43.88754" lon="7.56458">
        <ele>697.56603792615</ele>
        <time>2021-11-02T08:05:41Z</time>
      </trkpt>
      <trkpt lat="43.88753" lon="7.56458">
        <ele>697.56608884774</ele>
        <time>2021-11-02T08:05:43Z</time>
      </trkpt>
      <trkpt lat="43.88752" lon="7.56458">
        <ele>697.56613839086</ele>
        <time>2021-11-02T08:05:44Z</time>
      </trkpt>
      <trkpt lat="43.88751" lon="7.56458">
        <ele>697.56618503984</ele>
        <time>2021-11-02T08:05:45Z</time>
      </trkpt>
      <trkpt lat="43.88751" lon="7.56458">
        <ele>697.5662278093</ele>
        <time>2021-11-02T08:05:47Z</time>
      </trkpt>
      <trkpt lat="43.88751" lon="7.5646">
        <ele>698.56622665803</ele>
        <time>2021-11-02T08:05:49Z</time>
      </trkpt>
      <trkpt lat="43.88751" lon="7.5646">
        <ele>698.56620641518</ele>
        <time>2021-11-02T08:05:50Z</time>
      </trkpt>
      <trkpt lat="43.88752" lon="7.5646">
        <ele>698.56618418454</ele>
        <time>2021-11-02T08:05:51Z</time>
      </trkpt>
      <trkpt lat="43.88753" lon="7.56461">
        <ele>699.56616339794</ele>
        <time>2021-11-02T08:05:52Z</time>
      </trkpt>
      <trkpt lat="43.88754" lon="7.56461">
        <ele>700.56612235315</ele>
        <time>2021-11-02T08:05:54Z</time>
      </trkpt>
      <trkpt lat="43.88754" lon="7.56461">
        <ele>699.56609474763</ele>
        <time>2021-11-02T08:05:55Z</time>
      </trkpt>
      <trkpt lat="43.88755" lon="7.56461">
        <ele>700.56607109629</ele>
        <time>2021-11-02T08:05:56Z</time>
      </trkpt>
      <trkpt lat="43.88755" lon="7.56462">
        <ele>699.56606558895</ele>
        <time>2021-11-02T08:05:58Z</time>
      </trkpt>
      <trkpt lat="43.88755" lon="7.56463">
        <ele>700.56607699327</ele>
        <time>2021-11-02T08:05:59Z</time>
      </trkpt>
      <trkpt lat="43.88755" lon="7.56464">
        <ele>700.56610717076</ele>
        <time>2021-11-02T08:06:00Z</time>
      </trkpt>
      <trkpt lat="43.88754" lon="7.56464">
        <ele>700.56615332682</ele>
        <time>2021-11-02T08:06:02Z</time>
      </trkpt>
      <trkpt lat="43.88753" lon="7.56466">
        <ele>701.56625941695</ele>
        <time>2021-11-02T08:06:03Z</time>
      </trkpt>
      <trkpt lat="43.88752" lon="7.56467">
        <ele>701.5663076558</ele>
        <time>2021-11-02T08:06:04Z</time>
      </trkpt>
      <trkpt lat="43.88752" lon="7.56467">
        <ele>702.56632807705</ele>
        <time>2021-11-02T08:06:05Z</time>
      </trkpt>
      <trkpt lat="43.88752" lon="7.56468">
        <ele>702.56635036435</ele>
        <time>2021-11-02T08:06:08Z</time>
      </trkpt>
      <trkpt lat="43.88751" lon="7.5647">
        <ele>703.56642062636</ele>
        <time>2021-11-02T08:06:09Z</time>
      </trkpt>
      <trkpt lat="43.88751" lon="7.5647">
        <ele>704.56642404636</ele>
        <time>2021-11-02T08:06:10Z</time>
      </trkpt>
      <trkpt lat="43.88751" lon="7.56471">
        <ele>704.56640807717</ele>
        <time>2021-11-02T08:06:11Z</time>
      </trkpt>
      <trkpt lat="43.88752" lon="7.56472">
        <ele>704.56639989019</ele>
        <time>2021-11-02T08:06:12Z</time>
      </trkpt>
      <trkpt lat="43.88753" lon="7.56473">
        <ele>704.56638881059</ele>
        <time>2021-11-02T08:06:14Z</time>
      </trkpt>
      <trkpt lat="43.88754" lon="7.56475">
        <ele>705.56635680574</ele>
        <time>2021-11-02T08:06:16Z</time>
      </trkpt>
      <trkpt lat="43.88754" lon="7.56476">
        <ele>706.56635153959</ele>
        <time>2021-11-02T08:06:18Z</time>
      </trkpt>
      <trkpt lat="43.88754" lon="7.56477">
        <ele>707.56637868287</ele>
        <time>2021-11-02T08:06:20Z</time>
      </trkpt>
      <trkpt lat="43.88754" lon="7.56478">
        <ele>707.56638502117</ele>
        <time>2021-11-02T08:06:22Z</time>
      </trkpt>
      <trkpt lat="43.88755" lon="7.56478">
        <ele>706.56634744908</ele>
        <time>2021-11-02T08:06:24Z</time>
      </trkpt>
      <trkpt lat="43.88758" lon="7.56478">
        <ele>706.56622596033</ele>
        <time>2021-11-02T08:06:25Z</time>
      </trkpt>
      <trkpt lat="43.88758" lon="7.56479">
        <ele>707.56620548538</ele>
        <time>2021-11-02T08:06:26Z</time>
      </trkpt>
      <trkpt lat="43.88759" lon="7.56479">
        <ele>707.56619022609</ele>
        <time>2021-11-02T08:06:28Z</time>
      </trkpt>
      <trkpt lat="43.8876" lon="7.5648">
        <ele>708.56614312157</ele>
        <time>2021-11-02T08:06:29Z</time>
      </trkpt>
      <trkpt lat="43.8876" lon="7.56481">
        <ele>708.56612535666</ele>
        <time>2021-11-02T08:06:30Z</time>
      </trkpt>
      <trkpt lat="43.88761" lon="7.56481">
        <ele>708.56610900986</ele>
        <time>2021-11-02T08:06:32Z</time>
      </trkpt>
      <trkpt lat="43.88762" lon="7.56482">
        <ele>707.56606349811</ele>
        <time>2021-11-02T08:06:34Z</time>
      </trkpt>
      <trkpt lat="43.88763" lon="7.56482">
        <ele>707.56602278446</ele>
        <time>2021-11-02T08:06:34Z</time>
      </trkpt>
      <trkpt lat="43.88764" lon="7.56482">
        <ele>707.56600100393</ele>
        <time>2021-11-02T08:06:35Z</time>
      </trkpt>
      <trkpt lat="43.88764" lon="7.56483">
        <ele>707.56598148463</ele>
        <time>2021-11-02T08:06:36Z</time>
      </trkpt>
      <trkpt lat="43.88764" lon="7.56483">
        <ele>707.56596839508</ele>
        <time>2021-11-02T08:06:38Z</time>
      </trkpt>
      <trkpt lat="43.88765" lon="7.56483">
        <ele>706.56591875363</ele>
        <time>2021-11-02T08:06:39Z</time>
      </trkpt>
      <trkpt lat="43.88766" lon="7.56484">
        <ele>706.56590595695</ele>
        <time>2021-11-02T08:06:40Z</time>
      </trkpt>
      <trkpt lat="43.88766" lon="7.56484">
        <ele>706.56588749093</ele>
        <time>2021-11-02T08:06:42Z</time>
      </trkpt>
      <trkpt lat="43.88767" lon="7.56485">
        <ele>706.56587794186</ele>
        <time>2021-11-02T08:06:44Z</time>
      </trkpt>
      <trkpt lat="43.88768" lon="7.56487">
        <ele>707.56587721335</ele>
        <time>2021-11-02T08:06:45Z</time>
      </trkpt>
      <trkpt lat="43.88768" lon="7.56487">
        <ele>707.56585781467</ele>
        <time>2021-11-02T08:06:46Z</time>
      </trkpt>
      <trkpt lat="43.88769" lon="7.56488">
        <ele>707.56584588647</ele>
        <time>2021-11-02T08:06:48Z</time>
      </trkpt>
      <trkpt lat="43.88769" lon="7.56489">
        <ele>707.56584840126</ele>
        <time>2021-11-02T08:06:50Z</time>
      </trkpt>
      <trkpt lat="43.8877" lon="7.5649">
        <ele>707.56583032412</ele>
        <time>2021-11-02T08:06:51Z</time>
      </trkpt>
      <trkpt lat="43.8877" lon="7.56491">
        <ele>708.56582071326</ele>
        <time>2021-11-02T08:06:52Z</time>
      </trkpt>
      <trkpt lat="43.8877" lon="7.56492">
        <ele>708.56584847168</ele>
        <time>2021-11-02T08:06:53Z</time>
      </trkpt>
      <trkpt lat="43.8877" lon="7.56493">
        <ele>708.56583876778</ele>
        <time>2021-11-02T08:06:56Z</time>
      </trkpt>
      <trkpt lat="43.88771" lon="7.56495">
        <ele>708.56584751124</ele>
        <time>2021-11-02T08:06:57Z</time>
      </trkpt>
      <trkpt lat="43.88771" lon="7.56496">
        <ele>709.56584651607</ele>
        <time>2021-11-02T08:06:58Z</time>
      </trkpt>
      <trkpt lat="43.88771" lon="7.56496">
        <ele>709.56587035719</ele>
        <time>2021-11-02T08:06:59Z</time>
      </trkpt>
      <trkpt lat="43.88771" lon="7.56497">
        <ele>709.56588288747</ele>
        <time>2021-11-02T08:07:00Z</time>
      </trkpt>
      <trkpt lat="43.88772" lon="7.56498">
        <ele>710.56584864868</ele>
        <time>2021-11-02T08:07:01Z</time>
      </trkpt>
      <trkpt lat="43.88773" lon="7.56498">
        <ele>710.5658324571</ele>
        <time>2021-11-02T08:07:02Z</time>
      </trkpt>
      <trkpt lat="43.88773" lon="7.56499">
        <ele>711.5658010321</ele>
        <time>2021-11-02T08:07:03Z</time>
      </trkpt>
      <trkpt lat="43.88774" lon="7.56499">
        <ele>711.56577902325</ele>
        <time>2021-11-02T08:07:07Z</time>
      </trkpt>
      <trkpt lat="43.88776" lon="7.56499">
        <ele>712.56565259857</ele>
        <time>2021-11-02T08:07:09Z</time>
      </trkpt>
      <trkpt lat="43.88778" lon="7.56498">
        <ele>712.56556169508</ele>
        <time>2021-11-02T08:07:10Z</time>
      </trkpt>
      <trkpt lat="43.88779" lon="7.56498">
        <ele>713.56550924611</ele>
        <time>2021-11-02T08:07:11Z</time>
      </trkpt>
      <trkpt lat="43.8878" lon="7.56499">
        <ele>713.56547789034</ele>
        <time>2021-11-02T08:07:12Z</time>
      </trkpt>
      <trkpt lat="43.88781" lon="7.56499">
        <ele>713.56544605163</ele>
        <time>2021-11-02T08:07:13Z</time>
      </trkpt>
      <trkpt lat="43.88781" lon="7.56499">
        <ele>713.56542092244</ele>
        <time>2021-11-02T08:07:14Z</time>
      </trkpt>
      <trkpt lat="43.88782" lon="7.56499">
        <ele>714.56537761996</ele>
        <time>2021-11-02T08:07:15Z</time>
      </trkpt>
      <trkpt lat="43.88783" lon="7.56499">
        <ele>713.56533569706</ele>
        <time>2021-11-02T08:07:16Z</time>
      </trkpt>
      <trkpt lat="43.88783" lon="7.56499">
        <ele>714.56530709285</ele>
        <time>2021-11-02T08:07:17Z</time>
      </trkpt>
      <trkpt lat="43.88784" lon="7.565">
        <ele>713.56527034085</ele>
        <time>2021-11-02T08:07:19Z</time>
      </trkpt>
      <trkpt lat="43.88785" lon="7.565">
        <ele>714.56523345333</ele>
        <time>2021-11-02T08:07:20Z</time>
      </trkpt>
      <trkpt lat="43.88786" lon="7.56501">
        <ele>715.56523811323</ele>
        <time>2021-11-02T08:07:21Z</time>
      </trkpt>
      <trkpt lat="43.88785" lon="7.56503">
        <ele>715.56528224998</ele>
        <time>2021-11-02T08:07:22Z</time>
      </trkpt>
      <trkpt lat="43.88785" lon="7.56504">
        <ele>716.56529063003</ele>
        <time>2021-11-02T08:07:23Z</time>
      </trkpt>
      <trkpt lat="43.88785" lon="7.56505">
        <ele>716.56530714544</ele>
        <time>2021-11-02T08:07:24Z</time>
      </trkpt>
      <trkpt lat="43.88786" lon="7.56505">
        <ele>716.5652901524</ele>
        <time>2021-11-02T08:07:25Z</time>
      </trkpt>
      <trkpt lat="43.88786" lon="7.56506">
        <ele>716.56528255778</ele>
        <time>2021-11-02T08:07:28Z</time>
      </trkpt>
      <trkpt lat="43.88787" lon="7.56506">
        <ele>716.56525711648</ele>
        <time>2021-11-02T08:07:30Z</time>
      </trkpt>
      <trkpt lat="43.88788" lon="7.56507">
        <ele>717.56519978015</ele>
        <time>2021-11-02T08:07:31Z</time>
      </trkpt>
      <trkpt lat="43.88789" lon="7.56506">
        <ele>718.56516982789</ele>
        <time>2021-11-02T08:07:32Z</time>
      </trkpt>
      <trkpt lat="43.8879" lon="7.56507">
        <ele>719.56513136691</ele>
        <time>2021-11-02T08:07:34Z</time>
      </trkpt>
      <trkpt lat="43.8879" lon="7.56507">
        <ele>720.56509136799</ele>
        <time>2021-11-02T08:07:35Z</time>
      </trkpt>
      <trkpt lat="43.88791" lon="7.56508">
        <ele>720.56506823774</ele>
        <time>2021-11-02T08:07:37Z</time>
      </trkpt>
      <trkpt lat="43.88792" lon="7.56509">
        <ele>721.56502775176</ele>
        <time>2021-11-02T08:07:39Z</time>
      </trkpt>
      <trkpt lat="43.88793" lon="7.56509">
        <ele>722.56500225691</ele>
        <time>2021-11-02T08:07:40Z</time>
      </trkpt>
      <trkpt lat="43.88794" lon="7.5651">
        <ele>722.56497029359</ele>
        <time>2021-11-02T08:07:41Z</time>
      </trkpt>
      <trkpt lat="43.88795" lon="7.56509">
        <ele>722.56490436152</ele>
        <time>2021-11-02T08:07:42Z</time>
      </trkpt>
      <trkpt lat="43.88796" lon="7.5651">
        <ele>722.56486178521</ele>
        <time>2021-11-02T08:07:43Z</time>
      </trkpt>
      <trkpt lat="43.88796" lon="7.5651">
        <ele>722.5648685847</ele>
        <time>2021-11-02T08:07:44Z</time>
      </trkpt>
      <trkpt lat="43.88796" lon="7.56511">
        <ele>722.56486477211</ele>
        <time>2021-11-02T08:07:45Z</time>
      </trkpt>
      <trkpt lat="43.88796" lon="7.56512">
        <ele>722.56490652971</ele>
        <time>2021-11-02T08:07:47Z</time>
      </trkpt>
      <trkpt lat="43.88797" lon="7.56513">
        <ele>722.56487528256</ele>
        <time>2021-11-02T08:07:48Z</time>
      </trkpt>
      <trkpt lat="43.88797" lon="7.56514">
        <ele>722.56485454453</ele>
        <time>2021-11-02T08:07:49Z</time>
      </trkpt>
      <trkpt lat="43.88798" lon="7.56514">
        <ele>722.56482871932</ele>
        <time>2021-11-02T08:07:50Z</time>
      </trkpt>
      <trkpt lat="43.88799" lon="7.56515">
        <ele>722.56481204865</ele>
        <time>2021-11-02T08:07:51Z</time>
      </trkpt>
      <trkpt lat="43.888" lon="7.56515">
        <ele>723.56476581949</ele>
        <time>2021-11-02T08:07:53Z</time>
      </trkpt>
      <trkpt lat="43.88801" lon="7.56516">
        <ele>722.5647129966</ele>
        <time>2021-11-02T08:07:54Z</time>
      </trkpt>
      <trkpt lat="43.88802" lon="7.56516">
        <ele>722.56469034693</ele>
        <time>2021-11-02T08:07:55Z</time>
      </trkpt>
      <trkpt lat="43.88802" lon="7.56517">
        <ele>722.56469158481</ele>
        <time>2021-11-02T08:07:56Z</time>
      </trkpt>
      <trkpt lat="43.88803" lon="7.56518">
        <ele>723.56465545694</ele>
        <time>2021-11-02T08:07:58Z</time>
      </trkpt>
      <trkpt lat="43.88804" lon="7.56518">
        <ele>723.5645862293</ele>
        <time>2021-11-02T08:08:00Z</time>
      </trkpt>
      <trkpt lat="43.88805" lon="7.56519">
        <ele>723.56456849559</ele>
        <time>2021-11-02T08:08:01Z</time>
      </trkpt>
      <trkpt lat="43.88806" lon="7.56519">
        <ele>723.56452918992</ele>
        <time>2021-11-02T08:08:03Z</time>
      </trkpt>
      <trkpt lat="43.88806" lon="7.56519">
        <ele>723.56449217372</ele>
        <time>2021-11-02T08:08:06Z</time>
      </trkpt>
      <trkpt lat="43.88808" lon="7.56519">
        <ele>723.56440675548</ele>
        <time>2021-11-02T08:08:07Z</time>
      </trkpt>
      <trkpt lat="43.88809" lon="7.56519">
        <ele>723.56436991644</ele>
        <time>2021-11-02T08:08:09Z</time>
      </trkpt>
      <trkpt lat="43.88809" lon="7.56519">
        <ele>723.56435319763</ele>
        <time>2021-11-02T08:08:12Z</time>
      </trkpt>
      <trkpt lat="43.88811" lon="7.56519">
        <ele>724.56427242468</ele>
        <time>2021-11-02T08:08:13Z</time>
      </trkpt>
      <trkpt lat="43.88812" lon="7.56519">
        <ele>725.56420164262</ele>
        <time>2021-11-02T08:08:15Z</time>
      </trkpt>
      <trkpt lat="43.88813" lon="7.56519">
        <ele>725.56417701348</ele>
        <time>2021-11-02T08:08:17Z</time>
      </trkpt>
      <trkpt lat="43.88813" lon="7.56518">
        <ele>725.56414235646</ele>
        <time>2021-11-02T08:08:22Z</time>
      </trkpt>
      <trkpt lat="43.88814" lon="7.56518">
        <ele>725.56410223585</ele>
        <time>2021-11-02T08:08:23Z</time>
      </trkpt>
      <trkpt lat="43.88815" lon="7.56519">
        <ele>726.56406765089</ele>
        <time>2021-11-02T08:08:32Z</time>
      </trkpt>
      <trkpt lat="43.88815" lon="7.56519">
        <ele>726.56407040513</ele>
        <time>2021-11-02T08:08:39Z</time>
      </trkpt>
      <trkpt lat="43.88815" lon="7.5652">
        <ele>727.56406380697</ele>
        <time>2021-11-02T08:08:40Z</time>
      </trkpt>
      <trkpt lat="43.88816" lon="7.5652">
        <ele>726.56405368904</ele>
        <time>2021-11-02T08:08:50Z</time>
      </trkpt>
      <trkpt lat="43.88814" lon="7.5652">
        <ele>727.56412006284</ele>
        <time>2021-11-02T08:08:51Z</time>
      </trkpt>
      <trkpt lat="43.88814" lon="7.56521">
        <ele>728.56414044386</ele>
        <time>2021-11-02T08:09:16Z</time>
      </trkpt>
      <trkpt lat="43.88815" lon="7.56522">
        <ele>727.56410586148</ele>
        <time>2021-11-02T08:09:18Z</time>
      </trkpt>
      <trkpt lat="43.88816" lon="7.56521">
        <ele>727.56407266336</ele>
        <time>2021-11-02T08:09:20Z</time>
      </trkpt>
      <trkpt lat="43.88816" lon="7.56521">
        <ele>727.56403358834</ele>
        <time>2021-11-02T08:09:21Z</time>
      </trkpt>
      <trkpt lat="43.88817" lon="7.56522">
        <ele>728.56400200475</ele>
        <time>2021-11-02T08:09:24Z</time>
      </trkpt>
      <trkpt lat="43.88818" lon="7.56522">
        <ele>728.56398387789</ele>
        <time>2021-11-02T08:09:25Z</time>
      </trkpt>
      <trkpt lat="43.88818" lon="7.56523">
        <ele>728.56397308774</ele>
        <time>2021-11-02T08:09:27Z</time>
      </trkpt>
      <trkpt lat="43.88819" lon="7.56524">
        <ele>728.56396486049</ele>
        <time>2021-11-02T08:09:28Z</time>
      </trkpt>
      <trkpt lat="43.88819" lon="7.56525">
        <ele>729.56394897879</ele>
        <time>2021-11-02T08:09:29Z</time>
      </trkpt>
      <trkpt lat="43.8882" lon="7.56525">
        <ele>729.56391350228</ele>
        <time>2021-11-02T08:09:30Z</time>
      </trkpt>
      <trkpt lat="43.8882" lon="7.56525">
        <ele>729.56391350228</ele>
        <time>2021-11-02T08:09:32Z</time>
      </trkpt>
      <trkpt lat="43.88821" lon="7.56527">
        <ele>729.56387899216</ele>
        <time>2021-11-02T08:09:33Z</time>
      </trkpt>
      <trkpt lat="43.88822" lon="7.56528">
        <ele>729.56388632344</ele>
        <time>2021-11-02T08:09:34Z</time>
      </trkpt>
      <trkpt lat="43.88822" lon="7.56528">
        <ele>728.56387307012</ele>
        <time>2021-11-02T08:09:35Z</time>
      </trkpt>
      <trkpt lat="43.88822" lon="7.56529">
        <ele>729.56388522777</ele>
        <time>2021-11-02T08:09:36Z</time>
      </trkpt>
      <trkpt lat="43.88823" lon="7.5653">
        <ele>729.56387742702</ele>
        <time>2021-11-02T08:09:39Z</time>
      </trkpt>
      <trkpt lat="43.88825" lon="7.56531">
        <ele>731.56379871346</ele>
        <time>2021-11-02T08:09:40Z</time>
      </trkpt>
      <trkpt lat="43.88825" lon="7.56531">
        <ele>731.56377707212</ele>
        <time>2021-11-02T08:09:41Z</time>
      </trkpt>
      <trkpt lat="43.88826" lon="7.56531">
        <ele>731.56373632689</ele>
        <time>2021-11-02T08:09:45Z</time>
      </trkpt>
      <trkpt lat="43.88827" lon="7.5653">
        <ele>732.56364146446</ele>
        <time>2021-11-02T08:09:46Z</time>
      </trkpt>
      <trkpt lat="43.88828" lon="7.5653">
        <ele>732.56359591923</ele>
        <time>2021-11-02T08:09:47Z</time>
      </trkpt>
      <trkpt lat="43.88829" lon="7.56531">
        <ele>732.56356569602</ele>
        <time>2021-11-02T08:09:48Z</time>
      </trkpt>
      <trkpt lat="43.8883" lon="7.56531">
        <ele>733.56352930539</ele>
        <time>2021-11-02T08:09:49Z</time>
      </trkpt>
      <trkpt lat="43.88831" lon="7.56532">
        <ele>733.56350795281</ele>
        <time>2021-11-02T08:09:51Z</time>
      </trkpt>
      <trkpt lat="43.88831" lon="7.56533">
        <ele>733.56352428037</ele>
        <time>2021-11-02T08:09:52Z</time>
      </trkpt>
      <trkpt lat="43.8883" lon="7.56533">
        <ele>734.56355012263</ele>
        <time>2021-11-02T08:09:55Z</time>
      </trkpt>
      <trkpt lat="43.88829" lon="7.56536">
        <ele>733.56363566258</ele>
        <time>2021-11-02T08:09:56Z</time>
      </trkpt>
      <trkpt lat="43.88829" lon="7.56537">
        <ele>734.56366136727</ele>
        <time>2021-11-02T08:09:57Z</time>
      </trkpt>
      <trkpt lat="43.88829" lon="7.56538">
        <ele>734.56369108283</ele>
        <time>2021-11-02T08:09:59Z</time>
      </trkpt>
      <trkpt lat="43.88829" lon="7.56538">
        <ele>734.56369108283</ele>
        <time>2021-11-02T08:10:01Z</time>
      </trkpt>
      <trkpt lat="43.8883" lon="7.56541">
        <ele>735.56370983561</ele>
        <time>2021-11-02T08:10:02Z</time>
      </trkpt>
      <trkpt lat="43.88831" lon="7.56541">
        <ele>734.56367259359</ele>
        <time>2021-11-02T08:10:04Z</time>
      </trkpt>
      <trkpt lat="43.88831" lon="7.56541">
        <ele>734.56364286911</ele>
        <time>2021-11-02T08:10:05Z</time>
      </trkpt>
      <trkpt lat="43.88832" lon="7.5654">
        <ele>733.56360414219</ele>
        <time>2021-11-02T08:10:07Z</time>
      </trkpt>
      <trkpt lat="43.88832" lon="7.5654">
        <ele>733.56359329504</ele>
        <time>2021-11-02T08:10:13Z</time>
      </trkpt>
      <trkpt lat="43.88833" lon="7.56541">
        <ele>733.56354773742</ele>
        <time>2021-11-02T08:10:15Z</time>
      </trkpt>
      <trkpt lat="43.88833" lon="7.56542">
        <ele>733.56358275264</ele>
        <time>2021-11-02T08:10:16Z</time>
      </trkpt>
      <trkpt lat="43.88834" lon="7.56542">
        <ele>735.56354663886</ele>
        <time>2021-11-02T08:10:20Z</time>
      </trkpt>
      <trkpt lat="43.88834" lon="7.56543">
        <ele>736.56352403985</ele>
        <time>2021-11-02T08:10:21Z</time>
      </trkpt>
      <trkpt lat="43.88836" lon="7.56543">
        <ele>736.56344427508</ele>
        <time>2021-11-02T08:10:23Z</time>
      </trkpt>
      <trkpt lat="43.88836" lon="7.56543">
        <ele>736.56344427508</ele>
        <time>2021-11-02T08:10:25Z</time>
      </trkpt>
      <trkpt lat="43.88837" lon="7.56545">
        <ele>738.56343921762</ele>
        <time>2021-11-02T08:10:26Z</time>
      </trkpt>
      <trkpt lat="43.88837" lon="7.56546">
        <ele>738.56343691775</ele>
        <time>2021-11-02T08:10:27Z</time>
      </trkpt>
      <trkpt lat="43.88837" lon="7.56546">
        <ele>739.56342358506</ele>
        <time>2021-11-02T08:10:28Z</time>
      </trkpt>
      <trkpt lat="43.88838" lon="7.56547">
        <ele>740.56341706326</ele>
        <time>2021-11-02T08:10:34Z</time>
      </trkpt>
      <trkpt lat="43.8884" lon="7.56546">
        <ele>739.56330949082</ele>
        <time>2021-11-02T08:10:35Z</time>
      </trkpt>
      <trkpt lat="43.8884" lon="7.56547">
        <ele>739.56328876839</ele>
        <time>2021-11-02T08:10:36Z</time>
      </trkpt>
      <trkpt lat="43.88841" lon="7.56547">
        <ele>739.56326101686</ele>
        <time>2021-11-02T08:10:38Z</time>
      </trkpt>
      <trkpt lat="43.88842" lon="7.56548">
        <ele>740.56322331914</ele>
        <time>2021-11-02T08:10:39Z</time>
      </trkpt>
      <trkpt lat="43.88843" lon="7.56548">
        <ele>740.56319772754</ele>
        <time>2021-11-02T08:10:40Z</time>
      </trkpt>
      <trkpt lat="43.88843" lon="7.56549">
        <ele>741.56319559612</ele>
        <time>2021-11-02T08:10:42Z</time>
      </trkpt>
      <trkpt lat="43.88844" lon="7.5655">
        <ele>741.56315329734</ele>
        <time>2021-11-02T08:10:44Z</time>
      </trkpt>
      <trkpt lat="43.88846" lon="7.56552">
        <ele>741.56310041569</ele>
        <time>2021-11-02T08:10:45Z</time>
      </trkpt>
      <trkpt lat="43.88847" lon="7.56552">
        <ele>741.56303845532</ele>
        <time>2021-11-02T08:10:46Z</time>
      </trkpt>
      <trkpt lat="43.88848" lon="7.56552">
        <ele>741.56300372127</ele>
        <time>2021-11-02T08:10:48Z</time>
      </trkpt>
      <trkpt lat="43.88848" lon="7.56552">
        <ele>741.56296887767</ele>
        <time>2021-11-02T08:10:50Z</time>
      </trkpt>
      <trkpt lat="43.8885" lon="7.56552">
        <ele>742.56290605382</ele>
        <time>2021-11-02T08:10:52Z</time>
      </trkpt>
      <trkpt lat="43.88851" lon="7.56553">
        <ele>741.56286197045</ele>
        <time>2021-11-02T08:10:54Z</time>
      </trkpt>
      <trkpt lat="43.88852" lon="7.56553">
        <ele>741.56282603007</ele>
        <time>2021-11-02T08:10:55Z</time>
      </trkpt>
      <trkpt lat="43.88852" lon="7.56553">
        <ele>742.56278539363</ele>
        <time>2021-11-02T08:10:56Z</time>
      </trkpt>
      <trkpt lat="43.88853" lon="7.56552">
        <ele>742.56274575422</ele>
        <time>2021-11-02T08:10:58Z</time>
      </trkpt>
      <trkpt lat="43.88853" lon="7.56552">
        <ele>744.56274030267</ele>
        <time>2021-11-02T08:11:00Z</time>
      </trkpt>
      <trkpt lat="43.88853" lon="7.56554">
        <ele>745.5627490977</ele>
        <time>2021-11-02T08:11:01Z</time>
      </trkpt>
      <trkpt lat="43.88853" lon="7.56554">
        <ele>746.56275989992</ele>
        <time>2021-11-02T08:11:04Z</time>
      </trkpt>
      <trkpt lat="43.88854" lon="7.56553">
        <ele>746.56271481458</ele>
        <time>2021-11-02T08:11:05Z</time>
      </trkpt>
      <trkpt lat="43.88854" lon="7.56553">
        <ele>746.56268969644</ele>
        <time>2021-11-02T08:11:07Z</time>
      </trkpt>
      <trkpt lat="43.88855" lon="7.56553">
        <ele>747.56264567993</ele>
        <time>2021-11-02T08:11:09Z</time>
      </trkpt>
      <trkpt lat="43.88855" lon="7.56555">
        <ele>746.56269121492</ele>
        <time>2021-11-02T08:11:10Z</time>
      </trkpt>
      <trkpt lat="43.88854" lon="7.56554">
        <ele>745.56271817804</ele>
        <time>2021-11-02T08:11:12Z</time>
      </trkpt>
      <trkpt lat="43.88855" lon="7.56555">
        <ele>745.56266980892</ele>
        <time>2021-11-02T08:11:14Z</time>
      </trkpt>
      <trkpt lat="43.88856" lon="7.56556">
        <ele>745.56264177081</ele>
        <time>2021-11-02T08:11:17Z</time>
      </trkpt>
      <trkpt lat="43.88857" lon="7.56558">
        <ele>746.56266297851</ele>
        <time>2021-11-02T08:11:19Z</time>
      </trkpt>
      <trkpt lat="43.88857" lon="7.56559">
        <ele>747.56267485264</ele>
        <time>2021-11-02T08:11:20Z</time>
      </trkpt>
      <trkpt lat="43.88857" lon="7.56559">
        <ele>747.56265255729</ele>
        <time>2021-11-02T08:11:22Z</time>
      </trkpt>
      <trkpt lat="43.88859" lon="7.5656">
        <ele>747.56259503959</ele>
        <time>2021-11-02T08:11:24Z</time>
      </trkpt>
      <trkpt lat="43.88859" lon="7.56561">
        <ele>747.56259489297</ele>
        <time>2021-11-02T08:11:25Z</time>
      </trkpt>
      <trkpt lat="43.8886" lon="7.56562">
        <ele>747.56257195012</ele>
        <time>2021-11-02T08:11:27Z</time>
      </trkpt>
      <trkpt lat="43.8886" lon="7.56562">
        <ele>747.56253907183</ele>
        <time>2021-11-02T08:11:29Z</time>
      </trkpt>
      <trkpt lat="43.88862" lon="7.56562">
        <ele>748.5624471195</ele>
        <time>2021-11-02T08:11:30Z</time>
      </trkpt>
      <trkpt lat="43.88863" lon="7.56563">
        <ele>749.56242319003</ele>
        <time>2021-11-02T08:11:31Z</time>
      </trkpt>
      <trkpt lat="43.88863" lon="7.56563">
        <ele>750.56241115037</ele>
        <time>2021-11-02T08:11:32Z</time>
      </trkpt>
      <trkpt lat="43.88864" lon="7.56563">
        <ele>750.56239099203</ele>
        <time>2021-11-02T08:11:33Z</time>
      </trkpt>
      <trkpt lat="43.88865" lon="7.56563">
        <ele>751.56235395256</ele>
        <time>2021-11-02T08:11:34Z</time>
      </trkpt>
      <trkpt lat="43.88866" lon="7.56564">
        <ele>750.56230568358</ele>
        <time>2021-11-02T08:11:35Z</time>
      </trkpt>
      <trkpt lat="43.88866" lon="7.56564">
        <ele>751.56226691255</ele>
        <time>2021-11-02T08:11:36Z</time>
      </trkpt>
      <trkpt lat="43.88867" lon="7.56564">
        <ele>751.56223668584</ele>
        <time>2021-11-02T08:11:37Z</time>
      </trkpt>
      <trkpt lat="43.88868" lon="7.56563">
        <ele>751.56220201481</ele>
        <time>2021-11-02T08:11:38Z</time>
      </trkpt>
      <trkpt lat="43.88869" lon="7.56564">
        <ele>751.56215520078</ele>
        <time>2021-11-02T08:11:39Z</time>
      </trkpt>
      <trkpt lat="43.88869" lon="7.56563">
        <ele>751.56211521235</ele>
        <time>2021-11-02T08:11:40Z</time>
      </trkpt>
      <trkpt lat="43.8887" lon="7.56564">
        <ele>751.56208475478</ele>
        <time>2021-11-02T08:11:41Z</time>
      </trkpt>
      <trkpt lat="43.88871" lon="7.56564">
        <ele>751.56205826145</ele>
        <time>2021-11-02T08:11:42Z</time>
      </trkpt>
      <trkpt lat="43.88871" lon="7.56565">
        <ele>751.56203759798</ele>
        <time>2021-11-02T08:11:43Z</time>
      </trkpt>
      <trkpt lat="43.88872" lon="7.56565">
        <ele>751.56201694735</ele>
        <time>2021-11-02T08:11:47Z</time>
      </trkpt>
      <trkpt lat="43.88874" lon="7.56566">
        <ele>752.56192146441</ele>
        <time>2021-11-02T08:11:49Z</time>
      </trkpt>
      <trkpt lat="43.88875" lon="7.56567">
        <ele>752.56187646122</ele>
        <time>2021-11-02T08:11:50Z</time>
      </trkpt>
      <trkpt lat="43.88876" lon="7.56567">
        <ele>752.561840612</ele>
        <time>2021-11-02T08:11:52Z</time>
      </trkpt>
      <trkpt lat="43.88877" lon="7.56567">
        <ele>752.5618144996</ele>
        <time>2021-11-02T08:11:53Z</time>
      </trkpt>
      <trkpt lat="43.88877" lon="7.56567">
        <ele>753.56178867697</ele>
        <time>2021-11-02T08:11:55Z</time>
      </trkpt>
      <trkpt lat="43.88878" lon="7.56568">
        <ele>752.56176059206</ele>
        <time>2021-11-02T08:11:56Z</time>
      </trkpt>
      <trkpt lat="43.88879" lon="7.56568">
        <ele>753.56172937511</ele>
        <time>2021-11-02T08:11:58Z</time>
      </trkpt>
      <trkpt lat="43.88881" lon="7.56568">
        <ele>753.56161390399</ele>
        <time>2021-11-02T08:12:00Z</time>
      </trkpt>
      <trkpt lat="43.88882" lon="7.56568">
        <ele>753.56156398638</ele>
        <time>2021-11-02T08:12:01Z</time>
      </trkpt>
      <trkpt lat="43.88882" lon="7.56568">
        <ele>754.56153265793</ele>
        <time>2021-11-02T08:12:03Z</time>
      </trkpt>
      <trkpt lat="43.88883" lon="7.56568">
        <ele>755.56149914224</ele>
        <time>2021-11-02T08:12:04Z</time>
      </trkpt>
      <trkpt lat="43.88883" lon="7.56569">
        <ele>755.56150592033</ele>
        <time>2021-11-02T08:12:07Z</time>
      </trkpt>
      <trkpt lat="43.88885" lon="7.5657">
        <ele>756.56147037979</ele>
        <time>2021-11-02T08:12:09Z</time>
      </trkpt>
      <trkpt lat="43.88886" lon="7.56571">
        <ele>756.56142046295</ele>
        <time>2021-11-02T08:12:10Z</time>
      </trkpt>
      <trkpt lat="43.88886" lon="7.56571">
        <ele>757.561391726</ele>
        <time>2021-11-02T08:12:11Z</time>
      </trkpt>
      <trkpt lat="43.88887" lon="7.5657">
        <ele>757.56136152921</ele>
        <time>2021-11-02T08:12:13Z</time>
      </trkpt>
      <trkpt lat="43.88888" lon="7.5657">
        <ele>757.56127151401</ele>
        <time>2021-11-02T08:12:14Z</time>
      </trkpt>
      <trkpt lat="43.88889" lon="7.56569">
        <ele>757.56121274588</ele>
        <time>2021-11-02T08:12:15Z</time>
      </trkpt>
      <trkpt lat="43.8889" lon="7.56569">
        <ele>758.56119183643</ele>
        <time>2021-11-02T08:12:19Z</time>
      </trkpt>
      <trkpt lat="43.88891" lon="7.5657">
        <ele>758.56112108855</ele>
        <time>2021-11-02T08:12:19Z</time>
      </trkpt>
      <trkpt lat="43.88892" lon="7.5657">
        <ele>759.56108801796</ele>
        <time>2021-11-02T08:12:20Z</time>
      </trkpt>
      <trkpt lat="43.88893" lon="7.5657">
        <ele>758.56104469938</ele>
        <time>2021-11-02T08:12:21Z</time>
      </trkpt>
      <trkpt lat="43.88893" lon="7.5657">
        <ele>759.56101859078</ele>
        <time>2021-11-02T08:12:22Z</time>
      </trkpt>
      <trkpt lat="43.88895" lon="7.5657">
        <ele>759.56095412764</ele>
        <time>2021-11-02T08:12:24Z</time>
      </trkpt>
      <trkpt lat="43.88895" lon="7.5657">
        <ele>759.56092553986</ele>
        <time>2021-11-02T08:12:25Z</time>
      </trkpt>
      <trkpt lat="43.88896" lon="7.5657">
        <ele>760.56090687756</ele>
        <time>2021-11-02T08:12:27Z</time>
      </trkpt>
      <trkpt lat="43.88896" lon="7.56571">
        <ele>760.56089823457</ele>
        <time>2021-11-02T08:12:29Z</time>
      </trkpt>
      <trkpt lat="43.88898" lon="7.56571">
        <ele>760.56080460145</ele>
        <time>2021-11-02T08:12:30Z</time>
      </trkpt>
      <trkpt lat="43.88899" lon="7.56572">
        <ele>761.56076834427</ele>
        <time>2021-11-02T08:12:31Z</time>
      </trkpt>
      <trkpt lat="43.88899" lon="7.56572">
        <ele>761.56077319169</ele>
        <time>2021-11-02T08:12:32Z</time>
      </trkpt>
      <trkpt lat="43.88901" lon="7.56573">
        <ele>762.5607059414</ele>
        <time>2021-11-02T08:12:34Z</time>
      </trkpt>
      <trkpt lat="43.88901" lon="7.56573">
        <ele>761.56067163739</ele>
        <time>2021-11-02T08:12:35Z</time>
      </trkpt>
      <trkpt lat="43.88902" lon="7.56573">
        <ele>762.56062017447</ele>
        <time>2021-11-02T08:12:37Z</time>
      </trkpt>
      <trkpt lat="43.88904" lon="7.56573">
        <ele>762.56054490276</ele>
        <time>2021-11-02T08:12:38Z</time>
      </trkpt>
      <trkpt lat="43.88905" lon="7.56573">
        <ele>763.56050886043</ele>
        <time>2021-11-02T08:12:39Z</time>
      </trkpt>
      <trkpt lat="43.88905" lon="7.56575">
        <ele>763.56050687865</ele>
        <time>2021-11-02T08:12:40Z</time>
      </trkpt>
      <trkpt lat="43.88906" lon="7.56577">
        <ele>763.560507652</ele>
        <time>2021-11-02T08:12:41Z</time>
      </trkpt>
      <trkpt lat="43.88907" lon="7.56578">
        <ele>762.56048444978</ele>
        <time>2021-11-02T08:12:42Z</time>
      </trkpt>
      <trkpt lat="43.88907" lon="7.56578">
        <ele>762.56048444978</ele>
        <time>2021-11-02T08:12:44Z</time>
      </trkpt>
      <trkpt lat="43.88909" lon="7.56578">
        <ele>762.56040554008</ele>
        <time>2021-11-02T08:12:45Z</time>
      </trkpt>
      <trkpt lat="43.88909" lon="7.56579">
        <ele>762.56038009285</ele>
        <time>2021-11-02T08:12:46Z</time>
      </trkpt>
      <trkpt lat="43.8891" lon="7.56579">
        <ele>763.56033823136</ele>
        <time>2021-11-02T08:12:47Z</time>
      </trkpt>
      <trkpt lat="43.88911" lon="7.56579">
        <ele>763.56029755948</ele>
        <time>2021-11-02T08:12:48Z</time>
      </trkpt>
      <trkpt lat="43.88912" lon="7.56579">
        <ele>764.56025710627</ele>
        <time>2021-11-02T08:12:50Z</time>
      </trkpt>
      <trkpt lat="43.88912" lon="7.56579">
        <ele>764.56022718104</ele>
        <time>2021-11-02T08:12:53Z</time>
      </trkpt>
      <trkpt lat="43.88914" lon="7.56579">
        <ele>763.56014351542</ele>
        <time>2021-11-02T08:12:54Z</time>
      </trkpt>
      <trkpt lat="43.88915" lon="7.56579">
        <ele>763.56011290976</ele>
        <time>2021-11-02T08:12:55Z</time>
      </trkpt>
      <trkpt lat="43.88915" lon="7.56579">
        <ele>764.56008751285</ele>
        <time>2021-11-02T08:12:57Z</time>
      </trkpt>
      <trkpt lat="43.88916" lon="7.5658">
        <ele>764.56006700779</ele>
        <time>2021-11-02T08:12:59Z</time>
      </trkpt>
      <trkpt lat="43.88917" lon="7.56581">
        <ele>764.56003222676</ele>
        <time>2021-11-02T08:13:00Z</time>
      </trkpt>
      <trkpt lat="43.88918" lon="7.56582">
        <ele>764.56000714704</ele>
        <time>2021-11-02T08:13:01Z</time>
      </trkpt>
      <trkpt lat="43.88918" lon="7.56583">
        <ele>764.55999140221</ele>
        <time>2021-11-02T08:13:02Z</time>
      </trkpt>
      <trkpt lat="43.88919" lon="7.56583">
        <ele>765.55996294192</ele>
        <time>2021-11-02T08:13:03Z</time>
      </trkpt>
      <trkpt lat="43.88919" lon="7.56584">
        <ele>764.55995763514</ele>
        <time>2021-11-02T08:13:04Z</time>
      </trkpt>
      <trkpt lat="43.8892" lon="7.56584">
        <ele>764.5599210253</ele>
        <time>2021-11-02T08:13:05Z</time>
      </trkpt>
      <trkpt lat="43.88921" lon="7.56585">
        <ele>764.55990406152</ele>
        <time>2021-11-02T08:13:07Z</time>
      </trkpt>
      <trkpt lat="43.88921" lon="7.56585">
        <ele>765.55988300953</ele>
        <time>2021-11-02T08:13:08Z</time>
      </trkpt>
      <trkpt lat="43.88922" lon="7.56586">
        <ele>765.55984626368</ele>
        <time>2021-11-02T08:13:10Z</time>
      </trkpt>
      <trkpt lat="43.88922" lon="7.56586">
        <ele>765.55984626368</ele>
        <time>2021-11-02T08:13:13Z</time>
      </trkpt>
      <trkpt lat="43.88923" lon="7.56587">
        <ele>764.55980328518</ele>
        <time>2021-11-02T08:13:13Z</time>
      </trkpt>
      <trkpt lat="43.88924" lon="7.56587">
        <ele>764.55978489687</ele>
        <time>2021-11-02T08:13:14Z</time>
      </trkpt>
      <trkpt lat="43.88924" lon="7.56588">
        <ele>765.55976542925</ele>
        <time>2021-11-02T08:13:15Z</time>
      </trkpt>
      <trkpt lat="43.88925" lon="7.56588">
        <ele>764.55974811746</ele>
        <time>2021-11-02T08:13:17Z</time>
      </trkpt>
      <trkpt lat="43.88926" lon="7.56589">
        <ele>765.55973481745</ele>
        <time>2021-11-02T08:13:20Z</time>
      </trkpt>
      <trkpt lat="43.88926" lon="7.56591">
        <ele>765.55975341326</ele>
        <time>2021-11-02T08:13:22Z</time>
      </trkpt>
      <trkpt lat="43.88927" lon="7.56592">
        <ele>765.55973164247</ele>
        <time>2021-11-02T08:13:24Z</time>
      </trkpt>
      <trkpt lat="43.88929" lon="7.56593">
        <ele>765.55964249358</ele>
        <time>2021-11-02T08:13:25Z</time>
      </trkpt>
      <trkpt lat="43.88929" lon="7.56593">
        <ele>766.55960495495</ele>
        <time>2021-11-02T08:13:26Z</time>
      </trkpt>
      <trkpt lat="43.8893" lon="7.56594">
        <ele>765.55957948629</ele>
        <time>2021-11-02T08:13:27Z</time>
      </trkpt>
      <trkpt lat="43.88931" lon="7.56594">
        <ele>765.55955256686</ele>
        <time>2021-11-02T08:13:28Z</time>
      </trkpt>
      <trkpt lat="43.88932" lon="7.56595">
        <ele>766.55949431312</ele>
        <time>2021-11-02T08:13:30Z</time>
      </trkpt>
      <trkpt lat="43.88933" lon="7.56595">
        <ele>766.55948076283</ele>
        <time>2021-11-02T08:13:31Z</time>
      </trkpt>
      <trkpt lat="43.88933" lon="7.56597">
        <ele>766.55949790197</ele>
        <time>2021-11-02T08:13:32Z</time>
      </trkpt>
      <trkpt lat="43.88933" lon="7.56598">
        <ele>766.55950143688</ele>
        <time>2021-11-02T08:13:33Z</time>
      </trkpt>
      <trkpt lat="43.88933" lon="7.56598">
        <ele>766.55950143688</ele>
        <time>2021-11-02T08:13:35Z</time>
      </trkpt>
      <trkpt lat="43.88934" lon="7.56599">
        <ele>766.55947330996</ele>
        <time>2021-11-02T08:13:36Z</time>
      </trkpt>
      <trkpt lat="43.88935" lon="7.56599">
        <ele>766.55943328578</ele>
        <time>2021-11-02T08:13:38Z</time>
      </trkpt>
      <trkpt lat="43.88935" lon="7.566">
        <ele>766.55941769273</ele>
        <time>2021-11-02T08:13:42Z</time>
      </trkpt>
      <trkpt lat="43.88937" lon="7.566">
        <ele>766.55934961445</ele>
        <time>2021-11-02T08:13:43Z</time>
      </trkpt>
      <trkpt lat="43.88938" lon="7.566">
        <ele>767.55931238244</ele>
        <time>2021-11-02T08:13:44Z</time>
      </trkpt>
      <trkpt lat="43.88938" lon="7.56599">
        <ele>767.55926462099</ele>
        <time>2021-11-02T08:13:46Z</time>
      </trkpt>
      <trkpt lat="43.88939" lon="7.56599">
        <ele>767.5592506367</ele>
        <time>2021-11-02T08:13:47Z</time>
      </trkpt>
      <trkpt lat="43.88939" lon="7.566">
        <ele>767.55922832535</ele>
        <time>2021-11-02T08:13:48Z</time>
      </trkpt>
      <trkpt lat="43.8894" lon="7.56601">
        <ele>767.55922489315</ele>
        <time>2021-11-02T08:13:52Z</time>
      </trkpt>
      <trkpt lat="43.8894" lon="7.56603">
        <ele>767.55923629223</ele>
        <time>2021-11-02T08:13:53Z</time>
      </trkpt>
      <trkpt lat="43.88941" lon="7.56603">
        <ele>767.55922323719</ele>
        <time>2021-11-02T08:13:54Z</time>
      </trkpt>
      <trkpt lat="43.88941" lon="7.56603">
        <ele>767.55919759564</ele>
        <time>2021-11-02T08:13:55Z</time>
      </trkpt>
      <trkpt lat="43.88942" lon="7.56603">
        <ele>767.55916104003</ele>
        <time>2021-11-02T08:13:56Z</time>
      </trkpt>
      <trkpt lat="43.88943" lon="7.56604">
        <ele>768.55914441971</ele>
        <time>2021-11-02T08:13:58Z</time>
      </trkpt>
      <trkpt lat="43.88943" lon="7.56604">
        <ele>768.55912220983</ele>
        <time>2021-11-02T08:14:01Z</time>
      </trkpt>
      <trkpt lat="43.88943" lon="7.56605">
        <ele>768.55910313342</ele>
        <time>2021-11-02T08:14:03Z</time>
      </trkpt>
      <trkpt lat="43.88944" lon="7.56605">
        <ele>768.55911073551</ele>
        <time>2021-11-02T08:14:06Z</time>
      </trkpt>
      <trkpt lat="43.88944" lon="7.56606">
        <ele>768.55910115283</ele>
        <time>2021-11-02T08:14:07Z</time>
      </trkpt>
      <trkpt lat="43.88944" lon="7.56606">
        <ele>767.55908758311</ele>
        <time>2021-11-02T08:14:09Z</time>
      </trkpt>
      <trkpt lat="43.88946" lon="7.56607">
        <ele>768.55903173396</ele>
        <time>2021-11-02T08:14:10Z</time>
      </trkpt>
      <trkpt lat="43.88946" lon="7.56606">
        <ele>768.55898316511</ele>
        <time>2021-11-02T08:14:11Z</time>
      </trkpt>
      <trkpt lat="43.88948" lon="7.56606">
        <ele>768.55889088443</ele>
        <time>2021-11-02T08:14:13Z</time>
      </trkpt>
      <trkpt lat="43.88948" lon="7.56606">
        <ele>768.55889088443</ele>
        <time>2021-11-02T08:14:15Z</time>
      </trkpt>
      <trkpt lat="43.8895" lon="7.56608">
        <ele>767.55883953407</ele>
        <time>2021-11-02T08:14:16Z</time>
      </trkpt>
      <trkpt lat="43.8895" lon="7.56609">
        <ele>767.55883187073</ele>
        <time>2021-11-02T08:14:18Z</time>
      </trkpt>
      <trkpt lat="43.88951" lon="7.5661">
        <ele>766.55883828225</ele>
        <time>2021-11-02T08:14:19Z</time>
      </trkpt>
      <trkpt lat="43.88951" lon="7.56611">
        <ele>766.55882963362</ele>
        <time>2021-11-02T08:14:20Z</time>
      </trkpt>
      <trkpt lat="43.88952" lon="7.56612">
        <ele>766.55882139544</ele>
        <time>2021-11-02T08:14:21Z</time>
      </trkpt>
      <trkpt lat="43.88952" lon="7.56615">
        <ele>765.55882363548</ele>
        <time>2021-11-02T08:14:23Z</time>
      </trkpt>
      <trkpt lat="43.88953" lon="7.56616">
        <ele>765.55882203907</ele>
        <time>2021-11-02T08:14:25Z</time>
      </trkpt>
      <trkpt lat="43.88954" lon="7.56617">
        <ele>766.55879598784</ele>
        <time>2021-11-02T08:14:29Z</time>
      </trkpt>
      <trkpt lat="43.88956" lon="7.56617">
        <ele>767.55867380484</ele>
        <time>2021-11-02T08:14:30Z</time>
      </trkpt>
      <trkpt lat="43.88957" lon="7.56617">
        <ele>767.55862110526</ele>
        <time>2021-11-02T08:14:31Z</time>
      </trkpt>
      <trkpt lat="43.88959" lon="7.56617">
        <ele>767.55854648254</ele>
        <time>2021-11-02T08:14:33Z</time>
      </trkpt>
      <trkpt lat="43.8896" lon="7.56618">
        <ele>768.55850287792</ele>
        <time>2021-11-02T08:14:34Z</time>
      </trkpt>
      <trkpt lat="43.88961" lon="7.56619">
        <ele>768.55847887471</ele>
        <time>2021-11-02T08:14:35Z</time>
      </trkpt>
      <trkpt lat="43.88961" lon="7.56619">
        <ele>768.55845233854</ele>
        <time>2021-11-02T08:14:36Z</time>
      </trkpt>
      <trkpt lat="43.88961" lon="7.56619">
        <ele>768.55845233854</ele>
        <time>2021-11-02T08:14:37Z</time>
      </trkpt>
      <trkpt lat="43.88963" lon="7.5662">
        <ele>768.55838433075</ele>
        <time>2021-11-02T08:14:39Z</time>
      </trkpt>
      <trkpt lat="43.88963" lon="7.56619">
        <ele>768.5583470906</ele>
        <time>2021-11-02T08:14:41Z</time>
      </trkpt>
      <trkpt lat="43.88964" lon="7.56618">
        <ele>769.55831658398</ele>
        <time>2021-11-02T08:14:42Z</time>
      </trkpt>
      <trkpt lat="43.88965" lon="7.56618">
        <ele>768.55826385551</ele>
        <time>2021-11-02T08:14:44Z</time>
      </trkpt>
      <trkpt lat="43.88965" lon="7.56619">
        <ele>768.55824499153</ele>
        <time>2021-11-02T08:14:45Z</time>
      </trkpt>
      <trkpt lat="43.88966" lon="7.5662">
        <ele>768.55823612447</ele>
        <time>2021-11-02T08:14:47Z</time>
      </trkpt>
      <trkpt lat="43.88966" lon="7.5662">
        <ele>768.55820950404</ele>
        <time>2021-11-02T08:14:48Z</time>
      </trkpt>
      <trkpt lat="43.88967" lon="7.5662">
        <ele>768.55816931795</ele>
        <time>2021-11-02T08:14:49Z</time>
      </trkpt>
      <trkpt lat="43.88968" lon="7.5662">
        <ele>768.55812017636</ele>
        <time>2021-11-02T08:14:50Z</time>
      </trkpt>
      <trkpt lat="43.8897" lon="7.5662">
        <ele>768.55804221921</ele>
        <time>2021-11-02T08:14:51Z</time>
      </trkpt>
      <trkpt lat="43.88971" lon="7.5662">
        <ele>769.55798412319</ele>
        <time>2021-11-02T08:14:53Z</time>
      </trkpt>
      <trkpt lat="43.88972" lon="7.56621">
        <ele>770.55792472698</ele>
        <time>2021-11-02T08:14:54Z</time>
      </trkpt>
      <trkpt lat="43.88973" lon="7.56621">
        <ele>769.5578860921</ele>
        <time>2021-11-02T08:14:55Z</time>
      </trkpt>
      <trkpt lat="43.88974" lon="7.56621">
        <ele>770.55786084589</ele>
        <time>2021-11-02T08:14:56Z</time>
      </trkpt>
      <trkpt lat="43.88974" lon="7.56621">
        <ele>770.5578364926</ele>
        <time>2021-11-02T08:14:57Z</time>
      </trkpt>
      <trkpt lat="43.88975" lon="7.56621">
        <ele>771.55780705848</ele>
        <time>2021-11-02T08:14:58Z</time>
      </trkpt>
      <trkpt lat="43.88976" lon="7.56621">
        <ele>771.55777351757</ele>
        <time>2021-11-02T08:14:59Z</time>
      </trkpt>
      <trkpt lat="43.88976" lon="7.56622">
        <ele>772.55775062531</ele>
        <time>2021-11-02T08:15:00Z</time>
      </trkpt>
      <trkpt lat="43.88977" lon="7.56622">
        <ele>772.55771238818</ele>
        <time>2021-11-02T08:15:01Z</time>
      </trkpt>
      <trkpt lat="43.88977" lon="7.56622">
        <ele>772.55768619831</ele>
        <time>2021-11-02T08:15:03Z</time>
      </trkpt>
      <trkpt lat="43.88979" lon="7.56623">
        <ele>773.5576291168</ele>
        <time>2021-11-02T08:15:04Z</time>
      </trkpt>
      <trkpt lat="43.8898" lon="7.56623">
        <ele>773.5575806163</ele>
        <time>2021-11-02T08:15:05Z</time>
      </trkpt>
      <trkpt lat="43.88981" lon="7.56623">
        <ele>774.55753100369</ele>
        <time>2021-11-02T08:15:07Z</time>
      </trkpt>
      <trkpt lat="43.88982" lon="7.56623">
        <ele>775.55749503087</ele>
        <time>2021-11-02T08:15:09Z</time>
      </trkpt>
      <trkpt lat="43.88982" lon="7.56625">
        <ele>775.55748141647</ele>
        <time>2021-11-02T08:15:10Z</time>
      </trkpt>
      <trkpt lat="43.88983" lon="7.56625">
        <ele>776.55745947555</ele>
        <time>2021-11-02T08:15:11Z</time>
      </trkpt>
      <trkpt lat="43.88984" lon="7.56625">
        <ele>776.55741949138</ele>
        <time>2021-11-02T08:15:12Z</time>
      </trkpt>
      <trkpt lat="43.88985" lon="7.56623">
        <ele>777.55732626146</ele>
        <time>2021-11-02T08:15:14Z</time>
      </trkpt>
      <trkpt lat="43.88986" lon="7.56623">
        <ele>777.5572901608</ele>
        <time>2021-11-02T08:15:15Z</time>
      </trkpt>
      <trkpt lat="43.88986" lon="7.56624">
        <ele>777.55727495934</ele>
        <time>2021-11-02T08:15:17Z</time>
      </trkpt>
      <trkpt lat="43.88987" lon="7.56624">
        <ele>777.55726383586</ele>
        <time>2021-11-02T08:15:19Z</time>
      </trkpt>
      <trkpt lat="43.88988" lon="7.56624">
        <ele>777.55719180116</ele>
        <time>2021-11-02T08:15:20Z</time>
      </trkpt>
      <trkpt lat="43.88989" lon="7.56624">
        <ele>777.55713374752</ele>
        <time>2021-11-02T08:15:21Z</time>
      </trkpt>
      <trkpt lat="43.8899" lon="7.56625">
        <ele>778.55712129529</ele>
        <time>2021-11-02T08:15:23Z</time>
      </trkpt>
      <trkpt lat="43.8899" lon="7.56624">
        <ele>778.55707344407</ele>
        <time>2021-11-02T08:15:24Z</time>
      </trkpt>
      <trkpt lat="43.88991" lon="7.56624">
        <ele>779.55703627287</ele>
        <time>2021-11-02T08:15:27Z</time>
      </trkpt>
      <trkpt lat="43.88992" lon="7.56624">
        <ele>779.5569665658</ele>
        <time>2021-11-02T08:15:29Z</time>
      </trkpt>
      <trkpt lat="43.88994" lon="7.56624">
        <ele>779.55690603899</ele>
        <time>2021-11-02T08:15:30Z</time>
      </trkpt>
      <trkpt lat="43.88995" lon="7.56624">
        <ele>779.55685491877</ele>
        <time>2021-11-02T08:15:31Z</time>
      </trkpt>
      <trkpt lat="43.88996" lon="7.56625">
        <ele>780.55682347432</ele>
        <time>2021-11-02T08:15:32Z</time>
      </trkpt>
      <trkpt lat="43.88997" lon="7.56625">
        <ele>780.55675171749</ele>
        <time>2021-11-02T08:15:34Z</time>
      </trkpt>
      <trkpt lat="43.88998" lon="7.56625">
        <ele>780.55670918253</ele>
        <time>2021-11-02T08:15:35Z</time>
      </trkpt>
      <trkpt lat="43.88998" lon="7.56625">
        <ele>780.55666999691</ele>
        <time>2021-11-02T08:15:36Z</time>
      </trkpt>
      <trkpt lat="43.88999" lon="7.56625">
        <ele>781.55662842433</ele>
        <time>2021-11-02T08:15:37Z</time>
      </trkpt>
      <trkpt lat="43.89" lon="7.56624">
        <ele>781.5565944487</ele>
        <time>2021-11-02T08:15:38Z</time>
      </trkpt>
      <trkpt lat="43.89001" lon="7.56624">
        <ele>781.55655891527</ele>
        <time>2021-11-02T08:15:39Z</time>
      </trkpt>
      <trkpt lat="43.89001" lon="7.56624">
        <ele>781.55652391733</ele>
        <time>2021-11-02T08:15:42Z</time>
      </trkpt>
      <trkpt lat="43.89003" lon="7.56624">
        <ele>780.55642274014</ele>
        <time>2021-11-02T08:15:43Z</time>
      </trkpt>
      <trkpt lat="43.89004" lon="7.56624">
        <ele>780.55640063069</ele>
        <time>2021-11-02T08:15:44Z</time>
      </trkpt>
      <trkpt lat="43.89004" lon="7.56625">
        <ele>780.55638653918</ele>
        <time>2021-11-02T08:15:45Z</time>
      </trkpt>
      <trkpt lat="43.89005" lon="7.56625">
        <ele>781.55636730092</ele>
        <time>2021-11-02T08:15:51Z</time>
      </trkpt>
      <trkpt lat="43.89004" lon="7.56627">
        <ele>781.55642584694</ele>
        <time>2021-11-02T08:15:53Z</time>
      </trkpt>
      <trkpt lat="43.89004" lon="7.56629">
        <ele>781.55649734717</ele>
        <time>2021-11-02T08:15:54Z</time>
      </trkpt>
      <trkpt lat="43.89003" lon="7.5663">
        <ele>781.55652626546</ele>
        <time>2021-11-02T08:15:55Z</time>
      </trkpt>
      <trkpt lat="43.89003" lon="7.56631">
        <ele>781.55656151269</ele>
        <time>2021-11-02T08:15:56Z</time>
      </trkpt>
      <trkpt lat="43.89003" lon="7.56632">
        <ele>781.5565978961</ele>
        <time>2021-11-02T08:16:00Z</time>
      </trkpt>
      <trkpt lat="43.89002" lon="7.56634">
        <ele>781.55666293874</ele>
        <time>2021-11-02T08:16:01Z</time>
      </trkpt>
      <trkpt lat="43.89002" lon="7.56635">
        <ele>781.55669364808</ele>
        <time>2021-11-02T08:16:02Z</time>
      </trkpt>
      <trkpt lat="43.89001" lon="7.56636">
        <ele>781.55674610339</ele>
        <time>2021-11-02T08:16:03Z</time>
      </trkpt>
      <trkpt lat="43.89" lon="7.56637">
        <ele>781.55680563306</ele>
        <time>2021-11-02T08:16:04Z</time>
      </trkpt>
      <trkpt lat="43.89" lon="7.56638">
        <ele>781.55683179732</ele>
        <time>2021-11-02T08:16:09Z</time>
      </trkpt>
      <trkpt lat="43.88998" lon="7.56638">
        <ele>780.55692012875</ele>
        <time>2021-11-02T08:16:10Z</time>
      </trkpt>
      <trkpt lat="43.88997" lon="7.56639">
        <ele>780.5569737843</ele>
        <time>2021-11-02T08:16:11Z</time>
      </trkpt>
      <trkpt lat="43.88997" lon="7.56639">
        <ele>780.5570176898</ele>
        <time>2021-11-02T08:16:13Z</time>
      </trkpt>
      <trkpt lat="43.88995" lon="7.56641">
        <ele>781.55710348337</ele>
        <time>2021-11-02T08:16:14Z</time>
      </trkpt>
      <trkpt lat="43.88995" lon="7.56641">
        <ele>780.55715226293</ele>
        <time>2021-11-02T08:16:15Z</time>
      </trkpt>
      <trkpt lat="43.88994" lon="7.56641">
        <ele>780.55718849811</ele>
        <time>2021-11-02T08:16:16Z</time>
      </trkpt>
      <trkpt lat="43.88993" lon="7.56642">
        <ele>780.55724241844</ele>
        <time>2021-11-02T08:16:18Z</time>
      </trkpt>
      <trkpt lat="43.88992" lon="7.56642">
        <ele>780.55730497448</ele>
        <time>2021-11-02T08:16:19Z</time>
      </trkpt>
      <trkpt lat="43.88992" lon="7.56643">
        <ele>780.55734333498</ele>
        <time>2021-11-02T08:16:22Z</time>
      </trkpt>
      <trkpt lat="43.88991" lon="7.56644">
        <ele>780.55738874701</ele>
        <time>2021-11-02T08:16:24Z</time>
      </trkpt>
      <trkpt lat="43.8899" lon="7.56646">
        <ele>781.55745947057</ele>
        <time>2021-11-02T08:16:25Z</time>
      </trkpt>
      <trkpt lat="43.8899" lon="7.56646">
        <ele>781.55750839053</ele>
        <time>2021-11-02T08:16:28Z</time>
      </trkpt>
      <trkpt lat="43.88989" lon="7.56646">
        <ele>781.55751911131</ele>
        <time>2021-11-02T08:16:32Z</time>
      </trkpt>
      <trkpt lat="43.88988" lon="7.56649">
        <ele>781.55764179537</ele>
        <time>2021-11-02T08:16:34Z</time>
      </trkpt>
      <trkpt lat="43.88987" lon="7.5665">
        <ele>781.5577013555</ele>
        <time>2021-11-02T08:16:35Z</time>
      </trkpt>
      <trkpt lat="43.88986" lon="7.5665">
        <ele>782.55773662152</ele>
        <time>2021-11-02T08:16:38Z</time>
      </trkpt>
      <trkpt lat="43.88985" lon="7.5665">
        <ele>781.55777704334</ele>
        <time>2021-11-02T08:16:39Z</time>
      </trkpt>
      <trkpt lat="43.88986" lon="7.56649">
        <ele>782.55774898661</ele>
        <time>2021-11-02T08:16:44Z</time>
      </trkpt>
      <trkpt lat="43.88986" lon="7.56649">
        <ele>783.55772112765</ele>
        <time>2021-11-02T08:16:45Z</time>
      </trkpt>
      <trkpt lat="43.88987" lon="7.56649">
        <ele>783.55766117806</ele>
        <time>2021-11-02T08:16:46Z</time>
      </trkpt>
      <trkpt lat="43.88988" lon="7.56648">
        <ele>783.55759828209</ele>
        <time>2021-11-02T08:16:47Z</time>
      </trkpt>
      <trkpt lat="43.88989" lon="7.56647">
        <ele>783.55753688687</ele>
        <time>2021-11-02T08:16:49Z</time>
      </trkpt>
      <trkpt lat="43.88989" lon="7.56647">
        <ele>783.55753688687</ele>
        <time>2021-11-02T08:16:50Z</time>
      </trkpt>
      <trkpt lat="43.88992" lon="7.56647">
        <ele>784.55742319616</ele>
        <time>2021-11-02T08:16:52Z</time>
      </trkpt>
      <trkpt lat="43.88993" lon="7.56647">
        <ele>785.55734640324</ele>
        <time>2021-11-02T08:16:54Z</time>
      </trkpt>
      <trkpt lat="43.88994" lon="7.56646">
        <ele>786.55729620333</ele>
        <time>2021-11-02T08:16:55Z</time>
      </trkpt>
      <trkpt lat="43.88994" lon="7.56646">
        <ele>787.55725766597</ele>
        <time>2021-11-02T08:16:56Z</time>
      </trkpt>
      <trkpt lat="43.88995" lon="7.56646">
        <ele>787.55723349248</ele>
        <time>2021-11-02T08:16:57Z</time>
      </trkpt>
      <trkpt lat="43.88995" lon="7.56647">
        <ele>787.5572222046</ele>
        <time>2021-11-02T08:16:58Z</time>
      </trkpt>
      <trkpt lat="43.88996" lon="7.56647">
        <ele>787.55721652019</ele>
        <time>2021-11-02T08:17:01Z</time>
      </trkpt>
      <trkpt lat="43.88997" lon="7.5665">
        <ele>788.55719290276</ele>
        <time>2021-11-02T08:17:02Z</time>
      </trkpt>
      <trkpt lat="43.88998" lon="7.56649">
        <ele>788.55715524763</ele>
        <time>2021-11-02T08:17:04Z</time>
      </trkpt>
      <trkpt lat="43.88997" lon="7.56651">
        <ele>788.55717761327</ele>
        <time>2021-11-02T08:17:05Z</time>
      </trkpt>
      <trkpt lat="43.88997" lon="7.56651">
        <ele>788.55721234303</ele>
        <time>2021-11-02T08:17:06Z</time>
      </trkpt>
      <trkpt lat="43.88996" lon="7.56651">
        <ele>789.55723646318</ele>
        <time>2021-11-02T08:17:07Z</time>
      </trkpt>
      <trkpt lat="43.88996" lon="7.56651">
        <ele>789.55728587323</ele>
        <time>2021-11-02T08:17:11Z</time>
      </trkpt>
      <trkpt lat="43.88994" lon="7.56652">
        <ele>789.5573772623</ele>
        <time>2021-11-02T08:17:12Z</time>
      </trkpt>
      <trkpt lat="43.88993" lon="7.56652">
        <ele>789.55741855625</ele>
        <time>2021-11-02T08:17:13Z</time>
      </trkpt>
      <trkpt lat="43.88993" lon="7.56653">
        <ele>789.55746039362</ele>
        <time>2021-11-02T08:17:14Z</time>
      </trkpt>
      <trkpt lat="43.88992" lon="7.56653">
        <ele>789.55748763616</ele>
        <time>2021-11-02T08:17:17Z</time>
      </trkpt>
      <trkpt lat="43.88991" lon="7.56653">
        <ele>789.55755417051</ele>
        <time>2021-11-02T08:17:18Z</time>
      </trkpt>
      <trkpt lat="43.88991" lon="7.56654">
        <ele>789.55758731829</ele>
        <time>2021-11-02T08:17:19Z</time>
      </trkpt>
      <trkpt lat="43.8899" lon="7.56654">
        <ele>790.55763345171</ele>
        <time>2021-11-02T08:17:20Z</time>
      </trkpt>
      <trkpt lat="43.88989" lon="7.56655">
        <ele>790.55767552534</ele>
        <time>2021-11-02T08:17:21Z</time>
      </trkpt>
      <trkpt lat="43.88988" lon="7.56656">
        <ele>790.55773895698</ele>
        <time>2021-11-02T08:17:24Z</time>
      </trkpt>
      <trkpt lat="43.88988" lon="7.56657">
        <ele>790.557803113</ele>
        <time>2021-11-02T08:17:25Z</time>
      </trkpt>
      <trkpt lat="43.88987" lon="7.56658">
        <ele>790.55785141281</ele>
        <time>2021-11-02T08:17:27Z</time>
      </trkpt>
      <trkpt lat="43.88985" lon="7.56659">
        <ele>790.55797964754</ele>
        <time>2021-11-02T08:17:29Z</time>
      </trkpt>
      <trkpt lat="43.88984" lon="7.56659">
        <ele>790.5580177492</ele>
        <time>2021-11-02T08:17:30Z</time>
      </trkpt>
      <trkpt lat="43.88983" lon="7.56659">
        <ele>790.55805708577</ele>
        <time>2021-11-02T08:17:31Z</time>
      </trkpt>
      <trkpt lat="43.88983" lon="7.56659">
        <ele>790.55808175885</ele>
        <time>2021-11-02T08:17:33Z</time>
      </trkpt>
      <trkpt lat="43.88981" lon="7.5666">
        <ele>791.55816290581</ele>
        <time>2021-11-02T08:17:35Z</time>
      </trkpt>
      <trkpt lat="43.88981" lon="7.5666">
        <ele>791.55818958426</ele>
        <time>2021-11-02T08:17:36Z</time>
      </trkpt>
      <trkpt lat="43.8898" lon="7.5666">
        <ele>791.55822446176</ele>
        <time>2021-11-02T08:17:37Z</time>
      </trkpt>
      <trkpt lat="43.88979" lon="7.56661">
        <ele>791.55831108512</ele>
        <time>2021-11-02T08:17:39Z</time>
      </trkpt>
      <trkpt lat="43.88978" lon="7.56661">
        <ele>792.55836051758</ele>
        <time>2021-11-02T08:17:40Z</time>
      </trkpt>
      <trkpt lat="43.88977" lon="7.56662">
        <ele>792.55839905343</ele>
        <time>2021-11-02T08:17:41Z</time>
      </trkpt>
      <trkpt lat="43.88977" lon="7.56662">
        <ele>792.55843615737</ele>
        <time>2021-11-02T08:17:53Z</time>
      </trkpt>
      <trkpt lat="43.88978" lon="7.56663">
        <ele>792.55839990946</ele>
        <time>2021-11-02T08:17:54Z</time>
      </trkpt>
      <trkpt lat="43.88977" lon="7.56664">
        <ele>792.55843575198</ele>
        <time>2021-11-02T08:17:55Z</time>
      </trkpt>
      <trkpt lat="43.88977" lon="7.56665">
        <ele>792.55845450432</ele>
        <time>2021-11-02T08:17:59Z</time>
      </trkpt>
      <trkpt lat="43.88976" lon="7.56665">
        <ele>792.55850710351</ele>
        <time>2021-11-02T08:18:00Z</time>
      </trkpt>
      <trkpt lat="43.88976" lon="7.56666">
        <ele>792.55854147293</ele>
        <time>2021-11-02T08:18:06Z</time>
      </trkpt>
      <trkpt lat="43.88976" lon="7.56668">
        <ele>793.55856441649</ele>
        <time>2021-11-02T08:18:08Z</time>
      </trkpt>
      <trkpt lat="43.88977" lon="7.56668">
        <ele>793.55855348459</ele>
        <time>2021-11-02T08:18:09Z</time>
      </trkpt>
      <trkpt lat="43.88977" lon="7.56669">
        <ele>794.55854299288</ele>
        <time>2021-11-02T08:18:14Z</time>
      </trkpt>
      <trkpt lat="43.88977" lon="7.5667">
        <ele>795.5585688694</ele>
        <time>2021-11-02T08:18:22Z</time>
      </trkpt>
      <trkpt lat="43.88978" lon="7.56669">
        <ele>796.5585054583</ele>
        <time>2021-11-02T08:18:24Z</time>
      </trkpt>
      <trkpt lat="43.88978" lon="7.56672">
        <ele>797.55855567587</ele>
        <time>2021-11-02T08:18:25Z</time>
      </trkpt>
      <trkpt lat="43.88977" lon="7.56673">
        <ele>797.55860524851</ele>
        <time>2021-11-02T08:18:26Z</time>
      </trkpt>
      <trkpt lat="43.88977" lon="7.56674">
        <ele>797.5586326689</ele>
        <time>2021-11-02T08:18:29Z</time>
      </trkpt>
      <trkpt lat="43.88975" lon="7.56676">
        <ele>797.55873389118</ele>
        <time>2021-11-02T08:18:30Z</time>
      </trkpt>
      <trkpt lat="43.88974" lon="7.56676">
        <ele>797.55880247721</ele>
        <time>2021-11-02T08:18:31Z</time>
      </trkpt>
      <trkpt lat="43.88972" lon="7.56677">
        <ele>797.55890917019</ele>
        <time>2021-11-02T08:18:33Z</time>
      </trkpt>
      <trkpt lat="43.88972" lon="7.56678">
        <ele>799.55894768827</ele>
        <time>2021-11-02T08:18:38Z</time>
      </trkpt>
      <trkpt lat="43.88971" lon="7.56679">
        <ele>800.55899582029</ele>
        <time>2021-11-02T08:18:39Z</time>
      </trkpt>
      <trkpt lat="43.88972" lon="7.5668">
        <ele>800.55897638023</ele>
        <time>2021-11-02T08:18:41Z</time>
      </trkpt>
      <trkpt lat="43.88972" lon="7.5668">
        <ele>800.55896592828</ele>
        <time>2021-11-02T08:18:43Z</time>
      </trkpt>
      <trkpt lat="43.88973" lon="7.56681">
        <ele>800.55893698308</ele>
        <time>2021-11-02T08:18:44Z</time>
      </trkpt>
      <trkpt lat="43.88974" lon="7.56681">
        <ele>801.5589264679</ele>
        <time>2021-11-02T08:18:45Z</time>
      </trkpt>
      <trkpt lat="43.88974" lon="7.56681">
        <ele>801.55889458163</ele>
        <time>2021-11-02T08:18:46Z</time>
      </trkpt>
      <trkpt lat="43.88975" lon="7.5668">
        <ele>801.55884287964</ele>
        <time>2021-11-02T08:18:49Z</time>
      </trkpt>
      <trkpt lat="43.88975" lon="7.56679">
        <ele>802.55880615117</ele>
        <time>2021-11-02T08:18:52Z</time>
      </trkpt>
      <trkpt lat="43.88976" lon="7.56679">
        <ele>803.55876802331</ele>
        <time>2021-11-02T08:18:53Z</time>
      </trkpt>
      <trkpt lat="43.88977" lon="7.5668">
        <ele>803.55872859064</ele>
        <time>2021-11-02T08:18:54Z</time>
      </trkpt>
      <trkpt lat="43.88978" lon="7.56681">
        <ele>803.55872230722</ele>
        <time>2021-11-02T08:18:55Z</time>
      </trkpt>
      <trkpt lat="43.88978" lon="7.56682">
        <ele>803.55872253264</ele>
        <time>2021-11-02T08:18:57Z</time>
      </trkpt>
      <trkpt lat="43.88979" lon="7.56683">
        <ele>803.55866539609</ele>
        <time>2021-11-02T08:18:59Z</time>
      </trkpt>
      <trkpt lat="43.88979" lon="7.56683">
        <ele>803.55866539609</ele>
        <time>2021-11-02T08:19:00Z</time>
      </trkpt>
      <trkpt lat="43.8898" lon="7.56685">
        <ele>802.55866929303</ele>
        <time>2021-11-02T08:19:01Z</time>
      </trkpt>
      <trkpt lat="43.8898" lon="7.56686">
        <ele>802.55867728299</ele>
        <time>2021-11-02T08:19:03Z</time>
      </trkpt>
      <trkpt lat="43.88979" lon="7.56687">
        <ele>801.55873315235</ele>
        <time>2021-11-02T08:19:04Z</time>
      </trkpt>
      <trkpt lat="43.88979" lon="7.56688">
        <ele>801.55875539654</ele>
        <time>2021-11-02T08:19:05Z</time>
      </trkpt>
      <trkpt lat="43.88979" lon="7.56689">
        <ele>801.55879591512</ele>
        <time>2021-11-02T08:19:07Z</time>
      </trkpt>
      <trkpt lat="43.88978" lon="7.56689">
        <ele>801.55885444207</ele>
        <time>2021-11-02T08:19:09Z</time>
      </trkpt>
      <trkpt lat="43.88976" lon="7.5669">
        <ele>801.55894689628</ele>
        <time>2021-11-02T08:19:10Z</time>
      </trkpt>
      <trkpt lat="43.88976" lon="7.5669">
        <ele>801.55897322733</ele>
        <time>2021-11-02T08:19:11Z</time>
      </trkpt>
      <trkpt lat="43.88975" lon="7.5669">
        <ele>801.5589974423</ele>
        <time>2021-11-02T08:19:13Z</time>
      </trkpt>
      <trkpt lat="43.88974" lon="7.56689">
        <ele>801.55904506552</ele>
        <time>2021-11-02T08:19:14Z</time>
      </trkpt>
      <trkpt lat="43.88973" lon="7.56689">
        <ele>802.5590787138</ele>
        <time>2021-11-02T08:19:15Z</time>
      </trkpt>
      <trkpt lat="43.88973" lon="7.56689">
        <ele>801.55910369746</ele>
        <time>2021-11-02T08:19:16Z</time>
      </trkpt>
      <trkpt lat="43.88973" lon="7.5669">
        <ele>801.55912922139</ele>
        <time>2021-11-02T08:19:17Z</time>
      </trkpt>
      <trkpt lat="43.88972" lon="7.5669">
        <ele>801.55915818747</ele>
        <time>2021-11-02T08:19:20Z</time>
      </trkpt>
      <trkpt lat="43.88972" lon="7.56692">
        <ele>802.55920598471</ele>
        <time>2021-11-02T08:19:21Z</time>
      </trkpt>
      <trkpt lat="43.88972" lon="7.56692">
        <ele>803.55921868241</ele>
        <time>2021-11-02T08:19:22Z</time>
      </trkpt>
      <trkpt lat="43.88972" lon="7.56693">
        <ele>803.55923272589</ele>
        <time>2021-11-02T08:19:23Z</time>
      </trkpt>
      <trkpt lat="43.88972" lon="7.56693">
        <ele>803.55921876554</ele>
        <time>2021-11-02T08:19:26Z</time>
      </trkpt>
      <trkpt lat="43.88973" lon="7.56695">
        <ele>804.55917536171</ele>
        <time>2021-11-02T08:19:27Z</time>
      </trkpt>
      <trkpt lat="43.88974" lon="7.56694">
        <ele>805.55915257373</ele>
        <time>2021-11-02T08:19:30Z</time>
      </trkpt>
      <trkpt lat="43.88974" lon="7.56694">
        <ele>805.55912183891</ele>
        <time>2021-11-02T08:19:31Z</time>
      </trkpt>
      <trkpt lat="43.88975" lon="7.56694">
        <ele>806.55908106278</ele>
        <time>2021-11-02T08:19:33Z</time>
      </trkpt>
      <trkpt lat="43.88975" lon="7.56695">
        <ele>806.55909003636</ele>
        <time>2021-11-02T08:19:35Z</time>
      </trkpt>
      <trkpt lat="43.88975" lon="7.56696">
        <ele>806.55909893531</ele>
        <time>2021-11-02T08:19:36Z</time>
      </trkpt>
      <trkpt lat="43.88976" lon="7.56698">
        <ele>807.55909861972</ele>
        <time>2021-11-02T08:19:37Z</time>
      </trkpt>
      <trkpt lat="43.88976" lon="7.567">
        <ele>806.55912095156</ele>
        <time>2021-11-02T08:19:39Z</time>
      </trkpt>
      <trkpt lat="43.88976" lon="7.567">
        <ele>807.55913156002</ele>
        <time>2021-11-02T08:19:40Z</time>
      </trkpt>
      <trkpt lat="43.88976" lon="7.56701">
        <ele>808.55914420903</ele>
        <time>2021-11-02T08:19:41Z</time>
      </trkpt>
      <trkpt lat="43.88975" lon="7.56701">
        <ele>808.55920069736</ele>
        <time>2021-11-02T08:19:43Z</time>
      </trkpt>
      <trkpt lat="43.88974" lon="7.56701">
        <ele>810.5592743388</ele>
        <time>2021-11-02T08:19:45Z</time>
      </trkpt>
      <trkpt lat="43.88973" lon="7.567">
        <ele>812.5593037839</ele>
        <time>2021-11-02T08:19:47Z</time>
      </trkpt>
      <trkpt lat="43.88973" lon="7.56702">
        <ele>813.55933520942</ele>
        <time>2021-11-02T08:19:49Z</time>
      </trkpt>
      <trkpt lat="43.88973" lon="7.56702">
        <ele>813.55933520942</ele>
        <time>2021-11-02T08:19:51Z</time>
      </trkpt>
      <trkpt lat="43.88972" lon="7.56705">
        <ele>816.55943967574</ele>
        <time>2021-11-02T08:19:53Z</time>
      </trkpt>
      <trkpt lat="43.88971" lon="7.56705">
        <ele>816.55946524324</ele>
        <time>2021-11-02T08:19:55Z</time>
      </trkpt>
      <trkpt lat="43.88971" lon="7.56706">
        <ele>819.55950961328</ele>
        <time>2021-11-02T08:20:01Z</time>
      </trkpt>
      <trkpt lat="43.8897" lon="7.56707">
        <ele>818.55954984456</ele>
        <time>2021-11-02T08:20:03Z</time>
      </trkpt>
      <trkpt lat="43.8897" lon="7.56707">
        <ele>818.55954984456</ele>
        <time>2021-11-02T08:20:05Z</time>
      </trkpt>
      <trkpt lat="43.88968" lon="7.56707">
        <ele>820.55967172574</ele>
        <time>2021-11-02T08:20:06Z</time>
      </trkpt>
      <trkpt lat="43.88967" lon="7.56708">
        <ele>821.5597111758</ele>
        <time>2021-11-02T08:20:08Z</time>
      </trkpt>
      <trkpt lat="43.88966" lon="7.56708">
        <ele>822.55977434867</ele>
        <time>2021-11-02T08:20:09Z</time>
      </trkpt>
      <trkpt lat="43.88965" lon="7.56707">
        <ele>822.55980334588</ele>
        <time>2021-11-02T08:20:10Z</time>
      </trkpt>
      <trkpt lat="43.88965" lon="7.56708">
        <ele>822.55982346279</ele>
        <time>2021-11-02T08:20:13Z</time>
      </trkpt>
      <trkpt lat="43.88964" lon="7.56705">
        <ele>822.55986750403</ele>
        <time>2021-11-02T08:20:15Z</time>
      </trkpt>
      <trkpt lat="43.88963" lon="7.56706">
        <ele>823.55987688</ele>
        <time>2021-11-02T08:20:19Z</time>
      </trkpt>
      <trkpt lat="43.88963" lon="7.56707">
        <ele>824.55991552301</ele>
        <time>2021-11-02T08:20:20Z</time>
      </trkpt>
      <trkpt lat="43.88963" lon="7.56707">
        <ele>824.55991455674</ele>
        <time>2021-11-02T08:20:29Z</time>
      </trkpt>
      <trkpt lat="43.88962" lon="7.56711">
        <ele>824.56001478536</ele>
        <time>2021-11-02T08:20:30Z</time>
      </trkpt>
      <trkpt lat="43.88962" lon="7.56712">
        <ele>824.56007258984</ele>
        <time>2021-11-02T08:20:31Z</time>
      </trkpt>
      <trkpt lat="43.88961" lon="7.56712">
        <ele>824.56010830572</ele>
        <time>2021-11-02T08:20:36Z</time>
      </trkpt>
      <trkpt lat="43.88961" lon="7.56713">
        <ele>825.56014271438</ele>
        <time>2021-11-02T08:20:37Z</time>
      </trkpt>
      <trkpt lat="43.8896" lon="7.56714">
        <ele>825.56017951459</ele>
        <time>2021-11-02T08:20:41Z</time>
      </trkpt>
      <trkpt lat="43.8896" lon="7.56716">
        <ele>825.56023090919</ele>
        <time>2021-11-02T08:20:42Z</time>
      </trkpt>
      <trkpt lat="43.8896" lon="7.56718">
        <ele>825.56026917887</ele>
        <time>2021-11-02T08:20:44Z</time>
      </trkpt>
      <trkpt lat="43.8896" lon="7.56719">
        <ele>826.56029000959</ele>
        <time>2021-11-02T08:20:45Z</time>
      </trkpt>
      <trkpt lat="43.88961" lon="7.5672">
        <ele>825.56026907223</ele>
        <time>2021-11-02T08:20:50Z</time>
      </trkpt>
      <trkpt lat="43.8896" lon="7.56721">
        <ele>825.56029688133</ele>
        <time>2021-11-02T08:21:34Z</time>
      </trkpt>
      <trkpt lat="43.8896" lon="7.56721">
        <ele>825.56031045643</ele>
        <time>2021-11-02T08:22:03Z</time>
      </trkpt>
      <trkpt lat="43.8896" lon="7.56721">
        <ele>825.5603472173</ele>
        <time>2021-11-02T08:22:04Z</time>
      </trkpt>
      <trkpt lat="43.8896" lon="7.56719">
        <ele>825.5603126267</ele>
        <time>2021-11-02T08:22:05Z</time>
      </trkpt>
      <trkpt lat="43.8896" lon="7.56718">
        <ele>826.56028966046</ele>
        <time>2021-11-02T08:22:08Z</time>
      </trkpt>
      <trkpt lat="43.8896" lon="7.56718">
        <ele>825.56024507513</ele>
        <time>2021-11-02T08:22:12Z</time>
      </trkpt>
      <trkpt lat="43.88961" lon="7.56719">
        <ele>826.5602588108</ele>
        <time>2021-11-02T08:22:28Z</time>
      </trkpt>
      <trkpt lat="43.88961" lon="7.5672">
        <ele>826.5602726107</ele>
        <time>2021-11-02T08:22:32Z</time>
      </trkpt>
      <trkpt lat="43.8896" lon="7.56723">
        <ele>826.56032591382</ele>
        <time>2021-11-02T08:22:33Z</time>
      </trkpt>
      <trkpt lat="43.88961" lon="7.56723">
        <ele>826.56032162374</ele>
        <time>2021-11-02T08:22:49Z</time>
      </trkpt>
      <trkpt lat="43.88961" lon="7.56724">
        <ele>827.56031139211</ele>
        <time>2021-11-02T08:22:50Z</time>
      </trkpt>
      <trkpt lat="43.88962" lon="7.56724">
        <ele>827.56029079658</ele>
        <time>2021-11-02T08:22:57Z</time>
      </trkpt>
      <trkpt lat="43.88961" lon="7.56725">
        <ele>828.56032240725</ele>
        <time>2021-11-02T08:23:12Z</time>
      </trkpt>
      <trkpt lat="43.88962" lon="7.56725">
        <ele>828.56028443023</ele>
        <time>2021-11-02T08:23:13Z</time>
      </trkpt>
      <trkpt lat="43.88963" lon="7.56724">
        <ele>826.56023400696</ele>
        <time>2021-11-02T08:23:15Z</time>
      </trkpt>
      <trkpt lat="43.88962" lon="7.56724">
        <ele>827.56025400292</ele>
        <time>2021-11-02T08:23:19Z</time>
      </trkpt>
      <trkpt lat="43.88962" lon="7.56724">
        <ele>827.5602859686</ele>
        <time>2021-11-02T08:23:20Z</time>
      </trkpt>
      <trkpt lat="43.88961" lon="7.56724">
        <ele>828.56032674707</ele>
        <time>2021-11-02T08:23:28Z</time>
      </trkpt>
      <trkpt lat="43.88961" lon="7.56724">
        <ele>827.56035633929</ele>
        <time>2021-11-02T08:24:23Z</time>
      </trkpt>
      <trkpt lat="43.8896" lon="7.56723">
        <ele>828.56037580599</ele>
        <time>2021-11-02T08:24:24Z</time>
      </trkpt>
      <trkpt lat="43.88959" lon="7.56724">
        <ele>830.56040664359</ele>
        <time>2021-11-02T08:24:54Z</time>
      </trkpt>
      <trkpt lat="43.8896" lon="7.56727">
        <ele>831.56044617872</ele>
        <time>2021-11-02T08:24:55Z</time>
      </trkpt>
      <trkpt lat="43.8896" lon="7.56728">
        <ele>831.56044819427</ele>
        <time>2021-11-02T08:24:57Z</time>
      </trkpt>
      <trkpt lat="43.88961" lon="7.56728">
        <ele>831.56041810537</ele>
        <time>2021-11-02T08:25:00Z</time>
      </trkpt>
      <trkpt lat="43.88961" lon="7.56729">
        <ele>831.56040579611</ele>
        <time>2021-11-02T08:25:01Z</time>
      </trkpt>
      <trkpt lat="43.88961" lon="7.5673">
        <ele>831.56043311899</ele>
        <time>2021-11-02T08:25:02Z</time>
      </trkpt>
      <trkpt lat="43.88961" lon="7.56731">
        <ele>832.5604544734</ele>
        <time>2021-11-02T08:25:03Z</time>
      </trkpt>
      <trkpt lat="43.88961" lon="7.56732">
        <ele>831.5604727012</ele>
        <time>2021-11-02T08:25:04Z</time>
      </trkpt>
      <trkpt lat="43.88961" lon="7.56733">
        <ele>832.5604892556</ele>
        <time>2021-11-02T08:25:08Z</time>
      </trkpt>
      <trkpt lat="43.88961" lon="7.56735">
        <ele>832.56051884759</ele>
        <time>2021-11-02T08:25:09Z</time>
      </trkpt>
      <trkpt lat="43.88962" lon="7.56736">
        <ele>833.56049924213</ele>
        <time>2021-11-02T08:25:10Z</time>
      </trkpt>
      <trkpt lat="43.88962" lon="7.56735">
        <ele>833.56045897621</ele>
        <time>2021-11-02T08:25:14Z</time>
      </trkpt>
      <trkpt lat="43.88963" lon="7.56737">
        <ele>833.56043965491</ele>
        <time>2021-11-02T08:25:15Z</time>
      </trkpt>
      <trkpt lat="43.88964" lon="7.56738">
        <ele>833.56043593923</ele>
        <time>2021-11-02T08:25:16Z</time>
      </trkpt>
      <trkpt lat="43.88963" lon="7.56739">
        <ele>834.56045854118</ele>
        <time>2021-11-02T08:25:17Z</time>
      </trkpt>
      <trkpt lat="43.88964" lon="7.5674">
        <ele>834.56046702991</ele>
        <time>2021-11-02T08:25:19Z</time>
      </trkpt>
      <trkpt lat="43.88964" lon="7.56741">
        <ele>834.56048662455</ele>
        <time>2021-11-02T08:25:22Z</time>
      </trkpt>
      <trkpt lat="43.88964" lon="7.56742">
        <ele>834.56049616397</ele>
        <time>2021-11-02T08:25:23Z</time>
      </trkpt>
      <trkpt lat="43.88964" lon="7.56743">
        <ele>834.56050255186</ele>
        <time>2021-11-02T08:25:24Z</time>
      </trkpt>
      <trkpt lat="43.88964" lon="7.56744">
        <ele>834.56052690926</ele>
        <time>2021-11-02T08:25:25Z</time>
      </trkpt>
      <trkpt lat="43.88964" lon="7.56745">
        <ele>834.56056524316</ele>
        <time>2021-11-02T08:25:26Z</time>
      </trkpt>
      <trkpt lat="43.88963" lon="7.56746">
        <ele>834.56059411544</ele>
        <time>2021-11-02T08:25:27Z</time>
      </trkpt>
      <trkpt lat="43.88963" lon="7.56747">
        <ele>834.56064041971</ele>
        <time>2021-11-02T08:25:28Z</time>
      </trkpt>
      <trkpt lat="43.88962" lon="7.56748">
        <ele>833.56069876747</ele>
        <time>2021-11-02T08:25:29Z</time>
      </trkpt>
      <trkpt lat="43.88962" lon="7.5675">
        <ele>833.56073601296</ele>
        <time>2021-11-02T08:25:30Z</time>
      </trkpt>
      <trkpt lat="43.88962" lon="7.56751">
        <ele>833.56077148315</ele>
        <time>2021-11-02T08:25:31Z</time>
      </trkpt>
      <trkpt lat="43.88962" lon="7.56752">
        <ele>833.56079843602</ele>
        <time>2021-11-02T08:25:32Z</time>
      </trkpt>
      <trkpt lat="43.88961" lon="7.56754">
        <ele>833.56083643284</ele>
        <time>2021-11-02T08:25:33Z</time>
      </trkpt>
      <trkpt lat="43.88961" lon="7.56755">
        <ele>833.56086742409</ele>
        <time>2021-11-02T08:25:34Z</time>
      </trkpt>
      <trkpt lat="43.88961" lon="7.56756">
        <ele>833.56087916196</ele>
        <time>2021-11-02T08:25:35Z</time>
      </trkpt>
      <trkpt lat="43.88962" lon="7.56757">
        <ele>832.56088771316</ele>
        <time>2021-11-02T08:25:36Z</time>
      </trkpt>
      <trkpt lat="43.88961" lon="7.56758">
        <ele>833.56092402773</ele>
        <time>2021-11-02T08:25:37Z</time>
      </trkpt>
      <trkpt lat="43.8896" lon="7.56759">
        <ele>832.56098123753</ele>
        <time>2021-11-02T08:25:38Z</time>
      </trkpt>
      <trkpt lat="43.88959" lon="7.56761">
        <ele>832.56106027634</ele>
        <time>2021-11-02T08:25:39Z</time>
      </trkpt>
      <trkpt lat="43.88958" lon="7.56762">
        <ele>832.5611289995</ele>
        <time>2021-11-02T08:25:40Z</time>
      </trkpt>
      <trkpt lat="43.88958" lon="7.56763">
        <ele>832.56119294741</ele>
        <time>2021-11-02T08:25:41Z</time>
      </trkpt>
      <trkpt lat="43.88957" lon="7.56764">
        <ele>832.5612404463</ele>
        <time>2021-11-02T08:25:42Z</time>
      </trkpt>
      <trkpt lat="43.88957" lon="7.56765">
        <ele>832.5612808331</ele>
        <time>2021-11-02T08:25:43Z</time>
      </trkpt>
      <trkpt lat="43.88956" lon="7.56766">
        <ele>832.56130279103</ele>
        <time>2021-11-02T08:25:44Z</time>
      </trkpt>
      <trkpt lat="43.88957" lon="7.56767">
        <ele>832.56131226618</ele>
        <time>2021-11-02T08:25:45Z</time>
      </trkpt>
      <trkpt lat="43.88956" lon="7.56769">
        <ele>831.56134477191</ele>
        <time>2021-11-02T08:25:46Z</time>
      </trkpt>
      <trkpt lat="43.88957" lon="7.5677">
        <ele>831.56136023957</ele>
        <time>2021-11-02T08:25:47Z</time>
      </trkpt>
      <trkpt lat="43.88957" lon="7.56772">
        <ele>830.56137058946</ele>
        <time>2021-11-02T08:25:48Z</time>
      </trkpt>
      <trkpt lat="43.88957" lon="7.56773">
        <ele>830.56139168983</ele>
        <time>2021-11-02T08:25:49Z</time>
      </trkpt>
      <trkpt lat="43.88957" lon="7.56774">
        <ele>830.56142231805</ele>
        <time>2021-11-02T08:25:50Z</time>
      </trkpt>
      <trkpt lat="43.88957" lon="7.56776">
        <ele>830.56143773795</ele>
        <time>2021-11-02T08:25:51Z</time>
      </trkpt>
      <trkpt lat="43.88957" lon="7.56777">
        <ele>829.56144823009</ele>
        <time>2021-11-02T08:25:52Z</time>
      </trkpt>
      <trkpt lat="43.88958" lon="7.56778">
        <ele>829.56144570028</ele>
        <time>2021-11-02T08:25:53Z</time>
      </trkpt>
      <trkpt lat="43.88958" lon="7.56779">
        <ele>829.56143088166</ele>
        <time>2021-11-02T08:25:54Z</time>
      </trkpt>
      <trkpt lat="43.88959" lon="7.5678">
        <ele>829.56140789192</ele>
        <time>2021-11-02T08:25:55Z</time>
      </trkpt>
      <trkpt lat="43.8896" lon="7.5678">
        <ele>829.56138432794</ele>
        <time>2021-11-02T08:25:56Z</time>
      </trkpt>
      <trkpt lat="43.88961" lon="7.5678">
        <ele>829.56133242814</ele>
        <time>2021-11-02T08:25:57Z</time>
      </trkpt>
      <trkpt lat="43.88961" lon="7.5678">
        <ele>830.56129508828</ele>
        <time>2021-11-02T08:25:58Z</time>
      </trkpt>
      <trkpt lat="43.88962" lon="7.56781">
        <ele>830.56127844038</ele>
        <time>2021-11-02T08:25:59Z</time>
      </trkpt>
      <trkpt lat="43.88963" lon="7.56781">
        <ele>829.56125059496</ele>
        <time>2021-11-02T08:26:00Z</time>
      </trkpt>
      <trkpt lat="43.88964" lon="7.56781">
        <ele>829.56120595024</ele>
        <time>2021-11-02T08:26:01Z</time>
      </trkpt>
      <trkpt lat="43.88965" lon="7.56781">
        <ele>829.56115277946</ele>
        <time>2021-11-02T08:26:02Z</time>
      </trkpt>
      <trkpt lat="43.88966" lon="7.56781">
        <ele>828.56109122018</ele>
        <time>2021-11-02T08:26:03Z</time>
      </trkpt>
      <trkpt lat="43.88967" lon="7.56782">
        <ele>828.56106084979</ele>
        <time>2021-11-02T08:26:04Z</time>
      </trkpt>
      <trkpt lat="43.88968" lon="7.56783">
        <ele>828.56103011088</ele>
        <time>2021-11-02T08:26:05Z</time>
      </trkpt>
      <trkpt lat="43.88968" lon="7.56784">
        <ele>827.56101814804</ele>
        <time>2021-11-02T08:26:06Z</time>
      </trkpt>
      <trkpt lat="43.88969" lon="7.56783">
        <ele>827.56098530411</ele>
        <time>2021-11-02T08:26:07Z</time>
      </trkpt>
      <trkpt lat="43.88969" lon="7.56784">
        <ele>826.56095035426</ele>
        <time>2021-11-02T08:26:08Z</time>
      </trkpt>
      <trkpt lat="43.8897" lon="7.56785">
        <ele>826.56092048192</ele>
        <time>2021-11-02T08:26:09Z</time>
      </trkpt>
      <trkpt lat="43.88971" lon="7.56786">
        <ele>826.56089600004</ele>
        <time>2021-11-02T08:26:10Z</time>
      </trkpt>
      <trkpt lat="43.88972" lon="7.56787">
        <ele>826.56087224167</ele>
        <time>2021-11-02T08:26:11Z</time>
      </trkpt>
      <trkpt lat="43.88973" lon="7.56788">
        <ele>826.56085185986</ele>
        <time>2021-11-02T08:26:12Z</time>
      </trkpt>
      <trkpt lat="43.88974" lon="7.56789">
        <ele>825.56081416793</ele>
        <time>2021-11-02T08:26:13Z</time>
      </trkpt>
      <trkpt lat="43.88974" lon="7.5679">
        <ele>825.56080967547</ele>
        <time>2021-11-02T08:26:14Z</time>
      </trkpt>
      <trkpt lat="43.88975" lon="7.56791">
        <ele>825.56078119377</ele>
        <time>2021-11-02T08:26:15Z</time>
      </trkpt>
      <trkpt lat="43.88976" lon="7.56791">
        <ele>825.56074003029</ele>
        <time>2021-11-02T08:26:16Z</time>
      </trkpt>
      <trkpt lat="43.88977" lon="7.56792">
        <ele>825.56070509157</ele>
        <time>2021-11-02T08:26:17Z</time>
      </trkpt>
      <trkpt lat="43.88978" lon="7.56793">
        <ele>826.56068364723</ele>
        <time>2021-11-02T08:26:18Z</time>
      </trkpt>
      <trkpt lat="43.88979" lon="7.56794">
        <ele>826.56064392759</ele>
        <time>2021-11-02T08:26:19Z</time>
      </trkpt>
      <trkpt lat="43.8898" lon="7.56795">
        <ele>826.5606039782</ele>
        <time>2021-11-02T08:26:20Z</time>
      </trkpt>
      <trkpt lat="43.88981" lon="7.56795">
        <ele>826.56056281262</ele>
        <time>2021-11-02T08:26:21Z</time>
      </trkpt>
      <trkpt lat="43.88982" lon="7.56797">
        <ele>826.56053457822</ele>
        <time>2021-11-02T08:26:22Z</time>
      </trkpt>
      <trkpt lat="43.88983" lon="7.56797">
        <ele>826.56049114389</ele>
        <time>2021-11-02T08:26:23Z</time>
      </trkpt>
      <trkpt lat="43.88984" lon="7.56797">
        <ele>826.56044274333</ele>
        <time>2021-11-02T08:26:24Z</time>
      </trkpt>
      <trkpt lat="43.88985" lon="7.56798">
        <ele>826.56039279029</ele>
        <time>2021-11-02T08:26:25Z</time>
      </trkpt>
      <trkpt lat="43.88987" lon="7.56798">
        <ele>826.56032683826</ele>
        <time>2021-11-02T08:26:26Z</time>
      </trkpt>
      <trkpt lat="43.88988" lon="7.56798">
        <ele>826.56027735918</ele>
        <time>2021-11-02T08:26:27Z</time>
      </trkpt>
      <trkpt lat="43.88989" lon="7.56799">
        <ele>826.5602266326</ele>
        <time>2021-11-02T08:26:28Z</time>
      </trkpt>
      <trkpt lat="43.8899" lon="7.568">
        <ele>826.56018121808</ele>
        <time>2021-11-02T08:26:29Z</time>
      </trkpt>
      <trkpt lat="43.88991" lon="7.568">
        <ele>827.5601189213</ele>
        <time>2021-11-02T08:26:30Z</time>
      </trkpt>
      <trkpt lat="43.88992" lon="7.568">
        <ele>827.56006434958</ele>
        <time>2021-11-02T08:26:31Z</time>
      </trkpt>
      <trkpt lat="43.88994" lon="7.56799">
        <ele>827.55999726357</ele>
        <time>2021-11-02T08:26:32Z</time>
      </trkpt>
      <trkpt lat="43.88995" lon="7.56799">
        <ele>827.55993883922</ele>
        <time>2021-11-02T08:26:33Z</time>
      </trkpt>
      <trkpt lat="43.88996" lon="7.56799">
        <ele>826.55988482807</ele>
        <time>2021-11-02T08:26:34Z</time>
      </trkpt>
      <trkpt lat="43.88997" lon="7.568">
        <ele>826.55983610924</ele>
        <time>2021-11-02T08:26:35Z</time>
      </trkpt>
      <trkpt lat="43.88998" lon="7.568">
        <ele>826.55979727839</ele>
        <time>2021-11-02T08:26:36Z</time>
      </trkpt>
      <trkpt lat="43.88999" lon="7.56801">
        <ele>826.55974423851</ele>
        <time>2021-11-02T08:26:37Z</time>
      </trkpt>
      <trkpt lat="43.89" lon="7.56802">
        <ele>826.55970987604</ele>
        <time>2021-11-02T08:26:38Z</time>
      </trkpt>
      <trkpt lat="43.89001" lon="7.56803">
        <ele>826.55966833369</ele>
        <time>2021-11-02T08:26:39Z</time>
      </trkpt>
      <trkpt lat="43.89002" lon="7.56803">
        <ele>826.55964370276</ele>
        <time>2021-11-02T08:26:40Z</time>
      </trkpt>
      <trkpt lat="43.89003" lon="7.56803">
        <ele>826.55957941486</ele>
        <time>2021-11-02T08:26:41Z</time>
      </trkpt>
      <trkpt lat="43.89004" lon="7.56803">
        <ele>826.55952962406</ele>
        <time>2021-11-02T08:26:42Z</time>
      </trkpt>
      <trkpt lat="43.89005" lon="7.56803">
        <ele>825.55948549318</ele>
        <time>2021-11-02T08:26:43Z</time>
      </trkpt>
      <trkpt lat="43.89006" lon="7.56804">
        <ele>825.5594507295</ele>
        <time>2021-11-02T08:26:44Z</time>
      </trkpt>
      <trkpt lat="43.89007" lon="7.56804">
        <ele>825.55941974884</ele>
        <time>2021-11-02T08:26:45Z</time>
      </trkpt>
      <trkpt lat="43.89007" lon="7.56805">
        <ele>825.55941481882</ele>
        <time>2021-11-02T08:26:46Z</time>
      </trkpt>
      <trkpt lat="43.89008" lon="7.56805">
        <ele>825.55938993919</ele>
        <time>2021-11-02T08:26:47Z</time>
      </trkpt>
      <trkpt lat="43.89009" lon="7.56806">
        <ele>824.5593518767</ele>
        <time>2021-11-02T08:26:48Z</time>
      </trkpt>
      <trkpt lat="43.89009" lon="7.56807">
        <ele>824.55931989346</ele>
        <time>2021-11-02T08:26:49Z</time>
      </trkpt>
      <trkpt lat="43.8901" lon="7.56807">
        <ele>825.55928851654</ele>
        <time>2021-11-02T08:26:50Z</time>
      </trkpt>
      <trkpt lat="43.89011" lon="7.56808">
        <ele>825.55925783456</ele>
        <time>2021-11-02T08:26:51Z</time>
      </trkpt>
      <trkpt lat="43.89011" lon="7.56808">
        <ele>825.5592340553</ele>
        <time>2021-11-02T08:26:52Z</time>
      </trkpt>
      <trkpt lat="43.89012" lon="7.56808">
        <ele>824.55920328342</ele>
        <time>2021-11-02T08:26:53Z</time>
      </trkpt>
      <trkpt lat="43.89013" lon="7.56809">
        <ele>823.55916703403</ele>
        <time>2021-11-02T08:26:54Z</time>
      </trkpt>
      <trkpt lat="43.89014" lon="7.5681">
        <ele>822.55912689292</ele>
        <time>2021-11-02T08:26:55Z</time>
      </trkpt>
      <trkpt lat="43.89015" lon="7.5681">
        <ele>822.55909044808</ele>
        <time>2021-11-02T08:26:56Z</time>
      </trkpt>
      <trkpt lat="43.89016" lon="7.56811">
        <ele>822.55906446799</ele>
        <time>2021-11-02T08:26:57Z</time>
      </trkpt>
      <trkpt lat="43.89017" lon="7.56812">
        <ele>822.55902970387</ele>
        <time>2021-11-02T08:26:58Z</time>
      </trkpt>
      <trkpt lat="43.89018" lon="7.56812">
        <ele>822.55896216971</ele>
        <time>2021-11-02T08:26:59Z</time>
      </trkpt>
      <trkpt lat="43.89019" lon="7.56811">
        <ele>823.55888976235</ele>
        <time>2021-11-02T08:27:00Z</time>
      </trkpt>
      <trkpt lat="43.8902" lon="7.56811">
        <ele>823.55883081932</ele>
        <time>2021-11-02T08:27:01Z</time>
      </trkpt>
      <trkpt lat="43.89022" lon="7.56811">
        <ele>823.55876499823</ele>
        <time>2021-11-02T08:27:02Z</time>
      </trkpt>
      <trkpt lat="43.89023" lon="7.56811">
        <ele>824.55871522279</ele>
        <time>2021-11-02T08:27:03Z</time>
      </trkpt>
      <trkpt lat="43.89024" lon="7.56812">
        <ele>824.55867738501</ele>
        <time>2021-11-02T08:27:04Z</time>
      </trkpt>
      <trkpt lat="43.89025" lon="7.56812">
        <ele>824.55865268378</ele>
        <time>2021-11-02T08:27:05Z</time>
      </trkpt>
      <trkpt lat="43.89025" lon="7.56813">
        <ele>824.55861094318</ele>
        <time>2021-11-02T08:27:06Z</time>
      </trkpt>
      <trkpt lat="43.89027" lon="7.56814">
        <ele>824.55856703944</ele>
        <time>2021-11-02T08:27:07Z</time>
      </trkpt>
      <trkpt lat="43.89028" lon="7.56815">
        <ele>824.55853573549</ele>
        <time>2021-11-02T08:27:08Z</time>
      </trkpt>
      <trkpt lat="43.89028" lon="7.56815">
        <ele>824.55850365599</ele>
        <time>2021-11-02T08:27:09Z</time>
      </trkpt>
      <trkpt lat="43.89029" lon="7.56816">
        <ele>824.55848991452</ele>
        <time>2021-11-02T08:27:10Z</time>
      </trkpt>
      <trkpt lat="43.8903" lon="7.56816">
        <ele>825.55844581848</ele>
        <time>2021-11-02T08:27:11Z</time>
      </trkpt>
      <trkpt lat="43.89031" lon="7.56817">
        <ele>825.55840442123</ele>
        <time>2021-11-02T08:27:12Z</time>
      </trkpt>
      <trkpt lat="43.89032" lon="7.56817">
        <ele>825.55837260789</ele>
        <time>2021-11-02T08:27:13Z</time>
      </trkpt>
      <trkpt lat="43.89032" lon="7.56818">
        <ele>825.55834241907</ele>
        <time>2021-11-02T08:27:14Z</time>
      </trkpt>
      <trkpt lat="43.89033" lon="7.56818">
        <ele>826.55829724405</ele>
        <time>2021-11-02T08:27:15Z</time>
      </trkpt>
      <trkpt lat="43.89035" lon="7.56818">
        <ele>826.55824433515</ele>
        <time>2021-11-02T08:27:16Z</time>
      </trkpt>
      <trkpt lat="43.89036" lon="7.56819">
        <ele>826.55818924231</ele>
        <time>2021-11-02T08:27:17Z</time>
      </trkpt>
      <trkpt lat="43.89037" lon="7.56819">
        <ele>826.55815123975</ele>
        <time>2021-11-02T08:27:18Z</time>
      </trkpt>
      <trkpt lat="43.89038" lon="7.56821">
        <ele>825.5580988033</ele>
        <time>2021-11-02T08:27:20Z</time>
      </trkpt>
      <trkpt lat="43.89039" lon="7.56821">
        <ele>825.55805538412</ele>
        <time>2021-11-02T08:27:21Z</time>
      </trkpt>
      <trkpt lat="43.8904" lon="7.56821">
        <ele>824.55801469528</ele>
        <time>2021-11-02T08:27:22Z</time>
      </trkpt>
      <trkpt lat="43.89041" lon="7.56822">
        <ele>824.5579844739</ele>
        <time>2021-11-02T08:27:23Z</time>
      </trkpt>
      <trkpt lat="43.89042" lon="7.56823">
        <ele>824.55797295232</ele>
        <time>2021-11-02T08:27:24Z</time>
      </trkpt>
      <trkpt lat="43.89043" lon="7.56824">
        <ele>824.55794074382</ele>
        <time>2021-11-02T08:27:25Z</time>
      </trkpt>
      <trkpt lat="43.89043" lon="7.56824">
        <ele>824.55789861384</ele>
        <time>2021-11-02T08:27:26Z</time>
      </trkpt>
      <trkpt lat="43.89044" lon="7.56825">
        <ele>824.55785407668</ele>
        <time>2021-11-02T08:27:27Z</time>
      </trkpt>
      <trkpt lat="43.89046" lon="7.56825">
        <ele>823.55777597674</ele>
        <time>2021-11-02T08:27:29Z</time>
      </trkpt>
      <trkpt lat="43.89048" lon="7.56825">
        <ele>823.55767846188</ele>
        <time>2021-11-02T08:27:31Z</time>
      </trkpt>
      <trkpt lat="43.89049" lon="7.56825">
        <ele>823.55764738764</ele>
        <time>2021-11-02T08:27:32Z</time>
      </trkpt>
      <trkpt lat="43.89049" lon="7.56826">
        <ele>822.55762241238</ele>
        <time>2021-11-02T08:27:33Z</time>
      </trkpt>
      <trkpt lat="43.89051" lon="7.56828">
        <ele>822.55756095345</ele>
        <time>2021-11-02T08:27:35Z</time>
      </trkpt>
      <trkpt lat="43.89052" lon="7.56829">
        <ele>822.55751868175</ele>
        <time>2021-11-02T08:27:36Z</time>
      </trkpt>
      <trkpt lat="43.89053" lon="7.5683">
        <ele>823.55749482438</ele>
        <time>2021-11-02T08:27:37Z</time>
      </trkpt>
      <trkpt lat="43.89055" lon="7.5683">
        <ele>823.55743518593</ele>
        <time>2021-11-02T08:27:39Z</time>
      </trkpt>
      <trkpt lat="43.89056" lon="7.56831">
        <ele>823.55737812108</ele>
        <time>2021-11-02T08:27:40Z</time>
      </trkpt>
      <trkpt lat="43.89057" lon="7.56831">
        <ele>823.55732598787</ele>
        <time>2021-11-02T08:27:42Z</time>
      </trkpt>
      <trkpt lat="43.89059" lon="7.56833">
        <ele>824.55723385696</ele>
        <time>2021-11-02T08:27:43Z</time>
      </trkpt>
      <trkpt lat="43.89062" lon="7.56834">
        <ele>825.55714651839</ele>
        <time>2021-11-02T08:27:45Z</time>
      </trkpt>
      <trkpt lat="43.89062" lon="7.56835">
        <ele>826.55712488627</ele>
        <time>2021-11-02T08:27:46Z</time>
      </trkpt>
      <trkpt lat="43.89063" lon="7.56836">
        <ele>826.55709122861</ele>
        <time>2021-11-02T08:27:47Z</time>
      </trkpt>
      <trkpt lat="43.89065" lon="7.56837">
        <ele>825.55703370063</ele>
        <time>2021-11-02T08:27:49Z</time>
      </trkpt>
      <trkpt lat="43.89068" lon="7.56838">
        <ele>826.55689869242</ele>
        <time>2021-11-02T08:27:51Z</time>
      </trkpt>
      <trkpt lat="43.89069" lon="7.56837">
        <ele>825.55683198434</ele>
        <time>2021-11-02T08:27:52Z</time>
      </trkpt>
      <trkpt lat="43.8907" lon="7.56838">
        <ele>826.55679028177</ele>
        <time>2021-11-02T08:27:53Z</time>
      </trkpt>
      <trkpt lat="43.89072" lon="7.56839">
        <ele>826.55672490826</ele>
        <time>2021-11-02T08:27:55Z</time>
      </trkpt>
      <trkpt lat="43.89073" lon="7.56839">
        <ele>826.55666847822</ele>
        <time>2021-11-02T08:27:56Z</time>
      </trkpt>
      <trkpt lat="43.89074" lon="7.56839">
        <ele>826.55662140503</ele>
        <time>2021-11-02T08:27:57Z</time>
      </trkpt>
      <trkpt lat="43.89075" lon="7.5684">
        <ele>826.55656807211</ele>
        <time>2021-11-02T08:27:58Z</time>
      </trkpt>
      <trkpt lat="43.89076" lon="7.5684">
        <ele>825.55652907117</ele>
        <time>2021-11-02T08:27:59Z</time>
      </trkpt>
      <trkpt lat="43.89077" lon="7.56841">
        <ele>825.55649789307</ele>
        <time>2021-11-02T08:28:00Z</time>
      </trkpt>
      <trkpt lat="43.89077" lon="7.56841">
        <ele>825.55647195194</ele>
        <time>2021-11-02T08:28:01Z</time>
      </trkpt>
      <trkpt lat="43.89078" lon="7.56842">
        <ele>824.55645014863</ele>
        <time>2021-11-02T08:28:02Z</time>
      </trkpt>
      <trkpt lat="43.89079" lon="7.56843">
        <ele>825.55640874552</ele>
        <time>2021-11-02T08:28:04Z</time>
      </trkpt>
      <trkpt lat="43.8908" lon="7.56843">
        <ele>825.55638456243</ele>
        <time>2021-11-02T08:28:05Z</time>
      </trkpt>
      <trkpt lat="43.89081" lon="7.56844">
        <ele>825.55633866758</ele>
        <time>2021-11-02T08:28:06Z</time>
      </trkpt>
      <trkpt lat="43.89082" lon="7.56844">
        <ele>824.55629533406</ele>
        <time>2021-11-02T08:28:07Z</time>
      </trkpt>
      <trkpt lat="43.89083" lon="7.56844">
        <ele>824.55625702042</ele>
        <time>2021-11-02T08:28:08Z</time>
      </trkpt>
      <trkpt lat="43.89083" lon="7.56844">
        <ele>824.55621173924</ele>
        <time>2021-11-02T08:28:09Z</time>
      </trkpt>
      <trkpt lat="43.89084" lon="7.56845">
        <ele>824.55619153195</ele>
        <time>2021-11-02T08:28:10Z</time>
      </trkpt>
      <trkpt lat="43.89084" lon="7.56845">
        <ele>824.5561723247</ele>
        <time>2021-11-02T08:28:11Z</time>
      </trkpt>
      <trkpt lat="43.89085" lon="7.56846">
        <ele>824.55615504246</ele>
        <time>2021-11-02T08:28:13Z</time>
      </trkpt>
      <trkpt lat="43.89086" lon="7.56847">
        <ele>823.556108613</ele>
        <time>2021-11-02T08:28:15Z</time>
      </trkpt>
      <trkpt lat="43.89087" lon="7.56848">
        <ele>822.55609672483</ele>
        <time>2021-11-02T08:28:16Z</time>
      </trkpt>
      <trkpt lat="43.89088" lon="7.56849">
        <ele>822.55604631811</ele>
        <time>2021-11-02T08:28:18Z</time>
      </trkpt>
      <trkpt lat="43.8909" lon="7.5685">
        <ele>822.55598219653</ele>
        <time>2021-11-02T08:28:19Z</time>
      </trkpt>
      <trkpt lat="43.89091" lon="7.56851">
        <ele>822.55594669817</ele>
        <time>2021-11-02T08:28:21Z</time>
      </trkpt>
      <trkpt lat="43.89092" lon="7.56852">
        <ele>822.55591752864</ele>
        <time>2021-11-02T08:28:22Z</time>
      </trkpt>
      <trkpt lat="43.89093" lon="7.56853">
        <ele>821.55589369604</ele>
        <time>2021-11-02T08:28:23Z</time>
      </trkpt>
      <trkpt lat="43.89095" lon="7.56854">
        <ele>820.55577210979</ele>
        <time>2021-11-02T08:28:25Z</time>
      </trkpt>
      <trkpt lat="43.89096" lon="7.56854">
        <ele>820.55572771817</ele>
        <time>2021-11-02T08:28:26Z</time>
      </trkpt>
      <trkpt lat="43.89097" lon="7.56854">
        <ele>820.5556787857</ele>
        <time>2021-11-02T08:28:27Z</time>
      </trkpt>
      <trkpt lat="43.89099" lon="7.56856">
        <ele>821.55562474204</ele>
        <time>2021-11-02T08:28:29Z</time>
      </trkpt>
      <trkpt lat="43.89102" lon="7.56856">
        <ele>821.55549808361</ele>
        <time>2021-11-02T08:28:31Z</time>
      </trkpt>
      <trkpt lat="43.89103" lon="7.56857">
        <ele>821.55543582046</ele>
        <time>2021-11-02T08:28:32Z</time>
      </trkpt>
      <trkpt lat="43.89104" lon="7.56857">
        <ele>821.55538002049</ele>
        <time>2021-11-02T08:28:34Z</time>
      </trkpt>
      <trkpt lat="43.89106" lon="7.56858">
        <ele>821.55529308096</ele>
        <time>2021-11-02T08:28:35Z</time>
      </trkpt>
      <trkpt lat="43.89107" lon="7.56859">
        <ele>822.55526931725</ele>
        <time>2021-11-02T08:28:36Z</time>
      </trkpt>
      <trkpt lat="43.89108" lon="7.5686">
        <ele>822.55525310424</ele>
        <time>2021-11-02T08:28:38Z</time>
      </trkpt>
      <trkpt lat="43.89109" lon="7.56861">
        <ele>823.55519665187</ele>
        <time>2021-11-02T08:28:39Z</time>
      </trkpt>
      <trkpt lat="43.89111" lon="7.56862">
        <ele>823.5551336506</ele>
        <time>2021-11-02T08:28:41Z</time>
      </trkpt>
      <trkpt lat="43.89112" lon="7.56864">
        <ele>824.55509636077</ele>
        <time>2021-11-02T08:28:42Z</time>
      </trkpt>
      <trkpt lat="43.89113" lon="7.56864">
        <ele>824.55506368876</ele>
        <time>2021-11-02T08:28:44Z</time>
      </trkpt>
      <trkpt lat="43.89115" lon="7.56865">
        <ele>824.55494816896</ele>
        <time>2021-11-02T08:28:45Z</time>
      </trkpt>
      <trkpt lat="43.89116" lon="7.56865">
        <ele>824.55489628975</ele>
        <time>2021-11-02T08:28:46Z</time>
      </trkpt>
      <trkpt lat="43.89117" lon="7.56865">
        <ele>825.55486905446</ele>
        <time>2021-11-02T08:28:48Z</time>
      </trkpt>
      <trkpt lat="43.89119" lon="7.56864">
        <ele>824.5547268604</ele>
        <time>2021-11-02T08:28:50Z</time>
      </trkpt>
      <trkpt lat="43.89122" lon="7.56864">
        <ele>826.55460627424</ele>
        <time>2021-11-02T08:28:51Z</time>
      </trkpt>
      <trkpt lat="43.89123" lon="7.56865">
        <ele>826.55455655583</ele>
        <time>2021-11-02T08:28:52Z</time>
      </trkpt>
      <trkpt lat="43.89124" lon="7.56864">
        <ele>827.55450551806</ele>
        <time>2021-11-02T08:28:53Z</time>
      </trkpt>
      <trkpt lat="43.89126" lon="7.56864">
        <ele>827.55438695381</ele>
        <time>2021-11-02T08:28:55Z</time>
      </trkpt>
      <trkpt lat="43.89127" lon="7.56864">
        <ele>827.55431653013</ele>
        <time>2021-11-02T08:28:56Z</time>
      </trkpt>
      <trkpt lat="43.89128" lon="7.56865">
        <ele>827.55428147826</ele>
        <time>2021-11-02T08:28:58Z</time>
      </trkpt>
      <trkpt lat="43.8913" lon="7.56868">
        <ele>828.55426303774</ele>
        <time>2021-11-02T08:29:00Z</time>
      </trkpt>
      <trkpt lat="43.89132" lon="7.5687">
        <ele>829.55419840266</ele>
        <time>2021-11-02T08:29:01Z</time>
      </trkpt>
      <trkpt lat="43.89133" lon="7.56871">
        <ele>829.55417516428</ele>
        <time>2021-11-02T08:29:02Z</time>
      </trkpt>
      <trkpt lat="43.89134" lon="7.56872">
        <ele>829.55412988787</ele>
        <time>2021-11-02T08:29:03Z</time>
      </trkpt>
      <trkpt lat="43.89135" lon="7.56873">
        <ele>829.55407409787</ele>
        <time>2021-11-02T08:29:05Z</time>
      </trkpt>
      <trkpt lat="43.89136" lon="7.56873">
        <ele>830.5540078525</ele>
        <time>2021-11-02T08:29:06Z</time>
      </trkpt>
      <trkpt lat="43.89138" lon="7.56873">
        <ele>829.55394171482</ele>
        <time>2021-11-02T08:29:07Z</time>
      </trkpt>
      <trkpt lat="43.89139" lon="7.56874">
        <ele>828.55389200967</ele>
        <time>2021-11-02T08:29:08Z</time>
      </trkpt>
      <trkpt lat="43.8914" lon="7.56874">
        <ele>828.553846993</ele>
        <time>2021-11-02T08:29:10Z</time>
      </trkpt>
      <trkpt lat="43.89142" lon="7.56875">
        <ele>827.55373493283</ele>
        <time>2021-11-02T08:29:11Z</time>
      </trkpt>
      <trkpt lat="43.89143" lon="7.56875">
        <ele>827.55368894221</ele>
        <time>2021-11-02T08:29:12Z</time>
      </trkpt>
      <trkpt lat="43.89144" lon="7.56875">
        <ele>827.55366074169</ele>
        <time>2021-11-02T08:29:14Z</time>
      </trkpt>
      <trkpt lat="43.89147" lon="7.56876">
        <ele>828.55355474673</ele>
        <time>2021-11-02T08:29:15Z</time>
      </trkpt>
      <trkpt lat="43.89148" lon="7.56878">
        <ele>827.55352958603</ele>
        <time>2021-11-02T08:29:16Z</time>
      </trkpt>
      <trkpt lat="43.89148" lon="7.56879">
        <ele>827.55350807782</ele>
        <time>2021-11-02T08:29:17Z</time>
      </trkpt>
      <trkpt lat="43.89149" lon="7.56879">
        <ele>828.55346505586</ele>
        <time>2021-11-02T08:29:18Z</time>
      </trkpt>
      <trkpt lat="43.8915" lon="7.56879">
        <ele>828.55340774305</ele>
        <time>2021-11-02T08:29:19Z</time>
      </trkpt>
      <trkpt lat="43.89152" lon="7.56879">
        <ele>827.55334026009</ele>
        <time>2021-11-02T08:29:20Z</time>
      </trkpt>
      <trkpt lat="43.89153" lon="7.56879">
        <ele>827.55327791546</ele>
        <time>2021-11-02T08:29:21Z</time>
      </trkpt>
      <trkpt lat="43.89154" lon="7.56879">
        <ele>827.55322013634</ele>
        <time>2021-11-02T08:29:22Z</time>
      </trkpt>
      <trkpt lat="43.89156" lon="7.5688">
        <ele>827.55314674349</ele>
        <time>2021-11-02T08:29:24Z</time>
      </trkpt>
      <trkpt lat="43.89159" lon="7.5688">
        <ele>827.55299987628</ele>
        <time>2021-11-02T08:29:26Z</time>
      </trkpt>
      <trkpt lat="43.8916" lon="7.5688">
        <ele>828.55295555016</ele>
        <time>2021-11-02T08:29:27Z</time>
      </trkpt>
      <trkpt lat="43.8916" lon="7.56881">
        <ele>827.55292401445</ele>
        <time>2021-11-02T08:29:29Z</time>
      </trkpt>
      <trkpt lat="43.89163" lon="7.56882">
        <ele>827.552834745</ele>
        <time>2021-11-02T08:29:30Z</time>
      </trkpt>
      <trkpt lat="43.89164" lon="7.56883">
        <ele>827.5528031168</ele>
        <time>2021-11-02T08:29:31Z</time>
      </trkpt>
      <trkpt lat="43.89164" lon="7.56884">
        <ele>827.55277310283</ele>
        <time>2021-11-02T08:29:32Z</time>
      </trkpt>
      <trkpt lat="43.89166" lon="7.56886">
        <ele>827.55271550498</ele>
        <time>2021-11-02T08:29:34Z</time>
      </trkpt>
      <trkpt lat="43.89166" lon="7.56888">
        <ele>826.55273020782</ele>
        <time>2021-11-02T08:29:36Z</time>
      </trkpt>
      <trkpt lat="43.89167" lon="7.56888">
        <ele>826.55270517027</ele>
        <time>2021-11-02T08:29:37Z</time>
      </trkpt>
      <trkpt lat="43.89168" lon="7.56889">
        <ele>826.5526793765</ele>
        <time>2021-11-02T08:29:38Z</time>
      </trkpt>
      <trkpt lat="43.89169" lon="7.5689">
        <ele>826.55266080666</ele>
        <time>2021-11-02T08:29:39Z</time>
      </trkpt>
      <trkpt lat="43.8917" lon="7.56891">
        <ele>827.5526340076</ele>
        <time>2021-11-02T08:29:40Z</time>
      </trkpt>
      <trkpt lat="43.8917" lon="7.56892">
        <ele>826.55262846581</ele>
        <time>2021-11-02T08:29:41Z</time>
      </trkpt>
      <trkpt lat="43.89171" lon="7.56893">
        <ele>826.55261585352</ele>
        <time>2021-11-02T08:29:42Z</time>
      </trkpt>
      <trkpt lat="43.89172" lon="7.56895">
        <ele>827.55256464515</ele>
        <time>2021-11-02T08:29:44Z</time>
      </trkpt>
      <trkpt lat="43.89173" lon="7.56897">
        <ele>827.5525395966</ele>
        <time>2021-11-02T08:29:46Z</time>
      </trkpt>
      <trkpt lat="43.89174" lon="7.56898">
        <ele>828.55252910073</ele>
        <time>2021-11-02T08:29:47Z</time>
      </trkpt>
      <trkpt lat="43.89174" lon="7.56899">
        <ele>827.5525495117</ele>
        <time>2021-11-02T08:29:48Z</time>
      </trkpt>
      <trkpt lat="43.89174" lon="7.569">
        <ele>827.552561434</ele>
        <time>2021-11-02T08:29:49Z</time>
      </trkpt>
      <trkpt lat="43.89175" lon="7.56901">
        <ele>827.55253142932</ele>
        <time>2021-11-02T08:29:51Z</time>
      </trkpt>
      <trkpt lat="43.89176" lon="7.56901">
        <ele>828.55247251987</ele>
        <time>2021-11-02T08:29:52Z</time>
      </trkpt>
      <trkpt lat="43.89177" lon="7.56902">
        <ele>828.5524406231</ele>
        <time>2021-11-02T08:29:54Z</time>
      </trkpt>
      <trkpt lat="43.89178" lon="7.56902">
        <ele>828.55240385052</ele>
        <time>2021-11-02T08:29:55Z</time>
      </trkpt>
      <trkpt lat="43.89179" lon="7.56902">
        <ele>829.55235812683</ele>
        <time>2021-11-02T08:29:57Z</time>
      </trkpt>
      <trkpt lat="43.89181" lon="7.56903">
        <ele>830.55226279021</ele>
        <time>2021-11-02T08:30:00Z</time>
      </trkpt>
      <trkpt lat="43.89183" lon="7.56904">
        <ele>830.55218982717</ele>
        <time>2021-11-02T08:30:01Z</time>
      </trkpt>
      <trkpt lat="43.89184" lon="7.56905">
        <ele>830.55214824281</ele>
        <time>2021-11-02T08:30:02Z</time>
      </trkpt>
      <trkpt lat="43.89184" lon="7.56906">
        <ele>829.55213425764</ele>
        <time>2021-11-02T08:30:03Z</time>
      </trkpt>
      <trkpt lat="43.89184" lon="7.56907">
        <ele>829.55216317704</ele>
        <time>2021-11-02T08:30:05Z</time>
      </trkpt>
      <trkpt lat="43.89185" lon="7.56908">
        <ele>829.55212842082</ele>
        <time>2021-11-02T08:30:06Z</time>
      </trkpt>
      <trkpt lat="43.89186" lon="7.56908">
        <ele>828.55208977296</ele>
        <time>2021-11-02T08:30:07Z</time>
      </trkpt>
      <trkpt lat="43.89187" lon="7.56908">
        <ele>828.55202445788</ele>
        <time>2021-11-02T08:30:08Z</time>
      </trkpt>
      <trkpt lat="43.89189" lon="7.56909">
        <ele>829.55193793081</ele>
        <time>2021-11-02T08:30:10Z</time>
      </trkpt>
      <trkpt lat="43.8919" lon="7.56909">
        <ele>830.55187226512</ele>
        <time>2021-11-02T08:30:11Z</time>
      </trkpt>
      <trkpt lat="43.89191" lon="7.56909">
        <ele>830.55183878438</ele>
        <time>2021-11-02T08:30:12Z</time>
      </trkpt>
      <trkpt lat="43.89192" lon="7.5691">
        <ele>830.5518195896</ele>
        <time>2021-11-02T08:30:13Z</time>
      </trkpt>
      <trkpt lat="43.89193" lon="7.56911">
        <ele>830.55179330462</ele>
        <time>2021-11-02T08:30:14Z</time>
      </trkpt>
      <trkpt lat="43.89193" lon="7.56911">
        <ele>830.55179330462</ele>
        <time>2021-11-02T08:30:15Z</time>
      </trkpt>
      <trkpt lat="43.89194" lon="7.56912">
        <ele>831.5517338067</ele>
        <time>2021-11-02T08:30:16Z</time>
      </trkpt>
      <trkpt lat="43.89195" lon="7.56913">
        <ele>830.55169796332</ele>
        <time>2021-11-02T08:30:17Z</time>
      </trkpt>
      <trkpt lat="43.89196" lon="7.56913">
        <ele>831.55164267582</ele>
        <time>2021-11-02T08:30:18Z</time>
      </trkpt>
      <trkpt lat="43.89198" lon="7.56913">
        <ele>831.55157069218</ele>
        <time>2021-11-02T08:30:19Z</time>
      </trkpt>
      <trkpt lat="43.89199" lon="7.56913">
        <ele>831.55152177372</ele>
        <time>2021-11-02T08:30:20Z</time>
      </trkpt>
      <trkpt lat="43.892" lon="7.56913">
        <ele>830.55146713887</ele>
        <time>2021-11-02T08:30:21Z</time>
      </trkpt>
      <trkpt lat="43.89201" lon="7.56913">
        <ele>830.55141698172</ele>
        <time>2021-11-02T08:30:22Z</time>
      </trkpt>
      <trkpt lat="43.89202" lon="7.56914">
        <ele>830.55135574848</ele>
        <time>2021-11-02T08:30:23Z</time>
      </trkpt>
      <trkpt lat="43.89203" lon="7.56914">
        <ele>830.55131744552</ele>
        <time>2021-11-02T08:30:24Z</time>
      </trkpt>
      <trkpt lat="43.89204" lon="7.56915">
        <ele>830.55125926968</ele>
        <time>2021-11-02T08:30:25Z</time>
      </trkpt>
      <trkpt lat="43.89205" lon="7.56914">
        <ele>831.55120745574</ele>
        <time>2021-11-02T08:30:26Z</time>
      </trkpt>
      <trkpt lat="43.89206" lon="7.56914">
        <ele>831.55116223857</ele>
        <time>2021-11-02T08:30:27Z</time>
      </trkpt>
      <trkpt lat="43.89208" lon="7.56913">
        <ele>831.55107170046</ele>
        <time>2021-11-02T08:30:29Z</time>
      </trkpt>
      <trkpt lat="43.89209" lon="7.56913">
        <ele>831.5510129349</ele>
        <time>2021-11-02T08:30:30Z</time>
      </trkpt>
      <trkpt lat="43.89209" lon="7.56913">
        <ele>832.55097687015</ele>
        <time>2021-11-02T08:30:31Z</time>
      </trkpt>
      <trkpt lat="43.8921" lon="7.56913">
        <ele>833.55093926234</ele>
        <time>2021-11-02T08:30:32Z</time>
      </trkpt>
      <trkpt lat="43.89211" lon="7.56914">
        <ele>833.55089920389</ele>
        <time>2021-11-02T08:30:33Z</time>
      </trkpt>
      <trkpt lat="43.89213" lon="7.56914">
        <ele>834.55081072006</ele>
        <time>2021-11-02T08:30:35Z</time>
      </trkpt>
      <trkpt lat="43.89214" lon="7.56914">
        <ele>835.55078381954</ele>
        <time>2021-11-02T08:30:36Z</time>
      </trkpt>
      <trkpt lat="43.89214" lon="7.56914">
        <ele>835.55075371288</ele>
        <time>2021-11-02T08:30:37Z</time>
      </trkpt>
      <trkpt lat="43.89215" lon="7.56913">
        <ele>834.55070681795</ele>
        <time>2021-11-02T08:30:38Z</time>
      </trkpt>
      <trkpt lat="43.89216" lon="7.56914">
        <ele>835.55064597009</ele>
        <time>2021-11-02T08:30:40Z</time>
      </trkpt>
      <trkpt lat="43.89217" lon="7.56915">
        <ele>835.55064796877</ele>
        <time>2021-11-02T08:30:41Z</time>
      </trkpt>
      <trkpt lat="43.89217" lon="7.56916">
        <ele>835.55061869052</ele>
        <time>2021-11-02T08:30:42Z</time>
      </trkpt>
      <trkpt lat="43.89218" lon="7.56917">
        <ele>835.55059044492</ele>
        <time>2021-11-02T08:30:44Z</time>
      </trkpt>
      <trkpt lat="43.89219" lon="7.56918">
        <ele>835.55056841687</ele>
        <time>2021-11-02T08:30:45Z</time>
      </trkpt>
      <trkpt lat="43.89219" lon="7.56918">
        <ele>835.55056446431</ele>
        <time>2021-11-02T08:30:49Z</time>
      </trkpt>
      <trkpt lat="43.89222" lon="7.56919">
        <ele>836.55044764215</ele>
        <time>2021-11-02T08:30:50Z</time>
      </trkpt>
      <trkpt lat="43.89223" lon="7.5692">
        <ele>837.55041099156</ele>
        <time>2021-11-02T08:30:51Z</time>
      </trkpt>
      <trkpt lat="43.89223" lon="7.5692">
        <ele>837.55039416161</ele>
        <time>2021-11-02T08:30:52Z</time>
      </trkpt>
      <trkpt lat="43.89224" lon="7.56921">
        <ele>838.55036197217</ele>
        <time>2021-11-02T08:30:53Z</time>
      </trkpt>
      <trkpt lat="43.89226" lon="7.56921">
        <ele>838.55029825092</ele>
        <time>2021-11-02T08:30:55Z</time>
      </trkpt>
      <trkpt lat="43.89226" lon="7.56921">
        <ele>838.55029414084</ele>
        <time>2021-11-02T08:30:58Z</time>
      </trkpt>
      <trkpt lat="43.89227" lon="7.56922">
        <ele>838.55024797057</ele>
        <time>2021-11-02T08:31:00Z</time>
      </trkpt>
      <trkpt lat="43.89227" lon="7.56923">
        <ele>838.55023249865</ele>
        <time>2021-11-02T08:31:01Z</time>
      </trkpt>
      <trkpt lat="43.89228" lon="7.56923">
        <ele>837.55020159822</ele>
        <time>2021-11-02T08:31:02Z</time>
      </trkpt>
      <trkpt lat="43.89229" lon="7.56923">
        <ele>837.55016605356</ele>
        <time>2021-11-02T08:31:04Z</time>
      </trkpt>
      <trkpt lat="43.8923" lon="7.56924">
        <ele>837.55013048525</ele>
        <time>2021-11-02T08:31:06Z</time>
      </trkpt>
      <trkpt lat="43.8923" lon="7.56925">
        <ele>837.55012088838</ele>
        <time>2021-11-02T08:31:07Z</time>
      </trkpt>
      <trkpt lat="43.89231" lon="7.56926">
        <ele>836.5500820629</ele>
        <time>2021-11-02T08:31:09Z</time>
      </trkpt>
      <trkpt lat="43.89232" lon="7.56926">
        <ele>836.55004420308</ele>
        <time>2021-11-02T08:31:11Z</time>
      </trkpt>
      <trkpt lat="43.89232" lon="7.56927">
        <ele>836.55004385281</ele>
        <time>2021-11-02T08:31:12Z</time>
      </trkpt>
      <trkpt lat="43.89233" lon="7.56928">
        <ele>836.55003069521</ele>
        <time>2021-11-02T08:31:13Z</time>
      </trkpt>
      <trkpt lat="43.89235" lon="7.5693">
        <ele>836.54995369757</ele>
        <time>2021-11-02T08:31:15Z</time>
      </trkpt>
      <trkpt lat="43.89235" lon="7.5693">
        <ele>836.54994518581</ele>
        <time>2021-11-02T08:31:16Z</time>
      </trkpt>
      <trkpt lat="43.89236" lon="7.5693">
        <ele>836.54992372466</ele>
        <time>2021-11-02T08:31:17Z</time>
      </trkpt>
      <trkpt lat="43.89236" lon="7.5693">
        <ele>837.5498984743</ele>
        <time>2021-11-02T08:31:20Z</time>
      </trkpt>
      <trkpt lat="43.89238" lon="7.5693">
        <ele>837.54979371917</ele>
        <time>2021-11-02T08:31:21Z</time>
      </trkpt>
      <trkpt lat="43.8924" lon="7.56931">
        <ele>837.54974222138</ele>
        <time>2021-11-02T08:31:22Z</time>
      </trkpt>
      <trkpt lat="43.89241" lon="7.5693">
        <ele>837.54968608223</ele>
        <time>2021-11-02T08:31:23Z</time>
      </trkpt>
      <trkpt lat="43.89241" lon="7.56931">
        <ele>838.54966358664</ele>
        <time>2021-11-02T08:31:24Z</time>
      </trkpt>
      <trkpt lat="43.89242" lon="7.56931">
        <ele>838.54963642214</ele>
        <time>2021-11-02T08:31:27Z</time>
      </trkpt>
      <trkpt lat="43.89243" lon="7.56932">
        <ele>838.54956597126</ele>
        <time>2021-11-02T08:31:28Z</time>
      </trkpt>
      <trkpt lat="43.89244" lon="7.56932">
        <ele>839.54954705245</ele>
        <time>2021-11-02T08:31:30Z</time>
      </trkpt>
      <trkpt lat="43.89244" lon="7.56932">
        <ele>839.54952113489</ele>
        <time>2021-11-02T08:31:33Z</time>
      </trkpt>
      <trkpt lat="43.89245" lon="7.56932">
        <ele>840.54948633002</ele>
        <time>2021-11-02T08:31:34Z</time>
      </trkpt>
      <trkpt lat="43.89246" lon="7.56933">
        <ele>840.54943630086</ele>
        <time>2021-11-02T08:31:36Z</time>
      </trkpt>
      <trkpt lat="43.89247" lon="7.56933">
        <ele>840.54939148785</ele>
        <time>2021-11-02T08:31:37Z</time>
      </trkpt>
      <trkpt lat="43.89248" lon="7.56933">
        <ele>841.54935379717</ele>
        <time>2021-11-02T08:31:39Z</time>
      </trkpt>
      <trkpt lat="43.89249" lon="7.56933">
        <ele>840.54932524307</ele>
        <time>2021-11-02T08:31:42Z</time>
      </trkpt>
      <trkpt lat="43.89251" lon="7.56932">
        <ele>840.54916781327</ele>
        <time>2021-11-02T08:31:44Z</time>
      </trkpt>
      <trkpt lat="43.89253" lon="7.56931">
        <ele>840.54906886723</ele>
        <time>2021-11-02T08:31:46Z</time>
      </trkpt>
      <trkpt lat="43.89254" lon="7.56931">
        <ele>839.54901681662</ele>
        <time>2021-11-02T08:31:47Z</time>
      </trkpt>
      <trkpt lat="43.89255" lon="7.56932">
        <ele>839.54898063894</ele>
        <time>2021-11-02T08:31:48Z</time>
      </trkpt>
      <trkpt lat="43.89255" lon="7.56932">
        <ele>841.54895971629</ele>
        <time>2021-11-02T08:31:53Z</time>
      </trkpt>
      <trkpt lat="43.89256" lon="7.56931">
        <ele>843.5488933289</ele>
        <time>2021-11-02T08:31:55Z</time>
      </trkpt>
      <trkpt lat="43.89257" lon="7.56931">
        <ele>843.54885217064</ele>
        <time>2021-11-02T08:31:57Z</time>
      </trkpt>
      <trkpt lat="43.89258" lon="7.56931">
        <ele>843.54881599181</ele>
        <time>2021-11-02T08:31:59Z</time>
      </trkpt>
      <trkpt lat="43.89258" lon="7.56931">
        <ele>843.54878476595</ele>
        <time>2021-11-02T08:32:04Z</time>
      </trkpt>
      <trkpt lat="43.89259" lon="7.5693">
        <ele>844.54873971702</ele>
        <time>2021-11-02T08:32:06Z</time>
      </trkpt>
      <trkpt lat="43.8926" lon="7.56931">
        <ele>845.54870978839</ele>
        <time>2021-11-02T08:32:07Z</time>
      </trkpt>
      <trkpt lat="43.8926" lon="7.56931">
        <ele>844.5486948548</ele>
        <time>2021-11-02T08:32:11Z</time>
      </trkpt>
      <trkpt lat="43.89262" lon="7.56931">
        <ele>843.54859778339</ele>
        <time>2021-11-02T08:32:12Z</time>
      </trkpt>
      <trkpt lat="43.89263" lon="7.5693">
        <ele>843.54851224616</ele>
        <time>2021-11-02T08:32:14Z</time>
      </trkpt>
      <trkpt lat="43.89265" lon="7.56929">
        <ele>843.5484250525</ele>
        <time>2021-11-02T08:32:16Z</time>
      </trkpt>
      <trkpt lat="43.89266" lon="7.56928">
        <ele>844.54836014439</ele>
        <time>2021-11-02T08:32:17Z</time>
      </trkpt>
      <trkpt lat="43.89267" lon="7.56927">
        <ele>844.54829783703</ele>
        <time>2021-11-02T08:32:19Z</time>
      </trkpt>
      <trkpt lat="43.89268" lon="7.56927">
        <ele>844.54821783091</ele>
        <time>2021-11-02T08:32:20Z</time>
      </trkpt>
      <trkpt lat="43.89268" lon="7.56927">
        <ele>844.54821783091</ele>
        <time>2021-11-02T08:32:22Z</time>
      </trkpt>
      <trkpt lat="43.89271" lon="7.56928">
        <ele>843.54810218378</ele>
        <time>2021-11-02T08:32:24Z</time>
      </trkpt>
      <trkpt lat="43.89273" lon="7.56928">
        <ele>843.54800658227</ele>
        <time>2021-11-02T08:32:26Z</time>
      </trkpt>
      <trkpt lat="43.89274" lon="7.56929">
        <ele>843.54796340925</ele>
        <time>2021-11-02T08:32:27Z</time>
      </trkpt>
      <trkpt lat="43.89274" lon="7.5693">
        <ele>843.54795806651</ele>
        <time>2021-11-02T08:32:28Z</time>
      </trkpt>
      <trkpt lat="43.89275" lon="7.56931">
        <ele>843.54792137295</ele>
        <time>2021-11-02T08:32:30Z</time>
      </trkpt>
      <trkpt lat="43.89276" lon="7.56931">
        <ele>844.54789836956</ele>
        <time>2021-11-02T08:32:32Z</time>
      </trkpt>
      <trkpt lat="43.89276" lon="7.56931">
        <ele>844.54787304654</ele>
        <time>2021-11-02T08:32:33Z</time>
      </trkpt>
      <trkpt lat="43.89277" lon="7.56932">
        <ele>845.54787256425</ele>
        <time>2021-11-02T08:32:36Z</time>
      </trkpt>
      <trkpt lat="43.89278" lon="7.56933">
        <ele>846.54781281248</ele>
        <time>2021-11-02T08:32:37Z</time>
      </trkpt>
      <trkpt lat="43.89279" lon="7.56934">
        <ele>846.54778810901</ele>
        <time>2021-11-02T08:32:38Z</time>
      </trkpt>
      <trkpt lat="43.8928" lon="7.56935">
        <ele>845.54776485096</ele>
        <time>2021-11-02T08:32:40Z</time>
      </trkpt>
      <trkpt lat="43.8928" lon="7.56936">
        <ele>846.54774154454</ele>
        <time>2021-11-02T08:32:41Z</time>
      </trkpt>
      <trkpt lat="43.89281" lon="7.56936">
        <ele>846.54773599274</ele>
        <time>2021-11-02T08:32:42Z</time>
      </trkpt>
      <trkpt lat="43.89281" lon="7.56937">
        <ele>846.5477168659</ele>
        <time>2021-11-02T08:32:43Z</time>
      </trkpt>
      <trkpt lat="43.89282" lon="7.56936">
        <ele>845.5476780079</ele>
        <time>2021-11-02T08:32:44Z</time>
      </trkpt>
      <trkpt lat="43.89283" lon="7.56937">
        <ele>845.5476189917</ele>
        <time>2021-11-02T08:32:46Z</time>
      </trkpt>
      <trkpt lat="43.89284" lon="7.56938">
        <ele>845.54759234667</ele>
        <time>2021-11-02T08:32:47Z</time>
      </trkpt>
      <trkpt lat="43.89284" lon="7.56938">
        <ele>844.54758695579</ele>
        <time>2021-11-02T08:32:51Z</time>
      </trkpt>
      <trkpt lat="43.89286" lon="7.5694">
        <ele>844.54754213496</ele>
        <time>2021-11-02T08:32:52Z</time>
      </trkpt>
      <trkpt lat="43.89287" lon="7.56941">
        <ele>844.54750772983</ele>
        <time>2021-11-02T08:32:54Z</time>
      </trkpt>
      <trkpt lat="43.89289" lon="7.56942">
        <ele>844.54742963077</ele>
        <time>2021-11-02T08:32:56Z</time>
      </trkpt>
      <trkpt lat="43.89289" lon="7.56943">
        <ele>844.5474132657</ele>
        <time>2021-11-02T08:32:57Z</time>
      </trkpt>
      <trkpt lat="43.8929" lon="7.56944">
        <ele>844.54739507362</ele>
        <time>2021-11-02T08:32:58Z</time>
      </trkpt>
      <trkpt lat="43.8929" lon="7.56945">
        <ele>844.54739235107</ele>
        <time>2021-11-02T08:33:01Z</time>
      </trkpt>
      <trkpt lat="43.89291" lon="7.56946">
        <ele>847.54737365694</ele>
        <time>2021-11-02T08:33:02Z</time>
      </trkpt>
      <trkpt lat="43.89292" lon="7.56947">
        <ele>847.54735386995</ele>
        <time>2021-11-02T08:33:03Z</time>
      </trkpt>
      <trkpt lat="43.89293" lon="7.56948">
        <ele>846.54732800741</ele>
        <time>2021-11-02T08:33:05Z</time>
      </trkpt>
      <trkpt lat="43.89294" lon="7.56949">
        <ele>846.54729636082</ele>
        <time>2021-11-02T08:33:06Z</time>
      </trkpt>
      <trkpt lat="43.89294" lon="7.5695">
        <ele>846.54728604544</ele>
        <time>2021-11-02T08:33:07Z</time>
      </trkpt>
      <trkpt lat="43.89294" lon="7.5695">
        <ele>846.54728045858</ele>
        <time>2021-11-02T08:33:09Z</time>
      </trkpt>
      <trkpt lat="43.89296" lon="7.56952">
        <ele>847.54722461208</ele>
        <time>2021-11-02T08:33:11Z</time>
      </trkpt>
      <trkpt lat="43.89297" lon="7.56953">
        <ele>848.54719846827</ele>
        <time>2021-11-02T08:33:12Z</time>
      </trkpt>
      <trkpt lat="43.89297" lon="7.56953">
        <ele>849.54716600084</ele>
        <time>2021-11-02T08:33:13Z</time>
      </trkpt>
      <trkpt lat="43.89298" lon="7.56954">
        <ele>848.54715867517</ele>
        <time>2021-11-02T08:33:15Z</time>
      </trkpt>
      <trkpt lat="43.89298" lon="7.56954">
        <ele>848.5471338159</ele>
        <time>2021-11-02T08:33:19Z</time>
      </trkpt>
      <trkpt lat="43.893" lon="7.56956">
        <ele>849.54710260958</ele>
        <time>2021-11-02T08:33:21Z</time>
      </trkpt>
      <trkpt lat="43.893" lon="7.56957">
        <ele>849.54710208782</ele>
        <time>2021-11-02T08:33:22Z</time>
      </trkpt>
      <trkpt lat="43.89301" lon="7.56956">
        <ele>849.54705485141</ele>
        <time>2021-11-02T08:33:23Z</time>
      </trkpt>
      <trkpt lat="43.89302" lon="7.56957">
        <ele>849.54701789202</ele>
        <time>2021-11-02T08:33:25Z</time>
      </trkpt>
      <trkpt lat="43.89302" lon="7.56958">
        <ele>850.54699537213</ele>
        <time>2021-11-02T08:33:26Z</time>
      </trkpt>
      <trkpt lat="43.89303" lon="7.56958">
        <ele>850.54696267232</ele>
        <time>2021-11-02T08:33:27Z</time>
      </trkpt>
      <trkpt lat="43.89304" lon="7.56958">
        <ele>852.54691249667</ele>
        <time>2021-11-02T08:33:29Z</time>
      </trkpt>
      <trkpt lat="43.89306" lon="7.56958">
        <ele>852.54682247331</ele>
        <time>2021-11-02T08:33:31Z</time>
      </trkpt>
      <trkpt lat="43.89307" lon="7.56958">
        <ele>852.54677530369</ele>
        <time>2021-11-02T08:33:32Z</time>
      </trkpt>
      <trkpt lat="43.89307" lon="7.56958">
        <ele>852.54674537189</ele>
        <time>2021-11-02T08:33:33Z</time>
      </trkpt>
      <trkpt lat="43.89309" lon="7.56958">
        <ele>853.54666876455</ele>
        <time>2021-11-02T08:33:35Z</time>
      </trkpt>
      <trkpt lat="43.89309" lon="7.56959">
        <ele>854.54668194461</ele>
        <time>2021-11-02T08:33:36Z</time>
      </trkpt>
      <trkpt lat="43.8931" lon="7.5696">
        <ele>854.5466524974</ele>
        <time>2021-11-02T08:33:37Z</time>
      </trkpt>
      <trkpt lat="43.8931" lon="7.5696">
        <ele>854.54664794963</ele>
        <time>2021-11-02T08:33:40Z</time>
      </trkpt>
      <trkpt lat="43.89312" lon="7.56961">
        <ele>855.54656346142</ele>
        <time>2021-11-02T08:33:41Z</time>
      </trkpt>
      <trkpt lat="43.89313" lon="7.56961">
        <ele>856.54653218949</ele>
        <time>2021-11-02T08:33:42Z</time>
      </trkpt>
      <trkpt lat="43.89313" lon="7.56961">
        <ele>856.54652749485</ele>
        <time>2021-11-02T08:33:46Z</time>
      </trkpt>
      <trkpt lat="43.89314" lon="7.56962">
        <ele>856.54646558804</ele>
        <time>2021-11-02T08:33:47Z</time>
      </trkpt>
      <trkpt lat="43.89315" lon="7.56962">
        <ele>856.54644694206</ele>
        <time>2021-11-02T08:33:48Z</time>
      </trkpt>
      <trkpt lat="43.89315" lon="7.56962">
        <ele>857.54642724815</ele>
        <time>2021-11-02T08:33:49Z</time>
      </trkpt>
      <trkpt lat="43.89316" lon="7.56963">
        <ele>857.54639803015</ele>
        <time>2021-11-02T08:33:51Z</time>
      </trkpt>
      <trkpt lat="43.89316" lon="7.56963">
        <ele>858.54637283226</ele>
        <time>2021-11-02T08:33:52Z</time>
      </trkpt>
      <trkpt lat="43.89317" lon="7.56963">
        <ele>858.54631817861</ele>
        <time>2021-11-02T08:33:54Z</time>
      </trkpt>
      <trkpt lat="43.89317" lon="7.56963">
        <ele>858.54631817861</ele>
        <time>2021-11-02T08:33:56Z</time>
      </trkpt>
      <trkpt lat="43.89318" lon="7.56962">
        <ele>858.54625178278</ele>
        <time>2021-11-02T08:33:57Z</time>
      </trkpt>
      <trkpt lat="43.89319" lon="7.56962">
        <ele>858.546221632</ele>
        <time>2021-11-02T08:33:58Z</time>
      </trkpt>
      <trkpt lat="43.8932" lon="7.56963">
        <ele>858.54618815052</ele>
        <time>2021-11-02T08:33:59Z</time>
      </trkpt>
      <trkpt lat="43.8932" lon="7.56963">
        <ele>857.5461761717</ele>
        <time>2021-11-02T08:34:00Z</time>
      </trkpt>
      <trkpt lat="43.89321" lon="7.56965">
        <ele>858.54616507593</ele>
        <time>2021-11-02T08:34:01Z</time>
      </trkpt>
      <trkpt lat="43.89322" lon="7.56965">
        <ele>858.5461212953</ele>
        <time>2021-11-02T08:34:02Z</time>
      </trkpt>
      <trkpt lat="43.89323" lon="7.56965">
        <ele>858.54608221286</ele>
        <time>2021-11-02T08:34:04Z</time>
      </trkpt>
      <trkpt lat="43.89324" lon="7.56966">
        <ele>859.5460490027</ele>
        <time>2021-11-02T08:34:06Z</time>
      </trkpt>
      <trkpt lat="43.89324" lon="7.56966">
        <ele>859.54603545544</ele>
        <time>2021-11-02T08:34:07Z</time>
      </trkpt>
      <trkpt lat="43.89324" lon="7.56967">
        <ele>860.546053638</ele>
        <time>2021-11-02T08:34:08Z</time>
      </trkpt>
      <trkpt lat="43.89324" lon="7.56968">
        <ele>860.54606596076</ele>
        <time>2021-11-02T08:34:09Z</time>
      </trkpt>
      <trkpt lat="43.89324" lon="7.56969">
        <ele>860.54605875766</ele>
        <time>2021-11-02T08:34:10Z</time>
      </trkpt>
      <trkpt lat="43.89325" lon="7.5697">
        <ele>860.54604777647</ele>
        <time>2021-11-02T08:34:11Z</time>
      </trkpt>
      <trkpt lat="43.89325" lon="7.56971">
        <ele>861.54604780226</ele>
        <time>2021-11-02T08:34:12Z</time>
      </trkpt>
      <trkpt lat="43.89326" lon="7.56971">
        <ele>861.54603796206</ele>
        <time>2021-11-02T08:34:13Z</time>
      </trkpt>
      <trkpt lat="43.89325" lon="7.56972">
        <ele>860.54606263529</ele>
        <time>2021-11-02T08:34:15Z</time>
      </trkpt>
      <trkpt lat="43.89326" lon="7.56973">
        <ele>860.54605750915</ele>
        <time>2021-11-02T08:34:16Z</time>
      </trkpt>
      <trkpt lat="43.89326" lon="7.56973">
        <ele>861.54607132049</ele>
        <time>2021-11-02T08:34:17Z</time>
      </trkpt>
      <trkpt lat="43.89326" lon="7.56975">
        <ele>861.54608264272</ele>
        <time>2021-11-02T08:34:18Z</time>
      </trkpt>
      <trkpt lat="43.89326" lon="7.56976">
        <ele>862.54608995863</ele>
        <time>2021-11-02T08:34:19Z</time>
      </trkpt>
      <trkpt lat="43.89327" lon="7.56978">
        <ele>862.54606713735</ele>
        <time>2021-11-02T08:34:21Z</time>
      </trkpt>
      <trkpt lat="43.89328" lon="7.56979">
        <ele>863.54604471649</ele>
        <time>2021-11-02T08:34:22Z</time>
      </trkpt>
      <trkpt lat="43.89329" lon="7.5698">
        <ele>864.54603115347</ele>
        <time>2021-11-02T08:34:23Z</time>
      </trkpt>
      <trkpt lat="43.8933" lon="7.56979">
        <ele>863.54593901103</ele>
        <time>2021-11-02T08:34:25Z</time>
      </trkpt>
      <trkpt lat="43.89331" lon="7.56979">
        <ele>863.54588174869</ele>
        <time>2021-11-02T08:34:26Z</time>
      </trkpt>
      <trkpt lat="43.89332" lon="7.5698">
        <ele>863.54587926094</ele>
        <time>2021-11-02T08:34:27Z</time>
      </trkpt>
      <trkpt lat="43.89333" lon="7.5698">
        <ele>864.5458082087</ele>
        <time>2021-11-02T08:34:29Z</time>
      </trkpt>
      <trkpt lat="43.89334" lon="7.5698">
        <ele>864.54575166964</ele>
        <time>2021-11-02T08:34:31Z</time>
      </trkpt>
      <trkpt lat="43.89335" lon="7.56981">
        <ele>864.54572443868</ele>
        <time>2021-11-02T08:34:32Z</time>
      </trkpt>
      <trkpt lat="43.89336" lon="7.56981">
        <ele>865.5456948486</ele>
        <time>2021-11-02T08:34:33Z</time>
      </trkpt>
      <trkpt lat="43.89336" lon="7.56981">
        <ele>865.54566447004</ele>
        <time>2021-11-02T08:34:34Z</time>
      </trkpt>
      <trkpt lat="43.89338" lon="7.56982">
        <ele>866.54559970783</ele>
        <time>2021-11-02T08:34:36Z</time>
      </trkpt>
      <trkpt lat="43.89339" lon="7.56983">
        <ele>866.54555081217</ele>
        <time>2021-11-02T08:34:37Z</time>
      </trkpt>
      <trkpt lat="43.89339" lon="7.56983">
        <ele>866.5455458795</ele>
        <time>2021-11-02T08:34:38Z</time>
      </trkpt>
      <trkpt lat="43.89341" lon="7.56984">
        <ele>866.54548010739</ele>
        <time>2021-11-02T08:34:40Z</time>
      </trkpt>
      <trkpt lat="43.89341" lon="7.56985">
        <ele>867.54545465585</ele>
        <time>2021-11-02T08:34:41Z</time>
      </trkpt>
      <trkpt lat="43.89342" lon="7.56985">
        <ele>867.54544435742</ele>
        <time>2021-11-02T08:34:42Z</time>
      </trkpt>
      <trkpt lat="43.89342" lon="7.56986">
        <ele>867.54543191553</ele>
        <time>2021-11-02T08:34:43Z</time>
      </trkpt>
      <trkpt lat="43.89343" lon="7.56987">
        <ele>867.54542654613</ele>
        <time>2021-11-02T08:34:44Z</time>
      </trkpt>
      <trkpt lat="43.89344" lon="7.56988">
        <ele>868.54540379911</ele>
        <time>2021-11-02T08:34:45Z</time>
      </trkpt>
      <trkpt lat="43.89344" lon="7.56989">
        <ele>867.54538612828</ele>
        <time>2021-11-02T08:34:46Z</time>
      </trkpt>
      <trkpt lat="43.89345" lon="7.5699">
        <ele>868.54536766791</ele>
        <time>2021-11-02T08:34:47Z</time>
      </trkpt>
      <trkpt lat="43.89346" lon="7.56991">
        <ele>868.54534327479</ele>
        <time>2021-11-02T08:34:49Z</time>
      </trkpt>
      <trkpt lat="43.89347" lon="7.56993">
        <ele>869.5453285085</ele>
        <time>2021-11-02T08:34:50Z</time>
      </trkpt>
      <trkpt lat="43.89347" lon="7.56994">
        <ele>869.54532141259</ele>
        <time>2021-11-02T08:34:51Z</time>
      </trkpt>
      <trkpt lat="43.89348" lon="7.56994">
        <ele>869.54530802705</ele>
        <time>2021-11-02T08:34:52Z</time>
      </trkpt>
      <trkpt lat="43.89348" lon="7.56995">
        <ele>869.54530050066</ele>
        <time>2021-11-02T08:34:54Z</time>
      </trkpt>
      <trkpt lat="43.89348" lon="7.56996">
        <ele>869.54530921155</ele>
        <time>2021-11-02T08:34:55Z</time>
      </trkpt>
      <trkpt lat="43.89348" lon="7.56997">
        <ele>870.5453256364</ele>
        <time>2021-11-02T08:34:56Z</time>
      </trkpt>
      <trkpt lat="43.89349" lon="7.56997">
        <ele>870.54531053829</ele>
        <time>2021-11-02T08:34:57Z</time>
      </trkpt>
      <trkpt lat="43.89349" lon="7.56998">
        <ele>869.54530444</ele>
        <time>2021-11-02T08:34:59Z</time>
      </trkpt>
      <trkpt lat="43.8935" lon="7.57">
        <ele>869.54528201582</ele>
        <time>2021-11-02T08:35:00Z</time>
      </trkpt>
      <trkpt lat="43.8935" lon="7.57001">
        <ele>869.54528111668</ele>
        <time>2021-11-02T08:35:01Z</time>
      </trkpt>
      <trkpt lat="43.89351" lon="7.57003">
        <ele>869.54527828665</ele>
        <time>2021-11-02T08:35:02Z</time>
      </trkpt>
      <trkpt lat="43.89352" lon="7.57003">
        <ele>869.5452540963</ele>
        <time>2021-11-02T08:35:03Z</time>
      </trkpt>
      <trkpt lat="43.89352" lon="7.57003">
        <ele>869.54524007258</ele>
        <time>2021-11-02T08:35:06Z</time>
      </trkpt>
      <trkpt lat="43.89353" lon="7.57005">
        <ele>870.5452321506</ele>
        <time>2021-11-02T08:35:07Z</time>
      </trkpt>
      <trkpt lat="43.89354" lon="7.57006">
        <ele>870.54520163414</ele>
        <time>2021-11-02T08:35:09Z</time>
      </trkpt>
      <trkpt lat="43.89354" lon="7.57007">
        <ele>871.54519795117</ele>
        <time>2021-11-02T08:35:13Z</time>
      </trkpt>
      <trkpt lat="43.89355" lon="7.57009">
        <ele>870.54520194569</ele>
        <time>2021-11-02T08:35:15Z</time>
      </trkpt>
      <trkpt lat="43.89354" lon="7.5701">
        <ele>869.54523582385</ele>
        <time>2021-11-02T08:35:16Z</time>
      </trkpt>
      <trkpt lat="43.89355" lon="7.57011">
        <ele>869.54524285783</ele>
        <time>2021-11-02T08:35:17Z</time>
      </trkpt>
      <trkpt lat="43.89354" lon="7.57013">
        <ele>869.54527328669</ele>
        <time>2021-11-02T08:35:18Z</time>
      </trkpt>
      <trkpt lat="43.89354" lon="7.57014">
        <ele>869.54532410481</ele>
        <time>2021-11-02T08:35:19Z</time>
      </trkpt>
      <trkpt lat="43.89352" lon="7.57017">
        <ele>869.54544028908</ele>
        <time>2021-11-02T08:35:21Z</time>
      </trkpt>
      <trkpt lat="43.89352" lon="7.57018">
        <ele>870.54549826495</ele>
        <time>2021-11-02T08:35:23Z</time>
      </trkpt>
      <trkpt lat="43.89351" lon="7.57021">
        <ele>870.54556650738</ele>
        <time>2021-11-02T08:35:24Z</time>
      </trkpt>
      <trkpt lat="43.89351" lon="7.57023">
        <ele>870.54561538945</ele>
        <time>2021-11-02T08:35:26Z</time>
      </trkpt>
      <trkpt lat="43.89351" lon="7.57024">
        <ele>870.54563279934</ele>
        <time>2021-11-02T08:35:27Z</time>
      </trkpt>
      <trkpt lat="43.89351" lon="7.57025">
        <ele>870.54564487901</ele>
        <time>2021-11-02T08:35:28Z</time>
      </trkpt>
      <trkpt lat="43.89351" lon="7.57026">
        <ele>870.54566520609</ele>
        <time>2021-11-02T08:35:30Z</time>
      </trkpt>
      <trkpt lat="43.89351" lon="7.57027">
        <ele>870.54569307928</ele>
        <time>2021-11-02T08:35:31Z</time>
      </trkpt>
      <trkpt lat="43.89351" lon="7.57028">
        <ele>870.54571845977</ele>
        <time>2021-11-02T08:35:32Z</time>
      </trkpt>
      <trkpt lat="43.89351" lon="7.57031">
        <ele>871.54577469668</ele>
        <time>2021-11-02T08:35:34Z</time>
      </trkpt>
      <trkpt lat="43.8935" lon="7.57032">
        <ele>871.54581037123</ele>
        <time>2021-11-02T08:35:35Z</time>
      </trkpt>
      <trkpt lat="43.8935" lon="7.57033">
        <ele>871.54584612553</ele>
        <time>2021-11-02T08:35:36Z</time>
      </trkpt>
      <trkpt lat="43.89349" lon="7.57034">
        <ele>872.54591031657</ele>
        <time>2021-11-02T08:35:37Z</time>
      </trkpt>
      <trkpt lat="43.89349" lon="7.57034">
        <ele>872.5459409305</ele>
        <time>2021-11-02T08:35:38Z</time>
      </trkpt>
      <trkpt lat="43.89349" lon="7.57036">
        <ele>872.54597071706</ele>
        <time>2021-11-02T08:35:39Z</time>
      </trkpt>
      <trkpt lat="43.89349" lon="7.57037">
        <ele>872.54599213322</ele>
        <time>2021-11-02T08:35:40Z</time>
      </trkpt>
      <trkpt lat="43.89349" lon="7.57038">
        <ele>872.54599905066</ele>
        <time>2021-11-02T08:35:41Z</time>
      </trkpt>
      <trkpt lat="43.89348" lon="7.57039">
        <ele>872.5460306595</ele>
        <time>2021-11-02T08:35:43Z</time>
      </trkpt>
      <trkpt lat="43.89347" lon="7.5704">
        <ele>871.54611991854</ele>
        <time>2021-11-02T08:35:44Z</time>
      </trkpt>
      <trkpt lat="43.89346" lon="7.57041">
        <ele>871.54616950435</ele>
        <time>2021-11-02T08:35:45Z</time>
      </trkpt>
      <trkpt lat="43.89346" lon="7.57042">
        <ele>872.54619902543</ele>
        <time>2021-11-02T08:35:46Z</time>
      </trkpt>
      <trkpt lat="43.89346" lon="7.57043">
        <ele>873.54621711768</ele>
        <time>2021-11-02T08:35:50Z</time>
      </trkpt>
      <trkpt lat="43.89347" lon="7.57045">
        <ele>872.54618501048</ele>
        <time>2021-11-02T08:35:51Z</time>
      </trkpt>
      <trkpt lat="43.89348" lon="7.57046">
        <ele>872.54618984666</ele>
        <time>2021-11-02T08:35:52Z</time>
      </trkpt>
      <trkpt lat="43.89348" lon="7.57047">
        <ele>872.54618586722</ele>
        <time>2021-11-02T08:35:53Z</time>
      </trkpt>
      <trkpt lat="43.89348" lon="7.57048">
        <ele>872.54618989644</ele>
        <time>2021-11-02T08:35:54Z</time>
      </trkpt>
      <trkpt lat="43.89348" lon="7.57049">
        <ele>872.54623093542</ele>
        <time>2021-11-02T08:35:55Z</time>
      </trkpt>
      <trkpt lat="43.89348" lon="7.5705">
        <ele>872.54624801494</ele>
        <time>2021-11-02T08:35:56Z</time>
      </trkpt>
      <trkpt lat="43.89347" lon="7.57051">
        <ele>873.54629097425</ele>
        <time>2021-11-02T08:35:57Z</time>
      </trkpt>
      <trkpt lat="43.89347" lon="7.57051">
        <ele>874.54631108107</ele>
        <time>2021-11-02T08:36:00Z</time>
      </trkpt>
      <trkpt lat="43.89347" lon="7.57054">
        <ele>875.54636166952</ele>
        <time>2021-11-02T08:36:01Z</time>
      </trkpt>
      <trkpt lat="43.89346" lon="7.57055">
        <ele>876.54639709938</ele>
        <time>2021-11-02T08:36:02Z</time>
      </trkpt>
      <trkpt lat="43.89346" lon="7.57055">
        <ele>877.54643627007</ele>
        <time>2021-11-02T08:36:03Z</time>
      </trkpt>
      <trkpt lat="43.89345" lon="7.57055">
        <ele>877.54649035347</ele>
        <time>2021-11-02T08:36:04Z</time>
      </trkpt>
      <trkpt lat="43.89345" lon="7.57055">
        <ele>877.54649035347</ele>
        <time>2021-11-02T08:36:06Z</time>
      </trkpt>
      <trkpt lat="43.89344" lon="7.57058">
        <ele>878.54658539658</ele>
        <time>2021-11-02T08:36:07Z</time>
      </trkpt>
      <trkpt lat="43.89343" lon="7.57057">
        <ele>876.54659643642</ele>
        <time>2021-11-02T08:36:18Z</time>
      </trkpt>
      <trkpt lat="43.89343" lon="7.57059">
        <ele>876.54664587908</ele>
        <time>2021-11-02T08:36:19Z</time>
      </trkpt>
      <trkpt lat="43.89344" lon="7.5706">
        <ele>876.5466267032</ele>
        <time>2021-11-02T08:36:21Z</time>
      </trkpt>
      <trkpt lat="43.89344" lon="7.5706">
        <ele>876.54659831617</ele>
        <time>2021-11-02T08:36:23Z</time>
      </trkpt>
      <trkpt lat="43.89345" lon="7.5706">
        <ele>876.54654644047</ele>
        <time>2021-11-02T08:36:25Z</time>
      </trkpt>
      <trkpt lat="43.89345" lon="7.57061">
        <ele>875.5465596586</ele>
        <time>2021-11-02T08:36:35Z</time>
      </trkpt>
      <trkpt lat="43.89343" lon="7.57064">
        <ele>875.54673608036</ele>
        <time>2021-11-02T08:36:36Z</time>
      </trkpt>
      <trkpt lat="43.89342" lon="7.57065">
        <ele>875.54679795245</ele>
        <time>2021-11-02T08:36:37Z</time>
      </trkpt>
      <trkpt lat="43.89342" lon="7.57066">
        <ele>876.54683580393</ele>
        <time>2021-11-02T08:36:39Z</time>
      </trkpt>
      <trkpt lat="43.89342" lon="7.57066">
        <ele>876.54683580393</ele>
        <time>2021-11-02T08:36:42Z</time>
      </trkpt>
      <trkpt lat="43.89344" lon="7.57066">
        <ele>875.54673102456</ele>
        <time>2021-11-02T08:36:43Z</time>
      </trkpt>
      <trkpt lat="43.89345" lon="7.57066">
        <ele>875.54669052873</ele>
        <time>2021-11-02T08:36:45Z</time>
      </trkpt>
      <trkpt lat="43.89345" lon="7.57066">
        <ele>874.54665814372</ele>
        <time>2021-11-02T08:36:47Z</time>
      </trkpt>
      <trkpt lat="43.89347" lon="7.57066">
        <ele>874.54655782226</ele>
        <time>2021-11-02T08:36:49Z</time>
      </trkpt>
      <trkpt lat="43.89348" lon="7.57068">
        <ele>874.54656268268</ele>
        <time>2021-11-02T08:36:51Z</time>
      </trkpt>
      <trkpt lat="43.89348" lon="7.57069">
        <ele>874.5465627699</ele>
        <time>2021-11-02T08:36:54Z</time>
      </trkpt>
      <trkpt lat="43.89348" lon="7.5707">
        <ele>875.54659553267</ele>
        <time>2021-11-02T08:36:56Z</time>
      </trkpt>
      <trkpt lat="43.89348" lon="7.57071">
        <ele>875.54660877984</ele>
        <time>2021-11-02T08:36:58Z</time>
      </trkpt>
      <trkpt lat="43.89347" lon="7.57072">
        <ele>876.54666143122</ele>
        <time>2021-11-02T08:36:59Z</time>
      </trkpt>
      <trkpt lat="43.89347" lon="7.57073">
        <ele>876.54667610637</ele>
        <time>2021-11-02T08:37:02Z</time>
      </trkpt>
      <trkpt lat="43.89346" lon="7.57075">
        <ele>876.54673698773</ele>
        <time>2021-11-02T08:37:03Z</time>
      </trkpt>
      <trkpt lat="43.89346" lon="7.57076">
        <ele>876.54678725128</ele>
        <time>2021-11-02T08:37:04Z</time>
      </trkpt>
      <trkpt lat="43.89345" lon="7.57077">
        <ele>877.54683300608</ele>
        <time>2021-11-02T08:37:05Z</time>
      </trkpt>
      <trkpt lat="43.89345" lon="7.57078">
        <ele>877.54685608076</ele>
        <time>2021-11-02T08:37:06Z</time>
      </trkpt>
      <trkpt lat="43.89345" lon="7.57079">
        <ele>877.54687995904</ele>
        <time>2021-11-02T08:37:07Z</time>
      </trkpt>
      <trkpt lat="43.89345" lon="7.5708">
        <ele>877.54691208736</ele>
        <time>2021-11-02T08:37:08Z</time>
      </trkpt>
      <trkpt lat="43.89345" lon="7.57081">
        <ele>878.54693741884</ele>
        <time>2021-11-02T08:37:09Z</time>
      </trkpt>
      <trkpt lat="43.89345" lon="7.57082">
        <ele>878.54696868675</ele>
        <time>2021-11-02T08:37:10Z</time>
      </trkpt>
      <trkpt lat="43.89345" lon="7.57084">
        <ele>878.54698581141</ele>
        <time>2021-11-02T08:37:11Z</time>
      </trkpt>
      <trkpt lat="43.89345" lon="7.57085">
        <ele>878.5470097512</ele>
        <time>2021-11-02T08:37:12Z</time>
      </trkpt>
      <trkpt lat="43.89344" lon="7.57087">
        <ele>878.54703985835</ele>
        <time>2021-11-02T08:37:13Z</time>
      </trkpt>
      <trkpt lat="43.89344" lon="7.57088">
        <ele>879.54707299456</ele>
        <time>2021-11-02T08:37:14Z</time>
      </trkpt>
      <trkpt lat="43.89344" lon="7.57089">
        <ele>879.54709703361</ele>
        <time>2021-11-02T08:37:15Z</time>
      </trkpt>
      <trkpt lat="43.89344" lon="7.57089">
        <ele>879.5470960404</ele>
        <time>2021-11-02T08:37:16Z</time>
      </trkpt>
      <trkpt lat="43.89345" lon="7.5709">
        <ele>878.54706038837</ele>
        <time>2021-11-02T08:37:17Z</time>
      </trkpt>
      <trkpt lat="43.89345" lon="7.5709">
        <ele>878.54705568638</ele>
        <time>2021-11-02T08:37:18Z</time>
      </trkpt>
      <trkpt lat="43.89346" lon="7.57091">
        <ele>878.54705434081</ele>
        <time>2021-11-02T08:37:19Z</time>
      </trkpt>
      <trkpt lat="43.89346" lon="7.57092">
        <ele>878.54705686794</ele>
        <time>2021-11-02T08:37:20Z</time>
      </trkpt>
      <trkpt lat="43.89346" lon="7.57093">
        <ele>878.54706548885</ele>
        <time>2021-11-02T08:37:21Z</time>
      </trkpt>
      <trkpt lat="43.89346" lon="7.57094">
        <ele>878.54708219899</ele>
        <time>2021-11-02T08:37:22Z</time>
      </trkpt>
      <trkpt lat="43.89346" lon="7.57095">
        <ele>879.54712736994</ele>
        <time>2021-11-02T08:37:24Z</time>
      </trkpt>
      <trkpt lat="43.89346" lon="7.57097">
        <ele>878.54715599286</ele>
        <time>2021-11-02T08:37:25Z</time>
      </trkpt>
      <trkpt lat="43.89346" lon="7.57099">
        <ele>878.54716772185</ele>
        <time>2021-11-02T08:37:26Z</time>
      </trkpt>
      <trkpt lat="43.89346" lon="7.571">
        <ele>879.54717162824</ele>
        <time>2021-11-02T08:37:27Z</time>
      </trkpt>
      <trkpt lat="43.89347" lon="7.57102">
        <ele>879.54719209794</ele>
        <time>2021-11-02T08:37:29Z</time>
      </trkpt>
      <trkpt lat="43.89347" lon="7.57105">
        <ele>879.54719575458</ele>
        <time>2021-11-02T08:37:30Z</time>
      </trkpt>
      <trkpt lat="43.89348" lon="7.57106">
        <ele>880.54719517633</ele>
        <time>2021-11-02T08:37:31Z</time>
      </trkpt>
      <trkpt lat="43.89348" lon="7.57107">
        <ele>880.54720158879</ele>
        <time>2021-11-02T08:37:32Z</time>
      </trkpt>
      <trkpt lat="43.89349" lon="7.57108">
        <ele>880.54719805407</ele>
        <time>2021-11-02T08:37:33Z</time>
      </trkpt>
      <trkpt lat="43.89349" lon="7.5711">
        <ele>881.54721939209</ele>
        <time>2021-11-02T08:37:35Z</time>
      </trkpt>
      <trkpt lat="43.89348" lon="7.57113">
        <ele>880.54730346848</ele>
        <time>2021-11-02T08:37:36Z</time>
      </trkpt>
      <trkpt lat="43.89348" lon="7.57114">
        <ele>881.54733240398</ele>
        <time>2021-11-02T08:37:37Z</time>
      </trkpt>
      <trkpt lat="43.89348" lon="7.57115">
        <ele>881.54736213481</ele>
        <time>2021-11-02T08:37:38Z</time>
      </trkpt>
      <trkpt lat="43.89347" lon="7.57116">
        <ele>881.54740167906</ele>
        <time>2021-11-02T08:37:40Z</time>
      </trkpt>
      <trkpt lat="43.89347" lon="7.57117">
        <ele>881.54743269542</ele>
        <time>2021-11-02T08:37:43Z</time>
      </trkpt>
      <trkpt lat="43.89346" lon="7.5712">
        <ele>882.54753425867</ele>
        <time>2021-11-02T08:37:44Z</time>
      </trkpt>
      <trkpt lat="43.89346" lon="7.57121">
        <ele>882.54756718987</ele>
        <time>2021-11-02T08:37:45Z</time>
      </trkpt>
      <trkpt lat="43.89346" lon="7.57122">
        <ele>882.54758883634</ele>
        <time>2021-11-02T08:37:46Z</time>
      </trkpt>
      <trkpt lat="43.89345" lon="7.57123">
        <ele>882.54761651835</ele>
        <time>2021-11-02T08:37:47Z</time>
      </trkpt>
      <trkpt lat="43.89345" lon="7.57124">
        <ele>883.54765640891</ele>
        <time>2021-11-02T08:37:48Z</time>
      </trkpt>
      <trkpt lat="43.89344" lon="7.57127">
        <ele>883.547745334</ele>
        <time>2021-11-02T08:37:50Z</time>
      </trkpt>
      <trkpt lat="43.89344" lon="7.57128">
        <ele>883.54776087884</ele>
        <time>2021-11-02T08:37:51Z</time>
      </trkpt>
      <trkpt lat="43.89344" lon="7.57129">
        <ele>883.54777670896</ele>
        <time>2021-11-02T08:37:52Z</time>
      </trkpt>
      <trkpt lat="43.89345" lon="7.5713">
        <ele>883.54777247087</ele>
        <time>2021-11-02T08:37:53Z</time>
      </trkpt>
      <trkpt lat="43.89345" lon="7.57131">
        <ele>883.54777187007</ele>
        <time>2021-11-02T08:37:54Z</time>
      </trkpt>
      <trkpt lat="43.89345" lon="7.57132">
        <ele>883.54778072508</ele>
        <time>2021-11-02T08:37:55Z</time>
      </trkpt>
      <trkpt lat="43.89346" lon="7.57133">
        <ele>883.5477723045</ele>
        <time>2021-11-02T08:37:57Z</time>
      </trkpt>
      <trkpt lat="43.89346" lon="7.57133">
        <ele>881.54773221392</ele>
        <time>2021-11-02T08:38:01Z</time>
      </trkpt>
      <trkpt lat="43.89347" lon="7.57134">
        <ele>881.54772383717</ele>
        <time>2021-11-02T08:38:02Z</time>
      </trkpt>
      <trkpt lat="43.89348" lon="7.57137">
        <ele>881.54774353149</ele>
        <time>2021-11-02T08:38:04Z</time>
      </trkpt>
      <trkpt lat="43.89348" lon="7.57139">
        <ele>881.54775878076</ele>
        <time>2021-11-02T08:38:06Z</time>
      </trkpt>
      <trkpt lat="43.89348" lon="7.5714">
        <ele>881.54778386313</ele>
        <time>2021-11-02T08:38:07Z</time>
      </trkpt>
      <trkpt lat="43.89348" lon="7.57141">
        <ele>882.54777530081</ele>
        <time>2021-11-02T08:38:08Z</time>
      </trkpt>
      <trkpt lat="43.89349" lon="7.57142">
        <ele>882.54777334849</ele>
        <time>2021-11-02T08:38:11Z</time>
      </trkpt>
      <trkpt lat="43.8935" lon="7.57143">
        <ele>884.54771920435</ele>
        <time>2021-11-02T08:38:12Z</time>
      </trkpt>
      <trkpt lat="43.8935" lon="7.57142">
        <ele>884.54768545404</ele>
        <time>2021-11-02T08:38:13Z</time>
      </trkpt>
      <trkpt lat="43.89351" lon="7.57143">
        <ele>884.54767541989</ele>
        <time>2021-11-02T08:38:14Z</time>
      </trkpt>
      <trkpt lat="43.89351" lon="7.57144">
        <ele>885.54769225657</ele>
        <time>2021-11-02T08:38:15Z</time>
      </trkpt>
      <trkpt lat="43.89351" lon="7.57145">
        <ele>885.54769674197</ele>
        <time>2021-11-02T08:38:16Z</time>
      </trkpt>
      <trkpt lat="43.89351" lon="7.57146">
        <ele>885.54771272904</ele>
        <time>2021-11-02T08:38:17Z</time>
      </trkpt>
      <trkpt lat="43.89351" lon="7.57147">
        <ele>886.54772568738</ele>
        <time>2021-11-02T08:38:18Z</time>
      </trkpt>
      <trkpt lat="43.89352" lon="7.57149">
        <ele>885.54771858079</ele>
        <time>2021-11-02T08:38:19Z</time>
      </trkpt>
      <trkpt lat="43.89352" lon="7.5715">
        <ele>885.54771368391</ele>
        <time>2021-11-02T08:38:20Z</time>
      </trkpt>
      <trkpt lat="43.89353" lon="7.57151">
        <ele>885.54771230113</ele>
        <time>2021-11-02T08:38:21Z</time>
      </trkpt>
      <trkpt lat="43.89353" lon="7.57152">
        <ele>886.54771569621</ele>
        <time>2021-11-02T08:38:22Z</time>
      </trkpt>
      <trkpt lat="43.89353" lon="7.57154">
        <ele>885.54774831991</ele>
        <time>2021-11-02T08:38:23Z</time>
      </trkpt>
      <trkpt lat="43.89352" lon="7.57155">
        <ele>885.54779897201</ele>
        <time>2021-11-02T08:38:24Z</time>
      </trkpt>
      <trkpt lat="43.89352" lon="7.57156">
        <ele>885.54785182533</ele>
        <time>2021-11-02T08:38:25Z</time>
      </trkpt>
      <trkpt lat="43.89351" lon="7.57157">
        <ele>885.54792902479</ele>
        <time>2021-11-02T08:38:26Z</time>
      </trkpt>
      <trkpt lat="43.8935" lon="7.57158">
        <ele>885.54796644995</ele>
        <time>2021-11-02T08:38:28Z</time>
      </trkpt>
      <trkpt lat="43.8935" lon="7.5716">
        <ele>885.54801906111</ele>
        <time>2021-11-02T08:38:29Z</time>
      </trkpt>
      <trkpt lat="43.8935" lon="7.57161">
        <ele>885.54804807033</ele>
        <time>2021-11-02T08:38:30Z</time>
      </trkpt>
      <trkpt lat="43.89349" lon="7.57163">
        <ele>885.5481042872</ele>
        <time>2021-11-02T08:38:31Z</time>
      </trkpt>
      <trkpt lat="43.89349" lon="7.57165">
        <ele>886.54815328241</ele>
        <time>2021-11-02T08:38:32Z</time>
      </trkpt>
      <trkpt lat="43.89349" lon="7.57167">
        <ele>886.54819793651</ele>
        <time>2021-11-02T08:38:34Z</time>
      </trkpt>
      <trkpt lat="43.89347" lon="7.5717">
        <ele>885.54830816761</ele>
        <time>2021-11-02T08:38:35Z</time>
      </trkpt>
      <trkpt lat="43.89347" lon="7.57171">
        <ele>885.54835260661</ele>
        <time>2021-11-02T08:38:36Z</time>
      </trkpt>
      <trkpt lat="43.89346" lon="7.57173">
        <ele>885.54840533984</ele>
        <time>2021-11-02T08:38:37Z</time>
      </trkpt>
      <trkpt lat="43.89345" lon="7.57175">
        <ele>885.54849876746</ele>
        <time>2021-11-02T08:38:39Z</time>
      </trkpt>
      <trkpt lat="43.89344" lon="7.57176">
        <ele>885.54856747673</ele>
        <time>2021-11-02T08:38:40Z</time>
      </trkpt>
      <trkpt lat="43.89344" lon="7.57177">
        <ele>884.5486205789</ele>
        <time>2021-11-02T08:38:41Z</time>
      </trkpt>
      <trkpt lat="43.89343" lon="7.57178">
        <ele>885.54867867738</ele>
        <time>2021-11-02T08:38:42Z</time>
      </trkpt>
      <trkpt lat="43.89343" lon="7.5718">
        <ele>885.54870706013</ele>
        <time>2021-11-02T08:38:43Z</time>
      </trkpt>
      <trkpt lat="43.89342" lon="7.57182">
        <ele>885.5487809305</ele>
        <time>2021-11-02T08:38:45Z</time>
      </trkpt>
      <trkpt lat="43.89342" lon="7.57183">
        <ele>885.54881848568</ele>
        <time>2021-11-02T08:38:46Z</time>
      </trkpt>
      <trkpt lat="43.89341" lon="7.57184">
        <ele>886.54885368777</ele>
        <time>2021-11-02T08:38:47Z</time>
      </trkpt>
      <trkpt lat="43.89341" lon="7.57185">
        <ele>886.54889276451</ele>
        <time>2021-11-02T08:38:48Z</time>
      </trkpt>
      <trkpt lat="43.89341" lon="7.57186">
        <ele>885.54892910421</ele>
        <time>2021-11-02T08:38:49Z</time>
      </trkpt>
      <trkpt lat="43.8934" lon="7.57186">
        <ele>884.54897606468</ele>
        <time>2021-11-02T08:39:11Z</time>
      </trkpt>
      <trkpt lat="43.89339" lon="7.57188">
        <ele>884.54904885863</ele>
        <time>2021-11-02T08:39:12Z</time>
      </trkpt>
      <trkpt lat="43.89339" lon="7.57189">
        <ele>883.5490614074</ele>
        <time>2021-11-02T08:39:18Z</time>
      </trkpt>
      <trkpt lat="43.89338" lon="7.57191">
        <ele>884.54915556714</ele>
        <time>2021-11-02T08:39:19Z</time>
      </trkpt>
      <trkpt lat="43.89338" lon="7.57192">
        <ele>884.54918522799</ele>
        <time>2021-11-02T08:39:20Z</time>
      </trkpt>
      <trkpt lat="43.89337" lon="7.57192">
        <ele>884.54921732597</ele>
        <time>2021-11-02T08:39:21Z</time>
      </trkpt>
      <trkpt lat="43.89337" lon="7.57193">
        <ele>883.54926822401</ele>
        <time>2021-11-02T08:39:22Z</time>
      </trkpt>
      <trkpt lat="43.89336" lon="7.57194">
        <ele>884.54929740687</ele>
        <time>2021-11-02T08:39:24Z</time>
      </trkpt>
      <trkpt lat="43.89337" lon="7.57196">
        <ele>884.54931092294</ele>
        <time>2021-11-02T08:39:25Z</time>
      </trkpt>
      <trkpt lat="43.89337" lon="7.57197">
        <ele>884.54932257101</ele>
        <time>2021-11-02T08:39:28Z</time>
      </trkpt>
      <trkpt lat="43.89337" lon="7.57199">
        <ele>883.54934761671</ele>
        <time>2021-11-02T08:39:30Z</time>
      </trkpt>
      <trkpt lat="43.89337" lon="7.57201">
        <ele>884.54938134368</ele>
        <time>2021-11-02T08:39:31Z</time>
      </trkpt>
      <trkpt lat="43.89336" lon="7.57202">
        <ele>884.54943010558</ele>
        <time>2021-11-02T08:39:32Z</time>
      </trkpt>
      <trkpt lat="43.89336" lon="7.57201">
        <ele>887.54941546479</ele>
        <time>2021-11-02T08:39:44Z</time>
      </trkpt>
      <trkpt lat="43.89336" lon="7.57201">
        <ele>887.54940898985</ele>
        <time>2021-11-02T08:39:49Z</time>
      </trkpt>
      <trkpt lat="43.89336" lon="7.57203">
        <ele>887.54947142056</ele>
        <time>2021-11-02T08:39:50Z</time>
      </trkpt>
      <trkpt lat="43.89336" lon="7.57204">
        <ele>888.54949205474</ele>
        <time>2021-11-02T08:39:51Z</time>
      </trkpt>
      <trkpt lat="43.89335" lon="7.57205">
        <ele>888.54954064817</ele>
        <time>2021-11-02T08:39:52Z</time>
      </trkpt>
      <trkpt lat="43.89334" lon="7.57205">
        <ele>889.5495853276</ele>
        <time>2021-11-02T08:39:59Z</time>
      </trkpt>
      <trkpt lat="43.89333" lon="7.57208">
        <ele>888.54970212077</ele>
        <time>2021-11-02T08:40:00Z</time>
      </trkpt>
      <trkpt lat="43.89332" lon="7.5721">
        <ele>888.54976494956</ele>
        <time>2021-11-02T08:40:01Z</time>
      </trkpt>
      <trkpt lat="43.89332" lon="7.5721">
        <ele>888.54980672228</ele>
        <time>2021-11-02T08:40:02Z</time>
      </trkpt>
      <trkpt lat="43.89331" lon="7.57211">
        <ele>887.54985477528</ele>
        <time>2021-11-02T08:40:03Z</time>
      </trkpt>
      <trkpt lat="43.89331" lon="7.57212">
        <ele>886.54988152749</ele>
        <time>2021-11-02T08:40:04Z</time>
      </trkpt>
      <trkpt lat="43.8933" lon="7.57213">
        <ele>886.5499462351</ele>
        <time>2021-11-02T08:40:06Z</time>
      </trkpt>
      <trkpt lat="43.89329" lon="7.57213">
        <ele>886.54998697623</ele>
        <time>2021-11-02T08:40:07Z</time>
      </trkpt>
      <trkpt lat="43.89329" lon="7.57214">
        <ele>886.5500205441</ele>
        <time>2021-11-02T08:40:08Z</time>
      </trkpt>
      <trkpt lat="43.89328" lon="7.57215">
        <ele>887.55005670577</ele>
        <time>2021-11-02T08:40:09Z</time>
      </trkpt>
      <trkpt lat="43.89328" lon="7.57216">
        <ele>887.55008480817</ele>
        <time>2021-11-02T08:40:10Z</time>
      </trkpt>
      <trkpt lat="43.89329" lon="7.57217">
        <ele>887.5500948723</ele>
        <time>2021-11-02T08:40:11Z</time>
      </trkpt>
      <trkpt lat="43.89328" lon="7.57219">
        <ele>886.55012082014</ele>
        <time>2021-11-02T08:40:13Z</time>
      </trkpt>
      <trkpt lat="43.89327" lon="7.5722">
        <ele>885.55022121648</ele>
        <time>2021-11-02T08:40:14Z</time>
      </trkpt>
      <trkpt lat="43.89326" lon="7.57221">
        <ele>885.55025822962</ele>
        <time>2021-11-02T08:40:15Z</time>
      </trkpt>
      <trkpt lat="43.89326" lon="7.57221">
        <ele>886.55029285921</ele>
        <time>2021-11-02T08:40:16Z</time>
      </trkpt>
      <trkpt lat="43.89326" lon="7.57222">
        <ele>886.55030232588</ele>
        <time>2021-11-02T08:40:17Z</time>
      </trkpt>
      <trkpt lat="43.89326" lon="7.57223">
        <ele>886.55033067213</ele>
        <time>2021-11-02T08:40:19Z</time>
      </trkpt>
      <trkpt lat="43.89325" lon="7.57225">
        <ele>886.55041442669</ele>
        <time>2021-11-02T08:40:20Z</time>
      </trkpt>
      <trkpt lat="43.89325" lon="7.57227">
        <ele>886.55045612264</ele>
        <time>2021-11-02T08:40:21Z</time>
      </trkpt>
      <trkpt lat="43.89324" lon="7.57228">
        <ele>887.55049397059</ele>
        <time>2021-11-02T08:40:23Z</time>
      </trkpt>
      <trkpt lat="43.89324" lon="7.57229">
        <ele>887.55051275603</ele>
        <time>2021-11-02T08:40:25Z</time>
      </trkpt>
      <trkpt lat="43.89324" lon="7.57229">
        <ele>887.55050844448</ele>
        <time>2021-11-02T08:40:26Z</time>
      </trkpt>
      <trkpt lat="43.89324" lon="7.57231">
        <ele>886.55053890253</ele>
        <time>2021-11-02T08:40:27Z</time>
      </trkpt>
      <trkpt lat="43.89324" lon="7.57232">
        <ele>886.55055038537</ele>
        <time>2021-11-02T08:40:28Z</time>
      </trkpt>
      <trkpt lat="43.89324" lon="7.57233">
        <ele>885.55057726449</ele>
        <time>2021-11-02T08:40:29Z</time>
      </trkpt>
      <trkpt lat="43.89324" lon="7.57235">
        <ele>886.55060575854</ele>
        <time>2021-11-02T08:40:30Z</time>
      </trkpt>
      <trkpt lat="43.89324" lon="7.57236">
        <ele>886.5506384268</ele>
        <time>2021-11-02T08:40:31Z</time>
      </trkpt>
      <trkpt lat="43.89324" lon="7.57237">
        <ele>886.55066477964</ele>
        <time>2021-11-02T08:40:32Z</time>
      </trkpt>
      <trkpt lat="43.89324" lon="7.57238">
        <ele>885.5506781596</ele>
        <time>2021-11-02T08:40:33Z</time>
      </trkpt>
      <trkpt lat="43.89324" lon="7.5724">
        <ele>884.55070433812</ele>
        <time>2021-11-02T08:40:34Z</time>
      </trkpt>
      <trkpt lat="43.89325" lon="7.57241">
        <ele>884.55069280697</ele>
        <time>2021-11-02T08:40:35Z</time>
      </trkpt>
      <trkpt lat="43.89325" lon="7.57242">
        <ele>884.55070959276</ele>
        <time>2021-11-02T08:40:36Z</time>
      </trkpt>
      <trkpt lat="43.89325" lon="7.57244">
        <ele>885.55073450352</ele>
        <time>2021-11-02T08:40:37Z</time>
      </trkpt>
      <trkpt lat="43.89324" lon="7.57246">
        <ele>884.55081001616</ele>
        <time>2021-11-02T08:40:39Z</time>
      </trkpt>
      <trkpt lat="43.89324" lon="7.57247">
        <ele>884.55084182216</ele>
        <time>2021-11-02T08:40:40Z</time>
      </trkpt>
      <trkpt lat="43.89323" lon="7.57249">
        <ele>884.55088603936</ele>
        <time>2021-11-02T08:40:41Z</time>
      </trkpt>
      <trkpt lat="43.89323" lon="7.57251">
        <ele>885.55094100919</ele>
        <time>2021-11-02T08:40:42Z</time>
      </trkpt>
      <trkpt lat="43.89323" lon="7.57252">
        <ele>885.55096541844</ele>
        <time>2021-11-02T08:40:43Z</time>
      </trkpt>
      <trkpt lat="43.89323" lon="7.57254">
        <ele>885.55100623192</ele>
        <time>2021-11-02T08:40:44Z</time>
      </trkpt>
      <trkpt lat="43.89323" lon="7.57256">
        <ele>885.55104585902</ele>
        <time>2021-11-02T08:40:45Z</time>
      </trkpt>
      <trkpt lat="43.89323" lon="7.57258">
        <ele>885.55107631357</ele>
        <time>2021-11-02T08:40:46Z</time>
      </trkpt>
      <trkpt lat="43.89323" lon="7.5726">
        <ele>885.55110142985</ele>
        <time>2021-11-02T08:40:47Z</time>
      </trkpt>
      <trkpt lat="43.89323" lon="7.57261">
        <ele>885.55113065925</ele>
        <time>2021-11-02T08:40:48Z</time>
      </trkpt>
      <trkpt lat="43.89322" lon="7.57264">
        <ele>885.55120746124</ele>
        <time>2021-11-02T08:40:50Z</time>
      </trkpt>
      <trkpt lat="43.89322" lon="7.57266">
        <ele>885.55122928699</ele>
        <time>2021-11-02T08:40:51Z</time>
      </trkpt>
      <trkpt lat="43.89323" lon="7.57267">
        <ele>886.5512406045</ele>
        <time>2021-11-02T08:40:52Z</time>
      </trkpt>
      <trkpt lat="43.89323" lon="7.57268">
        <ele>886.55124512012</ele>
        <time>2021-11-02T08:40:53Z</time>
      </trkpt>
      <trkpt lat="43.89323" lon="7.5727">
        <ele>885.5512630282</ele>
        <time>2021-11-02T08:40:55Z</time>
      </trkpt>
      <trkpt lat="43.89323" lon="7.57272">
        <ele>885.55130987452</ele>
        <time>2021-11-02T08:40:56Z</time>
      </trkpt>
      <trkpt lat="43.89323" lon="7.57272">
        <ele>885.55129903717</ele>
        <time>2021-11-02T08:40:57Z</time>
      </trkpt>
      <trkpt lat="43.89323" lon="7.57274">
        <ele>885.551328929</ele>
        <time>2021-11-02T08:40:58Z</time>
      </trkpt>
      <trkpt lat="43.89323" lon="7.57275">
        <ele>886.55134498669</ele>
        <time>2021-11-02T08:40:59Z</time>
      </trkpt>
      <trkpt lat="43.89324" lon="7.57277">
        <ele>886.55135914602</ele>
        <time>2021-11-02T08:41:00Z</time>
      </trkpt>
      <trkpt lat="43.89324" lon="7.57278">
        <ele>886.55137314437</ele>
        <time>2021-11-02T08:41:01Z</time>
      </trkpt>
      <trkpt lat="43.89324" lon="7.5728">
        <ele>886.55138888649</ele>
        <time>2021-11-02T08:41:02Z</time>
      </trkpt>
      <trkpt lat="43.89324" lon="7.57281">
        <ele>886.55141959746</ele>
        <time>2021-11-02T08:41:04Z</time>
      </trkpt>
      <trkpt lat="43.89324" lon="7.57283">
        <ele>885.55146266692</ele>
        <time>2021-11-02T08:41:05Z</time>
      </trkpt>
      <trkpt lat="43.89323" lon="7.57284">
        <ele>885.5514960983</ele>
        <time>2021-11-02T08:41:06Z</time>
      </trkpt>
      <trkpt lat="43.89323" lon="7.57284">
        <ele>885.55150682371</ele>
        <time>2021-11-02T08:41:07Z</time>
      </trkpt>
      <trkpt lat="43.89324" lon="7.57287">
        <ele>886.55153727533</ele>
        <time>2021-11-02T08:41:09Z</time>
      </trkpt>
      <trkpt lat="43.89324" lon="7.57288">
        <ele>886.55154586681</ele>
        <time>2021-11-02T08:41:10Z</time>
      </trkpt>
      <trkpt lat="43.89324" lon="7.57289">
        <ele>886.55157230631</ele>
        <time>2021-11-02T08:41:11Z</time>
      </trkpt>
      <trkpt lat="43.89324" lon="7.5729">
        <ele>886.55156935487</ele>
        <time>2021-11-02T08:41:12Z</time>
      </trkpt>
      <trkpt lat="43.89324" lon="7.57292">
        <ele>886.55158153104</ele>
        <time>2021-11-02T08:41:13Z</time>
      </trkpt>
      <trkpt lat="43.89325" lon="7.57293">
        <ele>887.55158547456</ele>
        <time>2021-11-02T08:41:15Z</time>
      </trkpt>
      <trkpt lat="43.89325" lon="7.57293">
        <ele>887.55158547456</ele>
        <time>2021-11-02T08:41:25Z</time>
      </trkpt>
      <trkpt lat="43.89326" lon="7.57295">
        <ele>886.55156618534</ele>
        <time>2021-11-02T08:41:26Z</time>
      </trkpt>
      <trkpt lat="43.89326" lon="7.57295">
        <ele>885.55154447134</ele>
        <time>2021-11-02T08:41:27Z</time>
      </trkpt>
      <trkpt lat="43.89327" lon="7.57294">
        <ele>886.55150756187</ele>
        <time>2021-11-02T08:41:35Z</time>
      </trkpt>
      <trkpt lat="43.89327" lon="7.57294">
        <ele>886.55147360407</ele>
        <time>2021-11-02T08:41:36Z</time>
      </trkpt>
      <trkpt lat="43.89328" lon="7.57294">
        <ele>886.5514148907</ele>
        <time>2021-11-02T08:41:37Z</time>
      </trkpt>
      <trkpt lat="43.89329" lon="7.57294">
        <ele>885.5513734304</ele>
        <time>2021-11-02T08:41:38Z</time>
      </trkpt>
      <trkpt lat="43.89329" lon="7.57295">
        <ele>885.55137541286</ele>
        <time>2021-11-02T08:41:48Z</time>
      </trkpt>
      <trkpt lat="43.89328" lon="7.57294">
        <ele>885.55140591264</ele>
        <time>2021-11-02T08:41:49Z</time>
      </trkpt>
      <trkpt lat="43.89328" lon="7.57294">
        <ele>885.55142620322</ele>
        <time>2021-11-02T08:41:50Z</time>
      </trkpt>
      <trkpt lat="43.89328" lon="7.57292">
        <ele>884.55142304086</ele>
        <time>2021-11-02T08:41:51Z</time>
      </trkpt>
      <trkpt lat="43.89327" lon="7.57292">
        <ele>885.55144648555</ele>
        <time>2021-11-02T08:41:52Z</time>
      </trkpt>
      <trkpt lat="43.89326" lon="7.57292">
        <ele>885.55148783549</ele>
        <time>2021-11-02T08:41:53Z</time>
      </trkpt>
      <trkpt lat="43.89325" lon="7.57291">
        <ele>885.55151608499</ele>
        <time>2021-11-02T08:41:54Z</time>
      </trkpt>
      <trkpt lat="43.89325" lon="7.5729">
        <ele>886.55150927034</ele>
        <time>2021-11-02T08:41:55Z</time>
      </trkpt>
      <trkpt lat="43.89325" lon="7.57289">
        <ele>886.5515038216</ele>
        <time>2021-11-02T08:41:56Z</time>
      </trkpt>
      <trkpt lat="43.89324" lon="7.57288">
        <ele>887.55151428118</ele>
        <time>2021-11-02T08:41:57Z</time>
      </trkpt>
      <trkpt lat="43.89324" lon="7.57287">
        <ele>887.55152523845</ele>
        <time>2021-11-02T08:41:58Z</time>
      </trkpt>
      <trkpt lat="43.89323" lon="7.57286">
        <ele>887.55153732104</ele>
        <time>2021-11-02T08:41:59Z</time>
      </trkpt>
      <trkpt lat="43.89323" lon="7.57286">
        <ele>887.55157107335</ele>
        <time>2021-11-02T08:42:01Z</time>
      </trkpt>
      <trkpt lat="43.89322" lon="7.57285">
        <ele>888.55158236815</ele>
        <time>2021-11-02T08:42:10Z</time>
      </trkpt>
      <trkpt lat="43.89322" lon="7.57286">
        <ele>887.55162084983</ele>
        <time>2021-11-02T08:42:11Z</time>
      </trkpt>
      <trkpt lat="43.89321" lon="7.57287">
        <ele>886.55165423608</ele>
        <time>2021-11-02T08:42:14Z</time>
      </trkpt>
      <trkpt lat="43.89322" lon="7.57287">
        <ele>885.55162883822</ele>
        <time>2021-11-02T08:42:15Z</time>
      </trkpt>
      <trkpt lat="43.89323" lon="7.57288">
        <ele>885.55161530409</ele>
        <time>2021-11-02T08:42:16Z</time>
      </trkpt>
      <trkpt lat="43.89323" lon="7.5729">
        <ele>884.55159182093</ele>
        <time>2021-11-02T08:42:17Z</time>
      </trkpt>
      <trkpt lat="43.89324" lon="7.57291">
        <ele>884.55157869654</ele>
        <time>2021-11-02T08:42:18Z</time>
      </trkpt>
      <trkpt lat="43.89325" lon="7.57292">
        <ele>884.55155091249</ele>
        <time>2021-11-02T08:42:19Z</time>
      </trkpt>
      <trkpt lat="43.89326" lon="7.57292">
        <ele>883.5515189742</ele>
        <time>2021-11-02T08:42:20Z</time>
      </trkpt>
      <trkpt lat="43.89326" lon="7.57293">
        <ele>883.55149969624</ele>
        <time>2021-11-02T08:42:21Z</time>
      </trkpt>
      <trkpt lat="43.89327" lon="7.57295">
        <ele>883.55151216447</ele>
        <time>2021-11-02T08:42:22Z</time>
      </trkpt>
      <trkpt lat="43.89327" lon="7.57295">
        <ele>883.55149641064</ele>
        <time>2021-11-02T08:42:23Z</time>
      </trkpt>
      <trkpt lat="43.89328" lon="7.57296">
        <ele>883.55147266925</ele>
        <time>2021-11-02T08:42:24Z</time>
      </trkpt>
      <trkpt lat="43.89329" lon="7.57295">
        <ele>884.55141927911</ele>
        <time>2021-11-02T08:42:25Z</time>
      </trkpt>
      <trkpt lat="43.89329" lon="7.57296">
        <ele>884.55139686612</ele>
        <time>2021-11-02T08:42:26Z</time>
      </trkpt>
      <trkpt lat="43.8933" lon="7.57295">
        <ele>884.55134702238</ele>
        <time>2021-11-02T08:42:31Z</time>
      </trkpt>
      <trkpt lat="43.89332" lon="7.57296">
        <ele>885.55124544044</ele>
        <time>2021-11-02T08:42:32Z</time>
      </trkpt>
      <trkpt lat="43.89333" lon="7.57297">
        <ele>885.55121734181</ele>
        <time>2021-11-02T08:42:33Z</time>
      </trkpt>
      <trkpt lat="43.89334" lon="7.57298">
        <ele>885.55118816543</ele>
        <time>2021-11-02T08:42:34Z</time>
      </trkpt>
      <trkpt lat="43.89334" lon="7.57299">
        <ele>885.55119083988</ele>
        <time>2021-11-02T08:42:35Z</time>
      </trkpt>
      <trkpt lat="43.89335" lon="7.573">
        <ele>884.55116989753</ele>
        <time>2021-11-02T08:42:36Z</time>
      </trkpt>
      <trkpt lat="43.89336" lon="7.57302">
        <ele>884.55116910144</ele>
        <time>2021-11-02T08:42:37Z</time>
      </trkpt>
      <trkpt lat="43.89336" lon="7.57304">
        <ele>884.55117592569</ele>
        <time>2021-11-02T08:42:38Z</time>
      </trkpt>
      <trkpt lat="43.89337" lon="7.57305">
        <ele>883.55116020308</ele>
        <time>2021-11-02T08:42:39Z</time>
      </trkpt>
      <trkpt lat="43.89337" lon="7.57306">
        <ele>884.5511606142</ele>
        <time>2021-11-02T08:42:40Z</time>
      </trkpt>
      <trkpt lat="43.89338" lon="7.57307">
        <ele>883.55116057478</ele>
        <time>2021-11-02T08:42:41Z</time>
      </trkpt>
      <trkpt lat="43.89338" lon="7.57308">
        <ele>881.5511642626</ele>
        <time>2021-11-02T08:42:45Z</time>
      </trkpt>
      <trkpt lat="43.89337" lon="7.57308">
        <ele>879.55118372657</ele>
        <time>2021-11-02T08:43:02Z</time>
      </trkpt>
      <trkpt lat="43.89338" lon="7.57306">
        <ele>879.55108688753</ele>
        <time>2021-11-02T08:43:03Z</time>
      </trkpt>
      <trkpt lat="43.89339" lon="7.57306">
        <ele>879.55105538137</ele>
        <time>2021-11-02T08:43:04Z</time>
      </trkpt>
      <trkpt lat="43.8934" lon="7.57306">
        <ele>879.55102048254</ele>
        <time>2021-11-02T08:43:05Z</time>
      </trkpt>
      <trkpt lat="43.8934" lon="7.57305">
        <ele>882.5509777086</ele>
        <time>2021-11-02T08:43:15Z</time>
      </trkpt>
      <trkpt lat="43.89341" lon="7.57305">
        <ele>882.55093243423</ele>
        <time>2021-11-02T08:43:16Z</time>
      </trkpt>
      <trkpt lat="43.89342" lon="7.57306">
        <ele>883.55089063722</ele>
        <time>2021-11-02T08:43:17Z</time>
      </trkpt>
      <trkpt lat="43.89344" lon="7.57308">
        <ele>883.55083091481</ele>
        <time>2021-11-02T08:43:19Z</time>
      </trkpt>
      <trkpt lat="43.89345" lon="7.57308">
        <ele>883.55078253976</ele>
        <time>2021-11-02T08:43:21Z</time>
      </trkpt>
      <trkpt lat="43.89346" lon="7.57307">
        <ele>883.55073588858</ele>
        <time>2021-11-02T08:43:22Z</time>
      </trkpt>
      <trkpt lat="43.89347" lon="7.57308">
        <ele>884.5507081764</ele>
        <time>2021-11-02T08:43:23Z</time>
      </trkpt>
      <trkpt lat="43.89348" lon="7.57309">
        <ele>884.55065210077</ele>
        <time>2021-11-02T08:43:25Z</time>
      </trkpt>
      <trkpt lat="43.89349" lon="7.57309">
        <ele>884.55060913593</ele>
        <time>2021-11-02T08:43:26Z</time>
      </trkpt>
      <trkpt lat="43.8935" lon="7.57309">
        <ele>884.55055796929</ele>
        <time>2021-11-02T08:43:27Z</time>
      </trkpt>
      <trkpt lat="43.89351" lon="7.57309">
        <ele>883.55049895789</ele>
        <time>2021-11-02T08:43:29Z</time>
      </trkpt>
      <trkpt lat="43.89352" lon="7.57309">
        <ele>883.550432029</ele>
        <time>2021-11-02T08:43:31Z</time>
      </trkpt>
      <trkpt lat="43.89353" lon="7.5731">
        <ele>882.55038726516</ele>
        <time>2021-11-02T08:43:32Z</time>
      </trkpt>
      <trkpt lat="43.89354" lon="7.57311">
        <ele>883.55035952972</ele>
        <time>2021-11-02T08:43:34Z</time>
      </trkpt>
      <trkpt lat="43.89354" lon="7.57314">
        <ele>883.55040160821</ele>
        <time>2021-11-02T08:43:35Z</time>
      </trkpt>
      <trkpt lat="43.89354" lon="7.57315">
        <ele>883.55042848749</ele>
        <time>2021-11-02T08:43:36Z</time>
      </trkpt>
      <trkpt lat="43.89354" lon="7.57317">
        <ele>882.5504496557</ele>
        <time>2021-11-02T08:43:37Z</time>
      </trkpt>
      <trkpt lat="43.89355" lon="7.57319">
        <ele>881.55045386776</ele>
        <time>2021-11-02T08:43:39Z</time>
      </trkpt>
      <trkpt lat="43.89356" lon="7.5732">
        <ele>880.55042703135</ele>
        <time>2021-11-02T08:43:40Z</time>
      </trkpt>
      <trkpt lat="43.89357" lon="7.57321">
        <ele>880.55039617274</ele>
        <time>2021-11-02T08:43:41Z</time>
      </trkpt>
      <trkpt lat="43.89357" lon="7.57321">
        <ele>880.55037731808</ele>
        <time>2021-11-02T08:43:43Z</time>
      </trkpt>
      <trkpt lat="43.89358" lon="7.57321">
        <ele>880.55033242859</ele>
        <time>2021-11-02T08:43:44Z</time>
      </trkpt>
      <trkpt lat="43.89359" lon="7.5732">
        <ele>881.55029158965</ele>
        <time>2021-11-02T08:43:45Z</time>
      </trkpt>
      <trkpt lat="43.89359" lon="7.57319">
        <ele>880.5502329229</ele>
        <time>2021-11-02T08:43:46Z</time>
      </trkpt>
      <trkpt lat="43.8936" lon="7.57319">
        <ele>881.5501836487</ele>
        <time>2021-11-02T08:43:47Z</time>
      </trkpt>
      <trkpt lat="43.89361" lon="7.57319">
        <ele>881.55015682423</ele>
        <time>2021-11-02T08:43:48Z</time>
      </trkpt>
      <trkpt lat="43.89362" lon="7.57318">
        <ele>881.55007407552</ele>
        <time>2021-11-02T08:43:49Z</time>
      </trkpt>
      <trkpt lat="43.89363" lon="7.57317">
        <ele>880.55001452867</ele>
        <time>2021-11-02T08:43:50Z</time>
      </trkpt>
      <trkpt lat="43.89364" lon="7.57317">
        <ele>881.54995076006</ele>
        <time>2021-11-02T08:43:51Z</time>
      </trkpt>
      <trkpt lat="43.89365" lon="7.57316">
        <ele>881.54987645533</ele>
        <time>2021-11-02T08:43:52Z</time>
      </trkpt>
      <trkpt lat="43.89366" lon="7.57315">
        <ele>881.54980009758</ele>
        <time>2021-11-02T08:43:53Z</time>
      </trkpt>
      <trkpt lat="43.89367" lon="7.57313">
        <ele>881.54973512614</ele>
        <time>2021-11-02T08:43:54Z</time>
      </trkpt>
      <trkpt lat="43.89368" lon="7.57313">
        <ele>881.54967412797</ele>
        <time>2021-11-02T08:43:55Z</time>
      </trkpt>
      <trkpt lat="43.89369" lon="7.57312">
        <ele>882.54961337796</ele>
        <time>2021-11-02T08:43:56Z</time>
      </trkpt>
      <trkpt lat="43.89369" lon="7.57311">
        <ele>881.54958352656</ele>
        <time>2021-11-02T08:43:57Z</time>
      </trkpt>
      <trkpt lat="43.8937" lon="7.57311">
        <ele>881.54954498239</ele>
        <time>2021-11-02T08:43:58Z</time>
      </trkpt>
      <trkpt lat="43.89371" lon="7.5731">
        <ele>882.54946953824</ele>
        <time>2021-11-02T08:44:00Z</time>
      </trkpt>
      <trkpt lat="43.89372" lon="7.5731">
        <ele>882.5494289728</ele>
        <time>2021-11-02T08:44:01Z</time>
      </trkpt>
      <trkpt lat="43.89373" lon="7.5731">
        <ele>882.54938992414</ele>
        <time>2021-11-02T08:44:02Z</time>
      </trkpt>
      <trkpt lat="43.89374" lon="7.57309">
        <ele>883.54932303731</ele>
        <time>2021-11-02T08:44:04Z</time>
      </trkpt>
      <trkpt lat="43.89375" lon="7.57308">
        <ele>883.54923646114</ele>
        <time>2021-11-02T08:44:06Z</time>
      </trkpt>
      <trkpt lat="43.89376" lon="7.57308">
        <ele>883.54920286559</ele>
        <time>2021-11-02T08:44:07Z</time>
      </trkpt>
      <trkpt lat="43.89376" lon="7.57307">
        <ele>883.54915150802</ele>
        <time>2021-11-02T08:44:08Z</time>
      </trkpt>
      <trkpt lat="43.89378" lon="7.57307">
        <ele>883.54906668376</ele>
        <time>2021-11-02T08:44:10Z</time>
      </trkpt>
      <trkpt lat="43.89379" lon="7.57307">
        <ele>884.54903653262</ele>
        <time>2021-11-02T08:44:11Z</time>
      </trkpt>
      <trkpt lat="43.89379" lon="7.57307">
        <ele>883.54899146706</ele>
        <time>2021-11-02T08:44:12Z</time>
      </trkpt>
      <trkpt lat="43.89382" lon="7.57305">
        <ele>884.54882515709</ele>
        <time>2021-11-02T08:44:14Z</time>
      </trkpt>
      <trkpt lat="43.89383" lon="7.57303">
        <ele>884.54871837092</ele>
        <time>2021-11-02T08:44:16Z</time>
      </trkpt>
      <trkpt lat="43.89384" lon="7.57302">
        <ele>884.54864747452</ele>
        <time>2021-11-02T08:44:17Z</time>
      </trkpt>
      <trkpt lat="43.89385" lon="7.57301">
        <ele>884.54858688112</ele>
        <time>2021-11-02T08:44:19Z</time>
      </trkpt>
      <trkpt lat="43.89387" lon="7.57301">
        <ele>884.54850740248</ele>
        <time>2021-11-02T08:44:20Z</time>
      </trkpt>
      <trkpt lat="43.89388" lon="7.573">
        <ele>884.54845193045</ele>
        <time>2021-11-02T08:44:21Z</time>
      </trkpt>
      <trkpt lat="43.89389" lon="7.573">
        <ele>884.54839678138</ele>
        <time>2021-11-02T08:44:22Z</time>
      </trkpt>
      <trkpt lat="43.89391" lon="7.57299">
        <ele>884.54827382783</ele>
        <time>2021-11-02T08:44:24Z</time>
      </trkpt>
      <trkpt lat="43.89392" lon="7.57299">
        <ele>884.54817986421</ele>
        <time>2021-11-02T08:44:26Z</time>
      </trkpt>
      <trkpt lat="43.89393" lon="7.57298">
        <ele>884.54811807927</ele>
        <time>2021-11-02T08:44:27Z</time>
      </trkpt>
      <trkpt lat="43.89394" lon="7.57297">
        <ele>884.54805560501</ele>
        <time>2021-11-02T08:44:28Z</time>
      </trkpt>
      <trkpt lat="43.89396" lon="7.57295">
        <ele>886.54794148296</ele>
        <time>2021-11-02T08:44:30Z</time>
      </trkpt>
      <trkpt lat="43.89397" lon="7.57294">
        <ele>886.54786631174</ele>
        <time>2021-11-02T08:44:31Z</time>
      </trkpt>
      <trkpt lat="43.89398" lon="7.57293">
        <ele>886.54780848629</ele>
        <time>2021-11-02T08:44:32Z</time>
      </trkpt>
      <trkpt lat="43.89399" lon="7.57292">
        <ele>886.54772545525</ele>
        <time>2021-11-02T08:44:34Z</time>
      </trkpt>
      <trkpt lat="43.894" lon="7.57291">
        <ele>886.54765768324</ele>
        <time>2021-11-02T08:44:35Z</time>
      </trkpt>
      <trkpt lat="43.89401" lon="7.57291">
        <ele>887.54758719268</ele>
        <time>2021-11-02T08:44:36Z</time>
      </trkpt>
      <trkpt lat="43.89402" lon="7.5729">
        <ele>887.54753410724</ele>
        <time>2021-11-02T08:44:37Z</time>
      </trkpt>
      <trkpt lat="43.89403" lon="7.5729">
        <ele>887.54748398802</ele>
        <time>2021-11-02T08:44:38Z</time>
      </trkpt>
      <trkpt lat="43.89404" lon="7.57289">
        <ele>887.54740524197</ele>
        <time>2021-11-02T08:44:40Z</time>
      </trkpt>
      <trkpt lat="43.89404" lon="7.57288">
        <ele>886.54737255373</ele>
        <time>2021-11-02T08:44:41Z</time>
      </trkpt>
      <trkpt lat="43.89405" lon="7.57287">
        <ele>886.54733230336</ele>
        <time>2021-11-02T08:44:44Z</time>
      </trkpt>
      <trkpt lat="43.89407" lon="7.57284">
        <ele>887.54720111368</ele>
        <time>2021-11-02T08:44:46Z</time>
      </trkpt>
      <trkpt lat="43.89407" lon="7.57283">
        <ele>887.54714263048</ele>
        <time>2021-11-02T08:44:47Z</time>
      </trkpt>
      <trkpt lat="43.89408" lon="7.57283">
        <ele>887.54710231942</ele>
        <time>2021-11-02T08:44:48Z</time>
      </trkpt>
      <trkpt lat="43.89409" lon="7.57282">
        <ele>887.54705088155</ele>
        <time>2021-11-02T08:44:49Z</time>
      </trkpt>
      <trkpt lat="43.8941" lon="7.57281">
        <ele>888.54699167384</ele>
        <time>2021-11-02T08:44:50Z</time>
      </trkpt>
      <trkpt lat="43.89411" lon="7.57281">
        <ele>889.54692336938</ele>
        <time>2021-11-02T08:44:51Z</time>
      </trkpt>
      <trkpt lat="43.89411" lon="7.5728">
        <ele>889.54688176547</ele>
        <time>2021-11-02T08:44:52Z</time>
      </trkpt>
      <trkpt lat="43.89413" lon="7.57279">
        <ele>890.54681376972</ele>
        <time>2021-11-02T08:44:53Z</time>
      </trkpt>
      <trkpt lat="43.89413" lon="7.57279">
        <ele>889.54676549171</ele>
        <time>2021-11-02T08:44:54Z</time>
      </trkpt>
      <trkpt lat="43.89415" lon="7.57277">
        <ele>889.54666380807</ele>
        <time>2021-11-02T08:44:56Z</time>
      </trkpt>
      <trkpt lat="43.89416" lon="7.57276">
        <ele>889.546586727</ele>
        <time>2021-11-02T08:44:57Z</time>
      </trkpt>
      <trkpt lat="43.89417" lon="7.57275">
        <ele>889.54652103518</ele>
        <time>2021-11-02T08:44:59Z</time>
      </trkpt>
      <trkpt lat="43.89418" lon="7.57275">
        <ele>889.54643659845</ele>
        <time>2021-11-02T08:45:00Z</time>
      </trkpt>
      <trkpt lat="43.89419" lon="7.57275">
        <ele>889.54642023526</ele>
        <time>2021-11-02T08:45:01Z</time>
      </trkpt>
      <trkpt lat="43.8942" lon="7.57276">
        <ele>889.5463713264</ele>
        <time>2021-11-02T08:45:02Z</time>
      </trkpt>
      <trkpt lat="43.8942" lon="7.57275">
        <ele>890.54633043598</ele>
        <time>2021-11-02T08:45:03Z</time>
      </trkpt>
      <trkpt lat="43.89422" lon="7.57275">
        <ele>890.54622431394</ele>
        <time>2021-11-02T08:45:05Z</time>
      </trkpt>
      <trkpt lat="43.89423" lon="7.57275">
        <ele>891.54617626339</ele>
        <time>2021-11-02T08:45:06Z</time>
      </trkpt>
      <trkpt lat="43.89424" lon="7.57275">
        <ele>891.54613924703</ele>
        <time>2021-11-02T08:45:09Z</time>
      </trkpt>
      <trkpt lat="43.89426" lon="7.57274">
        <ele>891.5459993875</ele>
        <time>2021-11-02T08:45:11Z</time>
      </trkpt>
      <trkpt lat="43.89428" lon="7.57274">
        <ele>891.54593917993</ele>
        <time>2021-11-02T08:45:12Z</time>
      </trkpt>
      <trkpt lat="43.89429" lon="7.57274">
        <ele>890.54586681658</ele>
        <time>2021-11-02T08:45:13Z</time>
      </trkpt>
      <trkpt lat="43.8943" lon="7.57274">
        <ele>889.54580547494</ele>
        <time>2021-11-02T08:45:15Z</time>
      </trkpt>
      <trkpt lat="43.89431" lon="7.57274">
        <ele>889.54576089904</ele>
        <time>2021-11-02T08:45:16Z</time>
      </trkpt>
      <trkpt lat="43.89432" lon="7.57274">
        <ele>889.5457126138</ele>
        <time>2021-11-02T08:45:17Z</time>
      </trkpt>
      <trkpt lat="43.89434" lon="7.57274">
        <ele>889.54562714953</ele>
        <time>2021-11-02T08:45:19Z</time>
      </trkpt>
      <trkpt lat="43.89435" lon="7.57274">
        <ele>888.54557611405</ele>
        <time>2021-11-02T08:45:21Z</time>
      </trkpt>
      <trkpt lat="43.89435" lon="7.57275">
        <ele>888.54555169159</ele>
        <time>2021-11-02T08:45:22Z</time>
      </trkpt>
      <trkpt lat="43.89436" lon="7.57275">
        <ele>888.54551884364</ele>
        <time>2021-11-02T08:45:23Z</time>
      </trkpt>
      <trkpt lat="43.89438" lon="7.57276">
        <ele>888.5454282566</ele>
        <time>2021-11-02T08:45:25Z</time>
      </trkpt>
      <trkpt lat="43.89439" lon="7.57275">
        <ele>887.54538577162</ele>
        <time>2021-11-02T08:45:26Z</time>
      </trkpt>
      <trkpt lat="43.8944" lon="7.57276">
        <ele>887.54533365463</ele>
        <time>2021-11-02T08:45:28Z</time>
      </trkpt>
      <trkpt lat="43.89443" lon="7.57276">
        <ele>887.54518608245</ele>
        <time>2021-11-02T08:45:29Z</time>
      </trkpt>
      <trkpt lat="43.89445" lon="7.57275">
        <ele>887.5450775697</ele>
        <time>2021-11-02T08:45:31Z</time>
      </trkpt>
      <trkpt lat="43.89445" lon="7.57276">
        <ele>887.54504838754</ele>
        <time>2021-11-02T08:45:32Z</time>
      </trkpt>
      <trkpt lat="43.89446" lon="7.57275">
        <ele>887.5450137505</ele>
        <time>2021-11-02T08:45:34Z</time>
      </trkpt>
      <trkpt lat="43.89447" lon="7.57276">
        <ele>887.54496262488</ele>
        <time>2021-11-02T08:45:35Z</time>
      </trkpt>
      <trkpt lat="43.89448" lon="7.57275">
        <ele>888.54491549413</ele>
        <time>2021-11-02T08:45:36Z</time>
      </trkpt>
      <trkpt lat="43.89449" lon="7.57275">
        <ele>888.54484539791</ele>
        <time>2021-11-02T08:45:37Z</time>
      </trkpt>
      <trkpt lat="43.8945" lon="7.57275">
        <ele>888.54479904305</ele>
        <time>2021-11-02T08:45:38Z</time>
      </trkpt>
      <trkpt lat="43.89451" lon="7.57275">
        <ele>888.54474929255</ele>
        <time>2021-11-02T08:45:40Z</time>
      </trkpt>
      <trkpt lat="43.89452" lon="7.57274">
        <ele>889.54468498709</ele>
        <time>2021-11-02T08:45:41Z</time>
      </trkpt>
      <trkpt lat="43.89453" lon="7.57274">
        <ele>889.54463387269</ele>
        <time>2021-11-02T08:45:42Z</time>
      </trkpt>
      <trkpt lat="43.89454" lon="7.57274">
        <ele>888.5445920233</ele>
        <time>2021-11-02T08:45:44Z</time>
      </trkpt>
      <trkpt lat="43.89455" lon="7.57273">
        <ele>888.54452380661</ele>
        <time>2021-11-02T08:45:45Z</time>
      </trkpt>
      <trkpt lat="43.89456" lon="7.57273">
        <ele>888.54444627936</ele>
        <time>2021-11-02T08:45:46Z</time>
      </trkpt>
      <trkpt lat="43.89457" lon="7.57273">
        <ele>888.54439248075</ele>
        <time>2021-11-02T08:45:48Z</time>
      </trkpt>
      <trkpt lat="43.89459" lon="7.57272">
        <ele>888.54431887184</ele>
        <time>2021-11-02T08:45:50Z</time>
      </trkpt>
      <trkpt lat="43.8946" lon="7.57272">
        <ele>890.54421206766</ele>
        <time>2021-11-02T08:45:51Z</time>
      </trkpt>
      <trkpt lat="43.89462" lon="7.57271">
        <ele>890.54414168528</ele>
        <time>2021-11-02T08:45:52Z</time>
      </trkpt>
      <trkpt lat="43.89463" lon="7.57271">
        <ele>890.54408743191</ele>
        <time>2021-11-02T08:45:54Z</time>
      </trkpt>
      <trkpt lat="43.89464" lon="7.5727">
        <ele>891.54398088044</ele>
        <time>2021-11-02T08:45:55Z</time>
      </trkpt>
      <trkpt lat="43.89465" lon="7.57269">
        <ele>890.54391109246</ele>
        <time>2021-11-02T08:45:56Z</time>
      </trkpt>
      <trkpt lat="43.89466" lon="7.57269">
        <ele>890.5438536301</ele>
        <time>2021-11-02T08:45:57Z</time>
      </trkpt>
      <trkpt lat="43.89467" lon="7.57268">
        <ele>889.54379136975</ele>
        <time>2021-11-02T08:45:58Z</time>
      </trkpt>
      <trkpt lat="43.89468" lon="7.57267">
        <ele>889.54373081217</ele>
        <time>2021-11-02T08:45:59Z</time>
      </trkpt>
      <trkpt lat="43.89469" lon="7.57267">
        <ele>889.54367320436</ele>
        <time>2021-11-02T08:46:00Z</time>
      </trkpt>
      <trkpt lat="43.8947" lon="7.57266">
        <ele>890.54361874759</ele>
        <time>2021-11-02T08:46:01Z</time>
      </trkpt>
      <trkpt lat="43.89471" lon="7.57266">
        <ele>890.54358233929</ele>
        <time>2021-11-02T08:46:02Z</time>
      </trkpt>
      <trkpt lat="43.89471" lon="7.57266">
        <ele>891.54355174132</ele>
        <time>2021-11-02T08:46:03Z</time>
      </trkpt>
      <trkpt lat="43.89472" lon="7.57265">
        <ele>891.54350521114</ele>
        <time>2021-11-02T08:46:04Z</time>
      </trkpt>
      <trkpt lat="43.89473" lon="7.57265">
        <ele>890.54344941535</ele>
        <time>2021-11-02T08:46:05Z</time>
      </trkpt>
      <trkpt lat="43.89474" lon="7.57265">
        <ele>891.54341719723</ele>
        <time>2021-11-02T08:46:06Z</time>
      </trkpt>
      <trkpt lat="43.89474" lon="7.57265">
        <ele>892.54339346449</ele>
        <time>2021-11-02T08:46:07Z</time>
      </trkpt>
      <trkpt lat="43.89475" lon="7.57264">
        <ele>892.54334739739</ele>
        <time>2021-11-02T08:46:08Z</time>
      </trkpt>
      <trkpt lat="43.89475" lon="7.57263">
        <ele>892.54329781876</ele>
        <time>2021-11-02T08:46:09Z</time>
      </trkpt>
      <trkpt lat="43.89476" lon="7.57263">
        <ele>892.54325026993</ele>
        <time>2021-11-02T08:46:10Z</time>
      </trkpt>
      <trkpt lat="43.89477" lon="7.57263">
        <ele>892.5432066714</ele>
        <time>2021-11-02T08:46:11Z</time>
      </trkpt>
      <trkpt lat="43.89478" lon="7.57263">
        <ele>891.54315942489</ele>
        <time>2021-11-02T08:46:12Z</time>
      </trkpt>
      <trkpt lat="43.89479" lon="7.57263">
        <ele>891.54310242405</ele>
        <time>2021-11-02T08:46:14Z</time>
      </trkpt>
      <trkpt lat="43.8948" lon="7.57263">
        <ele>890.54304896966</ele>
        <time>2021-11-02T08:46:15Z</time>
      </trkpt>
      <trkpt lat="43.8948" lon="7.57262">
        <ele>889.543019793</ele>
        <time>2021-11-02T08:46:17Z</time>
      </trkpt>
      <trkpt lat="43.89481" lon="7.57262">
        <ele>889.54298830306</ele>
        <time>2021-11-02T08:46:19Z</time>
      </trkpt>
      <trkpt lat="43.89483" lon="7.57261">
        <ele>890.54287232321</ele>
        <time>2021-11-02T08:46:20Z</time>
      </trkpt>
      <trkpt lat="43.89484" lon="7.57261">
        <ele>890.54279872502</ele>
        <time>2021-11-02T08:46:21Z</time>
      </trkpt>
      <trkpt lat="43.89485" lon="7.57261">
        <ele>890.54275039736</ele>
        <time>2021-11-02T08:46:22Z</time>
      </trkpt>
      <trkpt lat="43.89486" lon="7.57261">
        <ele>890.54269254667</ele>
        <time>2021-11-02T08:46:23Z</time>
      </trkpt>
      <trkpt lat="43.89489" lon="7.57261">
        <ele>891.54254932671</ele>
        <time>2021-11-02T08:46:25Z</time>
      </trkpt>
      <trkpt lat="43.8949" lon="7.5726">
        <ele>892.54246726781</ele>
        <time>2021-11-02T08:46:26Z</time>
      </trkpt>
      <trkpt lat="43.89492" lon="7.5726">
        <ele>892.54238778312</ele>
        <time>2021-11-02T08:46:27Z</time>
      </trkpt>
      <trkpt lat="43.89493" lon="7.5726">
        <ele>892.54232261159</ele>
        <time>2021-11-02T08:46:28Z</time>
      </trkpt>
      <trkpt lat="43.89496" lon="7.5726">
        <ele>890.54216970818</ele>
        <time>2021-11-02T08:46:30Z</time>
      </trkpt>
      <trkpt lat="43.89497" lon="7.57259">
        <ele>890.54209881645</ele>
        <time>2021-11-02T08:46:31Z</time>
      </trkpt>
      <trkpt lat="43.89498" lon="7.57259">
        <ele>890.54203262957</ele>
        <time>2021-11-02T08:46:33Z</time>
      </trkpt>
      <trkpt lat="43.895" lon="7.57258">
        <ele>890.54194540762</ele>
        <time>2021-11-02T08:46:34Z</time>
      </trkpt>
      <trkpt lat="43.89501" lon="7.57258">
        <ele>890.54190196793</ele>
        <time>2021-11-02T08:46:35Z</time>
      </trkpt>
      <trkpt lat="43.89501" lon="7.57257">
        <ele>890.54185077533</ele>
        <time>2021-11-02T08:46:36Z</time>
      </trkpt>
      <trkpt lat="43.89502" lon="7.57257">
        <ele>890.54179260775</ele>
        <time>2021-11-02T08:46:38Z</time>
      </trkpt>
      <trkpt lat="43.89505" lon="7.57256">
        <ele>890.54166848822</ele>
        <time>2021-11-02T08:46:39Z</time>
      </trkpt>
      <trkpt lat="43.89506" lon="7.57256">
        <ele>891.54160803386</ele>
        <time>2021-11-02T08:46:40Z</time>
      </trkpt>
      <trkpt lat="43.89506" lon="7.57255">
        <ele>892.5415617006</ele>
        <time>2021-11-02T08:46:41Z</time>
      </trkpt>
      <trkpt lat="43.89507" lon="7.57255">
        <ele>892.54151587609</ele>
        <time>2021-11-02T08:46:42Z</time>
      </trkpt>
      <trkpt lat="43.89509" lon="7.57254">
        <ele>892.54139177168</ele>
        <time>2021-11-02T08:46:44Z</time>
      </trkpt>
      <trkpt lat="43.89512" lon="7.57254">
        <ele>893.54126818579</ele>
        <time>2021-11-02T08:46:46Z</time>
      </trkpt>
      <trkpt lat="43.89513" lon="7.57254">
        <ele>893.54121733763</ele>
        <time>2021-11-02T08:46:47Z</time>
      </trkpt>
      <trkpt lat="43.89514" lon="7.57254">
        <ele>893.541159571</ele>
        <time>2021-11-02T08:46:48Z</time>
      </trkpt>
      <trkpt lat="43.89515" lon="7.57253">
        <ele>895.54108229149</ele>
        <time>2021-11-02T08:46:49Z</time>
      </trkpt>
      <trkpt lat="43.89516" lon="7.57254">
        <ele>895.54101690105</ele>
        <time>2021-11-02T08:46:51Z</time>
      </trkpt>
      <trkpt lat="43.89517" lon="7.57254">
        <ele>896.54096356734</ele>
        <time>2021-11-02T08:46:52Z</time>
      </trkpt>
      <trkpt lat="43.89518" lon="7.57254">
        <ele>896.54091565116</ele>
        <time>2021-11-02T08:46:54Z</time>
      </trkpt>
      <trkpt lat="43.8952" lon="7.57253">
        <ele>897.54083244073</ele>
        <time>2021-11-02T08:46:55Z</time>
      </trkpt>
      <trkpt lat="43.89521" lon="7.57253">
        <ele>896.54078754339</ele>
        <time>2021-11-02T08:46:56Z</time>
      </trkpt>
      <trkpt lat="43.89521" lon="7.57252">
        <ele>896.54073836497</ele>
        <time>2021-11-02T08:46:57Z</time>
      </trkpt>
      <trkpt lat="43.89522" lon="7.57252">
        <ele>896.54070111285</ele>
        <time>2021-11-02T08:46:59Z</time>
      </trkpt>
      <trkpt lat="43.89523" lon="7.57253">
        <ele>897.54065016696</ele>
        <time>2021-11-02T08:47:00Z</time>
      </trkpt>
      <trkpt lat="43.89524" lon="7.57253">
        <ele>897.54060147423</ele>
        <time>2021-11-02T08:47:01Z</time>
      </trkpt>
      <trkpt lat="43.89525" lon="7.57253">
        <ele>897.54056352875</ele>
        <time>2021-11-02T08:47:02Z</time>
      </trkpt>
      <trkpt lat="43.89527" lon="7.57252">
        <ele>897.54045105472</ele>
        <time>2021-11-02T08:47:04Z</time>
      </trkpt>
      <trkpt lat="43.89528" lon="7.57252">
        <ele>897.5404055032</ele>
        <time>2021-11-02T08:47:05Z</time>
      </trkpt>
      <trkpt lat="43.89529" lon="7.57252">
        <ele>897.54036408141</ele>
        <time>2021-11-02T08:47:06Z</time>
      </trkpt>
      <trkpt lat="43.8953" lon="7.57252">
        <ele>897.54031024192</ele>
        <time>2021-11-02T08:47:07Z</time>
      </trkpt>
      <trkpt lat="43.89531" lon="7.57252">
        <ele>897.54025087347</ele>
        <time>2021-11-02T08:47:08Z</time>
      </trkpt>
      <trkpt lat="43.89532" lon="7.57252">
        <ele>898.54019804738</ele>
        <time>2021-11-02T08:47:09Z</time>
      </trkpt>
      <trkpt lat="43.89532" lon="7.57251">
        <ele>898.54014900874</ele>
        <time>2021-11-02T08:47:10Z</time>
      </trkpt>
      <trkpt lat="43.89533" lon="7.57251">
        <ele>898.54010200482</ele>
        <time>2021-11-02T08:47:11Z</time>
      </trkpt>
      <trkpt lat="43.89534" lon="7.57251">
        <ele>899.54005180306</ele>
        <time>2021-11-02T08:47:12Z</time>
      </trkpt>
      <trkpt lat="43.89535" lon="7.5725">
        <ele>899.53998485013</ele>
        <time>2021-11-02T08:47:13Z</time>
      </trkpt>
      <trkpt lat="43.89536" lon="7.57249">
        <ele>900.5399252822</ele>
        <time>2021-11-02T08:47:14Z</time>
      </trkpt>
      <trkpt lat="43.89537" lon="7.57248">
        <ele>900.53989056803</ele>
        <time>2021-11-02T08:47:15Z</time>
      </trkpt>
      <trkpt lat="43.89537" lon="7.57248">
        <ele>899.53987743258</ele>
        <time>2021-11-02T08:47:16Z</time>
      </trkpt>
      <trkpt lat="43.89537" lon="7.57248">
        <ele>898.53983380794</ele>
        <time>2021-11-02T08:47:17Z</time>
      </trkpt>
      <trkpt lat="43.89538" lon="7.57248">
        <ele>898.53981311362</ele>
        <time>2021-11-02T08:47:18Z</time>
      </trkpt>
      <trkpt lat="43.89538" lon="7.57247">
        <ele>898.53977900452</ele>
        <time>2021-11-02T08:47:19Z</time>
      </trkpt>
      <trkpt lat="43.8954" lon="7.57247">
        <ele>898.5396833347</ele>
        <time>2021-11-02T08:47:21Z</time>
      </trkpt>
      <trkpt lat="43.89541" lon="7.57247">
        <ele>898.53963902464</ele>
        <time>2021-11-02T08:47:22Z</time>
      </trkpt>
      <trkpt lat="43.89542" lon="7.57247">
        <ele>899.53960287931</ele>
        <time>2021-11-02T08:47:23Z</time>
      </trkpt>
      <trkpt lat="43.89543" lon="7.57246">
        <ele>899.53952338935</ele>
        <time>2021-11-02T08:47:25Z</time>
      </trkpt>
      <trkpt lat="43.89544" lon="7.57246">
        <ele>899.53948719173</ele>
        <time>2021-11-02T08:47:26Z</time>
      </trkpt>
      <trkpt lat="43.89544" lon="7.57246">
        <ele>900.5394379339</ele>
        <time>2021-11-02T08:47:28Z</time>
      </trkpt>
      <trkpt lat="43.89546" lon="7.57246">
        <ele>900.53936645306</ele>
        <time>2021-11-02T08:47:30Z</time>
      </trkpt>
      <trkpt lat="43.89547" lon="7.57246">
        <ele>900.53930744547</ele>
        <time>2021-11-02T08:47:31Z</time>
      </trkpt>
      <trkpt lat="43.89548" lon="7.57246">
        <ele>901.53926540537</ele>
        <time>2021-11-02T08:47:32Z</time>
      </trkpt>
      <trkpt lat="43.89549" lon="7.57245">
        <ele>902.53922314494</ele>
        <time>2021-11-02T08:47:33Z</time>
      </trkpt>
      <trkpt lat="43.89549" lon="7.57245">
        <ele>902.53917376957</ele>
        <time>2021-11-02T08:47:34Z</time>
      </trkpt>
      <trkpt lat="43.8955" lon="7.57244">
        <ele>903.53910857137</ele>
        <time>2021-11-02T08:47:36Z</time>
      </trkpt>
      <trkpt lat="43.89551" lon="7.57243">
        <ele>903.53903843908</ele>
        <time>2021-11-02T08:47:37Z</time>
      </trkpt>
      <trkpt lat="43.89553" lon="7.57243">
        <ele>903.53896429405</ele>
        <time>2021-11-02T08:47:39Z</time>
      </trkpt>
      <trkpt lat="43.89555" lon="7.57241">
        <ele>903.53882892588</ele>
        <time>2021-11-02T08:47:41Z</time>
      </trkpt>
      <trkpt lat="43.89556" lon="7.5724">
        <ele>904.53872609459</ele>
        <time>2021-11-02T08:47:42Z</time>
      </trkpt>
      <trkpt lat="43.89558" lon="7.5724">
        <ele>905.53863364977</ele>
        <time>2021-11-02T08:47:45Z</time>
      </trkpt>
      <trkpt lat="43.89559" lon="7.5724">
        <ele>904.53858634214</ele>
        <time>2021-11-02T08:47:46Z</time>
      </trkpt>
      <trkpt lat="43.8956" lon="7.57239">
        <ele>904.53853735012</ele>
        <time>2021-11-02T08:47:47Z</time>
      </trkpt>
      <trkpt lat="43.89561" lon="7.57239">
        <ele>906.53846889915</ele>
        <time>2021-11-02T08:47:49Z</time>
      </trkpt>
      <trkpt lat="43.89562" lon="7.57237">
        <ele>905.53837164328</ele>
        <time>2021-11-02T08:47:51Z</time>
      </trkpt>
      <trkpt lat="43.89564" lon="7.57236">
        <ele>905.53827744744</ele>
        <time>2021-11-02T08:47:52Z</time>
      </trkpt>
      <trkpt lat="43.89565" lon="7.57237">
        <ele>905.53824067636</ele>
        <time>2021-11-02T08:47:53Z</time>
      </trkpt>
      <trkpt lat="43.89566" lon="7.57236">
        <ele>905.53819290321</ele>
        <time>2021-11-02T08:47:54Z</time>
      </trkpt>
      <trkpt lat="43.89566" lon="7.57237">
        <ele>904.53816307386</ele>
        <time>2021-11-02T08:47:55Z</time>
      </trkpt>
      <trkpt lat="43.89567" lon="7.57237">
        <ele>904.53811885162</ele>
        <time>2021-11-02T08:47:56Z</time>
      </trkpt>
      <trkpt lat="43.89568" lon="7.57237">
        <ele>904.53805640402</ele>
        <time>2021-11-02T08:47:57Z</time>
      </trkpt>
      <trkpt lat="43.89569" lon="7.57237">
        <ele>904.53800392698</ele>
        <time>2021-11-02T08:47:59Z</time>
      </trkpt>
      <trkpt lat="43.89572" lon="7.57236">
        <ele>904.53787681145</ele>
        <time>2021-11-02T08:48:01Z</time>
      </trkpt>
      <trkpt lat="43.89573" lon="7.57236">
        <ele>903.53779950177</ele>
        <time>2021-11-02T08:48:02Z</time>
      </trkpt>
      <trkpt lat="43.89574" lon="7.57236">
        <ele>903.53775067802</ele>
        <time>2021-11-02T08:48:03Z</time>
      </trkpt>
      <trkpt lat="43.89574" lon="7.57235">
        <ele>903.53771737944</ele>
        <time>2021-11-02T08:48:05Z</time>
      </trkpt>
      <trkpt lat="43.89575" lon="7.57234">
        <ele>904.53765435852</ele>
        <time>2021-11-02T08:48:06Z</time>
      </trkpt>
      <trkpt lat="43.89576" lon="7.57234">
        <ele>904.53760820736</ele>
        <time>2021-11-02T08:48:07Z</time>
      </trkpt>
      <trkpt lat="43.89577" lon="7.57234">
        <ele>903.53756265254</ele>
        <time>2021-11-02T08:48:08Z</time>
      </trkpt>
      <trkpt lat="43.89579" lon="7.57233">
        <ele>903.53745179519</ele>
        <time>2021-11-02T08:48:10Z</time>
      </trkpt>
      <trkpt lat="43.8958" lon="7.57233">
        <ele>903.53738773455</ele>
        <time>2021-11-02T08:48:11Z</time>
      </trkpt>
      <trkpt lat="43.89582" lon="7.57233">
        <ele>904.53730734316</ele>
        <time>2021-11-02T08:48:12Z</time>
      </trkpt>
      <trkpt lat="43.89583" lon="7.57233">
        <ele>904.53725172851</ele>
        <time>2021-11-02T08:48:13Z</time>
      </trkpt>
      <trkpt lat="43.89584" lon="7.57232">
        <ele>904.53717723542</ele>
        <time>2021-11-02T08:48:14Z</time>
      </trkpt>
      <trkpt lat="43.89585" lon="7.57232">
        <ele>904.53709661762</ele>
        <time>2021-11-02T08:48:16Z</time>
      </trkpt>
      <trkpt lat="43.89587" lon="7.57231">
        <ele>904.53698911052</ele>
        <time>2021-11-02T08:48:17Z</time>
      </trkpt>
      <trkpt lat="43.89588" lon="7.57232">
        <ele>904.53696076064</ele>
        <time>2021-11-02T08:48:18Z</time>
      </trkpt>
      <trkpt lat="43.89589" lon="7.57232">
        <ele>904.53691958135</ele>
        <time>2021-11-02T08:48:20Z</time>
      </trkpt>
      <trkpt lat="43.89591" lon="7.57233">
        <ele>904.5368219125</ele>
        <time>2021-11-02T08:48:21Z</time>
      </trkpt>
      <trkpt lat="43.89592" lon="7.57233">
        <ele>904.53676728412</ele>
        <time>2021-11-02T08:48:22Z</time>
      </trkpt>
      <trkpt lat="43.89593" lon="7.57232">
        <ele>904.53670717218</ele>
        <time>2021-11-02T08:48:23Z</time>
      </trkpt>
      <trkpt lat="43.89594" lon="7.57232">
        <ele>905.53664569665</ele>
        <time>2021-11-02T08:48:25Z</time>
      </trkpt>
      <trkpt lat="43.89596" lon="7.57233">
        <ele>906.53656536153</ele>
        <time>2021-11-02T08:48:26Z</time>
      </trkpt>
      <trkpt lat="43.89597" lon="7.57233">
        <ele>906.53651326654</ele>
        <time>2021-11-02T08:48:27Z</time>
      </trkpt>
      <trkpt lat="43.89598" lon="7.57234">
        <ele>906.5364624145</ele>
        <time>2021-11-02T08:48:29Z</time>
      </trkpt>
      <trkpt lat="43.89601" lon="7.57233">
        <ele>906.53632369815</ele>
        <time>2021-11-02T08:48:31Z</time>
      </trkpt>
      <trkpt lat="43.89603" lon="7.57232">
        <ele>906.5361964775</ele>
        <time>2021-11-02T08:48:32Z</time>
      </trkpt>
      <trkpt lat="43.89604" lon="7.57231">
        <ele>906.53613999824</ele>
        <time>2021-11-02T08:48:33Z</time>
      </trkpt>
      <trkpt lat="43.89605" lon="7.57231">
        <ele>906.53605055022</ele>
        <time>2021-11-02T08:48:35Z</time>
      </trkpt>
      <trkpt lat="43.89608" lon="7.57231">
        <ele>907.53590865426</ele>
        <time>2021-11-02T08:48:36Z</time>
      </trkpt>
      <trkpt lat="43.89609" lon="7.57231">
        <ele>907.53588222439</ele>
        <time>2021-11-02T08:48:39Z</time>
      </trkpt>
      <trkpt lat="43.89611" lon="7.57232">
        <ele>907.5357914248</ele>
        <time>2021-11-02T08:48:40Z</time>
      </trkpt>
      <trkpt lat="43.89612" lon="7.57232">
        <ele>906.53572215308</ele>
        <time>2021-11-02T08:48:41Z</time>
      </trkpt>
      <trkpt lat="43.89613" lon="7.57232">
        <ele>907.53565698559</ele>
        <time>2021-11-02T08:48:42Z</time>
      </trkpt>
      <trkpt lat="43.89614" lon="7.57231">
        <ele>907.53561601626</ele>
        <time>2021-11-02T08:48:46Z</time>
      </trkpt>
      <trkpt lat="43.89615" lon="7.57231">
        <ele>906.53554062699</ele>
        <time>2021-11-02T08:48:48Z</time>
      </trkpt>
      <trkpt lat="43.89616" lon="7.5723">
        <ele>907.53550199478</ele>
        <time>2021-11-02T08:48:51Z</time>
      </trkpt>
      <trkpt lat="43.89616" lon="7.5723">
        <ele>908.53548104033</ele>
        <time>2021-11-02T08:48:52Z</time>
      </trkpt>
      <trkpt lat="43.89617" lon="7.57231">
        <ele>908.53545247776</ele>
        <time>2021-11-02T08:48:53Z</time>
      </trkpt>
      <trkpt lat="43.89617" lon="7.57231">
        <ele>908.53541946905</ele>
        <time>2021-11-02T08:48:55Z</time>
      </trkpt>
      <trkpt lat="43.89619" lon="7.5723">
        <ele>908.53531640282</ele>
        <time>2021-11-02T08:48:56Z</time>
      </trkpt>
      <trkpt lat="43.8962" lon="7.5723">
        <ele>907.53528050104</ele>
        <time>2021-11-02T08:48:57Z</time>
      </trkpt>
      <trkpt lat="43.89621" lon="7.57229">
        <ele>907.53522920103</ele>
        <time>2021-11-02T08:48:58Z</time>
      </trkpt>
      <trkpt lat="43.89623" lon="7.5723">
        <ele>908.5351423203</ele>
        <time>2021-11-02T08:49:01Z</time>
      </trkpt>
      <trkpt lat="43.89624" lon="7.57232">
        <ele>909.53512285963</ele>
        <time>2021-11-02T08:49:02Z</time>
      </trkpt>
      <trkpt lat="43.89624" lon="7.57231">
        <ele>909.53508602836</ele>
        <time>2021-11-02T08:49:04Z</time>
      </trkpt>
      <trkpt lat="43.89624" lon="7.5723">
        <ele>910.53505554309</ele>
        <time>2021-11-02T08:49:09Z</time>
      </trkpt>
      <trkpt lat="43.89625" lon="7.57229">
        <ele>909.53498131795</ele>
        <time>2021-11-02T08:49:11Z</time>
      </trkpt>
      <trkpt lat="43.89625" lon="7.57229">
        <ele>909.53497645402</ele>
        <time>2021-11-02T08:49:12Z</time>
      </trkpt>
      <trkpt lat="43.89626" lon="7.57228">
        <ele>910.53492612184</ele>
        <time>2021-11-02T08:49:26Z</time>
      </trkpt>
      <trkpt lat="43.89627" lon="7.57229">
        <ele>912.5348873668</ele>
        <time>2021-11-02T08:49:28Z</time>
      </trkpt>
      <trkpt lat="43.89627" lon="7.57229">
        <ele>912.53487959195</ele>
        <time>2021-11-02T08:49:45Z</time>
      </trkpt>
      <trkpt lat="43.89628" lon="7.5723">
        <ele>912.53487066606</ele>
        <time>2021-11-02T08:49:46Z</time>
      </trkpt>
      <trkpt lat="43.89629" lon="7.57231">
        <ele>912.53483813919</ele>
        <time>2021-11-02T08:49:47Z</time>
      </trkpt>
      <trkpt lat="43.8963" lon="7.57231">
        <ele>912.53478709436</ele>
        <time>2021-11-02T08:49:48Z</time>
      </trkpt>
      <trkpt lat="43.89631" lon="7.57231">
        <ele>912.53472084704</ele>
        <time>2021-11-02T08:49:49Z</time>
      </trkpt>
      <trkpt lat="43.89632" lon="7.5723">
        <ele>912.53464375558</ele>
        <time>2021-11-02T08:49:50Z</time>
      </trkpt>
      <trkpt lat="43.89633" lon="7.57229">
        <ele>912.5345808252</ele>
        <time>2021-11-02T08:49:51Z</time>
      </trkpt>
      <trkpt lat="43.89634" lon="7.57229">
        <ele>912.53452597287</ele>
        <time>2021-11-02T08:49:52Z</time>
      </trkpt>
      <trkpt lat="43.89635" lon="7.57228">
        <ele>913.53447623155</ele>
        <time>2021-11-02T08:49:53Z</time>
      </trkpt>
      <trkpt lat="43.89636" lon="7.57228">
        <ele>913.53441922313</ele>
        <time>2021-11-02T08:49:54Z</time>
      </trkpt>
      <trkpt lat="43.89637" lon="7.57228">
        <ele>914.53436005545</ele>
        <time>2021-11-02T08:49:55Z</time>
      </trkpt>
      <trkpt lat="43.89638" lon="7.57228">
        <ele>914.53429596513</ele>
        <time>2021-11-02T08:49:56Z</time>
      </trkpt>
      <trkpt lat="43.8964" lon="7.57227">
        <ele>913.53421416814</ele>
        <time>2021-11-02T08:49:57Z</time>
      </trkpt>
      <trkpt lat="43.89641" lon="7.57226">
        <ele>914.53413714388</ele>
        <time>2021-11-02T08:49:58Z</time>
      </trkpt>
      <trkpt lat="43.89642" lon="7.57226">
        <ele>914.53408210195</ele>
        <time>2021-11-02T08:49:59Z</time>
      </trkpt>
      <trkpt lat="43.89643" lon="7.57226">
        <ele>914.53400359936</ele>
        <time>2021-11-02T08:50:01Z</time>
      </trkpt>
      <trkpt lat="43.89645" lon="7.57226">
        <ele>914.53389654236</ele>
        <time>2021-11-02T08:50:02Z</time>
      </trkpt>
      <trkpt lat="43.89647" lon="7.57225">
        <ele>914.53381344527</ele>
        <time>2021-11-02T08:50:03Z</time>
      </trkpt>
      <trkpt lat="43.89648" lon="7.57225">
        <ele>914.53374772828</ele>
        <time>2021-11-02T08:50:04Z</time>
      </trkpt>
      <trkpt lat="43.89649" lon="7.57222">
        <ele>913.533645242</ele>
        <time>2021-11-02T08:50:06Z</time>
      </trkpt>
      <trkpt lat="43.8965" lon="7.57221">
        <ele>913.53359694646</ele>
        <time>2021-11-02T08:50:07Z</time>
      </trkpt>
      <trkpt lat="43.8965" lon="7.5722">
        <ele>913.53354192383</ele>
        <time>2021-11-02T08:50:08Z</time>
      </trkpt>
      <trkpt lat="43.89651" lon="7.57219">
        <ele>913.53350057459</ele>
        <time>2021-11-02T08:50:09Z</time>
      </trkpt>
      <trkpt lat="43.89652" lon="7.57219">
        <ele>914.5334565255</ele>
        <time>2021-11-02T08:50:10Z</time>
      </trkpt>
      <trkpt lat="43.89654" lon="7.57218">
        <ele>914.53334035469</ele>
        <time>2021-11-02T08:50:12Z</time>
      </trkpt>
      <trkpt lat="43.89654" lon="7.57218">
        <ele>914.53330756649</ele>
        <time>2021-11-02T08:50:13Z</time>
      </trkpt>
      <trkpt lat="43.89655" lon="7.57217">
        <ele>914.53323591254</ele>
        <time>2021-11-02T08:50:14Z</time>
      </trkpt>
      <trkpt lat="43.89656" lon="7.57216">
        <ele>914.53318412564</ele>
        <time>2021-11-02T08:50:15Z</time>
      </trkpt>
      <trkpt lat="43.89657" lon="7.57216">
        <ele>915.53313255665</ele>
        <time>2021-11-02T08:50:16Z</time>
      </trkpt>
      <trkpt lat="43.89658" lon="7.57215">
        <ele>915.53308178754</ele>
        <time>2021-11-02T08:50:17Z</time>
      </trkpt>
      <trkpt lat="43.89659" lon="7.57214">
        <ele>915.53302819573</ele>
        <time>2021-11-02T08:50:18Z</time>
      </trkpt>
      <trkpt lat="43.89659" lon="7.57214">
        <ele>915.53298096561</ele>
        <time>2021-11-02T08:50:19Z</time>
      </trkpt>
      <trkpt lat="43.89661" lon="7.57212">
        <ele>916.53284799027</ele>
        <time>2021-11-02T08:50:21Z</time>
      </trkpt>
      <trkpt lat="43.89662" lon="7.57212">
        <ele>916.53280920264</ele>
        <time>2021-11-02T08:50:22Z</time>
      </trkpt>
      <trkpt lat="43.89663" lon="7.5721">
        <ele>917.53275548554</ele>
        <time>2021-11-02T08:50:23Z</time>
      </trkpt>
      <trkpt lat="43.89664" lon="7.57209">
        <ele>916.53264197447</ele>
        <time>2021-11-02T08:50:25Z</time>
      </trkpt>
      <trkpt lat="43.89666" lon="7.57208">
        <ele>916.53256116784</ele>
        <time>2021-11-02T08:50:26Z</time>
      </trkpt>
      <trkpt lat="43.89667" lon="7.57207">
        <ele>916.53249943183</ele>
        <time>2021-11-02T08:50:27Z</time>
      </trkpt>
      <trkpt lat="43.89668" lon="7.57207">
        <ele>916.5324418573</ele>
        <time>2021-11-02T08:50:29Z</time>
      </trkpt>
      <trkpt lat="43.8967" lon="7.57206">
        <ele>917.53232695202</ele>
        <time>2021-11-02T08:50:30Z</time>
      </trkpt>
      <trkpt lat="43.89671" lon="7.57205">
        <ele>917.53222199505</ele>
        <time>2021-11-02T08:50:32Z</time>
      </trkpt>
      <trkpt lat="43.89672" lon="7.57204">
        <ele>917.5321777549</ele>
        <time>2021-11-02T08:50:33Z</time>
      </trkpt>
      <trkpt lat="43.89673" lon="7.57204">
        <ele>917.53213634822</ele>
        <time>2021-11-02T08:50:34Z</time>
      </trkpt>
      <trkpt lat="43.89674" lon="7.57203">
        <ele>918.53207594276</ele>
        <time>2021-11-02T08:50:35Z</time>
      </trkpt>
      <trkpt lat="43.89674" lon="7.57203">
        <ele>918.53202599733</ele>
        <time>2021-11-02T08:50:36Z</time>
      </trkpt>
      <trkpt lat="43.89675" lon="7.57203">
        <ele>918.53198994537</ele>
        <time>2021-11-02T08:50:37Z</time>
      </trkpt>
      <trkpt lat="43.89676" lon="7.57202">
        <ele>918.53193086487</ele>
        <time>2021-11-02T08:50:38Z</time>
      </trkpt>
      <trkpt lat="43.89677" lon="7.57202">
        <ele>918.53188031998</ele>
        <time>2021-11-02T08:50:39Z</time>
      </trkpt>
      <trkpt lat="43.89678" lon="7.57201">
        <ele>918.53182352798</ele>
        <time>2021-11-02T08:50:40Z</time>
      </trkpt>
      <trkpt lat="43.89679" lon="7.57201">
        <ele>919.53177809983</ele>
        <time>2021-11-02T08:50:41Z</time>
      </trkpt>
      <trkpt lat="43.89679" lon="7.57201">
        <ele>919.53173409027</ele>
        <time>2021-11-02T08:50:42Z</time>
      </trkpt>
      <trkpt lat="43.89681" lon="7.572">
        <ele>918.53166158593</ele>
        <time>2021-11-02T08:50:43Z</time>
      </trkpt>
      <trkpt lat="43.89681" lon="7.572">
        <ele>918.53161940028</ele>
        <time>2021-11-02T08:50:44Z</time>
      </trkpt>
      <trkpt lat="43.89682" lon="7.57199">
        <ele>918.53157293089</ele>
        <time>2021-11-02T08:50:45Z</time>
      </trkpt>
      <trkpt lat="43.89683" lon="7.57198">
        <ele>919.53152420952</ele>
        <time>2021-11-02T08:50:46Z</time>
      </trkpt>
      <trkpt lat="43.89683" lon="7.57198">
        <ele>919.53148380931</ele>
        <time>2021-11-02T08:50:47Z</time>
      </trkpt>
      <trkpt lat="43.89684" lon="7.57197">
        <ele>919.53143458722</ele>
        <time>2021-11-02T08:50:48Z</time>
      </trkpt>
      <trkpt lat="43.89685" lon="7.57197">
        <ele>918.53138167557</ele>
        <time>2021-11-02T08:50:49Z</time>
      </trkpt>
      <trkpt lat="43.89686" lon="7.57195">
        <ele>918.53128638732</ele>
        <time>2021-11-02T08:50:51Z</time>
      </trkpt>
      <trkpt lat="43.89687" lon="7.57194">
        <ele>919.5312518842</ele>
        <time>2021-11-02T08:50:52Z</time>
      </trkpt>
      <trkpt lat="43.89687" lon="7.57193">
        <ele>919.53120776237</ele>
        <time>2021-11-02T08:50:53Z</time>
      </trkpt>
      <trkpt lat="43.89688" lon="7.57192">
        <ele>919.53115669824</ele>
        <time>2021-11-02T08:50:54Z</time>
      </trkpt>
      <trkpt lat="43.89688" lon="7.57192">
        <ele>919.53111701625</ele>
        <time>2021-11-02T08:50:55Z</time>
      </trkpt>
      <trkpt lat="43.8969" lon="7.5719">
        <ele>920.53100947674</ele>
        <time>2021-11-02T08:50:57Z</time>
      </trkpt>
      <trkpt lat="43.8969" lon="7.57189">
        <ele>921.53096630573</ele>
        <time>2021-11-02T08:50:58Z</time>
      </trkpt>
      <trkpt lat="43.89691" lon="7.57188">
        <ele>921.5309107524</ele>
        <time>2021-11-02T08:51:00Z</time>
      </trkpt>
      <trkpt lat="43.89694" lon="7.57187">
        <ele>920.53078199621</ele>
        <time>2021-11-02T08:51:01Z</time>
      </trkpt>
      <trkpt lat="43.89695" lon="7.57187">
        <ele>920.53071409259</ele>
        <time>2021-11-02T08:51:02Z</time>
      </trkpt>
      <trkpt lat="43.89696" lon="7.57187">
        <ele>919.53064748815</ele>
        <time>2021-11-02T08:51:03Z</time>
      </trkpt>
      <trkpt lat="43.89698" lon="7.57186">
        <ele>920.53055435077</ele>
        <time>2021-11-02T08:51:05Z</time>
      </trkpt>
      <trkpt lat="43.89698" lon="7.57186">
        <ele>920.53055435077</ele>
        <time>2021-11-02T08:51:06Z</time>
      </trkpt>
      <trkpt lat="43.897" lon="7.57184">
        <ele>919.53038698076</ele>
        <time>2021-11-02T08:51:07Z</time>
      </trkpt>
      <trkpt lat="43.89701" lon="7.57183">
        <ele>919.53033621331</ele>
        <time>2021-11-02T08:51:09Z</time>
      </trkpt>
      <trkpt lat="43.89702" lon="7.57183">
        <ele>919.53024134642</ele>
        <time>2021-11-02T08:51:10Z</time>
      </trkpt>
      <trkpt lat="43.89703" lon="7.57182">
        <ele>919.53018722578</ele>
        <time>2021-11-02T08:51:11Z</time>
      </trkpt>
      <trkpt lat="43.89704" lon="7.57181">
        <ele>919.53014917846</ele>
        <time>2021-11-02T08:51:12Z</time>
      </trkpt>
      <trkpt lat="43.89705" lon="7.57181">
        <ele>918.5300952845</ele>
        <time>2021-11-02T08:51:13Z</time>
      </trkpt>
      <trkpt lat="43.89706" lon="7.5718">
        <ele>918.53003707625</ele>
        <time>2021-11-02T08:51:15Z</time>
      </trkpt>
      <trkpt lat="43.89707" lon="7.57179">
        <ele>918.52993757434</ele>
        <time>2021-11-02T08:51:16Z</time>
      </trkpt>
      <trkpt lat="43.89708" lon="7.57178">
        <ele>918.52988892673</ele>
        <time>2021-11-02T08:51:17Z</time>
      </trkpt>
      <trkpt lat="43.89709" lon="7.57178">
        <ele>919.52982482901</ele>
        <time>2021-11-02T08:51:19Z</time>
      </trkpt>
      <trkpt lat="43.89711" lon="7.57177">
        <ele>919.5297203091</ele>
        <time>2021-11-02T08:51:21Z</time>
      </trkpt>
      <trkpt lat="43.89713" lon="7.57176">
        <ele>919.52958417451</ele>
        <time>2021-11-02T08:51:22Z</time>
      </trkpt>
      <trkpt lat="43.89714" lon="7.57176">
        <ele>919.52953135222</ele>
        <time>2021-11-02T08:51:23Z</time>
      </trkpt>
      <trkpt lat="43.89715" lon="7.57176">
        <ele>919.52948286374</ele>
        <time>2021-11-02T08:51:25Z</time>
      </trkpt>
      <trkpt lat="43.89716" lon="7.57176">
        <ele>918.52942521185</ele>
        <time>2021-11-02T08:51:26Z</time>
      </trkpt>
      <trkpt lat="43.89716" lon="7.57174">
        <ele>918.52939399495</ele>
        <time>2021-11-02T08:51:27Z</time>
      </trkpt>
      <trkpt lat="43.89716" lon="7.57174">
        <ele>918.52939399495</ele>
        <time>2021-11-02T08:51:28Z</time>
      </trkpt>
      <trkpt lat="43.89717" lon="7.57174">
        <ele>918.52933313896</ele>
        <time>2021-11-02T08:51:29Z</time>
      </trkpt>
      <trkpt lat="43.89719" lon="7.57174">
        <ele>919.52924505442</ele>
        <time>2021-11-02T08:51:31Z</time>
      </trkpt>
      <trkpt lat="43.8972" lon="7.57173">
        <ele>920.5291990226</ele>
        <time>2021-11-02T08:51:32Z</time>
      </trkpt>
      <trkpt lat="43.8972" lon="7.57173">
        <ele>920.52916157889</ele>
        <time>2021-11-02T08:51:33Z</time>
      </trkpt>
      <trkpt lat="43.89721" lon="7.57172">
        <ele>920.52911241838</ele>
        <time>2021-11-02T08:51:35Z</time>
      </trkpt>
      <trkpt lat="43.89723" lon="7.5717">
        <ele>921.52899784143</ele>
        <time>2021-11-02T08:51:36Z</time>
      </trkpt>
      <trkpt lat="43.89723" lon="7.57169">
        <ele>921.52893690146</ele>
        <time>2021-11-02T08:51:37Z</time>
      </trkpt>
      <trkpt lat="43.89724" lon="7.57168">
        <ele>921.52886834295</ele>
        <time>2021-11-02T08:51:39Z</time>
      </trkpt>
      <trkpt lat="43.89726" lon="7.57165">
        <ele>921.52873824661</ele>
        <time>2021-11-02T08:51:40Z</time>
      </trkpt>
      <trkpt lat="43.89727" lon="7.57164">
        <ele>920.52867530724</ele>
        <time>2021-11-02T08:51:41Z</time>
      </trkpt>
      <trkpt lat="43.89727" lon="7.57163">
        <ele>920.52863410386</ele>
        <time>2021-11-02T08:51:42Z</time>
      </trkpt>
      <trkpt lat="43.89728" lon="7.57162">
        <ele>919.52859372271</ele>
        <time>2021-11-02T08:51:43Z</time>
      </trkpt>
      <trkpt lat="43.89729" lon="7.57161">
        <ele>919.52852924468</ele>
        <time>2021-11-02T08:51:44Z</time>
      </trkpt>
      <trkpt lat="43.8973" lon="7.5716">
        <ele>919.52846611814</ele>
        <time>2021-11-02T08:51:45Z</time>
      </trkpt>
      <trkpt lat="43.8973" lon="7.57159">
        <ele>919.52842522241</ele>
        <time>2021-11-02T08:51:46Z</time>
      </trkpt>
      <trkpt lat="43.89731" lon="7.57158">
        <ele>919.52838075135</ele>
        <time>2021-11-02T08:51:47Z</time>
      </trkpt>
      <trkpt lat="43.89732" lon="7.57157">
        <ele>919.52832760234</ele>
        <time>2021-11-02T08:51:48Z</time>
      </trkpt>
      <trkpt lat="43.89732" lon="7.57156">
        <ele>919.52826734179</ele>
        <time>2021-11-02T08:51:49Z</time>
      </trkpt>
      <trkpt lat="43.89733" lon="7.57155">
        <ele>919.52821372421</ele>
        <time>2021-11-02T08:51:50Z</time>
      </trkpt>
      <trkpt lat="43.89734" lon="7.57153">
        <ele>919.52812610232</ele>
        <time>2021-11-02T08:51:52Z</time>
      </trkpt>
      <trkpt lat="43.89734" lon="7.57152">
        <ele>918.52808864224</ele>
        <time>2021-11-02T08:51:53Z</time>
      </trkpt>
      <trkpt lat="43.89735" lon="7.5715">
        <ele>918.52802511339</ele>
        <time>2021-11-02T08:51:55Z</time>
      </trkpt>
      <trkpt lat="43.89736" lon="7.57148">
        <ele>919.52793969085</ele>
        <time>2021-11-02T08:51:56Z</time>
      </trkpt>
      <trkpt lat="43.89737" lon="7.57147">
        <ele>918.52787794404</ele>
        <time>2021-11-02T08:51:57Z</time>
      </trkpt>
      <trkpt lat="43.89738" lon="7.57146">
        <ele>918.52780904258</ele>
        <time>2021-11-02T08:51:58Z</time>
      </trkpt>
      <trkpt lat="43.89739" lon="7.57145">
        <ele>917.52774829889</ele>
        <time>2021-11-02T08:51:59Z</time>
      </trkpt>
      <trkpt lat="43.8974" lon="7.57142">
        <ele>918.52764660674</ele>
        <time>2021-11-02T08:52:01Z</time>
      </trkpt>
      <trkpt lat="43.89741" lon="7.57141">
        <ele>918.52758431249</ele>
        <time>2021-11-02T08:52:02Z</time>
      </trkpt>
      <trkpt lat="43.89742" lon="7.57141">
        <ele>919.52754470582</ele>
        <time>2021-11-02T08:52:03Z</time>
      </trkpt>
      <trkpt lat="43.89742" lon="7.5714">
        <ele>919.52750528779</ele>
        <time>2021-11-02T08:52:04Z</time>
      </trkpt>
      <trkpt lat="43.89743" lon="7.57138">
        <ele>919.52742497544</ele>
        <time>2021-11-02T08:52:06Z</time>
      </trkpt>
      <trkpt lat="43.89743" lon="7.57137">
        <ele>920.52738638712</ele>
        <time>2021-11-02T08:52:07Z</time>
      </trkpt>
      <trkpt lat="43.89744" lon="7.57136">
        <ele>920.52734404974</ele>
        <time>2021-11-02T08:52:08Z</time>
      </trkpt>
      <trkpt lat="43.89745" lon="7.57135">
        <ele>920.52729739031</ele>
        <time>2021-11-02T08:52:09Z</time>
      </trkpt>
      <trkpt lat="43.89745" lon="7.57135">
        <ele>920.52725319907</ele>
        <time>2021-11-02T08:52:10Z</time>
      </trkpt>
      <trkpt lat="43.89746" lon="7.57132">
        <ele>920.52715402699</ele>
        <time>2021-11-02T08:52:12Z</time>
      </trkpt>
      <trkpt lat="43.89747" lon="7.57131">
        <ele>920.5271214443</ele>
        <time>2021-11-02T08:52:13Z</time>
      </trkpt>
      <trkpt lat="43.89747" lon="7.5713">
        <ele>921.52708177551</ele>
        <time>2021-11-02T08:52:14Z</time>
      </trkpt>
      <trkpt lat="43.89748" lon="7.5713">
        <ele>921.52702560117</ele>
        <time>2021-11-02T08:52:15Z</time>
      </trkpt>
      <trkpt lat="43.89748" lon="7.57128">
        <ele>921.5269753734</ele>
        <time>2021-11-02T08:52:17Z</time>
      </trkpt>
      <trkpt lat="43.89749" lon="7.57127">
        <ele>921.52694612829</ele>
        <time>2021-11-02T08:52:18Z</time>
      </trkpt>
      <trkpt lat="43.89749" lon="7.57126">
        <ele>921.52693891192</ele>
        <time>2021-11-02T08:52:20Z</time>
      </trkpt>
      <trkpt lat="43.89749" lon="7.57125">
        <ele>922.52692769779</ele>
        <time>2021-11-02T08:52:21Z</time>
      </trkpt>
      <trkpt lat="43.89749" lon="7.57123">
        <ele>923.52685200591</ele>
        <time>2021-11-02T08:52:22Z</time>
      </trkpt>
      <trkpt lat="43.8975" lon="7.57122">
        <ele>923.52680590808</ele>
        <time>2021-11-02T08:52:24Z</time>
      </trkpt>
      <trkpt lat="43.89752" lon="7.57121">
        <ele>924.52668208885</ele>
        <time>2021-11-02T08:52:26Z</time>
      </trkpt>
      <trkpt lat="43.89753" lon="7.5712">
        <ele>924.52659448601</ele>
        <time>2021-11-02T08:52:27Z</time>
      </trkpt>
      <trkpt lat="43.89754" lon="7.5712">
        <ele>924.52653314683</ele>
        <time>2021-11-02T08:52:28Z</time>
      </trkpt>
      <trkpt lat="43.89755" lon="7.5712">
        <ele>924.5265093437</ele>
        <time>2021-11-02T08:52:31Z</time>
      </trkpt>
      <trkpt lat="43.89755" lon="7.57121">
        <ele>921.5265229272</ele>
        <time>2021-11-02T08:52:44Z</time>
      </trkpt>
      <trkpt lat="43.89754" lon="7.57123">
        <ele>921.52659517212</ele>
        <time>2021-11-02T08:52:46Z</time>
      </trkpt>
      <trkpt lat="43.89755" lon="7.57122">
        <ele>921.52656067518</ele>
        <time>2021-11-02T08:52:47Z</time>
      </trkpt>
      <trkpt lat="43.89755" lon="7.57122">
        <ele>921.52652490864</ele>
        <time>2021-11-02T08:52:58Z</time>
      </trkpt>
      <trkpt lat="43.89757" lon="7.5712">
        <ele>922.52643850492</ele>
        <time>2021-11-02T08:52:59Z</time>
      </trkpt>
      <trkpt lat="43.89757" lon="7.5712">
        <ele>923.52639312374</ele>
        <time>2021-11-02T08:53:00Z</time>
      </trkpt>
      <trkpt lat="43.89758" lon="7.5712">
        <ele>923.52635090266</ele>
        <time>2021-11-02T08:53:01Z</time>
      </trkpt>
      <trkpt lat="43.89759" lon="7.57119">
        <ele>925.52629785955</ele>
        <time>2021-11-02T08:53:02Z</time>
      </trkpt>
      <trkpt lat="43.89759" lon="7.57117">
        <ele>925.52624251198</ele>
        <time>2021-11-02T08:53:04Z</time>
      </trkpt>
      <trkpt lat="43.89759" lon="7.57117">
        <ele>925.52624251198</ele>
        <time>2021-11-02T08:53:05Z</time>
      </trkpt>
      <trkpt lat="43.89761" lon="7.57114">
        <ele>926.5261134969</ele>
        <time>2021-11-02T08:53:06Z</time>
      </trkpt>
      <trkpt lat="43.89761" lon="7.57113">
        <ele>925.52607360965</ele>
        <time>2021-11-02T08:53:07Z</time>
      </trkpt>
      <trkpt lat="43.89761" lon="7.57112">
        <ele>926.5260641258</ele>
        <time>2021-11-02T08:53:08Z</time>
      </trkpt>
      <trkpt lat="43.89761" lon="7.57112">
        <ele>925.52605659547</ele>
        <time>2021-11-02T08:53:10Z</time>
      </trkpt>
      <trkpt lat="43.89762" lon="7.57111">
        <ele>925.52599475424</ele>
        <time>2021-11-02T08:53:11Z</time>
      </trkpt>
      <trkpt lat="43.89763" lon="7.57111">
        <ele>925.5259643321</ele>
        <time>2021-11-02T08:53:12Z</time>
      </trkpt>
      <trkpt lat="43.89763" lon="7.5711">
        <ele>926.52593527419</ele>
        <time>2021-11-02T08:53:15Z</time>
      </trkpt>
      <trkpt lat="43.89765" lon="7.57108">
        <ele>926.52580530473</ele>
        <time>2021-11-02T08:53:17Z</time>
      </trkpt>
      <trkpt lat="43.89765" lon="7.57107">
        <ele>927.52578057398</ele>
        <time>2021-11-02T08:53:18Z</time>
      </trkpt>
      <trkpt lat="43.89766" lon="7.57106">
        <ele>927.52574295077</ele>
        <time>2021-11-02T08:53:20Z</time>
      </trkpt>
      <trkpt lat="43.89767" lon="7.57105">
        <ele>927.52563809387</ele>
        <time>2021-11-02T08:53:21Z</time>
      </trkpt>
      <trkpt lat="43.89768" lon="7.57104">
        <ele>927.52558935295</ele>
        <time>2021-11-02T08:53:22Z</time>
      </trkpt>
      <trkpt lat="43.89768" lon="7.57104">
        <ele>927.52556407777</ele>
        <time>2021-11-02T08:53:23Z</time>
      </trkpt>
      <trkpt lat="43.89769" lon="7.57103">
        <ele>926.52551725224</ele>
        <time>2021-11-02T08:53:24Z</time>
      </trkpt>
      <trkpt lat="43.8977" lon="7.57103">
        <ele>926.52546640668</ele>
        <time>2021-11-02T08:53:26Z</time>
      </trkpt>
      <trkpt lat="43.89771" lon="7.57101">
        <ele>925.52539204422</ele>
        <time>2021-11-02T08:53:27Z</time>
      </trkpt>
      <trkpt lat="43.89773" lon="7.57099">
        <ele>924.52524660837</ele>
        <time>2021-11-02T08:53:28Z</time>
      </trkpt>
      <trkpt lat="43.89774" lon="7.57098">
        <ele>925.52516713013</ele>
        <time>2021-11-02T08:53:30Z</time>
      </trkpt>
      <trkpt lat="43.89775" lon="7.57097">
        <ele>924.52509215889</ele>
        <time>2021-11-02T08:53:31Z</time>
      </trkpt>
      <trkpt lat="43.89776" lon="7.57096">
        <ele>924.52504657313</ele>
        <time>2021-11-02T08:53:32Z</time>
      </trkpt>
      <trkpt lat="43.89777" lon="7.57095">
        <ele>925.52499159619</ele>
        <time>2021-11-02T08:53:34Z</time>
      </trkpt>
      <trkpt lat="43.89777" lon="7.57095">
        <ele>925.52499159619</ele>
        <time>2021-11-02T08:53:36Z</time>
      </trkpt>
      <trkpt lat="43.89779" lon="7.57093">
        <ele>923.52481725213</ele>
        <time>2021-11-02T08:53:37Z</time>
      </trkpt>
      <trkpt lat="43.8978" lon="7.57092">
        <ele>924.5247776861</ele>
        <time>2021-11-02T08:53:38Z</time>
      </trkpt>
      <trkpt lat="43.89781" lon="7.57092">
        <ele>924.52473551589</ele>
        <time>2021-11-02T08:53:40Z</time>
      </trkpt>
      <trkpt lat="43.89782" lon="7.5709">
        <ele>923.52462557813</ele>
        <time>2021-11-02T08:53:41Z</time>
      </trkpt>
      <trkpt lat="43.89782" lon="7.5709">
        <ele>923.52462557813</ele>
        <time>2021-11-02T08:53:42Z</time>
      </trkpt>
      <trkpt lat="43.89784" lon="7.57089">
        <ele>923.52452337641</ele>
        <time>2021-11-02T08:53:43Z</time>
      </trkpt>
      <trkpt lat="43.89785" lon="7.57088">
        <ele>923.52442235178</ele>
        <time>2021-11-02T08:53:45Z</time>
      </trkpt>
      <trkpt lat="43.89786" lon="7.57087">
        <ele>923.52435368868</ele>
        <time>2021-11-02T08:53:46Z</time>
      </trkpt>
      <trkpt lat="43.89787" lon="7.57086">
        <ele>924.52430412071</ele>
        <time>2021-11-02T08:53:47Z</time>
      </trkpt>
      <trkpt lat="43.89788" lon="7.57085">
        <ele>924.52426626941</ele>
        <time>2021-11-02T08:53:48Z</time>
      </trkpt>
      <trkpt lat="43.89789" lon="7.57085">
        <ele>924.52419149336</ele>
        <time>2021-11-02T08:53:50Z</time>
      </trkpt>
      <trkpt lat="43.8979" lon="7.57084">
        <ele>924.52412884546</ele>
        <time>2021-11-02T08:53:52Z</time>
      </trkpt>
      <trkpt lat="43.8979" lon="7.57084">
        <ele>924.52412884546</ele>
        <time>2021-11-02T08:53:53Z</time>
      </trkpt>
      <trkpt lat="43.89792" lon="7.57082">
        <ele>924.52400561089</ele>
        <time>2021-11-02T08:53:54Z</time>
      </trkpt>
      <trkpt lat="43.89792" lon="7.57081">
        <ele>924.52397285309</ele>
        <time>2021-11-02T08:53:55Z</time>
      </trkpt>
      <trkpt lat="43.89792" lon="7.57081">
        <ele>925.52395490022</ele>
        <time>2021-11-02T08:53:56Z</time>
      </trkpt>
      <trkpt lat="43.89793" lon="7.5708">
        <ele>926.52392226119</ele>
        <time>2021-11-02T08:53:59Z</time>
      </trkpt>
      <trkpt lat="43.89794" lon="7.5708">
        <ele>926.52385522432</ele>
        <time>2021-11-02T08:54:01Z</time>
      </trkpt>
      <trkpt lat="43.89796" lon="7.5708">
        <ele>926.52374764937</ele>
        <time>2021-11-02T08:54:02Z</time>
      </trkpt>
      <trkpt lat="43.89797" lon="7.57079">
        <ele>925.5236769389</ele>
        <time>2021-11-02T08:54:03Z</time>
      </trkpt>
      <trkpt lat="43.89798" lon="7.57079">
        <ele>925.5236024995</ele>
        <time>2021-11-02T08:54:04Z</time>
      </trkpt>
      <trkpt lat="43.89799" lon="7.57078">
        <ele>925.52355569228</ele>
        <time>2021-11-02T08:54:05Z</time>
      </trkpt>
      <trkpt lat="43.898" lon="7.57077">
        <ele>924.52351193396</ele>
        <time>2021-11-02T08:54:06Z</time>
      </trkpt>
      <trkpt lat="43.898" lon="7.57077">
        <ele>925.52347267668</ele>
        <time>2021-11-02T08:54:07Z</time>
      </trkpt>
      <trkpt lat="43.89801" lon="7.57076">
        <ele>926.5234219448</ele>
        <time>2021-11-02T08:54:08Z</time>
      </trkpt>
      <trkpt lat="43.89802" lon="7.57075">
        <ele>926.52337172335</ele>
        <time>2021-11-02T08:54:09Z</time>
      </trkpt>
      <trkpt lat="43.89802" lon="7.57074">
        <ele>925.52333458018</ele>
        <time>2021-11-02T08:54:11Z</time>
      </trkpt>
      <trkpt lat="43.89804" lon="7.57073">
        <ele>925.52323007564</ele>
        <time>2021-11-02T08:54:12Z</time>
      </trkpt>
      <trkpt lat="43.89805" lon="7.57072">
        <ele>925.52318320404</ele>
        <time>2021-11-02T08:54:13Z</time>
      </trkpt>
      <trkpt lat="43.89806" lon="7.57071">
        <ele>926.52310421271</ele>
        <time>2021-11-02T08:54:14Z</time>
      </trkpt>
      <trkpt lat="43.89807" lon="7.57071">
        <ele>926.52302858383</ele>
        <time>2021-11-02T08:54:16Z</time>
      </trkpt>
      <trkpt lat="43.89809" lon="7.57069">
        <ele>926.52292063741</ele>
        <time>2021-11-02T08:54:17Z</time>
      </trkpt>
      <trkpt lat="43.8981" lon="7.57068">
        <ele>925.52285772676</ele>
        <time>2021-11-02T08:54:18Z</time>
      </trkpt>
      <trkpt lat="43.89811" lon="7.57068">
        <ele>925.52278281304</ele>
        <time>2021-11-02T08:54:20Z</time>
      </trkpt>
      <trkpt lat="43.89813" lon="7.57067">
        <ele>925.52265286743</ele>
        <time>2021-11-02T08:54:21Z</time>
      </trkpt>
      <trkpt lat="43.89814" lon="7.57066">
        <ele>924.52260628545</ele>
        <time>2021-11-02T08:54:22Z</time>
      </trkpt>
      <trkpt lat="43.89814" lon="7.57065">
        <ele>924.52255619643</ele>
        <time>2021-11-02T08:54:23Z</time>
      </trkpt>
      <trkpt lat="43.89815" lon="7.57064">
        <ele>924.52250716185</ele>
        <time>2021-11-02T08:54:25Z</time>
      </trkpt>
      <trkpt lat="43.89816" lon="7.57062">
        <ele>925.52244113984</ele>
        <time>2021-11-02T08:54:26Z</time>
      </trkpt>
      <trkpt lat="43.89817" lon="7.57062">
        <ele>925.52238754945</ele>
        <time>2021-11-02T08:54:27Z</time>
      </trkpt>
      <trkpt lat="43.89817" lon="7.57061">
        <ele>925.52235480087</ele>
        <time>2021-11-02T08:54:29Z</time>
      </trkpt>
      <trkpt lat="43.89818" lon="7.5706">
        <ele>925.52228056003</ele>
        <time>2021-11-02T08:54:31Z</time>
      </trkpt>
      <trkpt lat="43.89819" lon="7.57058">
        <ele>927.52219963651</ele>
        <time>2021-11-02T08:54:32Z</time>
      </trkpt>
      <trkpt lat="43.89819" lon="7.57057">
        <ele>927.52219190865</ele>
        <time>2021-11-02T08:54:33Z</time>
      </trkpt>
      <trkpt lat="43.89819" lon="7.57056">
        <ele>928.52219890784</ele>
        <time>2021-11-02T08:54:35Z</time>
      </trkpt>
      <trkpt lat="43.89819" lon="7.57055">
        <ele>929.52219133284</ele>
        <time>2021-11-02T08:54:37Z</time>
      </trkpt>
      <trkpt lat="43.89819" lon="7.57053">
        <ele>931.52215035417</ele>
        <time>2021-11-02T08:54:39Z</time>
      </trkpt>
      <trkpt lat="43.8982" lon="7.57053">
        <ele>931.52209462292</ele>
        <time>2021-11-02T08:54:41Z</time>
      </trkpt>
      <trkpt lat="43.89819" lon="7.57054">
        <ele>930.5221368545</ele>
        <time>2021-11-02T08:54:42Z</time>
      </trkpt>
      <trkpt lat="43.8982" lon="7.57054">
        <ele>931.52210911134</ele>
        <time>2021-11-02T08:54:44Z</time>
      </trkpt>
      <trkpt lat="43.89821" lon="7.57052">
        <ele>931.52202625246</ele>
        <time>2021-11-02T08:54:46Z</time>
      </trkpt>
      <trkpt lat="43.89821" lon="7.57051">
        <ele>931.52196909463</ele>
        <time>2021-11-02T08:54:47Z</time>
      </trkpt>
      <trkpt lat="43.89822" lon="7.5705">
        <ele>931.52191492458</ele>
        <time>2021-11-02T08:54:48Z</time>
      </trkpt>
      <trkpt lat="43.89822" lon="7.5705">
        <ele>929.5219377606</ele>
        <time>2021-11-02T08:55:10Z</time>
      </trkpt>
      <trkpt lat="43.89822" lon="7.57052">
        <ele>927.52196252195</ele>
        <time>2021-11-02T08:55:11Z</time>
      </trkpt>
      <trkpt lat="43.89822" lon="7.57053">
        <ele>929.52199016861</ele>
        <time>2021-11-02T08:55:23Z</time>
      </trkpt>
      <trkpt lat="43.89822" lon="7.57052">
        <ele>930.52196158382</ele>
        <time>2021-11-02T08:55:31Z</time>
      </trkpt>
      <trkpt lat="43.89822" lon="7.57051">
        <ele>931.52194017656</ele>
        <time>2021-11-02T08:55:35Z</time>
      </trkpt>
      <trkpt lat="43.89822" lon="7.5705">
        <ele>931.52190170214</ele>
        <time>2021-11-02T08:55:36Z</time>
      </trkpt>
      <trkpt lat="43.89823" lon="7.57049">
        <ele>931.52184497246</ele>
        <time>2021-11-02T08:55:37Z</time>
      </trkpt>
      <trkpt lat="43.89823" lon="7.57049">
        <ele>931.5218481757</ele>
        <time>2021-11-02T08:55:40Z</time>
      </trkpt>
      <trkpt lat="43.89823" lon="7.57051">
        <ele>931.52191227558</ele>
        <time>2021-11-02T08:55:41Z</time>
      </trkpt>
      <trkpt lat="43.89822" lon="7.57051">
        <ele>929.52192812672</ele>
        <time>2021-11-02T08:55:47Z</time>
      </trkpt>
      <trkpt lat="43.89822" lon="7.57052">
        <ele>929.52195774749</ele>
        <time>2021-11-02T08:55:48Z</time>
      </trkpt>
      <trkpt lat="43.89821" lon="7.57052">
        <ele>928.52199832147</ele>
        <time>2021-11-02T08:55:50Z</time>
      </trkpt>
      <trkpt lat="43.89821" lon="7.57054">
        <ele>927.52203187073</ele>
        <time>2021-11-02T08:55:51Z</time>
      </trkpt>
      <trkpt lat="43.89821" lon="7.57054">
        <ele>927.52205058472</ele>
        <time>2021-11-02T08:55:54Z</time>
      </trkpt>
      <trkpt lat="43.89818" lon="7.57054">
        <ele>926.52217831324</ele>
        <time>2021-11-02T08:55:56Z</time>
      </trkpt>
      <trkpt lat="43.89817" lon="7.57054">
        <ele>925.52224151687</ele>
        <time>2021-11-02T08:55:57Z</time>
      </trkpt>
      <trkpt lat="43.89816" lon="7.57054">
        <ele>925.52232533103</ele>
        <time>2021-11-02T08:55:58Z</time>
      </trkpt>
      <trkpt lat="43.89815" lon="7.57054">
        <ele>925.52237377049</ele>
        <time>2021-11-02T08:56:00Z</time>
      </trkpt>
      <trkpt lat="43.89813" lon="7.57054">
        <ele>925.52243552504</ele>
        <time>2021-11-02T08:56:01Z</time>
      </trkpt>
      <trkpt lat="43.89813" lon="7.57053">
        <ele>925.52243707314</ele>
        <time>2021-11-02T08:56:02Z</time>
      </trkpt>
      <trkpt lat="43.89812" lon="7.57053">
        <ele>926.52246681888</ele>
        <time>2021-11-02T08:56:05Z</time>
      </trkpt>
      <trkpt lat="43.89811" lon="7.57054">
        <ele>928.52253837174</ele>
        <time>2021-11-02T08:56:06Z</time>
      </trkpt>
      <trkpt lat="43.89811" lon="7.57054">
        <ele>929.52256742402</ele>
        <time>2021-11-02T08:56:07Z</time>
      </trkpt>
      <trkpt lat="43.8981" lon="7.57054">
        <ele>929.52260472414</ele>
        <time>2021-11-02T08:56:08Z</time>
      </trkpt>
      <trkpt lat="43.8981" lon="7.57055">
        <ele>930.52264034089</ele>
        <time>2021-11-02T08:56:10Z</time>
      </trkpt>
      <trkpt lat="43.89808" lon="7.57055">
        <ele>929.52273202594</ele>
        <time>2021-11-02T08:56:11Z</time>
      </trkpt>
      <trkpt lat="43.89807" lon="7.57055">
        <ele>929.52275434231</ele>
        <time>2021-11-02T08:56:12Z</time>
      </trkpt>
      <trkpt lat="43.89807" lon="7.57055">
        <ele>929.52278304205</ele>
        <time>2021-11-02T08:56:14Z</time>
      </trkpt>
      <trkpt lat="43.89805" lon="7.57056">
        <ele>929.52289882865</ele>
        <time>2021-11-02T08:56:15Z</time>
      </trkpt>
      <trkpt lat="43.89804" lon="7.57057">
        <ele>929.52296165006</ele>
        <time>2021-11-02T08:56:16Z</time>
      </trkpt>
      <trkpt lat="43.89803" lon="7.57058">
        <ele>930.52300270533</ele>
        <time>2021-11-02T08:56:17Z</time>
      </trkpt>
      <trkpt lat="43.89803" lon="7.57057">
        <ele>929.52302875549</ele>
        <time>2021-11-02T08:56:20Z</time>
      </trkpt>
      <trkpt lat="43.89801" lon="7.57059">
        <ele>928.52313871555</ele>
        <time>2021-11-02T08:56:21Z</time>
      </trkpt>
      <trkpt lat="43.89801" lon="7.5706">
        <ele>929.52318452118</ele>
        <time>2021-11-02T08:56:22Z</time>
      </trkpt>
      <trkpt lat="43.898" lon="7.5706">
        <ele>929.52321076782</ele>
        <time>2021-11-02T08:56:23Z</time>
      </trkpt>
      <trkpt lat="43.898" lon="7.5706">
        <ele>928.52324895594</ele>
        <time>2021-11-02T08:56:24Z</time>
      </trkpt>
      <trkpt lat="43.89799" lon="7.57061">
        <ele>929.52328636253</ele>
        <time>2021-11-02T08:56:25Z</time>
      </trkpt>
      <trkpt lat="43.89798" lon="7.57061">
        <ele>929.52333319063</ele>
        <time>2021-11-02T08:56:26Z</time>
      </trkpt>
      <trkpt lat="43.89797" lon="7.57062">
        <ele>930.52339327101</ele>
        <time>2021-11-02T08:56:27Z</time>
      </trkpt>
      <trkpt lat="43.89796" lon="7.57062">
        <ele>930.52345650024</ele>
        <time>2021-11-02T08:56:28Z</time>
      </trkpt>
      <trkpt lat="43.89795" lon="7.57063">
        <ele>931.5235048176</ele>
        <time>2021-11-02T08:56:30Z</time>
      </trkpt>
      <trkpt lat="43.89794" lon="7.57065">
        <ele>931.5236038266</ele>
        <time>2021-11-02T08:56:31Z</time>
      </trkpt>
      <trkpt lat="43.89794" lon="7.57065">
        <ele>931.5236038266</ele>
        <time>2021-11-02T08:56:34Z</time>
      </trkpt>
      <trkpt lat="43.89791" lon="7.57066">
        <ele>932.52377375226</ele>
        <time>2021-11-02T08:56:36Z</time>
      </trkpt>
      <trkpt lat="43.89791" lon="7.57066">
        <ele>932.52380033814</ele>
        <time>2021-11-02T08:56:36Z</time>
      </trkpt>
      <trkpt lat="43.8979" lon="7.57066">
        <ele>932.52385505883</ele>
        <time>2021-11-02T08:56:37Z</time>
      </trkpt>
      <trkpt lat="43.8979" lon="7.57066">
        <ele>932.52385505883</ele>
        <time>2021-11-02T08:56:39Z</time>
      </trkpt>
      <trkpt lat="43.89787" lon="7.57069">
        <ele>931.52401828292</ele>
        <time>2021-11-02T08:56:40Z</time>
      </trkpt>
      <trkpt lat="43.89786" lon="7.5707">
        <ele>931.52408134523</ele>
        <time>2021-11-02T08:56:41Z</time>
      </trkpt>
      <trkpt lat="43.89786" lon="7.57071">
        <ele>931.52413792353</ele>
        <time>2021-11-02T08:56:42Z</time>
      </trkpt>
      <trkpt lat="43.89785" lon="7.57073">
        <ele>931.5242255153</ele>
        <time>2021-11-02T08:56:43Z</time>
      </trkpt>
      <trkpt lat="43.89783" lon="7.57074">
        <ele>931.52433572318</ele>
        <time>2021-11-02T08:56:45Z</time>
      </trkpt>
      <trkpt lat="43.89779" lon="7.57076">
        <ele>931.52455281397</ele>
        <time>2021-11-02T08:56:46Z</time>
      </trkpt>
      <trkpt lat="43.89778" lon="7.57076">
        <ele>932.52458642596</ele>
        <time>2021-11-02T08:56:47Z</time>
      </trkpt>
      <trkpt lat="43.89777" lon="7.57076">
        <ele>932.52465482098</ele>
        <time>2021-11-02T08:56:48Z</time>
      </trkpt>
      <trkpt lat="43.89775" lon="7.57078">
        <ele>932.52476952781</ele>
        <time>2021-11-02T08:56:49Z</time>
      </trkpt>
      <trkpt lat="43.89775" lon="7.57079">
        <ele>932.52483424659</ele>
        <time>2021-11-02T08:56:50Z</time>
      </trkpt>
      <trkpt lat="43.89774" lon="7.57079">
        <ele>932.52487616588</ele>
        <time>2021-11-02T08:56:51Z</time>
      </trkpt>
      <trkpt lat="43.89773" lon="7.5708">
        <ele>933.52494022264</ele>
        <time>2021-11-02T08:56:52Z</time>
      </trkpt>
      <trkpt lat="43.89772" lon="7.57081">
        <ele>934.52500826091</ele>
        <time>2021-11-02T08:56:53Z</time>
      </trkpt>
      <trkpt lat="43.8977" lon="7.57082">
        <ele>933.52511907165</ele>
        <time>2021-11-02T08:56:54Z</time>
      </trkpt>
      <trkpt lat="43.89768" lon="7.57084">
        <ele>933.52526805585</ele>
        <time>2021-11-02T08:56:56Z</time>
      </trkpt>
      <trkpt lat="43.89766" lon="7.57084">
        <ele>933.52533339559</ele>
        <time>2021-11-02T08:56:57Z</time>
      </trkpt>
      <trkpt lat="43.89765" lon="7.57084">
        <ele>934.52541979726</ele>
        <time>2021-11-02T08:56:58Z</time>
      </trkpt>
      <trkpt lat="43.89764" lon="7.57085">
        <ele>934.52547884593</ele>
        <time>2021-11-02T08:56:59Z</time>
      </trkpt>
      <trkpt lat="43.89763" lon="7.57086">
        <ele>934.52553998928</ele>
        <time>2021-11-02T08:57:00Z</time>
      </trkpt>
      <trkpt lat="43.89762" lon="7.57087">
        <ele>934.52560449999</ele>
        <time>2021-11-02T08:57:01Z</time>
      </trkpt>
      <trkpt lat="43.89761" lon="7.57088">
        <ele>934.52568136024</ele>
        <time>2021-11-02T08:57:02Z</time>
      </trkpt>
      <trkpt lat="43.8976" lon="7.57088">
        <ele>935.52575359219</ele>
        <time>2021-11-02T08:57:03Z</time>
      </trkpt>
      <trkpt lat="43.89759" lon="7.57089">
        <ele>935.52581552468</ele>
        <time>2021-11-02T08:57:05Z</time>
      </trkpt>
      <trkpt lat="43.89757" lon="7.5709">
        <ele>935.5258948435</ele>
        <time>2021-11-02T08:57:06Z</time>
      </trkpt>
      <trkpt lat="43.89757" lon="7.5709">
        <ele>935.52592156805</ele>
        <time>2021-11-02T08:57:07Z</time>
      </trkpt>
      <trkpt lat="43.89756" lon="7.57091">
        <ele>936.52597240726</ele>
        <time>2021-11-02T08:57:08Z</time>
      </trkpt>
      <trkpt lat="43.89755" lon="7.57091">
        <ele>936.52601886084</ele>
        <time>2021-11-02T08:57:09Z</time>
      </trkpt>
      <trkpt lat="43.89754" lon="7.57091">
        <ele>936.52607538467</ele>
        <time>2021-11-02T08:57:11Z</time>
      </trkpt>
      <trkpt lat="43.89752" lon="7.57093">
        <ele>936.52621628388</ele>
        <time>2021-11-02T08:57:12Z</time>
      </trkpt>
      <trkpt lat="43.8975" lon="7.57094">
        <ele>937.52632188512</ele>
        <time>2021-11-02T08:57:13Z</time>
      </trkpt>
      <trkpt lat="43.89748" lon="7.57094">
        <ele>937.52645499458</ele>
        <time>2021-11-02T08:57:15Z</time>
      </trkpt>
      <trkpt lat="43.89747" lon="7.57094">
        <ele>938.52651397866</ele>
        <time>2021-11-02T08:57:16Z</time>
      </trkpt>
      <trkpt lat="43.89746" lon="7.57094">
        <ele>938.52655288347</ele>
        <time>2021-11-02T08:57:17Z</time>
      </trkpt>
      <trkpt lat="43.89745" lon="7.57094">
        <ele>938.52659482698</ele>
        <time>2021-11-02T08:57:18Z</time>
      </trkpt>
      <trkpt lat="43.89744" lon="7.57095">
        <ele>938.52666720732</ele>
        <time>2021-11-02T08:57:19Z</time>
      </trkpt>
      <trkpt lat="43.89743" lon="7.57096">
        <ele>938.5267186766</ele>
        <time>2021-11-02T08:57:20Z</time>
      </trkpt>
      <trkpt lat="43.89742" lon="7.57096">
        <ele>938.5267732422</ele>
        <time>2021-11-02T08:57:21Z</time>
      </trkpt>
      <trkpt lat="43.89741" lon="7.57096">
        <ele>938.52685021683</ele>
        <time>2021-11-02T08:57:22Z</time>
      </trkpt>
      <trkpt lat="43.8974" lon="7.57096">
        <ele>938.52688633815</ele>
        <time>2021-11-02T08:57:23Z</time>
      </trkpt>
      <trkpt lat="43.8974" lon="7.57096">
        <ele>938.52691295132</ele>
        <time>2021-11-02T08:57:24Z</time>
      </trkpt>
      <trkpt lat="43.89739" lon="7.57096">
        <ele>938.52694742176</ele>
        <time>2021-11-02T08:57:25Z</time>
      </trkpt>
      <trkpt lat="43.89738" lon="7.57096">
        <ele>938.52698859315</ele>
        <time>2021-11-02T08:57:26Z</time>
      </trkpt>
      <trkpt lat="43.89737" lon="7.57097">
        <ele>939.52707005963</ele>
        <time>2021-11-02T08:57:27Z</time>
      </trkpt>
      <trkpt lat="43.89736" lon="7.57097">
        <ele>939.52713741125</ele>
        <time>2021-11-02T08:57:28Z</time>
      </trkpt>
      <trkpt lat="43.89735" lon="7.57098">
        <ele>939.52718618691</ele>
        <time>2021-11-02T08:57:29Z</time>
      </trkpt>
      <trkpt lat="43.89733" lon="7.57099">
        <ele>939.52727626499</ele>
        <time>2021-11-02T08:57:30Z</time>
      </trkpt>
      <trkpt lat="43.89733" lon="7.571">
        <ele>939.52734577953</ele>
        <time>2021-11-02T08:57:31Z</time>
      </trkpt>
      <trkpt lat="43.89732" lon="7.57101">
        <ele>939.52740066451</ele>
        <time>2021-11-02T08:57:32Z</time>
      </trkpt>
      <trkpt lat="43.8973" lon="7.57102">
        <ele>939.52748106199</ele>
        <time>2021-11-02T08:57:33Z</time>
      </trkpt>
      <trkpt lat="43.89729" lon="7.57102">
        <ele>939.52754361644</ele>
        <time>2021-11-02T08:57:34Z</time>
      </trkpt>
      <trkpt lat="43.89729" lon="7.57102">
        <ele>939.52757971173</ele>
        <time>2021-11-02T08:57:37Z</time>
      </trkpt>
      <trkpt lat="43.89728" lon="7.57103">
        <ele>939.52761690829</ele>
        <time>2021-11-02T08:57:38Z</time>
      </trkpt>
      <trkpt lat="43.89727" lon="7.57103">
        <ele>940.52764301562</ele>
        <time>2021-11-02T08:57:40Z</time>
      </trkpt>
      <trkpt lat="43.89726" lon="7.57102">
        <ele>942.52772068223</ele>
        <time>2021-11-02T08:57:41Z</time>
      </trkpt>
      <trkpt lat="43.89725" lon="7.57103">
        <ele>943.52777035718</ele>
        <time>2021-11-02T08:57:42Z</time>
      </trkpt>
      <trkpt lat="43.89724" lon="7.57103">
        <ele>942.5278206536</ele>
        <time>2021-11-02T08:57:44Z</time>
      </trkpt>
      <trkpt lat="43.89723" lon="7.57103">
        <ele>942.52786778125</ele>
        <time>2021-11-02T08:57:46Z</time>
      </trkpt>
      <trkpt lat="43.89721" lon="7.57104">
        <ele>942.5279846703</ele>
        <time>2021-11-02T08:57:47Z</time>
      </trkpt>
      <trkpt lat="43.8972" lon="7.57104">
        <ele>942.5280335321</ele>
        <time>2021-11-02T08:57:48Z</time>
      </trkpt>
      <trkpt lat="43.89719" lon="7.57105">
        <ele>942.52808973356</ele>
        <time>2021-11-02T08:57:50Z</time>
      </trkpt>
      <trkpt lat="43.89717" lon="7.57107">
        <ele>940.52823645402</ele>
        <time>2021-11-02T08:57:51Z</time>
      </trkpt>
      <trkpt lat="43.89715" lon="7.57107">
        <ele>941.52833757768</ele>
        <time>2021-11-02T08:57:52Z</time>
      </trkpt>
      <trkpt lat="43.89714" lon="7.57107">
        <ele>941.52843164229</ele>
        <time>2021-11-02T08:57:54Z</time>
      </trkpt>
      <trkpt lat="43.8971" lon="7.57108">
        <ele>941.52861378786</ele>
        <time>2021-11-02T08:57:56Z</time>
      </trkpt>
      <trkpt lat="43.89708" lon="7.57108">
        <ele>943.52871155068</ele>
        <time>2021-11-02T08:57:57Z</time>
      </trkpt>
      <trkpt lat="43.89707" lon="7.57108">
        <ele>942.52875453864</ele>
        <time>2021-11-02T08:57:59Z</time>
      </trkpt>
      <trkpt lat="43.89706" lon="7.57107">
        <ele>943.52880287291</ele>
        <time>2021-11-02T08:58:00Z</time>
      </trkpt>
      <trkpt lat="43.89705" lon="7.57106">
        <ele>944.52885187845</ele>
        <time>2021-11-02T08:58:01Z</time>
      </trkpt>
      <trkpt lat="43.89704" lon="7.57106">
        <ele>944.52891038988</ele>
        <time>2021-11-02T08:58:02Z</time>
      </trkpt>
      <trkpt lat="43.89703" lon="7.57106">
        <ele>945.52897857936</ele>
        <time>2021-11-02T08:58:03Z</time>
      </trkpt>
      <trkpt lat="43.89701" lon="7.57106">
        <ele>944.52908174742</ele>
        <time>2021-11-02T08:58:04Z</time>
      </trkpt>
      <trkpt lat="43.89699" lon="7.57107">
        <ele>945.52915292407</ele>
        <time>2021-11-02T08:58:05Z</time>
      </trkpt>
      <trkpt lat="43.89699" lon="7.57107">
        <ele>945.52920256893</ele>
        <time>2021-11-02T08:58:06Z</time>
      </trkpt>
      <trkpt lat="43.89698" lon="7.57107">
        <ele>945.52925212489</ele>
        <time>2021-11-02T08:58:07Z</time>
      </trkpt>
      <trkpt lat="43.89697" lon="7.57108">
        <ele>945.52930948386</ele>
        <time>2021-11-02T08:58:08Z</time>
      </trkpt>
      <trkpt lat="43.89695" lon="7.57108">
        <ele>945.52940295772</ele>
        <time>2021-11-02T08:58:10Z</time>
      </trkpt>
      <trkpt lat="43.89693" lon="7.57108">
        <ele>945.52950809216</ele>
        <time>2021-11-02T08:58:12Z</time>
      </trkpt>
      <trkpt lat="43.89692" lon="7.57108">
        <ele>946.52956500902</ele>
        <time>2021-11-02T08:58:13Z</time>
      </trkpt>
      <trkpt lat="43.89691" lon="7.57108">
        <ele>946.52961911319</ele>
        <time>2021-11-02T08:58:14Z</time>
      </trkpt>
      <trkpt lat="43.8969" lon="7.57108">
        <ele>946.52966432021</ele>
        <time>2021-11-02T08:58:15Z</time>
      </trkpt>
      <trkpt lat="43.89689" lon="7.57108">
        <ele>945.52972229493</ele>
        <time>2021-11-02T08:58:16Z</time>
      </trkpt>
      <trkpt lat="43.89688" lon="7.57108">
        <ele>945.5297691485</ele>
        <time>2021-11-02T08:58:17Z</time>
      </trkpt>
      <trkpt lat="43.89687" lon="7.57108">
        <ele>944.52982365233</ele>
        <time>2021-11-02T08:58:18Z</time>
      </trkpt>
      <trkpt lat="43.89685" lon="7.57108">
        <ele>944.52988463121</ele>
        <time>2021-11-02T08:58:19Z</time>
      </trkpt>
      <trkpt lat="43.89684" lon="7.57108">
        <ele>944.52995073984</ele>
        <time>2021-11-02T08:58:20Z</time>
      </trkpt>
      <trkpt lat="43.89683" lon="7.57108">
        <ele>944.52999472264</ele>
        <time>2021-11-02T08:58:21Z</time>
      </trkpt>
      <trkpt lat="43.89683" lon="7.57108">
        <ele>944.53003702956</ele>
        <time>2021-11-02T08:58:22Z</time>
      </trkpt>
      <trkpt lat="43.89682" lon="7.57108">
        <ele>944.53008227433</ele>
        <time>2021-11-02T08:58:23Z</time>
      </trkpt>
      <trkpt lat="43.8968" lon="7.57108">
        <ele>944.53017549857</ele>
        <time>2021-11-02T08:58:24Z</time>
      </trkpt>
      <trkpt lat="43.89678" lon="7.57109">
        <ele>944.5303052505</ele>
        <time>2021-11-02T08:58:26Z</time>
      </trkpt>
      <trkpt lat="43.89677" lon="7.5711">
        <ele>943.53035705038</ele>
        <time>2021-11-02T08:58:27Z</time>
      </trkpt>
      <trkpt lat="43.89676" lon="7.5711">
        <ele>943.53040359045</ele>
        <time>2021-11-02T08:58:29Z</time>
      </trkpt>
      <trkpt lat="43.89675" lon="7.57112">
        <ele>944.53050150944</ele>
        <time>2021-11-02T08:58:30Z</time>
      </trkpt>
      <trkpt lat="43.89674" lon="7.57112">
        <ele>944.53056690983</ele>
        <time>2021-11-02T08:58:31Z</time>
      </trkpt>
      <trkpt lat="43.89673" lon="7.57113">
        <ele>944.53062897331</ele>
        <time>2021-11-02T08:58:32Z</time>
      </trkpt>
      <trkpt lat="43.89671" lon="7.57113">
        <ele>944.5306935928</ele>
        <time>2021-11-02T08:58:33Z</time>
      </trkpt>
      <trkpt lat="43.8967" lon="7.57113">
        <ele>944.53076613172</ele>
        <time>2021-11-02T08:58:34Z</time>
      </trkpt>
      <trkpt lat="43.89669" lon="7.57113">
        <ele>944.53082687462</ele>
        <time>2021-11-02T08:58:35Z</time>
      </trkpt>
      <trkpt lat="43.89668" lon="7.57114">
        <ele>944.53090237181</ele>
        <time>2021-11-02T08:58:36Z</time>
      </trkpt>
      <trkpt lat="43.89666" lon="7.57114">
        <ele>943.53100374814</ele>
        <time>2021-11-02T08:58:37Z</time>
      </trkpt>
      <trkpt lat="43.89664" lon="7.57115">
        <ele>943.53108860595</ele>
        <time>2021-11-02T08:58:38Z</time>
      </trkpt>
      <trkpt lat="43.89663" lon="7.57115">
        <ele>943.53114214381</ele>
        <time>2021-11-02T08:58:39Z</time>
      </trkpt>
      <trkpt lat="43.89662" lon="7.57116">
        <ele>944.53122187913</ele>
        <time>2021-11-02T08:58:40Z</time>
      </trkpt>
      <trkpt lat="43.89661" lon="7.57117">
        <ele>945.53130464043</ele>
        <time>2021-11-02T08:58:41Z</time>
      </trkpt>
      <trkpt lat="43.8966" lon="7.57118">
        <ele>945.53137376687</ele>
        <time>2021-11-02T08:58:42Z</time>
      </trkpt>
      <trkpt lat="43.89658" lon="7.57118">
        <ele>946.53144439412</ele>
        <time>2021-11-02T08:58:43Z</time>
      </trkpt>
      <trkpt lat="43.89657" lon="7.57118">
        <ele>946.53152226268</ele>
        <time>2021-11-02T08:58:44Z</time>
      </trkpt>
      <trkpt lat="43.89656" lon="7.57118">
        <ele>946.53157323976</ele>
        <time>2021-11-02T08:58:46Z</time>
      </trkpt>
      <trkpt lat="43.89653" lon="7.57119">
        <ele>945.53170762082</ele>
        <time>2021-11-02T08:58:47Z</time>
      </trkpt>
      <trkpt lat="43.89652" lon="7.57119">
        <ele>945.53177174386</ele>
        <time>2021-11-02T08:58:48Z</time>
      </trkpt>
      <trkpt lat="43.89651" lon="7.57119">
        <ele>945.53184715285</ele>
        <time>2021-11-02T08:58:49Z</time>
      </trkpt>
      <trkpt lat="43.8965" lon="7.57119">
        <ele>945.53190814602</ele>
        <time>2021-11-02T08:58:50Z</time>
      </trkpt>
      <trkpt lat="43.89648" lon="7.57119">
        <ele>945.53198580957</ele>
        <time>2021-11-02T08:58:51Z</time>
      </trkpt>
      <trkpt lat="43.89646" lon="7.57119">
        <ele>946.53206888957</ele>
        <time>2021-11-02T08:58:52Z</time>
      </trkpt>
      <trkpt lat="43.89646" lon="7.57118">
        <ele>946.53211005639</ele>
        <time>2021-11-02T08:58:53Z</time>
      </trkpt>
      <trkpt lat="43.89644" lon="7.57118">
        <ele>946.53216326878</ele>
        <time>2021-11-02T08:58:54Z</time>
      </trkpt>
      <trkpt lat="43.89644" lon="7.57118">
        <ele>946.53220070224</ele>
        <time>2021-11-02T08:58:55Z</time>
      </trkpt>
      <trkpt lat="43.89643" lon="7.57118">
        <ele>946.53225498085</ele>
        <time>2021-11-02T08:58:56Z</time>
      </trkpt>
      <trkpt lat="43.89641" lon="7.57118">
        <ele>946.53233536052</ele>
        <time>2021-11-02T08:58:57Z</time>
      </trkpt>
      <trkpt lat="43.8964" lon="7.57118">
        <ele>946.53239330157</ele>
        <time>2021-11-02T08:58:59Z</time>
      </trkpt>
      <trkpt lat="43.89638" lon="7.57118">
        <ele>946.53251266511</ele>
        <time>2021-11-02T08:59:00Z</time>
      </trkpt>
      <trkpt lat="43.89637" lon="7.57118">
        <ele>947.532556329</ele>
        <time>2021-11-02T08:59:01Z</time>
      </trkpt>
      <trkpt lat="43.89636" lon="7.57118">
        <ele>947.53261858588</ele>
        <time>2021-11-02T08:59:02Z</time>
      </trkpt>
      <trkpt lat="43.89635" lon="7.57119">
        <ele>947.53266155797</ele>
        <time>2021-11-02T08:59:03Z</time>
      </trkpt>
      <trkpt lat="43.89634" lon="7.57119">
        <ele>947.53272405355</ele>
        <time>2021-11-02T08:59:04Z</time>
      </trkpt>
      <trkpt lat="43.89631" lon="7.57118">
        <ele>949.53284219471</ele>
        <time>2021-11-02T08:59:06Z</time>
      </trkpt>
      <trkpt lat="43.8963" lon="7.57118">
        <ele>949.53288574001</ele>
        <time>2021-11-02T08:59:07Z</time>
      </trkpt>
      <trkpt lat="43.89629" lon="7.57118">
        <ele>949.5329400582</ele>
        <time>2021-11-02T08:59:08Z</time>
      </trkpt>
      <trkpt lat="43.89628" lon="7.57118">
        <ele>949.53298111261</ele>
        <time>2021-11-02T08:59:09Z</time>
      </trkpt>
      <trkpt lat="43.89627" lon="7.57117">
        <ele>949.53303580537</ele>
        <time>2021-11-02T08:59:10Z</time>
      </trkpt>
      <trkpt lat="43.89626" lon="7.57117">
        <ele>949.53309291652</ele>
        <time>2021-11-02T08:59:11Z</time>
      </trkpt>
      <trkpt lat="43.89625" lon="7.57117">
        <ele>950.53314470265</ele>
        <time>2021-11-02T08:59:12Z</time>
      </trkpt>
      <trkpt lat="43.89624" lon="7.57118">
        <ele>950.53320025943</ele>
        <time>2021-11-02T08:59:13Z</time>
      </trkpt>
      <trkpt lat="43.89623" lon="7.57117">
        <ele>951.53325682729</ele>
        <time>2021-11-02T08:59:14Z</time>
      </trkpt>
      <trkpt lat="43.89622" lon="7.57117">
        <ele>951.53331868187</ele>
        <time>2021-11-02T08:59:15Z</time>
      </trkpt>
      <trkpt lat="43.8962" lon="7.57117">
        <ele>951.5333917942</ele>
        <time>2021-11-02T08:59:16Z</time>
      </trkpt>
      <trkpt lat="43.89619" lon="7.57117">
        <ele>951.53346045487</ele>
        <time>2021-11-02T08:59:17Z</time>
      </trkpt>
      <trkpt lat="43.89618" lon="7.57117">
        <ele>951.53352287416</ele>
        <time>2021-11-02T08:59:18Z</time>
      </trkpt>
      <trkpt lat="43.89617" lon="7.57117">
        <ele>951.533572091</ele>
        <time>2021-11-02T08:59:19Z</time>
      </trkpt>
      <trkpt lat="43.89616" lon="7.57117">
        <ele>951.5336274109</ele>
        <time>2021-11-02T08:59:20Z</time>
      </trkpt>
      <trkpt lat="43.89615" lon="7.57117">
        <ele>952.53367704548</ele>
        <time>2021-11-02T08:59:21Z</time>
      </trkpt>
      <trkpt lat="43.89614" lon="7.57117">
        <ele>952.53373408813</ele>
        <time>2021-11-02T08:59:22Z</time>
      </trkpt>
      <trkpt lat="43.89612" lon="7.57117">
        <ele>952.53379363028</ele>
        <time>2021-11-02T08:59:23Z</time>
      </trkpt>
      <trkpt lat="43.89611" lon="7.57117">
        <ele>952.53385899869</ele>
        <time>2021-11-02T08:59:25Z</time>
      </trkpt>
      <trkpt lat="43.89609" lon="7.57116">
        <ele>952.53396370077</ele>
        <time>2021-11-02T08:59:26Z</time>
      </trkpt>
      <trkpt lat="43.89608" lon="7.57116">
        <ele>952.53401712082</ele>
        <time>2021-11-02T08:59:27Z</time>
      </trkpt>
      <trkpt lat="43.89607" lon="7.57116">
        <ele>952.53406439747</ele>
        <time>2021-11-02T08:59:28Z</time>
      </trkpt>
      <trkpt lat="43.89604" lon="7.57115">
        <ele>951.53417538948</ele>
        <time>2021-11-02T08:59:30Z</time>
      </trkpt>
      <trkpt lat="43.89603" lon="7.57115">
        <ele>950.53422781895</ele>
        <time>2021-11-02T08:59:31Z</time>
      </trkpt>
      <trkpt lat="43.89602" lon="7.57115">
        <ele>950.53426965857</ele>
        <time>2021-11-02T08:59:32Z</time>
      </trkpt>
      <trkpt lat="43.89601" lon="7.57114">
        <ele>949.53431227561</ele>
        <time>2021-11-02T08:59:33Z</time>
      </trkpt>
      <trkpt lat="43.896" lon="7.57114">
        <ele>950.53436733098</ele>
        <time>2021-11-02T08:59:34Z</time>
      </trkpt>
      <trkpt lat="43.89599" lon="7.57112">
        <ele>950.53440605414</ele>
        <time>2021-11-02T08:59:35Z</time>
      </trkpt>
      <trkpt lat="43.89598" lon="7.57112">
        <ele>949.53444878419</ele>
        <time>2021-11-02T08:59:36Z</time>
      </trkpt>
      <trkpt lat="43.89597" lon="7.57111">
        <ele>948.53447564813</ele>
        <time>2021-11-02T08:59:37Z</time>
      </trkpt>
      <trkpt lat="43.89597" lon="7.57111">
        <ele>949.53451620483</ele>
        <time>2021-11-02T08:59:38Z</time>
      </trkpt>
      <trkpt lat="43.89596" lon="7.57111">
        <ele>950.53456399114</ele>
        <time>2021-11-02T08:59:39Z</time>
      </trkpt>
      <trkpt lat="43.89594" lon="7.57111">
        <ele>950.53462135918</ele>
        <time>2021-11-02T08:59:40Z</time>
      </trkpt>
      <trkpt lat="43.89593" lon="7.57111">
        <ele>950.53467282044</ele>
        <time>2021-11-02T08:59:41Z</time>
      </trkpt>
      <trkpt lat="43.89592" lon="7.5711">
        <ele>950.53473652628</ele>
        <time>2021-11-02T08:59:42Z</time>
      </trkpt>
      <trkpt lat="43.89591" lon="7.5711">
        <ele>950.5347862125</ele>
        <time>2021-11-02T08:59:43Z</time>
      </trkpt>
      <trkpt lat="43.8959" lon="7.57111">
        <ele>950.53484243871</ele>
        <time>2021-11-02T08:59:44Z</time>
      </trkpt>
      <trkpt lat="43.89589" lon="7.5711">
        <ele>950.53489090352</ele>
        <time>2021-11-02T08:59:45Z</time>
      </trkpt>
      <trkpt lat="43.89588" lon="7.5711">
        <ele>950.53494797486</ele>
        <time>2021-11-02T08:59:46Z</time>
      </trkpt>
      <trkpt lat="43.89586" lon="7.57109">
        <ele>950.53499937704</ele>
        <time>2021-11-02T08:59:47Z</time>
      </trkpt>
      <trkpt lat="43.89586" lon="7.57109">
        <ele>950.53503593877</ele>
        <time>2021-11-02T08:59:49Z</time>
      </trkpt>
      <trkpt lat="43.89583" lon="7.57109">
        <ele>950.53516228506</ele>
        <time>2021-11-02T08:59:50Z</time>
      </trkpt>
      <trkpt lat="43.89582" lon="7.57109">
        <ele>950.53522427601</ele>
        <time>2021-11-02T08:59:51Z</time>
      </trkpt>
      <trkpt lat="43.89581" lon="7.57109">
        <ele>950.5352740695</ele>
        <time>2021-11-02T08:59:52Z</time>
      </trkpt>
      <trkpt lat="43.8958" lon="7.57109">
        <ele>950.53533661119</ele>
        <time>2021-11-02T08:59:53Z</time>
      </trkpt>
      <trkpt lat="43.89579" lon="7.57108">
        <ele>950.53536154544</ele>
        <time>2021-11-02T08:59:55Z</time>
      </trkpt>
      <trkpt lat="43.89577" lon="7.57108">
        <ele>951.5354434248</ele>
        <time>2021-11-02T08:59:56Z</time>
      </trkpt>
      <trkpt lat="43.89576" lon="7.57108">
        <ele>951.53552308691</ele>
        <time>2021-11-02T08:59:57Z</time>
      </trkpt>
      <trkpt lat="43.89575" lon="7.57108">
        <ele>953.53556466231</ele>
        <time>2021-11-02T08:59:58Z</time>
      </trkpt>
      <trkpt lat="43.89573" lon="7.57107">
        <ele>954.53563536863</ele>
        <time>2021-11-02T09:00:01Z</time>
      </trkpt>
      <trkpt lat="43.89571" lon="7.57106">
        <ele>955.53571865036</ele>
        <time>2021-11-02T09:00:02Z</time>
      </trkpt>
      <trkpt lat="43.8957" lon="7.57105">
        <ele>955.53575342833</ele>
        <time>2021-11-02T09:00:03Z</time>
      </trkpt>
      <trkpt lat="43.89569" lon="7.57102">
        <ele>954.53577231903</ele>
        <time>2021-11-02T09:00:04Z</time>
      </trkpt>
      <trkpt lat="43.89567" lon="7.57099">
        <ele>954.53581046647</ele>
        <time>2021-11-02T09:00:06Z</time>
      </trkpt>
      <trkpt lat="43.89567" lon="7.57097">
        <ele>954.5358087415</ele>
        <time>2021-11-02T09:00:07Z</time>
      </trkpt>
      <trkpt lat="43.89567" lon="7.57095">
        <ele>954.53578614701</ele>
        <time>2021-11-02T09:00:08Z</time>
      </trkpt>
      <trkpt lat="43.89566" lon="7.57094">
        <ele>954.5357755618</ele>
        <time>2021-11-02T09:00:09Z</time>
      </trkpt>
      <trkpt lat="43.89566" lon="7.57092">
        <ele>954.53574270292</ele>
        <time>2021-11-02T09:00:11Z</time>
      </trkpt>
      <trkpt lat="43.89567" lon="7.5709">
        <ele>953.53569616504</ele>
        <time>2021-11-02T09:00:12Z</time>
      </trkpt>
      <trkpt lat="43.89567" lon="7.57088">
        <ele>953.53563657277</ele>
        <time>2021-11-02T09:00:13Z</time>
      </trkpt>
      <trkpt lat="43.89568" lon="7.57087">
        <ele>953.53556239541</ele>
        <time>2021-11-02T09:00:14Z</time>
      </trkpt>
      <trkpt lat="43.89568" lon="7.57086">
        <ele>952.53554614651</ele>
        <time>2021-11-02T09:00:15Z</time>
      </trkpt>
      <trkpt lat="43.89569" lon="7.57084">
        <ele>951.53548810128</ele>
        <time>2021-11-02T09:00:16Z</time>
      </trkpt>
      <trkpt lat="43.8957" lon="7.57083">
        <ele>951.53542437981</ele>
        <time>2021-11-02T09:00:17Z</time>
      </trkpt>
      <trkpt lat="43.89571" lon="7.57082">
        <ele>950.5353526172</ele>
        <time>2021-11-02T09:00:18Z</time>
      </trkpt>
      <trkpt lat="43.89571" lon="7.57081">
        <ele>950.53529916546</ele>
        <time>2021-11-02T09:00:20Z</time>
      </trkpt>
      <trkpt lat="43.89573" lon="7.5708">
        <ele>949.53522032291</ele>
        <time>2021-11-02T09:00:21Z</time>
      </trkpt>
      <trkpt lat="43.89573" lon="7.57079">
        <ele>949.53516788841</ele>
        <time>2021-11-02T09:00:22Z</time>
      </trkpt>
      <trkpt lat="43.89574" lon="7.57078">
        <ele>949.53511296079</ele>
        <time>2021-11-02T09:00:24Z</time>
      </trkpt>
      <trkpt lat="43.89575" lon="7.57079">
        <ele>949.53505027992</ele>
        <time>2021-11-02T09:00:25Z</time>
      </trkpt>
      <trkpt lat="43.89578" lon="7.57078">
        <ele>949.53491837002</ele>
        <time>2021-11-02T09:00:27Z</time>
      </trkpt>
      <trkpt lat="43.89579" lon="7.57077">
        <ele>950.53483740223</ele>
        <time>2021-11-02T09:00:28Z</time>
      </trkpt>
      <trkpt lat="43.8958" lon="7.57076">
        <ele>949.53476364305</ele>
        <time>2021-11-02T09:00:29Z</time>
      </trkpt>
      <trkpt lat="43.89582" lon="7.57076">
        <ele>949.53468327715</ele>
        <time>2021-11-02T09:00:30Z</time>
      </trkpt>
      <trkpt lat="43.89585" lon="7.57077">
        <ele>948.5345397533</ele>
        <time>2021-11-02T09:00:32Z</time>
      </trkpt>
      <trkpt lat="43.89586" lon="7.57076">
        <ele>948.53446531015</ele>
        <time>2021-11-02T09:00:33Z</time>
      </trkpt>
      <trkpt lat="43.89587" lon="7.57075">
        <ele>948.53439035569</ele>
        <time>2021-11-02T09:00:34Z</time>
      </trkpt>
      <trkpt lat="43.89589" lon="7.57075">
        <ele>948.53429907031</ele>
        <time>2021-11-02T09:00:36Z</time>
      </trkpt>
      <trkpt lat="43.8959" lon="7.57074">
        <ele>948.53422513246</ele>
        <time>2021-11-02T09:00:37Z</time>
      </trkpt>
      <trkpt lat="43.89591" lon="7.57074">
        <ele>948.53418813624</ele>
        <time>2021-11-02T09:00:38Z</time>
      </trkpt>
      <trkpt lat="43.89591" lon="7.57073">
        <ele>948.53414725885</ele>
        <time>2021-11-02T09:00:39Z</time>
      </trkpt>
      <trkpt lat="43.89592" lon="7.57073">
        <ele>949.5340947994</ele>
        <time>2021-11-02T09:00:40Z</time>
      </trkpt>
      <trkpt lat="43.89593" lon="7.57072">
        <ele>950.5340529806</ele>
        <time>2021-11-02T09:00:41Z</time>
      </trkpt>
      <trkpt lat="43.89593" lon="7.57072">
        <ele>950.53402422663</ele>
        <time>2021-11-02T09:00:42Z</time>
      </trkpt>
      <trkpt lat="43.89594" lon="7.57072">
        <ele>950.53397137442</ele>
        <time>2021-11-02T09:00:43Z</time>
      </trkpt>
      <trkpt lat="43.89595" lon="7.57072">
        <ele>950.53391891766</ele>
        <time>2021-11-02T09:00:44Z</time>
      </trkpt>
      <trkpt lat="43.89596" lon="7.57072">
        <ele>950.53387556765</ele>
        <time>2021-11-02T09:00:46Z</time>
      </trkpt>
      <trkpt lat="43.89598" lon="7.57071">
        <ele>950.53378370145</ele>
        <time>2021-11-02T09:00:47Z</time>
      </trkpt>
      <trkpt lat="43.89599" lon="7.57071">
        <ele>951.53373544792</ele>
        <time>2021-11-02T09:00:48Z</time>
      </trkpt>
      <trkpt lat="43.896" lon="7.57071">
        <ele>950.53368385245</ele>
        <time>2021-11-02T09:00:49Z</time>
      </trkpt>
      <trkpt lat="43.89602" lon="7.57071">
        <ele>951.53357414472</ele>
        <time>2021-11-02T09:00:51Z</time>
      </trkpt>
      <trkpt lat="43.89603" lon="7.57072">
        <ele>951.53354625422</ele>
        <time>2021-11-02T09:00:52Z</time>
      </trkpt>
      <trkpt lat="43.89604" lon="7.57072">
        <ele>952.53350012979</ele>
        <time>2021-11-02T09:00:53Z</time>
      </trkpt>
      <trkpt lat="43.89605" lon="7.57073">
        <ele>951.53345410791</ele>
        <time>2021-11-02T09:00:54Z</time>
      </trkpt>
      <trkpt lat="43.89606" lon="7.57073">
        <ele>951.53338596449</ele>
        <time>2021-11-02T09:00:55Z</time>
      </trkpt>
      <trkpt lat="43.89608" lon="7.57073">
        <ele>951.53327460861</ele>
        <time>2021-11-02T09:00:57Z</time>
      </trkpt>
      <trkpt lat="43.89609" lon="7.57073">
        <ele>951.53322154792</ele>
        <time>2021-11-02T09:00:59Z</time>
      </trkpt>
      <trkpt lat="43.89611" lon="7.57072">
        <ele>952.5331392482</ele>
        <time>2021-11-02T09:01:01Z</time>
      </trkpt>
      <trkpt lat="43.89612" lon="7.57072">
        <ele>953.53306407391</ele>
        <time>2021-11-02T09:01:02Z</time>
      </trkpt>
      <trkpt lat="43.89613" lon="7.57073">
        <ele>953.53303274849</ele>
        <time>2021-11-02T09:01:03Z</time>
      </trkpt>
      <trkpt lat="43.89613" lon="7.57073">
        <ele>952.5330191942</ele>
        <time>2021-11-02T09:01:04Z</time>
      </trkpt>
      <trkpt lat="43.89615" lon="7.57073">
        <ele>952.5329434065</ele>
        <time>2021-11-02T09:01:06Z</time>
      </trkpt>
      <trkpt lat="43.89615" lon="7.57072">
        <ele>951.53289455095</ele>
        <time>2021-11-02T09:01:07Z</time>
      </trkpt>
      <trkpt lat="43.89616" lon="7.57071">
        <ele>951.53285474549</ele>
        <time>2021-11-02T09:01:09Z</time>
      </trkpt>
      <trkpt lat="43.89617" lon="7.57072">
        <ele>950.53278523625</ele>
        <time>2021-11-02T09:01:11Z</time>
      </trkpt>
      <trkpt lat="43.89619" lon="7.57071">
        <ele>950.53271124164</ele>
        <time>2021-11-02T09:01:12Z</time>
      </trkpt>
      <trkpt lat="43.8962" lon="7.57072">
        <ele>950.53267430497</ele>
        <time>2021-11-02T09:01:13Z</time>
      </trkpt>
      <trkpt lat="43.89621" lon="7.57072">
        <ele>950.53262367945</ele>
        <time>2021-11-02T09:01:15Z</time>
      </trkpt>
      <trkpt lat="43.89623" lon="7.57071">
        <ele>951.5324782475</ele>
        <time>2021-11-02T09:01:16Z</time>
      </trkpt>
      <trkpt lat="43.89625" lon="7.57071">
        <ele>952.53239301038</ele>
        <time>2021-11-02T09:01:17Z</time>
      </trkpt>
      <trkpt lat="43.89626" lon="7.5707">
        <ele>952.53228934551</ele>
        <time>2021-11-02T09:01:19Z</time>
      </trkpt>
      <trkpt lat="43.89629" lon="7.57069">
        <ele>952.53216021079</ele>
        <time>2021-11-02T09:01:21Z</time>
      </trkpt>
      <trkpt lat="43.8963" lon="7.57068">
        <ele>953.53209428913</ele>
        <time>2021-11-02T09:01:22Z</time>
      </trkpt>
      <trkpt lat="43.8963" lon="7.57069">
        <ele>953.53206411767</ele>
        <time>2021-11-02T09:01:23Z</time>
      </trkpt>
      <trkpt lat="43.89631" lon="7.57068">
        <ele>952.53203164854</ele>
        <time>2021-11-02T09:01:25Z</time>
      </trkpt>
      <trkpt lat="43.89631" lon="7.57068">
        <ele>952.53199838702</ele>
        <time>2021-11-02T09:01:27Z</time>
      </trkpt>
      <trkpt lat="43.89633" lon="7.57066">
        <ele>951.53186260409</ele>
        <time>2021-11-02T09:01:28Z</time>
      </trkpt>
      <trkpt lat="43.89634" lon="7.57065">
        <ele>951.53180467766</ele>
        <time>2021-11-02T09:01:30Z</time>
      </trkpt>
      <trkpt lat="43.89635" lon="7.57064">
        <ele>951.5317564844</ele>
        <time>2021-11-02T09:01:33Z</time>
      </trkpt>
      <trkpt lat="43.89636" lon="7.57064">
        <ele>953.53167094703</ele>
        <time>2021-11-02T09:01:34Z</time>
      </trkpt>
      <trkpt lat="43.89637" lon="7.57063">
        <ele>954.5316186671</ele>
        <time>2021-11-02T09:01:35Z</time>
      </trkpt>
      <trkpt lat="43.89638" lon="7.57063">
        <ele>954.53156396777</ele>
        <time>2021-11-02T09:01:36Z</time>
      </trkpt>
      <trkpt lat="43.89639" lon="7.57063">
        <ele>955.53151501423</ele>
        <time>2021-11-02T09:01:37Z</time>
      </trkpt>
      <trkpt lat="43.89639" lon="7.57063">
        <ele>955.53151501423</ele>
        <time>2021-11-02T09:01:38Z</time>
      </trkpt>
      <trkpt lat="43.89641" lon="7.57063">
        <ele>954.53141277883</ele>
        <time>2021-11-02T09:01:40Z</time>
      </trkpt>
      <trkpt lat="43.89642" lon="7.57062">
        <ele>954.5313351167</ele>
        <time>2021-11-02T09:01:41Z</time>
      </trkpt>
      <trkpt lat="43.89643" lon="7.57061">
        <ele>954.53127590989</ele>
        <time>2021-11-02T09:01:42Z</time>
      </trkpt>
      <trkpt lat="43.89644" lon="7.57061">
        <ele>954.53123235307</ele>
        <time>2021-11-02T09:01:44Z</time>
      </trkpt>
      <trkpt lat="43.89647" lon="7.5706">
        <ele>952.53105928847</ele>
        <time>2021-11-02T09:01:46Z</time>
      </trkpt>
      <trkpt lat="43.89648" lon="7.5706">
        <ele>952.53099410109</ele>
        <time>2021-11-02T09:01:47Z</time>
      </trkpt>
      <trkpt lat="43.89649" lon="7.5706">
        <ele>952.53093999451</ele>
        <time>2021-11-02T09:01:48Z</time>
      </trkpt>
      <trkpt lat="43.8965" lon="7.57059">
        <ele>953.53089536586</ele>
        <time>2021-11-02T09:01:49Z</time>
      </trkpt>
      <trkpt lat="43.89652" lon="7.57058">
        <ele>953.53077742728</ele>
        <time>2021-11-02T09:01:51Z</time>
      </trkpt>
      <trkpt lat="43.89653" lon="7.57058">
        <ele>953.53070825765</ele>
        <time>2021-11-02T09:01:52Z</time>
      </trkpt>
      <trkpt lat="43.89655" lon="7.57057">
        <ele>953.53063353648</ele>
        <time>2021-11-02T09:01:53Z</time>
      </trkpt>
      <trkpt lat="43.89656" lon="7.57056">
        <ele>952.53053444874</ele>
        <time>2021-11-02T09:01:55Z</time>
      </trkpt>
      <trkpt lat="43.89657" lon="7.57057">
        <ele>953.53048657744</ele>
        <time>2021-11-02T09:01:56Z</time>
      </trkpt>
      <trkpt lat="43.89658" lon="7.57057">
        <ele>954.5304407295</ele>
        <time>2021-11-02T09:01:57Z</time>
      </trkpt>
      <trkpt lat="43.89659" lon="7.57056">
        <ele>955.53036832432</ele>
        <time>2021-11-02T09:01:58Z</time>
      </trkpt>
      <trkpt lat="43.89662" lon="7.57056">
        <ele>955.53024825631</ele>
        <time>2021-11-02T09:02:00Z</time>
      </trkpt>
      <trkpt lat="43.89663" lon="7.57057">
        <ele>953.5302189006</ele>
        <time>2021-11-02T09:02:02Z</time>
      </trkpt>
      <trkpt lat="43.89663" lon="7.57057">
        <ele>953.53018220681</ele>
        <time>2021-11-02T09:02:03Z</time>
      </trkpt>
      <trkpt lat="43.89664" lon="7.57057">
        <ele>953.53017372156</ele>
        <time>2021-11-02T09:02:09Z</time>
      </trkpt>
      <trkpt lat="43.89664" lon="7.57057">
        <ele>951.53012590022</ele>
        <time>2021-11-02T09:02:10Z</time>
      </trkpt>
      <trkpt lat="43.89666" lon="7.57056">
        <ele>952.53004507277</ele>
        <time>2021-11-02T09:02:12Z</time>
      </trkpt>
      <trkpt lat="43.89667" lon="7.57055">
        <ele>952.52998049463</ele>
        <time>2021-11-02T09:02:13Z</time>
      </trkpt>
      <trkpt lat="43.89667" lon="7.57054">
        <ele>952.52992114571</ele>
        <time>2021-11-02T09:02:14Z</time>
      </trkpt>
      <trkpt lat="43.89669" lon="7.57052">
        <ele>953.5298201217</ele>
        <time>2021-11-02T09:02:16Z</time>
      </trkpt>
      <trkpt lat="43.89669" lon="7.57052">
        <ele>953.52978059141</ele>
        <time>2021-11-02T09:02:17Z</time>
      </trkpt>
      <trkpt lat="43.8967" lon="7.57051">
        <ele>953.52974605861</ele>
        <time>2021-11-02T09:02:18Z</time>
      </trkpt>
      <trkpt lat="43.89671" lon="7.5705">
        <ele>953.52969943313</ele>
        <time>2021-11-02T09:02:19Z</time>
      </trkpt>
      <trkpt lat="43.89673" lon="7.57049">
        <ele>953.52956784848</ele>
        <time>2021-11-02T09:02:21Z</time>
      </trkpt>
      <trkpt lat="43.89674" lon="7.57048">
        <ele>954.52946063753</ele>
        <time>2021-11-02T09:02:22Z</time>
      </trkpt>
      <trkpt lat="43.89675" lon="7.57047">
        <ele>955.52939239823</ele>
        <time>2021-11-02T09:02:23Z</time>
      </trkpt>
      <trkpt lat="43.89677" lon="7.57046">
        <ele>955.5293201045</ele>
        <time>2021-11-02T09:02:25Z</time>
      </trkpt>
      <trkpt lat="43.89678" lon="7.57045">
        <ele>954.52922356693</ele>
        <time>2021-11-02T09:02:26Z</time>
      </trkpt>
      <trkpt lat="43.89679" lon="7.57043">
        <ele>955.52917004776</ele>
        <time>2021-11-02T09:02:27Z</time>
      </trkpt>
      <trkpt lat="43.8968" lon="7.57042">
        <ele>956.52909646905</ele>
        <time>2021-11-02T09:02:28Z</time>
      </trkpt>
      <trkpt lat="43.89681" lon="7.57039">
        <ele>956.52898402049</ele>
        <time>2021-11-02T09:02:31Z</time>
      </trkpt>
      <trkpt lat="43.89683" lon="7.57038">
        <ele>957.52887843273</ele>
        <time>2021-11-02T09:02:32Z</time>
      </trkpt>
      <trkpt lat="43.89683" lon="7.57037">
        <ele>957.52882249371</ele>
        <time>2021-11-02T09:02:33Z</time>
      </trkpt>
      <trkpt lat="43.89685" lon="7.57036">
        <ele>957.52875196005</ele>
        <time>2021-11-02T09:02:34Z</time>
      </trkpt>
      <trkpt lat="43.89685" lon="7.57038">
        <ele>958.52877346146</ele>
        <time>2021-11-02T09:02:44Z</time>
      </trkpt>
      <trkpt lat="43.89686" lon="7.57036">
        <ele>959.52870029728</ele>
        <time>2021-11-02T09:02:46Z</time>
      </trkpt>
      <trkpt lat="43.89686" lon="7.57036">
        <ele>959.52867645937</ele>
        <time>2021-11-02T09:02:47Z</time>
      </trkpt>
      <trkpt lat="43.89686" lon="7.57035">
        <ele>958.5286577399</ele>
        <time>2021-11-02T09:02:48Z</time>
      </trkpt>
      <trkpt lat="43.89687" lon="7.57034">
        <ele>958.5286121164</ele>
        <time>2021-11-02T09:02:50Z</time>
      </trkpt>
      <trkpt lat="43.89688" lon="7.57033">
        <ele>957.5285286688</ele>
        <time>2021-11-02T09:02:51Z</time>
      </trkpt>
      <trkpt lat="43.89688" lon="7.57032">
        <ele>957.52848239692</ele>
        <time>2021-11-02T09:02:52Z</time>
      </trkpt>
      <trkpt lat="43.89689" lon="7.57031">
        <ele>956.52844322617</ele>
        <time>2021-11-02T09:02:53Z</time>
      </trkpt>
      <trkpt lat="43.89689" lon="7.57031">
        <ele>956.52840792556</ele>
        <time>2021-11-02T09:02:54Z</time>
      </trkpt>
      <trkpt lat="43.8969" lon="7.5703">
        <ele>956.52836908986</ele>
        <time>2021-11-02T09:02:56Z</time>
      </trkpt>
      <trkpt lat="43.8969" lon="7.57029">
        <ele>957.52833029327</ele>
        <time>2021-11-02T09:02:57Z</time>
      </trkpt>
      <trkpt lat="43.89691" lon="7.57029">
        <ele>956.52829452197</ele>
        <time>2021-11-02T09:02:58Z</time>
      </trkpt>
      <trkpt lat="43.89691" lon="7.57028">
        <ele>957.5282605288</ele>
        <time>2021-11-02T09:02:59Z</time>
      </trkpt>
      <trkpt lat="43.89692" lon="7.57028">
        <ele>958.52821864241</ele>
        <time>2021-11-02T09:03:07Z</time>
      </trkpt>
      <trkpt lat="43.89693" lon="7.57028">
        <ele>959.52815838811</ele>
        <time>2021-11-02T09:03:08Z</time>
      </trkpt>
      <trkpt lat="43.89694" lon="7.57028">
        <ele>960.52814097347</ele>
        <time>2021-11-02T09:03:10Z</time>
      </trkpt>
      <trkpt lat="43.89694" lon="7.57028">
        <ele>959.52813269113</ele>
        <time>2021-11-02T09:03:14Z</time>
      </trkpt>
      <trkpt lat="43.89695" lon="7.5703">
        <ele>959.52812594687</ele>
        <time>2021-11-02T09:03:15Z</time>
      </trkpt>
      <trkpt lat="43.89695" lon="7.5703">
        <ele>960.528100269</ele>
        <time>2021-11-02T09:03:17Z</time>
      </trkpt>
      <trkpt lat="43.89696" lon="7.57031">
        <ele>960.52807915601</ele>
        <time>2021-11-02T09:03:18Z</time>
      </trkpt>
      <trkpt lat="43.89696" lon="7.5703">
        <ele>961.52806124618</ele>
        <time>2021-11-02T09:03:20Z</time>
      </trkpt>
      <trkpt lat="43.89697" lon="7.5703">
        <ele>960.52802346757</ele>
        <time>2021-11-02T09:03:21Z</time>
      </trkpt>
      <trkpt lat="43.89696" lon="7.57029">
        <ele>959.52805548513</ele>
        <time>2021-11-02T09:03:22Z</time>
      </trkpt>
      <trkpt lat="43.89696" lon="7.57028">
        <ele>958.52802209776</ele>
        <time>2021-11-02T09:03:24Z</time>
      </trkpt>
      <trkpt lat="43.89697" lon="7.57029">
        <ele>957.52801126586</ele>
        <time>2021-11-02T09:03:25Z</time>
      </trkpt>
      <trkpt lat="43.89697" lon="7.57031">
        <ele>956.52801169803</ele>
        <time>2021-11-02T09:03:26Z</time>
      </trkpt>
      <trkpt lat="43.89697" lon="7.57031">
        <ele>956.52801169803</ele>
        <time>2021-11-02T09:03:34Z</time>
      </trkpt>
      <trkpt lat="43.89697" lon="7.57029">
        <ele>956.5280021192</ele>
        <time>2021-11-02T09:03:35Z</time>
      </trkpt>
      <trkpt lat="43.89696" lon="7.57028">
        <ele>955.52803397744</ele>
        <time>2021-11-02T09:03:37Z</time>
      </trkpt>
      <trkpt lat="43.89695" lon="7.57026">
        <ele>954.52806864002</ele>
        <time>2021-11-02T09:03:38Z</time>
      </trkpt>
      <trkpt lat="43.89695" lon="7.57026">
        <ele>954.52806836361</ele>
        <time>2021-11-02T09:04:28Z</time>
      </trkpt>
      <trkpt lat="43.89696" lon="7.57025">
        <ele>953.52796786919</ele>
        <time>2021-11-02T09:04:30Z</time>
      </trkpt>
      <trkpt lat="43.89696" lon="7.57025">
        <ele>953.52796785426</ele>
        <time>2021-11-02T09:04:35Z</time>
      </trkpt>
      <trkpt lat="43.89698" lon="7.57025">
        <ele>953.52788632814</ele>
        <time>2021-11-02T09:04:36Z</time>
      </trkpt>
      <trkpt lat="43.89698" lon="7.57024">
        <ele>953.52785053497</ele>
        <time>2021-11-02T09:04:38Z</time>
      </trkpt>
      <trkpt lat="43.89698" lon="7.57024">
        <ele>953.52783795389</ele>
        <time>2021-11-02T09:04:49Z</time>
      </trkpt>
      <trkpt lat="43.89696" lon="7.57026">
        <ele>954.52797581109</ele>
        <time>2021-11-02T09:04:50Z</time>
      </trkpt>
      <trkpt lat="43.89696" lon="7.57025">
        <ele>955.52799318111</ele>
        <time>2021-11-02T09:04:52Z</time>
      </trkpt>
      <trkpt lat="43.89695" lon="7.57024">
        <ele>954.52800301094</ele>
        <time>2021-11-02T09:04:57Z</time>
      </trkpt>
      <trkpt lat="43.89695" lon="7.57024">
        <ele>954.52801935858</ele>
        <time>2021-11-02T09:05:00Z</time>
      </trkpt>
      <trkpt lat="43.89694" lon="7.57024">
        <ele>955.52808399196</ele>
        <time>2021-11-02T09:05:01Z</time>
      </trkpt>
      <trkpt lat="43.89694" lon="7.57024">
        <ele>957.52806207404</ele>
        <time>2021-11-02T09:05:06Z</time>
      </trkpt>
      <trkpt lat="43.89696" lon="7.57023">
        <ele>957.52796213911</ele>
        <time>2021-11-02T09:05:07Z</time>
      </trkpt>
      <trkpt lat="43.89696" lon="7.57022">
        <ele>958.5278966738</ele>
        <time>2021-11-02T09:05:08Z</time>
      </trkpt>
      <trkpt lat="43.89697" lon="7.57021">
        <ele>958.52784747435</ele>
        <time>2021-11-02T09:05:09Z</time>
      </trkpt>
      <trkpt lat="43.89699" lon="7.57019">
        <ele>958.52772910626</ele>
        <time>2021-11-02T09:05:11Z</time>
      </trkpt>
      <trkpt lat="43.897" lon="7.57018">
        <ele>958.52765056278</ele>
        <time>2021-11-02T09:05:12Z</time>
      </trkpt>
      <trkpt lat="43.89702" lon="7.57017">
        <ele>958.52755956992</ele>
        <time>2021-11-02T09:05:13Z</time>
      </trkpt>
      <trkpt lat="43.89703" lon="7.57017">
        <ele>958.52748448126</ele>
        <time>2021-11-02T09:05:14Z</time>
      </trkpt>
      <trkpt lat="43.89704" lon="7.57015">
        <ele>958.52739261458</ele>
        <time>2021-11-02T09:05:15Z</time>
      </trkpt>
      <trkpt lat="43.89705" lon="7.57014">
        <ele>959.52733731097</ele>
        <time>2021-11-02T09:05:16Z</time>
      </trkpt>
      <trkpt lat="43.89706" lon="7.57013">
        <ele>959.52726370315</ele>
        <time>2021-11-02T09:05:17Z</time>
      </trkpt>
      <trkpt lat="43.89707" lon="7.57012">
        <ele>959.52720012651</ele>
        <time>2021-11-02T09:05:18Z</time>
      </trkpt>
      <trkpt lat="43.89707" lon="7.5701">
        <ele>959.52715209876</ele>
        <time>2021-11-02T09:05:21Z</time>
      </trkpt>
      <trkpt lat="43.89709" lon="7.57007">
        <ele>958.5270426795</ele>
        <time>2021-11-02T09:05:22Z</time>
      </trkpt>
      <trkpt lat="43.8971" lon="7.57006">
        <ele>957.52696324698</ele>
        <time>2021-11-02T09:05:23Z</time>
      </trkpt>
      <trkpt lat="43.89711" lon="7.57005">
        <ele>956.52690042222</ele>
        <time>2021-11-02T09:05:25Z</time>
      </trkpt>
      <trkpt lat="43.89713" lon="7.57003">
        <ele>956.52676003763</ele>
        <time>2021-11-02T09:05:26Z</time>
      </trkpt>
      <trkpt lat="43.89714" lon="7.57002">
        <ele>955.52666848208</ele>
        <time>2021-11-02T09:05:27Z</time>
      </trkpt>
      <trkpt lat="43.89716" lon="7.57001">
        <ele>955.52657216473</ele>
        <time>2021-11-02T09:05:28Z</time>
      </trkpt>
      <trkpt lat="43.89717" lon="7.57">
        <ele>955.52648180026</ele>
        <time>2021-11-02T09:05:31Z</time>
      </trkpt>
      <trkpt lat="43.8972" lon="7.57">
        <ele>956.52633949137</ele>
        <time>2021-11-02T09:05:32Z</time>
      </trkpt>
      <trkpt lat="43.89721" lon="7.57">
        <ele>957.52626462397</ele>
        <time>2021-11-02T09:05:33Z</time>
      </trkpt>
      <trkpt lat="43.89723" lon="7.56999">
        <ele>957.52618700303</ele>
        <time>2021-11-02T09:05:34Z</time>
      </trkpt>
      <trkpt lat="43.89725" lon="7.56998">
        <ele>958.5260460016</ele>
        <time>2021-11-02T09:05:36Z</time>
      </trkpt>
      <trkpt lat="43.89726" lon="7.56997">
        <ele>959.52596822288</ele>
        <time>2021-11-02T09:05:37Z</time>
      </trkpt>
      <trkpt lat="43.89727" lon="7.56996">
        <ele>960.52589178227</ele>
        <time>2021-11-02T09:05:38Z</time>
      </trkpt>
      <trkpt lat="43.89729" lon="7.56995">
        <ele>962.52577977347</ele>
        <time>2021-11-02T09:05:41Z</time>
      </trkpt>
      <trkpt lat="43.89731" lon="7.56995">
        <ele>965.52567613815</ele>
        <time>2021-11-02T09:05:42Z</time>
      </trkpt>
      <trkpt lat="43.89732" lon="7.56995">
        <ele>966.5256580756</ele>
        <time>2021-11-02T09:05:43Z</time>
      </trkpt>
      <trkpt lat="43.89732" lon="7.56996">
        <ele>966.52563901026</ele>
        <time>2021-11-02T09:05:45Z</time>
      </trkpt>
      <trkpt lat="43.89733" lon="7.56996">
        <ele>966.5256060525</ele>
        <time>2021-11-02T09:05:47Z</time>
      </trkpt>
      <trkpt lat="43.89734" lon="7.56996">
        <ele>966.52558180216</ele>
        <time>2021-11-02T09:05:49Z</time>
      </trkpt>
      <trkpt lat="43.89735" lon="7.56995">
        <ele>966.52549939544</ele>
        <time>2021-11-02T09:05:51Z</time>
      </trkpt>
      <trkpt lat="43.89735" lon="7.56995">
        <ele>967.52549321651</ele>
        <time>2021-11-02T09:05:52Z</time>
      </trkpt>
      <trkpt lat="43.89735" lon="7.56994">
        <ele>967.52544774671</ele>
        <time>2021-11-02T09:05:53Z</time>
      </trkpt>
      <trkpt lat="43.89737" lon="7.56992">
        <ele>968.52533152227</ele>
        <time>2021-11-02T09:05:55Z</time>
      </trkpt>
      <trkpt lat="43.89739" lon="7.56991">
        <ele>968.52522112102</ele>
        <time>2021-11-02T09:05:57Z</time>
      </trkpt>
      <trkpt lat="43.8974" lon="7.5699">
        <ele>969.52516715324</ele>
        <time>2021-11-02T09:05:58Z</time>
      </trkpt>
      <trkpt lat="43.89741" lon="7.56989">
        <ele>969.52511453095</ele>
        <time>2021-11-02T09:05:59Z</time>
      </trkpt>
      <trkpt lat="43.89742" lon="7.56988">
        <ele>969.52502199574</ele>
        <time>2021-11-02T09:06:01Z</time>
      </trkpt>
      <trkpt lat="43.89743" lon="7.56987">
        <ele>969.52495765837</ele>
        <time>2021-11-02T09:06:02Z</time>
      </trkpt>
      <trkpt lat="43.89744" lon="7.56987">
        <ele>969.52489129958</ele>
        <time>2021-11-02T09:06:03Z</time>
      </trkpt>
      <trkpt lat="43.89745" lon="7.56986">
        <ele>969.52482830434</ele>
        <time>2021-11-02T09:06:04Z</time>
      </trkpt>
      <trkpt lat="43.89746" lon="7.56985">
        <ele>969.52474699049</ele>
        <time>2021-11-02T09:06:05Z</time>
      </trkpt>
      <trkpt lat="43.89749" lon="7.56984">
        <ele>968.52460767898</ele>
        <time>2021-11-02T09:06:07Z</time>
      </trkpt>
      <trkpt lat="43.8975" lon="7.56983">
        <ele>968.52454125502</ele>
        <time>2021-11-02T09:06:08Z</time>
      </trkpt>
      <trkpt lat="43.89751" lon="7.56983">
        <ele>968.52448010035</ele>
        <time>2021-11-02T09:06:09Z</time>
      </trkpt>
      <trkpt lat="43.89752" lon="7.56983">
        <ele>968.52443377768</ele>
        <time>2021-11-02T09:06:10Z</time>
      </trkpt>
      <trkpt lat="43.89753" lon="7.56982">
        <ele>969.52437180037</ele>
        <time>2021-11-02T09:06:11Z</time>
      </trkpt>
      <trkpt lat="43.89754" lon="7.56982">
        <ele>969.52430083208</ele>
        <time>2021-11-02T09:06:12Z</time>
      </trkpt>
      <trkpt lat="43.89755" lon="7.56981">
        <ele>968.52425220026</ele>
        <time>2021-11-02T09:06:13Z</time>
      </trkpt>
      <trkpt lat="43.89756" lon="7.5698">
        <ele>968.52419069667</ele>
        <time>2021-11-02T09:06:14Z</time>
      </trkpt>
      <trkpt lat="43.89756" lon="7.5698">
        <ele>968.52414032219</ele>
        <time>2021-11-02T09:06:15Z</time>
      </trkpt>
      <trkpt lat="43.89758" lon="7.56979">
        <ele>968.52406005645</ele>
        <time>2021-11-02T09:06:17Z</time>
      </trkpt>
      <trkpt lat="43.89759" lon="7.56978">
        <ele>969.52400601377</ele>
        <time>2021-11-02T09:06:18Z</time>
      </trkpt>
      <trkpt lat="43.8976" lon="7.56978">
        <ele>969.52394272541</ele>
        <time>2021-11-02T09:06:19Z</time>
      </trkpt>
      <trkpt lat="43.89761" lon="7.56976">
        <ele>968.52382404738</ele>
        <time>2021-11-02T09:06:21Z</time>
      </trkpt>
      <trkpt lat="43.89762" lon="7.56976">
        <ele>969.52378602228</ele>
        <time>2021-11-02T09:06:22Z</time>
      </trkpt>
      <trkpt lat="43.89762" lon="7.56975">
        <ele>968.52375245368</ele>
        <time>2021-11-02T09:06:23Z</time>
      </trkpt>
      <trkpt lat="43.89763" lon="7.56973">
        <ele>968.52369729016</ele>
        <time>2021-11-02T09:06:25Z</time>
      </trkpt>
      <trkpt lat="43.89762" lon="7.56974">
        <ele>968.52374240992</ele>
        <time>2021-11-02T09:06:27Z</time>
      </trkpt>
      <trkpt lat="43.89761" lon="7.56974">
        <ele>967.52379520994</ele>
        <time>2021-11-02T09:06:28Z</time>
      </trkpt>
      <trkpt lat="43.8976" lon="7.56974">
        <ele>967.52384815069</ele>
        <time>2021-11-02T09:06:29Z</time>
      </trkpt>
      <trkpt lat="43.89761" lon="7.56973">
        <ele>967.52380792419</ele>
        <time>2021-11-02T09:06:41Z</time>
      </trkpt>
      <trkpt lat="43.89761" lon="7.56973">
        <ele>968.52376350326</ele>
        <time>2021-11-02T09:06:42Z</time>
      </trkpt>
      <trkpt lat="43.89762" lon="7.56972">
        <ele>968.5237236677</ele>
        <time>2021-11-02T09:06:43Z</time>
      </trkpt>
      <trkpt lat="43.89762" lon="7.56971">
        <ele>969.52370124156</ele>
        <time>2021-11-02T09:06:45Z</time>
      </trkpt>
      <trkpt lat="43.89763" lon="7.56971">
        <ele>968.52366490489</ele>
        <time>2021-11-02T09:06:46Z</time>
      </trkpt>
      <trkpt lat="43.89763" lon="7.56971">
        <ele>968.52364066068</ele>
        <time>2021-11-02T09:06:47Z</time>
      </trkpt>
      <trkpt lat="43.89763" lon="7.56973">
        <ele>968.52366789371</ele>
        <time>2021-11-02T09:06:48Z</time>
      </trkpt>
      <trkpt lat="43.89764" lon="7.56973">
        <ele>968.52364923873</ele>
        <time>2021-11-02T09:06:51Z</time>
      </trkpt>
      <trkpt lat="43.89765" lon="7.56974">
        <ele>969.52361720063</ele>
        <time>2021-11-02T09:06:52Z</time>
      </trkpt>
      <trkpt lat="43.89765" lon="7.56974">
        <ele>969.52359954274</ele>
        <time>2021-11-02T09:06:58Z</time>
      </trkpt>
      <trkpt lat="43.89768" lon="7.56973">
        <ele>968.52345069705</ele>
        <time>2021-11-02T09:07:00Z</time>
      </trkpt>
      <trkpt lat="43.8977" lon="7.56971">
        <ele>967.52328567778</ele>
        <time>2021-11-02T09:07:02Z</time>
      </trkpt>
      <trkpt lat="43.89771" lon="7.56971">
        <ele>968.52323691192</ele>
        <time>2021-11-02T09:07:03Z</time>
      </trkpt>
      <trkpt lat="43.89772" lon="7.5697">
        <ele>968.52318061084</ele>
        <time>2021-11-02T09:07:04Z</time>
      </trkpt>
      <trkpt lat="43.89773" lon="7.56969">
        <ele>968.5231182234</ele>
        <time>2021-11-02T09:07:05Z</time>
      </trkpt>
      <trkpt lat="43.89773" lon="7.56968">
        <ele>968.52310237139</ele>
        <time>2021-11-02T09:07:10Z</time>
      </trkpt>
      <trkpt lat="43.89774" lon="7.56966">
        <ele>968.52300857174</ele>
        <time>2021-11-02T09:07:11Z</time>
      </trkpt>
      <trkpt lat="43.89775" lon="7.56965">
        <ele>968.5229721558</ele>
        <time>2021-11-02T09:07:12Z</time>
      </trkpt>
      <trkpt lat="43.89775" lon="7.56964">
        <ele>969.5229233258</ele>
        <time>2021-11-02T09:07:13Z</time>
      </trkpt>
      <trkpt lat="43.89776" lon="7.56964">
        <ele>968.52288155849</ele>
        <time>2021-11-02T09:07:14Z</time>
      </trkpt>
      <trkpt lat="43.89777" lon="7.56964">
        <ele>969.52284459235</ele>
        <time>2021-11-02T09:07:15Z</time>
      </trkpt>
      <trkpt lat="43.89777" lon="7.56963">
        <ele>969.52281474995</ele>
        <time>2021-11-02T09:07:16Z</time>
      </trkpt>
      <trkpt lat="43.89778" lon="7.56963">
        <ele>970.52277983909</ele>
        <time>2021-11-02T09:07:17Z</time>
      </trkpt>
      <trkpt lat="43.89778" lon="7.56962">
        <ele>971.52273667324</ele>
        <time>2021-11-02T09:07:18Z</time>
      </trkpt>
      <trkpt lat="43.89779" lon="7.56961">
        <ele>971.52269878747</ele>
        <time>2021-11-02T09:07:20Z</time>
      </trkpt>
      <trkpt lat="43.8978" lon="7.5696">
        <ele>970.52260960482</ele>
        <time>2021-11-02T09:07:21Z</time>
      </trkpt>
      <trkpt lat="43.89781" lon="7.56958">
        <ele>971.52254705301</ele>
        <time>2021-11-02T09:07:22Z</time>
      </trkpt>
      <trkpt lat="43.89781" lon="7.56957">
        <ele>971.52249400542</ele>
        <time>2021-11-02T09:07:23Z</time>
      </trkpt>
      <trkpt lat="43.89782" lon="7.56956">
        <ele>971.52245219762</ele>
        <time>2021-11-02T09:07:24Z</time>
      </trkpt>
      <trkpt lat="43.89783" lon="7.56956">
        <ele>971.52241630843</ele>
        <time>2021-11-02T09:07:25Z</time>
      </trkpt>
      <trkpt lat="43.89784" lon="7.56955">
        <ele>970.52232887746</ele>
        <time>2021-11-02T09:07:27Z</time>
      </trkpt>
      <trkpt lat="43.89785" lon="7.56954">
        <ele>970.52224576371</ele>
        <time>2021-11-02T09:07:28Z</time>
      </trkpt>
      <trkpt lat="43.89786" lon="7.56953">
        <ele>970.52216716501</ele>
        <time>2021-11-02T09:07:29Z</time>
      </trkpt>
      <trkpt lat="43.89788" lon="7.56952">
        <ele>971.52207970473</ele>
        <time>2021-11-02T09:07:30Z</time>
      </trkpt>
      <trkpt lat="43.89789" lon="7.5695">
        <ele>971.52201583507</ele>
        <time>2021-11-02T09:07:31Z</time>
      </trkpt>
      <trkpt lat="43.89789" lon="7.56949">
        <ele>970.52196489604</ele>
        <time>2021-11-02T09:07:32Z</time>
      </trkpt>
      <trkpt lat="43.89789" lon="7.56949">
        <ele>971.52199964008</ele>
        <time>2021-11-02T09:07:38Z</time>
      </trkpt>
      <trkpt lat="43.89788" lon="7.56952">
        <ele>970.52208203032</ele>
        <time>2021-11-02T09:07:40Z</time>
      </trkpt>
      <trkpt lat="43.89787" lon="7.56952">
        <ele>969.52210668858</ele>
        <time>2021-11-02T09:07:45Z</time>
      </trkpt>
      <trkpt lat="43.89789" lon="7.56952">
        <ele>969.52204253969</ele>
        <time>2021-11-02T09:07:46Z</time>
      </trkpt>
      <trkpt lat="43.8979" lon="7.56951">
        <ele>970.52196620528</ele>
        <time>2021-11-02T09:07:47Z</time>
      </trkpt>
      <trkpt lat="43.89791" lon="7.5695">
        <ele>969.52190670792</ele>
        <time>2021-11-02T09:07:48Z</time>
      </trkpt>
      <trkpt lat="43.89792" lon="7.5695">
        <ele>969.52185088347</ele>
        <time>2021-11-02T09:07:50Z</time>
      </trkpt>
      <trkpt lat="43.89793" lon="7.56948">
        <ele>970.52177428405</ele>
        <time>2021-11-02T09:07:51Z</time>
      </trkpt>
      <trkpt lat="43.89794" lon="7.56947">
        <ele>970.52171400701</ele>
        <time>2021-11-02T09:07:52Z</time>
      </trkpt>
      <trkpt lat="43.89795" lon="7.56946">
        <ele>970.52164366432</ele>
        <time>2021-11-02T09:07:53Z</time>
      </trkpt>
      <trkpt lat="43.89796" lon="7.56945">
        <ele>971.52154585285</ele>
        <time>2021-11-02T09:07:55Z</time>
      </trkpt>
      <trkpt lat="43.89797" lon="7.56943">
        <ele>971.521473806</ele>
        <time>2021-11-02T09:07:57Z</time>
      </trkpt>
      <trkpt lat="43.89797" lon="7.56943">
        <ele>971.5214607826</ele>
        <time>2021-11-02T09:07:58Z</time>
      </trkpt>
      <trkpt lat="43.89797" lon="7.56942">
        <ele>970.52142988112</ele>
        <time>2021-11-02T09:07:59Z</time>
      </trkpt>
      <trkpt lat="43.89798" lon="7.5694">
        <ele>970.52138804064</ele>
        <time>2021-11-02T09:08:02Z</time>
      </trkpt>
      <trkpt lat="43.89798" lon="7.5694">
        <ele>970.52136838449</ele>
        <time>2021-11-02T09:08:12Z</time>
      </trkpt>
      <trkpt lat="43.89798" lon="7.56938">
        <ele>971.52135240035</ele>
        <time>2021-11-02T09:08:13Z</time>
      </trkpt>
      <trkpt lat="43.89797" lon="7.56937">
        <ele>971.52135900328</ele>
        <time>2021-11-02T09:08:36Z</time>
      </trkpt>
      <trkpt lat="43.89797" lon="7.56936">
        <ele>970.52136511593</ele>
        <time>2021-11-02T09:08:37Z</time>
      </trkpt>
      <trkpt lat="43.89797" lon="7.56935">
        <ele>970.52133308171</ele>
        <time>2021-11-02T09:08:38Z</time>
      </trkpt>
      <trkpt lat="43.89798" lon="7.56934">
        <ele>971.52125760222</ele>
        <time>2021-11-02T09:08:40Z</time>
      </trkpt>
      <trkpt lat="43.89798" lon="7.56934">
        <ele>971.52125566897</ele>
        <time>2021-11-02T09:08:53Z</time>
      </trkpt>
      <trkpt lat="43.89799" lon="7.56932">
        <ele>971.52118506452</ele>
        <time>2021-11-02T09:08:54Z</time>
      </trkpt>
      <trkpt lat="43.898" lon="7.56931">
        <ele>971.52112840575</ele>
        <time>2021-11-02T09:08:56Z</time>
      </trkpt>
      <trkpt lat="43.898" lon="7.5693">
        <ele>971.5211130487</ele>
        <time>2021-11-02T09:09:06Z</time>
      </trkpt>
      <trkpt lat="43.89799" lon="7.56929">
        <ele>972.52111015058</ele>
        <time>2021-11-02T09:09:07Z</time>
      </trkpt>
      <trkpt lat="43.898" lon="7.56928">
        <ele>973.52107340234</ele>
        <time>2021-11-02T09:09:08Z</time>
      </trkpt>
      <trkpt lat="43.89801" lon="7.56928">
        <ele>974.52102396459</ele>
        <time>2021-11-02T09:09:10Z</time>
      </trkpt>
      <trkpt lat="43.89801" lon="7.56928">
        <ele>974.52099966492</ele>
        <time>2021-11-02T09:09:12Z</time>
      </trkpt>
      <trkpt lat="43.89803" lon="7.56927">
        <ele>975.52090941608</ele>
        <time>2021-11-02T09:09:14Z</time>
      </trkpt>
      <trkpt lat="43.89804" lon="7.56926">
        <ele>975.52082379829</ele>
        <time>2021-11-02T09:09:15Z</time>
      </trkpt>
      <trkpt lat="43.89805" lon="7.56925">
        <ele>975.52076734015</ele>
        <time>2021-11-02T09:09:16Z</time>
      </trkpt>
      <trkpt lat="43.89805" lon="7.56924">
        <ele>975.52073270518</ele>
        <time>2021-11-02T09:09:17Z</time>
      </trkpt>
      <trkpt lat="43.89806" lon="7.56923">
        <ele>974.52067919392</ele>
        <time>2021-11-02T09:09:18Z</time>
      </trkpt>
      <trkpt lat="43.89807" lon="7.56922">
        <ele>974.52063828547</ele>
        <time>2021-11-02T09:09:21Z</time>
      </trkpt>
      <trkpt lat="43.89809" lon="7.56921">
        <ele>973.52048556872</ele>
        <time>2021-11-02T09:09:22Z</time>
      </trkpt>
      <trkpt lat="43.8981" lon="7.56921">
        <ele>973.52045422286</ele>
        <time>2021-11-02T09:09:23Z</time>
      </trkpt>
      <trkpt lat="43.8981" lon="7.56922">
        <ele>973.52045606712</ele>
        <time>2021-11-02T09:09:28Z</time>
      </trkpt>
      <trkpt lat="43.89811" lon="7.56921">
        <ele>972.52041167052</ele>
        <time>2021-11-02T09:09:29Z</time>
      </trkpt>
      <trkpt lat="43.89811" lon="7.5692">
        <ele>972.52036165082</ele>
        <time>2021-11-02T09:09:30Z</time>
      </trkpt>
      <trkpt lat="43.89812" lon="7.5692">
        <ele>972.52032866954</ele>
        <time>2021-11-02T09:09:32Z</time>
      </trkpt>
      <trkpt lat="43.89813" lon="7.5692">
        <ele>971.52026509026</ele>
        <time>2021-11-02T09:09:33Z</time>
      </trkpt>
      <trkpt lat="43.89814" lon="7.5692">
        <ele>971.52022465898</ele>
        <time>2021-11-02T09:09:34Z</time>
      </trkpt>
      <trkpt lat="43.89815" lon="7.56921">
        <ele>971.520193982</ele>
        <time>2021-11-02T09:09:35Z</time>
      </trkpt>
      <trkpt lat="43.89815" lon="7.56921">
        <ele>971.52016026304</ele>
        <time>2021-11-02T09:09:37Z</time>
      </trkpt>
      <trkpt lat="43.89817" lon="7.5692">
        <ele>973.52009005912</ele>
        <time>2021-11-02T09:09:38Z</time>
      </trkpt>
      <trkpt lat="43.89818" lon="7.5692">
        <ele>973.52002822654</ele>
        <time>2021-11-02T09:09:40Z</time>
      </trkpt>
      <trkpt lat="43.8982" lon="7.56919">
        <ele>974.51990288246</ele>
        <time>2021-11-02T09:09:42Z</time>
      </trkpt>
      <trkpt lat="43.89822" lon="7.56918">
        <ele>975.51979144297</ele>
        <time>2021-11-02T09:09:43Z</time>
      </trkpt>
      <trkpt lat="43.89822" lon="7.56917">
        <ele>976.51975054138</ele>
        <time>2021-11-02T09:09:44Z</time>
      </trkpt>
      <trkpt lat="43.89823" lon="7.56916">
        <ele>976.51970780449</ele>
        <time>2021-11-02T09:09:46Z</time>
      </trkpt>
      <trkpt lat="43.89825" lon="7.56916">
        <ele>977.51961025473</ele>
        <time>2021-11-02T09:09:47Z</time>
      </trkpt>
      <trkpt lat="43.89825" lon="7.56915">
        <ele>977.51955963156</ele>
        <time>2021-11-02T09:09:48Z</time>
      </trkpt>
      <trkpt lat="43.89826" lon="7.56915">
        <ele>978.51952450721</ele>
        <time>2021-11-02T09:09:49Z</time>
      </trkpt>
      <trkpt lat="43.89827" lon="7.56914">
        <ele>977.51948406511</ele>
        <time>2021-11-02T09:09:50Z</time>
      </trkpt>
      <trkpt lat="43.89828" lon="7.56914">
        <ele>977.51942441494</ele>
        <time>2021-11-02T09:09:52Z</time>
      </trkpt>
      <trkpt lat="43.89829" lon="7.56913">
        <ele>979.51936070882</ele>
        <time>2021-11-02T09:09:53Z</time>
      </trkpt>
      <trkpt lat="43.8983" lon="7.56912">
        <ele>979.51928520891</ele>
        <time>2021-11-02T09:09:54Z</time>
      </trkpt>
      <trkpt lat="43.89831" lon="7.56912">
        <ele>979.51922877457</ele>
        <time>2021-11-02T09:09:56Z</time>
      </trkpt>
      <trkpt lat="43.89833" lon="7.56912">
        <ele>979.51914365357</ele>
        <time>2021-11-02T09:09:57Z</time>
      </trkpt>
      <trkpt lat="43.89833" lon="7.56911">
        <ele>978.51909471311</ele>
        <time>2021-11-02T09:09:58Z</time>
      </trkpt>
      <trkpt lat="43.89834" lon="7.56911">
        <ele>978.51904286196</ele>
        <time>2021-11-02T09:09:59Z</time>
      </trkpt>
      <trkpt lat="43.89834" lon="7.56911">
        <ele>978.51904286196</ele>
        <time>2021-11-02T09:10:00Z</time>
      </trkpt>
      <trkpt lat="43.89837" lon="7.56909">
        <ele>979.51885473181</ele>
        <time>2021-11-02T09:10:02Z</time>
      </trkpt>
      <trkpt lat="43.89839" lon="7.56908">
        <ele>978.51875837476</ele>
        <time>2021-11-02T09:10:03Z</time>
      </trkpt>
      <trkpt lat="43.8984" lon="7.56908">
        <ele>979.51868823107</ele>
        <time>2021-11-02T09:10:05Z</time>
      </trkpt>
      <trkpt lat="43.89842" lon="7.56907">
        <ele>979.51855751296</ele>
        <time>2021-11-02T09:10:06Z</time>
      </trkpt>
      <trkpt lat="43.89844" lon="7.56906">
        <ele>979.51847513518</ele>
        <time>2021-11-02T09:10:07Z</time>
      </trkpt>
      <trkpt lat="43.89845" lon="7.56905">
        <ele>979.51839618513</ele>
        <time>2021-11-02T09:10:08Z</time>
      </trkpt>
      <trkpt lat="43.89846" lon="7.56903">
        <ele>979.5183363747</ele>
        <time>2021-11-02T09:10:09Z</time>
      </trkpt>
      <trkpt lat="43.89847" lon="7.56901">
        <ele>978.51822084524</ele>
        <time>2021-11-02T09:10:11Z</time>
      </trkpt>
      <trkpt lat="43.89848" lon="7.569">
        <ele>978.51815927474</ele>
        <time>2021-11-02T09:10:13Z</time>
      </trkpt>
      <trkpt lat="43.89849" lon="7.569">
        <ele>977.51812467956</ele>
        <time>2021-11-02T09:10:14Z</time>
      </trkpt>
      <trkpt lat="43.89849" lon="7.56899">
        <ele>977.51808926783</ele>
        <time>2021-11-02T09:10:17Z</time>
      </trkpt>
      <trkpt lat="43.89849" lon="7.56901">
        <ele>977.51809712623</ele>
        <time>2021-11-02T09:10:18Z</time>
      </trkpt>
      <trkpt lat="43.89849" lon="7.569">
        <ele>976.51811209919</ele>
        <time>2021-11-02T09:10:45Z</time>
      </trkpt>
      <trkpt lat="43.8985" lon="7.56899">
        <ele>977.51804952155</ele>
        <time>2021-11-02T09:10:46Z</time>
      </trkpt>
      <trkpt lat="43.89851" lon="7.56898">
        <ele>977.51798263019</ele>
        <time>2021-11-02T09:10:48Z</time>
      </trkpt>
      <trkpt lat="43.89852" lon="7.56896">
        <ele>976.51789966263</ele>
        <time>2021-11-02T09:10:49Z</time>
      </trkpt>
      <trkpt lat="43.89853" lon="7.56895">
        <ele>975.51782123027</ele>
        <time>2021-11-02T09:10:50Z</time>
      </trkpt>
      <trkpt lat="43.89854" lon="7.56895">
        <ele>976.51775063507</ele>
        <time>2021-11-02T09:10:52Z</time>
      </trkpt>
      <trkpt lat="43.89855" lon="7.56894">
        <ele>977.51769592574</ele>
        <time>2021-11-02T09:10:53Z</time>
      </trkpt>
      <trkpt lat="43.89856" lon="7.56894">
        <ele>977.51764477552</ele>
        <time>2021-11-02T09:10:54Z</time>
      </trkpt>
      <trkpt lat="43.89857" lon="7.56893">
        <ele>977.5175884959</ele>
        <time>2021-11-02T09:10:55Z</time>
      </trkpt>
      <trkpt lat="43.89859" lon="7.56891">
        <ele>977.51747528303</ele>
        <time>2021-11-02T09:10:57Z</time>
      </trkpt>
      <trkpt lat="43.8986" lon="7.56891">
        <ele>977.51742326661</ele>
        <time>2021-11-02T09:10:58Z</time>
      </trkpt>
      <trkpt lat="43.89861" lon="7.5689">
        <ele>978.51735554617</ele>
        <time>2021-11-02T09:10:59Z</time>
      </trkpt>
      <trkpt lat="43.89861" lon="7.56889">
        <ele>978.51730575331</ele>
        <time>2021-11-02T09:11:01Z</time>
      </trkpt>
      <trkpt lat="43.89862" lon="7.56887">
        <ele>978.51722710468</ele>
        <time>2021-11-02T09:11:02Z</time>
      </trkpt>
      <trkpt lat="43.89863" lon="7.56886">
        <ele>978.51717648294</ele>
        <time>2021-11-02T09:11:03Z</time>
      </trkpt>
      <trkpt lat="43.89864" lon="7.56885">
        <ele>979.51711898331</ele>
        <time>2021-11-02T09:11:05Z</time>
      </trkpt>
      <trkpt lat="43.89865" lon="7.56884">
        <ele>979.51701773231</ele>
        <time>2021-11-02T09:11:07Z</time>
      </trkpt>
      <trkpt lat="43.89866" lon="7.56884">
        <ele>979.51696196175</ele>
        <time>2021-11-02T09:11:08Z</time>
      </trkpt>
      <trkpt lat="43.89867" lon="7.56883">
        <ele>979.51691703848</ele>
        <time>2021-11-02T09:11:09Z</time>
      </trkpt>
      <trkpt lat="43.89868" lon="7.56882">
        <ele>980.51685649565</ele>
        <time>2021-11-02T09:11:10Z</time>
      </trkpt>
      <trkpt lat="43.89869" lon="7.56881">
        <ele>980.51679698073</ele>
        <time>2021-11-02T09:11:11Z</time>
      </trkpt>
      <trkpt lat="43.89869" lon="7.56881">
        <ele>980.51674918961</ele>
        <time>2021-11-02T09:11:12Z</time>
      </trkpt>
      <trkpt lat="43.8987" lon="7.5688">
        <ele>980.51671336342</ele>
        <time>2021-11-02T09:11:13Z</time>
      </trkpt>
      <trkpt lat="43.89871" lon="7.56879">
        <ele>980.51666426858</ele>
        <time>2021-11-02T09:11:15Z</time>
      </trkpt>
      <trkpt lat="43.89872" lon="7.56879">
        <ele>980.51657710984</ele>
        <time>2021-11-02T09:11:17Z</time>
      </trkpt>
      <trkpt lat="43.89873" lon="7.56878">
        <ele>981.5165185675</ele>
        <time>2021-11-02T09:11:18Z</time>
      </trkpt>
      <trkpt lat="43.89874" lon="7.56876">
        <ele>981.51646832872</ele>
        <time>2021-11-02T09:11:19Z</time>
      </trkpt>
      <trkpt lat="43.89874" lon="7.56876">
        <ele>981.51641529914</ele>
        <time>2021-11-02T09:11:21Z</time>
      </trkpt>
      <trkpt lat="43.89876" lon="7.56875">
        <ele>981.51634053232</ele>
        <time>2021-11-02T09:11:22Z</time>
      </trkpt>
      <trkpt lat="43.89877" lon="7.56875">
        <ele>982.51629367902</ele>
        <time>2021-11-02T09:11:23Z</time>
      </trkpt>
      <trkpt lat="43.89878" lon="7.56875">
        <ele>982.51624025888</ele>
        <time>2021-11-02T09:11:24Z</time>
      </trkpt>
      <trkpt lat="43.8988" lon="7.56874">
        <ele>984.516105967</ele>
        <time>2021-11-02T09:11:27Z</time>
      </trkpt>
      <trkpt lat="43.89882" lon="7.56871">
        <ele>983.51598168561</ele>
        <time>2021-11-02T09:11:28Z</time>
      </trkpt>
      <trkpt lat="43.89882" lon="7.5687">
        <ele>982.51593392542</ele>
        <time>2021-11-02T09:11:29Z</time>
      </trkpt>
      <trkpt lat="43.89883" lon="7.56868">
        <ele>982.51586608696</ele>
        <time>2021-11-02T09:11:31Z</time>
      </trkpt>
      <trkpt lat="43.89885" lon="7.56867">
        <ele>980.51575020732</ele>
        <time>2021-11-02T09:11:32Z</time>
      </trkpt>
      <trkpt lat="43.89886" lon="7.56866">
        <ele>980.51567304315</ele>
        <time>2021-11-02T09:11:33Z</time>
      </trkpt>
      <trkpt lat="43.89887" lon="7.56866">
        <ele>979.51560281961</ele>
        <time>2021-11-02T09:11:34Z</time>
      </trkpt>
      <trkpt lat="43.89888" lon="7.56865">
        <ele>980.51555984391</ele>
        <time>2021-11-02T09:11:35Z</time>
      </trkpt>
      <trkpt lat="43.89888" lon="7.56863">
        <ele>979.51550264458</ele>
        <time>2021-11-02T09:11:36Z</time>
      </trkpt>
      <trkpt lat="43.89889" lon="7.56862">
        <ele>979.51545750729</ele>
        <time>2021-11-02T09:11:37Z</time>
      </trkpt>
      <trkpt lat="43.89889" lon="7.5686">
        <ele>979.51542634933</ele>
        <time>2021-11-02T09:11:38Z</time>
      </trkpt>
      <trkpt lat="43.8989" lon="7.5686">
        <ele>979.51538746533</ele>
        <time>2021-11-02T09:11:39Z</time>
      </trkpt>
      <trkpt lat="43.8989" lon="7.56859">
        <ele>979.51535032011</ele>
        <time>2021-11-02T09:11:40Z</time>
      </trkpt>
      <trkpt lat="43.8989" lon="7.56857">
        <ele>978.51531911565</ele>
        <time>2021-11-02T09:11:41Z</time>
      </trkpt>
      <trkpt lat="43.8989" lon="7.56855">
        <ele>978.51527879583</ele>
        <time>2021-11-02T09:11:42Z</time>
      </trkpt>
      <trkpt lat="43.89891" lon="7.56855">
        <ele>978.51525241386</ele>
        <time>2021-11-02T09:11:43Z</time>
      </trkpt>
      <trkpt lat="43.89891" lon="7.56854">
        <ele>978.51521331025</ele>
        <time>2021-11-02T09:11:44Z</time>
      </trkpt>
      <trkpt lat="43.89891" lon="7.56852">
        <ele>979.51517048006</ele>
        <time>2021-11-02T09:11:46Z</time>
      </trkpt>
      <trkpt lat="43.89892" lon="7.56849">
        <ele>979.51510824666</ele>
        <time>2021-11-02T09:11:48Z</time>
      </trkpt>
      <trkpt lat="43.89892" lon="7.56848">
        <ele>979.51505424066</ele>
        <time>2021-11-02T09:11:49Z</time>
      </trkpt>
      <trkpt lat="43.89893" lon="7.56847">
        <ele>979.51499061468</ele>
        <time>2021-11-02T09:11:50Z</time>
      </trkpt>
      <trkpt lat="43.89894" lon="7.56846">
        <ele>979.51494336937</ele>
        <time>2021-11-02T09:11:52Z</time>
      </trkpt>
      <trkpt lat="43.89895" lon="7.56845">
        <ele>979.5148793349</ele>
        <time>2021-11-02T09:11:53Z</time>
      </trkpt>
      <trkpt lat="43.89895" lon="7.56843">
        <ele>980.51485108463</ele>
        <time>2021-11-02T09:11:54Z</time>
      </trkpt>
      <trkpt lat="43.89895" lon="7.56842">
        <ele>980.51482549632</ele>
        <time>2021-11-02T09:11:56Z</time>
      </trkpt>
      <trkpt lat="43.89895" lon="7.5684">
        <ele>980.51477980569</ele>
        <time>2021-11-02T09:11:57Z</time>
      </trkpt>
      <trkpt lat="43.89896" lon="7.56839">
        <ele>981.51474080447</ele>
        <time>2021-11-02T09:11:58Z</time>
      </trkpt>
      <trkpt lat="43.89896" lon="7.56837">
        <ele>981.51470198999</ele>
        <time>2021-11-02T09:11:59Z</time>
      </trkpt>
      <trkpt lat="43.89897" lon="7.56835">
        <ele>980.51461384678</ele>
        <time>2021-11-02T09:12:02Z</time>
      </trkpt>
      <trkpt lat="43.89898" lon="7.56833">
        <ele>981.51452350492</ele>
        <time>2021-11-02T09:12:03Z</time>
      </trkpt>
      <trkpt lat="43.89898" lon="7.56831">
        <ele>982.51447418646</ele>
        <time>2021-11-02T09:12:04Z</time>
      </trkpt>
      <trkpt lat="43.89899" lon="7.5683">
        <ele>982.51442249824</ele>
        <time>2021-11-02T09:12:05Z</time>
      </trkpt>
      <trkpt lat="43.89899" lon="7.56828">
        <ele>982.51438920022</ele>
        <time>2021-11-02T09:12:06Z</time>
      </trkpt>
      <trkpt lat="43.899" lon="7.56826">
        <ele>983.51430934774</ele>
        <time>2021-11-02T09:12:08Z</time>
      </trkpt>
      <trkpt lat="43.899" lon="7.56825">
        <ele>984.51427197827</ele>
        <time>2021-11-02T09:12:09Z</time>
      </trkpt>
      <trkpt lat="43.89902" lon="7.56823">
        <ele>985.5141863137</ele>
        <time>2021-11-02T09:12:10Z</time>
      </trkpt>
      <trkpt lat="43.89902" lon="7.56822">
        <ele>986.51414822323</ele>
        <time>2021-11-02T09:12:11Z</time>
      </trkpt>
      <trkpt lat="43.89902" lon="7.56821">
        <ele>986.51412411821</ele>
        <time>2021-11-02T09:12:12Z</time>
      </trkpt>
      <trkpt lat="43.89903" lon="7.5682">
        <ele>986.51408944352</ele>
        <time>2021-11-02T09:12:13Z</time>
      </trkpt>
      <trkpt lat="43.89903" lon="7.56819">
        <ele>986.514070518</ele>
        <time>2021-11-02T09:12:14Z</time>
      </trkpt>
      <trkpt lat="43.89902" lon="7.56817">
        <ele>985.51405844192</ele>
        <time>2021-11-02T09:12:16Z</time>
      </trkpt>
      <trkpt lat="43.89902" lon="7.56815">
        <ele>986.51402739092</ele>
        <time>2021-11-02T09:12:18Z</time>
      </trkpt>
      <trkpt lat="43.89902" lon="7.56813">
        <ele>985.51399443108</ele>
        <time>2021-11-02T09:12:19Z</time>
      </trkpt>
      <trkpt lat="43.89902" lon="7.56812">
        <ele>986.51397616211</ele>
        <time>2021-11-02T09:12:20Z</time>
      </trkpt>
      <trkpt lat="43.89903" lon="7.5681">
        <ele>986.51387444255</ele>
        <time>2021-11-02T09:12:22Z</time>
      </trkpt>
      <trkpt lat="43.89904" lon="7.56808">
        <ele>985.51383931743</ele>
        <time>2021-11-02T09:12:23Z</time>
      </trkpt>
      <trkpt lat="43.89904" lon="7.56806">
        <ele>985.51378888131</ele>
        <time>2021-11-02T09:12:24Z</time>
      </trkpt>
      <trkpt lat="43.89905" lon="7.56803">
        <ele>985.51368818083</ele>
        <time>2021-11-02T09:12:26Z</time>
      </trkpt>
      <trkpt lat="43.89906" lon="7.56802">
        <ele>985.5136196526</ele>
        <time>2021-11-02T09:12:27Z</time>
      </trkpt>
      <trkpt lat="43.89906" lon="7.568">
        <ele>985.51356437326</ele>
        <time>2021-11-02T09:12:28Z</time>
      </trkpt>
      <trkpt lat="43.89907" lon="7.56798">
        <ele>986.51350407413</ele>
        <time>2021-11-02T09:12:29Z</time>
      </trkpt>
      <trkpt lat="43.89907" lon="7.56797">
        <ele>986.51346785482</ele>
        <time>2021-11-02T09:12:30Z</time>
      </trkpt>
      <trkpt lat="43.89908" lon="7.56796">
        <ele>986.51343718845</ele>
        <time>2021-11-02T09:12:31Z</time>
      </trkpt>
      <trkpt lat="43.89908" lon="7.56794">
        <ele>986.51338947184</ele>
        <time>2021-11-02T09:12:32Z</time>
      </trkpt>
      <trkpt lat="43.89908" lon="7.56793">
        <ele>986.5133607779</ele>
        <time>2021-11-02T09:12:33Z</time>
      </trkpt>
      <trkpt lat="43.89908" lon="7.56792">
        <ele>986.51332422086</ele>
        <time>2021-11-02T09:12:34Z</time>
      </trkpt>
      <trkpt lat="43.89909" lon="7.5679">
        <ele>986.51327605926</ele>
        <time>2021-11-02T09:12:35Z</time>
      </trkpt>
      <trkpt lat="43.89909" lon="7.56789">
        <ele>986.51325523493</ele>
        <time>2021-11-02T09:12:36Z</time>
      </trkpt>
      <trkpt lat="43.89909" lon="7.56787">
        <ele>985.51321101838</ele>
        <time>2021-11-02T09:12:37Z</time>
      </trkpt>
      <trkpt lat="43.8991" lon="7.56786">
        <ele>985.51318417599</ele>
        <time>2021-11-02T09:12:38Z</time>
      </trkpt>
      <trkpt lat="43.8991" lon="7.56785">
        <ele>985.51315579852</ele>
        <time>2021-11-02T09:12:39Z</time>
      </trkpt>
      <trkpt lat="43.8991" lon="7.56784">
        <ele>985.51310819276</ele>
        <time>2021-11-02T09:12:40Z</time>
      </trkpt>
      <trkpt lat="43.89911" lon="7.56783">
        <ele>985.51303716333</ele>
        <time>2021-11-02T09:12:41Z</time>
      </trkpt>
      <trkpt lat="43.89912" lon="7.56781">
        <ele>984.51295439703</ele>
        <time>2021-11-02T09:12:42Z</time>
      </trkpt>
      <trkpt lat="43.89913" lon="7.5678">
        <ele>985.51290851174</ele>
        <time>2021-11-02T09:12:43Z</time>
      </trkpt>
      <trkpt lat="43.89913" lon="7.56778">
        <ele>985.51285657103</ele>
        <time>2021-11-02T09:12:44Z</time>
      </trkpt>
      <trkpt lat="43.89914" lon="7.56777">
        <ele>985.5128140957</ele>
        <time>2021-11-02T09:12:45Z</time>
      </trkpt>
      <trkpt lat="43.89914" lon="7.56776">
        <ele>985.51277209267</ele>
        <time>2021-11-02T09:12:46Z</time>
      </trkpt>
      <trkpt lat="43.89915" lon="7.56775">
        <ele>984.51271969188</ele>
        <time>2021-11-02T09:12:47Z</time>
      </trkpt>
      <trkpt lat="43.89916" lon="7.56773">
        <ele>984.51265947921</ele>
        <time>2021-11-02T09:12:48Z</time>
      </trkpt>
      <trkpt lat="43.89916" lon="7.56772">
        <ele>983.51260858973</ele>
        <time>2021-11-02T09:12:49Z</time>
      </trkpt>
      <trkpt lat="43.89917" lon="7.56772">
        <ele>984.51256569954</ele>
        <time>2021-11-02T09:12:50Z</time>
      </trkpt>
      <trkpt lat="43.89918" lon="7.5677">
        <ele>982.51249541758</ele>
        <time>2021-11-02T09:12:52Z</time>
      </trkpt>
      <trkpt lat="43.89918" lon="7.5677">
        <ele>983.51247719805</ele>
        <time>2021-11-02T09:12:53Z</time>
      </trkpt>
      <trkpt lat="43.89918" lon="7.56769">
        <ele>983.51245304237</ele>
        <time>2021-11-02T09:12:54Z</time>
      </trkpt>
      <trkpt lat="43.89919" lon="7.56768">
        <ele>983.51242048115</ele>
        <time>2021-11-02T09:12:55Z</time>
      </trkpt>
      <trkpt lat="43.8992" lon="7.56766">
        <ele>982.51234536607</ele>
        <time>2021-11-02T09:12:57Z</time>
      </trkpt>
      <trkpt lat="43.8992" lon="7.56765">
        <ele>981.51229097076</ele>
        <time>2021-11-02T09:12:58Z</time>
      </trkpt>
      <trkpt lat="43.89921" lon="7.56764">
        <ele>982.51224112072</ele>
        <time>2021-11-02T09:12:59Z</time>
      </trkpt>
      <trkpt lat="43.89923" lon="7.56762">
        <ele>982.51212350405</ele>
        <time>2021-11-02T09:13:01Z</time>
      </trkpt>
      <trkpt lat="43.89923" lon="7.5676">
        <ele>983.51207386707</ele>
        <time>2021-11-02T09:13:03Z</time>
      </trkpt>
      <trkpt lat="43.89923" lon="7.56759">
        <ele>983.51203934309</ele>
        <time>2021-11-02T09:13:04Z</time>
      </trkpt>
      <trkpt lat="43.89924" lon="7.56758">
        <ele>983.51198411121</ele>
        <time>2021-11-02T09:13:05Z</time>
      </trkpt>
      <trkpt lat="43.89925" lon="7.56756">
        <ele>984.51188503555</ele>
        <time>2021-11-02T09:13:07Z</time>
      </trkpt>
      <trkpt lat="43.89926" lon="7.56754">
        <ele>985.51183356759</ele>
        <time>2021-11-02T09:13:08Z</time>
      </trkpt>
      <trkpt lat="43.89926" lon="7.56752">
        <ele>984.51179946708</ele>
        <time>2021-11-02T09:13:09Z</time>
      </trkpt>
      <trkpt lat="43.89926" lon="7.56749">
        <ele>985.51174351722</ele>
        <time>2021-11-02T09:13:11Z</time>
      </trkpt>
      <trkpt lat="43.89926" lon="7.56746">
        <ele>987.51169287037</ele>
        <time>2021-11-02T09:13:13Z</time>
      </trkpt>
      <trkpt lat="43.89927" lon="7.56744">
        <ele>988.51163927056</ele>
        <time>2021-11-02T09:13:14Z</time>
      </trkpt>
      <trkpt lat="43.89927" lon="7.56743">
        <ele>988.51158481414</ele>
        <time>2021-11-02T09:13:15Z</time>
      </trkpt>
      <trkpt lat="43.89928" lon="7.56741">
        <ele>988.51151973908</ele>
        <time>2021-11-02T09:13:17Z</time>
      </trkpt>
      <trkpt lat="43.89928" lon="7.5674">
        <ele>988.51150385765</ele>
        <time>2021-11-02T09:13:18Z</time>
      </trkpt>
      <trkpt lat="43.89929" lon="7.5674">
        <ele>988.51147160477</ele>
        <time>2021-11-02T09:13:19Z</time>
      </trkpt>
      <trkpt lat="43.89929" lon="7.56739">
        <ele>988.51142607136</ele>
        <time>2021-11-02T09:13:22Z</time>
      </trkpt>
      <trkpt lat="43.89931" lon="7.56736">
        <ele>989.51127668881</ele>
        <time>2021-11-02T09:13:23Z</time>
      </trkpt>
      <trkpt lat="43.89932" lon="7.56735">
        <ele>990.51122417343</ele>
        <time>2021-11-02T09:13:24Z</time>
      </trkpt>
      <trkpt lat="43.89932" lon="7.56735">
        <ele>990.51119942824</ele>
        <time>2021-11-02T09:13:25Z</time>
      </trkpt>
      <trkpt lat="43.89933" lon="7.56733">
        <ele>990.51114864939</ele>
        <time>2021-11-02T09:13:27Z</time>
      </trkpt>
      <trkpt lat="43.89933" lon="7.56732">
        <ele>990.51110779747</ele>
        <time>2021-11-02T09:13:28Z</time>
      </trkpt>
      <trkpt lat="43.89934" lon="7.56732">
        <ele>990.51105592378</ele>
        <time>2021-11-02T09:13:29Z</time>
      </trkpt>
      <trkpt lat="43.89935" lon="7.56731">
        <ele>990.51101370468</ele>
        <time>2021-11-02T09:13:30Z</time>
      </trkpt>
      <trkpt lat="43.89935" lon="7.56729">
        <ele>990.51097151683</ele>
        <time>2021-11-02T09:13:31Z</time>
      </trkpt>
      <trkpt lat="43.89936" lon="7.56727">
        <ele>990.51090195173</ele>
        <time>2021-11-02T09:13:33Z</time>
      </trkpt>
      <trkpt lat="43.89937" lon="7.56726">
        <ele>990.51084500236</ele>
        <time>2021-11-02T09:13:34Z</time>
      </trkpt>
      <trkpt lat="43.89937" lon="7.56726">
        <ele>990.51082376528</ele>
        <time>2021-11-02T09:13:35Z</time>
      </trkpt>
      <trkpt lat="43.89937" lon="7.56724">
        <ele>990.51078294848</ele>
        <time>2021-11-02T09:13:37Z</time>
      </trkpt>
      <trkpt lat="43.89937" lon="7.56723">
        <ele>990.51077429755</ele>
        <time>2021-11-02T09:13:38Z</time>
      </trkpt>
      <trkpt lat="43.89937" lon="7.56722">
        <ele>990.5107618056</ele>
        <time>2021-11-02T09:13:39Z</time>
      </trkpt>
      <trkpt lat="43.89937" lon="7.5672">
        <ele>990.51070428924</ele>
        <time>2021-11-02T09:13:41Z</time>
      </trkpt>
      <trkpt lat="43.89938" lon="7.56719">
        <ele>990.51065882571</ele>
        <time>2021-11-02T09:13:42Z</time>
      </trkpt>
      <trkpt lat="43.89939" lon="7.56718">
        <ele>990.51059533167</ele>
        <time>2021-11-02T09:13:43Z</time>
      </trkpt>
      <trkpt lat="43.89939" lon="7.56716">
        <ele>990.51054240848</ele>
        <time>2021-11-02T09:13:44Z</time>
      </trkpt>
      <trkpt lat="43.8994" lon="7.56716">
        <ele>990.5105094442</ele>
        <time>2021-11-02T09:13:45Z</time>
      </trkpt>
      <trkpt lat="43.8994" lon="7.56715">
        <ele>990.51046851185</ele>
        <time>2021-11-02T09:13:46Z</time>
      </trkpt>
      <trkpt lat="43.89941" lon="7.56713">
        <ele>991.51041812385</ele>
        <time>2021-11-02T09:13:47Z</time>
      </trkpt>
      <trkpt lat="43.89941" lon="7.56713">
        <ele>991.51038830733</ele>
        <time>2021-11-02T09:13:48Z</time>
      </trkpt>
      <trkpt lat="43.89942" lon="7.56712">
        <ele>991.51034613761</ele>
        <time>2021-11-02T09:13:49Z</time>
      </trkpt>
      <trkpt lat="43.89942" lon="7.56711">
        <ele>992.510330078</ele>
        <time>2021-11-02T09:13:50Z</time>
      </trkpt>
      <trkpt lat="43.89942" lon="7.5671">
        <ele>993.51029474762</ele>
        <time>2021-11-02T09:13:51Z</time>
      </trkpt>
      <trkpt lat="43.89943" lon="7.56709">
        <ele>993.51024723698</ele>
        <time>2021-11-02T09:13:52Z</time>
      </trkpt>
      <trkpt lat="43.89944" lon="7.56708">
        <ele>994.51019060177</ele>
        <time>2021-11-02T09:13:53Z</time>
      </trkpt>
      <trkpt lat="43.89944" lon="7.56708">
        <ele>994.51016105275</ele>
        <time>2021-11-02T09:13:54Z</time>
      </trkpt>
      <trkpt lat="43.89945" lon="7.56708">
        <ele>993.51012502111</ele>
        <time>2021-11-02T09:13:55Z</time>
      </trkpt>
      <trkpt lat="43.89946" lon="7.56707">
        <ele>993.51006498505</ele>
        <time>2021-11-02T09:13:56Z</time>
      </trkpt>
      <trkpt lat="43.89947" lon="7.56706">
        <ele>993.51000105652</ele>
        <time>2021-11-02T09:13:58Z</time>
      </trkpt>
      <trkpt lat="43.89947" lon="7.56705">
        <ele>993.50996313029</ele>
        <time>2021-11-02T09:13:59Z</time>
      </trkpt>
      <trkpt lat="43.89948" lon="7.56704">
        <ele>993.50991549885</ele>
        <time>2021-11-02T09:14:01Z</time>
      </trkpt>
      <trkpt lat="43.89948" lon="7.56704">
        <ele>993.50991549885</ele>
        <time>2021-11-02T09:14:02Z</time>
      </trkpt>
      <trkpt lat="43.89949" lon="7.56702">
        <ele>993.50982367404</ele>
        <time>2021-11-02T09:14:03Z</time>
      </trkpt>
      <trkpt lat="43.8995" lon="7.56701">
        <ele>994.5097775046</ele>
        <time>2021-11-02T09:14:04Z</time>
      </trkpt>
      <trkpt lat="43.8995" lon="7.56701">
        <ele>994.50973613253</ele>
        <time>2021-11-02T09:14:05Z</time>
      </trkpt>
      <trkpt lat="43.89951" lon="7.567">
        <ele>993.50968988264</ele>
        <time>2021-11-02T09:14:06Z</time>
      </trkpt>
      <trkpt lat="43.89952" lon="7.56699">
        <ele>993.50964672938</ele>
        <time>2021-11-02T09:14:07Z</time>
      </trkpt>
      <trkpt lat="43.89952" lon="7.56699">
        <ele>993.5096028066</ele>
        <time>2021-11-02T09:14:08Z</time>
      </trkpt>
      <trkpt lat="43.89953" lon="7.56698">
        <ele>994.50954461622</ele>
        <time>2021-11-02T09:14:10Z</time>
      </trkpt>
      <trkpt lat="43.89954" lon="7.56696">
        <ele>994.50947168189</ele>
        <time>2021-11-02T09:14:11Z</time>
      </trkpt>
      <trkpt lat="43.89955" lon="7.56696">
        <ele>994.50940535122</ele>
        <time>2021-11-02T09:14:13Z</time>
      </trkpt>
      <trkpt lat="43.89955" lon="7.56696">
        <ele>994.50940535122</ele>
        <time>2021-11-02T09:14:15Z</time>
      </trkpt>
      <trkpt lat="43.89957" lon="7.56694">
        <ele>994.50927527044</ele>
        <time>2021-11-02T09:14:16Z</time>
      </trkpt>
      <trkpt lat="43.89958" lon="7.56694">
        <ele>994.50923462267</ele>
        <time>2021-11-02T09:14:17Z</time>
      </trkpt>
      <trkpt lat="43.89958" lon="7.56693">
        <ele>995.50919919019</ele>
        <time>2021-11-02T09:14:18Z</time>
      </trkpt>
      <trkpt lat="43.89959" lon="7.56693">
        <ele>995.50917390262</ele>
        <time>2021-11-02T09:14:21Z</time>
      </trkpt>
      <trkpt lat="43.89961" lon="7.56692">
        <ele>996.50905574802</ele>
        <time>2021-11-02T09:14:23Z</time>
      </trkpt>
      <trkpt lat="43.89962" lon="7.56691">
        <ele>996.50898413575</ele>
        <time>2021-11-02T09:14:24Z</time>
      </trkpt>
      <trkpt lat="43.89963" lon="7.56691">
        <ele>997.50892606374</ele>
        <time>2021-11-02T09:14:25Z</time>
      </trkpt>
      <trkpt lat="43.89964" lon="7.5669">
        <ele>998.50888312362</ele>
        <time>2021-11-02T09:14:26Z</time>
      </trkpt>
      <trkpt lat="43.89965" lon="7.5669">
        <ele>998.50881722025</ele>
        <time>2021-11-02T09:14:27Z</time>
      </trkpt>
      <trkpt lat="43.89966" lon="7.56689">
        <ele>998.50874500111</ele>
        <time>2021-11-02T09:14:28Z</time>
      </trkpt>
      <trkpt lat="43.89967" lon="7.56689">
        <ele>998.50869522874</ele>
        <time>2021-11-02T09:14:29Z</time>
      </trkpt>
      <trkpt lat="43.89968" lon="7.56688">
        <ele>998.50864834922</ele>
        <time>2021-11-02T09:14:31Z</time>
      </trkpt>
      <trkpt lat="43.89969" lon="7.56687">
        <ele>998.50855581347</ele>
        <time>2021-11-02T09:14:33Z</time>
      </trkpt>
      <trkpt lat="43.8997" lon="7.56687">
        <ele>998.50852215058</ele>
        <time>2021-11-02T09:14:34Z</time>
      </trkpt>
      <trkpt lat="43.8997" lon="7.56687">
        <ele>998.50848726176</ele>
        <time>2021-11-02T09:14:36Z</time>
      </trkpt>
      <trkpt lat="43.89971" lon="7.56686">
        <ele>997.50844619953</ele>
        <time>2021-11-02T09:14:38Z</time>
      </trkpt>
      <trkpt lat="43.89973" lon="7.56686">
        <ele>997.50835816542</ele>
        <time>2021-11-02T09:14:39Z</time>
      </trkpt>
      <trkpt lat="43.89973" lon="7.56686">
        <ele>997.50832954615</ele>
        <time>2021-11-02T09:14:41Z</time>
      </trkpt>
      <trkpt lat="43.89975" lon="7.56685">
        <ele>997.50825442747</ele>
        <time>2021-11-02T09:14:42Z</time>
      </trkpt>
      <trkpt lat="43.89975" lon="7.56685">
        <ele>997.50825442747</ele>
        <time>2021-11-02T09:14:43Z</time>
      </trkpt>
      <trkpt lat="43.89976" lon="7.56685">
        <ele>996.50820307529</ele>
        <time>2021-11-02T09:14:44Z</time>
      </trkpt>
      <trkpt lat="43.89977" lon="7.56685">
        <ele>996.5081423054</ele>
        <time>2021-11-02T09:14:45Z</time>
      </trkpt>
      <trkpt lat="43.89978" lon="7.56684">
        <ele>996.50808613702</ele>
        <time>2021-11-02T09:14:46Z</time>
      </trkpt>
      <trkpt lat="43.89978" lon="7.56684">
        <ele>996.50803578054</ele>
        <time>2021-11-02T09:14:47Z</time>
      </trkpt>
      <trkpt lat="43.89979" lon="7.56683">
        <ele>996.5079972231</ele>
        <time>2021-11-02T09:14:48Z</time>
      </trkpt>
      <trkpt lat="43.8998" lon="7.56683">
        <ele>996.50794702548</ele>
        <time>2021-11-02T09:14:49Z</time>
      </trkpt>
      <trkpt lat="43.8998" lon="7.56682">
        <ele>997.50791355998</ele>
        <time>2021-11-02T09:14:50Z</time>
      </trkpt>
      <trkpt lat="43.89981" lon="7.56682">
        <ele>997.50785440789</ele>
        <time>2021-11-02T09:14:51Z</time>
      </trkpt>
      <trkpt lat="43.89982" lon="7.56682">
        <ele>997.50781284154</ele>
        <time>2021-11-02T09:14:52Z</time>
      </trkpt>
      <trkpt lat="43.89983" lon="7.56682">
        <ele>997.50776316737</ele>
        <time>2021-11-02T09:14:53Z</time>
      </trkpt>
      <trkpt lat="43.89984" lon="7.56681">
        <ele>997.50772223852</ele>
        <time>2021-11-02T09:14:54Z</time>
      </trkpt>
      <trkpt lat="43.89984" lon="7.56681">
        <ele>998.50769338117</ele>
        <time>2021-11-02T09:14:57Z</time>
      </trkpt>
      <trkpt lat="43.89987" lon="7.56681">
        <ele>998.50757085565</ele>
        <time>2021-11-02T09:14:58Z</time>
      </trkpt>
      <trkpt lat="43.89987" lon="7.56681">
        <ele>998.50753280743</ele>
        <time>2021-11-02T09:14:59Z</time>
      </trkpt>
      <trkpt lat="43.89988" lon="7.56681">
        <ele>998.5074960218</ele>
        <time>2021-11-02T09:15:00Z</time>
      </trkpt>
      <trkpt lat="43.89989" lon="7.5668">
        <ele>998.50745172785</ele>
        <time>2021-11-02T09:15:01Z</time>
      </trkpt>
      <trkpt lat="43.8999" lon="7.5668">
        <ele>998.50739070944</ele>
        <time>2021-11-02T09:15:02Z</time>
      </trkpt>
      <trkpt lat="43.89991" lon="7.56679">
        <ele>999.50733491496</ele>
        <time>2021-11-02T09:15:03Z</time>
      </trkpt>
      <trkpt lat="43.89992" lon="7.56678">
        <ele>998.50725533913</ele>
        <time>2021-11-02T09:15:04Z</time>
      </trkpt>
      <trkpt lat="43.89994" lon="7.56677">
        <ele>999.50712107569</ele>
        <time>2021-11-02T09:15:06Z</time>
      </trkpt>
      <trkpt lat="43.89997" lon="7.56675">
        <ele>999.50695550661</ele>
        <time>2021-11-02T09:15:08Z</time>
      </trkpt>
      <trkpt lat="43.89998" lon="7.56674">
        <ele>999.50686446848</ele>
        <time>2021-11-02T09:15:10Z</time>
      </trkpt>
      <trkpt lat="43.9" lon="7.56671">
        <ele>1000.5067345736</ele>
        <time>2021-11-02T09:15:11Z</time>
      </trkpt>
      <trkpt lat="43.90002" lon="7.5667">
        <ele>1000.506617519</ele>
        <time>2021-11-02T09:15:13Z</time>
      </trkpt>
      <trkpt lat="43.90003" lon="7.56669">
        <ele>1001.5065778107</ele>
        <time>2021-11-02T09:15:14Z</time>
      </trkpt>
      <trkpt lat="43.90003" lon="7.56669">
        <ele>1001.5065390538</ele>
        <time>2021-11-02T09:15:16Z</time>
      </trkpt>
      <trkpt lat="43.90004" lon="7.56668">
        <ele>1001.5065146136</ele>
        <time>2021-11-02T09:15:17Z</time>
      </trkpt>
      <trkpt lat="43.90004" lon="7.56668">
        <ele>1001.5064880632</ele>
        <time>2021-11-02T09:15:18Z</time>
      </trkpt>
      <trkpt lat="43.90004" lon="7.56667">
        <ele>1001.5064633141</ele>
        <time>2021-11-02T09:15:19Z</time>
      </trkpt>
      <trkpt lat="43.90005" lon="7.56666">
        <ele>1001.5064041578</ele>
        <time>2021-11-02T09:15:20Z</time>
      </trkpt>
      <trkpt lat="43.90005" lon="7.56665">
        <ele>1001.5063627697</ele>
        <time>2021-11-02T09:15:21Z</time>
      </trkpt>
      <trkpt lat="43.90006" lon="7.56664">
        <ele>1001.5063108092</ele>
        <time>2021-11-02T09:15:22Z</time>
      </trkpt>
      <trkpt lat="43.90007" lon="7.56664">
        <ele>1001.50624161</ele>
        <time>2021-11-02T09:15:23Z</time>
      </trkpt>
      <trkpt lat="43.90008" lon="7.56663">
        <ele>1002.5061999344</ele>
        <time>2021-11-02T09:15:24Z</time>
      </trkpt>
      <trkpt lat="43.90009" lon="7.56663">
        <ele>1001.5061696882</ele>
        <time>2021-11-02T09:15:25Z</time>
      </trkpt>
      <trkpt lat="43.9001" lon="7.56662">
        <ele>1001.5060823038</ele>
        <time>2021-11-02T09:15:27Z</time>
      </trkpt>
      <trkpt lat="43.90011" lon="7.56661">
        <ele>1002.5060360979</ele>
        <time>2021-11-02T09:15:28Z</time>
      </trkpt>
      <trkpt lat="43.90011" lon="7.56661">
        <ele>1002.5060214817</ele>
        <time>2021-11-02T09:15:29Z</time>
      </trkpt>
      <trkpt lat="43.90013" lon="7.5666">
        <ele>1003.5059318625</ele>
        <time>2021-11-02T09:15:31Z</time>
      </trkpt>
      <trkpt lat="43.90014" lon="7.56659">
        <ele>1003.5058288797</ele>
        <time>2021-11-02T09:15:33Z</time>
      </trkpt>
      <trkpt lat="43.90015" lon="7.56658">
        <ele>1002.5057587787</ele>
        <time>2021-11-02T09:15:34Z</time>
      </trkpt>
      <trkpt lat="43.90016" lon="7.56658">
        <ele>1003.505714261</ele>
        <time>2021-11-02T09:15:35Z</time>
      </trkpt>
      <trkpt lat="43.90017" lon="7.56657">
        <ele>1002.5056337073</ele>
        <time>2021-11-02T09:15:36Z</time>
      </trkpt>
      <trkpt lat="43.90018" lon="7.56656">
        <ele>1002.5055836692</ele>
        <time>2021-11-02T09:15:37Z</time>
      </trkpt>
      <trkpt lat="43.90019" lon="7.56655">
        <ele>1002.5055310536</ele>
        <time>2021-11-02T09:15:38Z</time>
      </trkpt>
      <trkpt lat="43.90019" lon="7.56654">
        <ele>1002.5054790638</ele>
        <time>2021-11-02T09:15:39Z</time>
      </trkpt>
      <trkpt lat="43.9002" lon="7.56653">
        <ele>1002.5054275428</ele>
        <time>2021-11-02T09:15:41Z</time>
      </trkpt>
      <trkpt lat="43.90022" lon="7.56652">
        <ele>1003.5053363619</ele>
        <time>2021-11-02T09:15:42Z</time>
      </trkpt>
      <trkpt lat="43.90022" lon="7.56651">
        <ele>1002.505292852</ele>
        <time>2021-11-02T09:15:43Z</time>
      </trkpt>
      <trkpt lat="43.90023" lon="7.56651">
        <ele>1003.5052391604</ele>
        <time>2021-11-02T09:15:44Z</time>
      </trkpt>
      <trkpt lat="43.90024" lon="7.5665">
        <ele>1002.505167154</ele>
        <time>2021-11-02T09:15:45Z</time>
      </trkpt>
      <trkpt lat="43.90025" lon="7.5665">
        <ele>1002.5051286487</ele>
        <time>2021-11-02T09:15:46Z</time>
      </trkpt>
      <trkpt lat="43.90026" lon="7.56649">
        <ele>1002.5050786942</ele>
        <time>2021-11-02T09:15:47Z</time>
      </trkpt>
      <trkpt lat="43.90027" lon="7.56649">
        <ele>1003.5050151269</ele>
        <time>2021-11-02T09:15:48Z</time>
      </trkpt>
      <trkpt lat="43.90028" lon="7.56648">
        <ele>1003.504969356</ele>
        <time>2021-11-02T09:15:49Z</time>
      </trkpt>
      <trkpt lat="43.90028" lon="7.56648">
        <ele>1004.5049437356</ele>
        <time>2021-11-02T09:15:50Z</time>
      </trkpt>
      <trkpt lat="43.90029" lon="7.56647">
        <ele>1005.5048948072</ele>
        <time>2021-11-02T09:15:51Z</time>
      </trkpt>
      <trkpt lat="43.9003" lon="7.56646">
        <ele>1005.5048437757</ele>
        <time>2021-11-02T09:15:52Z</time>
      </trkpt>
      <trkpt lat="43.9003" lon="7.56645">
        <ele>1005.5047944788</ele>
        <time>2021-11-02T09:15:53Z</time>
      </trkpt>
      <trkpt lat="43.90031" lon="7.56645">
        <ele>1006.5047427565</ele>
        <time>2021-11-02T09:15:54Z</time>
      </trkpt>
      <trkpt lat="43.90032" lon="7.56644">
        <ele>1006.5046654486</ele>
        <time>2021-11-02T09:15:55Z</time>
      </trkpt>
      <trkpt lat="43.90034" lon="7.56643">
        <ele>1005.5045701366</ele>
        <time>2021-11-02T09:15:56Z</time>
      </trkpt>
      <trkpt lat="43.90035" lon="7.56642">
        <ele>1005.5044997662</ele>
        <time>2021-11-02T09:15:57Z</time>
      </trkpt>
      <trkpt lat="43.90036" lon="7.56641">
        <ele>1006.5044165985</ele>
        <time>2021-11-02T09:15:58Z</time>
      </trkpt>
      <trkpt lat="43.90037" lon="7.5664">
        <ele>1007.5043439634</ele>
        <time>2021-11-02T09:16:00Z</time>
      </trkpt>
      <trkpt lat="43.9004" lon="7.56638">
        <ele>1006.5042137674</ele>
        <time>2021-11-02T09:16:01Z</time>
      </trkpt>
      <trkpt lat="43.90041" lon="7.56638">
        <ele>1006.5041150793</ele>
        <time>2021-11-02T09:16:03Z</time>
      </trkpt>
      <trkpt lat="43.90042" lon="7.56637">
        <ele>1005.5040488775</ele>
        <time>2021-11-02T09:16:04Z</time>
      </trkpt>
      <trkpt lat="43.90043" lon="7.56636">
        <ele>1005.5040032398</ele>
        <time>2021-11-02T09:16:05Z</time>
      </trkpt>
      <trkpt lat="43.90045" lon="7.56634">
        <ele>1004.503884842</ele>
        <time>2021-11-02T09:16:07Z</time>
      </trkpt>
      <trkpt lat="43.90045" lon="7.56633">
        <ele>1004.503840976</ele>
        <time>2021-11-02T09:16:08Z</time>
      </trkpt>
      <trkpt lat="43.90046" lon="7.56633">
        <ele>1004.5037964479</ele>
        <time>2021-11-02T09:16:10Z</time>
      </trkpt>
      <trkpt lat="43.90048" lon="7.56632">
        <ele>1004.5036796531</ele>
        <time>2021-11-02T09:16:11Z</time>
      </trkpt>
      <trkpt lat="43.90049" lon="7.56632">
        <ele>1004.5036345383</ele>
        <time>2021-11-02T09:16:12Z</time>
      </trkpt>
      <trkpt lat="43.9005" lon="7.56631">
        <ele>1004.5035883858</ele>
        <time>2021-11-02T09:16:13Z</time>
      </trkpt>
      <trkpt lat="43.9005" lon="7.56631">
        <ele>1004.5035446058</ele>
        <time>2021-11-02T09:16:14Z</time>
      </trkpt>
      <trkpt lat="43.90051" lon="7.5663">
        <ele>1004.5035033074</ele>
        <time>2021-11-02T09:16:15Z</time>
      </trkpt>
      <trkpt lat="43.90051" lon="7.5663">
        <ele>1004.5034714548</ele>
        <time>2021-11-02T09:16:16Z</time>
      </trkpt>
      <trkpt lat="43.90053" lon="7.56629">
        <ele>1004.5033996038</ele>
        <time>2021-11-02T09:16:17Z</time>
      </trkpt>
      <trkpt lat="43.90054" lon="7.56628">
        <ele>1003.5033466547</ele>
        <time>2021-11-02T09:16:18Z</time>
      </trkpt>
      <trkpt lat="43.90054" lon="7.56628">
        <ele>1003.5033332607</ele>
        <time>2021-11-02T09:16:19Z</time>
      </trkpt>
      <trkpt lat="43.90054" lon="7.56627">
        <ele>1003.5032984223</ele>
        <time>2021-11-02T09:16:21Z</time>
      </trkpt>
      <trkpt lat="43.90055" lon="7.56625">
        <ele>1003.5031988219</ele>
        <time>2021-11-02T09:16:22Z</time>
      </trkpt>
      <trkpt lat="43.90056" lon="7.56623">
        <ele>1003.5031417622</ele>
        <time>2021-11-02T09:16:23Z</time>
      </trkpt>
      <trkpt lat="43.90057" lon="7.56623">
        <ele>1003.5030913927</ele>
        <time>2021-11-02T09:16:24Z</time>
      </trkpt>
      <trkpt lat="43.90058" lon="7.56621">
        <ele>1003.5030045307</ele>
        <time>2021-11-02T09:16:26Z</time>
      </trkpt>
      <trkpt lat="43.90059" lon="7.56621">
        <ele>1003.5029623195</ele>
        <time>2021-11-02T09:16:27Z</time>
      </trkpt>
      <trkpt lat="43.90059" lon="7.5662">
        <ele>1004.5029271789</ele>
        <time>2021-11-02T09:16:28Z</time>
      </trkpt>
      <trkpt lat="43.9006" lon="7.56619">
        <ele>1005.5028719456</ele>
        <time>2021-11-02T09:16:29Z</time>
      </trkpt>
      <trkpt lat="43.90061" lon="7.56618">
        <ele>1005.5028045572</ele>
        <time>2021-11-02T09:16:31Z</time>
      </trkpt>
      <trkpt lat="43.90062" lon="7.56617">
        <ele>1005.502735959</ele>
        <time>2021-11-02T09:16:32Z</time>
      </trkpt>
      <trkpt lat="43.90063" lon="7.56617">
        <ele>1005.5026881058</ele>
        <time>2021-11-02T09:16:33Z</time>
      </trkpt>
      <trkpt lat="43.90064" lon="7.56616">
        <ele>1005.5026188471</ele>
        <time>2021-11-02T09:16:34Z</time>
      </trkpt>
      <trkpt lat="43.90065" lon="7.56616">
        <ele>1006.5025711901</ele>
        <time>2021-11-02T09:16:35Z</time>
      </trkpt>
      <trkpt lat="43.90066" lon="7.56614">
        <ele>1006.5024638593</ele>
        <time>2021-11-02T09:16:37Z</time>
      </trkpt>
      <trkpt lat="43.90067" lon="7.56613">
        <ele>1007.5024055599</ele>
        <time>2021-11-02T09:16:38Z</time>
      </trkpt>
      <trkpt lat="43.90068" lon="7.56613">
        <ele>1007.502350733</ele>
        <time>2021-11-02T09:16:39Z</time>
      </trkpt>
      <trkpt lat="43.9007" lon="7.56611">
        <ele>1007.502241927</ele>
        <time>2021-11-02T09:16:42Z</time>
      </trkpt>
      <trkpt lat="43.90071" lon="7.56609">
        <ele>1008.5021598463</ele>
        <time>2021-11-02T09:16:43Z</time>
      </trkpt>
      <trkpt lat="43.90071" lon="7.56608">
        <ele>1008.5021218543</ele>
        <time>2021-11-02T09:16:44Z</time>
      </trkpt>
      <trkpt lat="43.90072" lon="7.56607">
        <ele>1008.5020787472</ele>
        <time>2021-11-02T09:16:45Z</time>
      </trkpt>
      <trkpt lat="43.90073" lon="7.56606">
        <ele>1008.5020054925</ele>
        <time>2021-11-02T09:16:47Z</time>
      </trkpt>
      <trkpt lat="43.90074" lon="7.56605">
        <ele>1008.501969079</ele>
        <time>2021-11-02T09:16:48Z</time>
      </trkpt>
      <trkpt lat="43.90074" lon="7.56605">
        <ele>1007.5019444771</ele>
        <time>2021-11-02T09:16:50Z</time>
      </trkpt>
      <trkpt lat="43.90075" lon="7.56604">
        <ele>1006.5018876318</ele>
        <time>2021-11-02T09:16:51Z</time>
      </trkpt>
      <trkpt lat="43.90076" lon="7.56602">
        <ele>1006.5018123355</ele>
        <time>2021-11-02T09:16:52Z</time>
      </trkpt>
      <trkpt lat="43.90077" lon="7.56601">
        <ele>1006.5017469052</ele>
        <time>2021-11-02T09:16:53Z</time>
      </trkpt>
      <trkpt lat="43.90077" lon="7.566">
        <ele>1006.501700885</ele>
        <time>2021-11-02T09:16:54Z</time>
      </trkpt>
      <trkpt lat="43.90078" lon="7.56599">
        <ele>1006.5016463135</ele>
        <time>2021-11-02T09:16:56Z</time>
      </trkpt>
      <trkpt lat="43.90079" lon="7.56598">
        <ele>1006.5015756452</ele>
        <time>2021-11-02T09:16:57Z</time>
      </trkpt>
      <trkpt lat="43.9008" lon="7.56597">
        <ele>1006.5015269179</ele>
        <time>2021-11-02T09:16:58Z</time>
      </trkpt>
      <trkpt lat="43.9008" lon="7.56596">
        <ele>1006.5015008376</ele>
        <time>2021-11-02T09:16:59Z</time>
      </trkpt>
      <trkpt lat="43.90081" lon="7.56595">
        <ele>1006.5014398991</ele>
        <time>2021-11-02T09:17:01Z</time>
      </trkpt>
      <trkpt lat="43.90082" lon="7.56593">
        <ele>1007.5013273858</ele>
        <time>2021-11-02T09:17:02Z</time>
      </trkpt>
      <trkpt lat="43.90083" lon="7.56593">
        <ele>1008.5012887666</ele>
        <time>2021-11-02T09:17:03Z</time>
      </trkpt>
      <trkpt lat="43.90083" lon="7.56592">
        <ele>1009.5012669087</ele>
        <time>2021-11-02T09:17:04Z</time>
      </trkpt>
      <trkpt lat="43.90085" lon="7.56591">
        <ele>1009.5011769058</ele>
        <time>2021-11-02T09:17:06Z</time>
      </trkpt>
      <trkpt lat="43.90086" lon="7.56589">
        <ele>1008.5011075334</ele>
        <time>2021-11-02T09:17:08Z</time>
      </trkpt>
      <trkpt lat="43.90086" lon="7.56588">
        <ele>1008.5010656546</ele>
        <time>2021-11-02T09:17:09Z</time>
      </trkpt>
      <trkpt lat="43.90087" lon="7.56587">
        <ele>1008.5010245513</ele>
        <time>2021-11-02T09:17:11Z</time>
      </trkpt>
      <trkpt lat="43.90088" lon="7.56585">
        <ele>1008.5009175414</ele>
        <time>2021-11-02T09:17:12Z</time>
      </trkpt>
      <trkpt lat="43.90088" lon="7.56584">
        <ele>1008.5008856989</ele>
        <time>2021-11-02T09:17:13Z</time>
      </trkpt>
      <trkpt lat="43.90088" lon="7.56582">
        <ele>1008.500859706</ele>
        <time>2021-11-02T09:17:14Z</time>
      </trkpt>
      <trkpt lat="43.90089" lon="7.56579">
        <ele>1008.5007416122</ele>
        <time>2021-11-02T09:17:16Z</time>
      </trkpt>
      <trkpt lat="43.9009" lon="7.56578">
        <ele>1008.500681291</ele>
        <time>2021-11-02T09:17:17Z</time>
      </trkpt>
      <trkpt lat="43.90091" lon="7.56576">
        <ele>1008.500637351</ele>
        <time>2021-11-02T09:17:18Z</time>
      </trkpt>
      <trkpt lat="43.90091" lon="7.56575">
        <ele>1008.5006080649</ele>
        <time>2021-11-02T09:17:19Z</time>
      </trkpt>
      <trkpt lat="43.90092" lon="7.56574">
        <ele>1007.5005489471</ele>
        <time>2021-11-02T09:17:21Z</time>
      </trkpt>
      <trkpt lat="43.90093" lon="7.56573">
        <ele>1008.5004954273</ele>
        <time>2021-11-02T09:17:22Z</time>
      </trkpt>
      <trkpt lat="43.90093" lon="7.56572">
        <ele>1008.5004489184</ele>
        <time>2021-11-02T09:17:23Z</time>
      </trkpt>
      <trkpt lat="43.90093" lon="7.56571">
        <ele>1008.5004185428</ele>
        <time>2021-11-02T09:17:24Z</time>
      </trkpt>
      <trkpt lat="43.90095" lon="7.56569">
        <ele>1008.5003228731</ele>
        <time>2021-11-02T09:17:27Z</time>
      </trkpt>
      <trkpt lat="43.90096" lon="7.56568">
        <ele>1008.5002298053</ele>
        <time>2021-11-02T09:17:28Z</time>
      </trkpt>
      <trkpt lat="43.90097" lon="7.56567">
        <ele>1008.5001584919</ele>
        <time>2021-11-02T09:17:29Z</time>
      </trkpt>
      <trkpt lat="43.90098" lon="7.56566">
        <ele>1008.5001263063</ele>
        <time>2021-11-02T09:17:31Z</time>
      </trkpt>
      <trkpt lat="43.90098" lon="7.56564">
        <ele>1009.500055444</ele>
        <time>2021-11-02T09:17:32Z</time>
      </trkpt>
      <trkpt lat="43.90099" lon="7.56563">
        <ele>1009.5000267228</ele>
        <time>2021-11-02T09:17:33Z</time>
      </trkpt>
      <trkpt lat="43.90099" lon="7.56563">
        <ele>1009.4999925904</ele>
        <time>2021-11-02T09:17:34Z</time>
      </trkpt>
      <trkpt lat="43.90099" lon="7.56561">
        <ele>1008.4999619846</ele>
        <time>2021-11-02T09:17:37Z</time>
      </trkpt>
      <trkpt lat="43.901" lon="7.56559">
        <ele>1007.4998727775</ele>
        <time>2021-11-02T09:17:38Z</time>
      </trkpt>
      <trkpt lat="43.90101" lon="7.56558">
        <ele>1008.4998246639</ele>
        <time>2021-11-02T09:17:39Z</time>
      </trkpt>
      <trkpt lat="43.90101" lon="7.56557">
        <ele>1008.4997929286</ele>
        <time>2021-11-02T09:17:40Z</time>
      </trkpt>
      <trkpt lat="43.90102" lon="7.56555">
        <ele>1008.4997530908</ele>
        <time>2021-11-02T09:17:42Z</time>
      </trkpt>
      <trkpt lat="43.90102" lon="7.56554">
        <ele>1009.499708563</ele>
        <time>2021-11-02T09:17:43Z</time>
      </trkpt>
      <trkpt lat="43.90103" lon="7.56553">
        <ele>1010.4996355979</ele>
        <time>2021-11-02T09:17:44Z</time>
      </trkpt>
      <trkpt lat="43.90104" lon="7.56553">
        <ele>1010.49959192</ele>
        <time>2021-11-02T09:17:45Z</time>
      </trkpt>
      <trkpt lat="43.90105" lon="7.56552">
        <ele>1010.4995354264</ele>
        <time>2021-11-02T09:17:46Z</time>
      </trkpt>
      <trkpt lat="43.90106" lon="7.56551">
        <ele>1011.4994902672</ele>
        <time>2021-11-02T09:17:47Z</time>
      </trkpt>
      <trkpt lat="43.90106" lon="7.5655">
        <ele>1011.4994645256</ele>
        <time>2021-11-02T09:17:48Z</time>
      </trkpt>
      <trkpt lat="43.90106" lon="7.56549">
        <ele>1011.499441292</ele>
        <time>2021-11-02T09:17:51Z</time>
      </trkpt>
      <trkpt lat="43.90107" lon="7.56547">
        <ele>1011.4993285911</ele>
        <time>2021-11-02T09:17:52Z</time>
      </trkpt>
      <trkpt lat="43.90108" lon="7.56545">
        <ele>1011.4992817438</ele>
        <time>2021-11-02T09:17:53Z</time>
      </trkpt>
      <trkpt lat="43.90108" lon="7.56545">
        <ele>1011.4992438117</ele>
        <time>2021-11-02T09:17:54Z</time>
      </trkpt>
      <trkpt lat="43.90109" lon="7.56544">
        <ele>1011.4992032173</ele>
        <time>2021-11-02T09:17:55Z</time>
      </trkpt>
      <trkpt lat="43.9011" lon="7.56543">
        <ele>1012.4991691058</ele>
        <time>2021-11-02T09:17:56Z</time>
      </trkpt>
      <trkpt lat="43.9011" lon="7.56543">
        <ele>1013.4991187375</ele>
        <time>2021-11-02T09:17:57Z</time>
      </trkpt>
      <trkpt lat="43.90111" lon="7.56542">
        <ele>1013.4990748918</ele>
        <time>2021-11-02T09:17:58Z</time>
      </trkpt>
      <trkpt lat="43.90111" lon="7.56542">
        <ele>1013.4990453292</ele>
        <time>2021-11-02T09:17:59Z</time>
      </trkpt>
      <trkpt lat="43.90112" lon="7.56541">
        <ele>1013.4989845562</ele>
        <time>2021-11-02T09:18:00Z</time>
      </trkpt>
      <trkpt lat="43.90113" lon="7.5654">
        <ele>1013.4989297766</ele>
        <time>2021-11-02T09:18:01Z</time>
      </trkpt>
      <trkpt lat="43.90114" lon="7.56539">
        <ele>1013.4988969698</ele>
        <time>2021-11-02T09:18:02Z</time>
      </trkpt>
      <trkpt lat="43.90114" lon="7.56538">
        <ele>1013.4988662622</ele>
        <time>2021-11-02T09:18:03Z</time>
      </trkpt>
      <trkpt lat="43.90114" lon="7.56537">
        <ele>1013.4988335295</ele>
        <time>2021-11-02T09:18:06Z</time>
      </trkpt>
      <trkpt lat="43.90116" lon="7.56535">
        <ele>1012.4987182656</ele>
        <time>2021-11-02T09:18:08Z</time>
      </trkpt>
      <trkpt lat="43.90117" lon="7.56535">
        <ele>1012.4986808875</ele>
        <time>2021-11-02T09:18:09Z</time>
      </trkpt>
      <trkpt lat="43.90117" lon="7.56535">
        <ele>1012.4986391207</ele>
        <time>2021-11-02T09:18:10Z</time>
      </trkpt>
      <trkpt lat="43.90118" lon="7.56534">
        <ele>1012.4986155655</ele>
        <time>2021-11-02T09:18:11Z</time>
      </trkpt>
      <trkpt lat="43.90118" lon="7.56533">
        <ele>1011.4985852981</ele>
        <time>2021-11-02T09:18:12Z</time>
      </trkpt>
      <trkpt lat="43.90119" lon="7.56532">
        <ele>1011.4985341257</ele>
        <time>2021-11-02T09:18:13Z</time>
      </trkpt>
      <trkpt lat="43.90119" lon="7.56531">
        <ele>1012.4984959468</ele>
        <time>2021-11-02T09:18:14Z</time>
      </trkpt>
      <trkpt lat="43.90119" lon="7.5653">
        <ele>1012.4984572617</ele>
        <time>2021-11-02T09:18:16Z</time>
      </trkpt>
      <trkpt lat="43.90121" lon="7.56529">
        <ele>1012.4983809789</ele>
        <time>2021-11-02T09:18:17Z</time>
      </trkpt>
      <trkpt lat="43.90121" lon="7.56528">
        <ele>1012.4983425998</ele>
        <time>2021-11-02T09:18:18Z</time>
      </trkpt>
      <trkpt lat="43.90122" lon="7.56527">
        <ele>1011.4982976741</ele>
        <time>2021-11-02T09:18:20Z</time>
      </trkpt>
      <trkpt lat="43.90123" lon="7.56526">
        <ele>1012.4982068008</ele>
        <time>2021-11-02T09:18:22Z</time>
      </trkpt>
      <trkpt lat="43.90124" lon="7.56525">
        <ele>1013.4981294011</ele>
        <time>2021-11-02T09:18:23Z</time>
      </trkpt>
      <trkpt lat="43.90124" lon="7.56525">
        <ele>1013.4981294011</ele>
        <time>2021-11-02T09:18:24Z</time>
      </trkpt>
      <trkpt lat="43.90126" lon="7.56524">
        <ele>1013.4980282159</ele>
        <time>2021-11-02T09:18:26Z</time>
      </trkpt>
      <trkpt lat="43.90127" lon="7.56521">
        <ele>1012.4979303759</ele>
        <time>2021-11-02T09:18:27Z</time>
      </trkpt>
      <trkpt lat="43.90128" lon="7.56521">
        <ele>1013.4978965965</ele>
        <time>2021-11-02T09:18:28Z</time>
      </trkpt>
      <trkpt lat="43.90128" lon="7.5652">
        <ele>1013.4978495485</ele>
        <time>2021-11-02T09:18:29Z</time>
      </trkpt>
      <trkpt lat="43.90129" lon="7.5652">
        <ele>1014.4978064943</ele>
        <time>2021-11-02T09:18:30Z</time>
      </trkpt>
      <trkpt lat="43.9013" lon="7.56519">
        <ele>1014.4977336935</ele>
        <time>2021-11-02T09:18:32Z</time>
      </trkpt>
      <trkpt lat="43.90131" lon="7.56518">
        <ele>1014.49766314</ele>
        <time>2021-11-02T09:18:33Z</time>
      </trkpt>
      <trkpt lat="43.90132" lon="7.56518">
        <ele>1015.4976190873</ele>
        <time>2021-11-02T09:18:35Z</time>
      </trkpt>
      <trkpt lat="43.90134" lon="7.56516">
        <ele>1015.4975241188</ele>
        <time>2021-11-02T09:18:37Z</time>
      </trkpt>
      <trkpt lat="43.90135" lon="7.56514">
        <ele>1016.4974020337</ele>
        <time>2021-11-02T09:18:38Z</time>
      </trkpt>
      <trkpt lat="43.90136" lon="7.56514">
        <ele>1016.4973494792</ele>
        <time>2021-11-02T09:18:39Z</time>
      </trkpt>
      <trkpt lat="43.90137" lon="7.56513">
        <ele>1016.4973129086</ele>
        <time>2021-11-02T09:18:41Z</time>
      </trkpt>
      <trkpt lat="43.90138" lon="7.56512">
        <ele>1017.4972156207</ele>
        <time>2021-11-02T09:18:42Z</time>
      </trkpt>
      <trkpt lat="43.90139" lon="7.56511">
        <ele>1018.4971511593</ele>
        <time>2021-11-02T09:18:43Z</time>
      </trkpt>
      <trkpt lat="43.9014" lon="7.5651">
        <ele>1018.4971067975</ele>
        <time>2021-11-02T09:18:44Z</time>
      </trkpt>
      <trkpt lat="43.90141" lon="7.56509">
        <ele>1018.4970245081</ele>
        <time>2021-11-02T09:18:45Z</time>
      </trkpt>
      <trkpt lat="43.90142" lon="7.56508">
        <ele>1018.4969648295</ele>
        <time>2021-11-02T09:18:46Z</time>
      </trkpt>
      <trkpt lat="43.90144" lon="7.56507">
        <ele>1017.4968555282</ele>
        <time>2021-11-02T09:18:48Z</time>
      </trkpt>
      <trkpt lat="43.90145" lon="7.56507">
        <ele>1018.496796286</ele>
        <time>2021-11-02T09:18:49Z</time>
      </trkpt>
      <trkpt lat="43.90147" lon="7.56505">
        <ele>1019.4966796179</ele>
        <time>2021-11-02T09:18:51Z</time>
      </trkpt>
      <trkpt lat="43.90149" lon="7.56504">
        <ele>1019.4965794457</ele>
        <time>2021-11-02T09:18:53Z</time>
      </trkpt>
      <trkpt lat="43.90149" lon="7.56504">
        <ele>1019.4965378</ele>
        <time>2021-11-02T09:18:54Z</time>
      </trkpt>
      <trkpt lat="43.9015" lon="7.56503">
        <ele>1019.4964713809</ele>
        <time>2021-11-02T09:18:55Z</time>
      </trkpt>
      <trkpt lat="43.90152" lon="7.56502">
        <ele>1019.4963826518</ele>
        <time>2021-11-02T09:18:57Z</time>
      </trkpt>
      <trkpt lat="43.90152" lon="7.56501">
        <ele>1019.4963608397</ele>
        <time>2021-11-02T09:18:58Z</time>
      </trkpt>
      <trkpt lat="43.90153" lon="7.56501">
        <ele>1019.4963269084</ele>
        <time>2021-11-02T09:18:59Z</time>
      </trkpt>
      <trkpt lat="43.90153" lon="7.565">
        <ele>1019.4962942182</ele>
        <time>2021-11-02T09:19:00Z</time>
      </trkpt>
      <trkpt lat="43.90154" lon="7.565">
        <ele>1020.4962536869</ele>
        <time>2021-11-02T09:19:01Z</time>
      </trkpt>
      <trkpt lat="43.90155" lon="7.56499">
        <ele>1020.4961586882</ele>
        <time>2021-11-02T09:19:03Z</time>
      </trkpt>
      <trkpt lat="43.90156" lon="7.56498">
        <ele>1021.4961056722</ele>
        <time>2021-11-02T09:19:04Z</time>
      </trkpt>
      <trkpt lat="43.90157" lon="7.56497">
        <ele>1021.4960468237</ele>
        <time>2021-11-02T09:19:05Z</time>
      </trkpt>
      <trkpt lat="43.90157" lon="7.56496">
        <ele>1020.4959961618</ele>
        <time>2021-11-02T09:19:06Z</time>
      </trkpt>
      <trkpt lat="43.90158" lon="7.56493">
        <ele>1020.4959236184</ele>
        <time>2021-11-02T09:19:08Z</time>
      </trkpt>
      <trkpt lat="43.90159" lon="7.56493">
        <ele>1020.495889698</ele>
        <time>2021-11-02T09:19:09Z</time>
      </trkpt>
      <trkpt lat="43.90159" lon="7.56492">
        <ele>1020.4958553561</ele>
        <time>2021-11-02T09:19:11Z</time>
      </trkpt>
      <trkpt lat="43.90161" lon="7.56492">
        <ele>1021.4957704939</ele>
        <time>2021-11-02T09:19:12Z</time>
      </trkpt>
      <trkpt lat="43.90161" lon="7.56491">
        <ele>1021.4957238024</ele>
        <time>2021-11-02T09:19:13Z</time>
      </trkpt>
      <trkpt lat="43.90163" lon="7.5649">
        <ele>1020.4956510351</ele>
        <time>2021-11-02T09:19:14Z</time>
      </trkpt>
      <trkpt lat="43.90164" lon="7.56489">
        <ele>1021.4955742599</ele>
        <time>2021-11-02T09:19:15Z</time>
      </trkpt>
      <trkpt lat="43.90165" lon="7.56488">
        <ele>1021.4955028962</ele>
        <time>2021-11-02T09:19:16Z</time>
      </trkpt>
      <trkpt lat="43.90167" lon="7.56488">
        <ele>1022.4954149627</ele>
        <time>2021-11-02T09:19:18Z</time>
      </trkpt>
      <trkpt lat="43.90167" lon="7.56487">
        <ele>1022.4953693653</ele>
        <time>2021-11-02T09:19:19Z</time>
      </trkpt>
      <trkpt lat="43.90168" lon="7.56486">
        <ele>1023.4953057443</ele>
        <time>2021-11-02T09:19:21Z</time>
      </trkpt>
      <trkpt lat="43.9017" lon="7.56484">
        <ele>1023.4951785091</ele>
        <time>2021-11-02T09:19:22Z</time>
      </trkpt>
      <trkpt lat="43.90171" lon="7.56484">
        <ele>1023.4951071349</ele>
        <time>2021-11-02T09:19:23Z</time>
      </trkpt>
      <trkpt lat="43.90172" lon="7.56483">
        <ele>1023.4950655253</ele>
        <time>2021-11-02T09:19:25Z</time>
      </trkpt>
      <trkpt lat="43.90173" lon="7.56482">
        <ele>1024.4949930326</ele>
        <time>2021-11-02T09:19:26Z</time>
      </trkpt>
      <trkpt lat="43.90174" lon="7.56481">
        <ele>1025.4949451324</ele>
        <time>2021-11-02T09:19:28Z</time>
      </trkpt>
      <trkpt lat="43.90174" lon="7.5648">
        <ele>1025.4949155673</ele>
        <time>2021-11-02T09:19:29Z</time>
      </trkpt>
      <trkpt lat="43.90175" lon="7.5648">
        <ele>1026.4948705925</ele>
        <time>2021-11-02T09:19:31Z</time>
      </trkpt>
      <trkpt lat="43.90176" lon="7.56479">
        <ele>1027.4948176947</ele>
        <time>2021-11-02T09:19:32Z</time>
      </trkpt>
      <trkpt lat="43.90176" lon="7.56479">
        <ele>1027.4947880509</ele>
        <time>2021-11-02T09:19:33Z</time>
      </trkpt>
      <trkpt lat="43.90177" lon="7.56479">
        <ele>1027.4947610296</ele>
        <time>2021-11-02T09:19:34Z</time>
      </trkpt>
      <trkpt lat="43.90178" lon="7.56479">
        <ele>1027.4947153328</ele>
        <time>2021-11-02T09:19:35Z</time>
      </trkpt>
      <trkpt lat="43.90178" lon="7.56479">
        <ele>1028.4946750417</ele>
        <time>2021-11-02T09:19:36Z</time>
      </trkpt>
      <trkpt lat="43.9018" lon="7.56478">
        <ele>1029.494609886</ele>
        <time>2021-11-02T09:19:38Z</time>
      </trkpt>
      <trkpt lat="43.9018" lon="7.56478">
        <ele>1029.4945808927</ele>
        <time>2021-11-02T09:19:39Z</time>
      </trkpt>
      <trkpt lat="43.9018" lon="7.56478">
        <ele>1029.4945524627</ele>
        <time>2021-11-02T09:19:41Z</time>
      </trkpt>
      <trkpt lat="43.90181" lon="7.56476">
        <ele>1029.4944944093</ele>
        <time>2021-11-02T09:19:42Z</time>
      </trkpt>
      <trkpt lat="43.90182" lon="7.56475">
        <ele>1029.4944573992</ele>
        <time>2021-11-02T09:19:43Z</time>
      </trkpt>
      <trkpt lat="43.90182" lon="7.56474">
        <ele>1028.4944018957</ele>
        <time>2021-11-02T09:19:44Z</time>
      </trkpt>
      <trkpt lat="43.90184" lon="7.56472">
        <ele>1028.4942846306</ele>
        <time>2021-11-02T09:19:46Z</time>
      </trkpt>
      <trkpt lat="43.90186" lon="7.5647">
        <ele>1028.4941732903</ele>
        <time>2021-11-02T09:19:48Z</time>
      </trkpt>
      <trkpt lat="43.90187" lon="7.5647">
        <ele>1028.4941239307</ele>
        <time>2021-11-02T09:19:49Z</time>
      </trkpt>
      <trkpt lat="43.90188" lon="7.56469">
        <ele>1028.4940645029</ele>
        <time>2021-11-02T09:19:50Z</time>
      </trkpt>
      <trkpt lat="43.90188" lon="7.56468">
        <ele>1027.4940223484</ele>
        <time>2021-11-02T09:19:51Z</time>
      </trkpt>
      <trkpt lat="43.90188" lon="7.56467">
        <ele>1028.4940060292</ele>
        <time>2021-11-02T09:19:53Z</time>
      </trkpt>
      <trkpt lat="43.90189" lon="7.56467">
        <ele>1028.4939623656</ele>
        <time>2021-11-02T09:19:54Z</time>
      </trkpt>
      <trkpt lat="43.9019" lon="7.56466">
        <ele>1028.4939086096</ele>
        <time>2021-11-02T09:19:56Z</time>
      </trkpt>
      <trkpt lat="43.90191" lon="7.56464">
        <ele>1027.4937878497</ele>
        <time>2021-11-02T09:19:57Z</time>
      </trkpt>
      <trkpt lat="43.90191" lon="7.56464">
        <ele>1027.4937878497</ele>
        <time>2021-11-02T09:19:59Z</time>
      </trkpt>
      <trkpt lat="43.90194" lon="7.56462">
        <ele>1026.493656932</ele>
        <time>2021-11-02T09:20:00Z</time>
      </trkpt>
      <trkpt lat="43.90194" lon="7.56461">
        <ele>1027.4936005051</ele>
        <time>2021-11-02T09:20:01Z</time>
      </trkpt>
      <trkpt lat="43.90195" lon="7.56461">
        <ele>1027.4935403455</ele>
        <time>2021-11-02T09:20:02Z</time>
      </trkpt>
      <trkpt lat="43.90196" lon="7.56461">
        <ele>1028.493481135</ele>
        <time>2021-11-02T09:20:03Z</time>
      </trkpt>
      <trkpt lat="43.90197" lon="7.5646">
        <ele>1027.4934378822</ele>
        <time>2021-11-02T09:20:04Z</time>
      </trkpt>
      <trkpt lat="43.90198" lon="7.56459">
        <ele>1027.4933788953</ele>
        <time>2021-11-02T09:20:05Z</time>
      </trkpt>
      <trkpt lat="43.90199" lon="7.56458">
        <ele>1026.4933296753</ele>
        <time>2021-11-02T09:20:06Z</time>
      </trkpt>
      <trkpt lat="43.902" lon="7.56457">
        <ele>1025.4932645945</ele>
        <time>2021-11-02T09:20:07Z</time>
      </trkpt>
      <trkpt lat="43.90201" lon="7.56456">
        <ele>1025.4932000115</ele>
        <time>2021-11-02T09:20:08Z</time>
      </trkpt>
      <trkpt lat="43.90202" lon="7.56456">
        <ele>1025.49315279</ele>
        <time>2021-11-02T09:20:09Z</time>
      </trkpt>
      <trkpt lat="43.90204" lon="7.56456">
        <ele>1025.4930419842</ele>
        <time>2021-11-02T09:20:12Z</time>
      </trkpt>
      <trkpt lat="43.90205" lon="7.56455">
        <ele>1025.4929506591</ele>
        <time>2021-11-02T09:20:13Z</time>
      </trkpt>
      <trkpt lat="43.90206" lon="7.56454">
        <ele>1025.492924463</ele>
        <time>2021-11-02T09:20:14Z</time>
      </trkpt>
      <trkpt lat="43.90206" lon="7.56454">
        <ele>1025.492889807</ele>
        <time>2021-11-02T09:20:16Z</time>
      </trkpt>
      <trkpt lat="43.90207" lon="7.56453">
        <ele>1026.4928246653</ele>
        <time>2021-11-02T09:20:17Z</time>
      </trkpt>
      <trkpt lat="43.90208" lon="7.56452">
        <ele>1026.4927835054</ele>
        <time>2021-11-02T09:20:18Z</time>
      </trkpt>
      <trkpt lat="43.90208" lon="7.5645">
        <ele>1026.4927280266</ele>
        <time>2021-11-02T09:20:20Z</time>
      </trkpt>
      <trkpt lat="43.90211" lon="7.56448">
        <ele>1025.4925611031</ele>
        <time>2021-11-02T09:20:22Z</time>
      </trkpt>
      <trkpt lat="43.90213" lon="7.56447">
        <ele>1026.4924339796</ele>
        <time>2021-11-02T09:20:23Z</time>
      </trkpt>
      <trkpt lat="43.90214" lon="7.56446">
        <ele>1025.4923776684</ele>
        <time>2021-11-02T09:20:24Z</time>
      </trkpt>
      <trkpt lat="43.90215" lon="7.56445">
        <ele>1026.4923292664</ele>
        <time>2021-11-02T09:20:25Z</time>
      </trkpt>
      <trkpt lat="43.90216" lon="7.56444">
        <ele>1026.4922574211</ele>
        <time>2021-11-02T09:20:27Z</time>
      </trkpt>
      <trkpt lat="43.90216" lon="7.56443">
        <ele>1026.4922189836</ele>
        <time>2021-11-02T09:20:28Z</time>
      </trkpt>
      <trkpt lat="43.90216" lon="7.56442">
        <ele>1026.4921835228</ele>
        <time>2021-11-02T09:20:29Z</time>
      </trkpt>
      <trkpt lat="43.90217" lon="7.5644">
        <ele>1026.4921255826</ele>
        <time>2021-11-02T09:20:31Z</time>
      </trkpt>
      <trkpt lat="43.90217" lon="7.56439">
        <ele>1027.4920801923</ele>
        <time>2021-11-02T09:20:33Z</time>
      </trkpt>
      <trkpt lat="43.90217" lon="7.56439">
        <ele>1027.4920801923</ele>
        <time>2021-11-02T09:20:36Z</time>
      </trkpt>
      <trkpt lat="43.90221" lon="7.56435">
        <ele>1027.491839681</ele>
        <time>2021-11-02T09:20:37Z</time>
      </trkpt>
      <trkpt lat="43.90222" lon="7.56435">
        <ele>1028.4917918941</ele>
        <time>2021-11-02T09:20:38Z</time>
      </trkpt>
      <trkpt lat="43.90223" lon="7.56434">
        <ele>1028.4917326464</ele>
        <time>2021-11-02T09:20:39Z</time>
      </trkpt>
      <trkpt lat="43.90225" lon="7.56433">
        <ele>1028.491626319</ele>
        <time>2021-11-02T09:20:42Z</time>
      </trkpt>
      <trkpt lat="43.90226" lon="7.56432">
        <ele>1028.4915567159</ele>
        <time>2021-11-02T09:20:42Z</time>
      </trkpt>
      <trkpt lat="43.90226" lon="7.56431">
        <ele>1028.4915082795</ele>
        <time>2021-11-02T09:20:43Z</time>
      </trkpt>
      <trkpt lat="43.90228" lon="7.5643">
        <ele>1029.4914484273</ele>
        <time>2021-11-02T09:20:44Z</time>
      </trkpt>
      <trkpt lat="43.90228" lon="7.5643">
        <ele>1030.4914084654</ele>
        <time>2021-11-02T09:20:45Z</time>
      </trkpt>
      <trkpt lat="43.90229" lon="7.5643">
        <ele>1030.4913716646</ele>
        <time>2021-11-02T09:20:46Z</time>
      </trkpt>
      <trkpt lat="43.9023" lon="7.5643">
        <ele>1030.4913348622</ele>
        <time>2021-11-02T09:20:47Z</time>
      </trkpt>
      <trkpt lat="43.90231" lon="7.5643">
        <ele>1030.4912791654</ele>
        <time>2021-11-02T09:20:48Z</time>
      </trkpt>
      <trkpt lat="43.90231" lon="7.56429">
        <ele>1030.4912307553</ele>
        <time>2021-11-02T09:20:50Z</time>
      </trkpt>
      <trkpt lat="43.90234" lon="7.56428">
        <ele>1030.4911088366</ele>
        <time>2021-11-02T09:20:52Z</time>
      </trkpt>
      <trkpt lat="43.90235" lon="7.56428">
        <ele>1030.4910353366</ele>
        <time>2021-11-02T09:20:53Z</time>
      </trkpt>
      <trkpt lat="43.90236" lon="7.56427">
        <ele>1030.4909791244</ele>
        <time>2021-11-02T09:20:54Z</time>
      </trkpt>
      <trkpt lat="43.90237" lon="7.56427">
        <ele>1030.4909392506</ele>
        <time>2021-11-02T09:20:55Z</time>
      </trkpt>
      <trkpt lat="43.90237" lon="7.56427">
        <ele>1031.4909010404</ele>
        <time>2021-11-02T09:20:56Z</time>
      </trkpt>
      <trkpt lat="43.90238" lon="7.56427">
        <ele>1031.4908636097</ele>
        <time>2021-11-02T09:20:57Z</time>
      </trkpt>
      <trkpt lat="43.90239" lon="7.56426">
        <ele>1031.490811396</ele>
        <time>2021-11-02T09:20:58Z</time>
      </trkpt>
      <trkpt lat="43.90239" lon="7.56425">
        <ele>1031.4907750267</ele>
        <time>2021-11-02T09:20:59Z</time>
      </trkpt>
      <trkpt lat="43.9024" lon="7.56425">
        <ele>1031.4907477734</ele>
        <time>2021-11-02T09:21:00Z</time>
      </trkpt>
      <trkpt lat="43.90241" lon="7.56424">
        <ele>1030.4906864885</ele>
        <time>2021-11-02T09:21:02Z</time>
      </trkpt>
      <trkpt lat="43.90241" lon="7.56423">
        <ele>1031.4906526096</ele>
        <time>2021-11-02T09:21:03Z</time>
      </trkpt>
      <trkpt lat="43.90242" lon="7.56423">
        <ele>1031.4906102483</ele>
        <time>2021-11-02T09:21:04Z</time>
      </trkpt>
      <trkpt lat="43.90242" lon="7.56423">
        <ele>1031.4905793453</ele>
        <time>2021-11-02T09:21:05Z</time>
      </trkpt>
      <trkpt lat="43.90243" lon="7.56423">
        <ele>1032.490555061</ele>
        <time>2021-11-02T09:21:06Z</time>
      </trkpt>
      <trkpt lat="43.90243" lon="7.56423">
        <ele>1032.4905276406</ele>
        <time>2021-11-02T09:21:09Z</time>
      </trkpt>
      <trkpt lat="43.90246" lon="7.56422">
        <ele>1032.4904071458</ele>
        <time>2021-11-02T09:21:10Z</time>
      </trkpt>
      <trkpt lat="43.90247" lon="7.56423">
        <ele>1032.49036</ele>
        <time>2021-11-02T09:21:11Z</time>
      </trkpt>
      <trkpt lat="43.90247" lon="7.56423">
        <ele>1032.4903441252</ele>
        <time>2021-11-02T09:21:12Z</time>
      </trkpt>
      <trkpt lat="43.90248" lon="7.56425">
        <ele>1032.4903167768</ele>
        <time>2021-11-02T09:21:13Z</time>
      </trkpt>
      <trkpt lat="43.90249" lon="7.56426">
        <ele>1032.490281548</ele>
        <time>2021-11-02T09:21:14Z</time>
      </trkpt>
      <trkpt lat="43.9025" lon="7.56426">
        <ele>1032.4902391953</ele>
        <time>2021-11-02T09:21:15Z</time>
      </trkpt>
      <trkpt lat="43.90251" lon="7.56428">
        <ele>1032.490223492</ele>
        <time>2021-11-02T09:21:16Z</time>
      </trkpt>
      <trkpt lat="43.90252" lon="7.5643">
        <ele>1032.4901807234</ele>
        <time>2021-11-02T09:21:18Z</time>
      </trkpt>
      <trkpt lat="43.90254" lon="7.56431">
        <ele>1032.4901458974</ele>
        <time>2021-11-02T09:21:19Z</time>
      </trkpt>
      <trkpt lat="43.90255" lon="7.56433">
        <ele>1032.4901189804</ele>
        <time>2021-11-02T09:21:21Z</time>
      </trkpt>
      <trkpt lat="43.90256" lon="7.56435">
        <ele>1032.4900662259</ele>
        <time>2021-11-02T09:21:22Z</time>
      </trkpt>
      <trkpt lat="43.90257" lon="7.56436">
        <ele>1032.4900526562</ele>
        <time>2021-11-02T09:21:23Z</time>
      </trkpt>
      <trkpt lat="43.90258" lon="7.56438">
        <ele>1032.4900455427</ele>
        <time>2021-11-02T09:21:24Z</time>
      </trkpt>
      <trkpt lat="43.90259" lon="7.56439">
        <ele>1032.4900012407</ele>
        <time>2021-11-02T09:21:26Z</time>
      </trkpt>
      <trkpt lat="43.9026" lon="7.5644">
        <ele>1032.4899787724</ele>
        <time>2021-11-02T09:21:27Z</time>
      </trkpt>
      <trkpt lat="43.90261" lon="7.56442">
        <ele>1032.4899337938</ele>
        <time>2021-11-02T09:21:28Z</time>
      </trkpt>
      <trkpt lat="43.90262" lon="7.56443">
        <ele>1031.4898920661</ele>
        <time>2021-11-02T09:21:29Z</time>
      </trkpt>
      <trkpt lat="43.90263" lon="7.56443">
        <ele>1032.4898655534</ele>
        <time>2021-11-02T09:21:31Z</time>
      </trkpt>
      <trkpt lat="43.90263" lon="7.56444">
        <ele>1032.4898750599</ele>
        <time>2021-11-02T09:21:32Z</time>
      </trkpt>
      <trkpt lat="43.90263" lon="7.56445">
        <ele>1033.4898664172</ele>
        <time>2021-11-02T09:21:35Z</time>
      </trkpt>
      <trkpt lat="43.90264" lon="7.56446">
        <ele>1032.4898744394</ele>
        <time>2021-11-02T09:21:36Z</time>
      </trkpt>
      <trkpt lat="43.90264" lon="7.56448">
        <ele>1033.4898703476</ele>
        <time>2021-11-02T09:21:38Z</time>
      </trkpt>
      <trkpt lat="43.90265" lon="7.56448">
        <ele>1033.4898385964</ele>
        <time>2021-11-02T09:21:39Z</time>
      </trkpt>
      <trkpt lat="43.90266" lon="7.56449">
        <ele>1034.489817319</ele>
        <time>2021-11-02T09:21:41Z</time>
      </trkpt>
      <trkpt lat="43.90267" lon="7.56448">
        <ele>1034.4897121725</ele>
        <time>2021-11-02T09:21:42Z</time>
      </trkpt>
      <trkpt lat="43.90267" lon="7.56448">
        <ele>1034.4897295442</ele>
        <time>2021-11-02T09:21:56Z</time>
      </trkpt>
      <trkpt lat="43.90268" lon="7.5645">
        <ele>1034.4896913289</ele>
        <time>2021-11-02T09:21:57Z</time>
      </trkpt>
      <trkpt lat="43.90269" lon="7.56452">
        <ele>1034.489690697</ele>
        <time>2021-11-02T09:21:58Z</time>
      </trkpt>
      <trkpt lat="43.90269" lon="7.56453">
        <ele>1034.4896877859</ele>
        <time>2021-11-02T09:21:59Z</time>
      </trkpt>
      <trkpt lat="43.9027" lon="7.56454">
        <ele>1035.489673417</ele>
        <time>2021-11-02T09:22:00Z</time>
      </trkpt>
      <trkpt lat="43.9027" lon="7.56454">
        <ele>1035.4896505366</ele>
        <time>2021-11-02T09:22:02Z</time>
      </trkpt>
      <trkpt lat="43.90271" lon="7.56455">
        <ele>1035.4896711815</ele>
        <time>2021-11-02T09:22:03Z</time>
      </trkpt>
      <trkpt lat="43.90271" lon="7.56455">
        <ele>1035.4896363724</ele>
        <time>2021-11-02T09:22:04Z</time>
      </trkpt>
      <trkpt lat="43.90271" lon="7.56456">
        <ele>1035.489627466</ele>
        <time>2021-11-02T09:22:05Z</time>
      </trkpt>
      <trkpt lat="43.90272" lon="7.56458">
        <ele>1035.4896165663</ele>
        <time>2021-11-02T09:22:07Z</time>
      </trkpt>
      <trkpt lat="43.90273" lon="7.5646">
        <ele>1035.4896084447</ele>
        <time>2021-11-02T09:22:08Z</time>
      </trkpt>
      <trkpt lat="43.90274" lon="7.56461">
        <ele>1034.4895980104</ele>
        <time>2021-11-02T09:22:09Z</time>
      </trkpt>
      <trkpt lat="43.90274" lon="7.56463">
        <ele>1035.4896083644</ele>
        <time>2021-11-02T09:22:10Z</time>
      </trkpt>
      <trkpt lat="43.90275" lon="7.56465">
        <ele>1034.4896077591</ele>
        <time>2021-11-02T09:22:11Z</time>
      </trkpt>
      <trkpt lat="43.90275" lon="7.56465">
        <ele>1034.4896035849</ele>
        <time>2021-11-02T09:22:13Z</time>
      </trkpt>
      <trkpt lat="43.90275" lon="7.56465">
        <ele>1035.4895701691</ele>
        <time>2021-11-02T09:22:23Z</time>
      </trkpt>
      <trkpt lat="43.90277" lon="7.56464">
        <ele>1035.4894963841</ele>
        <time>2021-11-02T09:22:24Z</time>
      </trkpt>
      <trkpt lat="43.90277" lon="7.56464">
        <ele>1035.4895000383</ele>
        <time>2021-11-02T09:22:29Z</time>
      </trkpt>
      <trkpt lat="43.90277" lon="7.56465">
        <ele>1035.4894673455</ele>
        <time>2021-11-02T09:22:30Z</time>
      </trkpt>
      <trkpt lat="43.90278" lon="7.56465">
        <ele>1035.489438317</ele>
        <time>2021-11-02T09:22:31Z</time>
      </trkpt>
      <trkpt lat="43.90281" lon="7.56465">
        <ele>1034.4893070341</ele>
        <time>2021-11-02T09:22:33Z</time>
      </trkpt>
      <trkpt lat="43.90282" lon="7.56465">
        <ele>1033.4892535235</ele>
        <time>2021-11-02T09:22:34Z</time>
      </trkpt>
      <trkpt lat="43.90283" lon="7.56465">
        <ele>1033.4892167557</ele>
        <time>2021-11-02T09:22:35Z</time>
      </trkpt>
      <trkpt lat="43.90283" lon="7.56468">
        <ele>1033.489237209</ele>
        <time>2021-11-02T09:22:37Z</time>
      </trkpt>
      <trkpt lat="43.90284" lon="7.56468">
        <ele>1033.4892207301</ele>
        <time>2021-11-02T09:22:38Z</time>
      </trkpt>
      <trkpt lat="43.90284" lon="7.56469">
        <ele>1033.4892014454</ele>
        <time>2021-11-02T09:22:39Z</time>
      </trkpt>
      <trkpt lat="43.90283" lon="7.56468">
        <ele>1034.48923799</ele>
        <time>2021-11-02T09:22:41Z</time>
      </trkpt>
      <trkpt lat="43.90283" lon="7.56469">
        <ele>1035.4892422395</ele>
        <time>2021-11-02T09:22:43Z</time>
      </trkpt>
      <trkpt lat="43.90284" lon="7.5647">
        <ele>1035.4892328402</ele>
        <time>2021-11-02T09:22:44Z</time>
      </trkpt>
      <trkpt lat="43.90284" lon="7.56471">
        <ele>1034.4892225827</ele>
        <time>2021-11-02T09:22:45Z</time>
      </trkpt>
      <trkpt lat="43.90285" lon="7.56472">
        <ele>1034.4892254355</ele>
        <time>2021-11-02T09:22:46Z</time>
      </trkpt>
      <trkpt lat="43.90285" lon="7.56475">
        <ele>1034.4892320236</ele>
        <time>2021-11-02T09:22:47Z</time>
      </trkpt>
      <trkpt lat="43.90286" lon="7.56476">
        <ele>1034.4891959502</ele>
        <time>2021-11-02T09:22:48Z</time>
      </trkpt>
      <trkpt lat="43.90287" lon="7.56477">
        <ele>1033.4891633962</ele>
        <time>2021-11-02T09:22:49Z</time>
      </trkpt>
      <trkpt lat="43.90288" lon="7.56478">
        <ele>1034.4891411364</ele>
        <time>2021-11-02T09:22:50Z</time>
      </trkpt>
      <trkpt lat="43.9029" lon="7.56477">
        <ele>1033.489025464</ele>
        <time>2021-11-02T09:22:52Z</time>
      </trkpt>
      <trkpt lat="43.90291" lon="7.56477">
        <ele>1033.4889735679</ele>
        <time>2021-11-02T09:22:53Z</time>
      </trkpt>
      <trkpt lat="43.90292" lon="7.56477">
        <ele>1033.4889154505</ele>
        <time>2021-11-02T09:22:54Z</time>
      </trkpt>
      <trkpt lat="43.90295" lon="7.56478">
        <ele>1033.4887895771</ele>
        <time>2021-11-02T09:22:57Z</time>
      </trkpt>
      <trkpt lat="43.90297" lon="7.56479">
        <ele>1032.4887252554</ele>
        <time>2021-11-02T09:22:58Z</time>
      </trkpt>
      <trkpt lat="43.90298" lon="7.56479">
        <ele>1032.4886533399</ele>
        <time>2021-11-02T09:22:59Z</time>
      </trkpt>
      <trkpt lat="43.903" lon="7.56479">
        <ele>1033.4885777776</ele>
        <time>2021-11-02T09:23:00Z</time>
      </trkpt>
      <trkpt lat="43.90303" lon="7.5648">
        <ele>1033.4884333595</ele>
        <time>2021-11-02T09:23:02Z</time>
      </trkpt>
      <trkpt lat="43.90304" lon="7.5648">
        <ele>1034.4883534635</ele>
        <time>2021-11-02T09:23:03Z</time>
      </trkpt>
      <trkpt lat="43.90305" lon="7.56481">
        <ele>1033.4883111531</ele>
        <time>2021-11-02T09:23:04Z</time>
      </trkpt>
      <trkpt lat="43.90306" lon="7.56481">
        <ele>1033.4882810939</ele>
        <time>2021-11-02T09:23:07Z</time>
      </trkpt>
      <trkpt lat="43.90307" lon="7.56481">
        <ele>1034.4882405413</ele>
        <time>2021-11-02T09:23:08Z</time>
      </trkpt>
      <trkpt lat="43.90308" lon="7.56482">
        <ele>1034.488198103</ele>
        <time>2021-11-02T09:23:09Z</time>
      </trkpt>
      <trkpt lat="43.90309" lon="7.56483">
        <ele>1034.4881787167</ele>
        <time>2021-11-02T09:23:10Z</time>
      </trkpt>
      <trkpt lat="43.90309" lon="7.56483">
        <ele>1035.4881589068</ele>
        <time>2021-11-02T09:23:11Z</time>
      </trkpt>
      <trkpt lat="43.9031" lon="7.56484">
        <ele>1035.4881326012</ele>
        <time>2021-11-02T09:23:15Z</time>
      </trkpt>
      <trkpt lat="43.90312" lon="7.56483">
        <ele>1037.4880117301</ele>
        <time>2021-11-02T09:23:16Z</time>
      </trkpt>
      <trkpt lat="43.90313" lon="7.56482">
        <ele>1037.4879569874</ele>
        <time>2021-11-02T09:23:17Z</time>
      </trkpt>
      <trkpt lat="43.90314" lon="7.56481">
        <ele>1037.4878677408</ele>
        <time>2021-11-02T09:23:18Z</time>
      </trkpt>
      <trkpt lat="43.90314" lon="7.56481">
        <ele>1037.4878677408</ele>
        <time>2021-11-02T09:23:20Z</time>
      </trkpt>
      <trkpt lat="43.90317" lon="7.56479">
        <ele>1036.487688677</ele>
        <time>2021-11-02T09:23:21Z</time>
      </trkpt>
      <trkpt lat="43.90318" lon="7.56479">
        <ele>1036.4876545446</ele>
        <time>2021-11-02T09:23:22Z</time>
      </trkpt>
      <trkpt lat="43.90319" lon="7.5648">
        <ele>1036.4876132522</ele>
        <time>2021-11-02T09:23:23Z</time>
      </trkpt>
      <trkpt lat="43.9032" lon="7.56481">
        <ele>1036.487558343</ele>
        <time>2021-11-02T09:23:24Z</time>
      </trkpt>
      <trkpt lat="43.9032" lon="7.56481">
        <ele>1036.487558343</ele>
        <time>2021-11-02T09:23:26Z</time>
      </trkpt>
      <trkpt lat="43.90324" lon="7.56482">
        <ele>1035.4874106901</ele>
        <time>2021-11-02T09:23:27Z</time>
      </trkpt>
      <trkpt lat="43.90325" lon="7.56482">
        <ele>1035.4873333767</ele>
        <time>2021-11-02T09:23:28Z</time>
      </trkpt>
      <trkpt lat="43.90327" lon="7.56482">
        <ele>1034.4872437599</ele>
        <time>2021-11-02T09:23:29Z</time>
      </trkpt>
      <trkpt lat="43.90328" lon="7.56482">
        <ele>1034.4871828842</ele>
        <time>2021-11-02T09:23:30Z</time>
      </trkpt>
      <trkpt lat="43.90329" lon="7.56481">
        <ele>1034.487110386</ele>
        <time>2021-11-02T09:23:31Z</time>
      </trkpt>
      <trkpt lat="43.90332" lon="7.56481">
        <ele>1034.4869852389</ele>
        <time>2021-11-02T09:23:33Z</time>
      </trkpt>
      <trkpt lat="43.90333" lon="7.5648">
        <ele>1033.4869286757</ele>
        <time>2021-11-02T09:23:34Z</time>
      </trkpt>
      <trkpt lat="43.90336" lon="7.56479">
        <ele>1032.4867587853</ele>
        <time>2021-11-02T09:23:36Z</time>
      </trkpt>
      <trkpt lat="43.90337" lon="7.56477">
        <ele>1032.4866467162</ele>
        <time>2021-11-02T09:23:38Z</time>
      </trkpt>
      <trkpt lat="43.90339" lon="7.56477">
        <ele>1032.4865782576</ele>
        <time>2021-11-02T09:23:39Z</time>
      </trkpt>
      <trkpt lat="43.9034" lon="7.56476">
        <ele>1032.4865221058</ele>
        <time>2021-11-02T09:23:40Z</time>
      </trkpt>
      <trkpt lat="43.90341" lon="7.56475">
        <ele>1032.4864479431</ele>
        <time>2021-11-02T09:23:41Z</time>
      </trkpt>
      <trkpt lat="43.90342" lon="7.56475">
        <ele>1032.4863765807</ele>
        <time>2021-11-02T09:23:42Z</time>
      </trkpt>
      <trkpt lat="43.90343" lon="7.56473">
        <ele>1032.4863011768</ele>
        <time>2021-11-02T09:23:43Z</time>
      </trkpt>
      <trkpt lat="43.90344" lon="7.56473">
        <ele>1032.4862494134</ele>
        <time>2021-11-02T09:23:44Z</time>
      </trkpt>
      <trkpt lat="43.90345" lon="7.56473">
        <ele>1034.4861712126</ele>
        <time>2021-11-02T09:23:47Z</time>
      </trkpt>
      <trkpt lat="43.90348" lon="7.56472">
        <ele>1034.4860353056</ele>
        <time>2021-11-02T09:23:48Z</time>
      </trkpt>
      <trkpt lat="43.90349" lon="7.56471">
        <ele>1034.4859487457</ele>
        <time>2021-11-02T09:23:49Z</time>
      </trkpt>
      <trkpt lat="43.90351" lon="7.56471">
        <ele>1034.4858611238</ele>
        <time>2021-11-02T09:23:51Z</time>
      </trkpt>
      <trkpt lat="43.90353" lon="7.56469">
        <ele>1033.4857230495</ele>
        <time>2021-11-02T09:23:52Z</time>
      </trkpt>
      <trkpt lat="43.90354" lon="7.56468">
        <ele>1033.4856474206</ele>
        <time>2021-11-02T09:23:53Z</time>
      </trkpt>
      <trkpt lat="43.90355" lon="7.56467">
        <ele>1033.4855902613</ele>
        <time>2021-11-02T09:23:54Z</time>
      </trkpt>
      <trkpt lat="43.90356" lon="7.56466">
        <ele>1033.4855398365</ele>
        <time>2021-11-02T09:23:56Z</time>
      </trkpt>
      <trkpt lat="43.90358" lon="7.56465">
        <ele>1034.4853978047</ele>
        <time>2021-11-02T09:23:57Z</time>
      </trkpt>
      <trkpt lat="43.9036" lon="7.56465">
        <ele>1034.4853178412</ele>
        <time>2021-11-02T09:23:58Z</time>
      </trkpt>
      <trkpt lat="43.90361" lon="7.56464">
        <ele>1034.4852275497</ele>
        <time>2021-11-02T09:23:59Z</time>
      </trkpt>
      <trkpt lat="43.90362" lon="7.56464">
        <ele>1034.4851708051</ele>
        <time>2021-11-02T09:24:01Z</time>
      </trkpt>
      <trkpt lat="43.90364" lon="7.56464">
        <ele>1034.4850868272</ele>
        <time>2021-11-02T09:24:02Z</time>
      </trkpt>
      <trkpt lat="43.90366" lon="7.56464">
        <ele>1034.4850219518</ele>
        <time>2021-11-02T09:24:03Z</time>
      </trkpt>
      <trkpt lat="43.90367" lon="7.56465">
        <ele>1035.4849499675</ele>
        <time>2021-11-02T09:24:04Z</time>
      </trkpt>
      <trkpt lat="43.90368" lon="7.56465">
        <ele>1036.4848968158</ele>
        <time>2021-11-02T09:24:06Z</time>
      </trkpt>
      <trkpt lat="43.90371" lon="7.56465">
        <ele>1036.4847725782</ele>
        <time>2021-11-02T09:24:07Z</time>
      </trkpt>
      <trkpt lat="43.90371" lon="7.56465">
        <ele>1037.4847354881</ele>
        <time>2021-11-02T09:24:08Z</time>
      </trkpt>
      <trkpt lat="43.90372" lon="7.56465">
        <ele>1037.4847109949</ele>
        <time>2021-11-02T09:24:09Z</time>
      </trkpt>
      <trkpt lat="43.90373" lon="7.56466">
        <ele>1037.4846618687</ele>
        <time>2021-11-02T09:24:10Z</time>
      </trkpt>
      <trkpt lat="43.90374" lon="7.56465">
        <ele>1037.4846300975</ele>
        <time>2021-11-02T09:24:11Z</time>
      </trkpt>
      <trkpt lat="43.90375" lon="7.56465">
        <ele>1037.4845785784</ele>
        <time>2021-11-02T09:24:12Z</time>
      </trkpt>
      <trkpt lat="43.90375" lon="7.56465">
        <ele>1038.4845401063</ele>
        <time>2021-11-02T09:24:13Z</time>
      </trkpt>
      <trkpt lat="43.90376" lon="7.56464">
        <ele>1038.4844908052</ele>
        <time>2021-11-02T09:24:14Z</time>
      </trkpt>
      <trkpt lat="43.90377" lon="7.56463">
        <ele>1038.4844099819</ele>
        <time>2021-11-02T09:24:15Z</time>
      </trkpt>
      <trkpt lat="43.90378" lon="7.56461">
        <ele>1039.484356888</ele>
        <time>2021-11-02T09:24:17Z</time>
      </trkpt>
      <trkpt lat="43.90378" lon="7.56461">
        <ele>1040.4843705536</ele>
        <time>2021-11-02T09:24:18Z</time>
      </trkpt>
      <trkpt lat="43.90379" lon="7.5646">
        <ele>1039.4842927187</ele>
        <time>2021-11-02T09:24:19Z</time>
      </trkpt>
      <trkpt lat="43.90381" lon="7.56459">
        <ele>1039.4841744167</ele>
        <time>2021-11-02T09:24:20Z</time>
      </trkpt>
      <trkpt lat="43.90383" lon="7.56458">
        <ele>1037.4840683453</ele>
        <time>2021-11-02T09:24:21Z</time>
      </trkpt>
      <trkpt lat="43.90384" lon="7.56457">
        <ele>1037.4839738514</ele>
        <time>2021-11-02T09:24:22Z</time>
      </trkpt>
      <trkpt lat="43.90385" lon="7.56457">
        <ele>1037.4839159603</ele>
        <time>2021-11-02T09:24:23Z</time>
      </trkpt>
      <trkpt lat="43.90386" lon="7.56457">
        <ele>1037.4838596399</ele>
        <time>2021-11-02T09:24:24Z</time>
      </trkpt>
      <trkpt lat="43.90387" lon="7.56456">
        <ele>1037.4838202185</ele>
        <time>2021-11-02T09:24:25Z</time>
      </trkpt>
      <trkpt lat="43.90388" lon="7.56456">
        <ele>1038.483793524</ele>
        <time>2021-11-02T09:24:26Z</time>
      </trkpt>
      <trkpt lat="43.90388" lon="7.56456">
        <ele>1038.4837523104</ele>
        <time>2021-11-02T09:24:27Z</time>
      </trkpt>
      <trkpt lat="43.9039" lon="7.56456">
        <ele>1038.4836671185</ele>
        <time>2021-11-02T09:24:28Z</time>
      </trkpt>
      <trkpt lat="43.90391" lon="7.56456">
        <ele>1038.4836002899</ele>
        <time>2021-11-02T09:24:29Z</time>
      </trkpt>
      <trkpt lat="43.90392" lon="7.56456">
        <ele>1039.4835574679</ele>
        <time>2021-11-02T09:24:30Z</time>
      </trkpt>
      <trkpt lat="43.90393" lon="7.56457">
        <ele>1041.4835515098</ele>
        <time>2021-11-02T09:24:32Z</time>
      </trkpt>
      <trkpt lat="43.90394" lon="7.56457">
        <ele>1042.4835072711</ele>
        <time>2021-11-02T09:24:33Z</time>
      </trkpt>
      <trkpt lat="43.90395" lon="7.56457">
        <ele>1043.4834614608</ele>
        <time>2021-11-02T09:24:34Z</time>
      </trkpt>
      <trkpt lat="43.90395" lon="7.56457">
        <ele>1044.4834322337</ele>
        <time>2021-11-02T09:24:39Z</time>
      </trkpt>
      <trkpt lat="43.90397" lon="7.56457">
        <ele>1044.4833108553</ele>
        <time>2021-11-02T09:24:41Z</time>
      </trkpt>
      <trkpt lat="43.90398" lon="7.56458">
        <ele>1044.483307031</ele>
        <time>2021-11-02T09:24:42Z</time>
      </trkpt>
      <trkpt lat="43.90398" lon="7.56458">
        <ele>1046.4832860493</ele>
        <time>2021-11-02T09:24:49Z</time>
      </trkpt>
      <trkpt lat="43.90399" lon="7.56458">
        <ele>1046.4832348583</ele>
        <time>2021-11-02T09:24:50Z</time>
      </trkpt>
      <trkpt lat="43.904" lon="7.56457">
        <ele>1046.4832008231</ele>
        <time>2021-11-02T09:24:58Z</time>
      </trkpt>
      <trkpt lat="43.904" lon="7.56456">
        <ele>1046.4831462307</ele>
        <time>2021-11-02T09:24:59Z</time>
      </trkpt>
      <trkpt lat="43.90401" lon="7.56455">
        <ele>1048.4831179977</ele>
        <time>2021-11-02T09:25:01Z</time>
      </trkpt>
      <trkpt lat="43.90401" lon="7.56454">
        <ele>1049.4830793703</ele>
        <time>2021-11-02T09:25:07Z</time>
      </trkpt>
      <trkpt lat="43.90402" lon="7.56453">
        <ele>1048.4829935891</ele>
        <time>2021-11-02T09:25:08Z</time>
      </trkpt>
      <trkpt lat="43.90403" lon="7.56452">
        <ele>1048.482973637</ele>
        <time>2021-11-02T09:25:10Z</time>
      </trkpt>
      <trkpt lat="43.90402" lon="7.56454">
        <ele>1047.4830223593</ele>
        <time>2021-11-02T09:25:12Z</time>
      </trkpt>
      <trkpt lat="43.90402" lon="7.56454">
        <ele>1047.4830221733</ele>
        <time>2021-11-02T09:25:21Z</time>
      </trkpt>
      <trkpt lat="43.90403" lon="7.56453">
        <ele>1047.4829814647</ele>
        <time>2021-11-02T09:25:22Z</time>
      </trkpt>
      <trkpt lat="43.90404" lon="7.56453">
        <ele>1046.4829430717</ele>
        <time>2021-11-02T09:25:23Z</time>
      </trkpt>
      <trkpt lat="43.90404" lon="7.56453">
        <ele>1046.4829304921</ele>
        <time>2021-11-02T09:25:25Z</time>
      </trkpt>
      <trkpt lat="43.90404" lon="7.56452">
        <ele>1046.4828946806</ele>
        <time>2021-11-02T09:25:38Z</time>
      </trkpt>
      <trkpt lat="43.90403" lon="7.56453">
        <ele>1045.4829771351</ele>
        <time>2021-11-02T09:25:39Z</time>
      </trkpt>
      <trkpt lat="43.90403" lon="7.56454">
        <ele>1045.4829735082</ele>
        <time>2021-11-02T09:25:44Z</time>
      </trkpt>
      <trkpt lat="43.90404" lon="7.56455">
        <ele>1045.4829447597</ele>
        <time>2021-11-02T09:25:45Z</time>
      </trkpt>
      <trkpt lat="43.90404" lon="7.56455">
        <ele>1045.4829441159</ele>
        <time>2021-11-02T09:25:47Z</time>
      </trkpt>
      <trkpt lat="43.90405" lon="7.56455">
        <ele>1045.4828848548</ele>
        <time>2021-11-02T09:25:48Z</time>
      </trkpt>
      <trkpt lat="43.90406" lon="7.56454">
        <ele>1045.4828318906</ele>
        <time>2021-11-02T09:25:50Z</time>
      </trkpt>
      <trkpt lat="43.90407" lon="7.56454">
        <ele>1044.4827925567</ele>
        <time>2021-11-02T09:25:52Z</time>
      </trkpt>
      <trkpt lat="43.90409" lon="7.56454">
        <ele>1043.4826736358</ele>
        <time>2021-11-02T09:25:53Z</time>
      </trkpt>
      <trkpt lat="43.9041" lon="7.56454">
        <ele>1043.4826553428</ele>
        <time>2021-11-02T09:25:54Z</time>
      </trkpt>
      <trkpt lat="43.9041" lon="7.56453">
        <ele>1044.4826220226</ele>
        <time>2021-11-02T09:26:02Z</time>
      </trkpt>
      <trkpt lat="43.90409" lon="7.56453">
        <ele>1044.4826549695</ele>
        <time>2021-11-02T09:26:03Z</time>
      </trkpt>
      <trkpt lat="43.90409" lon="7.56452">
        <ele>1044.4826342527</ele>
        <time>2021-11-02T09:26:07Z</time>
      </trkpt>
      <trkpt lat="43.90409" lon="7.56452">
        <ele>1043.482621942</ele>
        <time>2021-11-02T09:26:08Z</time>
      </trkpt>
      <trkpt lat="43.90409" lon="7.5645">
        <ele>1044.4826075771</ele>
        <time>2021-11-02T09:26:09Z</time>
      </trkpt>
      <trkpt lat="43.9041" lon="7.5645">
        <ele>1044.4825973408</ele>
        <time>2021-11-02T09:26:10Z</time>
      </trkpt>
      <trkpt lat="43.9041" lon="7.5645">
        <ele>1044.4825487068</ele>
        <time>2021-11-02T09:26:12Z</time>
      </trkpt>
      <trkpt lat="43.9041" lon="7.5645">
        <ele>1044.4825487068</ele>
        <time>2021-11-02T09:26:34Z</time>
      </trkpt>
      <trkpt lat="43.90409" lon="7.5645">
        <ele>1044.4826010024</ele>
        <time>2021-11-02T09:26:35Z</time>
      </trkpt>
      <trkpt lat="43.90409" lon="7.5645">
        <ele>1044.4826341134</ele>
        <time>2021-11-02T09:26:36Z</time>
      </trkpt>
      <trkpt lat="43.90408" lon="7.56451">
        <ele>1044.482660333</ele>
        <time>2021-11-02T09:26:37Z</time>
      </trkpt>
      <trkpt lat="43.90408" lon="7.56451">
        <ele>1044.48270724</ele>
        <time>2021-11-02T09:26:39Z</time>
      </trkpt>
      <trkpt lat="43.90408" lon="7.5645">
        <ele>1043.4826832616</ele>
        <time>2021-11-02T09:26:41Z</time>
      </trkpt>
      <trkpt lat="43.90408" lon="7.5645">
        <ele>1043.4826528005</ele>
        <time>2021-11-02T09:26:42Z</time>
      </trkpt>
      <trkpt lat="43.90409" lon="7.5645">
        <ele>1043.4826101182</ele>
        <time>2021-11-02T09:26:46Z</time>
      </trkpt>
      <trkpt lat="43.90411" lon="7.56451">
        <ele>1042.4825217086</ele>
        <time>2021-11-02T09:26:47Z</time>
      </trkpt>
      <trkpt lat="43.90412" lon="7.56451">
        <ele>1042.4824843034</ele>
        <time>2021-11-02T09:26:48Z</time>
      </trkpt>
      <trkpt lat="43.90413" lon="7.56451">
        <ele>1042.4824390799</ele>
        <time>2021-11-02T09:26:49Z</time>
      </trkpt>
      <trkpt lat="43.90414" lon="7.56451">
        <ele>1042.4823872712</ele>
        <time>2021-11-02T09:26:50Z</time>
      </trkpt>
      <trkpt lat="43.90415" lon="7.56451">
        <ele>1042.482348039</ele>
        <time>2021-11-02T09:26:51Z</time>
      </trkpt>
      <trkpt lat="43.90415" lon="7.56451">
        <ele>1042.4823325853</ele>
        <time>2021-11-02T09:26:52Z</time>
      </trkpt>
      <trkpt lat="43.90416" lon="7.56452">
        <ele>1042.4823094603</ele>
        <time>2021-11-02T09:26:53Z</time>
      </trkpt>
      <trkpt lat="43.90416" lon="7.56453">
        <ele>1043.4822923423</ele>
        <time>2021-11-02T09:26:54Z</time>
      </trkpt>
      <trkpt lat="43.90418" lon="7.56455">
        <ele>1043.4822653432</ele>
        <time>2021-11-02T09:26:56Z</time>
      </trkpt>
      <trkpt lat="43.90418" lon="7.56455">
        <ele>1043.4822653432</ele>
        <time>2021-11-02T09:27:02Z</time>
      </trkpt>
      <trkpt lat="43.90419" lon="7.56457">
        <ele>1043.4822119891</ele>
        <time>2021-11-02T09:27:03Z</time>
      </trkpt>
      <trkpt lat="43.9042" lon="7.56457">
        <ele>1044.4821619713</ele>
        <time>2021-11-02T09:27:04Z</time>
      </trkpt>
      <trkpt lat="43.90421" lon="7.56456">
        <ele>1044.4821343009</ele>
        <time>2021-11-02T09:27:05Z</time>
      </trkpt>
      <trkpt lat="43.90422" lon="7.56458">
        <ele>1044.4821081381</ele>
        <time>2021-11-02T09:27:07Z</time>
      </trkpt>
      <trkpt lat="43.90423" lon="7.56459">
        <ele>1044.482065816</ele>
        <time>2021-11-02T09:27:09Z</time>
      </trkpt>
      <trkpt lat="43.90424" lon="7.56459">
        <ele>1043.4820282335</ele>
        <time>2021-11-02T09:27:10Z</time>
      </trkpt>
      <trkpt lat="43.90425" lon="7.56461">
        <ele>1043.4819953358</ele>
        <time>2021-11-02T09:27:11Z</time>
      </trkpt>
      <trkpt lat="43.90427" lon="7.56462">
        <ele>1042.4819098393</ele>
        <time>2021-11-02T09:27:13Z</time>
      </trkpt>
      <trkpt lat="43.90428" lon="7.56462">
        <ele>1041.4818653215</ele>
        <time>2021-11-02T09:27:14Z</time>
      </trkpt>
      <trkpt lat="43.90429" lon="7.56463">
        <ele>1040.4818232043</ele>
        <time>2021-11-02T09:27:15Z</time>
      </trkpt>
      <trkpt lat="43.9043" lon="7.56465">
        <ele>1037.4817682262</ele>
        <time>2021-11-02T09:27:17Z</time>
      </trkpt>
      <trkpt lat="43.90431" lon="7.56466">
        <ele>1037.4817589319</ele>
        <time>2021-11-02T09:27:18Z</time>
      </trkpt>
      <trkpt lat="43.90432" lon="7.56466">
        <ele>1037.4817288351</ele>
        <time>2021-11-02T09:27:19Z</time>
      </trkpt>
      <trkpt lat="43.90432" lon="7.56466">
        <ele>1038.4817197768</ele>
        <time>2021-11-02T09:27:23Z</time>
      </trkpt>
      <trkpt lat="43.90433" lon="7.56467">
        <ele>1038.4816863248</ele>
        <time>2021-11-02T09:27:24Z</time>
      </trkpt>
      <trkpt lat="43.90433" lon="7.56468">
        <ele>1038.4816715764</ele>
        <time>2021-11-02T09:27:25Z</time>
      </trkpt>
      <trkpt lat="43.90434" lon="7.56469">
        <ele>1038.4816771967</ele>
        <time>2021-11-02T09:27:27Z</time>
      </trkpt>
      <trkpt lat="43.90434" lon="7.56469">
        <ele>1037.4816661138</ele>
        <time>2021-11-02T09:27:28Z</time>
      </trkpt>
      <trkpt lat="43.90435" lon="7.5647">
        <ele>1037.4816282804</ele>
        <time>2021-11-02T09:27:29Z</time>
      </trkpt>
      <trkpt lat="43.90436" lon="7.56471">
        <ele>1037.4815757099</ele>
        <time>2021-11-02T09:27:30Z</time>
      </trkpt>
      <trkpt lat="43.90437" lon="7.56472">
        <ele>1037.481544269</ele>
        <time>2021-11-02T09:27:31Z</time>
      </trkpt>
      <trkpt lat="43.90438" lon="7.56473">
        <ele>1038.4815302418</ele>
        <time>2021-11-02T09:27:32Z</time>
      </trkpt>
      <trkpt lat="43.90437" lon="7.56474">
        <ele>1037.4815522643</ele>
        <time>2021-11-02T09:27:35Z</time>
      </trkpt>
      <trkpt lat="43.90437" lon="7.56473">
        <ele>1038.4815568069</ele>
        <time>2021-11-02T09:27:40Z</time>
      </trkpt>
      <trkpt lat="43.90436" lon="7.56473">
        <ele>1038.4815966974</ele>
        <time>2021-11-02T09:27:41Z</time>
      </trkpt>
      <trkpt lat="43.90436" lon="7.56473">
        <ele>1038.4816342632</ele>
        <time>2021-11-02T09:27:43Z</time>
      </trkpt>
      <trkpt lat="43.90435" lon="7.56474">
        <ele>1038.4816682449</ele>
        <time>2021-11-02T09:28:01Z</time>
      </trkpt>
      <trkpt lat="43.90435" lon="7.56473">
        <ele>1040.4816798859</ele>
        <time>2021-11-02T09:28:02Z</time>
      </trkpt>
      <trkpt lat="43.90435" lon="7.56472">
        <ele>1039.4816411912</ele>
        <time>2021-11-02T09:28:03Z</time>
      </trkpt>
      <trkpt lat="43.90436" lon="7.56472">
        <ele>1040.4816119319</ele>
        <time>2021-11-02T09:28:06Z</time>
      </trkpt>
      <trkpt lat="43.90436" lon="7.56471">
        <ele>1040.4815789993</ele>
        <time>2021-11-02T09:28:07Z</time>
      </trkpt>
      <trkpt lat="43.90437" lon="7.56471">
        <ele>1040.4815397359</ele>
        <time>2021-11-02T09:28:08Z</time>
      </trkpt>
      <trkpt lat="43.90438" lon="7.56471">
        <ele>1041.4815075557</ele>
        <time>2021-11-02T09:28:09Z</time>
      </trkpt>
      <trkpt lat="43.90438" lon="7.56472">
        <ele>1041.481494759</ele>
        <time>2021-11-02T09:28:10Z</time>
      </trkpt>
      <trkpt lat="43.90439" lon="7.56473">
        <ele>1041.4814512962</ele>
        <time>2021-11-02T09:28:12Z</time>
      </trkpt>
      <trkpt lat="43.9044" lon="7.56473">
        <ele>1040.4814410832</ele>
        <time>2021-11-02T09:28:13Z</time>
      </trkpt>
      <trkpt lat="43.9044" lon="7.56474">
        <ele>1041.4813999789</ele>
        <time>2021-11-02T09:28:14Z</time>
      </trkpt>
      <trkpt lat="43.90441" lon="7.56474">
        <ele>1041.4813758337</ele>
        <time>2021-11-02T09:28:15Z</time>
      </trkpt>
      <trkpt lat="43.90442" lon="7.56475">
        <ele>1041.4813358214</ele>
        <time>2021-11-02T09:28:16Z</time>
      </trkpt>
      <trkpt lat="43.90445" lon="7.56477">
        <ele>1040.4812359164</ele>
        <time>2021-11-02T09:28:18Z</time>
      </trkpt>
      <trkpt lat="43.90446" lon="7.56478">
        <ele>1040.4811983978</ele>
        <time>2021-11-02T09:28:19Z</time>
      </trkpt>
      <trkpt lat="43.90446" lon="7.56478">
        <ele>1039.4811702998</ele>
        <time>2021-11-02T09:28:21Z</time>
      </trkpt>
      <trkpt lat="43.90448" lon="7.56479">
        <ele>1037.4811263364</ele>
        <time>2021-11-02T09:28:22Z</time>
      </trkpt>
      <trkpt lat="43.90449" lon="7.56481">
        <ele>1037.4811015815</ele>
        <time>2021-11-02T09:28:23Z</time>
      </trkpt>
      <trkpt lat="43.90449" lon="7.56483">
        <ele>1037.4811147214</ele>
        <time>2021-11-02T09:28:25Z</time>
      </trkpt>
      <trkpt lat="43.9045" lon="7.56483">
        <ele>1037.4810550479</ele>
        <time>2021-11-02T09:28:27Z</time>
      </trkpt>
      <trkpt lat="43.90453" lon="7.56484">
        <ele>1036.4809417732</ele>
        <time>2021-11-02T09:28:28Z</time>
      </trkpt>
      <trkpt lat="43.90454" lon="7.56484">
        <ele>1036.480864967</ele>
        <time>2021-11-02T09:28:29Z</time>
      </trkpt>
      <trkpt lat="43.90456" lon="7.56484">
        <ele>1035.4808073898</ele>
        <time>2021-11-02T09:28:31Z</time>
      </trkpt>
      <trkpt lat="43.90458" lon="7.56485">
        <ele>1035.4807068853</ele>
        <time>2021-11-02T09:28:33Z</time>
      </trkpt>
      <trkpt lat="43.90459" lon="7.56484">
        <ele>1035.4806510652</ele>
        <time>2021-11-02T09:28:34Z</time>
      </trkpt>
      <trkpt lat="43.90459" lon="7.56485">
        <ele>1035.4806217965</ele>
        <time>2021-11-02T09:28:35Z</time>
      </trkpt>
      <trkpt lat="43.9046" lon="7.56485">
        <ele>1036.4805848686</ele>
        <time>2021-11-02T09:28:36Z</time>
      </trkpt>
      <trkpt lat="43.90461" lon="7.56486">
        <ele>1036.4805367601</ele>
        <time>2021-11-02T09:28:38Z</time>
      </trkpt>
      <trkpt lat="43.90463" lon="7.56487">
        <ele>1036.4804869313</ele>
        <time>2021-11-02T09:28:39Z</time>
      </trkpt>
      <trkpt lat="43.90463" lon="7.56488">
        <ele>1036.4804676471</ele>
        <time>2021-11-02T09:28:41Z</time>
      </trkpt>
      <trkpt lat="43.90464" lon="7.56488">
        <ele>1036.4804463823</ele>
        <time>2021-11-02T09:28:42Z</time>
      </trkpt>
      <trkpt lat="43.90467" lon="7.56489">
        <ele>1034.4802724871</ele>
        <time>2021-11-02T09:28:44Z</time>
      </trkpt>
      <trkpt lat="43.90469" lon="7.56489">
        <ele>1033.4802125837</ele>
        <time>2021-11-02T09:28:45Z</time>
      </trkpt>
      <trkpt lat="43.9047" lon="7.5649">
        <ele>1033.4801456659</ele>
        <time>2021-11-02T09:28:47Z</time>
      </trkpt>
      <trkpt lat="43.90472" lon="7.56491">
        <ele>1032.4800502484</ele>
        <time>2021-11-02T09:28:48Z</time>
      </trkpt>
      <trkpt lat="43.90474" lon="7.56491">
        <ele>1032.4799944556</ele>
        <time>2021-11-02T09:28:49Z</time>
      </trkpt>
      <trkpt lat="43.90475" lon="7.56491">
        <ele>1032.4799309945</ele>
        <time>2021-11-02T09:28:50Z</time>
      </trkpt>
      <trkpt lat="43.90476" lon="7.56491">
        <ele>1032.4798775226</ele>
        <time>2021-11-02T09:28:51Z</time>
      </trkpt>
      <trkpt lat="43.90477" lon="7.56492">
        <ele>1033.4798362138</ele>
        <time>2021-11-02T09:28:52Z</time>
      </trkpt>
      <trkpt lat="43.90478" lon="7.56492">
        <ele>1032.4797769154</ele>
        <time>2021-11-02T09:28:53Z</time>
      </trkpt>
      <trkpt lat="43.9048" lon="7.56493">
        <ele>1033.4797135981</ele>
        <time>2021-11-02T09:28:54Z</time>
      </trkpt>
      <trkpt lat="43.90481" lon="7.56493">
        <ele>1033.4796762393</ele>
        <time>2021-11-02T09:28:55Z</time>
      </trkpt>
      <trkpt lat="43.90481" lon="7.56493">
        <ele>1032.4796626192</ele>
        <time>2021-11-02T09:28:56Z</time>
      </trkpt>
      <trkpt lat="43.90481" lon="7.56494">
        <ele>1031.4796407731</ele>
        <time>2021-11-02T09:30:02Z</time>
      </trkpt>
      <trkpt lat="43.90482" lon="7.56492">
        <ele>1031.4795999891</ele>
        <time>2021-11-02T09:30:03Z</time>
      </trkpt>
      <trkpt lat="43.90482" lon="7.56492">
        <ele>1032.47959931</ele>
        <time>2021-11-02T09:30:05Z</time>
      </trkpt>
      <trkpt lat="43.90482" lon="7.56493">
        <ele>1032.4796124672</ele>
        <time>2021-11-02T09:30:08Z</time>
      </trkpt>
      <trkpt lat="43.90482" lon="7.56496">
        <ele>1034.4796609178</ele>
        <time>2021-11-02T09:30:09Z</time>
      </trkpt>
      <trkpt lat="43.90482" lon="7.56497">
        <ele>1035.4796850623</ele>
        <time>2021-11-02T09:30:10Z</time>
      </trkpt>
      <trkpt lat="43.90481" lon="7.56497">
        <ele>1036.4796977905</ele>
        <time>2021-11-02T09:30:40Z</time>
      </trkpt>
      <trkpt lat="43.90483" lon="7.56498">
        <ele>1036.4796141222</ele>
        <time>2021-11-02T09:30:41Z</time>
      </trkpt>
      <trkpt lat="43.90484" lon="7.56498">
        <ele>1037.4795822358</ele>
        <time>2021-11-02T09:30:42Z</time>
      </trkpt>
      <trkpt lat="43.90485" lon="7.56499">
        <ele>1037.4795491766</ele>
        <time>2021-11-02T09:30:43Z</time>
      </trkpt>
      <trkpt lat="43.90486" lon="7.56499">
        <ele>1037.4795108534</ele>
        <time>2021-11-02T09:30:44Z</time>
      </trkpt>
      <trkpt lat="43.90486" lon="7.565">
        <ele>1037.4794812816</ele>
        <time>2021-11-02T09:30:45Z</time>
      </trkpt>
      <trkpt lat="43.90487" lon="7.565">
        <ele>1037.4794530387</ele>
        <time>2021-11-02T09:30:46Z</time>
      </trkpt>
      <trkpt lat="43.90487" lon="7.565">
        <ele>1037.4794517468</ele>
        <time>2021-11-02T09:30:47Z</time>
      </trkpt>
      <trkpt lat="43.90488" lon="7.56501">
        <ele>1037.4794441174</ele>
        <time>2021-11-02T09:30:48Z</time>
      </trkpt>
      <trkpt lat="43.90488" lon="7.56502">
        <ele>1037.4794374915</ele>
        <time>2021-11-02T09:30:52Z</time>
      </trkpt>
      <trkpt lat="43.90489" lon="7.56502">
        <ele>1037.4793873427</ele>
        <time>2021-11-02T09:30:53Z</time>
      </trkpt>
      <trkpt lat="43.9049" lon="7.56503">
        <ele>1037.4793527472</ele>
        <time>2021-11-02T09:30:57Z</time>
      </trkpt>
      <trkpt lat="43.90491" lon="7.56503">
        <ele>1037.4792870514</ele>
        <time>2021-11-02T09:30:58Z</time>
      </trkpt>
      <trkpt lat="43.90492" lon="7.56503">
        <ele>1037.4792348789</ele>
        <time>2021-11-02T09:30:59Z</time>
      </trkpt>
      <trkpt lat="43.90493" lon="7.56503">
        <ele>1037.4791848186</ele>
        <time>2021-11-02T09:31:00Z</time>
      </trkpt>
      <trkpt lat="43.90494" lon="7.56503">
        <ele>1038.4791485949</ele>
        <time>2021-11-02T09:31:01Z</time>
      </trkpt>
      <trkpt lat="43.90495" lon="7.56503">
        <ele>1037.4791160234</ele>
        <time>2021-11-02T09:31:04Z</time>
      </trkpt>
      <trkpt lat="43.90496" lon="7.56502">
        <ele>1040.4790359855</ele>
        <time>2021-11-02T09:31:05Z</time>
      </trkpt>
      <trkpt lat="43.90496" lon="7.56502">
        <ele>1040.4790329042</ele>
        <time>2021-11-02T09:31:16Z</time>
      </trkpt>
      <trkpt lat="43.90497" lon="7.56503">
        <ele>1040.4789884674</ele>
        <time>2021-11-02T09:31:17Z</time>
      </trkpt>
      <trkpt lat="43.90497" lon="7.56505">
        <ele>1040.4790022151</ele>
        <time>2021-11-02T09:31:21Z</time>
      </trkpt>
      <trkpt lat="43.90498" lon="7.56505">
        <ele>1038.4789783071</ele>
        <time>2021-11-02T09:31:28Z</time>
      </trkpt>
      <trkpt lat="43.90499" lon="7.56506">
        <ele>1038.4789453037</ele>
        <time>2021-11-02T09:31:29Z</time>
      </trkpt>
      <trkpt lat="43.90499" lon="7.56506">
        <ele>1038.4789337707</ele>
        <time>2021-11-02T09:31:30Z</time>
      </trkpt>
      <trkpt lat="43.905" lon="7.56507">
        <ele>1038.4789166634</ele>
        <time>2021-11-02T09:31:31Z</time>
      </trkpt>
      <trkpt lat="43.90501" lon="7.56507">
        <ele>1038.4788843679</ele>
        <time>2021-11-02T09:31:32Z</time>
      </trkpt>
      <trkpt lat="43.90501" lon="7.56507">
        <ele>1038.4788495673</ele>
        <time>2021-11-02T09:31:33Z</time>
      </trkpt>
      <trkpt lat="43.90502" lon="7.56508">
        <ele>1037.4788140698</ele>
        <time>2021-11-02T09:31:34Z</time>
      </trkpt>
      <trkpt lat="43.90503" lon="7.56508">
        <ele>1037.4787757852</ele>
        <time>2021-11-02T09:31:35Z</time>
      </trkpt>
      <trkpt lat="43.90504" lon="7.56508">
        <ele>1037.47874966</ele>
        <time>2021-11-02T09:31:36Z</time>
      </trkpt>
      <trkpt lat="43.90504" lon="7.56509">
        <ele>1036.4787183704</ele>
        <time>2021-11-02T09:31:37Z</time>
      </trkpt>
      <trkpt lat="43.90505" lon="7.56509">
        <ele>1036.4786937167</ele>
        <time>2021-11-02T09:31:38Z</time>
      </trkpt>
      <trkpt lat="43.90506" lon="7.56509">
        <ele>1036.4786520938</ele>
        <time>2021-11-02T09:31:39Z</time>
      </trkpt>
      <trkpt lat="43.90506" lon="7.56509">
        <ele>1037.4786135101</ele>
        <time>2021-11-02T09:31:40Z</time>
      </trkpt>
      <trkpt lat="43.90508" lon="7.56509">
        <ele>1036.4785647736</ele>
        <time>2021-11-02T09:31:41Z</time>
      </trkpt>
      <trkpt lat="43.90509" lon="7.5651">
        <ele>1036.4785069017</ele>
        <time>2021-11-02T09:31:42Z</time>
      </trkpt>
      <trkpt lat="43.9051" lon="7.5651">
        <ele>1037.4784478473</ele>
        <time>2021-11-02T09:31:43Z</time>
      </trkpt>
      <trkpt lat="43.90512" lon="7.5651">
        <ele>1037.4783764403</ele>
        <time>2021-11-02T09:31:44Z</time>
      </trkpt>
      <trkpt lat="43.90513" lon="7.56511">
        <ele>1038.4783139979</ele>
        <time>2021-11-02T09:31:45Z</time>
      </trkpt>
      <trkpt lat="43.90514" lon="7.56511">
        <ele>1038.4782777483</ele>
        <time>2021-11-02T09:31:46Z</time>
      </trkpt>
      <trkpt lat="43.90515" lon="7.56511">
        <ele>1039.4782238808</ele>
        <time>2021-11-02T09:31:47Z</time>
      </trkpt>
      <trkpt lat="43.90515" lon="7.56511">
        <ele>1039.4781928801</ele>
        <time>2021-11-02T09:31:48Z</time>
      </trkpt>
      <trkpt lat="43.90516" lon="7.56512">
        <ele>1039.4781584976</ele>
        <time>2021-11-02T09:31:49Z</time>
      </trkpt>
      <trkpt lat="43.90517" lon="7.56512">
        <ele>1039.4781272586</ele>
        <time>2021-11-02T09:31:50Z</time>
      </trkpt>
      <trkpt lat="43.90518" lon="7.56513">
        <ele>1039.4781054538</ele>
        <time>2021-11-02T09:31:51Z</time>
      </trkpt>
      <trkpt lat="43.9052" lon="7.56514">
        <ele>1039.4780301865</ele>
        <time>2021-11-02T09:31:53Z</time>
      </trkpt>
      <trkpt lat="43.9052" lon="7.56515">
        <ele>1038.4780075426</ele>
        <time>2021-11-02T09:31:54Z</time>
      </trkpt>
      <trkpt lat="43.90521" lon="7.56515">
        <ele>1038.4779789862</ele>
        <time>2021-11-02T09:31:56Z</time>
      </trkpt>
      <trkpt lat="43.90523" lon="7.56515">
        <ele>1038.4778865379</ele>
        <time>2021-11-02T09:31:58Z</time>
      </trkpt>
      <trkpt lat="43.90524" lon="7.56514">
        <ele>1038.4778284037</ele>
        <time>2021-11-02T09:31:59Z</time>
      </trkpt>
      <trkpt lat="43.90524" lon="7.56513">
        <ele>1038.477803947</ele>
        <time>2021-11-02T09:32:00Z</time>
      </trkpt>
      <trkpt lat="43.90525" lon="7.56513">
        <ele>1037.4777583777</ele>
        <time>2021-11-02T09:32:06Z</time>
      </trkpt>
      <trkpt lat="43.90525" lon="7.56515">
        <ele>1039.4777746883</ele>
        <time>2021-11-02T09:32:07Z</time>
      </trkpt>
      <trkpt lat="43.90525" lon="7.56515">
        <ele>1042.4777522218</ele>
        <time>2021-11-02T09:32:10Z</time>
      </trkpt>
      <trkpt lat="43.90525" lon="7.56516">
        <ele>1043.4777741724</ele>
        <time>2021-11-02T09:32:12Z</time>
      </trkpt>
      <trkpt lat="43.90526" lon="7.56518">
        <ele>1043.4777794925</ele>
        <time>2021-11-02T09:32:15Z</time>
      </trkpt>
      <trkpt lat="43.90526" lon="7.56518">
        <ele>1042.4777632268</ele>
        <time>2021-11-02T09:32:20Z</time>
      </trkpt>
      <trkpt lat="43.90526" lon="7.56516">
        <ele>1043.4777213378</ele>
        <time>2021-11-02T09:32:22Z</time>
      </trkpt>
      <trkpt lat="43.90527" lon="7.56516">
        <ele>1042.47767719</ele>
        <time>2021-11-02T09:32:23Z</time>
      </trkpt>
      <trkpt lat="43.90528" lon="7.56516">
        <ele>1042.4776482381</ele>
        <time>2021-11-02T09:32:24Z</time>
      </trkpt>
      <trkpt lat="43.90528" lon="7.56516">
        <ele>1042.477626051</ele>
        <time>2021-11-02T09:32:25Z</time>
      </trkpt>
      <trkpt lat="43.90529" lon="7.56516">
        <ele>1042.4775939369</ele>
        <time>2021-11-02T09:32:26Z</time>
      </trkpt>
      <trkpt lat="43.90529" lon="7.56515">
        <ele>1042.4775722277</ele>
        <time>2021-11-02T09:32:32Z</time>
      </trkpt>
      <trkpt lat="43.9053" lon="7.56514">
        <ele>1042.4775258431</ele>
        <time>2021-11-02T09:32:33Z</time>
      </trkpt>
      <trkpt lat="43.9053" lon="7.56514">
        <ele>1043.4774837429</ele>
        <time>2021-11-02T09:32:35Z</time>
      </trkpt>
      <trkpt lat="43.90531" lon="7.56515">
        <ele>1044.4774686285</ele>
        <time>2021-11-02T09:32:40Z</time>
      </trkpt>
      <trkpt lat="43.90533" lon="7.56515">
        <ele>1044.477375688</ele>
        <time>2021-11-02T09:32:41Z</time>
      </trkpt>
      <trkpt lat="43.90533" lon="7.56514">
        <ele>1045.4773361968</ele>
        <time>2021-11-02T09:32:45Z</time>
      </trkpt>
      <trkpt lat="43.90534" lon="7.56516">
        <ele>1045.4773379243</ele>
        <time>2021-11-02T09:32:47Z</time>
      </trkpt>
      <trkpt lat="43.90534" lon="7.56516">
        <ele>1045.4773058097</ele>
        <time>2021-11-02T09:32:53Z</time>
      </trkpt>
      <trkpt lat="43.90535" lon="7.56515">
        <ele>1047.47724002</ele>
        <time>2021-11-02T09:32:54Z</time>
      </trkpt>
      <trkpt lat="43.90536" lon="7.56514">
        <ele>1047.4771956362</ele>
        <time>2021-11-02T09:32:56Z</time>
      </trkpt>
      <trkpt lat="43.90537" lon="7.56514">
        <ele>1047.4771594577</ele>
        <time>2021-11-02T09:32:57Z</time>
      </trkpt>
      <trkpt lat="43.90538" lon="7.56514">
        <ele>1046.4770982138</ele>
        <time>2021-11-02T09:32:59Z</time>
      </trkpt>
      <trkpt lat="43.90538" lon="7.56514">
        <ele>1046.4770982138</ele>
        <time>2021-11-02T09:33:01Z</time>
      </trkpt>
      <trkpt lat="43.9054" lon="7.56514">
        <ele>1046.4770201981</ele>
        <time>2021-11-02T09:33:03Z</time>
      </trkpt>
      <trkpt lat="43.9054" lon="7.56514">
        <ele>1046.476996234</ele>
        <time>2021-11-02T09:33:04Z</time>
      </trkpt>
      <trkpt lat="43.9054" lon="7.56514">
        <ele>1045.4769706197</ele>
        <time>2021-11-02T09:33:07Z</time>
      </trkpt>
      <trkpt lat="43.90543" lon="7.56511">
        <ele>1044.4767868912</ele>
        <time>2021-11-02T09:33:09Z</time>
      </trkpt>
      <trkpt lat="43.90544" lon="7.5651">
        <ele>1043.4767469526</ele>
        <time>2021-11-02T09:33:10Z</time>
      </trkpt>
      <trkpt lat="43.90545" lon="7.56509">
        <ele>1043.4766964937</ele>
        <time>2021-11-02T09:33:13Z</time>
      </trkpt>
      <trkpt lat="43.90546" lon="7.56508">
        <ele>1042.4766121866</ele>
        <time>2021-11-02T09:33:14Z</time>
      </trkpt>
      <trkpt lat="43.90546" lon="7.56507">
        <ele>1042.4765982394</ele>
        <time>2021-11-02T09:33:15Z</time>
      </trkpt>
      <trkpt lat="43.90546" lon="7.56507">
        <ele>1043.47660652</ele>
        <time>2021-11-02T09:33:16Z</time>
      </trkpt>
      <trkpt lat="43.90544" lon="7.56506">
        <ele>1042.4766671953</ele>
        <time>2021-11-02T09:33:18Z</time>
      </trkpt>
      <trkpt lat="43.90544" lon="7.56506">
        <ele>1042.476685529</ele>
        <time>2021-11-02T09:33:19Z</time>
      </trkpt>
      <trkpt lat="43.90543" lon="7.56505">
        <ele>1042.4766962525</ele>
        <time>2021-11-02T09:33:21Z</time>
      </trkpt>
      <trkpt lat="43.90543" lon="7.56503">
        <ele>1041.4766610432</ele>
        <time>2021-11-02T09:33:22Z</time>
      </trkpt>
      <trkpt lat="43.90543" lon="7.56503">
        <ele>1042.4766800148</ele>
        <time>2021-11-02T09:33:24Z</time>
      </trkpt>
      <trkpt lat="43.90542" lon="7.56503">
        <ele>1043.4767126297</ele>
        <time>2021-11-02T09:33:25Z</time>
      </trkpt>
      <trkpt lat="43.90542" lon="7.56503">
        <ele>1042.4767524286</ele>
        <time>2021-11-02T09:33:26Z</time>
      </trkpt>
      <trkpt lat="43.90541" lon="7.56503">
        <ele>1042.4767811144</ele>
        <time>2021-11-02T09:33:28Z</time>
      </trkpt>
      <trkpt lat="43.9054" lon="7.56503">
        <ele>1042.4768140224</ele>
        <time>2021-11-02T09:33:29Z</time>
      </trkpt>
      <trkpt lat="43.9054" lon="7.56503">
        <ele>1042.4768462569</ele>
        <time>2021-11-02T09:33:30Z</time>
      </trkpt>
      <trkpt lat="43.90538" lon="7.56503">
        <ele>1042.4769198659</ele>
        <time>2021-11-02T09:33:33Z</time>
      </trkpt>
      <trkpt lat="43.90537" lon="7.56503">
        <ele>1041.4769759611</ele>
        <time>2021-11-02T09:33:34Z</time>
      </trkpt>
      <trkpt lat="43.90537" lon="7.56502">
        <ele>1041.4769849076</ele>
        <time>2021-11-02T09:33:35Z</time>
      </trkpt>
      <trkpt lat="43.90536" lon="7.56502">
        <ele>1041.4770207339</ele>
        <time>2021-11-02T09:33:36Z</time>
      </trkpt>
      <trkpt lat="43.90536" lon="7.56502">
        <ele>1041.4770457482</ele>
        <time>2021-11-02T09:33:37Z</time>
      </trkpt>
      <trkpt lat="43.90535" lon="7.56503">
        <ele>1041.47707478</ele>
        <time>2021-11-02T09:33:38Z</time>
      </trkpt>
      <trkpt lat="43.90535" lon="7.56503">
        <ele>1041.4770977153</ele>
        <time>2021-11-02T09:33:39Z</time>
      </trkpt>
      <trkpt lat="43.90535" lon="7.56502">
        <ele>1041.4770899242</ele>
        <time>2021-11-02T09:33:40Z</time>
      </trkpt>
      <trkpt lat="43.90534" lon="7.56501">
        <ele>1041.4771124327</ele>
        <time>2021-11-02T09:33:41Z</time>
      </trkpt>
      <trkpt lat="43.90533" lon="7.56502">
        <ele>1041.4771594995</ele>
        <time>2021-11-02T09:33:42Z</time>
      </trkpt>
      <trkpt lat="43.90532" lon="7.56502">
        <ele>1041.4772297695</ele>
        <time>2021-11-02T09:33:43Z</time>
      </trkpt>
      <trkpt lat="43.90531" lon="7.56502">
        <ele>1042.4772708301</ele>
        <time>2021-11-02T09:33:44Z</time>
      </trkpt>
      <trkpt lat="43.9053" lon="7.56502">
        <ele>1043.4772984076</ele>
        <time>2021-11-02T09:33:45Z</time>
      </trkpt>
      <trkpt lat="43.9053" lon="7.56501">
        <ele>1043.4773161661</ele>
        <time>2021-11-02T09:33:47Z</time>
      </trkpt>
      <trkpt lat="43.90529" lon="7.56499">
        <ele>1043.4773543128</ele>
        <time>2021-11-02T09:33:48Z</time>
      </trkpt>
      <trkpt lat="43.90528" lon="7.56499">
        <ele>1042.4773669195</ele>
        <time>2021-11-02T09:33:49Z</time>
      </trkpt>
      <trkpt lat="43.90527" lon="7.56498">
        <ele>1042.4773961554</ele>
        <time>2021-11-02T09:33:50Z</time>
      </trkpt>
      <trkpt lat="43.90527" lon="7.56497">
        <ele>1043.4774153331</ele>
        <time>2021-11-02T09:33:52Z</time>
      </trkpt>
      <trkpt lat="43.90525" lon="7.56496">
        <ele>1043.4774650938</ele>
        <time>2021-11-02T09:33:53Z</time>
      </trkpt>
      <trkpt lat="43.90525" lon="7.56495">
        <ele>1043.477487765</ele>
        <time>2021-11-02T09:33:54Z</time>
      </trkpt>
      <trkpt lat="43.90524" lon="7.56495">
        <ele>1043.4775076419</ele>
        <time>2021-11-02T09:33:58Z</time>
      </trkpt>
      <trkpt lat="43.90521" lon="7.56495">
        <ele>1043.4776685441</ele>
        <time>2021-11-02T09:33:59Z</time>
      </trkpt>
      <trkpt lat="43.9052" lon="7.56494">
        <ele>1043.4777143481</ele>
        <time>2021-11-02T09:34:00Z</time>
      </trkpt>
      <trkpt lat="43.90519" lon="7.56494">
        <ele>1044.4777588626</ele>
        <time>2021-11-02T09:34:01Z</time>
      </trkpt>
      <trkpt lat="43.90517" lon="7.56494">
        <ele>1044.4778496096</ele>
        <time>2021-11-02T09:34:03Z</time>
      </trkpt>
      <trkpt lat="43.90516" lon="7.56493">
        <ele>1044.4778774039</ele>
        <time>2021-11-02T09:34:04Z</time>
      </trkpt>
      <trkpt lat="43.90516" lon="7.56492">
        <ele>1044.4778950714</ele>
        <time>2021-11-02T09:34:06Z</time>
      </trkpt>
      <trkpt lat="43.90515" lon="7.5649">
        <ele>1043.4779232813</ele>
        <time>2021-11-02T09:34:07Z</time>
      </trkpt>
      <trkpt lat="43.90514" lon="7.56489">
        <ele>1043.4779374562</ele>
        <time>2021-11-02T09:34:09Z</time>
      </trkpt>
      <trkpt lat="43.90513" lon="7.56488">
        <ele>1042.4779498601</ele>
        <time>2021-11-02T09:34:10Z</time>
      </trkpt>
      <trkpt lat="43.90512" lon="7.56487">
        <ele>1043.4779837063</ele>
        <time>2021-11-02T09:34:12Z</time>
      </trkpt>
      <trkpt lat="43.90512" lon="7.56486">
        <ele>1045.478009376</ele>
        <time>2021-11-02T09:34:16Z</time>
      </trkpt>
      <trkpt lat="43.9051" lon="7.56484">
        <ele>1047.4780650276</ele>
        <time>2021-11-02T09:34:18Z</time>
      </trkpt>
      <trkpt lat="43.90509" lon="7.56485">
        <ele>1047.4780966207</ele>
        <time>2021-11-02T09:34:19Z</time>
      </trkpt>
      <trkpt lat="43.90509" lon="7.56485">
        <ele>1047.47812994</ele>
        <time>2021-11-02T09:34:20Z</time>
      </trkpt>
      <trkpt lat="43.90508" lon="7.56484">
        <ele>1047.4781479787</ele>
        <time>2021-11-02T09:34:23Z</time>
      </trkpt>
      <trkpt lat="43.90507" lon="7.56484">
        <ele>1048.4781821575</ele>
        <time>2021-11-02T09:34:24Z</time>
      </trkpt>
      <trkpt lat="43.90507" lon="7.56484">
        <ele>1049.4782248915</ele>
        <time>2021-11-02T09:34:25Z</time>
      </trkpt>
      <trkpt lat="43.90506" lon="7.56485">
        <ele>1049.4782660054</ele>
        <time>2021-11-02T09:34:26Z</time>
      </trkpt>
      <trkpt lat="43.90505" lon="7.56485">
        <ele>1049.478344201</ele>
        <time>2021-11-02T09:34:28Z</time>
      </trkpt>
      <trkpt lat="43.90504" lon="7.56486">
        <ele>1050.4783979243</ele>
        <time>2021-11-02T09:34:29Z</time>
      </trkpt>
      <trkpt lat="43.90503" lon="7.56485">
        <ele>1051.4784141306</ele>
        <time>2021-11-02T09:34:31Z</time>
      </trkpt>
      <trkpt lat="43.90501" lon="7.56484">
        <ele>1051.4784820618</ele>
        <time>2021-11-02T09:34:32Z</time>
      </trkpt>
      <trkpt lat="43.905" lon="7.56482">
        <ele>1052.4785481461</ele>
        <time>2021-11-02T09:34:34Z</time>
      </trkpt>
      <trkpt lat="43.90499" lon="7.56481">
        <ele>1052.4785678215</ele>
        <time>2021-11-02T09:34:35Z</time>
      </trkpt>
      <trkpt lat="43.90498" lon="7.56479">
        <ele>1053.4785763465</ele>
        <time>2021-11-02T09:34:36Z</time>
      </trkpt>
      <trkpt lat="43.90497" lon="7.56478">
        <ele>1052.4786414476</ele>
        <time>2021-11-02T09:34:38Z</time>
      </trkpt>
      <trkpt lat="43.90496" lon="7.56477">
        <ele>1053.478645512</ele>
        <time>2021-11-02T09:34:39Z</time>
      </trkpt>
      <trkpt lat="43.90496" lon="7.56477">
        <ele>1053.478645512</ele>
        <time>2021-11-02T09:34:40Z</time>
      </trkpt>
      <trkpt lat="43.90495" lon="7.56476">
        <ele>1053.4786750004</ele>
        <time>2021-11-02T09:34:41Z</time>
      </trkpt>
      <trkpt lat="43.90494" lon="7.56475">
        <ele>1054.4787437472</ele>
        <time>2021-11-02T09:34:42Z</time>
      </trkpt>
      <trkpt lat="43.90492" lon="7.56474">
        <ele>1054.4788230944</ele>
        <time>2021-11-02T09:34:43Z</time>
      </trkpt>
      <trkpt lat="43.90491" lon="7.56474">
        <ele>1054.4788709928</ele>
        <time>2021-11-02T09:34:44Z</time>
      </trkpt>
      <trkpt lat="43.90489" lon="7.56473">
        <ele>1055.4789339013</ele>
        <time>2021-11-02T09:34:45Z</time>
      </trkpt>
      <trkpt lat="43.90488" lon="7.56473">
        <ele>1055.4789891455</ele>
        <time>2021-11-02T09:34:46Z</time>
      </trkpt>
      <trkpt lat="43.90487" lon="7.56472">
        <ele>1055.4790258198</ele>
        <time>2021-11-02T09:34:47Z</time>
      </trkpt>
      <trkpt lat="43.90486" lon="7.56471">
        <ele>1055.479046826</ele>
        <time>2021-11-02T09:34:48Z</time>
      </trkpt>
      <trkpt lat="43.90486" lon="7.5647">
        <ele>1055.4790615106</ele>
        <time>2021-11-02T09:34:49Z</time>
      </trkpt>
      <trkpt lat="43.90485" lon="7.56469">
        <ele>1055.4790837255</ele>
        <time>2021-11-02T09:34:50Z</time>
      </trkpt>
      <trkpt lat="43.90485" lon="7.56469">
        <ele>1055.4790837255</ele>
        <time>2021-11-02T09:34:53Z</time>
      </trkpt>
      <trkpt lat="43.90484" lon="7.56468">
        <ele>1055.4791081417</ele>
        <time>2021-11-02T09:34:54Z</time>
      </trkpt>
      <trkpt lat="43.90484" lon="7.56467">
        <ele>1055.4791048209</ele>
        <time>2021-11-02T09:34:55Z</time>
      </trkpt>
      <trkpt lat="43.90483" lon="7.56465">
        <ele>1055.4791203077</ele>
        <time>2021-11-02T09:34:57Z</time>
      </trkpt>
      <trkpt lat="43.90482" lon="7.56465">
        <ele>1056.4791764021</ele>
        <time>2021-11-02T09:34:58Z</time>
      </trkpt>
      <trkpt lat="43.90481" lon="7.56464">
        <ele>1057.4792101016</ele>
        <time>2021-11-02T09:34:59Z</time>
      </trkpt>
      <trkpt lat="43.90481" lon="7.56464">
        <ele>1057.4792281213</ele>
        <time>2021-11-02T09:35:00Z</time>
      </trkpt>
      <trkpt lat="43.9048" lon="7.56463">
        <ele>1057.479233398</ele>
        <time>2021-11-02T09:35:01Z</time>
      </trkpt>
      <trkpt lat="43.9048" lon="7.56463">
        <ele>1057.4792298739</ele>
        <time>2021-11-02T09:35:02Z</time>
      </trkpt>
      <trkpt lat="43.9048" lon="7.56462">
        <ele>1057.4792589942</ele>
        <time>2021-11-02T09:35:04Z</time>
      </trkpt>
      <trkpt lat="43.90479" lon="7.56461">
        <ele>1057.4792761723</ele>
        <time>2021-11-02T09:35:05Z</time>
      </trkpt>
      <trkpt lat="43.90479" lon="7.5646">
        <ele>1057.4792541379</ele>
        <time>2021-11-02T09:35:06Z</time>
      </trkpt>
      <trkpt lat="43.90479" lon="7.5646">
        <ele>1057.4792568744</ele>
        <time>2021-11-02T09:35:07Z</time>
      </trkpt>
      <trkpt lat="43.90479" lon="7.56459">
        <ele>1057.4792522495</ele>
        <time>2021-11-02T09:35:10Z</time>
      </trkpt>
      <trkpt lat="43.90478" lon="7.56458">
        <ele>1057.4792817251</ele>
        <time>2021-11-02T09:35:11Z</time>
      </trkpt>
      <trkpt lat="43.90478" lon="7.56458">
        <ele>1056.4792979064</ele>
        <time>2021-11-02T09:35:12Z</time>
      </trkpt>
      <trkpt lat="43.90477" lon="7.56458">
        <ele>1056.479319516</ele>
        <time>2021-11-02T09:35:13Z</time>
      </trkpt>
      <trkpt lat="43.90476" lon="7.56457">
        <ele>1057.4793373092</ele>
        <time>2021-11-02T09:35:17Z</time>
      </trkpt>
      <trkpt lat="43.90474" lon="7.56456">
        <ele>1057.4794505342</ele>
        <time>2021-11-02T09:35:18Z</time>
      </trkpt>
      <trkpt lat="43.90474" lon="7.56455">
        <ele>1057.4794432568</ele>
        <time>2021-11-02T09:35:19Z</time>
      </trkpt>
      <trkpt lat="43.90472" lon="7.56455">
        <ele>1057.479503343</ele>
        <time>2021-11-02T09:35:20Z</time>
      </trkpt>
      <trkpt lat="43.90472" lon="7.56455">
        <ele>1057.479503343</ele>
        <time>2021-11-02T09:35:22Z</time>
      </trkpt>
      <trkpt lat="43.90471" lon="7.56453">
        <ele>1058.479530152</ele>
        <time>2021-11-02T09:35:23Z</time>
      </trkpt>
      <trkpt lat="43.90471" lon="7.56451">
        <ele>1059.4795141612</ele>
        <time>2021-11-02T09:35:24Z</time>
      </trkpt>
      <trkpt lat="43.90471" lon="7.56449">
        <ele>1059.4794858365</ele>
        <time>2021-11-02T09:35:25Z</time>
      </trkpt>
      <trkpt lat="43.90471" lon="7.56448">
        <ele>1059.4794567697</ele>
        <time>2021-11-02T09:35:26Z</time>
      </trkpt>
      <trkpt lat="43.90471" lon="7.56445">
        <ele>1059.479400669</ele>
        <time>2021-11-02T09:35:28Z</time>
      </trkpt>
      <trkpt lat="43.90472" lon="7.56444">
        <ele>1059.4793384301</ele>
        <time>2021-11-02T09:35:29Z</time>
      </trkpt>
      <trkpt lat="43.90474" lon="7.56443">
        <ele>1059.4792243087</ele>
        <time>2021-11-02T09:35:30Z</time>
      </trkpt>
      <trkpt lat="43.90476" lon="7.56442">
        <ele>1058.4791131787</ele>
        <time>2021-11-02T09:35:32Z</time>
      </trkpt>
      <trkpt lat="43.90477" lon="7.5644">
        <ele>1057.4790383541</ele>
        <time>2021-11-02T09:35:33Z</time>
      </trkpt>
      <trkpt lat="43.90478" lon="7.56439">
        <ele>1057.4789841741</ele>
        <time>2021-11-02T09:35:34Z</time>
      </trkpt>
      <trkpt lat="43.90478" lon="7.56439">
        <ele>1057.4789841741</ele>
        <time>2021-11-02T09:35:35Z</time>
      </trkpt>
      <trkpt lat="43.90479" lon="7.56437">
        <ele>1056.4789022519</ele>
        <time>2021-11-02T09:35:36Z</time>
      </trkpt>
      <trkpt lat="43.9048" lon="7.56436">
        <ele>1056.4788542885</ele>
        <time>2021-11-02T09:35:37Z</time>
      </trkpt>
      <trkpt lat="43.90481" lon="7.56434">
        <ele>1056.4787471702</ele>
        <time>2021-11-02T09:35:39Z</time>
      </trkpt>
      <trkpt lat="43.90482" lon="7.56434">
        <ele>1055.4787139201</ele>
        <time>2021-11-02T09:35:40Z</time>
      </trkpt>
      <trkpt lat="43.90483" lon="7.56434">
        <ele>1055.4786647963</ele>
        <time>2021-11-02T09:35:41Z</time>
      </trkpt>
      <trkpt lat="43.90483" lon="7.56433">
        <ele>1054.4786243394</ele>
        <time>2021-11-02T09:35:43Z</time>
      </trkpt>
      <trkpt lat="43.90483" lon="7.56431">
        <ele>1054.4786176918</ele>
        <time>2021-11-02T09:35:44Z</time>
      </trkpt>
      <trkpt lat="43.90483" lon="7.56431">
        <ele>1054.4785828105</ele>
        <time>2021-11-02T09:35:46Z</time>
      </trkpt>
      <trkpt lat="43.90484" lon="7.5643">
        <ele>1053.4785321799</ele>
        <time>2021-11-02T09:35:47Z</time>
      </trkpt>
      <trkpt lat="43.90485" lon="7.5643">
        <ele>1053.4785023108</ele>
        <time>2021-11-02T09:35:48Z</time>
      </trkpt>
      <trkpt lat="43.90485" lon="7.56429">
        <ele>1053.4784849752</ele>
        <time>2021-11-02T09:35:49Z</time>
      </trkpt>
      <trkpt lat="43.90485" lon="7.56428">
        <ele>1053.4784594209</ele>
        <time>2021-11-02T09:35:51Z</time>
      </trkpt>
      <trkpt lat="43.90486" lon="7.56428">
        <ele>1053.4784067297</ele>
        <time>2021-11-02T09:35:53Z</time>
      </trkpt>
      <trkpt lat="43.90487" lon="7.56427">
        <ele>1053.4783675682</ele>
        <time>2021-11-02T09:35:54Z</time>
      </trkpt>
      <trkpt lat="43.90488" lon="7.56427">
        <ele>1053.4783028148</ele>
        <time>2021-11-02T09:35:56Z</time>
      </trkpt>
      <trkpt lat="43.90488" lon="7.56426">
        <ele>1053.4782637289</ele>
        <time>2021-11-02T09:35:57Z</time>
      </trkpt>
      <trkpt lat="43.90489" lon="7.56426">
        <ele>1052.4782485835</ele>
        <time>2021-11-02T09:35:58Z</time>
      </trkpt>
      <trkpt lat="43.90488" lon="7.56425">
        <ele>1052.4782416609</ele>
        <time>2021-11-02T09:35:59Z</time>
      </trkpt>
      <trkpt lat="43.90489" lon="7.56424">
        <ele>1053.4781992053</ele>
        <time>2021-11-02T09:36:02Z</time>
      </trkpt>
      <trkpt lat="43.9049" lon="7.56424">
        <ele>1053.4781619809</ele>
        <time>2021-11-02T09:36:04Z</time>
      </trkpt>
      <trkpt lat="43.90491" lon="7.56424">
        <ele>1054.4781110049</ele>
        <time>2021-11-02T09:36:05Z</time>
      </trkpt>
      <trkpt lat="43.90491" lon="7.56423">
        <ele>1054.4780573752</ele>
        <time>2021-11-02T09:36:06Z</time>
      </trkpt>
      <trkpt lat="43.90493" lon="7.56421">
        <ele>1054.4779646154</ele>
        <time>2021-11-02T09:36:08Z</time>
      </trkpt>
      <trkpt lat="43.90493" lon="7.56421">
        <ele>1054.4779646154</ele>
        <time>2021-11-02T09:36:11Z</time>
      </trkpt>
      <trkpt lat="43.90494" lon="7.56418">
        <ele>1053.4778658118</ele>
        <time>2021-11-02T09:36:12Z</time>
      </trkpt>
      <trkpt lat="43.90492" lon="7.56416">
        <ele>1053.4779092962</ele>
        <time>2021-11-02T09:36:14Z</time>
      </trkpt>
      <trkpt lat="43.90492" lon="7.56415">
        <ele>1053.4779089242</ele>
        <time>2021-11-02T09:36:16Z</time>
      </trkpt>
      <trkpt lat="43.90491" lon="7.56413">
        <ele>1053.4779172904</ele>
        <time>2021-11-02T09:36:18Z</time>
      </trkpt>
      <trkpt lat="43.90491" lon="7.56412">
        <ele>1054.4779018819</ele>
        <time>2021-11-02T09:36:20Z</time>
      </trkpt>
      <trkpt lat="43.90491" lon="7.56411">
        <ele>1054.4779067681</ele>
        <time>2021-11-02T09:36:21Z</time>
      </trkpt>
      <trkpt lat="43.90491" lon="7.5641">
        <ele>1054.4779160248</ele>
        <time>2021-11-02T09:36:23Z</time>
      </trkpt>
      <trkpt lat="43.9049" lon="7.56409">
        <ele>1055.4779172626</ele>
        <time>2021-11-02T09:36:24Z</time>
      </trkpt>
      <trkpt lat="43.9049" lon="7.56409">
        <ele>1055.4779172626</ele>
        <time>2021-11-02T09:36:27Z</time>
      </trkpt>
      <trkpt lat="43.90488" lon="7.56407">
        <ele>1059.4779907225</ele>
        <time>2021-11-02T09:36:28Z</time>
      </trkpt>
      <trkpt lat="43.90488" lon="7.56406">
        <ele>1059.4780065156</ele>
        <time>2021-11-02T09:36:29Z</time>
      </trkpt>
      <trkpt lat="43.90487" lon="7.56405">
        <ele>1059.4780337458</ele>
        <time>2021-11-02T09:36:30Z</time>
      </trkpt>
      <trkpt lat="43.90487" lon="7.56405">
        <ele>1059.4780337458</ele>
        <time>2021-11-02T09:36:32Z</time>
      </trkpt>
      <trkpt lat="43.90485" lon="7.56404">
        <ele>1060.4780986111</ele>
        <time>2021-11-02T09:36:33Z</time>
      </trkpt>
      <trkpt lat="43.90484" lon="7.56403">
        <ele>1060.4781202633</ele>
        <time>2021-11-02T09:36:34Z</time>
      </trkpt>
      <trkpt lat="43.90483" lon="7.56403">
        <ele>1061.4781587596</ele>
        <time>2021-11-02T09:36:35Z</time>
      </trkpt>
      <trkpt lat="43.90483" lon="7.56402">
        <ele>1061.4781658099</ele>
        <time>2021-11-02T09:36:37Z</time>
      </trkpt>
      <trkpt lat="43.90482" lon="7.56402">
        <ele>1061.4782390232</ele>
        <time>2021-11-02T09:36:38Z</time>
      </trkpt>
      <trkpt lat="43.90481" lon="7.56402">
        <ele>1062.4782885976</ele>
        <time>2021-11-02T09:36:39Z</time>
      </trkpt>
      <trkpt lat="43.9048" lon="7.56403">
        <ele>1062.4783268782</ele>
        <time>2021-11-02T09:36:40Z</time>
      </trkpt>
      <trkpt lat="43.90479" lon="7.56403">
        <ele>1063.4783997271</ele>
        <time>2021-11-02T09:36:41Z</time>
      </trkpt>
      <trkpt lat="43.90477" lon="7.56402">
        <ele>1063.4784755867</ele>
        <time>2021-11-02T09:36:43Z</time>
      </trkpt>
      <trkpt lat="43.90476" lon="7.56401">
        <ele>1063.4785062497</ele>
        <time>2021-11-02T09:36:44Z</time>
      </trkpt>
      <trkpt lat="43.90475" lon="7.56401">
        <ele>1063.478541995</ele>
        <time>2021-11-02T09:36:45Z</time>
      </trkpt>
      <trkpt lat="43.90473" lon="7.56399">
        <ele>1064.4786039874</ele>
        <time>2021-11-02T09:36:48Z</time>
      </trkpt>
      <trkpt lat="43.90473" lon="7.56398">
        <ele>1064.4786005866</ele>
        <time>2021-11-02T09:36:50Z</time>
      </trkpt>
      <trkpt lat="43.90471" lon="7.56396">
        <ele>1063.4786575349</ele>
        <time>2021-11-02T09:36:52Z</time>
      </trkpt>
      <trkpt lat="43.9047" lon="7.56394">
        <ele>1063.478702756</ele>
        <time>2021-11-02T09:36:53Z</time>
      </trkpt>
      <trkpt lat="43.90469" lon="7.56393">
        <ele>1063.4787180704</ele>
        <time>2021-11-02T09:36:54Z</time>
      </trkpt>
      <trkpt lat="43.90469" lon="7.56392">
        <ele>1063.478746878</ele>
        <time>2021-11-02T09:36:55Z</time>
      </trkpt>
      <trkpt lat="43.90468" lon="7.56392">
        <ele>1063.4787822537</ele>
        <time>2021-11-02T09:36:56Z</time>
      </trkpt>
      <trkpt lat="43.90466" lon="7.5639">
        <ele>1063.4788288639</ele>
        <time>2021-11-02T09:36:57Z</time>
      </trkpt>
      <trkpt lat="43.90466" lon="7.56389">
        <ele>1062.4788442788</ele>
        <time>2021-11-02T09:36:58Z</time>
      </trkpt>
      <trkpt lat="43.90465" lon="7.56388">
        <ele>1062.4788637778</ele>
        <time>2021-11-02T09:36:59Z</time>
      </trkpt>
      <trkpt lat="43.90464" lon="7.56386">
        <ele>1062.4788894244</ele>
        <time>2021-11-02T09:37:00Z</time>
      </trkpt>
      <trkpt lat="43.90463" lon="7.56385">
        <ele>1063.478908412</ele>
        <time>2021-11-02T09:37:01Z</time>
      </trkpt>
      <trkpt lat="43.90463" lon="7.56384">
        <ele>1064.4789240113</ele>
        <time>2021-11-02T09:37:03Z</time>
      </trkpt>
      <trkpt lat="43.90462" lon="7.56382">
        <ele>1064.4789029849</ele>
        <time>2021-11-02T09:37:04Z</time>
      </trkpt>
      <trkpt lat="43.90461" lon="7.56381">
        <ele>1064.4789279383</ele>
        <time>2021-11-02T09:37:05Z</time>
      </trkpt>
      <trkpt lat="43.90461" lon="7.5638">
        <ele>1064.4789235211</ele>
        <time>2021-11-02T09:37:07Z</time>
      </trkpt>
      <trkpt lat="43.90461" lon="7.56379">
        <ele>1065.478943292</ele>
        <time>2021-11-02T09:37:08Z</time>
      </trkpt>
      <trkpt lat="43.90461" lon="7.56379">
        <ele>1065.478943292</ele>
        <time>2021-11-02T09:37:11Z</time>
      </trkpt>
      <trkpt lat="43.90459" lon="7.56375">
        <ele>1066.4789437199</ele>
        <time>2021-11-02T09:37:13Z</time>
      </trkpt>
      <trkpt lat="43.90459" lon="7.56373">
        <ele>1067.4789118243</ele>
        <time>2021-11-02T09:37:14Z</time>
      </trkpt>
      <trkpt lat="43.90459" lon="7.56372">
        <ele>1066.478893963</ele>
        <time>2021-11-02T09:37:17Z</time>
      </trkpt>
      <trkpt lat="43.90458" lon="7.56369">
        <ele>1067.4789219218</ele>
        <time>2021-11-02T09:37:18Z</time>
      </trkpt>
      <trkpt lat="43.90457" lon="7.56368">
        <ele>1067.4789339902</ele>
        <time>2021-11-02T09:37:19Z</time>
      </trkpt>
      <trkpt lat="43.90457" lon="7.56367">
        <ele>1067.478933238</ele>
        <time>2021-11-02T09:37:21Z</time>
      </trkpt>
      <trkpt lat="43.90457" lon="7.56366">
        <ele>1068.4789231999</ele>
        <time>2021-11-02T09:37:22Z</time>
      </trkpt>
      <trkpt lat="43.90457" lon="7.56364">
        <ele>1069.4788948801</ele>
        <time>2021-11-02T09:37:24Z</time>
      </trkpt>
      <trkpt lat="43.90457" lon="7.56363">
        <ele>1069.478890916</ele>
        <time>2021-11-02T09:37:25Z</time>
      </trkpt>
      <trkpt lat="43.90457" lon="7.56361">
        <ele>1070.4788749919</ele>
        <time>2021-11-02T09:37:26Z</time>
      </trkpt>
      <trkpt lat="43.90455" lon="7.56359">
        <ele>1069.4788978416</ele>
        <time>2021-11-02T09:37:28Z</time>
      </trkpt>
      <trkpt lat="43.90455" lon="7.56358">
        <ele>1070.4789110596</ele>
        <time>2021-11-02T09:37:29Z</time>
      </trkpt>
      <trkpt lat="43.90454" lon="7.56357">
        <ele>1070.4789199975</ele>
        <time>2021-11-02T09:37:30Z</time>
      </trkpt>
      <trkpt lat="43.90454" lon="7.56356">
        <ele>1071.4789328026</ele>
        <time>2021-11-02T09:37:31Z</time>
      </trkpt>
      <trkpt lat="43.90454" lon="7.56355">
        <ele>1072.4789310968</ele>
        <time>2021-11-02T09:37:32Z</time>
      </trkpt>
      <trkpt lat="43.90453" lon="7.56354">
        <ele>1072.4789203953</ele>
        <time>2021-11-02T09:37:33Z</time>
      </trkpt>
      <trkpt lat="43.90453" lon="7.56353">
        <ele>1071.478916878</ele>
        <time>2021-11-02T09:37:34Z</time>
      </trkpt>
      <trkpt lat="43.90453" lon="7.56352">
        <ele>1071.4789145548</ele>
        <time>2021-11-02T09:37:35Z</time>
      </trkpt>
      <trkpt lat="43.90452" lon="7.56351">
        <ele>1071.4789372485</ele>
        <time>2021-11-02T09:37:36Z</time>
      </trkpt>
      <trkpt lat="43.90451" lon="7.5635">
        <ele>1070.4789606736</ele>
        <time>2021-11-02T09:37:38Z</time>
      </trkpt>
      <trkpt lat="43.9045" lon="7.56349">
        <ele>1071.4789983087</ele>
        <time>2021-11-02T09:37:39Z</time>
      </trkpt>
      <trkpt lat="43.9045" lon="7.56348">
        <ele>1071.4789901761</ele>
        <time>2021-11-02T09:37:40Z</time>
      </trkpt>
      <trkpt lat="43.90449" lon="7.56347">
        <ele>1071.4790109775</ele>
        <time>2021-11-02T09:37:41Z</time>
      </trkpt>
      <trkpt lat="43.90448" lon="7.56345">
        <ele>1070.4790456214</ele>
        <time>2021-11-02T09:37:43Z</time>
      </trkpt>
      <trkpt lat="43.90447" lon="7.56344">
        <ele>1070.4790732879</ele>
        <time>2021-11-02T09:37:44Z</time>
      </trkpt>
      <trkpt lat="43.90447" lon="7.56344">
        <ele>1071.4790993794</ele>
        <time>2021-11-02T09:37:45Z</time>
      </trkpt>
      <trkpt lat="43.90447" lon="7.56342">
        <ele>1071.4790851391</ele>
        <time>2021-11-02T09:37:47Z</time>
      </trkpt>
      <trkpt lat="43.90446" lon="7.5634">
        <ele>1071.4791045702</ele>
        <time>2021-11-02T09:37:49Z</time>
      </trkpt>
      <trkpt lat="43.90445" lon="7.56339">
        <ele>1072.4791105566</ele>
        <time>2021-11-02T09:37:50Z</time>
      </trkpt>
      <trkpt lat="43.90445" lon="7.56338">
        <ele>1071.4791130766</ele>
        <time>2021-11-02T09:37:52Z</time>
      </trkpt>
      <trkpt lat="43.90445" lon="7.56335">
        <ele>1070.4790652886</ele>
        <time>2021-11-02T09:37:53Z</time>
      </trkpt>
      <trkpt lat="43.90445" lon="7.56335">
        <ele>1070.4790652886</ele>
        <time>2021-11-02T09:37:55Z</time>
      </trkpt>
      <trkpt lat="43.90444" lon="7.56333">
        <ele>1072.4790593803</ele>
        <time>2021-11-02T09:37:57Z</time>
      </trkpt>
      <trkpt lat="43.90444" lon="7.56331">
        <ele>1072.4790514558</ele>
        <time>2021-11-02T09:37:58Z</time>
      </trkpt>
      <trkpt lat="43.90444" lon="7.5633">
        <ele>1072.4790367363</ele>
        <time>2021-11-02T09:37:59Z</time>
      </trkpt>
      <trkpt lat="43.90444" lon="7.56329">
        <ele>1072.4790214365</ele>
        <time>2021-11-02T09:38:00Z</time>
      </trkpt>
      <trkpt lat="43.90443" lon="7.56327">
        <ele>1072.4790106582</ele>
        <time>2021-11-02T09:38:01Z</time>
      </trkpt>
      <trkpt lat="43.90443" lon="7.56325">
        <ele>1072.478981743</ele>
        <time>2021-11-02T09:38:03Z</time>
      </trkpt>
      <trkpt lat="43.90443" lon="7.56325">
        <ele>1072.4789944881</ele>
        <time>2021-11-02T09:38:04Z</time>
      </trkpt>
      <trkpt lat="43.90442" lon="7.56323">
        <ele>1072.4789982031</ele>
        <time>2021-11-02T09:38:05Z</time>
      </trkpt>
      <trkpt lat="43.90442" lon="7.56322">
        <ele>1072.4789948431</ele>
        <time>2021-11-02T09:38:06Z</time>
      </trkpt>
      <trkpt lat="43.90442" lon="7.56321">
        <ele>1072.4789936336</ele>
        <time>2021-11-02T09:38:07Z</time>
      </trkpt>
      <trkpt lat="43.90442" lon="7.5632">
        <ele>1072.4789817263</ele>
        <time>2021-11-02T09:38:08Z</time>
      </trkpt>
      <trkpt lat="43.90442" lon="7.5632">
        <ele>1072.4789780994</ele>
        <time>2021-11-02T09:38:11Z</time>
      </trkpt>
      <trkpt lat="43.90442" lon="7.56318">
        <ele>1074.4789338045</ele>
        <time>2021-11-02T09:38:12Z</time>
      </trkpt>
      <trkpt lat="43.90442" lon="7.56317">
        <ele>1074.4789235774</ele>
        <time>2021-11-02T09:38:13Z</time>
      </trkpt>
      <trkpt lat="43.90442" lon="7.56317">
        <ele>1074.4789415169</ele>
        <time>2021-11-02T09:38:14Z</time>
      </trkpt>
      <trkpt lat="43.90441" lon="7.56316">
        <ele>1074.4789445158</ele>
        <time>2021-11-02T09:38:16Z</time>
      </trkpt>
      <trkpt lat="43.90441" lon="7.56315">
        <ele>1075.4789451113</ele>
        <time>2021-11-02T09:38:17Z</time>
      </trkpt>
      <trkpt lat="43.90441" lon="7.56315">
        <ele>1075.4789567755</ele>
        <time>2021-11-02T09:38:18Z</time>
      </trkpt>
      <trkpt lat="43.9044" lon="7.56314">
        <ele>1076.4789596288</ele>
        <time>2021-11-02T09:38:19Z</time>
      </trkpt>
      <trkpt lat="43.9044" lon="7.56313">
        <ele>1076.4789652729</ele>
        <time>2021-11-02T09:38:20Z</time>
      </trkpt>
      <trkpt lat="43.9044" lon="7.56313">
        <ele>1076.4789653307</ele>
        <time>2021-11-02T09:38:21Z</time>
      </trkpt>
      <trkpt lat="43.90439" lon="7.56312">
        <ele>1076.478971023</ele>
        <time>2021-11-02T09:38:23Z</time>
      </trkpt>
      <trkpt lat="43.90439" lon="7.5631">
        <ele>1076.4789573646</ele>
        <time>2021-11-02T09:38:23Z</time>
      </trkpt>
      <trkpt lat="43.90439" lon="7.5631">
        <ele>1076.4789709129</ele>
        <time>2021-11-02T09:38:25Z</time>
      </trkpt>
      <trkpt lat="43.90439" lon="7.56309">
        <ele>1076.4789723665</ele>
        <time>2021-11-02T09:38:26Z</time>
      </trkpt>
      <trkpt lat="43.90438" lon="7.56308">
        <ele>1077.4790004946</ele>
        <time>2021-11-02T09:38:27Z</time>
      </trkpt>
      <trkpt lat="43.90437" lon="7.56307">
        <ele>1077.4790383688</ele>
        <time>2021-11-02T09:38:28Z</time>
      </trkpt>
      <trkpt lat="43.90436" lon="7.56307">
        <ele>1077.479056319</ele>
        <time>2021-11-02T09:38:29Z</time>
      </trkpt>
      <trkpt lat="43.90435" lon="7.56306">
        <ele>1076.4790799609</ele>
        <time>2021-11-02T09:38:31Z</time>
      </trkpt>
      <trkpt lat="43.90434" lon="7.56304">
        <ele>1077.4791390633</ele>
        <time>2021-11-02T09:38:33Z</time>
      </trkpt>
      <trkpt lat="43.90434" lon="7.56304">
        <ele>1077.4791427591</ele>
        <time>2021-11-02T09:38:34Z</time>
      </trkpt>
      <trkpt lat="43.90433" lon="7.56303">
        <ele>1078.4791466172</ele>
        <time>2021-11-02T09:38:35Z</time>
      </trkpt>
      <trkpt lat="43.90433" lon="7.56302">
        <ele>1077.4791343229</ele>
        <time>2021-11-02T09:38:36Z</time>
      </trkpt>
      <trkpt lat="43.90433" lon="7.56301">
        <ele>1077.4791106932</ele>
        <time>2021-11-02T09:38:37Z</time>
      </trkpt>
      <trkpt lat="43.90434" lon="7.56298">
        <ele>1078.4790202826</ele>
        <time>2021-11-02T09:38:39Z</time>
      </trkpt>
      <trkpt lat="43.90434" lon="7.56297">
        <ele>1077.4790030231</ele>
        <time>2021-11-02T09:38:40Z</time>
      </trkpt>
      <trkpt lat="43.90434" lon="7.56296">
        <ele>1078.4790006498</ele>
        <time>2021-11-02T09:38:41Z</time>
      </trkpt>
      <trkpt lat="43.90434" lon="7.56294">
        <ele>1079.4789709955</ele>
        <time>2021-11-02T09:38:42Z</time>
      </trkpt>
      <trkpt lat="43.90434" lon="7.56293">
        <ele>1079.4789806879</ele>
        <time>2021-11-02T09:38:43Z</time>
      </trkpt>
      <trkpt lat="43.90434" lon="7.56292">
        <ele>1078.4789580168</ele>
        <time>2021-11-02T09:38:45Z</time>
      </trkpt>
      <trkpt lat="43.90434" lon="7.56291">
        <ele>1078.4789368663</ele>
        <time>2021-11-02T09:38:46Z</time>
      </trkpt>
      <trkpt lat="43.90434" lon="7.56291">
        <ele>1078.4789153794</ele>
        <time>2021-11-02T09:38:54Z</time>
      </trkpt>
      <trkpt lat="43.90434" lon="7.56288">
        <ele>1080.4788593006</ele>
        <time>2021-11-02T09:38:55Z</time>
      </trkpt>
      <trkpt lat="43.90433" lon="7.56286">
        <ele>1080.4788793246</ele>
        <time>2021-11-02T09:38:57Z</time>
      </trkpt>
      <trkpt lat="43.90433" lon="7.56285">
        <ele>1080.4788566662</ele>
        <time>2021-11-02T09:38:59Z</time>
      </trkpt>
      <trkpt lat="43.90434" lon="7.56281">
        <ele>1080.4787676153</ele>
        <time>2021-11-02T09:39:00Z</time>
      </trkpt>
      <trkpt lat="43.90434" lon="7.5628">
        <ele>1079.4787327655</ele>
        <time>2021-11-02T09:39:01Z</time>
      </trkpt>
      <trkpt lat="43.90434" lon="7.56279">
        <ele>1079.4787317498</ele>
        <time>2021-11-02T09:39:02Z</time>
      </trkpt>
      <trkpt lat="43.90434" lon="7.56278">
        <ele>1078.4787286826</ele>
        <time>2021-11-02T09:39:03Z</time>
      </trkpt>
      <trkpt lat="43.90434" lon="7.56277">
        <ele>1078.4787153603</ele>
        <time>2021-11-02T09:39:04Z</time>
      </trkpt>
      <trkpt lat="43.90434" lon="7.56276">
        <ele>1078.4786838537</ele>
        <time>2021-11-02T09:39:08Z</time>
      </trkpt>
      <trkpt lat="43.90433" lon="7.56274">
        <ele>1078.4787242047</ele>
        <time>2021-11-02T09:39:09Z</time>
      </trkpt>
      <trkpt lat="43.90433" lon="7.56273">
        <ele>1078.4786866901</ele>
        <time>2021-11-02T09:39:10Z</time>
      </trkpt>
      <trkpt lat="43.90433" lon="7.56272">
        <ele>1079.4786868598</ele>
        <time>2021-11-02T09:39:11Z</time>
      </trkpt>
      <trkpt lat="43.90434" lon="7.56271">
        <ele>1079.4786405895</ele>
        <time>2021-11-02T09:39:13Z</time>
      </trkpt>
      <trkpt lat="43.90434" lon="7.56271">
        <ele>1079.4786405895</ele>
        <time>2021-11-02T09:39:14Z</time>
      </trkpt>
      <trkpt lat="43.90434" lon="7.56269">
        <ele>1079.4785923391</ele>
        <time>2021-11-02T09:39:15Z</time>
      </trkpt>
      <trkpt lat="43.90434" lon="7.56268">
        <ele>1079.4785545883</ele>
        <time>2021-11-02T09:39:17Z</time>
      </trkpt>
      <trkpt lat="43.90435" lon="7.56267">
        <ele>1079.4785071423</ele>
        <time>2021-11-02T09:39:18Z</time>
      </trkpt>
      <trkpt lat="43.90434" lon="7.56265">
        <ele>1079.4785057149</ele>
        <time>2021-11-02T09:39:19Z</time>
      </trkpt>
      <trkpt lat="43.90435" lon="7.56264">
        <ele>1079.4784715629</ele>
        <time>2021-11-02T09:39:21Z</time>
      </trkpt>
      <trkpt lat="43.90435" lon="7.56261">
        <ele>1079.4784096637</ele>
        <time>2021-11-02T09:39:22Z</time>
      </trkpt>
      <trkpt lat="43.90436" lon="7.5626">
        <ele>1079.4783739664</ele>
        <time>2021-11-02T09:39:23Z</time>
      </trkpt>
      <trkpt lat="43.90436" lon="7.5626">
        <ele>1079.4783739664</ele>
        <time>2021-11-02T09:39:26Z</time>
      </trkpt>
      <trkpt lat="43.90437" lon="7.56257">
        <ele>1079.4782607598</ele>
        <time>2021-11-02T09:39:27Z</time>
      </trkpt>
      <trkpt lat="43.90437" lon="7.56254">
        <ele>1080.4782140706</ele>
        <time>2021-11-02T09:39:29Z</time>
      </trkpt>
      <trkpt lat="43.90437" lon="7.56253">
        <ele>1080.4782053897</ele>
        <time>2021-11-02T09:39:30Z</time>
      </trkpt>
      <trkpt lat="43.90437" lon="7.56252">
        <ele>1079.4781816664</ele>
        <time>2021-11-02T09:39:31Z</time>
      </trkpt>
      <trkpt lat="43.90438" lon="7.56248">
        <ele>1080.4780561649</ele>
        <time>2021-11-02T09:39:33Z</time>
      </trkpt>
      <trkpt lat="43.90439" lon="7.56246">
        <ele>1081.4779775495</ele>
        <time>2021-11-02T09:39:34Z</time>
      </trkpt>
      <trkpt lat="43.9044" lon="7.56244">
        <ele>1081.4779215015</ele>
        <time>2021-11-02T09:39:35Z</time>
      </trkpt>
      <trkpt lat="43.9044" lon="7.56243">
        <ele>1082.4778786115</ele>
        <time>2021-11-02T09:39:36Z</time>
      </trkpt>
      <trkpt lat="43.90441" lon="7.56241">
        <ele>1082.477831143</ele>
        <time>2021-11-02T09:39:37Z</time>
      </trkpt>
      <trkpt lat="43.90442" lon="7.56239">
        <ele>1083.4777340743</ele>
        <time>2021-11-02T09:39:39Z</time>
      </trkpt>
      <trkpt lat="43.90442" lon="7.56238">
        <ele>1083.4777159475</ele>
        <time>2021-11-02T09:39:40Z</time>
      </trkpt>
      <trkpt lat="43.90442" lon="7.56237">
        <ele>1083.4776958294</ele>
        <time>2021-11-02T09:39:41Z</time>
      </trkpt>
      <trkpt lat="43.90443" lon="7.56236">
        <ele>1083.4776569854</ele>
        <time>2021-11-02T09:39:43Z</time>
      </trkpt>
      <trkpt lat="43.90443" lon="7.56235">
        <ele>1083.4776431456</ele>
        <time>2021-11-02T09:39:44Z</time>
      </trkpt>
      <trkpt lat="43.90443" lon="7.56234">
        <ele>1082.4776179268</ele>
        <time>2021-11-02T09:39:45Z</time>
      </trkpt>
      <trkpt lat="43.90443" lon="7.5623">
        <ele>1082.4775584591</ele>
        <time>2021-11-02T09:39:47Z</time>
      </trkpt>
      <trkpt lat="43.90444" lon="7.56229">
        <ele>1083.477496933</ele>
        <time>2021-11-02T09:39:48Z</time>
      </trkpt>
      <trkpt lat="43.90445" lon="7.56228">
        <ele>1083.4774260467</ele>
        <time>2021-11-02T09:39:49Z</time>
      </trkpt>
      <trkpt lat="43.90446" lon="7.56227">
        <ele>1084.4773632464</ele>
        <time>2021-11-02T09:39:50Z</time>
      </trkpt>
      <trkpt lat="43.90446" lon="7.56226">
        <ele>1084.4773225441</ele>
        <time>2021-11-02T09:39:51Z</time>
      </trkpt>
      <trkpt lat="43.90446" lon="7.56224">
        <ele>1085.4772960653</ele>
        <time>2021-11-02T09:39:53Z</time>
      </trkpt>
      <trkpt lat="43.90446" lon="7.56222">
        <ele>1085.4772734275</ele>
        <time>2021-11-02T09:39:54Z</time>
      </trkpt>
      <trkpt lat="43.90447" lon="7.56221">
        <ele>1085.4772298578</ele>
        <time>2021-11-02T09:39:56Z</time>
      </trkpt>
      <trkpt lat="43.90448" lon="7.5622">
        <ele>1084.4771607932</ele>
        <time>2021-11-02T09:39:58Z</time>
      </trkpt>
      <trkpt lat="43.90448" lon="7.56219">
        <ele>1084.4771445268</ele>
        <time>2021-11-02T09:39:59Z</time>
      </trkpt>
      <trkpt lat="43.90448" lon="7.56218">
        <ele>1085.477116269</ele>
        <time>2021-11-02T09:40:09Z</time>
      </trkpt>
      <trkpt lat="43.9045" lon="7.56217">
        <ele>1085.4769870856</ele>
        <time>2021-11-02T09:40:10Z</time>
      </trkpt>
      <trkpt lat="43.90451" lon="7.56217">
        <ele>1085.4769377782</ele>
        <time>2021-11-02T09:40:11Z</time>
      </trkpt>
      <trkpt lat="43.90452" lon="7.56217">
        <ele>1085.4768733214</ele>
        <time>2021-11-02T09:40:12Z</time>
      </trkpt>
      <trkpt lat="43.90453" lon="7.56216">
        <ele>1085.4768109616</ele>
        <time>2021-11-02T09:40:13Z</time>
      </trkpt>
      <trkpt lat="43.90454" lon="7.56216">
        <ele>1085.4767600465</ele>
        <time>2021-11-02T09:40:14Z</time>
      </trkpt>
      <trkpt lat="43.90455" lon="7.56215">
        <ele>1086.4767066085</ele>
        <time>2021-11-02T09:40:15Z</time>
      </trkpt>
      <trkpt lat="43.90456" lon="7.56215">
        <ele>1085.4766577043</ele>
        <time>2021-11-02T09:40:17Z</time>
      </trkpt>
      <trkpt lat="43.90457" lon="7.56214">
        <ele>1086.476582016</ele>
        <time>2021-11-02T09:40:18Z</time>
      </trkpt>
      <trkpt lat="43.90458" lon="7.56213">
        <ele>1086.4765428001</ele>
        <time>2021-11-02T09:40:19Z</time>
      </trkpt>
      <trkpt lat="43.90458" lon="7.56212">
        <ele>1086.476507392</ele>
        <time>2021-11-02T09:40:21Z</time>
      </trkpt>
      <trkpt lat="43.9046" lon="7.56212">
        <ele>1086.4764331492</ele>
        <time>2021-11-02T09:40:23Z</time>
      </trkpt>
      <trkpt lat="43.90461" lon="7.56212">
        <ele>1086.4763926034</ele>
        <time>2021-11-02T09:40:27Z</time>
      </trkpt>
      <trkpt lat="43.90461" lon="7.56211">
        <ele>1087.4763381032</ele>
        <time>2021-11-02T09:40:28Z</time>
      </trkpt>
      <trkpt lat="43.90462" lon="7.5621">
        <ele>1087.4763033134</ele>
        <time>2021-11-02T09:40:32Z</time>
      </trkpt>
      <trkpt lat="43.90463" lon="7.5621">
        <ele>1088.4762243101</ele>
        <time>2021-11-02T09:40:34Z</time>
      </trkpt>
      <trkpt lat="43.90464" lon="7.56209">
        <ele>1089.4761905118</ele>
        <time>2021-11-02T09:40:35Z</time>
      </trkpt>
      <trkpt lat="43.90465" lon="7.5621">
        <ele>1089.4761537721</ele>
        <time>2021-11-02T09:40:36Z</time>
      </trkpt>
      <trkpt lat="43.90465" lon="7.5621">
        <ele>1089.4761152647</ele>
        <time>2021-11-02T09:40:37Z</time>
      </trkpt>
      <trkpt lat="43.90466" lon="7.5621">
        <ele>1089.4760927561</ele>
        <time>2021-11-02T09:40:38Z</time>
      </trkpt>
      <trkpt lat="43.90466" lon="7.56209">
        <ele>1089.4760623194</ele>
        <time>2021-11-02T09:40:39Z</time>
      </trkpt>
      <trkpt lat="43.90467" lon="7.56208">
        <ele>1088.4760410237</ele>
        <time>2021-11-02T09:40:40Z</time>
      </trkpt>
      <trkpt lat="43.90467" lon="7.56207">
        <ele>1089.4760010265</ele>
        <time>2021-11-02T09:40:42Z</time>
      </trkpt>
      <trkpt lat="43.90467" lon="7.56206">
        <ele>1089.4759675486</ele>
        <time>2021-11-02T09:40:43Z</time>
      </trkpt>
      <trkpt lat="43.90468" lon="7.56205">
        <ele>1090.4759035818</ele>
        <time>2021-11-02T09:40:44Z</time>
      </trkpt>
      <trkpt lat="43.90469" lon="7.56204">
        <ele>1090.4758696312</ele>
        <time>2021-11-02T09:40:45Z</time>
      </trkpt>
      <trkpt lat="43.90469" lon="7.56203">
        <ele>1091.4758309844</ele>
        <time>2021-11-02T09:40:46Z</time>
      </trkpt>
      <trkpt lat="43.9047" lon="7.56202">
        <ele>1091.4757663843</ele>
        <time>2021-11-02T09:40:47Z</time>
      </trkpt>
      <trkpt lat="43.90471" lon="7.56202">
        <ele>1091.4757172773</ele>
        <time>2021-11-02T09:40:48Z</time>
      </trkpt>
      <trkpt lat="43.90472" lon="7.56201">
        <ele>1091.4756828395</ele>
        <time>2021-11-02T09:40:49Z</time>
      </trkpt>
      <trkpt lat="43.90472" lon="7.56201">
        <ele>1091.4756545146</ele>
        <time>2021-11-02T09:40:50Z</time>
      </trkpt>
      <trkpt lat="43.90473" lon="7.56201">
        <ele>1091.4756283045</ele>
        <time>2021-11-02T09:40:51Z</time>
      </trkpt>
      <trkpt lat="43.90473" lon="7.56202">
        <ele>1090.4756139082</ele>
        <time>2021-11-02T09:40:52Z</time>
      </trkpt>
      <trkpt lat="43.90474" lon="7.56204">
        <ele>1091.4756005065</ele>
        <time>2021-11-02T09:40:54Z</time>
      </trkpt>
      <trkpt lat="43.90474" lon="7.56204">
        <ele>1091.4756005065</ele>
        <time>2021-11-02T09:40:56Z</time>
      </trkpt>
      <trkpt lat="43.90475" lon="7.56206">
        <ele>1091.4755756436</ele>
        <time>2021-11-02T09:40:58Z</time>
      </trkpt>
      <trkpt lat="43.90476" lon="7.56208">
        <ele>1091.4755534632</ele>
        <time>2021-11-02T09:40:59Z</time>
      </trkpt>
      <trkpt lat="43.90477" lon="7.56208">
        <ele>1091.4755197656</ele>
        <time>2021-11-02T09:41:00Z</time>
      </trkpt>
      <trkpt lat="43.90478" lon="7.56209">
        <ele>1090.4754990397</ele>
        <time>2021-11-02T09:41:01Z</time>
      </trkpt>
      <trkpt lat="43.90477" lon="7.5621">
        <ele>1090.4755259069</ele>
        <time>2021-11-02T09:41:10Z</time>
      </trkpt>
      <trkpt lat="43.90478" lon="7.56209">
        <ele>1089.4754590294</ele>
        <time>2021-11-02T09:41:11Z</time>
      </trkpt>
      <trkpt lat="43.90479" lon="7.56208">
        <ele>1088.4754363571</ele>
        <time>2021-11-02T09:41:12Z</time>
      </trkpt>
      <trkpt lat="43.90479" lon="7.56208">
        <ele>1088.4754054103</ele>
        <time>2021-11-02T09:41:13Z</time>
      </trkpt>
      <trkpt lat="43.9048" lon="7.56208">
        <ele>1088.4753619364</ele>
        <time>2021-11-02T09:41:14Z</time>
      </trkpt>
      <trkpt lat="43.90481" lon="7.56208">
        <ele>1088.4753195412</ele>
        <time>2021-11-02T09:41:15Z</time>
      </trkpt>
      <trkpt lat="43.90482" lon="7.56209">
        <ele>1088.4752709323</ele>
        <time>2021-11-02T09:41:17Z</time>
      </trkpt>
      <trkpt lat="43.90484" lon="7.5621">
        <ele>1088.4752083408</ele>
        <time>2021-11-02T09:41:18Z</time>
      </trkpt>
      <trkpt lat="43.90484" lon="7.56209">
        <ele>1088.4751623965</ele>
        <time>2021-11-02T09:41:20Z</time>
      </trkpt>
      <trkpt lat="43.90485" lon="7.56209">
        <ele>1089.4751333891</ele>
        <time>2021-11-02T09:41:21Z</time>
      </trkpt>
      <trkpt lat="43.90486" lon="7.56209">
        <ele>1090.4751033508</ele>
        <time>2021-11-02T09:41:23Z</time>
      </trkpt>
      <trkpt lat="43.90487" lon="7.56209">
        <ele>1090.4750132672</ele>
        <time>2021-11-02T09:41:24Z</time>
      </trkpt>
      <trkpt lat="43.90488" lon="7.56209">
        <ele>1091.4749650273</ele>
        <time>2021-11-02T09:41:25Z</time>
      </trkpt>
      <trkpt lat="43.90489" lon="7.56209">
        <ele>1092.474940943</ele>
        <time>2021-11-02T09:41:27Z</time>
      </trkpt>
      <trkpt lat="43.9049" lon="7.56209">
        <ele>1092.4748655907</ele>
        <time>2021-11-02T09:41:28Z</time>
      </trkpt>
      <trkpt lat="43.90491" lon="7.56209">
        <ele>1092.4747994051</ele>
        <time>2021-11-02T09:41:29Z</time>
      </trkpt>
      <trkpt lat="43.90492" lon="7.56209">
        <ele>1092.4747617396</ele>
        <time>2021-11-02T09:41:30Z</time>
      </trkpt>
      <trkpt lat="43.90493" lon="7.56209">
        <ele>1092.47471589</ele>
        <time>2021-11-02T09:41:32Z</time>
      </trkpt>
      <trkpt lat="43.90492" lon="7.56209">
        <ele>1092.4747643296</ele>
        <time>2021-11-02T09:41:34Z</time>
      </trkpt>
      <trkpt lat="43.90492" lon="7.56207">
        <ele>1091.474762346</ele>
        <time>2021-11-02T09:41:37Z</time>
      </trkpt>
      <trkpt lat="43.90492" lon="7.56207">
        <ele>1092.4747272041</ele>
        <time>2021-11-02T09:41:39Z</time>
      </trkpt>
      <trkpt lat="43.90493" lon="7.56207">
        <ele>1093.4746743011</ele>
        <time>2021-11-02T09:41:40Z</time>
      </trkpt>
      <trkpt lat="43.90494" lon="7.56207">
        <ele>1093.4746296837</ele>
        <time>2021-11-02T09:41:41Z</time>
      </trkpt>
      <trkpt lat="43.90495" lon="7.56207">
        <ele>1093.474609198</ele>
        <time>2021-11-02T09:41:42Z</time>
      </trkpt>
      <trkpt lat="43.90496" lon="7.56208">
        <ele>1093.4745492282</ele>
        <time>2021-11-02T09:41:44Z</time>
      </trkpt>
      <trkpt lat="43.90497" lon="7.56207">
        <ele>1093.4745172912</ele>
        <time>2021-11-02T09:41:45Z</time>
      </trkpt>
      <trkpt lat="43.90497" lon="7.56207">
        <ele>1093.474483737</ele>
        <time>2021-11-02T09:41:46Z</time>
      </trkpt>
      <trkpt lat="43.90498" lon="7.56207">
        <ele>1092.4744333669</ele>
        <time>2021-11-02T09:41:48Z</time>
      </trkpt>
      <trkpt lat="43.90499" lon="7.56206">
        <ele>1093.4743752522</ele>
        <time>2021-11-02T09:41:49Z</time>
      </trkpt>
      <trkpt lat="43.905" lon="7.56206">
        <ele>1093.4743232569</ele>
        <time>2021-11-02T09:41:50Z</time>
      </trkpt>
      <trkpt lat="43.90502" lon="7.56207">
        <ele>1092.4742263089</ele>
        <time>2021-11-02T09:41:52Z</time>
      </trkpt>
      <trkpt lat="43.90503" lon="7.56206">
        <ele>1091.4741765516</ele>
        <time>2021-11-02T09:41:54Z</time>
      </trkpt>
      <trkpt lat="43.90503" lon="7.56205">
        <ele>1091.4741484226</ele>
        <time>2021-11-02T09:41:55Z</time>
      </trkpt>
      <trkpt lat="43.90504" lon="7.56205">
        <ele>1092.47411549</ele>
        <time>2021-11-02T09:41:56Z</time>
      </trkpt>
      <trkpt lat="43.90505" lon="7.56205">
        <ele>1092.4740785075</ele>
        <time>2021-11-02T09:41:57Z</time>
      </trkpt>
      <trkpt lat="43.90506" lon="7.56205">
        <ele>1092.4740002231</ele>
        <time>2021-11-02T09:41:59Z</time>
      </trkpt>
      <trkpt lat="43.90507" lon="7.56204">
        <ele>1092.4739437223</ele>
        <time>2021-11-02T09:42:00Z</time>
      </trkpt>
      <trkpt lat="43.90508" lon="7.56204">
        <ele>1092.4739067628</ele>
        <time>2021-11-02T09:42:01Z</time>
      </trkpt>
      <trkpt lat="43.90508" lon="7.56204">
        <ele>1092.4738785054</ele>
        <time>2021-11-02T09:42:02Z</time>
      </trkpt>
      <trkpt lat="43.90509" lon="7.56204">
        <ele>1092.4738447082</ele>
        <time>2021-11-02T09:42:03Z</time>
      </trkpt>
      <trkpt lat="43.9051" lon="7.56204">
        <ele>1092.4738109494</ele>
        <time>2021-11-02T09:42:04Z</time>
      </trkpt>
      <trkpt lat="43.9051" lon="7.56204">
        <ele>1092.4737755451</ele>
        <time>2021-11-02T09:42:05Z</time>
      </trkpt>
      <trkpt lat="43.90512" lon="7.56203">
        <ele>1092.4736831106</ele>
        <time>2021-11-02T09:42:07Z</time>
      </trkpt>
      <trkpt lat="43.90514" lon="7.56204">
        <ele>1091.4735992859</ele>
        <time>2021-11-02T09:42:09Z</time>
      </trkpt>
      <trkpt lat="43.90515" lon="7.56203">
        <ele>1092.4735586141</ele>
        <time>2021-11-02T09:42:10Z</time>
      </trkpt>
      <trkpt lat="43.90515" lon="7.56203">
        <ele>1092.4735327014</ele>
        <time>2021-11-02T09:42:11Z</time>
      </trkpt>
      <trkpt lat="43.90516" lon="7.56203">
        <ele>1092.4735107773</ele>
        <time>2021-11-02T09:42:12Z</time>
      </trkpt>
      <trkpt lat="43.90516" lon="7.56203">
        <ele>1093.4734788721</ele>
        <time>2021-11-02T09:42:13Z</time>
      </trkpt>
      <trkpt lat="43.90517" lon="7.56203">
        <ele>1093.4734437413</ele>
        <time>2021-11-02T09:42:14Z</time>
      </trkpt>
      <trkpt lat="43.90518" lon="7.56204">
        <ele>1093.4734151568</ele>
        <time>2021-11-02T09:42:15Z</time>
      </trkpt>
      <trkpt lat="43.90518" lon="7.56205">
        <ele>1093.4733958766</ele>
        <time>2021-11-02T09:42:18Z</time>
      </trkpt>
      <trkpt lat="43.9052" lon="7.56205">
        <ele>1094.47333058</ele>
        <time>2021-11-02T09:42:19Z</time>
      </trkpt>
      <trkpt lat="43.90521" lon="7.56205">
        <ele>1094.4732878404</ele>
        <time>2021-11-02T09:42:20Z</time>
      </trkpt>
      <trkpt lat="43.90522" lon="7.56206">
        <ele>1094.4732280052</ele>
        <time>2021-11-02T09:42:21Z</time>
      </trkpt>
      <trkpt lat="43.90523" lon="7.56206">
        <ele>1095.4732037789</ele>
        <time>2021-11-02T09:42:22Z</time>
      </trkpt>
      <trkpt lat="43.90523" lon="7.56206">
        <ele>1095.4731659325</ele>
        <time>2021-11-02T09:42:25Z</time>
      </trkpt>
      <trkpt lat="43.90526" lon="7.56205">
        <ele>1094.4730117592</ele>
        <time>2021-11-02T09:42:27Z</time>
      </trkpt>
      <trkpt lat="43.90527" lon="7.56205">
        <ele>1094.4729631923</ele>
        <time>2021-11-02T09:42:28Z</time>
      </trkpt>
      <trkpt lat="43.90528" lon="7.56205">
        <ele>1095.4729306925</ele>
        <time>2021-11-02T09:42:29Z</time>
      </trkpt>
      <trkpt lat="43.90528" lon="7.56205">
        <ele>1094.47290432</ele>
        <time>2021-11-02T09:42:30Z</time>
      </trkpt>
      <trkpt lat="43.90529" lon="7.56205">
        <ele>1094.4728923478</ele>
        <time>2021-11-02T09:42:31Z</time>
      </trkpt>
      <trkpt lat="43.90529" lon="7.56204">
        <ele>1095.4728539471</ele>
        <time>2021-11-02T09:42:33Z</time>
      </trkpt>
      <trkpt lat="43.90529" lon="7.56203">
        <ele>1095.472829991</ele>
        <time>2021-11-02T09:42:34Z</time>
      </trkpt>
      <trkpt lat="43.9053" lon="7.56203">
        <ele>1095.4728097342</ele>
        <time>2021-11-02T09:42:35Z</time>
      </trkpt>
      <trkpt lat="43.9053" lon="7.56202">
        <ele>1095.4727636467</ele>
        <time>2021-11-02T09:42:37Z</time>
      </trkpt>
      <trkpt lat="43.90532" lon="7.56201">
        <ele>1095.4726451275</ele>
        <time>2021-11-02T09:42:39Z</time>
      </trkpt>
      <trkpt lat="43.90533" lon="7.56201">
        <ele>1095.4725882557</ele>
        <time>2021-11-02T09:42:40Z</time>
      </trkpt>
      <trkpt lat="43.90534" lon="7.56201">
        <ele>1095.4725725855</ele>
        <time>2021-11-02T09:42:41Z</time>
      </trkpt>
      <trkpt lat="43.90536" lon="7.56202">
        <ele>1094.4724970804</ele>
        <time>2021-11-02T09:42:43Z</time>
      </trkpt>
      <trkpt lat="43.90536" lon="7.56203">
        <ele>1094.4724787995</ele>
        <time>2021-11-02T09:42:44Z</time>
      </trkpt>
      <trkpt lat="43.90537" lon="7.56203">
        <ele>1094.4724485292</ele>
        <time>2021-11-02T09:42:45Z</time>
      </trkpt>
      <trkpt lat="43.90539" lon="7.56202">
        <ele>1095.4723434175</ele>
        <time>2021-11-02T09:42:47Z</time>
      </trkpt>
      <trkpt lat="43.90541" lon="7.56201">
        <ele>1095.4722038097</ele>
        <time>2021-11-02T09:42:49Z</time>
      </trkpt>
      <trkpt lat="43.90542" lon="7.562">
        <ele>1095.4721466705</ele>
        <time>2021-11-02T09:42:50Z</time>
      </trkpt>
      <trkpt lat="43.90542" lon="7.562">
        <ele>1095.4721277925</ele>
        <time>2021-11-02T09:42:57Z</time>
      </trkpt>
      <trkpt lat="43.90541" lon="7.562">
        <ele>1095.4722125198</ele>
        <time>2021-11-02T09:42:58Z</time>
      </trkpt>
      <trkpt lat="43.9054" lon="7.562">
        <ele>1095.4722664789</ele>
        <time>2021-11-02T09:42:59Z</time>
      </trkpt>
      <trkpt lat="43.90539" lon="7.562">
        <ele>1095.4722929181</ele>
        <time>2021-11-02T09:43:00Z</time>
      </trkpt>
      <trkpt lat="43.90538" lon="7.56201">
        <ele>1096.4723419493</ele>
        <time>2021-11-02T09:43:01Z</time>
      </trkpt>
      <trkpt lat="43.90537" lon="7.56201">
        <ele>1096.4724024991</ele>
        <time>2021-11-02T09:43:03Z</time>
      </trkpt>
      <trkpt lat="43.90538" lon="7.56201">
        <ele>1096.4723720491</ele>
        <time>2021-11-02T09:43:06Z</time>
      </trkpt>
      <trkpt lat="43.90539" lon="7.562">
        <ele>1096.4722770529</ele>
        <time>2021-11-02T09:43:07Z</time>
      </trkpt>
      <trkpt lat="43.90542" lon="7.56198">
        <ele>1095.4721352885</ele>
        <time>2021-11-02T09:43:09Z</time>
      </trkpt>
      <trkpt lat="43.90543" lon="7.56198">
        <ele>1095.4720718882</ele>
        <time>2021-11-02T09:43:10Z</time>
      </trkpt>
      <trkpt lat="43.90544" lon="7.56198">
        <ele>1095.4719937613</ele>
        <time>2021-11-02T09:43:11Z</time>
      </trkpt>
      <trkpt lat="43.90545" lon="7.56197">
        <ele>1095.4719497596</ele>
        <time>2021-11-02T09:43:12Z</time>
      </trkpt>
      <trkpt lat="43.90546" lon="7.56197">
        <ele>1095.4719137146</ele>
        <time>2021-11-02T09:43:13Z</time>
      </trkpt>
      <trkpt lat="43.90546" lon="7.56196">
        <ele>1095.471867769</ele>
        <time>2021-11-02T09:43:14Z</time>
      </trkpt>
      <trkpt lat="43.90547" lon="7.56196">
        <ele>1095.4718188958</ele>
        <time>2021-11-02T09:43:15Z</time>
      </trkpt>
      <trkpt lat="43.90549" lon="7.56195">
        <ele>1095.4717318897</ele>
        <time>2021-11-02T09:43:17Z</time>
      </trkpt>
      <trkpt lat="43.9055" lon="7.56195">
        <ele>1095.4716930215</ele>
        <time>2021-11-02T09:43:19Z</time>
      </trkpt>
      <trkpt lat="43.9055" lon="7.56196">
        <ele>1095.471674686</ele>
        <time>2021-11-02T09:43:22Z</time>
      </trkpt>
      <trkpt lat="43.90552" lon="7.56195">
        <ele>1096.471576157</ele>
        <time>2021-11-02T09:43:23Z</time>
      </trkpt>
      <trkpt lat="43.90552" lon="7.56196">
        <ele>1096.4715693341</ele>
        <time>2021-11-02T09:43:24Z</time>
      </trkpt>
      <trkpt lat="43.90554" lon="7.56195">
        <ele>1095.4715011817</ele>
        <time>2021-11-02T09:43:26Z</time>
      </trkpt>
      <trkpt lat="43.90554" lon="7.56195">
        <ele>1095.4714880181</ele>
        <time>2021-11-02T09:43:30Z</time>
      </trkpt>
      <trkpt lat="43.90555" lon="7.56195">
        <ele>1096.4714324646</ele>
        <time>2021-11-02T09:43:33Z</time>
      </trkpt>
      <trkpt lat="43.90556" lon="7.56193">
        <ele>1097.4713689294</ele>
        <time>2021-11-02T09:43:34Z</time>
      </trkpt>
      <trkpt lat="43.90556" lon="7.56192">
        <ele>1097.4713199322</ele>
        <time>2021-11-02T09:43:35Z</time>
      </trkpt>
      <trkpt lat="43.90556" lon="7.56193">
        <ele>1098.4713339445</ele>
        <time>2021-11-02T09:43:38Z</time>
      </trkpt>
      <trkpt lat="43.90556" lon="7.56194">
        <ele>1098.4713464832</ele>
        <time>2021-11-02T09:43:40Z</time>
      </trkpt>
      <trkpt lat="43.90556" lon="7.56194">
        <ele>1096.4713456616</ele>
        <time>2021-11-02T09:43:42Z</time>
      </trkpt>
      <trkpt lat="43.90557" lon="7.56194">
        <ele>1096.4713045469</ele>
        <time>2021-11-02T09:43:43Z</time>
      </trkpt>
      <trkpt lat="43.90559" lon="7.56194">
        <ele>1096.471213683</ele>
        <time>2021-11-02T09:43:44Z</time>
      </trkpt>
      <trkpt lat="43.90559" lon="7.56194">
        <ele>1097.4711959642</ele>
        <time>2021-11-02T09:43:45Z</time>
      </trkpt>
      <trkpt lat="43.9056" lon="7.56195">
        <ele>1097.4711874765</ele>
        <time>2021-11-02T09:43:47Z</time>
      </trkpt>
      <trkpt lat="43.90559" lon="7.56197">
        <ele>1096.4712570632</ele>
        <time>2021-11-02T09:43:49Z</time>
      </trkpt>
      <trkpt lat="43.90558" lon="7.56197">
        <ele>1096.4713238183</ele>
        <time>2021-11-02T09:43:50Z</time>
      </trkpt>
      <trkpt lat="43.90556" lon="7.56198">
        <ele>1095.471391153</ele>
        <time>2021-11-02T09:43:52Z</time>
      </trkpt>
      <trkpt lat="43.90556" lon="7.56198">
        <ele>1095.4714391916</ele>
        <time>2021-11-02T09:43:53Z</time>
      </trkpt>
      <trkpt lat="43.90555" lon="7.56198">
        <ele>1094.4714861691</ele>
        <time>2021-11-02T09:43:58Z</time>
      </trkpt>
      <trkpt lat="43.90554" lon="7.56197">
        <ele>1095.4715121026</ele>
        <time>2021-11-02T09:43:59Z</time>
      </trkpt>
      <trkpt lat="43.90554" lon="7.56197">
        <ele>1095.4714978666</ele>
        <time>2021-11-02T09:44:00Z</time>
      </trkpt>
      <trkpt lat="43.90554" lon="7.56196">
        <ele>1095.4714749484</ele>
        <time>2021-11-02T09:44:01Z</time>
      </trkpt>
      <trkpt lat="43.90556" lon="7.56194">
        <ele>1096.471377218</ele>
        <time>2021-11-02T09:44:03Z</time>
      </trkpt>
      <trkpt lat="43.90556" lon="7.56194">
        <ele>1096.4713549498</ele>
        <time>2021-11-02T09:44:04Z</time>
      </trkpt>
      <trkpt lat="43.90556" lon="7.56193">
        <ele>1096.4713511458</ele>
        <time>2021-11-02T09:44:05Z</time>
      </trkpt>
      <trkpt lat="43.90557" lon="7.56192">
        <ele>1095.4712478076</ele>
        <time>2021-11-02T09:44:07Z</time>
      </trkpt>
      <trkpt lat="43.90559" lon="7.5619">
        <ele>1095.4711462321</ele>
        <time>2021-11-02T09:44:09Z</time>
      </trkpt>
      <trkpt lat="43.9056" lon="7.5619">
        <ele>1096.4710970112</ele>
        <time>2021-11-02T09:44:10Z</time>
      </trkpt>
      <trkpt lat="43.90561" lon="7.5619">
        <ele>1096.4710425725</ele>
        <time>2021-11-02T09:44:11Z</time>
      </trkpt>
      <trkpt lat="43.90562" lon="7.56189">
        <ele>1095.4709959951</ele>
        <time>2021-11-02T09:44:12Z</time>
      </trkpt>
      <trkpt lat="43.90562" lon="7.56188">
        <ele>1095.4709490339</ele>
        <time>2021-11-02T09:44:13Z</time>
      </trkpt>
      <trkpt lat="43.90563" lon="7.56188">
        <ele>1095.4709029268</ele>
        <time>2021-11-02T09:44:14Z</time>
      </trkpt>
      <trkpt lat="43.90564" lon="7.56187">
        <ele>1096.4708571638</ele>
        <time>2021-11-02T09:44:15Z</time>
      </trkpt>
      <trkpt lat="43.90564" lon="7.56186">
        <ele>1096.4708135423</ele>
        <time>2021-11-02T09:44:16Z</time>
      </trkpt>
      <trkpt lat="43.90566" lon="7.56184">
        <ele>1096.4707205273</ele>
        <time>2021-11-02T09:44:18Z</time>
      </trkpt>
      <trkpt lat="43.90567" lon="7.56184">
        <ele>1096.4706570926</ele>
        <time>2021-11-02T09:44:19Z</time>
      </trkpt>
      <trkpt lat="43.90568" lon="7.56184">
        <ele>1097.4706097366</ele>
        <time>2021-11-02T09:44:20Z</time>
      </trkpt>
      <trkpt lat="43.90569" lon="7.56182">
        <ele>1097.4705233926</ele>
        <time>2021-11-02T09:44:23Z</time>
      </trkpt>
      <trkpt lat="43.90571" lon="7.56182">
        <ele>1097.4704275226</ele>
        <time>2021-11-02T09:44:24Z</time>
      </trkpt>
      <trkpt lat="43.90572" lon="7.56181">
        <ele>1097.4703646832</ele>
        <time>2021-11-02T09:44:25Z</time>
      </trkpt>
      <trkpt lat="43.90573" lon="7.56181">
        <ele>1097.4703075448</ele>
        <time>2021-11-02T09:44:26Z</time>
      </trkpt>
      <trkpt lat="43.90574" lon="7.5618">
        <ele>1097.4702530086</ele>
        <time>2021-11-02T09:44:27Z</time>
      </trkpt>
      <trkpt lat="43.90575" lon="7.5618">
        <ele>1097.4702020574</ele>
        <time>2021-11-02T09:44:28Z</time>
      </trkpt>
      <trkpt lat="43.90576" lon="7.56179">
        <ele>1097.4701465861</ele>
        <time>2021-11-02T09:44:29Z</time>
      </trkpt>
      <trkpt lat="43.90577" lon="7.56178">
        <ele>1098.4700912974</ele>
        <time>2021-11-02T09:44:30Z</time>
      </trkpt>
      <trkpt lat="43.90577" lon="7.56177">
        <ele>1098.4700477045</ele>
        <time>2021-11-02T09:44:31Z</time>
      </trkpt>
      <trkpt lat="43.90578" lon="7.56177">
        <ele>1098.4700033441</ele>
        <time>2021-11-02T09:44:32Z</time>
      </trkpt>
      <trkpt lat="43.90579" lon="7.56176">
        <ele>1098.4699455715</ele>
        <time>2021-11-02T09:44:33Z</time>
      </trkpt>
      <trkpt lat="43.90579" lon="7.56175">
        <ele>1098.4699004382</ele>
        <time>2021-11-02T09:44:34Z</time>
      </trkpt>
      <trkpt lat="43.9058" lon="7.56174">
        <ele>1099.4698660777</ele>
        <time>2021-11-02T09:44:35Z</time>
      </trkpt>
      <trkpt lat="43.9058" lon="7.56174">
        <ele>1099.4698288445</ele>
        <time>2021-11-02T09:44:36Z</time>
      </trkpt>
      <trkpt lat="43.90581" lon="7.56174">
        <ele>1099.4697920844</ele>
        <time>2021-11-02T09:44:45Z</time>
      </trkpt>
      <trkpt lat="43.90582" lon="7.56174">
        <ele>1103.4697716308</ele>
        <time>2021-11-02T09:46:01Z</time>
      </trkpt>
      <trkpt lat="43.9058" lon="7.56176">
        <ele>1102.4698919641</ele>
        <time>2021-11-02T09:46:02Z</time>
      </trkpt>
      <trkpt lat="43.9058" lon="7.56177">
        <ele>1102.469911976</ele>
        <time>2021-11-02T09:46:03Z</time>
      </trkpt>
      <trkpt lat="43.9058" lon="7.56178">
        <ele>1102.4699379447</ele>
        <time>2021-11-02T09:46:04Z</time>
      </trkpt>
      <trkpt lat="43.90579" lon="7.56178">
        <ele>1102.4699631257</ele>
        <time>2021-11-02T09:46:05Z</time>
      </trkpt>
      <trkpt lat="43.9058" lon="7.56178">
        <ele>1104.469947211</ele>
        <time>2021-11-02T09:46:27Z</time>
      </trkpt>
      <trkpt lat="43.90583" lon="7.56179">
        <ele>1104.4698012158</ele>
        <time>2021-11-02T09:46:29Z</time>
      </trkpt>
      <trkpt lat="43.90583" lon="7.56179">
        <ele>1104.4697599895</ele>
        <time>2021-11-02T09:46:30Z</time>
      </trkpt>
      <trkpt lat="43.90584" lon="7.56179">
        <ele>1105.4697168213</ele>
        <time>2021-11-02T09:46:31Z</time>
      </trkpt>
      <trkpt lat="43.90586" lon="7.56178">
        <ele>1105.4696271996</ele>
        <time>2021-11-02T09:46:33Z</time>
      </trkpt>
      <trkpt lat="43.90587" lon="7.56178">
        <ele>1105.4695757733</ele>
        <time>2021-11-02T09:46:34Z</time>
      </trkpt>
      <trkpt lat="43.90588" lon="7.56179">
        <ele>1105.4695395574</ele>
        <time>2021-11-02T09:46:35Z</time>
      </trkpt>
      <trkpt lat="43.90589" lon="7.56179">
        <ele>1105.4695013922</ele>
        <time>2021-11-02T09:46:36Z</time>
      </trkpt>
      <trkpt lat="43.9059" lon="7.56179">
        <ele>1104.469434343</ele>
        <time>2021-11-02T09:46:38Z</time>
      </trkpt>
      <trkpt lat="43.90591" lon="7.56179">
        <ele>1105.4693870384</ele>
        <time>2021-11-02T09:46:39Z</time>
      </trkpt>
      <trkpt lat="43.90592" lon="7.56179">
        <ele>1105.4693421534</ele>
        <time>2021-11-02T09:46:40Z</time>
      </trkpt>
      <trkpt lat="43.90593" lon="7.56179">
        <ele>1105.4693066616</ele>
        <time>2021-11-02T09:46:41Z</time>
      </trkpt>
      <trkpt lat="43.90593" lon="7.56179">
        <ele>1105.4692759243</ele>
        <time>2021-11-02T09:46:42Z</time>
      </trkpt>
      <trkpt lat="43.90594" lon="7.56179">
        <ele>1105.4692425228</ele>
        <time>2021-11-02T09:46:43Z</time>
      </trkpt>
      <trkpt lat="43.90595" lon="7.5618">
        <ele>1104.4692158185</ele>
        <time>2021-11-02T09:46:44Z</time>
      </trkpt>
      <trkpt lat="43.90595" lon="7.5618">
        <ele>1105.4691914479</ele>
        <time>2021-11-02T09:46:45Z</time>
      </trkpt>
      <trkpt lat="43.90596" lon="7.56181">
        <ele>1105.4691723462</ele>
        <time>2021-11-02T09:46:46Z</time>
      </trkpt>
      <trkpt lat="43.90597" lon="7.56181">
        <ele>1105.4691393142</ele>
        <time>2021-11-02T09:46:47Z</time>
      </trkpt>
      <trkpt lat="43.90598" lon="7.56182">
        <ele>1104.4690917497</ele>
        <time>2021-11-02T09:46:48Z</time>
      </trkpt>
      <trkpt lat="43.90598" lon="7.56183">
        <ele>1104.4690905954</ele>
        <time>2021-11-02T09:46:49Z</time>
      </trkpt>
      <trkpt lat="43.90598" lon="7.56184">
        <ele>1104.4691046259</ele>
        <time>2021-11-02T09:46:50Z</time>
      </trkpt>
      <trkpt lat="43.90598" lon="7.56186">
        <ele>1105.4691104449</ele>
        <time>2021-11-02T09:46:51Z</time>
      </trkpt>
      <trkpt lat="43.90599" lon="7.56186">
        <ele>1105.4690903415</ele>
        <time>2021-11-02T09:46:52Z</time>
      </trkpt>
      <trkpt lat="43.90599" lon="7.56187">
        <ele>1105.4690771599</ele>
        <time>2021-11-02T09:46:53Z</time>
      </trkpt>
      <trkpt lat="43.906" lon="7.56187">
        <ele>1105.4690519255</ele>
        <time>2021-11-02T09:46:54Z</time>
      </trkpt>
      <trkpt lat="43.90601" lon="7.56188">
        <ele>1105.4690248052</ele>
        <time>2021-11-02T09:46:55Z</time>
      </trkpt>
      <trkpt lat="43.90601" lon="7.56188">
        <ele>1105.4690020788</ele>
        <time>2021-11-02T09:46:56Z</time>
      </trkpt>
      <trkpt lat="43.90603" lon="7.56188">
        <ele>1104.4689459167</ele>
        <time>2021-11-02T09:46:57Z</time>
      </trkpt>
      <trkpt lat="43.90605" lon="7.56188">
        <ele>1104.4688489406</ele>
        <time>2021-11-02T09:46:59Z</time>
      </trkpt>
      <trkpt lat="43.90605" lon="7.56189">
        <ele>1104.4688099764</ele>
        <time>2021-11-02T09:47:00Z</time>
      </trkpt>
      <trkpt lat="43.90607" lon="7.56189">
        <ele>1104.4687555878</ele>
        <time>2021-11-02T09:47:01Z</time>
      </trkpt>
      <trkpt lat="43.90608" lon="7.5619">
        <ele>1105.4687208876</ele>
        <time>2021-11-02T09:47:02Z</time>
      </trkpt>
      <trkpt lat="43.90609" lon="7.56191">
        <ele>1105.4686638494</ele>
        <time>2021-11-02T09:47:03Z</time>
      </trkpt>
      <trkpt lat="43.9061" lon="7.5619">
        <ele>1105.4686033002</ele>
        <time>2021-11-02T09:47:04Z</time>
      </trkpt>
      <trkpt lat="43.90611" lon="7.5619">
        <ele>1105.4685434503</ele>
        <time>2021-11-02T09:47:05Z</time>
      </trkpt>
      <trkpt lat="43.90612" lon="7.5619">
        <ele>1105.4684990727</ele>
        <time>2021-11-02T09:47:06Z</time>
      </trkpt>
      <trkpt lat="43.90614" lon="7.56191">
        <ele>1105.4684198196</ele>
        <time>2021-11-02T09:47:08Z</time>
      </trkpt>
      <trkpt lat="43.90615" lon="7.56191">
        <ele>1105.4683819636</ele>
        <time>2021-11-02T09:47:09Z</time>
      </trkpt>
      <trkpt lat="43.90615" lon="7.56191">
        <ele>1105.4683528788</ele>
        <time>2021-11-02T09:47:10Z</time>
      </trkpt>
      <trkpt lat="43.90616" lon="7.56192">
        <ele>1104.468324326</ele>
        <time>2021-11-02T09:47:11Z</time>
      </trkpt>
      <trkpt lat="43.90617" lon="7.56192">
        <ele>1103.4682584417</ele>
        <time>2021-11-02T09:47:13Z</time>
      </trkpt>
      <trkpt lat="43.90618" lon="7.56192">
        <ele>1103.4682116004</ele>
        <time>2021-11-02T09:47:14Z</time>
      </trkpt>
      <trkpt lat="43.90619" lon="7.56192">
        <ele>1104.4681605736</ele>
        <time>2021-11-02T09:47:15Z</time>
      </trkpt>
      <trkpt lat="43.90621" lon="7.56192">
        <ele>1104.4680709771</ele>
        <time>2021-11-02T09:47:18Z</time>
      </trkpt>
      <trkpt lat="43.90623" lon="7.56193">
        <ele>1106.4680100873</ele>
        <time>2021-11-02T09:47:19Z</time>
      </trkpt>
      <trkpt lat="43.90623" lon="7.56193">
        <ele>1107.4679814406</ele>
        <time>2021-11-02T09:47:20Z</time>
      </trkpt>
      <trkpt lat="43.90624" lon="7.56193">
        <ele>1107.4679544557</ele>
        <time>2021-11-02T09:47:21Z</time>
      </trkpt>
      <trkpt lat="43.90625" lon="7.56193">
        <ele>1106.4679026248</ele>
        <time>2021-11-02T09:47:23Z</time>
      </trkpt>
      <trkpt lat="43.90626" lon="7.56193">
        <ele>1106.4678514647</ele>
        <time>2021-11-02T09:47:24Z</time>
      </trkpt>
      <trkpt lat="43.90627" lon="7.56193">
        <ele>1106.4678120619</ele>
        <time>2021-11-02T09:47:25Z</time>
      </trkpt>
      <trkpt lat="43.90627" lon="7.56193">
        <ele>1106.4677860277</ele>
        <time>2021-11-02T09:47:28Z</time>
      </trkpt>
      <trkpt lat="43.90628" lon="7.56193">
        <ele>1106.4677480433</ele>
        <time>2021-11-02T09:47:29Z</time>
      </trkpt>
      <trkpt lat="43.90629" lon="7.56193">
        <ele>1106.4677040345</ele>
        <time>2021-11-02T09:47:31Z</time>
      </trkpt>
      <trkpt lat="43.9063" lon="7.56194">
        <ele>1106.4676564848</ele>
        <time>2021-11-02T09:47:32Z</time>
      </trkpt>
      <trkpt lat="43.90632" lon="7.56194">
        <ele>1106.4675443297</ele>
        <time>2021-11-02T09:47:34Z</time>
      </trkpt>
      <trkpt lat="43.90633" lon="7.56194">
        <ele>1107.4675198594</ele>
        <time>2021-11-02T09:47:35Z</time>
      </trkpt>
      <trkpt lat="43.90633" lon="7.56195">
        <ele>1107.4675023028</ele>
        <time>2021-11-02T09:47:36Z</time>
      </trkpt>
      <trkpt lat="43.90634" lon="7.56196">
        <ele>1107.4674789676</ele>
        <time>2021-11-02T09:47:37Z</time>
      </trkpt>
      <trkpt lat="43.90635" lon="7.56196">
        <ele>1108.4674492287</ele>
        <time>2021-11-02T09:47:38Z</time>
      </trkpt>
      <trkpt lat="43.90636" lon="7.56197">
        <ele>1108.4674158462</ele>
        <time>2021-11-02T09:47:39Z</time>
      </trkpt>
      <trkpt lat="43.90636" lon="7.56197">
        <ele>1108.4673999082</ele>
        <time>2021-11-02T09:47:40Z</time>
      </trkpt>
      <trkpt lat="43.90636" lon="7.56197">
        <ele>1108.4673862296</ele>
        <time>2021-11-02T09:47:41Z</time>
      </trkpt>
      <trkpt lat="43.90638" lon="7.56198">
        <ele>1108.4673411317</ele>
        <time>2021-11-02T09:47:42Z</time>
      </trkpt>
      <trkpt lat="43.90638" lon="7.56198">
        <ele>1107.4673185399</ele>
        <time>2021-11-02T09:47:43Z</time>
      </trkpt>
      <trkpt lat="43.90639" lon="7.56199">
        <ele>1107.4672944841</ele>
        <time>2021-11-02T09:47:44Z</time>
      </trkpt>
      <trkpt lat="43.90639" lon="7.562">
        <ele>1107.4672914727</ele>
        <time>2021-11-02T09:47:45Z</time>
      </trkpt>
      <trkpt lat="43.9064" lon="7.56201">
        <ele>1107.4672785019</ele>
        <time>2021-11-02T09:47:46Z</time>
      </trkpt>
      <trkpt lat="43.9064" lon="7.56202">
        <ele>1107.4672533951</ele>
        <time>2021-11-02T09:47:47Z</time>
      </trkpt>
      <trkpt lat="43.90642" lon="7.56202">
        <ele>1108.4671995402</ele>
        <time>2021-11-02T09:47:48Z</time>
      </trkpt>
      <trkpt lat="43.90642" lon="7.56203">
        <ele>1108.4671774845</ele>
        <time>2021-11-02T09:47:49Z</time>
      </trkpt>
      <trkpt lat="43.90643" lon="7.56203">
        <ele>1108.4671437535</ele>
        <time>2021-11-02T09:47:50Z</time>
      </trkpt>
      <trkpt lat="43.90644" lon="7.56204">
        <ele>1107.4671003975</ele>
        <time>2021-11-02T09:47:51Z</time>
      </trkpt>
      <trkpt lat="43.90645" lon="7.56204">
        <ele>1107.4670598379</ele>
        <time>2021-11-02T09:47:53Z</time>
      </trkpt>
      <trkpt lat="43.90646" lon="7.56205">
        <ele>1107.4670307935</ele>
        <time>2021-11-02T09:47:54Z</time>
      </trkpt>
      <trkpt lat="43.90647" lon="7.56205">
        <ele>1107.466988441</ele>
        <time>2021-11-02T09:47:55Z</time>
      </trkpt>
      <trkpt lat="43.90647" lon="7.56205">
        <ele>1108.4669666715</ele>
        <time>2021-11-02T09:47:56Z</time>
      </trkpt>
      <trkpt lat="43.90649" lon="7.56205">
        <ele>1107.4669060734</ele>
        <time>2021-11-02T09:47:58Z</time>
      </trkpt>
      <trkpt lat="43.90649" lon="7.56205">
        <ele>1108.466878869</ele>
        <time>2021-11-02T09:47:59Z</time>
      </trkpt>
      <trkpt lat="43.9065" lon="7.56206">
        <ele>1108.4668627524</ele>
        <time>2021-11-02T09:48:00Z</time>
      </trkpt>
      <trkpt lat="43.90651" lon="7.56206">
        <ele>1108.4668096717</ele>
        <time>2021-11-02T09:48:02Z</time>
      </trkpt>
      <trkpt lat="43.90651" lon="7.56207">
        <ele>1108.4667835482</ele>
        <time>2021-11-02T09:48:03Z</time>
      </trkpt>
      <trkpt lat="43.90652" lon="7.56207">
        <ele>1108.4667506427</ele>
        <time>2021-11-02T09:48:04Z</time>
      </trkpt>
      <trkpt lat="43.90653" lon="7.56207">
        <ele>1109.4667198054</ele>
        <time>2021-11-02T09:48:05Z</time>
      </trkpt>
      <trkpt lat="43.90654" lon="7.56207">
        <ele>1109.4666756391</ele>
        <time>2021-11-02T09:48:06Z</time>
      </trkpt>
      <trkpt lat="43.90656" lon="7.56208">
        <ele>1109.4665916267</ele>
        <time>2021-11-02T09:48:08Z</time>
      </trkpt>
      <trkpt lat="43.90657" lon="7.56208">
        <ele>1109.4665369942</ele>
        <time>2021-11-02T09:48:09Z</time>
      </trkpt>
      <trkpt lat="43.90658" lon="7.56209">
        <ele>1109.4665002868</ele>
        <time>2021-11-02T09:48:10Z</time>
      </trkpt>
      <trkpt lat="43.90658" lon="7.56208">
        <ele>1108.4664588971</ele>
        <time>2021-11-02T09:48:12Z</time>
      </trkpt>
      <trkpt lat="43.90661" lon="7.56209">
        <ele>1109.4663669547</ele>
        <time>2021-11-02T09:48:13Z</time>
      </trkpt>
      <trkpt lat="43.90661" lon="7.56209">
        <ele>1109.4663186997</ele>
        <time>2021-11-02T09:48:14Z</time>
      </trkpt>
      <trkpt lat="43.90662" lon="7.56209">
        <ele>1109.4662819499</ele>
        <time>2021-11-02T09:48:15Z</time>
      </trkpt>
      <trkpt lat="43.90663" lon="7.5621">
        <ele>1109.4662650212</ele>
        <time>2021-11-02T09:48:16Z</time>
      </trkpt>
      <trkpt lat="43.90664" lon="7.5621">
        <ele>1109.4661875595</ele>
        <time>2021-11-02T09:48:18Z</time>
      </trkpt>
      <trkpt lat="43.90665" lon="7.5621">
        <ele>1109.4661592243</ele>
        <time>2021-11-02T09:48:19Z</time>
      </trkpt>
      <trkpt lat="43.90666" lon="7.5621">
        <ele>1109.466126543</ele>
        <time>2021-11-02T09:48:20Z</time>
      </trkpt>
      <trkpt lat="43.90667" lon="7.5621">
        <ele>1109.466082334</ele>
        <time>2021-11-02T09:48:22Z</time>
      </trkpt>
      <trkpt lat="43.90667" lon="7.5621">
        <ele>1110.4660430195</ele>
        <time>2021-11-02T09:48:24Z</time>
      </trkpt>
      <trkpt lat="43.90668" lon="7.5621">
        <ele>1110.4660054826</ele>
        <time>2021-11-02T09:48:25Z</time>
      </trkpt>
      <trkpt lat="43.90669" lon="7.56211">
        <ele>1111.4659740711</ele>
        <time>2021-11-02T09:48:26Z</time>
      </trkpt>
      <trkpt lat="43.90671" lon="7.56212">
        <ele>1111.4658881574</ele>
        <time>2021-11-02T09:48:28Z</time>
      </trkpt>
      <trkpt lat="43.90672" lon="7.56212">
        <ele>1111.4658556188</ele>
        <time>2021-11-02T09:48:29Z</time>
      </trkpt>
      <trkpt lat="43.90672" lon="7.56213">
        <ele>1112.4658339485</ele>
        <time>2021-11-02T09:48:30Z</time>
      </trkpt>
      <trkpt lat="43.90674" lon="7.56214">
        <ele>1111.465760557</ele>
        <time>2021-11-02T09:48:33Z</time>
      </trkpt>
      <trkpt lat="43.90675" lon="7.56214">
        <ele>1111.4656997103</ele>
        <time>2021-11-02T09:48:34Z</time>
      </trkpt>
      <trkpt lat="43.90676" lon="7.56214">
        <ele>1111.4656695976</ele>
        <time>2021-11-02T09:48:35Z</time>
      </trkpt>
      <trkpt lat="43.90676" lon="7.56214">
        <ele>1111.465639104</ele>
        <time>2021-11-02T09:48:36Z</time>
      </trkpt>
      <trkpt lat="43.90678" lon="7.56213">
        <ele>1112.4655802385</ele>
        <time>2021-11-02T09:48:38Z</time>
      </trkpt>
      <trkpt lat="43.90678" lon="7.56213">
        <ele>1113.4655488981</ele>
        <time>2021-11-02T09:48:39Z</time>
      </trkpt>
      <trkpt lat="43.90679" lon="7.56213">
        <ele>1113.4655085553</ele>
        <time>2021-11-02T09:48:40Z</time>
      </trkpt>
      <trkpt lat="43.9068" lon="7.56214">
        <ele>1113.4654506601</ele>
        <time>2021-11-02T09:48:42Z</time>
      </trkpt>
      <trkpt lat="43.90681" lon="7.56214">
        <ele>1113.4654286532</ele>
        <time>2021-11-02T09:48:43Z</time>
      </trkpt>
      <trkpt lat="43.90682" lon="7.56215">
        <ele>1113.4653866958</ele>
        <time>2021-11-02T09:48:44Z</time>
      </trkpt>
      <trkpt lat="43.90683" lon="7.56215">
        <ele>1113.4653571889</ele>
        <time>2021-11-02T09:48:45Z</time>
      </trkpt>
      <trkpt lat="43.90683" lon="7.56215">
        <ele>1113.4653135137</ele>
        <time>2021-11-02T09:48:46Z</time>
      </trkpt>
      <trkpt lat="43.90684" lon="7.56216">
        <ele>1113.4652914885</ele>
        <time>2021-11-02T09:48:47Z</time>
      </trkpt>
      <trkpt lat="43.90684" lon="7.56215">
        <ele>1113.4652606949</ele>
        <time>2021-11-02T09:48:48Z</time>
      </trkpt>
      <trkpt lat="43.90685" lon="7.56215">
        <ele>1113.4652378896</ele>
        <time>2021-11-02T09:48:49Z</time>
      </trkpt>
      <trkpt lat="43.90686" lon="7.56215">
        <ele>1113.4652077822</ele>
        <time>2021-11-02T09:48:50Z</time>
      </trkpt>
      <trkpt lat="43.90686" lon="7.56215">
        <ele>1113.4651765134</ele>
        <time>2021-11-02T09:48:51Z</time>
      </trkpt>
      <trkpt lat="43.90687" lon="7.56215">
        <ele>1114.4651401668</ele>
        <time>2021-11-02T09:48:52Z</time>
      </trkpt>
      <trkpt lat="43.90688" lon="7.56216">
        <ele>1115.4651095084</ele>
        <time>2021-11-02T09:48:53Z</time>
      </trkpt>
      <trkpt lat="43.90688" lon="7.56216">
        <ele>1116.465084216</ele>
        <time>2021-11-02T09:48:54Z</time>
      </trkpt>
      <trkpt lat="43.90689" lon="7.56216">
        <ele>1117.4650487636</ele>
        <time>2021-11-02T09:48:56Z</time>
      </trkpt>
      <trkpt lat="43.90691" lon="7.56216">
        <ele>1116.4649659427</ele>
        <time>2021-11-02T09:48:57Z</time>
      </trkpt>
      <trkpt lat="43.90692" lon="7.56216">
        <ele>1116.4649168886</ele>
        <time>2021-11-02T09:48:59Z</time>
      </trkpt>
      <trkpt lat="43.90692" lon="7.56216">
        <ele>1116.4648988847</ele>
        <time>2021-11-02T09:49:00Z</time>
      </trkpt>
      <trkpt lat="43.90693" lon="7.56215">
        <ele>1116.464837532</ele>
        <time>2021-11-02T09:49:01Z</time>
      </trkpt>
      <trkpt lat="43.90694" lon="7.56215">
        <ele>1116.4647853886</ele>
        <time>2021-11-02T09:49:02Z</time>
      </trkpt>
      <trkpt lat="43.90694" lon="7.56215">
        <ele>1116.4647559523</ele>
        <time>2021-11-02T09:49:03Z</time>
      </trkpt>
      <trkpt lat="43.90695" lon="7.56215">
        <ele>1116.4647204863</ele>
        <time>2021-11-02T09:49:04Z</time>
      </trkpt>
      <trkpt lat="43.90696" lon="7.56215">
        <ele>1116.4646729479</ele>
        <time>2021-11-02T09:49:06Z</time>
      </trkpt>
      <trkpt lat="43.90698" lon="7.56215">
        <ele>1116.4645901315</ele>
        <time>2021-11-02T09:49:07Z</time>
      </trkpt>
      <trkpt lat="43.90699" lon="7.56215">
        <ele>1116.4645260496</ele>
        <time>2021-11-02T09:49:09Z</time>
      </trkpt>
      <trkpt lat="43.907" lon="7.56215">
        <ele>1117.4644831131</ele>
        <time>2021-11-02T09:49:10Z</time>
      </trkpt>
      <trkpt lat="43.90701" lon="7.56215">
        <ele>1117.464427672</ele>
        <time>2021-11-02T09:49:12Z</time>
      </trkpt>
      <trkpt lat="43.90702" lon="7.56215">
        <ele>1117.4643919104</ele>
        <time>2021-11-02T09:49:15Z</time>
      </trkpt>
      <trkpt lat="43.90704" lon="7.56218">
        <ele>1117.4643362827</ele>
        <time>2021-11-02T09:49:16Z</time>
      </trkpt>
      <trkpt lat="43.90705" lon="7.56219">
        <ele>1118.4642919369</ele>
        <time>2021-11-02T09:49:18Z</time>
      </trkpt>
      <trkpt lat="43.90706" lon="7.56219">
        <ele>1117.4642605949</ele>
        <time>2021-11-02T09:49:19Z</time>
      </trkpt>
      <trkpt lat="43.90706" lon="7.56219">
        <ele>1117.464214539</ele>
        <time>2021-11-02T09:49:20Z</time>
      </trkpt>
      <trkpt lat="43.90708" lon="7.56218">
        <ele>1117.4641352741</ele>
        <time>2021-11-02T09:49:21Z</time>
      </trkpt>
      <trkpt lat="43.90709" lon="7.56218">
        <ele>1117.4640604278</ele>
        <time>2021-11-02T09:49:23Z</time>
      </trkpt>
      <trkpt lat="43.9071" lon="7.56218">
        <ele>1117.4640235757</ele>
        <time>2021-11-02T09:49:24Z</time>
      </trkpt>
      <trkpt lat="43.90711" lon="7.56217">
        <ele>1117.4639648591</ele>
        <time>2021-11-02T09:49:25Z</time>
      </trkpt>
      <trkpt lat="43.90712" lon="7.56217">
        <ele>1118.463904299</ele>
        <time>2021-11-02T09:49:27Z</time>
      </trkpt>
      <trkpt lat="43.90713" lon="7.56216">
        <ele>1117.4638403969</ele>
        <time>2021-11-02T09:49:29Z</time>
      </trkpt>
      <trkpt lat="43.90714" lon="7.56217">
        <ele>1118.4638381724</ele>
        <time>2021-11-02T09:49:31Z</time>
      </trkpt>
      <trkpt lat="43.90714" lon="7.56219">
        <ele>1119.463821839</ele>
        <time>2021-11-02T09:49:33Z</time>
      </trkpt>
      <trkpt lat="43.90715" lon="7.56219">
        <ele>1118.4637674116</ele>
        <time>2021-11-02T09:49:34Z</time>
      </trkpt>
      <trkpt lat="43.90717" lon="7.56218">
        <ele>1118.4636937364</ele>
        <time>2021-11-02T09:49:35Z</time>
      </trkpt>
      <trkpt lat="43.90718" lon="7.56219">
        <ele>1118.4636168992</ele>
        <time>2021-11-02T09:49:37Z</time>
      </trkpt>
      <trkpt lat="43.90719" lon="7.5622">
        <ele>1117.4636046498</ele>
        <time>2021-11-02T09:49:39Z</time>
      </trkpt>
      <trkpt lat="43.9072" lon="7.56221">
        <ele>1118.4635870126</ele>
        <time>2021-11-02T09:49:41Z</time>
      </trkpt>
      <trkpt lat="43.9072" lon="7.56221">
        <ele>1118.4635696134</ele>
        <time>2021-11-02T09:49:50Z</time>
      </trkpt>
      <trkpt lat="43.90721" lon="7.56221">
        <ele>1118.4635052079</ele>
        <time>2021-11-02T09:49:51Z</time>
      </trkpt>
      <trkpt lat="43.90722" lon="7.5622">
        <ele>1118.4634507176</ele>
        <time>2021-11-02T09:49:52Z</time>
      </trkpt>
      <trkpt lat="43.90723" lon="7.5622">
        <ele>1117.4634080504</ele>
        <time>2021-11-02T09:49:54Z</time>
      </trkpt>
      <trkpt lat="43.90724" lon="7.5622">
        <ele>1117.4633570481</ele>
        <time>2021-11-02T09:49:55Z</time>
      </trkpt>
      <trkpt lat="43.90725" lon="7.56219">
        <ele>1117.4632959505</ele>
        <time>2021-11-02T09:49:56Z</time>
      </trkpt>
      <trkpt lat="43.90725" lon="7.56218">
        <ele>1117.4632729842</ele>
        <time>2021-11-02T09:50:03Z</time>
      </trkpt>
      <trkpt lat="43.90725" lon="7.56216">
        <ele>1119.4632520347</ele>
        <time>2021-11-02T09:50:04Z</time>
      </trkpt>
      <trkpt lat="43.90725" lon="7.56216">
        <ele>1119.4632258486</ele>
        <time>2021-11-02T09:50:09Z</time>
      </trkpt>
      <trkpt lat="43.90726" lon="7.56216">
        <ele>1119.4631939838</ele>
        <time>2021-11-02T09:50:10Z</time>
      </trkpt>
      <trkpt lat="43.90728" lon="7.56216">
        <ele>1118.4630988966</ele>
        <time>2021-11-02T09:50:12Z</time>
      </trkpt>
      <trkpt lat="43.90729" lon="7.56216">
        <ele>1117.4630659178</ele>
        <time>2021-11-02T09:50:15Z</time>
      </trkpt>
      <trkpt lat="43.90729" lon="7.56216">
        <ele>1117.463031802</ele>
        <time>2021-11-02T09:50:16Z</time>
      </trkpt>
      <trkpt lat="43.90731" lon="7.56217">
        <ele>1117.4629880574</ele>
        <time>2021-11-02T09:50:18Z</time>
      </trkpt>
      <trkpt lat="43.90731" lon="7.56217">
        <ele>1118.4629505811</ele>
        <time>2021-11-02T09:50:19Z</time>
      </trkpt>
      <trkpt lat="43.90732" lon="7.56218">
        <ele>1119.46290464</ele>
        <time>2021-11-02T09:50:20Z</time>
      </trkpt>
      <trkpt lat="43.90733" lon="7.56217">
        <ele>1119.4628617999</ele>
        <time>2021-11-02T09:50:22Z</time>
      </trkpt>
      <trkpt lat="43.90734" lon="7.56217">
        <ele>1117.4627949188</ele>
        <time>2021-11-02T09:50:24Z</time>
      </trkpt>
      <trkpt lat="43.90735" lon="7.56218">
        <ele>1117.462759645</ele>
        <time>2021-11-02T09:50:25Z</time>
      </trkpt>
      <trkpt lat="43.90737" lon="7.56218">
        <ele>1116.4627016191</ele>
        <time>2021-11-02T09:50:26Z</time>
      </trkpt>
      <trkpt lat="43.90737" lon="7.56219">
        <ele>1117.4626638702</ele>
        <time>2021-11-02T09:50:27Z</time>
      </trkpt>
      <trkpt lat="43.90738" lon="7.5622">
        <ele>1118.4626511434</ele>
        <time>2021-11-02T09:50:29Z</time>
      </trkpt>
      <trkpt lat="43.90738" lon="7.56219">
        <ele>1117.4626191058</ele>
        <time>2021-11-02T09:50:32Z</time>
      </trkpt>
      <trkpt lat="43.9074" lon="7.5622">
        <ele>1118.4625520922</ele>
        <time>2021-11-02T09:50:34Z</time>
      </trkpt>
      <trkpt lat="43.90741" lon="7.5622">
        <ele>1118.462527524</ele>
        <time>2021-11-02T09:50:35Z</time>
      </trkpt>
      <trkpt lat="43.90742" lon="7.5622">
        <ele>1119.4624736366</ele>
        <time>2021-11-02T09:50:36Z</time>
      </trkpt>
      <trkpt lat="43.90743" lon="7.5622">
        <ele>1120.4624202796</ele>
        <time>2021-11-02T09:50:37Z</time>
      </trkpt>
      <trkpt lat="43.90743" lon="7.56219">
        <ele>1120.4623957206</ele>
        <time>2021-11-02T09:50:38Z</time>
      </trkpt>
      <trkpt lat="43.90744" lon="7.56221">
        <ele>1120.4623454197</ele>
        <time>2021-11-02T09:50:40Z</time>
      </trkpt>
      <trkpt lat="43.90745" lon="7.56221">
        <ele>1121.4622963464</ele>
        <time>2021-11-02T09:50:41Z</time>
      </trkpt>
      <trkpt lat="43.90746" lon="7.56222">
        <ele>1120.4622981195</ele>
        <time>2021-11-02T09:50:42Z</time>
      </trkpt>
      <trkpt lat="43.90746" lon="7.56222">
        <ele>1119.4623112727</ele>
        <time>2021-11-02T09:50:52Z</time>
      </trkpt>
      <trkpt lat="43.90747" lon="7.56223">
        <ele>1119.4622341533</ele>
        <time>2021-11-02T09:50:53Z</time>
      </trkpt>
      <trkpt lat="43.90748" lon="7.56224">
        <ele>1120.4622011055</ele>
        <time>2021-11-02T09:50:54Z</time>
      </trkpt>
      <trkpt lat="43.90749" lon="7.56225">
        <ele>1120.4621828893</ele>
        <time>2021-11-02T09:50:55Z</time>
      </trkpt>
      <trkpt lat="43.9075" lon="7.56226">
        <ele>1121.4621279962</ele>
        <time>2021-11-02T09:50:57Z</time>
      </trkpt>
      <trkpt lat="43.90751" lon="7.56227">
        <ele>1121.4621116002</ele>
        <time>2021-11-02T09:50:58Z</time>
      </trkpt>
      <trkpt lat="43.90752" lon="7.56227">
        <ele>1121.46208164</ele>
        <time>2021-11-02T09:50:59Z</time>
      </trkpt>
      <trkpt lat="43.90752" lon="7.56228">
        <ele>1121.4620764987</ele>
        <time>2021-11-02T09:51:00Z</time>
      </trkpt>
      <trkpt lat="43.90752" lon="7.56229">
        <ele>1122.4620825868</ele>
        <time>2021-11-02T09:51:02Z</time>
      </trkpt>
      <trkpt lat="43.90753" lon="7.56229">
        <ele>1122.4620279049</ele>
        <time>2021-11-02T09:51:04Z</time>
      </trkpt>
      <trkpt lat="43.90754" lon="7.56229">
        <ele>1122.4619859213</ele>
        <time>2021-11-02T09:51:05Z</time>
      </trkpt>
      <trkpt lat="43.90755" lon="7.56229">
        <ele>1122.4619603872</ele>
        <time>2021-11-02T09:51:08Z</time>
      </trkpt>
      <trkpt lat="43.90755" lon="7.5623">
        <ele>1122.4619338993</ele>
        <time>2021-11-02T09:51:10Z</time>
      </trkpt>
      <trkpt lat="43.90756" lon="7.56229">
        <ele>1122.4619119759</ele>
        <time>2021-11-02T09:51:31Z</time>
      </trkpt>
      <trkpt lat="43.90757" lon="7.5623">
        <ele>1122.4618701312</ele>
        <time>2021-11-02T09:51:33Z</time>
      </trkpt>
      <trkpt lat="43.90757" lon="7.56229">
        <ele>1122.4618443643</ele>
        <time>2021-11-02T09:51:35Z</time>
      </trkpt>
      <trkpt lat="43.90758" lon="7.56229">
        <ele>1122.4618063452</ele>
        <time>2021-11-02T09:51:36Z</time>
      </trkpt>
      <trkpt lat="43.90758" lon="7.56229">
        <ele>1121.461767477</ele>
        <time>2021-11-02T09:51:37Z</time>
      </trkpt>
      <trkpt lat="43.90759" lon="7.56228">
        <ele>1120.4617188186</ele>
        <time>2021-11-02T09:51:39Z</time>
      </trkpt>
      <trkpt lat="43.9076" lon="7.56228">
        <ele>1121.461689896</ele>
        <time>2021-11-02T09:51:40Z</time>
      </trkpt>
      <trkpt lat="43.9076" lon="7.56227">
        <ele>1121.4616654738</ele>
        <time>2021-11-02T09:51:41Z</time>
      </trkpt>
      <trkpt lat="43.90761" lon="7.56228">
        <ele>1121.4616298592</ele>
        <time>2021-11-02T09:51:44Z</time>
      </trkpt>
      <trkpt lat="43.90762" lon="7.56227">
        <ele>1121.4615541713</ele>
        <time>2021-11-02T09:51:46Z</time>
      </trkpt>
      <trkpt lat="43.90763" lon="7.56227">
        <ele>1121.4615029115</ele>
        <time>2021-11-02T09:51:47Z</time>
      </trkpt>
      <trkpt lat="43.90763" lon="7.56227">
        <ele>1119.4615220212</ele>
        <time>2021-11-02T09:52:11Z</time>
      </trkpt>
      <trkpt lat="43.90762" lon="7.56226">
        <ele>1120.4615246387</ele>
        <time>2021-11-02T09:52:46Z</time>
      </trkpt>
      <trkpt lat="43.90761" lon="7.56225">
        <ele>1120.4615721196</ele>
        <time>2021-11-02T09:52:47Z</time>
      </trkpt>
      <trkpt lat="43.90762" lon="7.56225">
        <ele>1120.4615333592</ele>
        <time>2021-11-02T09:53:26Z</time>
      </trkpt>
      <trkpt lat="43.90763" lon="7.56226">
        <ele>1120.4615091286</ele>
        <time>2021-11-02T09:53:33Z</time>
      </trkpt>
      <trkpt lat="43.90761" lon="7.56225">
        <ele>1119.4615839312</ele>
        <time>2021-11-02T09:53:34Z</time>
      </trkpt>
      <trkpt lat="43.9076" lon="7.56225">
        <ele>1119.4616192652</ele>
        <time>2021-11-02T09:53:36Z</time>
      </trkpt>
      <trkpt lat="43.9076" lon="7.56225">
        <ele>1118.4616517359</ele>
        <time>2021-11-02T09:53:42Z</time>
      </trkpt>
      <trkpt lat="43.90759" lon="7.56226">
        <ele>1118.4616812468</ele>
        <time>2021-11-02T09:53:51Z</time>
      </trkpt>
      <trkpt lat="43.90761" lon="7.56227">
        <ele>1119.4616286853</ele>
        <time>2021-11-02T09:53:52Z</time>
      </trkpt>
      <trkpt lat="43.90761" lon="7.56227">
        <ele>1119.461592671</ele>
        <time>2021-11-02T09:53:54Z</time>
      </trkpt>
      <trkpt lat="43.90762" lon="7.56226">
        <ele>1119.4615732027</ele>
        <time>2021-11-02T09:53:55Z</time>
      </trkpt>
      <trkpt lat="43.90762" lon="7.56226">
        <ele>1119.4615201788</ele>
        <time>2021-11-02T09:53:57Z</time>
      </trkpt>
      <trkpt lat="43.90764" lon="7.56225">
        <ele>1118.4614439417</ele>
        <time>2021-11-02T09:53:58Z</time>
      </trkpt>
      <trkpt lat="43.90765" lon="7.56225">
        <ele>1118.4613949645</ele>
        <time>2021-11-02T09:54:00Z</time>
      </trkpt>
      <trkpt lat="43.90765" lon="7.56225">
        <ele>1119.4613664007</ele>
        <time>2021-11-02T09:54:01Z</time>
      </trkpt>
      <trkpt lat="43.90766" lon="7.56225">
        <ele>1119.4613320001</ele>
        <time>2021-11-02T09:54:04Z</time>
      </trkpt>
      <trkpt lat="43.90768" lon="7.56224">
        <ele>1119.4612039413</ele>
        <time>2021-11-02T09:54:05Z</time>
      </trkpt>
      <trkpt lat="43.90769" lon="7.56223">
        <ele>1118.4611527222</ele>
        <time>2021-11-02T09:54:06Z</time>
      </trkpt>
      <trkpt lat="43.9077" lon="7.56223">
        <ele>1119.4611078111</ele>
        <time>2021-11-02T09:54:07Z</time>
      </trkpt>
      <trkpt lat="43.90771" lon="7.56222">
        <ele>1119.4610597906</ele>
        <time>2021-11-02T09:54:08Z</time>
      </trkpt>
      <trkpt lat="43.90772" lon="7.56222">
        <ele>1120.4610170806</ele>
        <time>2021-11-02T09:54:10Z</time>
      </trkpt>
      <trkpt lat="43.90773" lon="7.56222">
        <ele>1120.4609223326</ele>
        <time>2021-11-02T09:54:11Z</time>
      </trkpt>
      <trkpt lat="43.90774" lon="7.56222">
        <ele>1121.4608811086</ele>
        <time>2021-11-02T09:54:12Z</time>
      </trkpt>
      <trkpt lat="43.90775" lon="7.56222">
        <ele>1120.4608517505</ele>
        <time>2021-11-02T09:54:13Z</time>
      </trkpt>
      <trkpt lat="43.90776" lon="7.56223">
        <ele>1122.4608221448</ele>
        <time>2021-11-02T09:54:15Z</time>
      </trkpt>
      <trkpt lat="43.90776" lon="7.56222">
        <ele>1123.4607824239</ele>
        <time>2021-11-02T09:54:30Z</time>
      </trkpt>
      <trkpt lat="43.90777" lon="7.56222">
        <ele>1124.4607440928</ele>
        <time>2021-11-02T09:54:31Z</time>
      </trkpt>
      <trkpt lat="43.90778" lon="7.56221">
        <ele>1124.4606833136</ele>
        <time>2021-11-02T09:54:32Z</time>
      </trkpt>
      <trkpt lat="43.90778" lon="7.56221">
        <ele>1124.4606594196</ele>
        <time>2021-11-02T09:54:34Z</time>
      </trkpt>
      <trkpt lat="43.90779" lon="7.56221">
        <ele>1124.4606079587</ele>
        <time>2021-11-02T09:54:35Z</time>
      </trkpt>
      <trkpt lat="43.9078" lon="7.56221">
        <ele>1124.4605907112</ele>
        <time>2021-11-02T09:54:37Z</time>
      </trkpt>
      <trkpt lat="43.90781" lon="7.56222">
        <ele>1124.4605491995</ele>
        <time>2021-11-02T09:54:39Z</time>
      </trkpt>
      <trkpt lat="43.90781" lon="7.56222">
        <ele>1124.4605201133</ele>
        <time>2021-11-02T09:54:41Z</time>
      </trkpt>
      <trkpt lat="43.90782" lon="7.56222">
        <ele>1123.4604912055</ele>
        <time>2021-11-02T09:54:42Z</time>
      </trkpt>
      <trkpt lat="43.90782" lon="7.56221">
        <ele>1124.4604769489</ele>
        <time>2021-11-02T09:54:46Z</time>
      </trkpt>
      <trkpt lat="43.90783" lon="7.5622">
        <ele>1123.4604122994</ele>
        <time>2021-11-02T09:54:48Z</time>
      </trkpt>
      <trkpt lat="43.90784" lon="7.56221">
        <ele>1124.4603803385</ele>
        <time>2021-11-02T09:54:50Z</time>
      </trkpt>
      <trkpt lat="43.90784" lon="7.56222">
        <ele>1125.4603781085</ele>
        <time>2021-11-02T09:55:07Z</time>
      </trkpt>
      <trkpt lat="43.90785" lon="7.56221">
        <ele>1124.4603377894</ele>
        <time>2021-11-02T09:55:09Z</time>
      </trkpt>
      <trkpt lat="43.90785" lon="7.5622">
        <ele>1123.4603025059</ele>
        <time>2021-11-02T09:55:11Z</time>
      </trkpt>
      <trkpt lat="43.90786" lon="7.5622">
        <ele>1123.4602785923</ele>
        <time>2021-11-02T09:55:12Z</time>
      </trkpt>
      <trkpt lat="43.90786" lon="7.5622">
        <ele>1122.4602364002</ele>
        <time>2021-11-02T09:55:13Z</time>
      </trkpt>
      <trkpt lat="43.90787" lon="7.5622">
        <ele>1122.4602007082</ele>
        <time>2021-11-02T09:55:14Z</time>
      </trkpt>
      <trkpt lat="43.90788" lon="7.5622">
        <ele>1122.4601649271</ele>
        <time>2021-11-02T09:55:15Z</time>
      </trkpt>
      <trkpt lat="43.90789" lon="7.5622">
        <ele>1123.4601352235</ele>
        <time>2021-11-02T09:55:17Z</time>
      </trkpt>
      <trkpt lat="43.90789" lon="7.5622">
        <ele>1123.4601052502</ele>
        <time>2021-11-02T09:55:20Z</time>
      </trkpt>
      <trkpt lat="43.9079" lon="7.5622">
        <ele>1123.4600776207</ele>
        <time>2021-11-02T09:55:21Z</time>
      </trkpt>
      <trkpt lat="43.9079" lon="7.5622">
        <ele>1123.4600501966</ele>
        <time>2021-11-02T09:55:29Z</time>
      </trkpt>
      <trkpt lat="43.9079" lon="7.5622">
        <ele>1127.4600460138</ele>
        <time>2021-11-02T09:55:47Z</time>
      </trkpt>
      <trkpt lat="43.90788" lon="7.56218">
        <ele>1126.4601584613</ele>
        <time>2021-11-02T09:55:49Z</time>
      </trkpt>
      <trkpt lat="43.90787" lon="7.56218">
        <ele>1127.4601970575</ele>
        <time>2021-11-02T09:55:50Z</time>
      </trkpt>
      <trkpt lat="43.90786" lon="7.56218">
        <ele>1126.4602334013</ele>
        <time>2021-11-02T09:55:51Z</time>
      </trkpt>
      <trkpt lat="43.90785" lon="7.56218">
        <ele>1126.4602989723</ele>
        <time>2021-11-02T09:55:52Z</time>
      </trkpt>
      <trkpt lat="43.90784" lon="7.56217">
        <ele>1127.4603056239</ele>
        <time>2021-11-02T09:55:55Z</time>
      </trkpt>
      <trkpt lat="43.90783" lon="7.56215">
        <ele>1127.4603180687</ele>
        <time>2021-11-02T09:55:56Z</time>
      </trkpt>
      <trkpt lat="43.90783" lon="7.56214">
        <ele>1127.4603319359</ele>
        <time>2021-11-02T09:55:57Z</time>
      </trkpt>
      <trkpt lat="43.90782" lon="7.56214">
        <ele>1127.4603597228</ele>
        <time>2021-11-02T09:55:59Z</time>
      </trkpt>
      <trkpt lat="43.90781" lon="7.56212">
        <ele>1127.4604163167</ele>
        <time>2021-11-02T09:56:00Z</time>
      </trkpt>
      <trkpt lat="43.9078" lon="7.56212">
        <ele>1127.4604475109</ele>
        <time>2021-11-02T09:56:03Z</time>
      </trkpt>
      <trkpt lat="43.90778" lon="7.56211">
        <ele>1128.4605084531</ele>
        <time>2021-11-02T09:56:04Z</time>
      </trkpt>
      <trkpt lat="43.90778" lon="7.5621">
        <ele>1128.4605191349</ele>
        <time>2021-11-02T09:56:05Z</time>
      </trkpt>
      <trkpt lat="43.90779" lon="7.56211">
        <ele>1127.4604912156</ele>
        <time>2021-11-02T09:56:08Z</time>
      </trkpt>
      <trkpt lat="43.90779" lon="7.56211">
        <ele>1126.4604683554</ele>
        <time>2021-11-02T09:56:09Z</time>
      </trkpt>
      <trkpt lat="43.9078" lon="7.56212">
        <ele>1127.4604328701</ele>
        <time>2021-11-02T09:56:10Z</time>
      </trkpt>
      <trkpt lat="43.9078" lon="7.56212">
        <ele>1127.4604209868</ele>
        <time>2021-11-02T09:56:11Z</time>
      </trkpt>
      <trkpt lat="43.90781" lon="7.56213">
        <ele>1127.4603935004</ele>
        <time>2021-11-02T09:56:13Z</time>
      </trkpt>
      <trkpt lat="43.90782" lon="7.56213">
        <ele>1129.4603640446</ele>
        <time>2021-11-02T09:56:33Z</time>
      </trkpt>
      <trkpt lat="43.90782" lon="7.56212">
        <ele>1128.4603493829</ele>
        <time>2021-11-02T09:56:35Z</time>
      </trkpt>
      <trkpt lat="43.90781" lon="7.5621">
        <ele>1127.4603693191</ele>
        <time>2021-11-02T09:56:36Z</time>
      </trkpt>
      <trkpt lat="43.9078" lon="7.56208">
        <ele>1126.4603749361</ele>
        <time>2021-11-02T09:56:38Z</time>
      </trkpt>
      <trkpt lat="43.90779" lon="7.56206">
        <ele>1126.4604097579</ele>
        <time>2021-11-02T09:56:40Z</time>
      </trkpt>
      <trkpt lat="43.90778" lon="7.56205">
        <ele>1125.4604187228</ele>
        <time>2021-11-02T09:56:41Z</time>
      </trkpt>
      <trkpt lat="43.90777" lon="7.56203">
        <ele>1127.460454456</ele>
        <time>2021-11-02T09:56:44Z</time>
      </trkpt>
      <trkpt lat="43.90777" lon="7.56201">
        <ele>1127.4604428515</ele>
        <time>2021-11-02T09:56:45Z</time>
      </trkpt>
      <trkpt lat="43.90778" lon="7.562">
        <ele>1127.4603622214</ele>
        <time>2021-11-02T09:56:46Z</time>
      </trkpt>
      <trkpt lat="43.90779" lon="7.562">
        <ele>1126.4603158308</ele>
        <time>2021-11-02T09:56:48Z</time>
      </trkpt>
      <trkpt lat="43.9078" lon="7.562">
        <ele>1127.4602548534</ele>
        <time>2021-11-02T09:56:50Z</time>
      </trkpt>
      <trkpt lat="43.9078" lon="7.56199">
        <ele>1127.4602620579</ele>
        <time>2021-11-02T09:56:52Z</time>
      </trkpt>
      <trkpt lat="43.90781" lon="7.56197">
        <ele>1128.4601893283</ele>
        <time>2021-11-02T09:56:54Z</time>
      </trkpt>
      <trkpt lat="43.90781" lon="7.56196">
        <ele>1128.4601476862</ele>
        <time>2021-11-02T09:56:55Z</time>
      </trkpt>
      <trkpt lat="43.90781" lon="7.56195">
        <ele>1129.4601357698</ele>
        <time>2021-11-02T09:56:56Z</time>
      </trkpt>
      <trkpt lat="43.90783" lon="7.56194">
        <ele>1129.4600473039</ele>
        <time>2021-11-02T09:56:58Z</time>
      </trkpt>
      <trkpt lat="43.90784" lon="7.56193">
        <ele>1130.4599876045</ele>
        <time>2021-11-02T09:57:00Z</time>
      </trkpt>
      <trkpt lat="43.90784" lon="7.56194">
        <ele>1130.4599561532</ele>
        <time>2021-11-02T09:57:01Z</time>
      </trkpt>
      <trkpt lat="43.90785" lon="7.56193">
        <ele>1130.4598988515</ele>
        <time>2021-11-02T09:57:02Z</time>
      </trkpt>
      <trkpt lat="43.90786" lon="7.56193">
        <ele>1130.4598411984</ele>
        <time>2021-11-02T09:57:04Z</time>
      </trkpt>
      <trkpt lat="43.90786" lon="7.56191">
        <ele>1130.4598190241</ele>
        <time>2021-11-02T09:57:05Z</time>
      </trkpt>
      <trkpt lat="43.90786" lon="7.56191">
        <ele>1130.4598060776</ele>
        <time>2021-11-02T09:57:06Z</time>
      </trkpt>
      <trkpt lat="43.90786" lon="7.5619">
        <ele>1130.4597993208</ele>
        <time>2021-11-02T09:57:08Z</time>
      </trkpt>
      <trkpt lat="43.90787" lon="7.56189">
        <ele>1130.4597647096</ele>
        <time>2021-11-02T09:57:09Z</time>
      </trkpt>
      <trkpt lat="43.90787" lon="7.5619">
        <ele>1131.4597563984</ele>
        <time>2021-11-02T09:57:10Z</time>
      </trkpt>
      <trkpt lat="43.90788" lon="7.56191">
        <ele>1131.4597229124</ele>
        <time>2021-11-02T09:57:12Z</time>
      </trkpt>
      <trkpt lat="43.90789" lon="7.56192">
        <ele>1130.4597150998</ele>
        <time>2021-11-02T09:57:13Z</time>
      </trkpt>
      <trkpt lat="43.9079" lon="7.56193">
        <ele>1131.459659151</ele>
        <time>2021-11-02T09:57:15Z</time>
      </trkpt>
      <trkpt lat="43.90791" lon="7.56193">
        <ele>1132.459607774</ele>
        <time>2021-11-02T09:57:16Z</time>
      </trkpt>
      <trkpt lat="43.90792" lon="7.56194">
        <ele>1132.459564877</ele>
        <time>2021-11-02T09:57:17Z</time>
      </trkpt>
      <trkpt lat="43.90793" lon="7.56195">
        <ele>1132.4595312296</ele>
        <time>2021-11-02T09:57:18Z</time>
      </trkpt>
      <trkpt lat="43.90795" lon="7.56195">
        <ele>1133.4594661627</ele>
        <time>2021-11-02T09:57:20Z</time>
      </trkpt>
      <trkpt lat="43.90795" lon="7.56196">
        <ele>1133.4594350527</ele>
        <time>2021-11-02T09:57:22Z</time>
      </trkpt>
      <trkpt lat="43.90796" lon="7.56197">
        <ele>1135.4594076888</ele>
        <time>2021-11-02T09:57:24Z</time>
      </trkpt>
      <trkpt lat="43.90796" lon="7.56196">
        <ele>1135.4593788784</ele>
        <time>2021-11-02T09:57:27Z</time>
      </trkpt>
      <trkpt lat="43.90797" lon="7.56196">
        <ele>1135.4593562239</ele>
        <time>2021-11-02T09:57:30Z</time>
      </trkpt>
      <trkpt lat="43.90798" lon="7.56196">
        <ele>1135.4593073288</ele>
        <time>2021-11-02T09:57:31Z</time>
      </trkpt>
      <trkpt lat="43.90799" lon="7.56197">
        <ele>1135.4592904415</ele>
        <time>2021-11-02T09:57:32Z</time>
      </trkpt>
      <trkpt lat="43.90799" lon="7.56198">
        <ele>1136.459282049</ele>
        <time>2021-11-02T09:57:34Z</time>
      </trkpt>
      <trkpt lat="43.908" lon="7.56199">
        <ele>1136.4592593023</ele>
        <time>2021-11-02T09:57:35Z</time>
      </trkpt>
      <trkpt lat="43.90801" lon="7.56199">
        <ele>1137.4592191996</ele>
        <time>2021-11-02T09:57:36Z</time>
      </trkpt>
      <trkpt lat="43.90802" lon="7.562">
        <ele>1137.4591805062</ele>
        <time>2021-11-02T09:57:37Z</time>
      </trkpt>
      <trkpt lat="43.90802" lon="7.562">
        <ele>1137.4591488164</ele>
        <time>2021-11-02T09:57:38Z</time>
      </trkpt>
      <trkpt lat="43.90803" lon="7.56201">
        <ele>1138.4591218746</ele>
        <time>2021-11-02T09:57:39Z</time>
      </trkpt>
      <trkpt lat="43.90804" lon="7.562">
        <ele>1138.4590681016</ele>
        <time>2021-11-02T09:57:40Z</time>
      </trkpt>
      <trkpt lat="43.90805" lon="7.56201">
        <ele>1139.459023234</ele>
        <time>2021-11-02T09:57:41Z</time>
      </trkpt>
      <trkpt lat="43.90806" lon="7.56201">
        <ele>1139.4589779948</ele>
        <time>2021-11-02T09:57:42Z</time>
      </trkpt>
      <trkpt lat="43.90809" lon="7.56201">
        <ele>1140.4588307382</ele>
        <time>2021-11-02T09:57:44Z</time>
      </trkpt>
      <trkpt lat="43.9081" lon="7.56201">
        <ele>1140.4587650552</ele>
        <time>2021-11-02T09:57:45Z</time>
      </trkpt>
      <trkpt lat="43.90811" lon="7.56201">
        <ele>1140.4587207952</ele>
        <time>2021-11-02T09:57:46Z</time>
      </trkpt>
      <trkpt lat="43.90812" lon="7.56201">
        <ele>1141.4586776599</ele>
        <time>2021-11-02T09:57:48Z</time>
      </trkpt>
      <trkpt lat="43.90813" lon="7.562">
        <ele>1141.4586348467</ele>
        <time>2021-11-02T09:57:50Z</time>
      </trkpt>
      <trkpt lat="43.90813" lon="7.562">
        <ele>1141.4585955032</ele>
        <time>2021-11-02T09:57:51Z</time>
      </trkpt>
      <trkpt lat="43.90814" lon="7.562">
        <ele>1141.4585680518</ele>
        <time>2021-11-02T09:57:52Z</time>
      </trkpt>
      <trkpt lat="43.90816" lon="7.56202">
        <ele>1141.4584921087</ele>
        <time>2021-11-02T09:57:54Z</time>
      </trkpt>
      <trkpt lat="43.90816" lon="7.56202">
        <ele>1142.4584791637</ele>
        <time>2021-11-02T09:57:55Z</time>
      </trkpt>
      <trkpt lat="43.90817" lon="7.56202">
        <ele>1142.4584452748</ele>
        <time>2021-11-02T09:57:56Z</time>
      </trkpt>
      <trkpt lat="43.90818" lon="7.56203">
        <ele>1142.4584087264</ele>
        <time>2021-11-02T09:57:57Z</time>
      </trkpt>
      <trkpt lat="43.90819" lon="7.56204">
        <ele>1142.4583731982</ele>
        <time>2021-11-02T09:57:58Z</time>
      </trkpt>
      <trkpt lat="43.9082" lon="7.56205">
        <ele>1143.458317889</ele>
        <time>2021-11-02T09:58:00Z</time>
      </trkpt>
      <trkpt lat="43.90821" lon="7.56205">
        <ele>1144.4582771731</ele>
        <time>2021-11-02T09:58:01Z</time>
      </trkpt>
      <trkpt lat="43.90822" lon="7.56206">
        <ele>1144.4582547471</ele>
        <time>2021-11-02T09:58:02Z</time>
      </trkpt>
      <trkpt lat="43.90823" lon="7.56208">
        <ele>1144.458218455</ele>
        <time>2021-11-02T09:58:04Z</time>
      </trkpt>
      <trkpt lat="43.90824" lon="7.56209">
        <ele>1144.4581894019</ele>
        <time>2021-11-02T09:58:05Z</time>
      </trkpt>
      <trkpt lat="43.90825" lon="7.56209">
        <ele>1144.458136295</ele>
        <time>2021-11-02T09:58:06Z</time>
      </trkpt>
      <trkpt lat="43.90827" lon="7.56209">
        <ele>1145.4580428016</ele>
        <time>2021-11-02T09:58:08Z</time>
      </trkpt>
      <trkpt lat="43.90828" lon="7.56209">
        <ele>1144.4579892441</ele>
        <time>2021-11-02T09:58:10Z</time>
      </trkpt>
      <trkpt lat="43.90829" lon="7.5621">
        <ele>1144.4579750557</ele>
        <time>2021-11-02T09:58:11Z</time>
      </trkpt>
      <trkpt lat="43.90829" lon="7.56211">
        <ele>1144.4579521996</ele>
        <time>2021-11-02T09:58:12Z</time>
      </trkpt>
      <trkpt lat="43.9083" lon="7.56213">
        <ele>1144.457938448</ele>
        <time>2021-11-02T09:58:14Z</time>
      </trkpt>
      <trkpt lat="43.90831" lon="7.56213">
        <ele>1145.4579070062</ele>
        <time>2021-11-02T09:58:15Z</time>
      </trkpt>
      <trkpt lat="43.90832" lon="7.56214">
        <ele>1145.4578618673</ele>
        <time>2021-11-02T09:58:16Z</time>
      </trkpt>
      <trkpt lat="43.90834" lon="7.56215">
        <ele>1145.4577927114</ele>
        <time>2021-11-02T09:58:18Z</time>
      </trkpt>
      <trkpt lat="43.90835" lon="7.56216">
        <ele>1145.4577686723</ele>
        <time>2021-11-02T09:58:20Z</time>
      </trkpt>
      <trkpt lat="43.90835" lon="7.56217">
        <ele>1145.4577430936</ele>
        <time>2021-11-02T09:58:21Z</time>
      </trkpt>
      <trkpt lat="43.90836" lon="7.56217">
        <ele>1145.4577286673</ele>
        <time>2021-11-02T09:58:23Z</time>
      </trkpt>
      <trkpt lat="43.90837" lon="7.56218">
        <ele>1146.4576670039</ele>
        <time>2021-11-02T09:58:24Z</time>
      </trkpt>
      <trkpt lat="43.90838" lon="7.56219">
        <ele>1146.457648496</ele>
        <time>2021-11-02T09:58:25Z</time>
      </trkpt>
      <trkpt lat="43.90839" lon="7.5622">
        <ele>1146.4576302687</ele>
        <time>2021-11-02T09:58:26Z</time>
      </trkpt>
      <trkpt lat="43.90839" lon="7.56222">
        <ele>1148.457621324</ele>
        <time>2021-11-02T09:58:28Z</time>
      </trkpt>
      <trkpt lat="43.9084" lon="7.56224">
        <ele>1148.4576069767</ele>
        <time>2021-11-02T09:58:30Z</time>
      </trkpt>
      <trkpt lat="43.90841" lon="7.56225">
        <ele>1148.4575851515</ele>
        <time>2021-11-02T09:58:31Z</time>
      </trkpt>
      <trkpt lat="43.90841" lon="7.56226">
        <ele>1148.4575811883</ele>
        <time>2021-11-02T09:58:32Z</time>
      </trkpt>
      <trkpt lat="43.90842" lon="7.56227">
        <ele>1148.4575735503</ele>
        <time>2021-11-02T09:58:33Z</time>
      </trkpt>
      <trkpt lat="43.90843" lon="7.56228">
        <ele>1149.4575505381</ele>
        <time>2021-11-02T09:58:34Z</time>
      </trkpt>
      <trkpt lat="43.90843" lon="7.56229">
        <ele>1150.4575420595</ele>
        <time>2021-11-02T09:58:35Z</time>
      </trkpt>
      <trkpt lat="43.90844" lon="7.5623">
        <ele>1150.457529911</ele>
        <time>2021-11-02T09:58:36Z</time>
      </trkpt>
      <trkpt lat="43.90844" lon="7.56231">
        <ele>1150.4575056509</ele>
        <time>2021-11-02T09:58:37Z</time>
      </trkpt>
      <trkpt lat="43.90845" lon="7.56231">
        <ele>1149.4574893173</ele>
        <time>2021-11-02T09:58:38Z</time>
      </trkpt>
      <trkpt lat="43.90845" lon="7.56232">
        <ele>1149.4574760597</ele>
        <time>2021-11-02T09:58:39Z</time>
      </trkpt>
      <trkpt lat="43.90846" lon="7.56233">
        <ele>1149.4574521125</ele>
        <time>2021-11-02T09:58:40Z</time>
      </trkpt>
      <trkpt lat="43.90846" lon="7.56234">
        <ele>1149.4574441457</ele>
        <time>2021-11-02T09:58:41Z</time>
      </trkpt>
      <trkpt lat="43.90847" lon="7.56235">
        <ele>1148.4574155209</ele>
        <time>2021-11-02T09:58:43Z</time>
      </trkpt>
      <trkpt lat="43.90848" lon="7.56236">
        <ele>1149.4574122613</ele>
        <time>2021-11-02T09:58:44Z</time>
      </trkpt>
      <trkpt lat="43.90848" lon="7.56236">
        <ele>1149.4574033899</ele>
        <time>2021-11-02T09:58:45Z</time>
      </trkpt>
      <trkpt lat="43.90849" lon="7.56236">
        <ele>1148.457368331</ele>
        <time>2021-11-02T09:58:46Z</time>
      </trkpt>
      <trkpt lat="43.9085" lon="7.56236">
        <ele>1148.4573139616</ele>
        <time>2021-11-02T09:58:48Z</time>
      </trkpt>
      <trkpt lat="43.90851" lon="7.56237">
        <ele>1148.4572794597</ele>
        <time>2021-11-02T09:58:50Z</time>
      </trkpt>
      <trkpt lat="43.90851" lon="7.56238">
        <ele>1148.4572571527</ele>
        <time>2021-11-02T09:58:51Z</time>
      </trkpt>
      <trkpt lat="43.90852" lon="7.56239">
        <ele>1148.4572565213</ele>
        <time>2021-11-02T09:58:52Z</time>
      </trkpt>
      <trkpt lat="43.90853" lon="7.5624">
        <ele>1146.4572179001</ele>
        <time>2021-11-02T09:58:54Z</time>
      </trkpt>
      <trkpt lat="43.90854" lon="7.56241">
        <ele>1146.4571760559</ele>
        <time>2021-11-02T09:58:55Z</time>
      </trkpt>
      <trkpt lat="43.90854" lon="7.56241">
        <ele>1146.457162916</ele>
        <time>2021-11-02T09:58:56Z</time>
      </trkpt>
      <trkpt lat="43.90855" lon="7.56242">
        <ele>1147.4571353829</ele>
        <time>2021-11-02T09:58:58Z</time>
      </trkpt>
      <trkpt lat="43.90856" lon="7.56242">
        <ele>1147.4570890027</ele>
        <time>2021-11-02T09:59:00Z</time>
      </trkpt>
      <trkpt lat="43.90856" lon="7.56241">
        <ele>1146.4570583608</ele>
        <time>2021-11-02T09:59:01Z</time>
      </trkpt>
      <trkpt lat="43.90857" lon="7.56242">
        <ele>1146.4570161714</ele>
        <time>2021-11-02T09:59:03Z</time>
      </trkpt>
      <trkpt lat="43.90859" lon="7.56242">
        <ele>1146.4569314951</ele>
        <time>2021-11-02T09:59:05Z</time>
      </trkpt>
      <trkpt lat="43.9086" lon="7.56242">
        <ele>1146.4568845265</ele>
        <time>2021-11-02T09:59:06Z</time>
      </trkpt>
      <trkpt lat="43.9086" lon="7.56242">
        <ele>1146.4568673724</ele>
        <time>2021-11-02T09:59:07Z</time>
      </trkpt>
      <trkpt lat="43.90861" lon="7.56243">
        <ele>1147.4568323705</ele>
        <time>2021-11-02T09:59:09Z</time>
      </trkpt>
      <trkpt lat="43.90862" lon="7.56244">
        <ele>1148.4567955022</ele>
        <time>2021-11-02T09:59:10Z</time>
      </trkpt>
      <trkpt lat="43.90862" lon="7.56244">
        <ele>1148.4567894618</ele>
        <time>2021-11-02T09:59:13Z</time>
      </trkpt>
      <trkpt lat="43.90863" lon="7.56242">
        <ele>1148.4567384856</ele>
        <time>2021-11-02T09:59:15Z</time>
      </trkpt>
      <trkpt lat="43.90864" lon="7.56242">
        <ele>1148.4566953059</ele>
        <time>2021-11-02T09:59:16Z</time>
      </trkpt>
      <trkpt lat="43.90865" lon="7.56242">
        <ele>1148.4566275019</ele>
        <time>2021-11-02T09:59:17Z</time>
      </trkpt>
      <trkpt lat="43.90865" lon="7.56241">
        <ele>1147.4566267998</ele>
        <time>2021-11-02T09:59:19Z</time>
      </trkpt>
      <trkpt lat="43.90866" lon="7.56241">
        <ele>1147.4565883707</ele>
        <time>2021-11-02T09:59:20Z</time>
      </trkpt>
      <trkpt lat="43.90866" lon="7.56242">
        <ele>1149.4565996127</ele>
        <time>2021-11-02T09:59:24Z</time>
      </trkpt>
      <trkpt lat="43.90866" lon="7.56242">
        <ele>1147.456561189</ele>
        <time>2021-11-02T09:59:28Z</time>
      </trkpt>
      <trkpt lat="43.90867" lon="7.56241">
        <ele>1147.4565315503</ele>
        <time>2021-11-02T09:59:37Z</time>
      </trkpt>
      <trkpt lat="43.90869" lon="7.5624">
        <ele>1148.4564204005</ele>
        <time>2021-11-02T09:59:38Z</time>
      </trkpt>
      <trkpt lat="43.90869" lon="7.5624">
        <ele>1149.4563892132</ele>
        <time>2021-11-02T09:59:39Z</time>
      </trkpt>
      <trkpt lat="43.9087" lon="7.5624">
        <ele>1149.4563622476</ele>
        <time>2021-11-02T09:59:40Z</time>
      </trkpt>
      <trkpt lat="43.90871" lon="7.56241">
        <ele>1150.4563238335</ele>
        <time>2021-11-02T09:59:41Z</time>
      </trkpt>
      <trkpt lat="43.90872" lon="7.56241">
        <ele>1150.4562838297</ele>
        <time>2021-11-02T09:59:42Z</time>
      </trkpt>
      <trkpt lat="43.90872" lon="7.5624">
        <ele>1149.456250724</ele>
        <time>2021-11-02T09:59:44Z</time>
      </trkpt>
      <trkpt lat="43.90872" lon="7.5624">
        <ele>1148.4562370051</ele>
        <time>2021-11-02T09:59:46Z</time>
      </trkpt>
      <trkpt lat="43.90873" lon="7.5624">
        <ele>1148.4561819643</ele>
        <time>2021-11-02T09:59:48Z</time>
      </trkpt>
      <trkpt lat="43.90874" lon="7.56239">
        <ele>1147.4561292422</ele>
        <time>2021-11-02T09:59:50Z</time>
      </trkpt>
      <trkpt lat="43.90875" lon="7.56239">
        <ele>1147.4560890516</ele>
        <time>2021-11-02T09:59:51Z</time>
      </trkpt>
      <trkpt lat="43.90876" lon="7.56239">
        <ele>1148.4560552952</ele>
        <time>2021-11-02T09:59:52Z</time>
      </trkpt>
      <trkpt lat="43.90878" lon="7.5624">
        <ele>1147.4559863993</ele>
        <time>2021-11-02T09:59:54Z</time>
      </trkpt>
      <trkpt lat="43.90878" lon="7.5624">
        <ele>1147.4559420408</ele>
        <time>2021-11-02T09:59:55Z</time>
      </trkpt>
      <trkpt lat="43.90879" lon="7.56241">
        <ele>1148.4559142558</ele>
        <time>2021-11-02T09:59:56Z</time>
      </trkpt>
      <trkpt lat="43.9088" lon="7.56241">
        <ele>1148.4558928924</ele>
        <time>2021-11-02T09:59:57Z</time>
      </trkpt>
      <trkpt lat="43.9088" lon="7.56241">
        <ele>1148.4558688741</ele>
        <time>2021-11-02T09:59:58Z</time>
      </trkpt>
      <trkpt lat="43.90881" lon="7.56243">
        <ele>1148.4558517278</ele>
        <time>2021-11-02T10:00:00Z</time>
      </trkpt>
      <trkpt lat="43.90881" lon="7.56242">
        <ele>1148.4558179043</ele>
        <time>2021-11-02T10:00:10Z</time>
      </trkpt>
      <trkpt lat="43.90881" lon="7.56241">
        <ele>1148.45580854</ele>
        <time>2021-11-02T10:00:28Z</time>
      </trkpt>
      <trkpt lat="43.90884" lon="7.56243">
        <ele>1149.4557154356</ele>
        <time>2021-11-02T10:00:30Z</time>
      </trkpt>
      <trkpt lat="43.90884" lon="7.56245">
        <ele>1149.4557035181</ele>
        <time>2021-11-02T10:00:31Z</time>
      </trkpt>
      <trkpt lat="43.90885" lon="7.56246">
        <ele>1149.4556856779</ele>
        <time>2021-11-02T10:00:32Z</time>
      </trkpt>
      <trkpt lat="43.90886" lon="7.56247">
        <ele>1150.4556673123</ele>
        <time>2021-11-02T10:00:34Z</time>
      </trkpt>
      <trkpt lat="43.90886" lon="7.56248">
        <ele>1150.4556558233</ele>
        <time>2021-11-02T10:00:35Z</time>
      </trkpt>
      <trkpt lat="43.90887" lon="7.56248">
        <ele>1151.4556378381</ele>
        <time>2021-11-02T10:00:36Z</time>
      </trkpt>
      <trkpt lat="43.90887" lon="7.56248">
        <ele>1151.4556192243</ele>
        <time>2021-11-02T10:00:37Z</time>
      </trkpt>
      <trkpt lat="43.90888" lon="7.56249">
        <ele>1152.4556046953</ele>
        <time>2021-11-02T10:00:38Z</time>
      </trkpt>
      <trkpt lat="43.90888" lon="7.56249">
        <ele>1153.4555851716</ele>
        <time>2021-11-02T10:00:39Z</time>
      </trkpt>
      <trkpt lat="43.90888" lon="7.5625">
        <ele>1153.4555758451</ele>
        <time>2021-11-02T10:00:40Z</time>
      </trkpt>
      <trkpt lat="43.90889" lon="7.5625">
        <ele>1154.4555596709</ele>
        <time>2021-11-02T10:00:41Z</time>
      </trkpt>
      <trkpt lat="43.9089" lon="7.56251">
        <ele>1155.4555367526</ele>
        <time>2021-11-02T10:00:42Z</time>
      </trkpt>
      <trkpt lat="43.9089" lon="7.56253">
        <ele>1155.4555150891</ele>
        <time>2021-11-02T10:00:43Z</time>
      </trkpt>
      <trkpt lat="43.90891" lon="7.56253">
        <ele>1156.4554979693</ele>
        <time>2021-11-02T10:00:44Z</time>
      </trkpt>
      <trkpt lat="43.90892" lon="7.56254">
        <ele>1156.4554814751</ele>
        <time>2021-11-02T10:00:45Z</time>
      </trkpt>
      <trkpt lat="43.90892" lon="7.56254">
        <ele>1156.4554581883</ele>
        <time>2021-11-02T10:00:46Z</time>
      </trkpt>
      <trkpt lat="43.90893" lon="7.56255">
        <ele>1155.4554306616</ele>
        <time>2021-11-02T10:00:47Z</time>
      </trkpt>
      <trkpt lat="43.90894" lon="7.56255">
        <ele>1154.4553945057</ele>
        <time>2021-11-02T10:00:49Z</time>
      </trkpt>
      <trkpt lat="43.90894" lon="7.56255">
        <ele>1154.4553716583</ele>
        <time>2021-11-02T10:00:50Z</time>
      </trkpt>
      <trkpt lat="43.90895" lon="7.56256">
        <ele>1154.455342498</ele>
        <time>2021-11-02T10:00:51Z</time>
      </trkpt>
      <trkpt lat="43.90895" lon="7.56256">
        <ele>1154.4553177393</ele>
        <time>2021-11-02T10:00:52Z</time>
      </trkpt>
      <trkpt lat="43.90896" lon="7.56257">
        <ele>1154.4553023277</ele>
        <time>2021-11-02T10:00:53Z</time>
      </trkpt>
      <trkpt lat="43.90897" lon="7.56257">
        <ele>1154.4552790992</ele>
        <time>2021-11-02T10:00:54Z</time>
      </trkpt>
      <trkpt lat="43.90897" lon="7.56258">
        <ele>1154.4552471463</ele>
        <time>2021-11-02T10:00:55Z</time>
      </trkpt>
      <trkpt lat="43.90898" lon="7.56257">
        <ele>1154.4552239201</ele>
        <time>2021-11-02T10:00:57Z</time>
      </trkpt>
      <trkpt lat="43.90898" lon="7.56257">
        <ele>1153.4551820915</ele>
        <time>2021-11-02T10:00:58Z</time>
      </trkpt>
      <trkpt lat="43.90899" lon="7.56256">
        <ele>1153.4551449852</ele>
        <time>2021-11-02T10:00:59Z</time>
      </trkpt>
      <trkpt lat="43.90899" lon="7.56256">
        <ele>1152.4551362145</ele>
        <time>2021-11-02T10:01:03Z</time>
      </trkpt>
      <trkpt lat="43.90898" lon="7.56255">
        <ele>1150.4551768034</ele>
        <time>2021-11-02T10:01:05Z</time>
      </trkpt>
      <trkpt lat="43.90897" lon="7.56254">
        <ele>1149.4552182414</ele>
        <time>2021-11-02T10:01:06Z</time>
      </trkpt>
      <trkpt lat="43.90896" lon="7.56255">
        <ele>1147.4552619333</ele>
        <time>2021-11-02T10:01:07Z</time>
      </trkpt>
      <trkpt lat="43.90895" lon="7.56254">
        <ele>1147.4553046865</ele>
        <time>2021-11-02T10:01:09Z</time>
      </trkpt>
      <trkpt lat="43.90894" lon="7.56253">
        <ele>1147.4553324349</ele>
        <time>2021-11-02T10:01:10Z</time>
      </trkpt>
      <trkpt lat="43.90894" lon="7.56252">
        <ele>1146.4553439573</ele>
        <time>2021-11-02T10:01:11Z</time>
      </trkpt>
      <trkpt lat="43.90893" lon="7.56251">
        <ele>1146.4553620219</ele>
        <time>2021-11-02T10:01:13Z</time>
      </trkpt>
      <trkpt lat="43.90892" lon="7.5625">
        <ele>1146.4554009269</ele>
        <time>2021-11-02T10:01:14Z</time>
      </trkpt>
      <trkpt lat="43.90892" lon="7.56248">
        <ele>1146.4553793412</ele>
        <time>2021-11-02T10:01:15Z</time>
      </trkpt>
      <trkpt lat="43.90892" lon="7.56247">
        <ele>1147.4553713916</ele>
        <time>2021-11-02T10:01:16Z</time>
      </trkpt>
      <trkpt lat="43.90892" lon="7.56246">
        <ele>1147.4553650793</ele>
        <time>2021-11-02T10:01:17Z</time>
      </trkpt>
      <trkpt lat="43.90891" lon="7.56244">
        <ele>1147.4553760916</ele>
        <time>2021-11-02T10:01:19Z</time>
      </trkpt>
      <trkpt lat="43.90891" lon="7.56243">
        <ele>1148.4553593196</ele>
        <time>2021-11-02T10:01:20Z</time>
      </trkpt>
      <trkpt lat="43.90891" lon="7.56242">
        <ele>1148.4553499462</ele>
        <time>2021-11-02T10:01:22Z</time>
      </trkpt>
      <trkpt lat="43.90891" lon="7.56241">
        <ele>1149.4553301189</ele>
        <time>2021-11-02T10:01:23Z</time>
      </trkpt>
      <trkpt lat="43.90891" lon="7.5624">
        <ele>1149.4553054567</ele>
        <time>2021-11-02T10:01:24Z</time>
      </trkpt>
      <trkpt lat="43.90892" lon="7.5624">
        <ele>1149.4552652409</ele>
        <time>2021-11-02T10:01:25Z</time>
      </trkpt>
      <trkpt lat="43.90892" lon="7.56239">
        <ele>1149.4552365117</ele>
        <time>2021-11-02T10:01:26Z</time>
      </trkpt>
      <trkpt lat="43.90892" lon="7.56238">
        <ele>1149.4552134748</ele>
        <time>2021-11-02T10:01:27Z</time>
      </trkpt>
      <trkpt lat="43.90892" lon="7.56237">
        <ele>1149.4552001456</ele>
        <time>2021-11-02T10:01:29Z</time>
      </trkpt>
      <trkpt lat="43.90892" lon="7.56236">
        <ele>1148.4552174811</ele>
        <time>2021-11-02T10:01:30Z</time>
      </trkpt>
      <trkpt lat="43.90891" lon="7.56235">
        <ele>1149.4552355481</ele>
        <time>2021-11-02T10:01:31Z</time>
      </trkpt>
      <trkpt lat="43.90891" lon="7.56234">
        <ele>1149.4552267869</ele>
        <time>2021-11-02T10:01:32Z</time>
      </trkpt>
      <trkpt lat="43.90891" lon="7.56234">
        <ele>1149.4551957213</ele>
        <time>2021-11-02T10:01:33Z</time>
      </trkpt>
      <trkpt lat="43.90891" lon="7.56232">
        <ele>1150.4551843086</ele>
        <time>2021-11-02T10:01:35Z</time>
      </trkpt>
      <trkpt lat="43.90891" lon="7.56232">
        <ele>1150.4551621626</ele>
        <time>2021-11-02T10:01:36Z</time>
      </trkpt>
      <trkpt lat="43.90891" lon="7.56231">
        <ele>1150.4551639605</ele>
        <time>2021-11-02T10:01:39Z</time>
      </trkpt>
      <trkpt lat="43.9089" lon="7.5623">
        <ele>1150.4551859484</ele>
        <time>2021-11-02T10:01:41Z</time>
      </trkpt>
      <trkpt lat="43.90889" lon="7.56229">
        <ele>1150.4552518214</ele>
        <time>2021-11-02T10:01:43Z</time>
      </trkpt>
      <trkpt lat="43.90887" lon="7.56227">
        <ele>1149.4553118199</ele>
        <time>2021-11-02T10:01:45Z</time>
      </trkpt>
      <trkpt lat="43.90887" lon="7.56226">
        <ele>1148.4553225798</ele>
        <time>2021-11-02T10:01:48Z</time>
      </trkpt>
      <trkpt lat="43.90886" lon="7.56225">
        <ele>1148.4553158348</ele>
        <time>2021-11-02T10:01:51Z</time>
      </trkpt>
      <trkpt lat="43.90887" lon="7.56225">
        <ele>1148.4552760147</ele>
        <time>2021-11-02T10:01:55Z</time>
      </trkpt>
      <trkpt lat="43.90889" lon="7.56222">
        <ele>1148.4551645704</ele>
        <time>2021-11-02T10:01:56Z</time>
      </trkpt>
      <trkpt lat="43.9089" lon="7.56221">
        <ele>1148.4550985629</ele>
        <time>2021-11-02T10:01:57Z</time>
      </trkpt>
      <trkpt lat="43.9089" lon="7.5622">
        <ele>1148.4550732802</ele>
        <time>2021-11-02T10:01:58Z</time>
      </trkpt>
      <trkpt lat="43.9089" lon="7.5622">
        <ele>1148.4550673607</ele>
        <time>2021-11-02T10:01:59Z</time>
      </trkpt>
      <trkpt lat="43.90889" lon="7.56219">
        <ele>1148.4550772985</ele>
        <time>2021-11-02T10:02:00Z</time>
      </trkpt>
      <trkpt lat="43.90889" lon="7.56218">
        <ele>1148.4550806039</ele>
        <time>2021-11-02T10:02:01Z</time>
      </trkpt>
      <trkpt lat="43.90889" lon="7.56217">
        <ele>1147.4550804038</ele>
        <time>2021-11-02T10:02:02Z</time>
      </trkpt>
      <trkpt lat="43.90888" lon="7.56216">
        <ele>1147.4550841597</ele>
        <time>2021-11-02T10:02:03Z</time>
      </trkpt>
      <trkpt lat="43.90888" lon="7.56214">
        <ele>1147.4550692468</ele>
        <time>2021-11-02T10:02:04Z</time>
      </trkpt>
      <trkpt lat="43.90888" lon="7.56214">
        <ele>1147.4550692468</ele>
        <time>2021-11-02T10:02:06Z</time>
      </trkpt>
      <trkpt lat="43.90887" lon="7.56212">
        <ele>1147.4550912316</ele>
        <time>2021-11-02T10:02:07Z</time>
      </trkpt>
      <trkpt lat="43.90888" lon="7.56211">
        <ele>1147.4550619159</ele>
        <time>2021-11-02T10:02:08Z</time>
      </trkpt>
      <trkpt lat="43.90887" lon="7.5621">
        <ele>1147.4550531643</ele>
        <time>2021-11-02T10:02:09Z</time>
      </trkpt>
      <trkpt lat="43.90888" lon="7.5621">
        <ele>1147.4550357695</ele>
        <time>2021-11-02T10:02:10Z</time>
      </trkpt>
      <trkpt lat="43.90887" lon="7.56209">
        <ele>1147.4550304317</ele>
        <time>2021-11-02T10:02:11Z</time>
      </trkpt>
      <trkpt lat="43.90887" lon="7.56209">
        <ele>1147.4550304317</ele>
        <time>2021-11-02T10:02:13Z</time>
      </trkpt>
      <trkpt lat="43.90886" lon="7.56206">
        <ele>1148.4550743149</ele>
        <time>2021-11-02T10:02:14Z</time>
      </trkpt>
      <trkpt lat="43.90885" lon="7.56205">
        <ele>1148.4550742405</ele>
        <time>2021-11-02T10:02:15Z</time>
      </trkpt>
      <trkpt lat="43.90886" lon="7.56205">
        <ele>1149.4550583108</ele>
        <time>2021-11-02T10:02:24Z</time>
      </trkpt>
      <trkpt lat="43.90886" lon="7.56204">
        <ele>1150.4550195764</ele>
        <time>2021-11-02T10:02:25Z</time>
      </trkpt>
      <trkpt lat="43.90887" lon="7.56203">
        <ele>1151.4549847483</ele>
        <time>2021-11-02T10:02:26Z</time>
      </trkpt>
      <trkpt lat="43.90888" lon="7.56203">
        <ele>1151.4549359932</ele>
        <time>2021-11-02T10:02:27Z</time>
      </trkpt>
      <trkpt lat="43.90888" lon="7.56203">
        <ele>1151.45488907</ele>
        <time>2021-11-02T10:02:28Z</time>
      </trkpt>
      <trkpt lat="43.9089" lon="7.56203">
        <ele>1150.454837251</ele>
        <time>2021-11-02T10:02:29Z</time>
      </trkpt>
      <trkpt lat="43.90891" lon="7.56203">
        <ele>1150.4547913452</ele>
        <time>2021-11-02T10:02:30Z</time>
      </trkpt>
      <trkpt lat="43.90891" lon="7.56203">
        <ele>1151.454757734</ele>
        <time>2021-11-02T10:02:31Z</time>
      </trkpt>
      <trkpt lat="43.90892" lon="7.56204">
        <ele>1151.4547303117</ele>
        <time>2021-11-02T10:02:32Z</time>
      </trkpt>
      <trkpt lat="43.90893" lon="7.56204">
        <ele>1151.4546994326</ele>
        <time>2021-11-02T10:02:33Z</time>
      </trkpt>
      <trkpt lat="43.90893" lon="7.56204">
        <ele>1151.4546708512</ele>
        <time>2021-11-02T10:02:34Z</time>
      </trkpt>
      <trkpt lat="43.90893" lon="7.56203">
        <ele>1151.4546488759</ele>
        <time>2021-11-02T10:02:35Z</time>
      </trkpt>
      <trkpt lat="43.90894" lon="7.56202">
        <ele>1151.4546088537</ele>
        <time>2021-11-02T10:02:36Z</time>
      </trkpt>
      <trkpt lat="43.90895" lon="7.56202">
        <ele>1151.4545691121</ele>
        <time>2021-11-02T10:02:37Z</time>
      </trkpt>
      <trkpt lat="43.90895" lon="7.56201">
        <ele>1151.4545517085</ele>
        <time>2021-11-02T10:02:38Z</time>
      </trkpt>
      <trkpt lat="43.90895" lon="7.562">
        <ele>1151.4545460872</ele>
        <time>2021-11-02T10:02:39Z</time>
      </trkpt>
      <trkpt lat="43.90895" lon="7.56199">
        <ele>1151.454504883</ele>
        <time>2021-11-02T10:02:40Z</time>
      </trkpt>
      <trkpt lat="43.90896" lon="7.56199">
        <ele>1151.4544620976</ele>
        <time>2021-11-02T10:02:41Z</time>
      </trkpt>
      <trkpt lat="43.90897" lon="7.56199">
        <ele>1151.4544254664</ele>
        <time>2021-11-02T10:02:42Z</time>
      </trkpt>
      <trkpt lat="43.90898" lon="7.56198">
        <ele>1151.454370358</ele>
        <time>2021-11-02T10:02:43Z</time>
      </trkpt>
      <trkpt lat="43.90898" lon="7.56198">
        <ele>1151.4543300675</ele>
        <time>2021-11-02T10:02:44Z</time>
      </trkpt>
      <trkpt lat="43.90899" lon="7.56197">
        <ele>1151.4543001484</ele>
        <time>2021-11-02T10:02:45Z</time>
      </trkpt>
      <trkpt lat="43.90899" lon="7.56196">
        <ele>1151.4542566517</ele>
        <time>2021-11-02T10:02:46Z</time>
      </trkpt>
      <trkpt lat="43.909" lon="7.56195">
        <ele>1151.4542086422</ele>
        <time>2021-11-02T10:02:47Z</time>
      </trkpt>
      <trkpt lat="43.909" lon="7.56195">
        <ele>1152.4541749289</ele>
        <time>2021-11-02T10:02:48Z</time>
      </trkpt>
      <trkpt lat="43.90901" lon="7.56195">
        <ele>1152.4541396474</ele>
        <time>2021-11-02T10:02:49Z</time>
      </trkpt>
      <trkpt lat="43.90902" lon="7.56194">
        <ele>1152.4541006362</ele>
        <time>2021-11-02T10:02:50Z</time>
      </trkpt>
      <trkpt lat="43.90903" lon="7.56193">
        <ele>1152.4540533116</ele>
        <time>2021-11-02T10:02:51Z</time>
      </trkpt>
      <trkpt lat="43.90903" lon="7.56193">
        <ele>1152.454014111</ele>
        <time>2021-11-02T10:02:52Z</time>
      </trkpt>
      <trkpt lat="43.90903" lon="7.56192">
        <ele>1151.4539834531</ele>
        <time>2021-11-02T10:03:43Z</time>
      </trkpt>
      <trkpt lat="43.90904" lon="7.56189">
        <ele>1152.4539104993</ele>
        <time>2021-11-02T10:03:44Z</time>
      </trkpt>
      <trkpt lat="43.90905" lon="7.56188">
        <ele>1153.4538679776</ele>
        <time>2021-11-02T10:03:45Z</time>
      </trkpt>
      <trkpt lat="43.90905" lon="7.56187">
        <ele>1153.4538257528</ele>
        <time>2021-11-02T10:03:46Z</time>
      </trkpt>
      <trkpt lat="43.90906" lon="7.56186">
        <ele>1153.4537838254</ele>
        <time>2021-11-02T10:03:47Z</time>
      </trkpt>
      <trkpt lat="43.90907" lon="7.56185">
        <ele>1154.4537086362</ele>
        <time>2021-11-02T10:03:49Z</time>
      </trkpt>
      <trkpt lat="43.90907" lon="7.56184">
        <ele>1153.4536707052</ele>
        <time>2021-11-02T10:03:50Z</time>
      </trkpt>
      <trkpt lat="43.90908" lon="7.56183">
        <ele>1153.45361603</ele>
        <time>2021-11-02T10:03:51Z</time>
      </trkpt>
      <trkpt lat="43.90909" lon="7.56181">
        <ele>1153.4535458899</ele>
        <time>2021-11-02T10:03:54Z</time>
      </trkpt>
      <trkpt lat="43.90909" lon="7.56179">
        <ele>1153.4535115041</ele>
        <time>2021-11-02T10:03:55Z</time>
      </trkpt>
      <trkpt lat="43.90909" lon="7.56179">
        <ele>1152.4535099572</ele>
        <time>2021-11-02T10:03:56Z</time>
      </trkpt>
      <trkpt lat="43.90909" lon="7.56178">
        <ele>1153.4534929568</ele>
        <time>2021-11-02T10:03:58Z</time>
      </trkpt>
      <trkpt lat="43.9091" lon="7.56176">
        <ele>1152.4534424571</ele>
        <time>2021-11-02T10:03:59Z</time>
      </trkpt>
      <trkpt lat="43.9091" lon="7.56176">
        <ele>1152.4534071826</ele>
        <time>2021-11-02T10:04:00Z</time>
      </trkpt>
      <trkpt lat="43.90911" lon="7.56175">
        <ele>1153.4533731304</ele>
        <time>2021-11-02T10:04:01Z</time>
      </trkpt>
      <trkpt lat="43.90911" lon="7.56173">
        <ele>1153.4533203401</ele>
        <time>2021-11-02T10:04:03Z</time>
      </trkpt>
      <trkpt lat="43.90911" lon="7.56172">
        <ele>1153.4533182206</ele>
        <time>2021-11-02T10:04:05Z</time>
      </trkpt>
      <trkpt lat="43.9091" lon="7.56172">
        <ele>1153.4533523966</ele>
        <time>2021-11-02T10:04:06Z</time>
      </trkpt>
      <trkpt lat="43.90909" lon="7.56172">
        <ele>1153.4534110976</ele>
        <time>2021-11-02T10:04:07Z</time>
      </trkpt>
      <trkpt lat="43.90908" lon="7.56171">
        <ele>1153.4534264785</ele>
        <time>2021-11-02T10:04:10Z</time>
      </trkpt>
      <trkpt lat="43.90908" lon="7.5617">
        <ele>1153.4534377995</ele>
        <time>2021-11-02T10:04:25Z</time>
      </trkpt>
      <trkpt lat="43.9091" lon="7.56168">
        <ele>1153.4533005007</ele>
        <time>2021-11-02T10:04:26Z</time>
      </trkpt>
      <trkpt lat="43.90911" lon="7.56168">
        <ele>1153.4532349644</ele>
        <time>2021-11-02T10:04:28Z</time>
      </trkpt>
      <trkpt lat="43.90912" lon="7.56167">
        <ele>1153.4531877686</ele>
        <time>2021-11-02T10:04:29Z</time>
      </trkpt>
      <trkpt lat="43.90913" lon="7.56167">
        <ele>1153.4531568217</ele>
        <time>2021-11-02T10:04:30Z</time>
      </trkpt>
      <trkpt lat="43.90913" lon="7.56166">
        <ele>1153.4531238902</ele>
        <time>2021-11-02T10:04:31Z</time>
      </trkpt>
      <trkpt lat="43.90914" lon="7.56166">
        <ele>1154.453082425</ele>
        <time>2021-11-02T10:04:34Z</time>
      </trkpt>
      <trkpt lat="43.90916" lon="7.56166">
        <ele>1154.4529719655</ele>
        <time>2021-11-02T10:04:35Z</time>
      </trkpt>
      <trkpt lat="43.90916" lon="7.56165">
        <ele>1155.4529550973</ele>
        <time>2021-11-02T10:04:36Z</time>
      </trkpt>
      <trkpt lat="43.90917" lon="7.56164">
        <ele>1156.4529073384</ele>
        <time>2021-11-02T10:04:38Z</time>
      </trkpt>
      <trkpt lat="43.90918" lon="7.56163">
        <ele>1156.4528301689</ele>
        <time>2021-11-02T10:04:40Z</time>
      </trkpt>
      <trkpt lat="43.90919" lon="7.56163">
        <ele>1156.4527999613</ele>
        <time>2021-11-02T10:04:41Z</time>
      </trkpt>
      <trkpt lat="43.90919" lon="7.56162">
        <ele>1156.4527750142</ele>
        <time>2021-11-02T10:04:46Z</time>
      </trkpt>
      <trkpt lat="43.9092" lon="7.5616">
        <ele>1156.4526718924</ele>
        <time>2021-11-02T10:04:47Z</time>
      </trkpt>
      <trkpt lat="43.90922" lon="7.56159">
        <ele>1156.4525763973</ele>
        <time>2021-11-02T10:04:49Z</time>
      </trkpt>
      <trkpt lat="43.90923" lon="7.56159">
        <ele>1157.4525285391</ele>
        <time>2021-11-02T10:04:50Z</time>
      </trkpt>
      <trkpt lat="43.90923" lon="7.56159">
        <ele>1157.4525056778</ele>
        <time>2021-11-02T10:04:51Z</time>
      </trkpt>
      <trkpt lat="43.90924" lon="7.56159">
        <ele>1157.4524760528</ele>
        <time>2021-11-02T10:04:52Z</time>
      </trkpt>
      <trkpt lat="43.90923" lon="7.56158">
        <ele>1157.4524915793</ele>
        <time>2021-11-02T10:04:58Z</time>
      </trkpt>
      <trkpt lat="43.90922" lon="7.56155">
        <ele>1159.4525177903</ele>
        <time>2021-11-02T10:04:59Z</time>
      </trkpt>
      <trkpt lat="43.90921" lon="7.56154">
        <ele>1159.452541063</ele>
        <time>2021-11-02T10:05:00Z</time>
      </trkpt>
      <trkpt lat="43.9092" lon="7.56153">
        <ele>1159.4525866996</ele>
        <time>2021-11-02T10:05:01Z</time>
      </trkpt>
      <trkpt lat="43.9092" lon="7.56152">
        <ele>1159.4525913567</ele>
        <time>2021-11-02T10:05:02Z</time>
      </trkpt>
      <trkpt lat="43.9092" lon="7.56151">
        <ele>1158.4525643491</ele>
        <time>2021-11-02T10:05:04Z</time>
      </trkpt>
      <trkpt lat="43.9092" lon="7.56151">
        <ele>1158.4525564321</ele>
        <time>2021-11-02T10:05:24Z</time>
      </trkpt>
      <trkpt lat="43.90921" lon="7.56151">
        <ele>1158.452491627</ele>
        <time>2021-11-02T10:05:25Z</time>
      </trkpt>
      <trkpt lat="43.90922" lon="7.56152">
        <ele>1158.4524851871</ele>
        <time>2021-11-02T10:05:26Z</time>
      </trkpt>
      <trkpt lat="43.90922" lon="7.56153">
        <ele>1158.4524852458</ele>
        <time>2021-11-02T10:05:27Z</time>
      </trkpt>
      <trkpt lat="43.90923" lon="7.56154">
        <ele>1159.4524719971</ele>
        <time>2021-11-02T10:05:29Z</time>
      </trkpt>
      <trkpt lat="43.90923" lon="7.56155">
        <ele>1159.4524717851</ele>
        <time>2021-11-02T10:05:33Z</time>
      </trkpt>
      <trkpt lat="43.90922" lon="7.56154">
        <ele>1159.4525223821</ele>
        <time>2021-11-02T10:05:35Z</time>
      </trkpt>
      <trkpt lat="43.90921" lon="7.56153">
        <ele>1159.4525569813</ele>
        <time>2021-11-02T10:05:36Z</time>
      </trkpt>
      <trkpt lat="43.9092" lon="7.56152">
        <ele>1159.4525686053</ele>
        <time>2021-11-02T10:05:37Z</time>
      </trkpt>
      <trkpt lat="43.90919" lon="7.56151">
        <ele>1158.4525878703</ele>
        <time>2021-11-02T10:05:39Z</time>
      </trkpt>
      <trkpt lat="43.90919" lon="7.5615">
        <ele>1159.4525818699</ele>
        <time>2021-11-02T10:05:40Z</time>
      </trkpt>
      <trkpt lat="43.90919" lon="7.5615">
        <ele>1159.4525972957</ele>
        <time>2021-11-02T10:05:41Z</time>
      </trkpt>
      <trkpt lat="43.90918" lon="7.56149">
        <ele>1159.4526219798</ele>
        <time>2021-11-02T10:05:42Z</time>
      </trkpt>
      <trkpt lat="43.90917" lon="7.56149">
        <ele>1158.4526786037</ele>
        <time>2021-11-02T10:05:44Z</time>
      </trkpt>
      <trkpt lat="43.90917" lon="7.56149">
        <ele>1158.4526786037</ele>
        <time>2021-11-02T10:05:45Z</time>
      </trkpt>
      <trkpt lat="43.90915" lon="7.56148">
        <ele>1157.4527720369</ele>
        <time>2021-11-02T10:05:46Z</time>
      </trkpt>
      <trkpt lat="43.90915" lon="7.56146">
        <ele>1157.4527502265</ele>
        <time>2021-11-02T10:05:48Z</time>
      </trkpt>
      <trkpt lat="43.90917" lon="7.56145">
        <ele>1157.4526382851</ele>
        <time>2021-11-02T10:05:50Z</time>
      </trkpt>
      <trkpt lat="43.90917" lon="7.56144">
        <ele>1158.452633569</ele>
        <time>2021-11-02T10:05:51Z</time>
      </trkpt>
      <trkpt lat="43.90917" lon="7.56143">
        <ele>1158.4526003996</ele>
        <time>2021-11-02T10:05:52Z</time>
      </trkpt>
      <trkpt lat="43.90918" lon="7.56142">
        <ele>1158.452545305</ele>
        <time>2021-11-02T10:05:53Z</time>
      </trkpt>
      <trkpt lat="43.90918" lon="7.56141">
        <ele>1158.4525012459</ele>
        <time>2021-11-02T10:05:54Z</time>
      </trkpt>
      <trkpt lat="43.90919" lon="7.5614">
        <ele>1158.4524584931</ele>
        <time>2021-11-02T10:05:55Z</time>
      </trkpt>
      <trkpt lat="43.9092" lon="7.56139">
        <ele>1158.4523966193</ele>
        <time>2021-11-02T10:05:56Z</time>
      </trkpt>
      <trkpt lat="43.90921" lon="7.56139">
        <ele>1159.4523453074</ele>
        <time>2021-11-02T10:05:57Z</time>
      </trkpt>
      <trkpt lat="43.90922" lon="7.56137">
        <ele>1159.4522560213</ele>
        <time>2021-11-02T10:05:59Z</time>
      </trkpt>
      <trkpt lat="43.90923" lon="7.56136">
        <ele>1159.452215782</ele>
        <time>2021-11-02T10:06:00Z</time>
      </trkpt>
      <trkpt lat="43.90923" lon="7.56136">
        <ele>1159.4521919487</ele>
        <time>2021-11-02T10:06:01Z</time>
      </trkpt>
      <trkpt lat="43.90924" lon="7.56135">
        <ele>1160.452128626</ele>
        <time>2021-11-02T10:06:04Z</time>
      </trkpt>
      <trkpt lat="43.90924" lon="7.56135">
        <ele>1160.4521352528</ele>
        <time>2021-11-02T10:06:09Z</time>
      </trkpt>
      <trkpt lat="43.90923" lon="7.56134">
        <ele>1159.4521860259</ele>
        <time>2021-11-02T10:06:11Z</time>
      </trkpt>
      <trkpt lat="43.90921" lon="7.56132">
        <ele>1158.4522145839</ele>
        <time>2021-11-02T10:06:13Z</time>
      </trkpt>
      <trkpt lat="43.90921" lon="7.5613">
        <ele>1158.4522219624</ele>
        <time>2021-11-02T10:06:14Z</time>
      </trkpt>
      <trkpt lat="43.9092" lon="7.56129">
        <ele>1158.4522338257</ele>
        <time>2021-11-02T10:06:15Z</time>
      </trkpt>
      <trkpt lat="43.90919" lon="7.56129">
        <ele>1159.4522759718</ele>
        <time>2021-11-02T10:06:16Z</time>
      </trkpt>
      <trkpt lat="43.90918" lon="7.56128">
        <ele>1159.4523146215</ele>
        <time>2021-11-02T10:06:17Z</time>
      </trkpt>
      <trkpt lat="43.90918" lon="7.56127">
        <ele>1159.4523205996</ele>
        <time>2021-11-02T10:06:18Z</time>
      </trkpt>
      <trkpt lat="43.90918" lon="7.56126">
        <ele>1159.4523231162</ele>
        <time>2021-11-02T10:06:19Z</time>
      </trkpt>
      <trkpt lat="43.90917" lon="7.56126">
        <ele>1160.452322833</ele>
        <time>2021-11-02T10:06:20Z</time>
      </trkpt>
      <trkpt lat="43.90918" lon="7.56125">
        <ele>1160.4523102021</ele>
        <time>2021-11-02T10:06:21Z</time>
      </trkpt>
      <trkpt lat="43.90918" lon="7.56124">
        <ele>1160.4522716557</ele>
        <time>2021-11-02T10:06:22Z</time>
      </trkpt>
      <trkpt lat="43.90919" lon="7.56123">
        <ele>1160.4522340843</ele>
        <time>2021-11-02T10:06:23Z</time>
      </trkpt>
      <trkpt lat="43.90919" lon="7.56122">
        <ele>1160.4521977653</ele>
        <time>2021-11-02T10:06:24Z</time>
      </trkpt>
      <trkpt lat="43.9092" lon="7.56122">
        <ele>1161.4521318855</ele>
        <time>2021-11-02T10:06:25Z</time>
      </trkpt>
      <trkpt lat="43.90921" lon="7.56121">
        <ele>1160.4520648951</ele>
        <time>2021-11-02T10:06:26Z</time>
      </trkpt>
      <trkpt lat="43.90922" lon="7.56121">
        <ele>1160.4520079589</ele>
        <time>2021-11-02T10:06:27Z</time>
      </trkpt>
      <trkpt lat="43.90923" lon="7.5612">
        <ele>1160.4519858387</ele>
        <time>2021-11-02T10:06:28Z</time>
      </trkpt>
      <trkpt lat="43.90923" lon="7.5612">
        <ele>1160.451959771</ele>
        <time>2021-11-02T10:06:29Z</time>
      </trkpt>
      <trkpt lat="43.90923" lon="7.56119">
        <ele>1161.4519293394</ele>
        <time>2021-11-02T10:06:30Z</time>
      </trkpt>
      <trkpt lat="43.90924" lon="7.56119">
        <ele>1160.4519001084</ele>
        <time>2021-11-02T10:06:31Z</time>
      </trkpt>
      <trkpt lat="43.90925" lon="7.56118">
        <ele>1160.4518550375</ele>
        <time>2021-11-02T10:06:32Z</time>
      </trkpt>
      <trkpt lat="43.90925" lon="7.56118">
        <ele>1160.4518328846</ele>
        <time>2021-11-02T10:06:33Z</time>
      </trkpt>
      <trkpt lat="43.90926" lon="7.56118">
        <ele>1160.4518117744</ele>
        <time>2021-11-02T10:06:34Z</time>
      </trkpt>
      <trkpt lat="43.90926" lon="7.56119">
        <ele>1160.4517987136</ele>
        <time>2021-11-02T10:06:35Z</time>
      </trkpt>
      <trkpt lat="43.90926" lon="7.56119">
        <ele>1161.4517829068</ele>
        <time>2021-11-02T10:06:37Z</time>
      </trkpt>
      <trkpt lat="43.90928" lon="7.56118">
        <ele>1160.4516733125</ele>
        <time>2021-11-02T10:06:39Z</time>
      </trkpt>
      <trkpt lat="43.90929" lon="7.56117">
        <ele>1160.4516308382</ele>
        <time>2021-11-02T10:06:40Z</time>
      </trkpt>
      <trkpt lat="43.90929" lon="7.56117">
        <ele>1160.4516018384</ele>
        <time>2021-11-02T10:06:41Z</time>
      </trkpt>
      <trkpt lat="43.9093" lon="7.56117">
        <ele>1160.451571757</ele>
        <time>2021-11-02T10:06:43Z</time>
      </trkpt>
      <trkpt lat="43.90931" lon="7.56116">
        <ele>1159.4514905922</ele>
        <time>2021-11-02T10:06:45Z</time>
      </trkpt>
      <trkpt lat="43.90932" lon="7.56117">
        <ele>1160.4514540244</ele>
        <time>2021-11-02T10:06:46Z</time>
      </trkpt>
      <trkpt lat="43.90933" lon="7.56117">
        <ele>1161.4514127896</ele>
        <time>2021-11-02T10:06:48Z</time>
      </trkpt>
      <trkpt lat="43.90935" lon="7.56119">
        <ele>1162.4513697163</ele>
        <time>2021-11-02T10:06:50Z</time>
      </trkpt>
      <trkpt lat="43.90935" lon="7.56119">
        <ele>1162.4513580597</ele>
        <time>2021-11-02T10:06:56Z</time>
      </trkpt>
      <trkpt lat="43.90936" lon="7.56121">
        <ele>1163.4513048837</ele>
        <time>2021-11-02T10:06:58Z</time>
      </trkpt>
      <trkpt lat="43.90938" lon="7.5612">
        <ele>1163.4512319745</ele>
        <time>2021-11-02T10:06:59Z</time>
      </trkpt>
      <trkpt lat="43.90939" lon="7.5612">
        <ele>1163.4511918103</ele>
        <time>2021-11-02T10:07:00Z</time>
      </trkpt>
      <trkpt lat="43.90939" lon="7.5612">
        <ele>1163.451147489</ele>
        <time>2021-11-02T10:07:01Z</time>
      </trkpt>
      <trkpt lat="43.9094" lon="7.5612">
        <ele>1164.4511083504</ele>
        <time>2021-11-02T10:07:02Z</time>
      </trkpt>
      <trkpt lat="43.90941" lon="7.5612">
        <ele>1164.4510694649</ele>
        <time>2021-11-02T10:07:03Z</time>
      </trkpt>
      <trkpt lat="43.90942" lon="7.56121">
        <ele>1164.4510166325</ele>
        <time>2021-11-02T10:07:04Z</time>
      </trkpt>
      <trkpt lat="43.90943" lon="7.56121">
        <ele>1164.4509637487</ele>
        <time>2021-11-02T10:07:05Z</time>
      </trkpt>
      <trkpt lat="43.90944" lon="7.56121">
        <ele>1164.4509152762</ele>
        <time>2021-11-02T10:07:06Z</time>
      </trkpt>
      <trkpt lat="43.90945" lon="7.5612">
        <ele>1164.4508697296</ele>
        <time>2021-11-02T10:07:07Z</time>
      </trkpt>
      <trkpt lat="43.90946" lon="7.56121">
        <ele>1164.4508202206</ele>
        <time>2021-11-02T10:07:09Z</time>
      </trkpt>
      <trkpt lat="43.90947" lon="7.56121">
        <ele>1164.4507790157</ele>
        <time>2021-11-02T10:07:10Z</time>
      </trkpt>
      <trkpt lat="43.90948" lon="7.56121">
        <ele>1164.4507494312</ele>
        <time>2021-11-02T10:07:11Z</time>
      </trkpt>
      <trkpt lat="43.90949" lon="7.56124">
        <ele>1164.4507152505</ele>
        <time>2021-11-02T10:07:13Z</time>
      </trkpt>
      <trkpt lat="43.9095" lon="7.56126">
        <ele>1164.4507120745</ele>
        <time>2021-11-02T10:07:15Z</time>
      </trkpt>
      <trkpt lat="43.9095" lon="7.56126">
        <ele>1165.4506814626</ele>
        <time>2021-11-02T10:07:16Z</time>
      </trkpt>
      <trkpt lat="43.90951" lon="7.56126">
        <ele>1165.4506382879</ele>
        <time>2021-11-02T10:07:17Z</time>
      </trkpt>
      <trkpt lat="43.90952" lon="7.56127">
        <ele>1164.4506171823</ele>
        <time>2021-11-02T10:07:19Z</time>
      </trkpt>
      <trkpt lat="43.90954" lon="7.56129">
        <ele>1164.4505647301</ele>
        <time>2021-11-02T10:07:20Z</time>
      </trkpt>
      <trkpt lat="43.90954" lon="7.56129">
        <ele>1164.4505417482</ele>
        <time>2021-11-02T10:07:21Z</time>
      </trkpt>
      <trkpt lat="43.90955" lon="7.56129">
        <ele>1163.4505100685</ele>
        <time>2021-11-02T10:07:22Z</time>
      </trkpt>
      <trkpt lat="43.90956" lon="7.5613">
        <ele>1163.4504832293</ele>
        <time>2021-11-02T10:07:24Z</time>
      </trkpt>
      <trkpt lat="43.90957" lon="7.56131">
        <ele>1163.4504467633</ele>
        <time>2021-11-02T10:07:25Z</time>
      </trkpt>
      <trkpt lat="43.90957" lon="7.56131">
        <ele>1163.4504044374</ele>
        <time>2021-11-02T10:07:26Z</time>
      </trkpt>
      <trkpt lat="43.90958" lon="7.56132">
        <ele>1164.4503665508</ele>
        <time>2021-11-02T10:07:27Z</time>
      </trkpt>
      <trkpt lat="43.90959" lon="7.56133">
        <ele>1164.4503423468</ele>
        <time>2021-11-02T10:07:29Z</time>
      </trkpt>
      <trkpt lat="43.9096" lon="7.56134">
        <ele>1164.4503134858</ele>
        <time>2021-11-02T10:07:30Z</time>
      </trkpt>
      <trkpt lat="43.90961" lon="7.56134">
        <ele>1164.4502681423</ele>
        <time>2021-11-02T10:07:31Z</time>
      </trkpt>
      <trkpt lat="43.90962" lon="7.56134">
        <ele>1165.4502114242</ele>
        <time>2021-11-02T10:07:32Z</time>
      </trkpt>
      <trkpt lat="43.90963" lon="7.56134">
        <ele>1165.4501681609</ele>
        <time>2021-11-02T10:07:33Z</time>
      </trkpt>
      <trkpt lat="43.90965" lon="7.56135">
        <ele>1166.4500813477</ele>
        <time>2021-11-02T10:07:35Z</time>
      </trkpt>
      <trkpt lat="43.90966" lon="7.56135">
        <ele>1166.4500466628</ele>
        <time>2021-11-02T10:07:36Z</time>
      </trkpt>
      <trkpt lat="43.90968" lon="7.56135">
        <ele>1166.449946102</ele>
        <time>2021-11-02T10:07:38Z</time>
      </trkpt>
      <trkpt lat="43.90969" lon="7.56135">
        <ele>1166.4499135505</ele>
        <time>2021-11-02T10:07:39Z</time>
      </trkpt>
      <trkpt lat="43.90969" lon="7.56136">
        <ele>1167.4498922321</ele>
        <time>2021-11-02T10:07:40Z</time>
      </trkpt>
      <trkpt lat="43.9097" lon="7.56137">
        <ele>1167.4498885676</ele>
        <time>2021-11-02T10:07:41Z</time>
      </trkpt>
      <trkpt lat="43.9097" lon="7.56138">
        <ele>1167.4498877666</ele>
        <time>2021-11-02T10:07:42Z</time>
      </trkpt>
      <trkpt lat="43.9097" lon="7.56139">
        <ele>1166.449888297</ele>
        <time>2021-11-02T10:07:43Z</time>
      </trkpt>
      <trkpt lat="43.9097" lon="7.5614">
        <ele>1166.4499249502</ele>
        <time>2021-11-02T10:07:45Z</time>
      </trkpt>
      <trkpt lat="43.90969" lon="7.5614">
        <ele>1166.4499577124</ele>
        <time>2021-11-02T10:07:46Z</time>
      </trkpt>
      <trkpt lat="43.90969" lon="7.5614">
        <ele>1165.4499432251</ele>
        <time>2021-11-02T10:07:52Z</time>
      </trkpt>
      <trkpt lat="43.9097" lon="7.56142">
        <ele>1164.4499389591</ele>
        <time>2021-11-02T10:07:54Z</time>
      </trkpt>
      <trkpt lat="43.9097" lon="7.56143">
        <ele>1164.4499308549</ele>
        <time>2021-11-02T10:07:55Z</time>
      </trkpt>
      <trkpt lat="43.90971" lon="7.56143">
        <ele>1164.449910525</ele>
        <time>2021-11-02T10:07:56Z</time>
      </trkpt>
      <trkpt lat="43.90972" lon="7.56144">
        <ele>1164.449888732</ele>
        <time>2021-11-02T10:07:57Z</time>
      </trkpt>
      <trkpt lat="43.90973" lon="7.56146">
        <ele>1165.4498682181</ele>
        <time>2021-11-02T10:07:59Z</time>
      </trkpt>
      <trkpt lat="43.90973" lon="7.56146">
        <ele>1165.4498236153</ele>
        <time>2021-11-02T10:08:00Z</time>
      </trkpt>
      <trkpt lat="43.90974" lon="7.56146">
        <ele>1165.449779584</ele>
        <time>2021-11-02T10:08:02Z</time>
      </trkpt>
      <trkpt lat="43.90976" lon="7.56146">
        <ele>1165.4497228669</ele>
        <time>2021-11-02T10:08:03Z</time>
      </trkpt>
      <trkpt lat="43.90976" lon="7.56146">
        <ele>1165.4496995358</ele>
        <time>2021-11-02T10:08:04Z</time>
      </trkpt>
      <trkpt lat="43.90977" lon="7.56145">
        <ele>1165.4496544618</ele>
        <time>2021-11-02T10:08:05Z</time>
      </trkpt>
      <trkpt lat="43.90978" lon="7.56144">
        <ele>1165.4495920852</ele>
        <time>2021-11-02T10:08:06Z</time>
      </trkpt>
      <trkpt lat="43.9098" lon="7.56144">
        <ele>1164.4494758899</ele>
        <time>2021-11-02T10:08:08Z</time>
      </trkpt>
      <trkpt lat="43.90981" lon="7.56144">
        <ele>1164.4494130638</ele>
        <time>2021-11-02T10:08:10Z</time>
      </trkpt>
      <trkpt lat="43.90982" lon="7.56143">
        <ele>1164.4493572136</ele>
        <time>2021-11-02T10:08:11Z</time>
      </trkpt>
      <trkpt lat="43.90983" lon="7.56143">
        <ele>1164.4493227998</ele>
        <time>2021-11-02T10:08:12Z</time>
      </trkpt>
      <trkpt lat="43.90983" lon="7.56142">
        <ele>1164.4492725362</ele>
        <time>2021-11-02T10:08:13Z</time>
      </trkpt>
      <trkpt lat="43.90984" lon="7.56142">
        <ele>1164.4492440696</ele>
        <time>2021-11-02T10:08:14Z</time>
      </trkpt>
      <trkpt lat="43.90984" lon="7.56142">
        <ele>1164.4492258698</ele>
        <time>2021-11-02T10:08:15Z</time>
      </trkpt>
      <trkpt lat="43.90985" lon="7.56142">
        <ele>1164.4491987342</ele>
        <time>2021-11-02T10:08:16Z</time>
      </trkpt>
      <trkpt lat="43.90986" lon="7.56142">
        <ele>1164.4491435274</ele>
        <time>2021-11-02T10:08:18Z</time>
      </trkpt>
      <trkpt lat="43.90987" lon="7.56141">
        <ele>1164.449060926</ele>
        <time>2021-11-02T10:08:20Z</time>
      </trkpt>
      <trkpt lat="43.90988" lon="7.56139">
        <ele>1164.4490184531</ele>
        <time>2021-11-02T10:08:21Z</time>
      </trkpt>
      <trkpt lat="43.90988" lon="7.5614">
        <ele>1164.4490386069</ele>
        <time>2021-11-02T10:08:30Z</time>
      </trkpt>
      <trkpt lat="43.90988" lon="7.56139">
        <ele>1165.4490207403</ele>
        <time>2021-11-02T10:08:46Z</time>
      </trkpt>
      <trkpt lat="43.90988" lon="7.56138">
        <ele>1165.4489955204</ele>
        <time>2021-11-02T10:08:54Z</time>
      </trkpt>
      <trkpt lat="43.90989" lon="7.56138">
        <ele>1165.4489417824</ele>
        <time>2021-11-02T10:08:55Z</time>
      </trkpt>
      <trkpt lat="43.9099" lon="7.56138">
        <ele>1165.4488967058</ele>
        <time>2021-11-02T10:08:56Z</time>
      </trkpt>
      <trkpt lat="43.90991" lon="7.56138">
        <ele>1164.4488224107</ele>
        <time>2021-11-02T10:08:58Z</time>
      </trkpt>
      <trkpt lat="43.90993" lon="7.56138">
        <ele>1165.4487410021</ele>
        <time>2021-11-02T10:09:00Z</time>
      </trkpt>
      <trkpt lat="43.90993" lon="7.56137">
        <ele>1165.4487091688</ele>
        <time>2021-11-02T10:09:01Z</time>
      </trkpt>
      <trkpt lat="43.90994" lon="7.56137">
        <ele>1166.4486640304</ele>
        <time>2021-11-02T10:09:02Z</time>
      </trkpt>
      <trkpt lat="43.90995" lon="7.56136">
        <ele>1167.4486370943</ele>
        <time>2021-11-02T10:09:04Z</time>
      </trkpt>
      <trkpt lat="43.90995" lon="7.56136">
        <ele>1167.4486102469</ele>
        <time>2021-11-02T10:09:05Z</time>
      </trkpt>
      <trkpt lat="43.90995" lon="7.56135">
        <ele>1167.4485832774</ele>
        <time>2021-11-02T10:09:06Z</time>
      </trkpt>
      <trkpt lat="43.90996" lon="7.56135">
        <ele>1167.4485573177</ele>
        <time>2021-11-02T10:09:08Z</time>
      </trkpt>
      <trkpt lat="43.90996" lon="7.56133">
        <ele>1167.4485070421</ele>
        <time>2021-11-02T10:09:10Z</time>
      </trkpt>
      <trkpt lat="43.90996" lon="7.56132">
        <ele>1167.4484857631</ele>
        <time>2021-11-02T10:09:11Z</time>
      </trkpt>
      <trkpt lat="43.90997" lon="7.56131">
        <ele>1168.4484495653</ele>
        <time>2021-11-02T10:09:12Z</time>
      </trkpt>
      <trkpt lat="43.90997" lon="7.5613">
        <ele>1168.448425351</ele>
        <time>2021-11-02T10:09:14Z</time>
      </trkpt>
      <trkpt lat="43.90997" lon="7.5613">
        <ele>1168.4484201839</ele>
        <time>2021-11-02T10:09:17Z</time>
      </trkpt>
      <trkpt lat="43.90998" lon="7.56126">
        <ele>1168.4483446889</ele>
        <time>2021-11-02T10:09:19Z</time>
      </trkpt>
      <trkpt lat="43.90998" lon="7.56126">
        <ele>1168.4483138437</ele>
        <time>2021-11-02T10:09:20Z</time>
      </trkpt>
      <trkpt lat="43.90999" lon="7.56126">
        <ele>1168.4482775807</ele>
        <time>2021-11-02T10:09:22Z</time>
      </trkpt>
      <trkpt lat="43.91" lon="7.56125">
        <ele>1168.4481771802</ele>
        <time>2021-11-02T10:09:23Z</time>
      </trkpt>
      <trkpt lat="43.91" lon="7.56124">
        <ele>1167.4481841581</ele>
        <time>2021-11-02T10:09:26Z</time>
      </trkpt>
      <trkpt lat="43.90999" lon="7.56124">
        <ele>1167.4482473971</ele>
        <time>2021-11-02T10:09:27Z</time>
      </trkpt>
      <trkpt lat="43.90997" lon="7.56124">
        <ele>1167.4483426635</ele>
        <time>2021-11-02T10:09:29Z</time>
      </trkpt>
      <trkpt lat="43.90996" lon="7.56125">
        <ele>1169.4483724914</ele>
        <time>2021-11-02T10:09:37Z</time>
      </trkpt>
      <trkpt lat="43.90995" lon="7.56123">
        <ele>1169.4484478216</ele>
        <time>2021-11-02T10:09:38Z</time>
      </trkpt>
      <trkpt lat="43.90994" lon="7.56123">
        <ele>1170.4484717805</ele>
        <time>2021-11-02T10:09:39Z</time>
      </trkpt>
      <trkpt lat="43.90994" lon="7.56122">
        <ele>1170.4484824809</ele>
        <time>2021-11-02T10:09:40Z</time>
      </trkpt>
      <trkpt lat="43.90993" lon="7.56121">
        <ele>1170.448479628</ele>
        <time>2021-11-02T10:09:44Z</time>
      </trkpt>
      <trkpt lat="43.90996" lon="7.56119">
        <ele>1169.4482899643</ele>
        <time>2021-11-02T10:09:45Z</time>
      </trkpt>
      <trkpt lat="43.90997" lon="7.56118">
        <ele>1169.4482336307</ele>
        <time>2021-11-02T10:09:46Z</time>
      </trkpt>
      <trkpt lat="43.90998" lon="7.56117">
        <ele>1169.4481987689</ele>
        <time>2021-11-02T10:09:48Z</time>
      </trkpt>
      <trkpt lat="43.90998" lon="7.56116">
        <ele>1169.4481893442</ele>
        <time>2021-11-02T10:09:50Z</time>
      </trkpt>
      <trkpt lat="43.90998" lon="7.56116">
        <ele>1169.448188449</ele>
        <time>2021-11-02T10:09:52Z</time>
      </trkpt>
      <trkpt lat="43.90997" lon="7.56114">
        <ele>1169.4481884385</ele>
        <time>2021-11-02T10:09:54Z</time>
      </trkpt>
      <trkpt lat="43.90998" lon="7.56113">
        <ele>1169.448150737</ele>
        <time>2021-11-02T10:09:55Z</time>
      </trkpt>
      <trkpt lat="43.90998" lon="7.56113">
        <ele>1170.4481164808</ele>
        <time>2021-11-02T10:09:56Z</time>
      </trkpt>
      <trkpt lat="43.90999" lon="7.56113">
        <ele>1170.4480866918</ele>
        <time>2021-11-02T10:09:57Z</time>
      </trkpt>
      <trkpt lat="43.90999" lon="7.56112">
        <ele>1170.4480451928</ele>
        <time>2021-11-02T10:09:58Z</time>
      </trkpt>
      <trkpt lat="43.91" lon="7.56111">
        <ele>1170.4479915866</ele>
        <time>2021-11-02T10:09:59Z</time>
      </trkpt>
      <trkpt lat="43.91001" lon="7.5611">
        <ele>1170.4479497752</ele>
        <time>2021-11-02T10:10:00Z</time>
      </trkpt>
      <trkpt lat="43.91001" lon="7.56109">
        <ele>1170.447910281</ele>
        <time>2021-11-02T10:10:01Z</time>
      </trkpt>
      <trkpt lat="43.91002" lon="7.56108">
        <ele>1170.4478633547</ele>
        <time>2021-11-02T10:10:02Z</time>
      </trkpt>
      <trkpt lat="43.91002" lon="7.56107">
        <ele>1170.4478259841</ele>
        <time>2021-11-02T10:10:04Z</time>
      </trkpt>
      <trkpt lat="43.91002" lon="7.56107">
        <ele>1169.4478420297</ele>
        <time>2021-11-02T10:10:05Z</time>
      </trkpt>
      <trkpt lat="43.91001" lon="7.56106">
        <ele>1169.4478570672</ele>
        <time>2021-11-02T10:10:07Z</time>
      </trkpt>
      <trkpt lat="43.91001" lon="7.56104">
        <ele>1168.447851341</ele>
        <time>2021-11-02T10:10:09Z</time>
      </trkpt>
      <trkpt lat="43.91" lon="7.56103">
        <ele>1169.4478646645</ele>
        <time>2021-11-02T10:10:10Z</time>
      </trkpt>
      <trkpt lat="43.91" lon="7.56101">
        <ele>1169.4478699183</ele>
        <time>2021-11-02T10:10:11Z</time>
      </trkpt>
      <trkpt lat="43.91" lon="7.561">
        <ele>1169.4478401117</ele>
        <time>2021-11-02T10:10:12Z</time>
      </trkpt>
      <trkpt lat="43.91" lon="7.56099">
        <ele>1170.4478513105</ele>
        <time>2021-11-02T10:10:15Z</time>
      </trkpt>
      <trkpt lat="43.91" lon="7.56098">
        <ele>1169.4478282652</ele>
        <time>2021-11-02T10:10:16Z</time>
      </trkpt>
      <trkpt lat="43.91" lon="7.56097">
        <ele>1169.4477770147</ele>
        <time>2021-11-02T10:10:18Z</time>
      </trkpt>
      <trkpt lat="43.91001" lon="7.56095">
        <ele>1170.4477176938</ele>
        <time>2021-11-02T10:10:20Z</time>
      </trkpt>
      <trkpt lat="43.91002" lon="7.56095">
        <ele>1170.44766704</ele>
        <time>2021-11-02T10:10:21Z</time>
      </trkpt>
      <trkpt lat="43.91004" lon="7.56094">
        <ele>1169.4475709452</ele>
        <time>2021-11-02T10:10:23Z</time>
      </trkpt>
      <trkpt lat="43.91005" lon="7.56093">
        <ele>1169.4475141074</ele>
        <time>2021-11-02T10:10:25Z</time>
      </trkpt>
      <trkpt lat="43.91006" lon="7.56093">
        <ele>1169.4474432116</ele>
        <time>2021-11-02T10:10:26Z</time>
      </trkpt>
      <trkpt lat="43.91007" lon="7.56092">
        <ele>1168.4473943866</ele>
        <time>2021-11-02T10:10:27Z</time>
      </trkpt>
      <trkpt lat="43.91007" lon="7.56092">
        <ele>1168.4473561651</ele>
        <time>2021-11-02T10:10:28Z</time>
      </trkpt>
      <trkpt lat="43.91009" lon="7.56091">
        <ele>1167.4472875924</ele>
        <time>2021-11-02T10:10:30Z</time>
      </trkpt>
      <trkpt lat="43.91009" lon="7.56091">
        <ele>1167.4472875924</ele>
        <time>2021-11-02T10:10:32Z</time>
      </trkpt>
      <trkpt lat="43.9101" lon="7.56089">
        <ele>1167.4471649343</ele>
        <time>2021-11-02T10:10:34Z</time>
      </trkpt>
      <trkpt lat="43.91011" lon="7.56087">
        <ele>1167.4471102294</ele>
        <time>2021-11-02T10:10:35Z</time>
      </trkpt>
      <trkpt lat="43.91012" lon="7.56086">
        <ele>1168.4470634408</ele>
        <time>2021-11-02T10:10:36Z</time>
      </trkpt>
      <trkpt lat="43.91013" lon="7.56086">
        <ele>1168.4470022828</ele>
        <time>2021-11-02T10:10:38Z</time>
      </trkpt>
      <trkpt lat="43.91014" lon="7.56086">
        <ele>1169.44693285</ele>
        <time>2021-11-02T10:10:40Z</time>
      </trkpt>
      <trkpt lat="43.91015" lon="7.56085">
        <ele>1169.4468923563</ele>
        <time>2021-11-02T10:10:41Z</time>
      </trkpt>
      <trkpt lat="43.91015" lon="7.56085">
        <ele>1169.446864634</ele>
        <time>2021-11-02T10:10:43Z</time>
      </trkpt>
      <trkpt lat="43.91016" lon="7.56084">
        <ele>1169.4467933239</ele>
        <time>2021-11-02T10:10:44Z</time>
      </trkpt>
      <trkpt lat="43.91017" lon="7.56083">
        <ele>1170.4467761303</ele>
        <time>2021-11-02T10:10:50Z</time>
      </trkpt>
      <trkpt lat="43.91018" lon="7.56083">
        <ele>1171.4467060616</ele>
        <time>2021-11-02T10:10:51Z</time>
      </trkpt>
      <trkpt lat="43.91019" lon="7.56084">
        <ele>1171.4466843681</ele>
        <time>2021-11-02T10:10:52Z</time>
      </trkpt>
      <trkpt lat="43.91019" lon="7.56085">
        <ele>1171.4466804512</ele>
        <time>2021-11-02T10:10:53Z</time>
      </trkpt>
      <trkpt lat="43.9102" lon="7.56085">
        <ele>1171.4466528353</ele>
        <time>2021-11-02T10:10:54Z</time>
      </trkpt>
      <trkpt lat="43.9102" lon="7.56085">
        <ele>1171.4466201842</ele>
        <time>2021-11-02T10:10:55Z</time>
      </trkpt>
      <trkpt lat="43.91021" lon="7.56085">
        <ele>1171.4465774255</ele>
        <time>2021-11-02T10:10:56Z</time>
      </trkpt>
      <trkpt lat="43.91022" lon="7.56086">
        <ele>1172.4465378667</ele>
        <time>2021-11-02T10:10:57Z</time>
      </trkpt>
      <trkpt lat="43.91023" lon="7.56085">
        <ele>1172.4464659465</ele>
        <time>2021-11-02T10:10:59Z</time>
      </trkpt>
      <trkpt lat="43.91024" lon="7.56085">
        <ele>1172.4464199392</ele>
        <time>2021-11-02T10:11:01Z</time>
      </trkpt>
      <trkpt lat="43.91024" lon="7.56085">
        <ele>1173.4464063172</ele>
        <time>2021-11-02T10:11:02Z</time>
      </trkpt>
      <trkpt lat="43.91025" lon="7.56084">
        <ele>1173.4463622664</ele>
        <time>2021-11-02T10:11:03Z</time>
      </trkpt>
      <trkpt lat="43.91027" lon="7.56085">
        <ele>1173.4463020979</ele>
        <time>2021-11-02T10:11:05Z</time>
      </trkpt>
      <trkpt lat="43.91027" lon="7.56085">
        <ele>1173.4462583193</ele>
        <time>2021-11-02T10:11:06Z</time>
      </trkpt>
      <trkpt lat="43.91028" lon="7.56084">
        <ele>1173.4462159381</ele>
        <time>2021-11-02T10:11:07Z</time>
      </trkpt>
      <trkpt lat="43.91029" lon="7.56085">
        <ele>1174.4461803476</ele>
        <time>2021-11-02T10:11:09Z</time>
      </trkpt>
      <trkpt lat="43.91031" lon="7.56085">
        <ele>1174.4460886174</ele>
        <time>2021-11-02T10:11:11Z</time>
      </trkpt>
      <trkpt lat="43.91032" lon="7.56084">
        <ele>1174.4460226371</ele>
        <time>2021-11-02T10:11:12Z</time>
      </trkpt>
      <trkpt lat="43.91033" lon="7.56084">
        <ele>1174.4459753059</ele>
        <time>2021-11-02T10:11:13Z</time>
      </trkpt>
      <trkpt lat="43.91034" lon="7.56084">
        <ele>1174.4459099062</ele>
        <time>2021-11-02T10:11:15Z</time>
      </trkpt>
      <trkpt lat="43.91035" lon="7.56083">
        <ele>1174.445870353</ele>
        <time>2021-11-02T10:11:16Z</time>
      </trkpt>
      <trkpt lat="43.91035" lon="7.56083">
        <ele>1174.4458552574</ele>
        <time>2021-11-02T10:11:17Z</time>
      </trkpt>
      <trkpt lat="43.91036" lon="7.56083">
        <ele>1175.4458010905</ele>
        <time>2021-11-02T10:11:19Z</time>
      </trkpt>
      <trkpt lat="43.91037" lon="7.56084">
        <ele>1175.4457558514</ele>
        <time>2021-11-02T10:11:21Z</time>
      </trkpt>
      <trkpt lat="43.91038" lon="7.56083">
        <ele>1176.4457117719</ele>
        <time>2021-11-02T10:11:23Z</time>
      </trkpt>
      <trkpt lat="43.91039" lon="7.56084">
        <ele>1176.4456631632</ele>
        <time>2021-11-02T10:11:25Z</time>
      </trkpt>
      <trkpt lat="43.9104" lon="7.56084">
        <ele>1176.4456352483</ele>
        <time>2021-11-02T10:11:26Z</time>
      </trkpt>
      <trkpt lat="43.9104" lon="7.56084">
        <ele>1176.4455974485</ele>
        <time>2021-11-02T10:11:27Z</time>
      </trkpt>
      <trkpt lat="43.91041" lon="7.56085">
        <ele>1176.445605528</ele>
        <time>2021-11-02T10:11:29Z</time>
      </trkpt>
      <trkpt lat="43.91041" lon="7.56086">
        <ele>1176.4455932084</ele>
        <time>2021-11-02T10:11:30Z</time>
      </trkpt>
      <trkpt lat="43.91041" lon="7.56088">
        <ele>1177.4456081919</ele>
        <time>2021-11-02T10:11:31Z</time>
      </trkpt>
      <trkpt lat="43.91041" lon="7.56089">
        <ele>1177.4456247083</ele>
        <time>2021-11-02T10:11:32Z</time>
      </trkpt>
      <trkpt lat="43.91042" lon="7.56089">
        <ele>1177.445604392</ele>
        <time>2021-11-02T10:11:33Z</time>
      </trkpt>
      <trkpt lat="43.91042" lon="7.5609">
        <ele>1177.445587972</ele>
        <time>2021-11-02T10:11:34Z</time>
      </trkpt>
      <trkpt lat="43.91043" lon="7.56091">
        <ele>1177.4455877125</ele>
        <time>2021-11-02T10:11:35Z</time>
      </trkpt>
      <trkpt lat="43.91043" lon="7.56092">
        <ele>1177.4455708808</ele>
        <time>2021-11-02T10:11:37Z</time>
      </trkpt>
      <trkpt lat="43.91044" lon="7.56093">
        <ele>1177.4455655021</ele>
        <time>2021-11-02T10:11:38Z</time>
      </trkpt>
      <trkpt lat="43.91044" lon="7.56093">
        <ele>1177.4455655021</ele>
        <time>2021-11-02T10:11:39Z</time>
      </trkpt>
      <trkpt lat="43.91043" lon="7.56095">
        <ele>1177.445617943</ele>
        <time>2021-11-02T10:11:40Z</time>
      </trkpt>
      <trkpt lat="43.91042" lon="7.56096">
        <ele>1177.4456653431</ele>
        <time>2021-11-02T10:11:41Z</time>
      </trkpt>
      <trkpt lat="43.91042" lon="7.56096">
        <ele>1177.4457136133</ele>
        <time>2021-11-02T10:11:43Z</time>
      </trkpt>
      <trkpt lat="43.91041" lon="7.56098">
        <ele>1177.4457850697</ele>
        <time>2021-11-02T10:11:44Z</time>
      </trkpt>
      <trkpt lat="43.9104" lon="7.56099">
        <ele>1176.4458355225</ele>
        <time>2021-11-02T10:11:46Z</time>
      </trkpt>
      <trkpt lat="43.91039" lon="7.56098">
        <ele>1177.445885259</ele>
        <time>2021-11-02T10:11:47Z</time>
      </trkpt>
      <trkpt lat="43.91038" lon="7.56099">
        <ele>1177.4459220313</ele>
        <time>2021-11-02T10:11:48Z</time>
      </trkpt>
      <trkpt lat="43.91037" lon="7.56098">
        <ele>1177.445972771</ele>
        <time>2021-11-02T10:11:49Z</time>
      </trkpt>
      <trkpt lat="43.91036" lon="7.56098">
        <ele>1177.4460336471</ele>
        <time>2021-11-02T10:11:50Z</time>
      </trkpt>
      <trkpt lat="43.91035" lon="7.56099">
        <ele>1177.4460719656</ele>
        <time>2021-11-02T10:11:51Z</time>
      </trkpt>
      <trkpt lat="43.91035" lon="7.56099">
        <ele>1177.4461020299</ele>
        <time>2021-11-02T10:11:54Z</time>
      </trkpt>
      <trkpt lat="43.91034" lon="7.561">
        <ele>1175.4461449232</ele>
        <time>2021-11-02T10:11:55Z</time>
      </trkpt>
      <trkpt lat="43.91034" lon="7.561">
        <ele>1174.4461688585</ele>
        <time>2021-11-02T10:11:57Z</time>
      </trkpt>
      <trkpt lat="43.91033" lon="7.561">
        <ele>1174.4461912272</ele>
        <time>2021-11-02T10:12:00Z</time>
      </trkpt>
      <trkpt lat="43.91032" lon="7.56101">
        <ele>1174.4462737917</ele>
        <time>2021-11-02T10:12:01Z</time>
      </trkpt>
      <trkpt lat="43.91031" lon="7.561">
        <ele>1174.4463144512</ele>
        <time>2021-11-02T10:12:02Z</time>
      </trkpt>
      <trkpt lat="43.9103" lon="7.56101">
        <ele>1174.4463762526</ele>
        <time>2021-11-02T10:12:04Z</time>
      </trkpt>
      <trkpt lat="43.91029" lon="7.561">
        <ele>1174.446401607</ele>
        <time>2021-11-02T10:12:06Z</time>
      </trkpt>
      <trkpt lat="43.91028" lon="7.56099">
        <ele>1174.4464167331</ele>
        <time>2021-11-02T10:12:07Z</time>
      </trkpt>
      <trkpt lat="43.91027" lon="7.56098">
        <ele>1174.4464715759</ele>
        <time>2021-11-02T10:12:09Z</time>
      </trkpt>
      <trkpt lat="43.91026" lon="7.56099">
        <ele>1175.4465304387</ele>
        <time>2021-11-02T10:12:10Z</time>
      </trkpt>
      <trkpt lat="43.91026" lon="7.56099">
        <ele>1174.4465377086</ele>
        <time>2021-11-02T10:12:11Z</time>
      </trkpt>
      <trkpt lat="43.91026" lon="7.56099">
        <ele>1172.446529528</ele>
        <time>2021-11-02T10:12:20Z</time>
      </trkpt>
      <trkpt lat="43.91027" lon="7.56099">
        <ele>1171.4464676235</ele>
        <time>2021-11-02T10:12:21Z</time>
      </trkpt>
      <trkpt lat="43.91028" lon="7.56099">
        <ele>1171.4464360059</ele>
        <time>2021-11-02T10:12:44Z</time>
      </trkpt>
      <trkpt lat="43.91029" lon="7.56099">
        <ele>1171.4463751548</ele>
        <time>2021-11-02T10:12:45Z</time>
      </trkpt>
      <trkpt lat="43.91029" lon="7.561">
        <ele>1170.4464003959</ele>
        <time>2021-11-02T10:13:04Z</time>
      </trkpt>
      <trkpt lat="43.9103" lon="7.56099">
        <ele>1170.4463412279</ele>
        <time>2021-11-02T10:13:05Z</time>
      </trkpt>
      <trkpt lat="43.91031" lon="7.56098">
        <ele>1170.4462931778</ele>
        <time>2021-11-02T10:13:06Z</time>
      </trkpt>
      <trkpt lat="43.91031" lon="7.56099">
        <ele>1170.4462803771</ele>
        <time>2021-11-02T10:13:09Z</time>
      </trkpt>
      <trkpt lat="43.91032" lon="7.561">
        <ele>1171.4462668671</ele>
        <time>2021-11-02T10:13:11Z</time>
      </trkpt>
      <trkpt lat="43.91032" lon="7.56099">
        <ele>1171.4462464876</ele>
        <time>2021-11-02T10:13:12Z</time>
      </trkpt>
      <trkpt lat="43.91033" lon="7.56099">
        <ele>1171.4462103633</ele>
        <time>2021-11-02T10:13:13Z</time>
      </trkpt>
      <trkpt lat="43.91034" lon="7.561">
        <ele>1171.4461618277</ele>
        <time>2021-11-02T10:13:15Z</time>
      </trkpt>
      <trkpt lat="43.91034" lon="7.56099">
        <ele>1171.4461206947</ele>
        <time>2021-11-02T10:13:19Z</time>
      </trkpt>
      <trkpt lat="43.91035" lon="7.56099">
        <ele>1171.4460684558</ele>
        <time>2021-11-02T10:13:21Z</time>
      </trkpt>
      <trkpt lat="43.91036" lon="7.56099">
        <ele>1171.446050973</ele>
        <time>2021-11-02T10:13:22Z</time>
      </trkpt>
      <trkpt lat="43.91036" lon="7.56098">
        <ele>1171.4460203798</ele>
        <time>2021-11-02T10:13:23Z</time>
      </trkpt>
      <trkpt lat="43.91037" lon="7.56098">
        <ele>1171.4459877214</ele>
        <time>2021-11-02T10:13:24Z</time>
      </trkpt>
      <trkpt lat="43.91038" lon="7.56099">
        <ele>1172.4459394639</ele>
        <time>2021-11-02T10:13:26Z</time>
      </trkpt>
      <trkpt lat="43.91038" lon="7.561">
        <ele>1172.4459365216</ele>
        <time>2021-11-02T10:13:27Z</time>
      </trkpt>
      <trkpt lat="43.91038" lon="7.56101">
        <ele>1173.4459707703</ele>
        <time>2021-11-02T10:13:30Z</time>
      </trkpt>
      <trkpt lat="43.91038" lon="7.56102">
        <ele>1174.4459616619</ele>
        <time>2021-11-02T10:13:41Z</time>
      </trkpt>
      <trkpt lat="43.91039" lon="7.56101">
        <ele>1175.445920199</ele>
        <time>2021-11-02T10:13:43Z</time>
      </trkpt>
      <trkpt lat="43.91039" lon="7.561">
        <ele>1175.445900292</ele>
        <time>2021-11-02T10:13:47Z</time>
      </trkpt>
      <trkpt lat="43.9104" lon="7.561">
        <ele>1176.4458704002</ele>
        <time>2021-11-02T10:13:48Z</time>
      </trkpt>
      <trkpt lat="43.91039" lon="7.561">
        <ele>1174.4458791234</ele>
        <time>2021-11-02T10:13:52Z</time>
      </trkpt>
      <trkpt lat="43.91039" lon="7.561">
        <ele>1174.4459214325</ele>
        <time>2021-11-02T10:13:53Z</time>
      </trkpt>
      <trkpt lat="43.91037" lon="7.56099">
        <ele>1174.4459907632</ele>
        <time>2021-11-02T10:13:55Z</time>
      </trkpt>
      <trkpt lat="43.91036" lon="7.56098">
        <ele>1174.4460378473</ele>
        <time>2021-11-02T10:13:56Z</time>
      </trkpt>
      <trkpt lat="43.91035" lon="7.56098">
        <ele>1174.4460808987</ele>
        <time>2021-11-02T10:13:57Z</time>
      </trkpt>
      <trkpt lat="43.91034" lon="7.56097">
        <ele>1174.4461138582</ele>
        <time>2021-11-02T10:13:58Z</time>
      </trkpt>
      <trkpt lat="43.91034" lon="7.56097">
        <ele>1174.4460823821</ele>
        <time>2021-11-02T10:14:01Z</time>
      </trkpt>
      <trkpt lat="43.91035" lon="7.56096">
        <ele>1174.4460212164</ele>
        <time>2021-11-02T10:14:02Z</time>
      </trkpt>
      <trkpt lat="43.91036" lon="7.56095">
        <ele>1174.4459832523</ele>
        <time>2021-11-02T10:14:03Z</time>
      </trkpt>
      <trkpt lat="43.91036" lon="7.56096">
        <ele>1174.4459726458</ele>
        <time>2021-11-02T10:14:04Z</time>
      </trkpt>
      <trkpt lat="43.91037" lon="7.56097">
        <ele>1174.4459428773</ele>
        <time>2021-11-02T10:14:05Z</time>
      </trkpt>
      <trkpt lat="43.91038" lon="7.56098">
        <ele>1174.4459267265</ele>
        <time>2021-11-02T10:14:06Z</time>
      </trkpt>
      <trkpt lat="43.91039" lon="7.56098">
        <ele>1174.4458887429</ele>
        <time>2021-11-02T10:14:08Z</time>
      </trkpt>
      <trkpt lat="43.9104" lon="7.56097">
        <ele>1175.445818975</ele>
        <time>2021-11-02T10:14:09Z</time>
      </trkpt>
      <trkpt lat="43.9104" lon="7.56096">
        <ele>1175.4458077642</ele>
        <time>2021-11-02T10:14:14Z</time>
      </trkpt>
      <trkpt lat="43.91041" lon="7.56095">
        <ele>1175.4457228466</ele>
        <time>2021-11-02T10:14:15Z</time>
      </trkpt>
      <trkpt lat="43.91042" lon="7.56095">
        <ele>1175.4456829575</ele>
        <time>2021-11-02T10:14:16Z</time>
      </trkpt>
      <trkpt lat="43.91043" lon="7.56095">
        <ele>1176.4456504136</ele>
        <time>2021-11-02T10:14:17Z</time>
      </trkpt>
      <trkpt lat="43.91043" lon="7.56095">
        <ele>1176.4456050336</ele>
        <time>2021-11-02T10:14:18Z</time>
      </trkpt>
      <trkpt lat="43.91044" lon="7.56095">
        <ele>1176.4455678011</ele>
        <time>2021-11-02T10:14:19Z</time>
      </trkpt>
      <trkpt lat="43.91045" lon="7.56097">
        <ele>1175.4455332837</ele>
        <time>2021-11-02T10:14:21Z</time>
      </trkpt>
      <trkpt lat="43.91046" lon="7.56097">
        <ele>1176.4455137806</ele>
        <time>2021-11-02T10:14:22Z</time>
      </trkpt>
      <trkpt lat="43.91047" lon="7.56098">
        <ele>1176.4454784772</ele>
        <time>2021-11-02T10:14:24Z</time>
      </trkpt>
      <trkpt lat="43.91048" lon="7.56098">
        <ele>1176.4454329866</ele>
        <time>2021-11-02T10:14:25Z</time>
      </trkpt>
      <trkpt lat="43.91048" lon="7.56099">
        <ele>1176.4454172259</ele>
        <time>2021-11-02T10:14:26Z</time>
      </trkpt>
      <trkpt lat="43.91049" lon="7.56099">
        <ele>1176.445381591</ele>
        <time>2021-11-02T10:14:27Z</time>
      </trkpt>
      <trkpt lat="43.91049" lon="7.56098">
        <ele>1176.4453561472</ele>
        <time>2021-11-02T10:14:35Z</time>
      </trkpt>
      <trkpt lat="43.91049" lon="7.56098">
        <ele>1175.4453678007</ele>
        <time>2021-11-02T10:14:37Z</time>
      </trkpt>
      <trkpt lat="43.9105" lon="7.56096">
        <ele>1176.4453020263</ele>
        <time>2021-11-02T10:14:39Z</time>
      </trkpt>
      <trkpt lat="43.9105" lon="7.56096">
        <ele>1176.4452816235</ele>
        <time>2021-11-02T10:14:40Z</time>
      </trkpt>
      <trkpt lat="43.91051" lon="7.56096">
        <ele>1176.4452621167</ele>
        <time>2021-11-02T10:14:41Z</time>
      </trkpt>
      <trkpt lat="43.91051" lon="7.56097">
        <ele>1176.4452399031</ele>
        <time>2021-11-02T10:14:43Z</time>
      </trkpt>
      <trkpt lat="43.91052" lon="7.56097">
        <ele>1176.4452207234</ele>
        <time>2021-11-02T10:14:46Z</time>
      </trkpt>
      <trkpt lat="43.91052" lon="7.56099">
        <ele>1177.4452361211</ele>
        <time>2021-11-02T10:14:47Z</time>
      </trkpt>
      <trkpt lat="43.91053" lon="7.56099">
        <ele>1177.4452146337</ele>
        <time>2021-11-02T10:14:49Z</time>
      </trkpt>
      <trkpt lat="43.91053" lon="7.561">
        <ele>1177.4452030389</ele>
        <time>2021-11-02T10:14:52Z</time>
      </trkpt>
      <trkpt lat="43.91055" lon="7.561">
        <ele>1177.445129592</ele>
        <time>2021-11-02T10:14:53Z</time>
      </trkpt>
      <trkpt lat="43.91055" lon="7.561">
        <ele>1177.4450988198</ele>
        <time>2021-11-02T10:14:54Z</time>
      </trkpt>
      <trkpt lat="43.91056" lon="7.56099">
        <ele>1176.4450522344</ele>
        <time>2021-11-02T10:14:56Z</time>
      </trkpt>
      <trkpt lat="43.91056" lon="7.56099">
        <ele>1177.4450391946</ele>
        <time>2021-11-02T10:14:57Z</time>
      </trkpt>
      <trkpt lat="43.91057" lon="7.56098">
        <ele>1176.4450047303</ele>
        <time>2021-11-02T10:14:58Z</time>
      </trkpt>
      <trkpt lat="43.91057" lon="7.56098">
        <ele>1175.4449897391</ele>
        <time>2021-11-02T10:14:59Z</time>
      </trkpt>
      <trkpt lat="43.91058" lon="7.56099">
        <ele>1175.4449524223</ele>
        <time>2021-11-02T10:15:01Z</time>
      </trkpt>
      <trkpt lat="43.91058" lon="7.561">
        <ele>1175.4449418194</ele>
        <time>2021-11-02T10:15:02Z</time>
      </trkpt>
      <trkpt lat="43.91059" lon="7.561">
        <ele>1175.4449320029</ele>
        <time>2021-11-02T10:15:03Z</time>
      </trkpt>
      <trkpt lat="43.91059" lon="7.56101">
        <ele>1175.4449283324</ele>
        <time>2021-11-02T10:15:04Z</time>
      </trkpt>
      <trkpt lat="43.9106" lon="7.56101">
        <ele>1175.4448858764</ele>
        <time>2021-11-02T10:15:06Z</time>
      </trkpt>
      <trkpt lat="43.9106" lon="7.56102">
        <ele>1175.4448586589</ele>
        <time>2021-11-02T10:15:09Z</time>
      </trkpt>
      <trkpt lat="43.91062" lon="7.56102">
        <ele>1176.4447985691</ele>
        <time>2021-11-02T10:15:10Z</time>
      </trkpt>
      <trkpt lat="43.91063" lon="7.56102">
        <ele>1176.4447547751</ele>
        <time>2021-11-02T10:15:11Z</time>
      </trkpt>
      <trkpt lat="43.91064" lon="7.56102">
        <ele>1176.4447004352</ele>
        <time>2021-11-02T10:15:12Z</time>
      </trkpt>
      <trkpt lat="43.91064" lon="7.56102">
        <ele>1176.4446686007</ele>
        <time>2021-11-02T10:15:13Z</time>
      </trkpt>
      <trkpt lat="43.91065" lon="7.56102">
        <ele>1176.4446406058</ele>
        <time>2021-11-02T10:15:17Z</time>
      </trkpt>
      <trkpt lat="43.91066" lon="7.56104">
        <ele>1177.4445916438</ele>
        <time>2021-11-02T10:15:18Z</time>
      </trkpt>
      <trkpt lat="43.91067" lon="7.56104">
        <ele>1176.4445739728</ele>
        <time>2021-11-02T10:15:19Z</time>
      </trkpt>
      <trkpt lat="43.91068" lon="7.56105">
        <ele>1176.4445343647</ele>
        <time>2021-11-02T10:15:21Z</time>
      </trkpt>
      <trkpt lat="43.91068" lon="7.56106">
        <ele>1177.4445344857</ele>
        <time>2021-11-02T10:15:22Z</time>
      </trkpt>
      <trkpt lat="43.91068" lon="7.56107">
        <ele>1178.444533842</ele>
        <time>2021-11-02T10:15:27Z</time>
      </trkpt>
      <trkpt lat="43.91068" lon="7.56108">
        <ele>1177.4445508429</ele>
        <time>2021-11-02T10:15:46Z</time>
      </trkpt>
      <trkpt lat="43.91069" lon="7.56108">
        <ele>1178.4445315031</ele>
        <time>2021-11-02T10:15:47Z</time>
      </trkpt>
      <trkpt lat="43.91069" lon="7.56109">
        <ele>1177.4445250769</ele>
        <time>2021-11-02T10:15:48Z</time>
      </trkpt>
      <trkpt lat="43.9107" lon="7.56109">
        <ele>1177.4444959228</ele>
        <time>2021-11-02T10:15:50Z</time>
      </trkpt>
      <trkpt lat="43.9107" lon="7.56109">
        <ele>1178.4444692455</ele>
        <time>2021-11-02T10:15:51Z</time>
      </trkpt>
      <trkpt lat="43.91071" lon="7.56109">
        <ele>1178.4444330224</ele>
        <time>2021-11-02T10:15:52Z</time>
      </trkpt>
      <trkpt lat="43.91072" lon="7.56108">
        <ele>1178.4443919409</ele>
        <time>2021-11-02T10:15:54Z</time>
      </trkpt>
      <trkpt lat="43.91072" lon="7.56108">
        <ele>1178.4443534509</ele>
        <time>2021-11-02T10:15:57Z</time>
      </trkpt>
      <trkpt lat="43.91073" lon="7.56109">
        <ele>1178.4443309972</ele>
        <time>2021-11-02T10:15:59Z</time>
      </trkpt>
      <trkpt lat="43.91073" lon="7.56109">
        <ele>1178.4443258074</ele>
        <time>2021-11-02T10:16:02Z</time>
      </trkpt>
      <trkpt lat="43.91075" lon="7.5611">
        <ele>1178.4442578269</ele>
        <time>2021-11-02T10:16:03Z</time>
      </trkpt>
      <trkpt lat="43.91076" lon="7.5611">
        <ele>1178.4442236905</ele>
        <time>2021-11-02T10:16:04Z</time>
      </trkpt>
      <trkpt lat="43.91076" lon="7.5611">
        <ele>1177.4441991253</ele>
        <time>2021-11-02T10:16:05Z</time>
      </trkpt>
      <trkpt lat="43.91076" lon="7.56111">
        <ele>1178.4442007624</ele>
        <time>2021-11-02T10:16:08Z</time>
      </trkpt>
      <trkpt lat="43.91077" lon="7.56112">
        <ele>1178.4441651838</ele>
        <time>2021-11-02T10:16:10Z</time>
      </trkpt>
      <trkpt lat="43.91078" lon="7.56113">
        <ele>1178.4441632979</ele>
        <time>2021-11-02T10:16:13Z</time>
      </trkpt>
      <trkpt lat="43.91078" lon="7.56113">
        <ele>1179.4441431621</ele>
        <time>2021-11-02T10:16:15Z</time>
      </trkpt>
      <trkpt lat="43.91079" lon="7.56113">
        <ele>1179.444102575</ele>
        <time>2021-11-02T10:16:16Z</time>
      </trkpt>
      <trkpt lat="43.91079" lon="7.56112">
        <ele>1179.444080143</ele>
        <time>2021-11-02T10:16:20Z</time>
      </trkpt>
      <trkpt lat="43.91078" lon="7.5611">
        <ele>1179.4441097777</ele>
        <time>2021-11-02T10:16:21Z</time>
      </trkpt>
      <trkpt lat="43.91077" lon="7.56109">
        <ele>1179.444126164</ele>
        <time>2021-11-02T10:16:22Z</time>
      </trkpt>
      <trkpt lat="43.91078" lon="7.56108">
        <ele>1179.4440976101</ele>
        <time>2021-11-02T10:16:23Z</time>
      </trkpt>
      <trkpt lat="43.91078" lon="7.56107">
        <ele>1179.4440726194</ele>
        <time>2021-11-02T10:16:24Z</time>
      </trkpt>
      <trkpt lat="43.91079" lon="7.56106">
        <ele>1180.4440195468</ele>
        <time>2021-11-02T10:16:25Z</time>
      </trkpt>
      <trkpt lat="43.91079" lon="7.56105">
        <ele>1180.4439940976</ele>
        <time>2021-11-02T10:16:27Z</time>
      </trkpt>
      <trkpt lat="43.91078" lon="7.56104">
        <ele>1180.4440013135</ele>
        <time>2021-11-02T10:16:28Z</time>
      </trkpt>
      <trkpt lat="43.91079" lon="7.56102">
        <ele>1179.4439640569</ele>
        <time>2021-11-02T10:16:30Z</time>
      </trkpt>
      <trkpt lat="43.91079" lon="7.56102">
        <ele>1179.4439247801</ele>
        <time>2021-11-02T10:16:31Z</time>
      </trkpt>
      <trkpt lat="43.91081" lon="7.56102">
        <ele>1179.443859894</ele>
        <time>2021-11-02T10:16:32Z</time>
      </trkpt>
      <trkpt lat="43.91082" lon="7.56101">
        <ele>1179.4437862108</ele>
        <time>2021-11-02T10:16:34Z</time>
      </trkpt>
      <trkpt lat="43.91084" lon="7.56101">
        <ele>1178.4436975017</ele>
        <time>2021-11-02T10:16:36Z</time>
      </trkpt>
      <trkpt lat="43.91084" lon="7.56101">
        <ele>1178.4436668843</ele>
        <time>2021-11-02T10:16:37Z</time>
      </trkpt>
      <trkpt lat="43.91085" lon="7.56101">
        <ele>1178.4436185172</ele>
        <time>2021-11-02T10:16:39Z</time>
      </trkpt>
      <trkpt lat="43.91087" lon="7.56102">
        <ele>1178.4435458879</ele>
        <time>2021-11-02T10:16:40Z</time>
      </trkpt>
      <trkpt lat="43.91088" lon="7.56102">
        <ele>1177.4435146422</ele>
        <time>2021-11-02T10:16:41Z</time>
      </trkpt>
      <trkpt lat="43.91089" lon="7.56102">
        <ele>1177.4434699171</ele>
        <time>2021-11-02T10:16:45Z</time>
      </trkpt>
      <trkpt lat="43.91089" lon="7.56102">
        <ele>1177.443446847</ele>
        <time>2021-11-02T10:16:45Z</time>
      </trkpt>
      <trkpt lat="43.91089" lon="7.56101">
        <ele>1177.4434297129</ele>
        <time>2021-11-02T10:16:46Z</time>
      </trkpt>
      <trkpt lat="43.91089" lon="7.561">
        <ele>1177.4433983584</ele>
        <time>2021-11-02T10:16:48Z</time>
      </trkpt>
      <trkpt lat="43.91089" lon="7.561">
        <ele>1177.4433871042</ele>
        <time>2021-11-02T10:16:51Z</time>
      </trkpt>
      <trkpt lat="43.9109" lon="7.56096">
        <ele>1177.4433181923</ele>
        <time>2021-11-02T10:16:52Z</time>
      </trkpt>
      <trkpt lat="43.9109" lon="7.56096">
        <ele>1178.4432948661</ele>
        <time>2021-11-02T10:16:53Z</time>
      </trkpt>
      <trkpt lat="43.9109" lon="7.56095">
        <ele>1178.4432666206</ele>
        <time>2021-11-02T10:16:54Z</time>
      </trkpt>
      <trkpt lat="43.9109" lon="7.56094">
        <ele>1178.4432520407</ele>
        <time>2021-11-02T10:16:55Z</time>
      </trkpt>
      <trkpt lat="43.91091" lon="7.56093">
        <ele>1179.4432212875</ele>
        <time>2021-11-02T10:16:56Z</time>
      </trkpt>
      <trkpt lat="43.91091" lon="7.56092">
        <ele>1179.44318988</ele>
        <time>2021-11-02T10:16:57Z</time>
      </trkpt>
      <trkpt lat="43.91092" lon="7.56092">
        <ele>1179.4431536827</ele>
        <time>2021-11-02T10:16:59Z</time>
      </trkpt>
      <trkpt lat="43.91093" lon="7.56091">
        <ele>1180.4430925115</ele>
        <time>2021-11-02T10:17:01Z</time>
      </trkpt>
      <trkpt lat="43.91093" lon="7.5609">
        <ele>1180.4430656066</ele>
        <time>2021-11-02T10:17:02Z</time>
      </trkpt>
      <trkpt lat="43.91094" lon="7.56089">
        <ele>1180.4430258393</ele>
        <time>2021-11-02T10:17:04Z</time>
      </trkpt>
      <trkpt lat="43.91093" lon="7.56087">
        <ele>1180.4430234571</ele>
        <time>2021-11-02T10:17:06Z</time>
      </trkpt>
      <trkpt lat="43.91093" lon="7.56086">
        <ele>1180.4429986959</ele>
        <time>2021-11-02T10:17:07Z</time>
      </trkpt>
      <trkpt lat="43.91093" lon="7.56085">
        <ele>1181.4429720217</ele>
        <time>2021-11-02T10:17:08Z</time>
      </trkpt>
      <trkpt lat="43.91094" lon="7.56083">
        <ele>1180.4429244816</ele>
        <time>2021-11-02T10:17:10Z</time>
      </trkpt>
      <trkpt lat="43.91094" lon="7.56082">
        <ele>1180.4429029173</ele>
        <time>2021-11-02T10:17:11Z</time>
      </trkpt>
      <trkpt lat="43.91095" lon="7.5608">
        <ele>1181.442836875</ele>
        <time>2021-11-02T10:17:13Z</time>
      </trkpt>
      <trkpt lat="43.91096" lon="7.56079">
        <ele>1181.4427883797</ele>
        <time>2021-11-02T10:17:14Z</time>
      </trkpt>
      <trkpt lat="43.91096" lon="7.56079">
        <ele>1182.4427704318</ele>
        <time>2021-11-02T10:17:15Z</time>
      </trkpt>
      <trkpt lat="43.91096" lon="7.56078">
        <ele>1182.442729332</ele>
        <time>2021-11-02T10:17:16Z</time>
      </trkpt>
      <trkpt lat="43.91097" lon="7.56077">
        <ele>1182.4426770814</ele>
        <time>2021-11-02T10:17:17Z</time>
      </trkpt>
      <trkpt lat="43.91098" lon="7.56076">
        <ele>1182.4426322503</ele>
        <time>2021-11-02T10:17:18Z</time>
      </trkpt>
      <trkpt lat="43.91099" lon="7.56075">
        <ele>1182.4425867956</ele>
        <time>2021-11-02T10:17:19Z</time>
      </trkpt>
      <trkpt lat="43.91099" lon="7.56074">
        <ele>1182.4425338089</ele>
        <time>2021-11-02T10:17:20Z</time>
      </trkpt>
      <trkpt lat="43.911" lon="7.56074">
        <ele>1182.4424929681</ele>
        <time>2021-11-02T10:17:21Z</time>
      </trkpt>
      <trkpt lat="43.91101" lon="7.56073">
        <ele>1183.4424298023</ele>
        <time>2021-11-02T10:17:22Z</time>
      </trkpt>
      <trkpt lat="43.91102" lon="7.56072">
        <ele>1183.4423899905</ele>
        <time>2021-11-02T10:17:23Z</time>
      </trkpt>
      <trkpt lat="43.91102" lon="7.56072">
        <ele>1183.442341874</ele>
        <time>2021-11-02T10:17:24Z</time>
      </trkpt>
      <trkpt lat="43.91103" lon="7.56071">
        <ele>1183.4422994449</ele>
        <time>2021-11-02T10:17:25Z</time>
      </trkpt>
      <trkpt lat="43.91104" lon="7.56071">
        <ele>1183.4422602755</ele>
        <time>2021-11-02T10:17:26Z</time>
      </trkpt>
      <trkpt lat="43.91105" lon="7.56072">
        <ele>1183.4422224855</ele>
        <time>2021-11-02T10:17:27Z</time>
      </trkpt>
      <trkpt lat="43.91105" lon="7.56072">
        <ele>1183.4422052133</ele>
        <time>2021-11-02T10:17:28Z</time>
      </trkpt>
      <trkpt lat="43.91106" lon="7.56072">
        <ele>1183.4421772378</ele>
        <time>2021-11-02T10:17:29Z</time>
      </trkpt>
      <trkpt lat="43.91107" lon="7.56073">
        <ele>1183.4421479273</ele>
        <time>2021-11-02T10:17:30Z</time>
      </trkpt>
      <trkpt lat="43.91108" lon="7.56073">
        <ele>1184.4421025352</ele>
        <time>2021-11-02T10:17:31Z</time>
      </trkpt>
      <trkpt lat="43.91108" lon="7.56073">
        <ele>1184.4420630714</ele>
        <time>2021-11-02T10:17:32Z</time>
      </trkpt>
      <trkpt lat="43.91109" lon="7.56073">
        <ele>1185.4420303962</ele>
        <time>2021-11-02T10:17:33Z</time>
      </trkpt>
      <trkpt lat="43.9111" lon="7.56073">
        <ele>1185.4419881008</ele>
        <time>2021-11-02T10:17:35Z</time>
      </trkpt>
      <trkpt lat="43.91111" lon="7.56073">
        <ele>1185.441949487</ele>
        <time>2021-11-02T10:17:36Z</time>
      </trkpt>
      <trkpt lat="43.91111" lon="7.56074">
        <ele>1184.4419297609</ele>
        <time>2021-11-02T10:17:37Z</time>
      </trkpt>
      <trkpt lat="43.91112" lon="7.56074">
        <ele>1184.4419036271</ele>
        <time>2021-11-02T10:17:38Z</time>
      </trkpt>
      <trkpt lat="43.91112" lon="7.56074">
        <ele>1184.4418730593</ele>
        <time>2021-11-02T10:17:39Z</time>
      </trkpt>
      <trkpt lat="43.91113" lon="7.56074">
        <ele>1183.4418341841</ele>
        <time>2021-11-02T10:17:40Z</time>
      </trkpt>
      <trkpt lat="43.91114" lon="7.56074">
        <ele>1183.4418080536</ele>
        <time>2021-11-02T10:17:41Z</time>
      </trkpt>
      <trkpt lat="43.91114" lon="7.56074">
        <ele>1184.441777988</ele>
        <time>2021-11-02T10:17:42Z</time>
      </trkpt>
      <trkpt lat="43.91115" lon="7.56074">
        <ele>1184.4417295819</ele>
        <time>2021-11-02T10:17:43Z</time>
      </trkpt>
      <trkpt lat="43.91116" lon="7.56073">
        <ele>1184.4416882044</ele>
        <time>2021-11-02T10:17:45Z</time>
      </trkpt>
      <trkpt lat="43.91117" lon="7.56073">
        <ele>1184.4416232225</ele>
        <time>2021-11-02T10:17:46Z</time>
      </trkpt>
      <trkpt lat="43.91118" lon="7.56072">
        <ele>1184.4415603513</ele>
        <time>2021-11-02T10:17:47Z</time>
      </trkpt>
      <trkpt lat="43.91119" lon="7.56071">
        <ele>1183.4415019201</ele>
        <time>2021-11-02T10:17:48Z</time>
      </trkpt>
      <trkpt lat="43.9112" lon="7.56071">
        <ele>1183.4414656955</ele>
        <time>2021-11-02T10:17:49Z</time>
      </trkpt>
      <trkpt lat="43.91121" lon="7.56071">
        <ele>1183.4414200666</ele>
        <time>2021-11-02T10:17:50Z</time>
      </trkpt>
      <trkpt lat="43.91122" lon="7.56071">
        <ele>1184.4413463415</ele>
        <time>2021-11-02T10:17:51Z</time>
      </trkpt>
      <trkpt lat="43.91123" lon="7.5607">
        <ele>1184.4412776778</ele>
        <time>2021-11-02T10:17:52Z</time>
      </trkpt>
      <trkpt lat="43.91124" lon="7.5607">
        <ele>1184.4412344328</ele>
        <time>2021-11-02T10:17:53Z</time>
      </trkpt>
      <trkpt lat="43.91125" lon="7.56069">
        <ele>1183.4411939268</ele>
        <time>2021-11-02T10:17:54Z</time>
      </trkpt>
      <trkpt lat="43.91126" lon="7.56069">
        <ele>1183.4411409213</ele>
        <time>2021-11-02T10:17:55Z</time>
      </trkpt>
      <trkpt lat="43.91126" lon="7.56069">
        <ele>1183.4411409213</ele>
        <time>2021-11-02T10:17:57Z</time>
      </trkpt>
      <trkpt lat="43.91127" lon="7.56068">
        <ele>1185.4410656601</ele>
        <time>2021-11-02T10:17:58Z</time>
      </trkpt>
      <trkpt lat="43.91128" lon="7.56067">
        <ele>1186.4410334919</ele>
        <time>2021-11-02T10:17:59Z</time>
      </trkpt>
      <trkpt lat="43.91127" lon="7.56066">
        <ele>1186.4410308195</ele>
        <time>2021-11-02T10:18:06Z</time>
      </trkpt>
      <trkpt lat="43.9113" lon="7.56065">
        <ele>1187.4408949513</ele>
        <time>2021-11-02T10:18:07Z</time>
      </trkpt>
      <trkpt lat="43.9113" lon="7.56064">
        <ele>1188.4408535954</ele>
        <time>2021-11-02T10:18:08Z</time>
      </trkpt>
      <trkpt lat="43.91131" lon="7.56063">
        <ele>1188.4408146819</ele>
        <time>2021-11-02T10:18:09Z</time>
      </trkpt>
      <trkpt lat="43.91132" lon="7.56063">
        <ele>1188.4407700194</ele>
        <time>2021-11-02T10:18:11Z</time>
      </trkpt>
      <trkpt lat="43.91132" lon="7.56063">
        <ele>1188.4407555256</ele>
        <time>2021-11-02T10:18:14Z</time>
      </trkpt>
      <trkpt lat="43.91134" lon="7.56062">
        <ele>1189.440628133</ele>
        <time>2021-11-02T10:18:15Z</time>
      </trkpt>
      <trkpt lat="43.91134" lon="7.56061">
        <ele>1189.4406079067</ele>
        <time>2021-11-02T10:18:16Z</time>
      </trkpt>
      <trkpt lat="43.91135" lon="7.56061">
        <ele>1188.440564174</ele>
        <time>2021-11-02T10:18:17Z</time>
      </trkpt>
      <trkpt lat="43.91136" lon="7.5606">
        <ele>1187.4405252992</ele>
        <time>2021-11-02T10:18:19Z</time>
      </trkpt>
      <trkpt lat="43.91135" lon="7.56059">
        <ele>1187.4405244465</ele>
        <time>2021-11-02T10:18:22Z</time>
      </trkpt>
      <trkpt lat="43.91135" lon="7.56059">
        <ele>1187.4405508383</ele>
        <time>2021-11-02T10:18:23Z</time>
      </trkpt>
      <trkpt lat="43.91135" lon="7.5606">
        <ele>1186.4405658262</ele>
        <time>2021-11-02T10:18:25Z</time>
      </trkpt>
      <trkpt lat="43.91135" lon="7.56058">
        <ele>1186.4405127411</ele>
        <time>2021-11-02T10:18:26Z</time>
      </trkpt>
      <trkpt lat="43.91136" lon="7.56057">
        <ele>1186.4404891026</ele>
        <time>2021-11-02T10:18:27Z</time>
      </trkpt>
      <trkpt lat="43.91137" lon="7.56056">
        <ele>1186.4404203341</ele>
        <time>2021-11-02T10:18:29Z</time>
      </trkpt>
      <trkpt lat="43.91138" lon="7.56055">
        <ele>1186.4403192998</ele>
        <time>2021-11-02T10:18:31Z</time>
      </trkpt>
      <trkpt lat="43.91139" lon="7.56054">
        <ele>1186.4402543998</ele>
        <time>2021-11-02T10:18:32Z</time>
      </trkpt>
      <trkpt lat="43.91141" lon="7.56054">
        <ele>1186.4401947602</ele>
        <time>2021-11-02T10:18:34Z</time>
      </trkpt>
      <trkpt lat="43.91143" lon="7.56053">
        <ele>1184.4400820617</ele>
        <time>2021-11-02T10:18:35Z</time>
      </trkpt>
      <trkpt lat="43.91144" lon="7.56053">
        <ele>1184.4400197006</ele>
        <time>2021-11-02T10:18:36Z</time>
      </trkpt>
      <trkpt lat="43.91144" lon="7.56052">
        <ele>1184.4399873487</ele>
        <time>2021-11-02T10:18:37Z</time>
      </trkpt>
      <trkpt lat="43.91145" lon="7.56052">
        <ele>1184.4399366126</ele>
        <time>2021-11-02T10:18:38Z</time>
      </trkpt>
      <trkpt lat="43.91146" lon="7.56051">
        <ele>1184.4398755028</ele>
        <time>2021-11-02T10:18:39Z</time>
      </trkpt>
      <trkpt lat="43.91146" lon="7.56051">
        <ele>1184.4398755028</ele>
        <time>2021-11-02T10:18:40Z</time>
      </trkpt>
      <trkpt lat="43.91148" lon="7.56051">
        <ele>1184.4397670145</ele>
        <time>2021-11-02T10:18:41Z</time>
      </trkpt>
      <trkpt lat="43.9115" lon="7.5605">
        <ele>1183.4396933472</ele>
        <time>2021-11-02T10:18:42Z</time>
      </trkpt>
      <trkpt lat="43.91151" lon="7.56051">
        <ele>1183.4396193267</ele>
        <time>2021-11-02T10:18:43Z</time>
      </trkpt>
      <trkpt lat="43.91153" lon="7.56051">
        <ele>1182.4395518439</ele>
        <time>2021-11-02T10:18:44Z</time>
      </trkpt>
      <trkpt lat="43.91154" lon="7.56051">
        <ele>1182.4394906616</ele>
        <time>2021-11-02T10:18:45Z</time>
      </trkpt>
      <trkpt lat="43.91155" lon="7.5605">
        <ele>1182.4394395655</ele>
        <time>2021-11-02T10:18:46Z</time>
      </trkpt>
      <trkpt lat="43.91156" lon="7.5605">
        <ele>1182.4393691748</ele>
        <time>2021-11-02T10:18:47Z</time>
      </trkpt>
      <trkpt lat="43.91157" lon="7.5605">
        <ele>1182.4393001741</ele>
        <time>2021-11-02T10:18:48Z</time>
      </trkpt>
      <trkpt lat="43.91159" lon="7.56051">
        <ele>1182.4392365877</ele>
        <time>2021-11-02T10:18:49Z</time>
      </trkpt>
      <trkpt lat="43.9116" lon="7.56051">
        <ele>1182.4391722132</ele>
        <time>2021-11-02T10:18:50Z</time>
      </trkpt>
      <trkpt lat="43.91161" lon="7.56051">
        <ele>1181.4391188185</ele>
        <time>2021-11-02T10:18:51Z</time>
      </trkpt>
      <trkpt lat="43.91162" lon="7.56051">
        <ele>1181.4390658592</ele>
        <time>2021-11-02T10:18:52Z</time>
      </trkpt>
      <trkpt lat="43.91163" lon="7.56051">
        <ele>1181.4390192706</ele>
        <time>2021-11-02T10:18:53Z</time>
      </trkpt>
      <trkpt lat="43.91164" lon="7.56051">
        <ele>1181.4389703623</ele>
        <time>2021-11-02T10:18:54Z</time>
      </trkpt>
      <trkpt lat="43.91166" lon="7.56051">
        <ele>1180.4389033564</ele>
        <time>2021-11-02T10:18:55Z</time>
      </trkpt>
      <trkpt lat="43.91167" lon="7.56051">
        <ele>1181.4388428669</ele>
        <time>2021-11-02T10:18:56Z</time>
      </trkpt>
      <trkpt lat="43.91168" lon="7.5605">
        <ele>1181.4387683892</ele>
        <time>2021-11-02T10:18:57Z</time>
      </trkpt>
      <trkpt lat="43.91169" lon="7.56051">
        <ele>1181.4387167457</ele>
        <time>2021-11-02T10:18:58Z</time>
      </trkpt>
      <trkpt lat="43.9117" lon="7.56051">
        <ele>1181.4386657392</ele>
        <time>2021-11-02T10:18:59Z</time>
      </trkpt>
      <trkpt lat="43.91172" lon="7.56052">
        <ele>1181.4386173812</ele>
        <time>2021-11-02T10:19:00Z</time>
      </trkpt>
      <trkpt lat="43.91173" lon="7.56052">
        <ele>1181.4385731771</ele>
        <time>2021-11-02T10:19:01Z</time>
      </trkpt>
      <trkpt lat="43.91174" lon="7.56053">
        <ele>1181.438520735</ele>
        <time>2021-11-02T10:19:02Z</time>
      </trkpt>
      <trkpt lat="43.91175" lon="7.56054">
        <ele>1181.4384837467</ele>
        <time>2021-11-02T10:19:03Z</time>
      </trkpt>
      <trkpt lat="43.91176" lon="7.56054">
        <ele>1181.4384409226</ele>
        <time>2021-11-02T10:19:04Z</time>
      </trkpt>
      <trkpt lat="43.91177" lon="7.56055">
        <ele>1181.4383945676</ele>
        <time>2021-11-02T10:19:05Z</time>
      </trkpt>
      <trkpt lat="43.91178" lon="7.56055">
        <ele>1181.4383477185</ele>
        <time>2021-11-02T10:19:06Z</time>
      </trkpt>
      <trkpt lat="43.91179" lon="7.56056">
        <ele>1181.4383239443</ele>
        <time>2021-11-02T10:19:07Z</time>
      </trkpt>
      <trkpt lat="43.91179" lon="7.56057">
        <ele>1181.4383098095</ele>
        <time>2021-11-02T10:19:08Z</time>
      </trkpt>
      <trkpt lat="43.9118" lon="7.56057">
        <ele>1181.4382875099</ele>
        <time>2021-11-02T10:19:09Z</time>
      </trkpt>
      <trkpt lat="43.91181" lon="7.56058">
        <ele>1181.4382535416</ele>
        <time>2021-11-02T10:19:10Z</time>
      </trkpt>
      <trkpt lat="43.91182" lon="7.56058">
        <ele>1181.4382131415</ele>
        <time>2021-11-02T10:19:11Z</time>
      </trkpt>
      <trkpt lat="43.91183" lon="7.56059">
        <ele>1181.4381578127</ele>
        <time>2021-11-02T10:19:12Z</time>
      </trkpt>
      <trkpt lat="43.91183" lon="7.56059">
        <ele>1182.4381369218</ele>
        <time>2021-11-02T10:19:13Z</time>
      </trkpt>
      <trkpt lat="43.91184" lon="7.5606">
        <ele>1182.4381159685</ele>
        <time>2021-11-02T10:19:14Z</time>
      </trkpt>
      <trkpt lat="43.91185" lon="7.56062">
        <ele>1181.4381120867</ele>
        <time>2021-11-02T10:19:15Z</time>
      </trkpt>
      <trkpt lat="43.91185" lon="7.56062">
        <ele>1181.4381008283</ele>
        <time>2021-11-02T10:19:16Z</time>
      </trkpt>
      <trkpt lat="43.91186" lon="7.56063">
        <ele>1181.4380794754</ele>
        <time>2021-11-02T10:19:17Z</time>
      </trkpt>
      <trkpt lat="43.91187" lon="7.56063">
        <ele>1181.438035238</ele>
        <time>2021-11-02T10:19:18Z</time>
      </trkpt>
      <trkpt lat="43.91187" lon="7.56064">
        <ele>1181.4380062441</ele>
        <time>2021-11-02T10:19:19Z</time>
      </trkpt>
      <trkpt lat="43.91188" lon="7.56064">
        <ele>1180.4379623717</ele>
        <time>2021-11-02T10:19:20Z</time>
      </trkpt>
      <trkpt lat="43.91189" lon="7.56063">
        <ele>1180.4379190639</ele>
        <time>2021-11-02T10:19:21Z</time>
      </trkpt>
      <trkpt lat="43.9119" lon="7.56063">
        <ele>1180.4378800066</ele>
        <time>2021-11-02T10:19:22Z</time>
      </trkpt>
      <trkpt lat="43.91191" lon="7.56064">
        <ele>1180.437855245</ele>
        <time>2021-11-02T10:19:23Z</time>
      </trkpt>
      <trkpt lat="43.91192" lon="7.56064">
        <ele>1180.4378073385</ele>
        <time>2021-11-02T10:19:24Z</time>
      </trkpt>
      <trkpt lat="43.91193" lon="7.56064">
        <ele>1179.4377566993</ele>
        <time>2021-11-02T10:19:25Z</time>
      </trkpt>
      <trkpt lat="43.91194" lon="7.56065">
        <ele>1179.4377118922</ele>
        <time>2021-11-02T10:19:26Z</time>
      </trkpt>
      <trkpt lat="43.91195" lon="7.56065">
        <ele>1179.4376681079</ele>
        <time>2021-11-02T10:19:27Z</time>
      </trkpt>
      <trkpt lat="43.91196" lon="7.56066">
        <ele>1179.4376199979</ele>
        <time>2021-11-02T10:19:28Z</time>
      </trkpt>
      <trkpt lat="43.91197" lon="7.56066">
        <ele>1179.4375608986</ele>
        <time>2021-11-02T10:19:29Z</time>
      </trkpt>
      <trkpt lat="43.91198" lon="7.56065">
        <ele>1179.4375071325</ele>
        <time>2021-11-02T10:19:30Z</time>
      </trkpt>
      <trkpt lat="43.91198" lon="7.56064">
        <ele>1179.4374806911</ele>
        <time>2021-11-02T10:19:31Z</time>
      </trkpt>
      <trkpt lat="43.91198" lon="7.56063">
        <ele>1179.4374610964</ele>
        <time>2021-11-02T10:19:32Z</time>
      </trkpt>
      <trkpt lat="43.91198" lon="7.56062">
        <ele>1180.4374561721</ele>
        <time>2021-11-02T10:19:45Z</time>
      </trkpt>
      <trkpt lat="43.91199" lon="7.56061">
        <ele>1181.4373917352</ele>
        <time>2021-11-02T10:19:46Z</time>
      </trkpt>
      <trkpt lat="43.91199" lon="7.56062">
        <ele>1180.4373815223</ele>
        <time>2021-11-02T10:19:47Z</time>
      </trkpt>
      <trkpt lat="43.912" lon="7.56063">
        <ele>1180.4373727315</ele>
        <time>2021-11-02T10:19:48Z</time>
      </trkpt>
      <trkpt lat="43.912" lon="7.56064">
        <ele>1180.4373841086</ele>
        <time>2021-11-02T10:19:49Z</time>
      </trkpt>
      <trkpt lat="43.91201" lon="7.56066">
        <ele>1180.4373860524</ele>
        <time>2021-11-02T10:19:50Z</time>
      </trkpt>
      <trkpt lat="43.91201" lon="7.56068">
        <ele>1180.4373803339</ele>
        <time>2021-11-02T10:19:51Z</time>
      </trkpt>
      <trkpt lat="43.91202" lon="7.5607">
        <ele>1180.4373809096</ele>
        <time>2021-11-02T10:19:52Z</time>
      </trkpt>
      <trkpt lat="43.91202" lon="7.56071">
        <ele>1181.4373748935</ele>
        <time>2021-11-02T10:19:53Z</time>
      </trkpt>
      <trkpt lat="43.91202" lon="7.56073">
        <ele>1181.4373946977</ele>
        <time>2021-11-02T10:19:54Z</time>
      </trkpt>
      <trkpt lat="43.91203" lon="7.56075">
        <ele>1181.4374056241</ele>
        <time>2021-11-02T10:19:55Z</time>
      </trkpt>
      <trkpt lat="43.91203" lon="7.56076">
        <ele>1181.4374045163</ele>
        <time>2021-11-02T10:19:56Z</time>
      </trkpt>
      <trkpt lat="43.91204" lon="7.56078">
        <ele>1181.4373631238</ele>
        <time>2021-11-02T10:19:57Z</time>
      </trkpt>
      <trkpt lat="43.91206" lon="7.56078">
        <ele>1180.4372900362</ele>
        <time>2021-11-02T10:19:58Z</time>
      </trkpt>
      <trkpt lat="43.91208" lon="7.56078">
        <ele>1180.4371971879</ele>
        <time>2021-11-02T10:19:59Z</time>
      </trkpt>
      <trkpt lat="43.9121" lon="7.56077">
        <ele>1179.4370965983</ele>
        <time>2021-11-02T10:20:00Z</time>
      </trkpt>
      <trkpt lat="43.91211" lon="7.56077">
        <ele>1179.437013801</ele>
        <time>2021-11-02T10:20:01Z</time>
      </trkpt>
      <trkpt lat="43.91212" lon="7.56077">
        <ele>1179.436960806</ele>
        <time>2021-11-02T10:20:02Z</time>
      </trkpt>
      <trkpt lat="43.91213" lon="7.56077">
        <ele>1179.4368902081</ele>
        <time>2021-11-02T10:20:03Z</time>
      </trkpt>
      <trkpt lat="43.91215" lon="7.56076">
        <ele>1180.4368274641</ele>
        <time>2021-11-02T10:20:04Z</time>
      </trkpt>
      <trkpt lat="43.91216" lon="7.56075">
        <ele>1179.4367431665</ele>
        <time>2021-11-02T10:20:05Z</time>
      </trkpt>
      <trkpt lat="43.91217" lon="7.56074">
        <ele>1179.4366668188</ele>
        <time>2021-11-02T10:20:06Z</time>
      </trkpt>
      <trkpt lat="43.91218" lon="7.56073">
        <ele>1179.4366058396</ele>
        <time>2021-11-02T10:20:07Z</time>
      </trkpt>
      <trkpt lat="43.91219" lon="7.56073">
        <ele>1179.4365447355</ele>
        <time>2021-11-02T10:20:08Z</time>
      </trkpt>
      <trkpt lat="43.91221" lon="7.56073">
        <ele>1180.436466828</ele>
        <time>2021-11-02T10:20:09Z</time>
      </trkpt>
      <trkpt lat="43.91222" lon="7.56072">
        <ele>1180.4363923379</ele>
        <time>2021-11-02T10:20:10Z</time>
      </trkpt>
      <trkpt lat="43.91223" lon="7.56072">
        <ele>1180.4363478879</ele>
        <time>2021-11-02T10:20:11Z</time>
      </trkpt>
      <trkpt lat="43.91225" lon="7.56071">
        <ele>1180.4362556948</ele>
        <time>2021-11-02T10:20:12Z</time>
      </trkpt>
      <trkpt lat="43.91226" lon="7.56071">
        <ele>1180.4362005408</ele>
        <time>2021-11-02T10:20:13Z</time>
      </trkpt>
      <trkpt lat="43.91227" lon="7.56071">
        <ele>1181.4361502682</ele>
        <time>2021-11-02T10:20:14Z</time>
      </trkpt>
      <trkpt lat="43.91228" lon="7.56071">
        <ele>1181.4360992922</ele>
        <time>2021-11-02T10:20:15Z</time>
      </trkpt>
      <trkpt lat="43.91229" lon="7.56071">
        <ele>1181.436044541</ele>
        <time>2021-11-02T10:20:16Z</time>
      </trkpt>
      <trkpt lat="43.9123" lon="7.56071">
        <ele>1181.4359911572</ele>
        <time>2021-11-02T10:20:17Z</time>
      </trkpt>
      <trkpt lat="43.91231" lon="7.56071">
        <ele>1181.4359475552</ele>
        <time>2021-11-02T10:20:18Z</time>
      </trkpt>
      <trkpt lat="43.91232" lon="7.56071">
        <ele>1181.435886113</ele>
        <time>2021-11-02T10:20:19Z</time>
      </trkpt>
      <trkpt lat="43.91233" lon="7.56071">
        <ele>1181.4358278352</ele>
        <time>2021-11-02T10:20:20Z</time>
      </trkpt>
      <trkpt lat="43.91234" lon="7.56072">
        <ele>1182.4357850177</ele>
        <time>2021-11-02T10:20:21Z</time>
      </trkpt>
      <trkpt lat="43.91235" lon="7.56072">
        <ele>1182.4357350246</ele>
        <time>2021-11-02T10:20:22Z</time>
      </trkpt>
      <trkpt lat="43.91237" lon="7.56072">
        <ele>1182.4356629132</ele>
        <time>2021-11-02T10:20:23Z</time>
      </trkpt>
      <trkpt lat="43.91238" lon="7.56072">
        <ele>1181.4355956575</ele>
        <time>2021-11-02T10:20:24Z</time>
      </trkpt>
      <trkpt lat="43.91239" lon="7.56073">
        <ele>1181.4355406707</ele>
        <time>2021-11-02T10:20:25Z</time>
      </trkpt>
      <trkpt lat="43.91241" lon="7.56073">
        <ele>1181.4354803799</ele>
        <time>2021-11-02T10:20:26Z</time>
      </trkpt>
      <trkpt lat="43.91242" lon="7.56072">
        <ele>1181.4354213717</ele>
        <time>2021-11-02T10:20:27Z</time>
      </trkpt>
      <trkpt lat="43.91243" lon="7.56072">
        <ele>1181.4353706614</ele>
        <time>2021-11-02T10:20:28Z</time>
      </trkpt>
      <trkpt lat="43.91244" lon="7.56071">
        <ele>1181.4353159636</ele>
        <time>2021-11-02T10:20:29Z</time>
      </trkpt>
      <trkpt lat="43.91244" lon="7.5607">
        <ele>1181.4352810982</ele>
        <time>2021-11-02T10:20:30Z</time>
      </trkpt>
      <trkpt lat="43.91244" lon="7.56069">
        <ele>1181.4352538174</ele>
        <time>2021-11-02T10:20:31Z</time>
      </trkpt>
      <trkpt lat="43.91245" lon="7.56068">
        <ele>1181.4352009513</ele>
        <time>2021-11-02T10:20:32Z</time>
      </trkpt>
      <trkpt lat="43.91246" lon="7.56067">
        <ele>1181.4351493377</ele>
        <time>2021-11-02T10:20:33Z</time>
      </trkpt>
      <trkpt lat="43.91246" lon="7.56066">
        <ele>1181.4351158382</ele>
        <time>2021-11-02T10:20:34Z</time>
      </trkpt>
      <trkpt lat="43.91247" lon="7.56064">
        <ele>1181.435027433</ele>
        <time>2021-11-02T10:20:36Z</time>
      </trkpt>
      <trkpt lat="43.91248" lon="7.56063">
        <ele>1181.4349989552</ele>
        <time>2021-11-02T10:20:37Z</time>
      </trkpt>
      <trkpt lat="43.91249" lon="7.56062">
        <ele>1181.4349453596</ele>
        <time>2021-11-02T10:20:38Z</time>
      </trkpt>
      <trkpt lat="43.9125" lon="7.56061">
        <ele>1181.4348704192</ele>
        <time>2021-11-02T10:20:40Z</time>
      </trkpt>
      <trkpt lat="43.91251" lon="7.56061">
        <ele>1182.4348153011</ele>
        <time>2021-11-02T10:20:41Z</time>
      </trkpt>
      <trkpt lat="43.91251" lon="7.56059">
        <ele>1182.4347607695</ele>
        <time>2021-11-02T10:20:42Z</time>
      </trkpt>
      <trkpt lat="43.91252" lon="7.56059">
        <ele>1181.4347091848</ele>
        <time>2021-11-02T10:20:44Z</time>
      </trkpt>
      <trkpt lat="43.91254" lon="7.56058">
        <ele>1181.4346131946</ele>
        <time>2021-11-02T10:20:46Z</time>
      </trkpt>
      <trkpt lat="43.91255" lon="7.56057">
        <ele>1182.4345626244</ele>
        <time>2021-11-02T10:20:47Z</time>
      </trkpt>
      <trkpt lat="43.91256" lon="7.56057">
        <ele>1182.4345157629</ele>
        <time>2021-11-02T10:20:48Z</time>
      </trkpt>
      <trkpt lat="43.91257" lon="7.56056">
        <ele>1182.4344247178</ele>
        <time>2021-11-02T10:20:50Z</time>
      </trkpt>
      <trkpt lat="43.91257" lon="7.56055">
        <ele>1182.4344056641</ele>
        <time>2021-11-02T10:20:51Z</time>
      </trkpt>
      <trkpt lat="43.91258" lon="7.56054">
        <ele>1183.4343760329</ele>
        <time>2021-11-02T10:20:52Z</time>
      </trkpt>
      <trkpt lat="43.91258" lon="7.56054">
        <ele>1183.4343448505</ele>
        <time>2021-11-02T10:20:53Z</time>
      </trkpt>
      <trkpt lat="43.91259" lon="7.56053">
        <ele>1183.4342996411</ele>
        <time>2021-11-02T10:20:54Z</time>
      </trkpt>
      <trkpt lat="43.9126" lon="7.5605">
        <ele>1183.4341947661</ele>
        <time>2021-11-02T10:20:56Z</time>
      </trkpt>
      <trkpt lat="43.91261" lon="7.56049">
        <ele>1183.434140886</ele>
        <time>2021-11-02T10:20:57Z</time>
      </trkpt>
      <trkpt lat="43.91261" lon="7.56047">
        <ele>1183.4341108363</ele>
        <time>2021-11-02T10:20:58Z</time>
      </trkpt>
      <trkpt lat="43.91261" lon="7.56046">
        <ele>1183.4340955865</ele>
        <time>2021-11-02T10:20:59Z</time>
      </trkpt>
      <trkpt lat="43.91261" lon="7.56045">
        <ele>1183.4340790245</ele>
        <time>2021-11-02T10:21:00Z</time>
      </trkpt>
      <trkpt lat="43.91262" lon="7.56044">
        <ele>1184.4340391204</ele>
        <time>2021-11-02T10:21:01Z</time>
      </trkpt>
      <trkpt lat="43.91262" lon="7.56043">
        <ele>1184.4339869043</ele>
        <time>2021-11-02T10:21:02Z</time>
      </trkpt>
      <trkpt lat="43.91265" lon="7.56043">
        <ele>1184.4338655706</ele>
        <time>2021-11-02T10:21:04Z</time>
      </trkpt>
      <trkpt lat="43.91266" lon="7.56042">
        <ele>1184.433817355</ele>
        <time>2021-11-02T10:21:05Z</time>
      </trkpt>
      <trkpt lat="43.91267" lon="7.56042">
        <ele>1185.4337582754</ele>
        <time>2021-11-02T10:21:06Z</time>
      </trkpt>
      <trkpt lat="43.91268" lon="7.56042">
        <ele>1185.4337137429</ele>
        <time>2021-11-02T10:21:07Z</time>
      </trkpt>
      <trkpt lat="43.91268" lon="7.56041">
        <ele>1185.4336621603</ele>
        <time>2021-11-02T10:21:08Z</time>
      </trkpt>
      <trkpt lat="43.91269" lon="7.56042">
        <ele>1185.4336251623</ele>
        <time>2021-11-02T10:21:09Z</time>
      </trkpt>
      <trkpt lat="43.91271" lon="7.56041">
        <ele>1186.4335598558</ele>
        <time>2021-11-02T10:21:11Z</time>
      </trkpt>
      <trkpt lat="43.91271" lon="7.56041">
        <ele>1186.433502474</ele>
        <time>2021-11-02T10:21:12Z</time>
      </trkpt>
      <trkpt lat="43.91272" lon="7.56039">
        <ele>1186.4334394904</ele>
        <time>2021-11-02T10:21:13Z</time>
      </trkpt>
      <trkpt lat="43.91273" lon="7.56038">
        <ele>1186.4333779272</ele>
        <time>2021-11-02T10:21:14Z</time>
      </trkpt>
      <trkpt lat="43.91274" lon="7.56038">
        <ele>1186.4333339889</ele>
        <time>2021-11-02T10:21:15Z</time>
      </trkpt>
      <trkpt lat="43.91275" lon="7.56038">
        <ele>1186.4332965749</ele>
        <time>2021-11-02T10:21:16Z</time>
      </trkpt>
      <trkpt lat="43.91276" lon="7.56039">
        <ele>1187.4332503807</ele>
        <time>2021-11-02T10:21:17Z</time>
      </trkpt>
      <trkpt lat="43.91277" lon="7.56038">
        <ele>1187.4331922175</ele>
        <time>2021-11-02T10:21:19Z</time>
      </trkpt>
      <trkpt lat="43.91277" lon="7.56037">
        <ele>1188.4331611517</ele>
        <time>2021-11-02T10:21:21Z</time>
      </trkpt>
      <trkpt lat="43.91277" lon="7.56036">
        <ele>1187.4331583002</ele>
        <time>2021-11-02T10:21:22Z</time>
      </trkpt>
      <trkpt lat="43.91277" lon="7.56035">
        <ele>1187.4331507662</ele>
        <time>2021-11-02T10:21:23Z</time>
      </trkpt>
      <trkpt lat="43.91277" lon="7.56033">
        <ele>1187.4331358064</ele>
        <time>2021-11-02T10:21:24Z</time>
      </trkpt>
      <trkpt lat="43.91277" lon="7.56031">
        <ele>1187.4331067713</ele>
        <time>2021-11-02T10:21:26Z</time>
      </trkpt>
      <trkpt lat="43.91276" lon="7.56029">
        <ele>1187.4331032818</ele>
        <time>2021-11-02T10:21:27Z</time>
      </trkpt>
      <trkpt lat="43.91276" lon="7.56028">
        <ele>1186.433106474</ele>
        <time>2021-11-02T10:21:28Z</time>
      </trkpt>
      <trkpt lat="43.91275" lon="7.56026">
        <ele>1186.4331260089</ele>
        <time>2021-11-02T10:21:29Z</time>
      </trkpt>
      <trkpt lat="43.91274" lon="7.56025">
        <ele>1186.4331601813</ele>
        <time>2021-11-02T10:21:30Z</time>
      </trkpt>
      <trkpt lat="43.91274" lon="7.56026">
        <ele>1186.433177722</ele>
        <time>2021-11-02T10:21:33Z</time>
      </trkpt>
      <trkpt lat="43.91274" lon="7.56028">
        <ele>1186.4331784753</ele>
        <time>2021-11-02T10:21:34Z</time>
      </trkpt>
      <trkpt lat="43.91275" lon="7.56029">
        <ele>1185.4331652222</ele>
        <time>2021-11-02T10:21:35Z</time>
      </trkpt>
      <trkpt lat="43.91275" lon="7.5603">
        <ele>1185.4331662062</ele>
        <time>2021-11-02T10:21:36Z</time>
      </trkpt>
      <trkpt lat="43.91276" lon="7.56031">
        <ele>1185.4331604125</ele>
        <time>2021-11-02T10:21:37Z</time>
      </trkpt>
      <trkpt lat="43.91276" lon="7.56033">
        <ele>1185.4331688666</ele>
        <time>2021-11-02T10:21:38Z</time>
      </trkpt>
      <trkpt lat="43.91277" lon="7.56035">
        <ele>1185.433162339</ele>
        <time>2021-11-02T10:21:39Z</time>
      </trkpt>
      <trkpt lat="43.91277" lon="7.56037">
        <ele>1185.4331840717</ele>
        <time>2021-11-02T10:21:40Z</time>
      </trkpt>
      <trkpt lat="43.91277" lon="7.56038">
        <ele>1184.4331861955</ele>
        <time>2021-11-02T10:21:41Z</time>
      </trkpt>
      <trkpt lat="43.91277" lon="7.56039">
        <ele>1184.4332019568</ele>
        <time>2021-11-02T10:21:43Z</time>
      </trkpt>
      <trkpt lat="43.91277" lon="7.56042">
        <ele>1184.4332310669</ele>
        <time>2021-11-02T10:21:44Z</time>
      </trkpt>
      <trkpt lat="43.91277" lon="7.56043">
        <ele>1184.4332462434</ele>
        <time>2021-11-02T10:21:45Z</time>
      </trkpt>
      <trkpt lat="43.91277" lon="7.56045">
        <ele>1185.4332637765</ele>
        <time>2021-11-02T10:21:46Z</time>
      </trkpt>
      <trkpt lat="43.91278" lon="7.56046">
        <ele>1185.4332692491</ele>
        <time>2021-11-02T10:21:47Z</time>
      </trkpt>
      <trkpt lat="43.91278" lon="7.56047">
        <ele>1184.43325371</ele>
        <time>2021-11-02T10:21:49Z</time>
      </trkpt>
      <trkpt lat="43.91279" lon="7.56049">
        <ele>1184.433223421</ele>
        <time>2021-11-02T10:21:50Z</time>
      </trkpt>
      <trkpt lat="43.9128" lon="7.5605">
        <ele>1184.433225334</ele>
        <time>2021-11-02T10:21:51Z</time>
      </trkpt>
      <trkpt lat="43.9128" lon="7.56051">
        <ele>1185.4332365468</ele>
        <time>2021-11-02T10:21:52Z</time>
      </trkpt>
      <trkpt lat="43.91279" lon="7.56053">
        <ele>1186.4333080911</ele>
        <time>2021-11-02T10:21:54Z</time>
      </trkpt>
      <trkpt lat="43.91279" lon="7.56054">
        <ele>1185.4333429496</ele>
        <time>2021-11-02T10:21:57Z</time>
      </trkpt>
      <trkpt lat="43.91278" lon="7.56056">
        <ele>1185.4333858885</ele>
        <time>2021-11-02T10:21:58Z</time>
      </trkpt>
      <trkpt lat="43.91279" lon="7.56056">
        <ele>1185.4333499109</ele>
        <time>2021-11-02T10:22:00Z</time>
      </trkpt>
      <trkpt lat="43.91279" lon="7.56055">
        <ele>1184.4333244368</ele>
        <time>2021-11-02T10:22:03Z</time>
      </trkpt>
      <trkpt lat="43.91282" lon="7.56055">
        <ele>1184.4331911036</ele>
        <time>2021-11-02T10:22:04Z</time>
      </trkpt>
      <trkpt lat="43.91283" lon="7.56055">
        <ele>1184.433114018</ele>
        <time>2021-11-02T10:22:06Z</time>
      </trkpt>
      <trkpt lat="43.91284" lon="7.56055">
        <ele>1184.4330700721</ele>
        <time>2021-11-02T10:22:07Z</time>
      </trkpt>
      <trkpt lat="43.91285" lon="7.56055">
        <ele>1183.4330210483</ele>
        <time>2021-11-02T10:22:08Z</time>
      </trkpt>
      <trkpt lat="43.91286" lon="7.56055">
        <ele>1183.4329995741</ele>
        <time>2021-11-02T10:22:11Z</time>
      </trkpt>
      <trkpt lat="43.91287" lon="7.56056">
        <ele>1182.4329650649</ele>
        <time>2021-11-02T10:22:12Z</time>
      </trkpt>
      <trkpt lat="43.91288" lon="7.56056">
        <ele>1181.4328934957</ele>
        <time>2021-11-02T10:22:14Z</time>
      </trkpt>
      <trkpt lat="43.91289" lon="7.56057">
        <ele>1180.4328899165</ele>
        <time>2021-11-02T10:22:15Z</time>
      </trkpt>
      <trkpt lat="43.91289" lon="7.56059">
        <ele>1180.4328879151</ele>
        <time>2021-11-02T10:22:16Z</time>
      </trkpt>
      <trkpt lat="43.9129" lon="7.5606">
        <ele>1179.4328682586</ele>
        <time>2021-11-02T10:22:17Z</time>
      </trkpt>
      <trkpt lat="43.9129" lon="7.5606">
        <ele>1179.4328682586</ele>
        <time>2021-11-02T10:22:19Z</time>
      </trkpt>
      <trkpt lat="43.91292" lon="7.56062">
        <ele>1177.4327751314</ele>
        <time>2021-11-02T10:22:20Z</time>
      </trkpt>
      <trkpt lat="43.91293" lon="7.56063">
        <ele>1176.4327392852</ele>
        <time>2021-11-02T10:22:21Z</time>
      </trkpt>
      <trkpt lat="43.91294" lon="7.56064">
        <ele>1176.4327248577</ele>
        <time>2021-11-02T10:22:22Z</time>
      </trkpt>
      <trkpt lat="43.91295" lon="7.56066">
        <ele>1175.4327030355</ele>
        <time>2021-11-02T10:22:23Z</time>
      </trkpt>
      <trkpt lat="43.91295" lon="7.56067">
        <ele>1174.4326882493</ele>
        <time>2021-11-02T10:22:24Z</time>
      </trkpt>
      <trkpt lat="43.91296" lon="7.56068">
        <ele>1174.4326715499</ele>
        <time>2021-11-02T10:22:25Z</time>
      </trkpt>
      <trkpt lat="43.91296" lon="7.56068">
        <ele>1173.4326455878</ele>
        <time>2021-11-02T10:22:26Z</time>
      </trkpt>
      <trkpt lat="43.91297" lon="7.56069">
        <ele>1173.4326087828</ele>
        <time>2021-11-02T10:22:32Z</time>
      </trkpt>
      <trkpt lat="43.91298" lon="7.56069">
        <ele>1173.4325979036</ele>
        <time>2021-11-02T10:22:40Z</time>
      </trkpt>
      <trkpt lat="43.91299" lon="7.56069">
        <ele>1174.4325181356</ele>
        <time>2021-11-02T10:22:41Z</time>
      </trkpt>
      <trkpt lat="43.913" lon="7.56069">
        <ele>1175.4324885858</ele>
        <time>2021-11-02T10:22:42Z</time>
      </trkpt>
      <trkpt lat="43.913" lon="7.56069">
        <ele>1174.432467952</ele>
        <time>2021-11-02T10:22:43Z</time>
      </trkpt>
      <trkpt lat="43.91301" lon="7.56069">
        <ele>1173.4324347268</ele>
        <time>2021-11-02T10:22:44Z</time>
      </trkpt>
      <trkpt lat="43.91302" lon="7.56069">
        <ele>1174.4323986012</ele>
        <time>2021-11-02T10:22:48Z</time>
      </trkpt>
      <trkpt lat="43.91303" lon="7.5607">
        <ele>1174.4323459316</ele>
        <time>2021-11-02T10:22:49Z</time>
      </trkpt>
      <trkpt lat="43.91304" lon="7.5607">
        <ele>1175.4323099216</ele>
        <time>2021-11-02T10:22:59Z</time>
      </trkpt>
      <trkpt lat="43.91305" lon="7.56071">
        <ele>1175.4322857814</ele>
        <time>2021-11-02T10:23:00Z</time>
      </trkpt>
      <trkpt lat="43.91305" lon="7.56071">
        <ele>1175.4322745975</ele>
        <time>2021-11-02T10:23:09Z</time>
      </trkpt>
      <trkpt lat="43.91306" lon="7.56071">
        <ele>1174.4322120954</ele>
        <time>2021-11-02T10:23:10Z</time>
      </trkpt>
      <trkpt lat="43.91305" lon="7.56071">
        <ele>1175.4322421374</ele>
        <time>2021-11-02T10:23:15Z</time>
      </trkpt>
      <trkpt lat="43.91305" lon="7.56072">
        <ele>1175.4322948417</ele>
        <time>2021-11-02T10:23:16Z</time>
      </trkpt>
      <trkpt lat="43.91305" lon="7.56073">
        <ele>1175.4323014589</ele>
        <time>2021-11-02T10:23:18Z</time>
      </trkpt>
      <trkpt lat="43.91305" lon="7.56074">
        <ele>1175.4323198702</ele>
        <time>2021-11-02T10:23:19Z</time>
      </trkpt>
      <trkpt lat="43.91305" lon="7.56075">
        <ele>1175.4323160298</ele>
        <time>2021-11-02T10:23:20Z</time>
      </trkpt>
      <trkpt lat="43.91306" lon="7.56076">
        <ele>1175.4322985104</ele>
        <time>2021-11-02T10:23:21Z</time>
      </trkpt>
      <trkpt lat="43.91306" lon="7.56076">
        <ele>1175.4322721558</ele>
        <time>2021-11-02T10:23:22Z</time>
      </trkpt>
      <trkpt lat="43.91307" lon="7.56076">
        <ele>1175.4322387129</ele>
        <time>2021-11-02T10:23:23Z</time>
      </trkpt>
      <trkpt lat="43.91308" lon="7.56077">
        <ele>1175.432209357</ele>
        <time>2021-11-02T10:23:24Z</time>
      </trkpt>
      <trkpt lat="43.91309" lon="7.56077">
        <ele>1176.4321246922</ele>
        <time>2021-11-02T10:23:26Z</time>
      </trkpt>
      <trkpt lat="43.91311" lon="7.56076">
        <ele>1176.4320560603</ele>
        <time>2021-11-02T10:23:27Z</time>
      </trkpt>
      <trkpt lat="43.91312" lon="7.56076">
        <ele>1176.4320003592</ele>
        <time>2021-11-02T10:23:28Z</time>
      </trkpt>
      <trkpt lat="43.91313" lon="7.56076">
        <ele>1176.4319421535</ele>
        <time>2021-11-02T10:23:30Z</time>
      </trkpt>
      <trkpt lat="43.91314" lon="7.56076">
        <ele>1176.4318979585</ele>
        <time>2021-11-02T10:23:31Z</time>
      </trkpt>
      <trkpt lat="43.91314" lon="7.56076">
        <ele>1175.431867228</ele>
        <time>2021-11-02T10:23:32Z</time>
      </trkpt>
      <trkpt lat="43.91316" lon="7.56076">
        <ele>1175.4318136437</ele>
        <time>2021-11-02T10:23:35Z</time>
      </trkpt>
      <trkpt lat="43.91317" lon="7.56076">
        <ele>1175.4317539539</ele>
        <time>2021-11-02T10:23:36Z</time>
      </trkpt>
      <trkpt lat="43.91317" lon="7.56075">
        <ele>1174.4316939228</ele>
        <time>2021-11-02T10:23:37Z</time>
      </trkpt>
      <trkpt lat="43.91318" lon="7.56074">
        <ele>1174.431643106</ele>
        <time>2021-11-02T10:23:39Z</time>
      </trkpt>
      <trkpt lat="43.91319" lon="7.56072">
        <ele>1174.4315923659</ele>
        <time>2021-11-02T10:23:40Z</time>
      </trkpt>
      <trkpt lat="43.91319" lon="7.56071">
        <ele>1175.4315543425</ele>
        <time>2021-11-02T10:23:41Z</time>
      </trkpt>
      <trkpt lat="43.9132" lon="7.56071">
        <ele>1175.4315213942</ele>
        <time>2021-11-02T10:23:43Z</time>
      </trkpt>
      <trkpt lat="43.9132" lon="7.56068">
        <ele>1175.4314635542</ele>
        <time>2021-11-02T10:23:44Z</time>
      </trkpt>
      <trkpt lat="43.91321" lon="7.56066">
        <ele>1175.4314256731</ele>
        <time>2021-11-02T10:23:46Z</time>
      </trkpt>
      <trkpt lat="43.91321" lon="7.56066">
        <ele>1175.4313956092</ele>
        <time>2021-11-02T10:23:47Z</time>
      </trkpt>
      <trkpt lat="43.91322" lon="7.56065">
        <ele>1175.4313388782</ele>
        <time>2021-11-02T10:23:49Z</time>
      </trkpt>
      <trkpt lat="43.91324" lon="7.56063">
        <ele>1174.4312078647</ele>
        <time>2021-11-02T10:23:50Z</time>
      </trkpt>
      <trkpt lat="43.91325" lon="7.56062">
        <ele>1174.4311422057</ele>
        <time>2021-11-02T10:23:51Z</time>
      </trkpt>
      <trkpt lat="43.91326" lon="7.56062">
        <ele>1174.4310904047</ele>
        <time>2021-11-02T10:23:52Z</time>
      </trkpt>
      <trkpt lat="43.91328" lon="7.5606">
        <ele>1173.4309591971</ele>
        <time>2021-11-02T10:23:55Z</time>
      </trkpt>
      <trkpt lat="43.91329" lon="7.56057">
        <ele>1174.430853988</ele>
        <time>2021-11-02T10:23:56Z</time>
      </trkpt>
      <trkpt lat="43.9133" lon="7.56055">
        <ele>1174.4307923737</ele>
        <time>2021-11-02T10:23:57Z</time>
      </trkpt>
      <trkpt lat="43.91331" lon="7.56054">
        <ele>1174.4307243961</ele>
        <time>2021-11-02T10:23:58Z</time>
      </trkpt>
      <trkpt lat="43.91333" lon="7.56053">
        <ele>1174.4306278889</ele>
        <time>2021-11-02T10:24:00Z</time>
      </trkpt>
      <trkpt lat="43.91333" lon="7.56053">
        <ele>1174.4306019472</ele>
        <time>2021-11-02T10:24:01Z</time>
      </trkpt>
      <trkpt lat="43.91334" lon="7.56051">
        <ele>1173.430551208</ele>
        <time>2021-11-02T10:24:02Z</time>
      </trkpt>
      <trkpt lat="43.91336" lon="7.5605">
        <ele>1174.4304467203</ele>
        <time>2021-11-02T10:24:04Z</time>
      </trkpt>
      <trkpt lat="43.91337" lon="7.56049">
        <ele>1174.4303670248</ele>
        <time>2021-11-02T10:24:06Z</time>
      </trkpt>
      <trkpt lat="43.91338" lon="7.56048">
        <ele>1173.4303141018</ele>
        <time>2021-11-02T10:24:07Z</time>
      </trkpt>
      <trkpt lat="43.91338" lon="7.56048">
        <ele>1173.4302769486</ele>
        <time>2021-11-02T10:24:08Z</time>
      </trkpt>
      <trkpt lat="43.91339" lon="7.56046">
        <ele>1173.4302314484</ele>
        <time>2021-11-02T10:24:10Z</time>
      </trkpt>
      <trkpt lat="43.9134" lon="7.56046">
        <ele>1173.4301880873</ele>
        <time>2021-11-02T10:24:12Z</time>
      </trkpt>
      <trkpt lat="43.91341" lon="7.56045">
        <ele>1173.4301183532</ele>
        <time>2021-11-02T10:24:13Z</time>
      </trkpt>
      <trkpt lat="43.91341" lon="7.56043">
        <ele>1172.4300648194</ele>
        <time>2021-11-02T10:24:14Z</time>
      </trkpt>
      <trkpt lat="43.91342" lon="7.56042">
        <ele>1172.4300167108</ele>
        <time>2021-11-02T10:24:15Z</time>
      </trkpt>
      <trkpt lat="43.91343" lon="7.56041">
        <ele>1171.4299424623</ele>
        <time>2021-11-02T10:24:16Z</time>
      </trkpt>
      <trkpt lat="43.91344" lon="7.5604">
        <ele>1171.4298739109</ele>
        <time>2021-11-02T10:24:17Z</time>
      </trkpt>
      <trkpt lat="43.91346" lon="7.56039">
        <ele>1170.4298000994</ele>
        <time>2021-11-02T10:24:18Z</time>
      </trkpt>
      <trkpt lat="43.91347" lon="7.56038">
        <ele>1169.4297376131</ele>
        <time>2021-11-02T10:24:19Z</time>
      </trkpt>
      <trkpt lat="43.91348" lon="7.56038">
        <ele>1168.4296620515</ele>
        <time>2021-11-02T10:24:20Z</time>
      </trkpt>
      <trkpt lat="43.9135" lon="7.56038">
        <ele>1168.4295808581</ele>
        <time>2021-11-02T10:24:21Z</time>
      </trkpt>
      <trkpt lat="43.91351" lon="7.56038">
        <ele>1169.4295062597</ele>
        <time>2021-11-02T10:24:22Z</time>
      </trkpt>
      <trkpt lat="43.91353" lon="7.56038">
        <ele>1169.4294300127</ele>
        <time>2021-11-02T10:24:23Z</time>
      </trkpt>
      <trkpt lat="43.91354" lon="7.56037">
        <ele>1169.4293635024</ele>
        <time>2021-11-02T10:24:24Z</time>
      </trkpt>
      <trkpt lat="43.91355" lon="7.56036">
        <ele>1169.4292992038</ele>
        <time>2021-11-02T10:24:25Z</time>
      </trkpt>
      <trkpt lat="43.91356" lon="7.56035">
        <ele>1170.4292310019</ele>
        <time>2021-11-02T10:24:26Z</time>
      </trkpt>
      <trkpt lat="43.91357" lon="7.56035">
        <ele>1171.4291854821</ele>
        <time>2021-11-02T10:24:27Z</time>
      </trkpt>
      <trkpt lat="43.91358" lon="7.56034">
        <ele>1172.4291282059</ele>
        <time>2021-11-02T10:24:29Z</time>
      </trkpt>
      <trkpt lat="43.91359" lon="7.56032">
        <ele>1173.4290644509</ele>
        <time>2021-11-02T10:24:31Z</time>
      </trkpt>
      <trkpt lat="43.91359" lon="7.56031">
        <ele>1174.4290414517</ele>
        <time>2021-11-02T10:24:32Z</time>
      </trkpt>
      <trkpt lat="43.91359" lon="7.5603">
        <ele>1174.4290019996</ele>
        <time>2021-11-02T10:24:33Z</time>
      </trkpt>
      <trkpt lat="43.9136" lon="7.56027">
        <ele>1174.4289015682</ele>
        <time>2021-11-02T10:24:35Z</time>
      </trkpt>
      <trkpt lat="43.91362" lon="7.56027">
        <ele>1174.4288351089</ele>
        <time>2021-11-02T10:24:36Z</time>
      </trkpt>
      <trkpt lat="43.91363" lon="7.56026">
        <ele>1174.4287532712</ele>
        <time>2021-11-02T10:24:37Z</time>
      </trkpt>
      <trkpt lat="43.91364" lon="7.56025">
        <ele>1174.4286857835</ele>
        <time>2021-11-02T10:24:38Z</time>
      </trkpt>
      <trkpt lat="43.91365" lon="7.56023">
        <ele>1175.428627496</ele>
        <time>2021-11-02T10:24:39Z</time>
      </trkpt>
      <trkpt lat="43.91367" lon="7.5602">
        <ele>1176.42847796</ele>
        <time>2021-11-02T10:24:41Z</time>
      </trkpt>
      <trkpt lat="43.91368" lon="7.56019">
        <ele>1177.4284085762</ele>
        <time>2021-11-02T10:24:42Z</time>
      </trkpt>
      <trkpt lat="43.91369" lon="7.56018">
        <ele>1177.4283250981</ele>
        <time>2021-11-02T10:24:43Z</time>
      </trkpt>
      <trkpt lat="43.91372" lon="7.56017">
        <ele>1178.4281797865</ele>
        <time>2021-11-02T10:24:45Z</time>
      </trkpt>
      <trkpt lat="43.91373" lon="7.56016">
        <ele>1179.4281081373</ele>
        <time>2021-11-02T10:24:46Z</time>
      </trkpt>
      <trkpt lat="43.91374" lon="7.56015">
        <ele>1179.4280398132</ele>
        <time>2021-11-02T10:24:47Z</time>
      </trkpt>
      <trkpt lat="43.91375" lon="7.56014">
        <ele>1179.428006282</ele>
        <time>2021-11-02T10:24:49Z</time>
      </trkpt>
      <trkpt lat="43.91375" lon="7.56013">
        <ele>1180.4279795385</ele>
        <time>2021-11-02T10:24:51Z</time>
      </trkpt>
      <trkpt lat="43.91376" lon="7.56013">
        <ele>1180.4279336962</ele>
        <time>2021-11-02T10:24:52Z</time>
      </trkpt>
      <trkpt lat="43.91377" lon="7.56013">
        <ele>1181.4278814019</ele>
        <time>2021-11-02T10:24:53Z</time>
      </trkpt>
      <trkpt lat="43.91378" lon="7.56012">
        <ele>1181.4278182455</ele>
        <time>2021-11-02T10:24:55Z</time>
      </trkpt>
      <trkpt lat="43.91378" lon="7.56012">
        <ele>1181.4278003097</ele>
        <time>2021-11-02T10:24:56Z</time>
      </trkpt>
      <trkpt lat="43.91379" lon="7.56011">
        <ele>1181.427767975</ele>
        <time>2021-11-02T10:24:57Z</time>
      </trkpt>
      <trkpt lat="43.91379" lon="7.5601">
        <ele>1182.4277262858</ele>
        <time>2021-11-02T10:24:58Z</time>
      </trkpt>
      <trkpt lat="43.9138" lon="7.5601">
        <ele>1182.4277008915</ele>
        <time>2021-11-02T10:24:59Z</time>
      </trkpt>
      <trkpt lat="43.91381" lon="7.5601">
        <ele>1182.4276566205</ele>
        <time>2021-11-02T10:25:00Z</time>
      </trkpt>
      <trkpt lat="43.91382" lon="7.5601">
        <ele>1183.4276061827</ele>
        <time>2021-11-02T10:25:01Z</time>
      </trkpt>
      <trkpt lat="43.91382" lon="7.56009">
        <ele>1183.4275582373</ele>
        <time>2021-11-02T10:25:02Z</time>
      </trkpt>
      <trkpt lat="43.91383" lon="7.56008">
        <ele>1183.4275312734</ele>
        <time>2021-11-02T10:25:03Z</time>
      </trkpt>
      <trkpt lat="43.91383" lon="7.56007">
        <ele>1183.4274991321</ele>
        <time>2021-11-02T10:25:05Z</time>
      </trkpt>
      <trkpt lat="43.91384" lon="7.56007">
        <ele>1184.4274614042</ele>
        <time>2021-11-02T10:25:06Z</time>
      </trkpt>
      <trkpt lat="43.91385" lon="7.56007">
        <ele>1184.4274193798</ele>
        <time>2021-11-02T10:25:07Z</time>
      </trkpt>
      <trkpt lat="43.91385" lon="7.56006">
        <ele>1184.4273837546</ele>
        <time>2021-11-02T10:25:08Z</time>
      </trkpt>
      <trkpt lat="43.91386" lon="7.56005">
        <ele>1184.4273394208</ele>
        <time>2021-11-02T10:25:09Z</time>
      </trkpt>
      <trkpt lat="43.91386" lon="7.56004">
        <ele>1184.4272928944</ele>
        <time>2021-11-02T10:25:10Z</time>
      </trkpt>
      <trkpt lat="43.91387" lon="7.56003">
        <ele>1185.4272435059</ele>
        <time>2021-11-02T10:25:11Z</time>
      </trkpt>
      <trkpt lat="43.91388" lon="7.56002">
        <ele>1184.427198532</ele>
        <time>2021-11-02T10:25:12Z</time>
      </trkpt>
      <trkpt lat="43.91389" lon="7.56001">
        <ele>1184.4271487324</ele>
        <time>2021-11-02T10:25:13Z</time>
      </trkpt>
      <trkpt lat="43.91389" lon="7.56">
        <ele>1184.4271090051</ele>
        <time>2021-11-02T10:25:14Z</time>
      </trkpt>
      <trkpt lat="43.9139" lon="7.56">
        <ele>1184.4270767854</ele>
        <time>2021-11-02T10:25:15Z</time>
      </trkpt>
      <trkpt lat="43.9139" lon="7.56">
        <ele>1184.4270586548</ele>
        <time>2021-11-02T10:25:16Z</time>
      </trkpt>
      <trkpt lat="43.9139" lon="7.55999">
        <ele>1183.4270196</ele>
        <time>2021-11-02T10:25:17Z</time>
      </trkpt>
      <trkpt lat="43.91391" lon="7.55998">
        <ele>1183.4269799692</ele>
        <time>2021-11-02T10:25:18Z</time>
      </trkpt>
      <trkpt lat="43.91392" lon="7.55998">
        <ele>1184.4269470373</ele>
        <time>2021-11-02T10:25:19Z</time>
      </trkpt>
      <trkpt lat="43.91392" lon="7.55997">
        <ele>1183.4269428585</ele>
        <time>2021-11-02T10:25:20Z</time>
      </trkpt>
      <trkpt lat="43.91392" lon="7.55996">
        <ele>1184.4269187732</ele>
        <time>2021-11-02T10:25:22Z</time>
      </trkpt>
      <trkpt lat="43.91393" lon="7.55995">
        <ele>1184.4268518533</ele>
        <time>2021-11-02T10:25:23Z</time>
      </trkpt>
      <trkpt lat="43.91394" lon="7.55994">
        <ele>1184.4267860425</ele>
        <time>2021-11-02T10:25:24Z</time>
      </trkpt>
      <trkpt lat="43.91395" lon="7.55993">
        <ele>1185.4267177177</ele>
        <time>2021-11-02T10:25:25Z</time>
      </trkpt>
      <trkpt lat="43.91396" lon="7.55993">
        <ele>1185.4266741271</ele>
        <time>2021-11-02T10:25:26Z</time>
      </trkpt>
      <trkpt lat="43.91396" lon="7.55992">
        <ele>1185.4266614327</ele>
        <time>2021-11-02T10:25:28Z</time>
      </trkpt>
      <trkpt lat="43.91396" lon="7.55991">
        <ele>1185.426645921</ele>
        <time>2021-11-02T10:25:29Z</time>
      </trkpt>
      <trkpt lat="43.91396" lon="7.5599">
        <ele>1185.4266142695</ele>
        <time>2021-11-02T10:25:31Z</time>
      </trkpt>
      <trkpt lat="43.91397" lon="7.5599">
        <ele>1185.4265827096</ele>
        <time>2021-11-02T10:25:32Z</time>
      </trkpt>
      <trkpt lat="43.91397" lon="7.55989">
        <ele>1185.4265418696</ele>
        <time>2021-11-02T10:25:33Z</time>
      </trkpt>
      <trkpt lat="43.91398" lon="7.55989">
        <ele>1185.4264897387</ele>
        <time>2021-11-02T10:25:34Z</time>
      </trkpt>
      <trkpt lat="43.91399" lon="7.55988">
        <ele>1186.4264393434</ele>
        <time>2021-11-02T10:25:35Z</time>
      </trkpt>
      <trkpt lat="43.914" lon="7.55988">
        <ele>1185.426403743</ele>
        <time>2021-11-02T10:25:36Z</time>
      </trkpt>
      <trkpt lat="43.91401" lon="7.55989">
        <ele>1185.4263770231</ele>
        <time>2021-11-02T10:25:37Z</time>
      </trkpt>
      <trkpt lat="43.91401" lon="7.55989">
        <ele>1186.4263420905</ele>
        <time>2021-11-02T10:25:38Z</time>
      </trkpt>
      <trkpt lat="43.91402" lon="7.55989">
        <ele>1186.4262927288</ele>
        <time>2021-11-02T10:25:39Z</time>
      </trkpt>
      <trkpt lat="43.91403" lon="7.55989">
        <ele>1186.4262437615</ele>
        <time>2021-11-02T10:25:40Z</time>
      </trkpt>
      <trkpt lat="43.91404" lon="7.55989">
        <ele>1187.4262238347</ele>
        <time>2021-11-02T10:25:41Z</time>
      </trkpt>
      <trkpt lat="43.91405" lon="7.55989">
        <ele>1187.4261807771</ele>
        <time>2021-11-02T10:25:42Z</time>
      </trkpt>
      <trkpt lat="43.91405" lon="7.55989">
        <ele>1187.426138918</ele>
        <time>2021-11-02T10:25:43Z</time>
      </trkpt>
      <trkpt lat="43.91406" lon="7.55988">
        <ele>1187.4260939941</ele>
        <time>2021-11-02T10:25:44Z</time>
      </trkpt>
      <trkpt lat="43.91406" lon="7.55987">
        <ele>1187.4260801378</ele>
        <time>2021-11-02T10:25:52Z</time>
      </trkpt>
      <trkpt lat="43.91408" lon="7.55986">
        <ele>1187.4259684979</ele>
        <time>2021-11-02T10:25:54Z</time>
      </trkpt>
      <trkpt lat="43.91409" lon="7.55986">
        <ele>1187.4258984662</ele>
        <time>2021-11-02T10:25:55Z</time>
      </trkpt>
      <trkpt lat="43.9141" lon="7.55985">
        <ele>1187.4258660102</ele>
        <time>2021-11-02T10:25:56Z</time>
      </trkpt>
      <trkpt lat="43.91411" lon="7.55985">
        <ele>1186.425815223</ele>
        <time>2021-11-02T10:25:57Z</time>
      </trkpt>
      <trkpt lat="43.91412" lon="7.55985">
        <ele>1186.4257683183</ele>
        <time>2021-11-02T10:25:58Z</time>
      </trkpt>
      <trkpt lat="43.91412" lon="7.55985">
        <ele>1185.4257355269</ele>
        <time>2021-11-02T10:25:59Z</time>
      </trkpt>
      <trkpt lat="43.91413" lon="7.55984">
        <ele>1185.4257067159</ele>
        <time>2021-11-02T10:26:00Z</time>
      </trkpt>
      <trkpt lat="43.91413" lon="7.55983">
        <ele>1185.4256707565</ele>
        <time>2021-11-02T10:26:01Z</time>
      </trkpt>
      <trkpt lat="43.91414" lon="7.55982">
        <ele>1185.4256131167</ele>
        <time>2021-11-02T10:26:02Z</time>
      </trkpt>
      <trkpt lat="43.91416" lon="7.55981">
        <ele>1184.4255338677</ele>
        <time>2021-11-02T10:26:04Z</time>
      </trkpt>
      <trkpt lat="43.91417" lon="7.55981">
        <ele>1184.4254318174</ele>
        <time>2021-11-02T10:26:06Z</time>
      </trkpt>
      <trkpt lat="43.91418" lon="7.5598">
        <ele>1184.4253798605</ele>
        <time>2021-11-02T10:26:07Z</time>
      </trkpt>
      <trkpt lat="43.9142" lon="7.55979">
        <ele>1183.4252941334</ele>
        <time>2021-11-02T10:26:09Z</time>
      </trkpt>
      <trkpt lat="43.91422" lon="7.55978">
        <ele>1184.4251884188</ele>
        <time>2021-11-02T10:26:11Z</time>
      </trkpt>
      <trkpt lat="43.91423" lon="7.55978">
        <ele>1185.4251279081</ele>
        <time>2021-11-02T10:26:12Z</time>
      </trkpt>
      <trkpt lat="43.91425" lon="7.55978">
        <ele>1184.4249994848</ele>
        <time>2021-11-02T10:26:14Z</time>
      </trkpt>
      <trkpt lat="43.91428" lon="7.55978">
        <ele>1185.4248814801</ele>
        <time>2021-11-02T10:26:16Z</time>
      </trkpt>
      <trkpt lat="43.91429" lon="7.55978">
        <ele>1186.424820882</ele>
        <time>2021-11-02T10:26:17Z</time>
      </trkpt>
      <trkpt lat="43.9143" lon="7.55978">
        <ele>1186.4247969431</ele>
        <time>2021-11-02T10:26:19Z</time>
      </trkpt>
      <trkpt lat="43.91431" lon="7.5598">
        <ele>1186.4247202979</ele>
        <time>2021-11-02T10:26:20Z</time>
      </trkpt>
      <trkpt lat="43.91433" lon="7.55979">
        <ele>1187.4246388546</ele>
        <time>2021-11-02T10:26:21Z</time>
      </trkpt>
      <trkpt lat="43.91434" lon="7.55979">
        <ele>1188.4245886343</ele>
        <time>2021-11-02T10:26:22Z</time>
      </trkpt>
      <trkpt lat="43.91435" lon="7.55978">
        <ele>1188.4245057488</ele>
        <time>2021-11-02T10:26:24Z</time>
      </trkpt>
      <trkpt lat="43.91437" lon="7.55977">
        <ele>1188.4244176915</ele>
        <time>2021-11-02T10:26:26Z</time>
      </trkpt>
      <trkpt lat="43.91437" lon="7.55976">
        <ele>1188.4243738198</ele>
        <time>2021-11-02T10:26:27Z</time>
      </trkpt>
      <trkpt lat="43.91438" lon="7.55975">
        <ele>1189.4243341346</ele>
        <time>2021-11-02T10:26:29Z</time>
      </trkpt>
      <trkpt lat="43.91438" lon="7.55974">
        <ele>1189.4243055972</ele>
        <time>2021-11-02T10:26:30Z</time>
      </trkpt>
      <trkpt lat="43.91439" lon="7.55973">
        <ele>1190.4242549506</ele>
        <time>2021-11-02T10:26:31Z</time>
      </trkpt>
      <trkpt lat="43.9144" lon="7.55973">
        <ele>1190.4242075363</ele>
        <time>2021-11-02T10:26:32Z</time>
      </trkpt>
      <trkpt lat="43.91442" lon="7.55973">
        <ele>1189.4241272198</ele>
        <time>2021-11-02T10:26:34Z</time>
      </trkpt>
      <trkpt lat="43.91443" lon="7.55974">
        <ele>1189.4240637257</ele>
        <time>2021-11-02T10:26:36Z</time>
      </trkpt>
      <trkpt lat="43.91444" lon="7.55973">
        <ele>1189.4240221331</ele>
        <time>2021-11-02T10:26:39Z</time>
      </trkpt>
      <trkpt lat="43.91446" lon="7.55973">
        <ele>1188.4239116785</ele>
        <time>2021-11-02T10:26:41Z</time>
      </trkpt>
      <trkpt lat="43.91447" lon="7.55973">
        <ele>1189.4238737046</ele>
        <time>2021-11-02T10:26:45Z</time>
      </trkpt>
      <trkpt lat="43.91448" lon="7.55972">
        <ele>1188.4237838125</ele>
        <time>2021-11-02T10:26:46Z</time>
      </trkpt>
      <trkpt lat="43.91449" lon="7.55971">
        <ele>1188.4237463841</ele>
        <time>2021-11-02T10:26:47Z</time>
      </trkpt>
      <trkpt lat="43.91449" lon="7.5597">
        <ele>1188.4237158223</ele>
        <time>2021-11-02T10:26:48Z</time>
      </trkpt>
      <trkpt lat="43.9145" lon="7.5597">
        <ele>1188.4236819231</ele>
        <time>2021-11-02T10:26:49Z</time>
      </trkpt>
      <trkpt lat="43.9145" lon="7.55969">
        <ele>1187.4236641207</ele>
        <time>2021-11-02T10:26:50Z</time>
      </trkpt>
      <trkpt lat="43.9145" lon="7.55969">
        <ele>1187.4236319124</ele>
        <time>2021-11-02T10:26:53Z</time>
      </trkpt>
      <trkpt lat="43.91451" lon="7.55967">
        <ele>1188.4235662287</ele>
        <time>2021-11-02T10:26:54Z</time>
      </trkpt>
      <trkpt lat="43.91452" lon="7.55967">
        <ele>1188.4235375837</ele>
        <time>2021-11-02T10:26:55Z</time>
      </trkpt>
      <trkpt lat="43.91453" lon="7.55966">
        <ele>1188.4234915533</ele>
        <time>2021-11-02T10:26:58Z</time>
      </trkpt>
      <trkpt lat="43.91454" lon="7.55965">
        <ele>1189.4233835055</ele>
        <time>2021-11-02T10:27:00Z</time>
      </trkpt>
      <trkpt lat="43.91456" lon="7.55965">
        <ele>1189.4233185863</ele>
        <time>2021-11-02T10:27:01Z</time>
      </trkpt>
      <trkpt lat="43.91457" lon="7.55964">
        <ele>1189.4232437519</ele>
        <time>2021-11-02T10:27:02Z</time>
      </trkpt>
      <trkpt lat="43.91459" lon="7.55964">
        <ele>1191.423160936</ele>
        <time>2021-11-02T10:27:04Z</time>
      </trkpt>
      <trkpt lat="43.91461" lon="7.55963">
        <ele>1192.4230462286</ele>
        <time>2021-11-02T10:27:06Z</time>
      </trkpt>
      <trkpt lat="43.91461" lon="7.55962">
        <ele>1192.4230064688</ele>
        <time>2021-11-02T10:27:07Z</time>
      </trkpt>
      <trkpt lat="43.91462" lon="7.55962">
        <ele>1192.4229716911</ele>
        <time>2021-11-02T10:27:09Z</time>
      </trkpt>
      <trkpt lat="43.91463" lon="7.55961">
        <ele>1194.4228939554</ele>
        <time>2021-11-02T10:27:11Z</time>
      </trkpt>
      <trkpt lat="43.91465" lon="7.55961">
        <ele>1194.4228129417</ele>
        <time>2021-11-02T10:27:12Z</time>
      </trkpt>
      <trkpt lat="43.91466" lon="7.5596">
        <ele>1194.422751586</ele>
        <time>2021-11-02T10:27:13Z</time>
      </trkpt>
      <trkpt lat="43.91466" lon="7.5596">
        <ele>1195.4227236846</ele>
        <time>2021-11-02T10:27:14Z</time>
      </trkpt>
      <trkpt lat="43.91467" lon="7.55959">
        <ele>1195.4226820534</ele>
        <time>2021-11-02T10:27:15Z</time>
      </trkpt>
      <trkpt lat="43.91468" lon="7.55959">
        <ele>1195.4226433535</ele>
        <time>2021-11-02T10:27:16Z</time>
      </trkpt>
      <trkpt lat="43.91468" lon="7.55958">
        <ele>1195.4226287006</ele>
        <time>2021-11-02T10:27:17Z</time>
      </trkpt>
      <trkpt lat="43.91469" lon="7.55957">
        <ele>1194.4225628024</ele>
        <time>2021-11-02T10:27:19Z</time>
      </trkpt>
      <trkpt lat="43.91469" lon="7.55956">
        <ele>1194.4225125478</ele>
        <time>2021-11-02T10:27:21Z</time>
      </trkpt>
      <trkpt lat="43.9147" lon="7.55955">
        <ele>1194.4224832942</ele>
        <time>2021-11-02T10:27:23Z</time>
      </trkpt>
      <trkpt lat="43.91471" lon="7.55955">
        <ele>1195.4224334052</ele>
        <time>2021-11-02T10:27:25Z</time>
      </trkpt>
      <trkpt lat="43.91472" lon="7.55953">
        <ele>1195.4223487359</ele>
        <time>2021-11-02T10:27:26Z</time>
      </trkpt>
      <trkpt lat="43.91473" lon="7.55952">
        <ele>1194.4222954245</ele>
        <time>2021-11-02T10:27:27Z</time>
      </trkpt>
      <trkpt lat="43.91474" lon="7.55951">
        <ele>1194.4222346783</ele>
        <time>2021-11-02T10:27:29Z</time>
      </trkpt>
      <trkpt lat="43.91474" lon="7.55951">
        <ele>1194.4222142766</ele>
        <time>2021-11-02T10:27:30Z</time>
      </trkpt>
      <trkpt lat="43.91475" lon="7.5595">
        <ele>1195.4221590141</ele>
        <time>2021-11-02T10:27:31Z</time>
      </trkpt>
      <trkpt lat="43.91476" lon="7.55949">
        <ele>1195.4220929904</ele>
        <time>2021-11-02T10:27:32Z</time>
      </trkpt>
      <trkpt lat="43.91477" lon="7.55948">
        <ele>1195.4220601135</ele>
        <time>2021-11-02T10:27:33Z</time>
      </trkpt>
      <trkpt lat="43.91478" lon="7.55948">
        <ele>1196.4219927734</ele>
        <time>2021-11-02T10:27:35Z</time>
      </trkpt>
      <trkpt lat="43.91478" lon="7.55948">
        <ele>1196.4219927734</ele>
        <time>2021-11-02T10:27:37Z</time>
      </trkpt>
      <trkpt lat="43.9148" lon="7.55947">
        <ele>1196.421898334</ele>
        <time>2021-11-02T10:27:39Z</time>
      </trkpt>
      <trkpt lat="43.91481" lon="7.55946">
        <ele>1197.4218200482</ele>
        <time>2021-11-02T10:27:41Z</time>
      </trkpt>
      <trkpt lat="43.91482" lon="7.55946">
        <ele>1197.4217681154</ele>
        <time>2021-11-02T10:27:42Z</time>
      </trkpt>
      <trkpt lat="43.91483" lon="7.55946">
        <ele>1197.4217030421</ele>
        <time>2021-11-02T10:27:43Z</time>
      </trkpt>
      <trkpt lat="43.91483" lon="7.55946">
        <ele>1197.4217030421</ele>
        <time>2021-11-02T10:27:45Z</time>
      </trkpt>
      <trkpt lat="43.91484" lon="7.55944">
        <ele>1197.4216324031</ele>
        <time>2021-11-02T10:27:46Z</time>
      </trkpt>
      <trkpt lat="43.91484" lon="7.55943">
        <ele>1197.4216140208</ele>
        <time>2021-11-02T10:27:47Z</time>
      </trkpt>
      <trkpt lat="43.91485" lon="7.55942">
        <ele>1197.4215553852</ele>
        <time>2021-11-02T10:27:48Z</time>
      </trkpt>
      <trkpt lat="43.91486" lon="7.55942">
        <ele>1197.4215234895</ele>
        <time>2021-11-02T10:27:49Z</time>
      </trkpt>
      <trkpt lat="43.91486" lon="7.55941">
        <ele>1198.4214826023</ele>
        <time>2021-11-02T10:27:50Z</time>
      </trkpt>
      <trkpt lat="43.91488" lon="7.55941">
        <ele>1199.4214081051</ele>
        <time>2021-11-02T10:27:51Z</time>
      </trkpt>
      <trkpt lat="43.91489" lon="7.55941">
        <ele>1198.4213393068</ele>
        <time>2021-11-02T10:27:52Z</time>
      </trkpt>
      <trkpt lat="43.9149" lon="7.55941">
        <ele>1199.4213015988</ele>
        <time>2021-11-02T10:27:53Z</time>
      </trkpt>
      <trkpt lat="43.9149" lon="7.55942">
        <ele>1199.4212896072</ele>
        <time>2021-11-02T10:27:55Z</time>
      </trkpt>
      <trkpt lat="43.91491" lon="7.55941">
        <ele>1199.4212408183</ele>
        <time>2021-11-02T10:27:56Z</time>
      </trkpt>
      <trkpt lat="43.91492" lon="7.55941">
        <ele>1199.4212032865</ele>
        <time>2021-11-02T10:27:57Z</time>
      </trkpt>
      <trkpt lat="43.91492" lon="7.5594">
        <ele>1199.4211885145</ele>
        <time>2021-11-02T10:27:58Z</time>
      </trkpt>
      <trkpt lat="43.91493" lon="7.5594">
        <ele>1199.4211400714</ele>
        <time>2021-11-02T10:27:59Z</time>
      </trkpt>
      <trkpt lat="43.91493" lon="7.55939">
        <ele>1202.4211411095</ele>
        <time>2021-11-02T10:28:17Z</time>
      </trkpt>
      <trkpt lat="43.91491" lon="7.55939">
        <ele>1202.4212091366</ele>
        <time>2021-11-02T10:28:18Z</time>
      </trkpt>
      <trkpt lat="43.91491" lon="7.55938">
        <ele>1202.4212306694</ele>
        <time>2021-11-02T10:28:20Z</time>
      </trkpt>
      <trkpt lat="43.91491" lon="7.55937">
        <ele>1202.4212196929</ele>
        <time>2021-11-02T10:28:21Z</time>
      </trkpt>
      <trkpt lat="43.91491" lon="7.55937">
        <ele>1201.4211778902</ele>
        <time>2021-11-02T10:28:22Z</time>
      </trkpt>
      <trkpt lat="43.91493" lon="7.55935">
        <ele>1201.4210884501</ele>
        <time>2021-11-02T10:28:24Z</time>
      </trkpt>
      <trkpt lat="43.91493" lon="7.55934">
        <ele>1202.4210612135</ele>
        <time>2021-11-02T10:28:26Z</time>
      </trkpt>
      <trkpt lat="43.91493" lon="7.55933">
        <ele>1201.4210254424</ele>
        <time>2021-11-02T10:28:27Z</time>
      </trkpt>
      <trkpt lat="43.91493" lon="7.55932">
        <ele>1201.4210205261</ele>
        <time>2021-11-02T10:28:28Z</time>
      </trkpt>
      <trkpt lat="43.91493" lon="7.55931">
        <ele>1202.420993914</ele>
        <time>2021-11-02T10:28:30Z</time>
      </trkpt>
      <trkpt lat="43.91494" lon="7.5593">
        <ele>1202.4209395731</ele>
        <time>2021-11-02T10:28:31Z</time>
      </trkpt>
      <trkpt lat="43.91495" lon="7.55929">
        <ele>1202.4208926804</ele>
        <time>2021-11-02T10:28:32Z</time>
      </trkpt>
      <trkpt lat="43.91496" lon="7.55928">
        <ele>1202.4208491804</ele>
        <time>2021-11-02T10:28:34Z</time>
      </trkpt>
      <trkpt lat="43.91496" lon="7.55928">
        <ele>1202.4208349544</ele>
        <time>2021-11-02T10:28:37Z</time>
      </trkpt>
      <trkpt lat="43.91496" lon="7.55927">
        <ele>1202.4208300711</ele>
        <time>2021-11-02T10:28:38Z</time>
      </trkpt>
      <trkpt lat="43.91495" lon="7.55926">
        <ele>1202.4208321761</ele>
        <time>2021-11-02T10:28:39Z</time>
      </trkpt>
      <trkpt lat="43.91496" lon="7.55925">
        <ele>1202.42080163</ele>
        <time>2021-11-02T10:28:40Z</time>
      </trkpt>
      <trkpt lat="43.91496" lon="7.55925">
        <ele>1202.4207815775</ele>
        <time>2021-11-02T10:28:43Z</time>
      </trkpt>
      <trkpt lat="43.91497" lon="7.55923">
        <ele>1202.4206757644</ele>
        <time>2021-11-02T10:28:44Z</time>
      </trkpt>
      <trkpt lat="43.91498" lon="7.55921">
        <ele>1202.4206227791</ele>
        <time>2021-11-02T10:28:45Z</time>
      </trkpt>
      <trkpt lat="43.91498" lon="7.5592">
        <ele>1202.4206006686</ele>
        <time>2021-11-02T10:28:46Z</time>
      </trkpt>
      <trkpt lat="43.91499" lon="7.5592">
        <ele>1202.4205801334</ele>
        <time>2021-11-02T10:28:49Z</time>
      </trkpt>
      <trkpt lat="43.91501" lon="7.55917">
        <ele>1202.4204461078</ele>
        <time>2021-11-02T10:28:50Z</time>
      </trkpt>
      <trkpt lat="43.91501" lon="7.55916">
        <ele>1201.4204132316</ele>
        <time>2021-11-02T10:28:51Z</time>
      </trkpt>
      <trkpt lat="43.91501" lon="7.55916">
        <ele>1201.4203893424</ele>
        <time>2021-11-02T10:28:52Z</time>
      </trkpt>
      <trkpt lat="43.91502" lon="7.55915">
        <ele>1201.4203614524</ele>
        <time>2021-11-02T10:28:53Z</time>
      </trkpt>
      <trkpt lat="43.91502" lon="7.55915">
        <ele>1201.4203188557</ele>
        <time>2021-11-02T10:28:55Z</time>
      </trkpt>
      <trkpt lat="43.91503" lon="7.55913">
        <ele>1201.420266837</ele>
        <time>2021-11-02T10:28:56Z</time>
      </trkpt>
      <trkpt lat="43.91503" lon="7.55912">
        <ele>1201.4202351715</ele>
        <time>2021-11-02T10:28:58Z</time>
      </trkpt>
      <trkpt lat="43.91503" lon="7.5591">
        <ele>1202.4202167322</ele>
        <time>2021-11-02T10:28:59Z</time>
      </trkpt>
      <trkpt lat="43.91504" lon="7.55909">
        <ele>1202.420172901</ele>
        <time>2021-11-02T10:29:00Z</time>
      </trkpt>
      <trkpt lat="43.91504" lon="7.55909">
        <ele>1202.420172901</ele>
        <time>2021-11-02T10:29:02Z</time>
      </trkpt>
      <trkpt lat="43.91505" lon="7.55907">
        <ele>1203.4201140032</ele>
        <time>2021-11-02T10:29:03Z</time>
      </trkpt>
      <trkpt lat="43.91505" lon="7.55906">
        <ele>1202.4200937819</ele>
        <time>2021-11-02T10:29:04Z</time>
      </trkpt>
      <trkpt lat="43.91505" lon="7.55905">
        <ele>1202.4200854264</ele>
        <time>2021-11-02T10:29:08Z</time>
      </trkpt>
      <trkpt lat="43.91506" lon="7.55904">
        <ele>1203.4199822421</ele>
        <time>2021-11-02T10:29:09Z</time>
      </trkpt>
      <trkpt lat="43.91507" lon="7.55903">
        <ele>1203.4199300822</ele>
        <time>2021-11-02T10:29:10Z</time>
      </trkpt>
      <trkpt lat="43.91508" lon="7.55902">
        <ele>1203.4198963638</ele>
        <time>2021-11-02T10:29:11Z</time>
      </trkpt>
      <trkpt lat="43.91508" lon="7.55901">
        <ele>1203.4198618113</ele>
        <time>2021-11-02T10:29:12Z</time>
      </trkpt>
      <trkpt lat="43.91508" lon="7.559">
        <ele>1203.4198509383</ele>
        <time>2021-11-02T10:29:13Z</time>
      </trkpt>
      <trkpt lat="43.91508" lon="7.559">
        <ele>1203.4198244527</ele>
        <time>2021-11-02T10:29:14Z</time>
      </trkpt>
      <trkpt lat="43.91509" lon="7.559">
        <ele>1203.4197924712</ele>
        <time>2021-11-02T10:29:15Z</time>
      </trkpt>
      <trkpt lat="43.9151" lon="7.559">
        <ele>1203.4197567263</ele>
        <time>2021-11-02T10:29:19Z</time>
      </trkpt>
      <trkpt lat="43.91511" lon="7.55899">
        <ele>1202.4196881286</ele>
        <time>2021-11-02T10:29:20Z</time>
      </trkpt>
      <trkpt lat="43.91512" lon="7.55899">
        <ele>1202.4196276446</ele>
        <time>2021-11-02T10:29:21Z</time>
      </trkpt>
      <trkpt lat="43.91513" lon="7.55898">
        <ele>1201.4195931539</ele>
        <time>2021-11-02T10:29:22Z</time>
      </trkpt>
      <trkpt lat="43.91513" lon="7.55897">
        <ele>1201.4195470902</ele>
        <time>2021-11-02T10:29:23Z</time>
      </trkpt>
      <trkpt lat="43.91514" lon="7.55896">
        <ele>1201.419479097</ele>
        <time>2021-11-02T10:29:24Z</time>
      </trkpt>
      <trkpt lat="43.91515" lon="7.55895">
        <ele>1201.4194223787</ele>
        <time>2021-11-02T10:29:25Z</time>
      </trkpt>
      <trkpt lat="43.91516" lon="7.55894">
        <ele>1200.4193581677</ele>
        <time>2021-11-02T10:29:26Z</time>
      </trkpt>
      <trkpt lat="43.91516" lon="7.55894">
        <ele>1200.4193581677</ele>
        <time>2021-11-02T10:29:28Z</time>
      </trkpt>
      <trkpt lat="43.91518" lon="7.55892">
        <ele>1201.4192598416</ele>
        <time>2021-11-02T10:29:29Z</time>
      </trkpt>
      <trkpt lat="43.91519" lon="7.55892">
        <ele>1201.4191894753</ele>
        <time>2021-11-02T10:29:30Z</time>
      </trkpt>
      <trkpt lat="43.9152" lon="7.55891">
        <ele>1201.4191306583</ele>
        <time>2021-11-02T10:29:31Z</time>
      </trkpt>
      <trkpt lat="43.91521" lon="7.5589">
        <ele>1201.4190913307</ele>
        <time>2021-11-02T10:29:32Z</time>
      </trkpt>
      <trkpt lat="43.91521" lon="7.5589">
        <ele>1201.41906894</ele>
        <time>2021-11-02T10:29:33Z</time>
      </trkpt>
      <trkpt lat="43.91522" lon="7.5589">
        <ele>1201.4190379394</ele>
        <time>2021-11-02T10:29:34Z</time>
      </trkpt>
      <trkpt lat="43.91522" lon="7.5589">
        <ele>1202.4190009732</ele>
        <time>2021-11-02T10:29:36Z</time>
      </trkpt>
      <trkpt lat="43.91524" lon="7.55889">
        <ele>1202.4189086233</ele>
        <time>2021-11-02T10:29:37Z</time>
      </trkpt>
      <trkpt lat="43.91525" lon="7.55889">
        <ele>1202.4188481524</ele>
        <time>2021-11-02T10:29:38Z</time>
      </trkpt>
      <trkpt lat="43.91526" lon="7.55889">
        <ele>1202.4187991369</ele>
        <time>2021-11-02T10:29:39Z</time>
      </trkpt>
      <trkpt lat="43.91528" lon="7.55887">
        <ele>1202.4186721822</ele>
        <time>2021-11-02T10:29:41Z</time>
      </trkpt>
      <trkpt lat="43.91529" lon="7.55887">
        <ele>1202.418632516</ele>
        <time>2021-11-02T10:29:43Z</time>
      </trkpt>
      <trkpt lat="43.91531" lon="7.55886">
        <ele>1202.4185329208</ele>
        <time>2021-11-02T10:29:44Z</time>
      </trkpt>
      <trkpt lat="43.91532" lon="7.55885">
        <ele>1202.4184505539</ele>
        <time>2021-11-02T10:29:46Z</time>
      </trkpt>
      <trkpt lat="43.91533" lon="7.55885">
        <ele>1202.418398927</ele>
        <time>2021-11-02T10:29:47Z</time>
      </trkpt>
      <trkpt lat="43.91534" lon="7.55884">
        <ele>1202.4183487904</ele>
        <time>2021-11-02T10:29:48Z</time>
      </trkpt>
      <trkpt lat="43.91536" lon="7.55885">
        <ele>1203.4182676549</ele>
        <time>2021-11-02T10:29:50Z</time>
      </trkpt>
      <trkpt lat="43.91536" lon="7.55885">
        <ele>1203.4182349915</ele>
        <time>2021-11-02T10:29:51Z</time>
      </trkpt>
      <trkpt lat="43.91537" lon="7.55885">
        <ele>1204.4181915604</ele>
        <time>2021-11-02T10:29:52Z</time>
      </trkpt>
      <trkpt lat="43.91538" lon="7.55885">
        <ele>1203.4181594742</ele>
        <time>2021-11-02T10:29:54Z</time>
      </trkpt>
      <trkpt lat="43.91539" lon="7.55885">
        <ele>1203.4181102381</ele>
        <time>2021-11-02T10:29:56Z</time>
      </trkpt>
      <trkpt lat="43.9154" lon="7.55885">
        <ele>1203.418041646</ele>
        <time>2021-11-02T10:29:57Z</time>
      </trkpt>
      <trkpt lat="43.91542" lon="7.55885">
        <ele>1203.4179615432</ele>
        <time>2021-11-02T10:29:58Z</time>
      </trkpt>
      <trkpt lat="43.91544" lon="7.55885">
        <ele>1203.4178767554</ele>
        <time>2021-11-02T10:29:59Z</time>
      </trkpt>
      <trkpt lat="43.91545" lon="7.55884">
        <ele>1204.4177836715</ele>
        <time>2021-11-02T10:30:00Z</time>
      </trkpt>
      <trkpt lat="43.91547" lon="7.55884">
        <ele>1203.4177177477</ele>
        <time>2021-11-02T10:30:01Z</time>
      </trkpt>
      <trkpt lat="43.91547" lon="7.55884">
        <ele>1203.4176950916</ele>
        <time>2021-11-02T10:30:02Z</time>
      </trkpt>
      <trkpt lat="43.91549" lon="7.55882">
        <ele>1203.417605643</ele>
        <time>2021-11-02T10:30:04Z</time>
      </trkpt>
      <trkpt lat="43.9155" lon="7.55882">
        <ele>1203.4175360695</ele>
        <time>2021-11-02T10:30:05Z</time>
      </trkpt>
      <trkpt lat="43.91551" lon="7.55881">
        <ele>1203.4174729144</ele>
        <time>2021-11-02T10:30:06Z</time>
      </trkpt>
      <trkpt lat="43.91552" lon="7.55881">
        <ele>1204.4174166216</ele>
        <time>2021-11-02T10:30:08Z</time>
      </trkpt>
      <trkpt lat="43.91553" lon="7.5588">
        <ele>1204.4173613075</ele>
        <time>2021-11-02T10:30:09Z</time>
      </trkpt>
      <trkpt lat="43.91556" lon="7.55879">
        <ele>1205.4172115384</ele>
        <time>2021-11-02T10:30:11Z</time>
      </trkpt>
      <trkpt lat="43.91557" lon="7.55879">
        <ele>1205.41714372</ele>
        <time>2021-11-02T10:30:12Z</time>
      </trkpt>
      <trkpt lat="43.91558" lon="7.55878">
        <ele>1205.4170974014</ele>
        <time>2021-11-02T10:30:13Z</time>
      </trkpt>
      <trkpt lat="43.91559" lon="7.55877">
        <ele>1205.4170373333</ele>
        <time>2021-11-02T10:30:15Z</time>
      </trkpt>
      <trkpt lat="43.91559" lon="7.55876">
        <ele>1205.416979138</ele>
        <time>2021-11-02T10:30:16Z</time>
      </trkpt>
      <trkpt lat="43.9156" lon="7.55875">
        <ele>1206.416949045</ele>
        <time>2021-11-02T10:30:19Z</time>
      </trkpt>
      <trkpt lat="43.91561" lon="7.55875">
        <ele>1208.4168767875</ele>
        <time>2021-11-02T10:30:20Z</time>
      </trkpt>
      <trkpt lat="43.91561" lon="7.55875">
        <ele>1208.4168607936</ele>
        <time>2021-11-02T10:30:21Z</time>
      </trkpt>
      <trkpt lat="43.91562" lon="7.55875">
        <ele>1208.4168325154</ele>
        <time>2021-11-02T10:30:22Z</time>
      </trkpt>
      <trkpt lat="43.91563" lon="7.55875">
        <ele>1208.4168136996</ele>
        <time>2021-11-02T10:30:24Z</time>
      </trkpt>
      <trkpt lat="43.91564" lon="7.55875">
        <ele>1209.4167654197</ele>
        <time>2021-11-02T10:30:25Z</time>
      </trkpt>
      <trkpt lat="43.91564" lon="7.55875">
        <ele>1209.4167654197</ele>
        <time>2021-11-02T10:30:26Z</time>
      </trkpt>
      <trkpt lat="43.91565" lon="7.55875">
        <ele>1210.4166857673</ele>
        <time>2021-11-02T10:30:27Z</time>
      </trkpt>
      <trkpt lat="43.91566" lon="7.55875">
        <ele>1211.4166655335</ele>
        <time>2021-11-02T10:30:28Z</time>
      </trkpt>
      <trkpt lat="43.91566" lon="7.55875">
        <ele>1211.4166336657</ele>
        <time>2021-11-02T10:30:29Z</time>
      </trkpt>
      <trkpt lat="43.91567" lon="7.55875">
        <ele>1212.4166027393</ele>
        <time>2021-11-02T10:30:30Z</time>
      </trkpt>
      <trkpt lat="43.91567" lon="7.55874">
        <ele>1212.416571453</ele>
        <time>2021-11-02T10:30:32Z</time>
      </trkpt>
      <trkpt lat="43.91568" lon="7.55874">
        <ele>1212.4165005211</ele>
        <time>2021-11-02T10:30:33Z</time>
      </trkpt>
      <trkpt lat="43.9157" lon="7.55873">
        <ele>1212.4164465231</ele>
        <time>2021-11-02T10:30:34Z</time>
      </trkpt>
      <trkpt lat="43.9157" lon="7.55874">
        <ele>1212.4164270322</ele>
        <time>2021-11-02T10:30:35Z</time>
      </trkpt>
      <trkpt lat="43.91571" lon="7.55875">
        <ele>1212.416407339</ele>
        <time>2021-11-02T10:30:36Z</time>
      </trkpt>
      <trkpt lat="43.91571" lon="7.55874">
        <ele>1212.4163679995</ele>
        <time>2021-11-02T10:30:37Z</time>
      </trkpt>
      <trkpt lat="43.91573" lon="7.55873">
        <ele>1212.4162811852</ele>
        <time>2021-11-02T10:30:38Z</time>
      </trkpt>
      <trkpt lat="43.91574" lon="7.55872">
        <ele>1212.416209057</ele>
        <time>2021-11-02T10:30:39Z</time>
      </trkpt>
      <trkpt lat="43.91575" lon="7.55872">
        <ele>1212.4161669341</ele>
        <time>2021-11-02T10:30:40Z</time>
      </trkpt>
      <trkpt lat="43.91575" lon="7.55871">
        <ele>1213.4161348435</ele>
        <time>2021-11-02T10:30:41Z</time>
      </trkpt>
      <trkpt lat="43.91576" lon="7.5587">
        <ele>1213.4160975568</ele>
        <time>2021-11-02T10:30:43Z</time>
      </trkpt>
      <trkpt lat="43.91578" lon="7.55868">
        <ele>1214.4159795167</ele>
        <time>2021-11-02T10:30:45Z</time>
      </trkpt>
      <trkpt lat="43.91578" lon="7.55868">
        <ele>1214.4159577431</ele>
        <time>2021-11-02T10:30:46Z</time>
      </trkpt>
      <trkpt lat="43.91579" lon="7.55868">
        <ele>1214.4159010663</ele>
        <time>2021-11-02T10:30:47Z</time>
      </trkpt>
      <trkpt lat="43.9158" lon="7.55867">
        <ele>1215.4158249708</ele>
        <time>2021-11-02T10:30:49Z</time>
      </trkpt>
      <trkpt lat="43.91583" lon="7.55867">
        <ele>1216.4157038683</ele>
        <time>2021-11-02T10:30:51Z</time>
      </trkpt>
      <trkpt lat="43.91584" lon="7.55866">
        <ele>1216.415656943</ele>
        <time>2021-11-02T10:30:52Z</time>
      </trkpt>
      <trkpt lat="43.91584" lon="7.55865">
        <ele>1216.4156179219</ele>
        <time>2021-11-02T10:30:53Z</time>
      </trkpt>
      <trkpt lat="43.91585" lon="7.55865">
        <ele>1217.4155821945</ele>
        <time>2021-11-02T10:30:54Z</time>
      </trkpt>
      <trkpt lat="43.91586" lon="7.55863">
        <ele>1217.4155086749</ele>
        <time>2021-11-02T10:30:56Z</time>
      </trkpt>
      <trkpt lat="43.91587" lon="7.55862">
        <ele>1217.4154380749</ele>
        <time>2021-11-02T10:30:57Z</time>
      </trkpt>
      <trkpt lat="43.91587" lon="7.55861">
        <ele>1217.4153944715</ele>
        <time>2021-11-02T10:30:58Z</time>
      </trkpt>
      <trkpt lat="43.91589" lon="7.55859">
        <ele>1217.4153079681</ele>
        <time>2021-11-02T10:31:00Z</time>
      </trkpt>
      <trkpt lat="43.91589" lon="7.55857">
        <ele>1217.4152566639</ele>
        <time>2021-11-02T10:31:01Z</time>
      </trkpt>
      <trkpt lat="43.9159" lon="7.55857">
        <ele>1217.4152072731</ele>
        <time>2021-11-02T10:31:03Z</time>
      </trkpt>
      <trkpt lat="43.91592" lon="7.55855">
        <ele>1217.4150942489</ele>
        <time>2021-11-02T10:31:04Z</time>
      </trkpt>
      <trkpt lat="43.91593" lon="7.55852">
        <ele>1217.4149812835</ele>
        <time>2021-11-02T10:31:06Z</time>
      </trkpt>
      <trkpt lat="43.91594" lon="7.55851">
        <ele>1217.414955805</ele>
        <time>2021-11-02T10:31:09Z</time>
      </trkpt>
      <trkpt lat="43.91597" lon="7.5585">
        <ele>1217.41478527</ele>
        <time>2021-11-02T10:31:11Z</time>
      </trkpt>
      <trkpt lat="43.91597" lon="7.55849">
        <ele>1217.4147512982</ele>
        <time>2021-11-02T10:31:12Z</time>
      </trkpt>
      <trkpt lat="43.91598" lon="7.55849">
        <ele>1217.4147140901</ele>
        <time>2021-11-02T10:31:13Z</time>
      </trkpt>
      <trkpt lat="43.916" lon="7.55847">
        <ele>1217.4145932333</ele>
        <time>2021-11-02T10:31:15Z</time>
      </trkpt>
      <trkpt lat="43.91602" lon="7.55846">
        <ele>1217.414469288</ele>
        <time>2021-11-02T10:31:18Z</time>
      </trkpt>
      <trkpt lat="43.91604" lon="7.55845">
        <ele>1216.414374601</ele>
        <time>2021-11-02T10:31:19Z</time>
      </trkpt>
      <trkpt lat="43.91605" lon="7.55844">
        <ele>1215.4142919759</ele>
        <time>2021-11-02T10:31:21Z</time>
      </trkpt>
      <trkpt lat="43.91605" lon="7.55844">
        <ele>1215.4142919759</ele>
        <time>2021-11-02T10:31:26Z</time>
      </trkpt>
      <trkpt lat="43.91604" lon="7.55842">
        <ele>1214.4143262329</ele>
        <time>2021-11-02T10:31:27Z</time>
      </trkpt>
      <trkpt lat="43.91603" lon="7.5584">
        <ele>1214.414342065</ele>
        <time>2021-11-02T10:31:29Z</time>
      </trkpt>
      <trkpt lat="43.91603" lon="7.55838">
        <ele>1214.414316848</ele>
        <time>2021-11-02T10:31:31Z</time>
      </trkpt>
      <trkpt lat="43.91603" lon="7.55837">
        <ele>1214.4143147702</ele>
        <time>2021-11-02T10:31:32Z</time>
      </trkpt>
      <trkpt lat="43.91603" lon="7.55836">
        <ele>1215.4142969731</ele>
        <time>2021-11-02T10:31:33Z</time>
      </trkpt>
      <trkpt lat="43.91604" lon="7.55833">
        <ele>1215.4141878401</ele>
        <time>2021-11-02T10:31:35Z</time>
      </trkpt>
      <trkpt lat="43.91605" lon="7.55832">
        <ele>1216.4141282982</ele>
        <time>2021-11-02T10:31:36Z</time>
      </trkpt>
      <trkpt lat="43.91606" lon="7.55831">
        <ele>1215.4140618697</ele>
        <time>2021-11-02T10:31:37Z</time>
      </trkpt>
      <trkpt lat="43.91607" lon="7.5583">
        <ele>1215.4139905758</ele>
        <time>2021-11-02T10:31:38Z</time>
      </trkpt>
      <trkpt lat="43.91608" lon="7.55829">
        <ele>1216.4139280578</ele>
        <time>2021-11-02T10:31:39Z</time>
      </trkpt>
      <trkpt lat="43.9161" lon="7.55828">
        <ele>1216.4138224785</ele>
        <time>2021-11-02T10:31:41Z</time>
      </trkpt>
      <trkpt lat="43.91611" lon="7.55827">
        <ele>1216.4137744689</ele>
        <time>2021-11-02T10:31:42Z</time>
      </trkpt>
      <trkpt lat="43.91612" lon="7.55826">
        <ele>1216.4137345804</ele>
        <time>2021-11-02T10:31:44Z</time>
      </trkpt>
      <trkpt lat="43.91612" lon="7.55826">
        <ele>1217.4137249449</ele>
        <time>2021-11-02T10:31:45Z</time>
      </trkpt>
      <trkpt lat="43.91612" lon="7.55824">
        <ele>1215.4136714435</ele>
        <time>2021-11-02T10:31:46Z</time>
      </trkpt>
      <trkpt lat="43.91613" lon="7.55824">
        <ele>1214.4136240436</ele>
        <time>2021-11-02T10:31:47Z</time>
      </trkpt>
      <trkpt lat="43.91614" lon="7.55824">
        <ele>1214.4135955839</ele>
        <time>2021-11-02T10:31:48Z</time>
      </trkpt>
      <trkpt lat="43.91614" lon="7.55823">
        <ele>1215.4135762156</ele>
        <time>2021-11-02T10:31:50Z</time>
      </trkpt>
      <trkpt lat="43.91616" lon="7.55821">
        <ele>1215.4134668377</ele>
        <time>2021-11-02T10:31:52Z</time>
      </trkpt>
      <trkpt lat="43.91616" lon="7.5582">
        <ele>1215.4134344801</ele>
        <time>2021-11-02T10:31:53Z</time>
      </trkpt>
      <trkpt lat="43.91616" lon="7.5582">
        <ele>1216.4134173301</ele>
        <time>2021-11-02T10:31:57Z</time>
      </trkpt>
      <trkpt lat="43.91617" lon="7.55819">
        <ele>1217.4133751457</ele>
        <time>2021-11-02T10:32:01Z</time>
      </trkpt>
      <trkpt lat="43.91617" lon="7.55818">
        <ele>1217.4133640156</ele>
        <time>2021-11-02T10:32:02Z</time>
      </trkpt>
      <trkpt lat="43.91617" lon="7.55818">
        <ele>1217.4133388912</ele>
        <time>2021-11-02T10:32:03Z</time>
      </trkpt>
      <trkpt lat="43.91617" lon="7.55817">
        <ele>1217.4133285504</ele>
        <time>2021-11-02T10:32:04Z</time>
      </trkpt>
      <trkpt lat="43.91617" lon="7.5582">
        <ele>1216.4133709448</ele>
        <time>2021-11-02T10:32:06Z</time>
      </trkpt>
      <trkpt lat="43.91617" lon="7.55819">
        <ele>1218.4133720706</ele>
        <time>2021-11-02T10:32:14Z</time>
      </trkpt>
      <trkpt lat="43.91618" lon="7.55818">
        <ele>1216.4132801023</ele>
        <time>2021-11-02T10:32:15Z</time>
      </trkpt>
      <trkpt lat="43.91619" lon="7.55817">
        <ele>1216.4132425013</ele>
        <time>2021-11-02T10:32:16Z</time>
      </trkpt>
      <trkpt lat="43.9162" lon="7.55816">
        <ele>1216.4132036777</ele>
        <time>2021-11-02T10:32:18Z</time>
      </trkpt>
      <trkpt lat="43.9162" lon="7.55815">
        <ele>1216.4131566044</ele>
        <time>2021-11-02T10:32:19Z</time>
      </trkpt>
      <trkpt lat="43.9162" lon="7.55815">
        <ele>1216.4131566044</ele>
        <time>2021-11-02T10:32:20Z</time>
      </trkpt>
      <trkpt lat="43.91623" lon="7.55814">
        <ele>1216.4130197946</ele>
        <time>2021-11-02T10:32:22Z</time>
      </trkpt>
      <trkpt lat="43.91624" lon="7.55812">
        <ele>1216.4129513111</ele>
        <time>2021-11-02T10:32:23Z</time>
      </trkpt>
      <trkpt lat="43.91624" lon="7.55811">
        <ele>1216.4129069343</ele>
        <time>2021-11-02T10:32:24Z</time>
      </trkpt>
      <trkpt lat="43.91625" lon="7.5581">
        <ele>1216.4128622865</ele>
        <time>2021-11-02T10:32:26Z</time>
      </trkpt>
      <trkpt lat="43.91626" lon="7.5581">
        <ele>1216.4127864627</ele>
        <time>2021-11-02T10:32:27Z</time>
      </trkpt>
      <trkpt lat="43.91628" lon="7.5581">
        <ele>1216.4127172536</ele>
        <time>2021-11-02T10:32:28Z</time>
      </trkpt>
      <trkpt lat="43.9163" lon="7.55809">
        <ele>1215.4125983304</ele>
        <time>2021-11-02T10:32:30Z</time>
      </trkpt>
      <trkpt lat="43.91632" lon="7.55808">
        <ele>1215.4124868342</ele>
        <time>2021-11-02T10:32:32Z</time>
      </trkpt>
      <trkpt lat="43.91634" lon="7.55806">
        <ele>1214.4123682898</ele>
        <time>2021-11-02T10:32:34Z</time>
      </trkpt>
      <trkpt lat="43.91636" lon="7.55805">
        <ele>1215.4122348216</ele>
        <time>2021-11-02T10:32:36Z</time>
      </trkpt>
      <trkpt lat="43.91637" lon="7.55804">
        <ele>1215.4121724442</ele>
        <time>2021-11-02T10:32:37Z</time>
      </trkpt>
      <trkpt lat="43.91638" lon="7.55804">
        <ele>1215.4121298988</ele>
        <time>2021-11-02T10:32:38Z</time>
      </trkpt>
      <trkpt lat="43.91639" lon="7.55803">
        <ele>1216.4120553742</ele>
        <time>2021-11-02T10:32:40Z</time>
      </trkpt>
      <trkpt lat="43.9164" lon="7.55802">
        <ele>1216.4119872796</ele>
        <time>2021-11-02T10:32:42Z</time>
      </trkpt>
      <trkpt lat="43.91641" lon="7.558">
        <ele>1216.4119533093</ele>
        <time>2021-11-02T10:32:43Z</time>
      </trkpt>
      <trkpt lat="43.91641" lon="7.55799">
        <ele>1216.4119074909</ele>
        <time>2021-11-02T10:32:44Z</time>
      </trkpt>
      <trkpt lat="43.91642" lon="7.55798">
        <ele>1216.4118461267</ele>
        <time>2021-11-02T10:32:45Z</time>
      </trkpt>
      <trkpt lat="43.91643" lon="7.55798">
        <ele>1216.4118182135</ele>
        <time>2021-11-02T10:32:46Z</time>
      </trkpt>
      <trkpt lat="43.91644" lon="7.55797">
        <ele>1216.4117675799</ele>
        <time>2021-11-02T10:32:47Z</time>
      </trkpt>
      <trkpt lat="43.91644" lon="7.55796">
        <ele>1216.4117274674</ele>
        <time>2021-11-02T10:32:48Z</time>
      </trkpt>
      <trkpt lat="43.91645" lon="7.55796">
        <ele>1216.4116864053</ele>
        <time>2021-11-02T10:32:49Z</time>
      </trkpt>
      <trkpt lat="43.91646" lon="7.55794">
        <ele>1216.4116285119</ele>
        <time>2021-11-02T10:32:50Z</time>
      </trkpt>
      <trkpt lat="43.91647" lon="7.55793">
        <ele>1217.4115694688</ele>
        <time>2021-11-02T10:32:51Z</time>
      </trkpt>
      <trkpt lat="43.91647" lon="7.55793">
        <ele>1216.4115461605</ele>
        <time>2021-11-02T10:32:52Z</time>
      </trkpt>
      <trkpt lat="43.91647" lon="7.55792">
        <ele>1216.4115505053</ele>
        <time>2021-11-02T10:32:53Z</time>
      </trkpt>
      <trkpt lat="43.91646" lon="7.55792">
        <ele>1216.4115828713</ele>
        <time>2021-11-02T10:32:55Z</time>
      </trkpt>
      <trkpt lat="43.91646" lon="7.5579">
        <ele>1216.4115427222</ele>
        <time>2021-11-02T10:32:58Z</time>
      </trkpt>
      <trkpt lat="43.91647" lon="7.55789">
        <ele>1217.4115101114</ele>
        <time>2021-11-02T10:33:07Z</time>
      </trkpt>
      <trkpt lat="43.91647" lon="7.55789">
        <ele>1217.4114646228</ele>
        <time>2021-11-02T10:33:08Z</time>
      </trkpt>
      <trkpt lat="43.9165" lon="7.55788">
        <ele>1217.4113585192</ele>
        <time>2021-11-02T10:33:10Z</time>
      </trkpt>
      <trkpt lat="43.91649" lon="7.55787">
        <ele>1216.4113505143</ele>
        <time>2021-11-02T10:33:15Z</time>
      </trkpt>
      <trkpt lat="43.9165" lon="7.55786">
        <ele>1217.4113019448</ele>
        <time>2021-11-02T10:33:16Z</time>
      </trkpt>
      <trkpt lat="43.91651" lon="7.55785">
        <ele>1217.4112599321</ele>
        <time>2021-11-02T10:33:17Z</time>
      </trkpt>
      <trkpt lat="43.91651" lon="7.55784">
        <ele>1216.4112314857</ele>
        <time>2021-11-02T10:33:19Z</time>
      </trkpt>
      <trkpt lat="43.91651" lon="7.55782">
        <ele>1216.4111978994</ele>
        <time>2021-11-02T10:33:20Z</time>
      </trkpt>
      <trkpt lat="43.91651" lon="7.55781">
        <ele>1217.4111914578</ele>
        <time>2021-11-02T10:33:21Z</time>
      </trkpt>
      <trkpt lat="43.91652" lon="7.55781">
        <ele>1218.4111515957</ele>
        <time>2021-11-02T10:33:22Z</time>
      </trkpt>
      <trkpt lat="43.91652" lon="7.5578">
        <ele>1218.4111108434</ele>
        <time>2021-11-02T10:33:23Z</time>
      </trkpt>
      <trkpt lat="43.91653" lon="7.55779">
        <ele>1219.4110670073</ele>
        <time>2021-11-02T10:33:24Z</time>
      </trkpt>
      <trkpt lat="43.91654" lon="7.55779">
        <ele>1219.4110268841</ele>
        <time>2021-11-02T10:33:25Z</time>
      </trkpt>
      <trkpt lat="43.91654" lon="7.55778">
        <ele>1218.4110060952</ele>
        <time>2021-11-02T10:33:28Z</time>
      </trkpt>
      <trkpt lat="43.91655" lon="7.55778">
        <ele>1219.4109470559</ele>
        <time>2021-11-02T10:33:29Z</time>
      </trkpt>
      <trkpt lat="43.91655" lon="7.55777">
        <ele>1219.4109221418</ele>
        <time>2021-11-02T10:33:30Z</time>
      </trkpt>
      <trkpt lat="43.91656" lon="7.55777">
        <ele>1219.4109082113</ele>
        <time>2021-11-02T10:33:31Z</time>
      </trkpt>
      <trkpt lat="43.91656" lon="7.55776">
        <ele>1219.4108946066</ele>
        <time>2021-11-02T10:33:32Z</time>
      </trkpt>
      <trkpt lat="43.91656" lon="7.55775">
        <ele>1220.4108696562</ele>
        <time>2021-11-02T10:33:33Z</time>
      </trkpt>
      <trkpt lat="43.91656" lon="7.55774">
        <ele>1220.4108435804</ele>
        <time>2021-11-02T10:33:34Z</time>
      </trkpt>
      <trkpt lat="43.91656" lon="7.55773">
        <ele>1220.4108290117</ele>
        <time>2021-11-02T10:33:37Z</time>
      </trkpt>
      <trkpt lat="43.91657" lon="7.55771">
        <ele>1220.4107483713</ele>
        <time>2021-11-02T10:33:38Z</time>
      </trkpt>
      <trkpt lat="43.91657" lon="7.5577">
        <ele>1221.4107283425</ele>
        <time>2021-11-02T10:33:39Z</time>
      </trkpt>
      <trkpt lat="43.91658" lon="7.5577">
        <ele>1221.4107092701</ele>
        <time>2021-11-02T10:33:40Z</time>
      </trkpt>
      <trkpt lat="43.9166" lon="7.55771">
        <ele>1222.4106290744</ele>
        <time>2021-11-02T10:33:42Z</time>
      </trkpt>
      <trkpt lat="43.9166" lon="7.55771">
        <ele>1222.41059539</ele>
        <time>2021-11-02T10:33:44Z</time>
      </trkpt>
      <trkpt lat="43.9166" lon="7.5577">
        <ele>1222.4105835593</ele>
        <time>2021-11-02T10:33:46Z</time>
      </trkpt>
      <trkpt lat="43.91659" lon="7.55769">
        <ele>1222.4106131614</ele>
        <time>2021-11-02T10:33:47Z</time>
      </trkpt>
      <trkpt lat="43.9166" lon="7.55768">
        <ele>1222.4105966637</ele>
        <time>2021-11-02T10:33:48Z</time>
      </trkpt>
      <trkpt lat="43.9166" lon="7.55768">
        <ele>1223.4105741931</ele>
        <time>2021-11-02T10:33:49Z</time>
      </trkpt>
      <trkpt lat="43.9166" lon="7.55767">
        <ele>1223.4105508057</ele>
        <time>2021-11-02T10:33:50Z</time>
      </trkpt>
      <trkpt lat="43.91661" lon="7.55767">
        <ele>1224.4105134649</ele>
        <time>2021-11-02T10:33:51Z</time>
      </trkpt>
      <trkpt lat="43.91661" lon="7.55766">
        <ele>1223.4104937617</ele>
        <time>2021-11-02T10:33:56Z</time>
      </trkpt>
      <trkpt lat="43.91661" lon="7.55764">
        <ele>1224.4104720691</ele>
        <time>2021-11-02T10:33:57Z</time>
      </trkpt>
      <trkpt lat="43.9166" lon="7.55764">
        <ele>1224.4104917289</ele>
        <time>2021-11-02T10:33:58Z</time>
      </trkpt>
      <trkpt lat="43.91661" lon="7.55762">
        <ele>1225.4104460363</ele>
        <time>2021-11-02T10:34:00Z</time>
      </trkpt>
      <trkpt lat="43.91661" lon="7.55762">
        <ele>1226.410420232</ele>
        <time>2021-11-02T10:34:04Z</time>
      </trkpt>
      <trkpt lat="43.91662" lon="7.55759">
        <ele>1226.4103624714</ele>
        <time>2021-11-02T10:34:06Z</time>
      </trkpt>
      <trkpt lat="43.91662" lon="7.55758">
        <ele>1227.4103525067</ele>
        <time>2021-11-02T10:34:07Z</time>
      </trkpt>
      <trkpt lat="43.91662" lon="7.55757">
        <ele>1227.4103210426</ele>
        <time>2021-11-02T10:34:08Z</time>
      </trkpt>
      <trkpt lat="43.91663" lon="7.55757">
        <ele>1227.410288069</ele>
        <time>2021-11-02T10:34:09Z</time>
      </trkpt>
      <trkpt lat="43.91664" lon="7.55756">
        <ele>1228.4102370694</ele>
        <time>2021-11-02T10:34:11Z</time>
      </trkpt>
      <trkpt lat="43.91664" lon="7.55755">
        <ele>1228.4102140028</ele>
        <time>2021-11-02T10:34:12Z</time>
      </trkpt>
      <trkpt lat="43.91664" lon="7.55754">
        <ele>1228.4101995928</ele>
        <time>2021-11-02T10:34:13Z</time>
      </trkpt>
      <trkpt lat="43.91664" lon="7.55753">
        <ele>1229.4101897151</ele>
        <time>2021-11-02T10:34:16Z</time>
      </trkpt>
      <trkpt lat="43.91664" lon="7.55751">
        <ele>1229.4101374707</ele>
        <time>2021-11-02T10:34:17Z</time>
      </trkpt>
      <trkpt lat="43.91664" lon="7.5575">
        <ele>1229.4101235389</ele>
        <time>2021-11-02T10:34:20Z</time>
      </trkpt>
      <trkpt lat="43.91665" lon="7.55749">
        <ele>1230.4100980307</ele>
        <time>2021-11-02T10:34:22Z</time>
      </trkpt>
      <trkpt lat="43.91665" lon="7.55749">
        <ele>1231.4100773498</ele>
        <time>2021-11-02T10:34:23Z</time>
      </trkpt>
      <trkpt lat="43.91665" lon="7.55749">
        <ele>1231.4100498875</ele>
        <time>2021-11-02T10:34:24Z</time>
      </trkpt>
      <trkpt lat="43.91667" lon="7.55748">
        <ele>1231.4099742658</ele>
        <time>2021-11-02T10:34:26Z</time>
      </trkpt>
      <trkpt lat="43.91667" lon="7.55747">
        <ele>1231.4099492647</ele>
        <time>2021-11-02T10:34:28Z</time>
      </trkpt>
      <trkpt lat="43.91668" lon="7.55746">
        <ele>1232.409880958</ele>
        <time>2021-11-02T10:34:30Z</time>
      </trkpt>
      <trkpt lat="43.91668" lon="7.55744">
        <ele>1231.4098784024</ele>
        <time>2021-11-02T10:34:32Z</time>
      </trkpt>
      <trkpt lat="43.91668" lon="7.55743">
        <ele>1231.4098579587</ele>
        <time>2021-11-02T10:34:33Z</time>
      </trkpt>
      <trkpt lat="43.91668" lon="7.55742">
        <ele>1232.4098327395</ele>
        <time>2021-11-02T10:34:34Z</time>
      </trkpt>
      <trkpt lat="43.91668" lon="7.55742">
        <ele>1235.4097997321</ele>
        <time>2021-11-02T10:35:23Z</time>
      </trkpt>
      <trkpt lat="43.91667" lon="7.55742">
        <ele>1234.4098625706</ele>
        <time>2021-11-02T10:35:24Z</time>
      </trkpt>
      <trkpt lat="43.91667" lon="7.55743">
        <ele>1229.4098663971</ele>
        <time>2021-11-02T10:35:33Z</time>
      </trkpt>
      <trkpt lat="43.91668" lon="7.55741">
        <ele>1230.4098409922</ele>
        <time>2021-11-02T10:35:34Z</time>
      </trkpt>
      <trkpt lat="43.91668" lon="7.5574">
        <ele>1231.409783727</ele>
        <time>2021-11-02T10:35:35Z</time>
      </trkpt>
      <trkpt lat="43.91669" lon="7.5574">
        <ele>1231.4097449521</ele>
        <time>2021-11-02T10:35:36Z</time>
      </trkpt>
      <trkpt lat="43.9167" lon="7.55739">
        <ele>1231.4096884882</ele>
        <time>2021-11-02T10:35:37Z</time>
      </trkpt>
      <trkpt lat="43.91671" lon="7.55737">
        <ele>1231.4096222519</ele>
        <time>2021-11-02T10:35:39Z</time>
      </trkpt>
      <trkpt lat="43.91671" lon="7.55737">
        <ele>1231.4096010598</ele>
        <time>2021-11-02T10:35:40Z</time>
      </trkpt>
      <trkpt lat="43.91672" lon="7.55736">
        <ele>1232.4095621277</ele>
        <time>2021-11-02T10:35:41Z</time>
      </trkpt>
      <trkpt lat="43.91672" lon="7.55735">
        <ele>1233.4095215907</ele>
        <time>2021-11-02T10:35:42Z</time>
      </trkpt>
      <trkpt lat="43.91673" lon="7.55735">
        <ele>1233.4094760765</ele>
        <time>2021-11-02T10:35:43Z</time>
      </trkpt>
      <trkpt lat="43.91674" lon="7.55734">
        <ele>1232.409406174</ele>
        <time>2021-11-02T10:35:45Z</time>
      </trkpt>
      <trkpt lat="43.91676" lon="7.55733">
        <ele>1231.4093340856</ele>
        <time>2021-11-02T10:35:47Z</time>
      </trkpt>
      <trkpt lat="43.91676" lon="7.55732">
        <ele>1231.4092881129</ele>
        <time>2021-11-02T10:35:48Z</time>
      </trkpt>
      <trkpt lat="43.91677" lon="7.55732">
        <ele>1231.409253638</ele>
        <time>2021-11-02T10:35:49Z</time>
      </trkpt>
      <trkpt lat="43.91678" lon="7.55732">
        <ele>1231.4092081471</ele>
        <time>2021-11-02T10:35:50Z</time>
      </trkpt>
      <trkpt lat="43.91679" lon="7.55731">
        <ele>1232.4091251716</ele>
        <time>2021-11-02T10:35:52Z</time>
      </trkpt>
      <trkpt lat="43.9168" lon="7.55731">
        <ele>1233.4090768933</ele>
        <time>2021-11-02T10:35:53Z</time>
      </trkpt>
      <trkpt lat="43.91681" lon="7.55731">
        <ele>1234.4090340407</ele>
        <time>2021-11-02T10:35:54Z</time>
      </trkpt>
      <trkpt lat="43.91683" lon="7.5573">
        <ele>1234.4089430257</ele>
        <time>2021-11-02T10:35:56Z</time>
      </trkpt>
      <trkpt lat="43.91684" lon="7.5573">
        <ele>1235.4089029403</ele>
        <time>2021-11-02T10:35:57Z</time>
      </trkpt>
      <trkpt lat="43.91684" lon="7.55729">
        <ele>1235.4088797373</ele>
        <time>2021-11-02T10:35:58Z</time>
      </trkpt>
      <trkpt lat="43.91684" lon="7.55729">
        <ele>1235.4088458317</ele>
        <time>2021-11-02T10:35:59Z</time>
      </trkpt>
      <trkpt lat="43.91684" lon="7.55728">
        <ele>1235.4088329951</ele>
        <time>2021-11-02T10:36:00Z</time>
      </trkpt>
      <trkpt lat="43.91684" lon="7.55727">
        <ele>1235.408836372</ele>
        <time>2021-11-02T10:36:01Z</time>
      </trkpt>
      <trkpt lat="43.91684" lon="7.55726">
        <ele>1235.408830459</ele>
        <time>2021-11-02T10:36:02Z</time>
      </trkpt>
      <trkpt lat="43.91684" lon="7.55724">
        <ele>1235.4088157514</ele>
        <time>2021-11-02T10:36:03Z</time>
      </trkpt>
      <trkpt lat="43.91684" lon="7.55723">
        <ele>1236.4087997577</ele>
        <time>2021-11-02T10:36:04Z</time>
      </trkpt>
      <trkpt lat="43.91683" lon="7.55722">
        <ele>1236.4088030712</ele>
        <time>2021-11-02T10:36:05Z</time>
      </trkpt>
      <trkpt lat="43.91683" lon="7.5572">
        <ele>1236.4087998081</ele>
        <time>2021-11-02T10:36:06Z</time>
      </trkpt>
      <trkpt lat="43.91682" lon="7.55719">
        <ele>1236.4088106804</ele>
        <time>2021-11-02T10:36:07Z</time>
      </trkpt>
      <trkpt lat="43.91682" lon="7.55718">
        <ele>1236.4088074573</ele>
        <time>2021-11-02T10:36:08Z</time>
      </trkpt>
      <trkpt lat="43.91682" lon="7.55716">
        <ele>1236.408820393</ele>
        <time>2021-11-02T10:36:09Z</time>
      </trkpt>
      <trkpt lat="43.91681" lon="7.55715">
        <ele>1236.4088071517</ele>
        <time>2021-11-02T10:36:10Z</time>
      </trkpt>
      <trkpt lat="43.91681" lon="7.55714">
        <ele>1236.4087947254</ele>
        <time>2021-11-02T10:36:11Z</time>
      </trkpt>
      <trkpt lat="43.91681" lon="7.55713">
        <ele>1237.4087966978</ele>
        <time>2021-11-02T10:36:12Z</time>
      </trkpt>
      <trkpt lat="43.91681" lon="7.55712">
        <ele>1237.4087758792</ele>
        <time>2021-11-02T10:36:13Z</time>
      </trkpt>
      <trkpt lat="43.91681" lon="7.5571">
        <ele>1238.4087594695</ele>
        <time>2021-11-02T10:36:14Z</time>
      </trkpt>
      <trkpt lat="43.91681" lon="7.55709">
        <ele>1238.408751804</ele>
        <time>2021-11-02T10:36:17Z</time>
      </trkpt>
      <trkpt lat="43.91681" lon="7.55707">
        <ele>1238.4087433715</ele>
        <time>2021-11-02T10:36:18Z</time>
      </trkpt>
      <trkpt lat="43.91681" lon="7.55706">
        <ele>1238.4087297435</ele>
        <time>2021-11-02T10:36:19Z</time>
      </trkpt>
      <trkpt lat="43.91681" lon="7.55706">
        <ele>1238.4087232804</ele>
        <time>2021-11-02T10:36:20Z</time>
      </trkpt>
      <trkpt lat="43.9168" lon="7.55705">
        <ele>1238.4087374227</ele>
        <time>2021-11-02T10:36:21Z</time>
      </trkpt>
      <trkpt lat="43.9168" lon="7.55704">
        <ele>1238.408714864</ele>
        <time>2021-11-02T10:36:22Z</time>
      </trkpt>
      <trkpt lat="43.91681" lon="7.55703">
        <ele>1238.4086956094</ele>
        <time>2021-11-02T10:36:26Z</time>
      </trkpt>
      <trkpt lat="43.9168" lon="7.55701">
        <ele>1238.4086807803</ele>
        <time>2021-11-02T10:36:27Z</time>
      </trkpt>
      <trkpt lat="43.9168" lon="7.55701">
        <ele>1239.4086980084</ele>
        <time>2021-11-02T10:36:28Z</time>
      </trkpt>
      <trkpt lat="43.91679" lon="7.557">
        <ele>1239.4087147852</ele>
        <time>2021-11-02T10:36:29Z</time>
      </trkpt>
      <trkpt lat="43.91679" lon="7.55699">
        <ele>1239.4087009154</ele>
        <time>2021-11-02T10:36:30Z</time>
      </trkpt>
      <trkpt lat="43.9168" lon="7.55698">
        <ele>1239.4086723327</ele>
        <time>2021-11-02T10:36:31Z</time>
      </trkpt>
      <trkpt lat="43.9168" lon="7.55698">
        <ele>1239.4086492374</ele>
        <time>2021-11-02T10:36:32Z</time>
      </trkpt>
      <trkpt lat="43.91681" lon="7.55697">
        <ele>1239.4086171125</ele>
        <time>2021-11-02T10:36:34Z</time>
      </trkpt>
      <trkpt lat="43.91682" lon="7.55697">
        <ele>1239.4085422447</ele>
        <time>2021-11-02T10:36:35Z</time>
      </trkpt>
      <trkpt lat="43.91683" lon="7.55697">
        <ele>1239.408509224</ele>
        <time>2021-11-02T10:36:36Z</time>
      </trkpt>
      <trkpt lat="43.91684" lon="7.55697">
        <ele>1239.4084624369</ele>
        <time>2021-11-02T10:36:38Z</time>
      </trkpt>
      <trkpt lat="43.91684" lon="7.55696">
        <ele>1239.4084433351</ele>
        <time>2021-11-02T10:36:41Z</time>
      </trkpt>
      <trkpt lat="43.91684" lon="7.55695">
        <ele>1240.4084329355</ele>
        <time>2021-11-02T10:36:42Z</time>
      </trkpt>
      <trkpt lat="43.91684" lon="7.55695">
        <ele>1240.4084296483</ele>
        <time>2021-11-02T10:36:43Z</time>
      </trkpt>
      <trkpt lat="43.91683" lon="7.55693">
        <ele>1241.4084439289</ele>
        <time>2021-11-02T10:36:44Z</time>
      </trkpt>
      <trkpt lat="43.91682" lon="7.55692">
        <ele>1240.408463739</ele>
        <time>2021-11-02T10:36:45Z</time>
      </trkpt>
      <trkpt lat="43.91682" lon="7.55692">
        <ele>1240.4084653265</ele>
        <time>2021-11-02T10:36:46Z</time>
      </trkpt>
      <trkpt lat="43.91682" lon="7.55691">
        <ele>1240.4084395519</ele>
        <time>2021-11-02T10:36:47Z</time>
      </trkpt>
      <trkpt lat="43.91683" lon="7.55691">
        <ele>1240.4084176588</ele>
        <time>2021-11-02T10:36:48Z</time>
      </trkpt>
      <trkpt lat="43.91683" lon="7.55691">
        <ele>1241.4083832641</ele>
        <time>2021-11-02T10:36:50Z</time>
      </trkpt>
      <trkpt lat="43.91684" lon="7.5569">
        <ele>1241.4083444565</ele>
        <time>2021-11-02T10:36:51Z</time>
      </trkpt>
      <trkpt lat="43.91685" lon="7.55689">
        <ele>1241.40830387</ele>
        <time>2021-11-02T10:36:52Z</time>
      </trkpt>
      <trkpt lat="43.91686" lon="7.55689">
        <ele>1242.4082607159</ele>
        <time>2021-11-02T10:36:53Z</time>
      </trkpt>
      <trkpt lat="43.91686" lon="7.55689">
        <ele>1242.4082200562</ele>
        <time>2021-11-02T10:36:54Z</time>
      </trkpt>
      <trkpt lat="43.91687" lon="7.55689">
        <ele>1242.4081878508</ele>
        <time>2021-11-02T10:36:55Z</time>
      </trkpt>
      <trkpt lat="43.91687" lon="7.55689">
        <ele>1243.408193405</ele>
        <time>2021-11-02T10:36:58Z</time>
      </trkpt>
      <trkpt lat="43.91687" lon="7.55688">
        <ele>1243.4081978532</ele>
        <time>2021-11-02T10:37:01Z</time>
      </trkpt>
      <trkpt lat="43.91685" lon="7.55687">
        <ele>1242.4082380505</ele>
        <time>2021-11-02T10:37:02Z</time>
      </trkpt>
      <trkpt lat="43.91685" lon="7.55686">
        <ele>1243.4082266526</ele>
        <time>2021-11-02T10:37:03Z</time>
      </trkpt>
      <trkpt lat="43.91685" lon="7.55685">
        <ele>1243.4082357793</ele>
        <time>2021-11-02T10:37:04Z</time>
      </trkpt>
      <trkpt lat="43.91685" lon="7.55685">
        <ele>1243.4082378923</ele>
        <time>2021-11-02T10:37:05Z</time>
      </trkpt>
      <trkpt lat="43.91685" lon="7.55684">
        <ele>1244.4082375955</ele>
        <time>2021-11-02T10:37:08Z</time>
      </trkpt>
      <trkpt lat="43.91685" lon="7.55683">
        <ele>1244.4081802829</ele>
        <time>2021-11-02T10:37:09Z</time>
      </trkpt>
      <trkpt lat="43.91686" lon="7.55683">
        <ele>1244.4081497639</ele>
        <time>2021-11-02T10:37:10Z</time>
      </trkpt>
      <trkpt lat="43.91686" lon="7.55682">
        <ele>1245.4081259817</ele>
        <time>2021-11-02T10:37:11Z</time>
      </trkpt>
      <trkpt lat="43.91687" lon="7.55681">
        <ele>1244.40808254</ele>
        <time>2021-11-02T10:37:12Z</time>
      </trkpt>
      <trkpt lat="43.91687" lon="7.55681">
        <ele>1244.40808254</ele>
        <time>2021-11-02T10:37:17Z</time>
      </trkpt>
      <trkpt lat="43.91688" lon="7.55678">
        <ele>1244.4080193734</ele>
        <time>2021-11-02T10:37:18Z</time>
      </trkpt>
      <trkpt lat="43.91688" lon="7.55677">
        <ele>1244.4079912288</ele>
        <time>2021-11-02T10:37:19Z</time>
      </trkpt>
      <trkpt lat="43.91689" lon="7.55675">
        <ele>1245.4079303124</ele>
        <time>2021-11-02T10:37:21Z</time>
      </trkpt>
      <trkpt lat="43.91689" lon="7.55674">
        <ele>1246.4079125919</ele>
        <time>2021-11-02T10:37:24Z</time>
      </trkpt>
      <trkpt lat="43.91689" lon="7.55673">
        <ele>1246.4078791353</ele>
        <time>2021-11-02T10:37:25Z</time>
      </trkpt>
      <trkpt lat="43.91689" lon="7.55671">
        <ele>1247.4078707238</ele>
        <time>2021-11-02T10:37:27Z</time>
      </trkpt>
      <trkpt lat="43.91688" lon="7.5567">
        <ele>1247.4078758513</ele>
        <time>2021-11-02T10:37:28Z</time>
      </trkpt>
      <trkpt lat="43.91688" lon="7.5567">
        <ele>1247.4078857833</ele>
        <time>2021-11-02T10:37:29Z</time>
      </trkpt>
      <trkpt lat="43.91687" lon="7.55669">
        <ele>1247.4078955331</ele>
        <time>2021-11-02T10:37:30Z</time>
      </trkpt>
      <trkpt lat="43.91687" lon="7.55667">
        <ele>1248.4079128109</ele>
        <time>2021-11-02T10:37:31Z</time>
      </trkpt>
      <trkpt lat="43.91686" lon="7.55666">
        <ele>1248.4079247772</ele>
        <time>2021-11-02T10:37:32Z</time>
      </trkpt>
      <trkpt lat="43.91686" lon="7.55666">
        <ele>1248.4079269788</ele>
        <time>2021-11-02T10:37:33Z</time>
      </trkpt>
      <trkpt lat="43.91686" lon="7.55665">
        <ele>1248.4079433681</ele>
        <time>2021-11-02T10:37:34Z</time>
      </trkpt>
      <trkpt lat="43.91685" lon="7.55664">
        <ele>1248.4079610742</ele>
        <time>2021-11-02T10:37:35Z</time>
      </trkpt>
      <trkpt lat="43.91685" lon="7.55663">
        <ele>1248.4079589416</ele>
        <time>2021-11-02T10:37:36Z</time>
      </trkpt>
      <trkpt lat="43.91685" lon="7.55662">
        <ele>1248.4079526999</ele>
        <time>2021-11-02T10:37:37Z</time>
      </trkpt>
      <trkpt lat="43.91684" lon="7.55662">
        <ele>1248.4079823934</ele>
        <time>2021-11-02T10:37:38Z</time>
      </trkpt>
      <trkpt lat="43.91684" lon="7.55662">
        <ele>1248.4079961231</ele>
        <time>2021-11-02T10:37:40Z</time>
      </trkpt>
      <trkpt lat="43.91682" lon="7.55661">
        <ele>1247.4080564625</ele>
        <time>2021-11-02T10:37:41Z</time>
      </trkpt>
      <trkpt lat="43.91682" lon="7.5566">
        <ele>1247.4080650744</ele>
        <time>2021-11-02T10:37:42Z</time>
      </trkpt>
      <trkpt lat="43.91682" lon="7.55659">
        <ele>1246.4080474689</ele>
        <time>2021-11-02T10:37:52Z</time>
      </trkpt>
      <trkpt lat="43.91681" lon="7.55657">
        <ele>1245.4080415271</ele>
        <time>2021-11-02T10:37:53Z</time>
      </trkpt>
      <trkpt lat="43.91681" lon="7.55656">
        <ele>1245.4080269477</ele>
        <time>2021-11-02T10:37:54Z</time>
      </trkpt>
      <trkpt lat="43.91681" lon="7.55655">
        <ele>1245.4080316207</ele>
        <time>2021-11-02T10:37:55Z</time>
      </trkpt>
      <trkpt lat="43.91681" lon="7.55653">
        <ele>1246.4080258636</ele>
        <time>2021-11-02T10:37:57Z</time>
      </trkpt>
      <trkpt lat="43.9168" lon="7.55652">
        <ele>1245.4080403693</ele>
        <time>2021-11-02T10:37:58Z</time>
      </trkpt>
      <trkpt lat="43.91679" lon="7.5565">
        <ele>1245.4080458226</ele>
        <time>2021-11-02T10:38:00Z</time>
      </trkpt>
      <trkpt lat="43.91679" lon="7.55649">
        <ele>1245.4080531002</ele>
        <time>2021-11-02T10:38:01Z</time>
      </trkpt>
      <trkpt lat="43.91679" lon="7.55648">
        <ele>1246.4080499068</ele>
        <time>2021-11-02T10:38:02Z</time>
      </trkpt>
      <trkpt lat="43.91678" lon="7.55647">
        <ele>1245.4080458387</ele>
        <time>2021-11-02T10:38:03Z</time>
      </trkpt>
      <trkpt lat="43.91679" lon="7.55646">
        <ele>1246.4080339574</ele>
        <time>2021-11-02T10:38:04Z</time>
      </trkpt>
      <trkpt lat="43.91679" lon="7.55645">
        <ele>1247.407997081</ele>
        <time>2021-11-02T10:38:05Z</time>
      </trkpt>
      <trkpt lat="43.91678" lon="7.55644">
        <ele>1246.4080094106</ele>
        <time>2021-11-02T10:38:06Z</time>
      </trkpt>
      <trkpt lat="43.91678" lon="7.55643">
        <ele>1247.4080328647</ele>
        <time>2021-11-02T10:38:07Z</time>
      </trkpt>
      <trkpt lat="43.91677" lon="7.55642">
        <ele>1247.4080337885</ele>
        <time>2021-11-02T10:38:08Z</time>
      </trkpt>
      <trkpt lat="43.91678" lon="7.55641">
        <ele>1247.4080149993</ele>
        <time>2021-11-02T10:38:09Z</time>
      </trkpt>
      <trkpt lat="43.91677" lon="7.5564">
        <ele>1247.4080122795</ele>
        <time>2021-11-02T10:38:10Z</time>
      </trkpt>
      <trkpt lat="43.91677" lon="7.5564">
        <ele>1247.4080105944</ele>
        <time>2021-11-02T10:38:11Z</time>
      </trkpt>
      <trkpt lat="43.91677" lon="7.55639">
        <ele>1248.4079894368</ele>
        <time>2021-11-02T10:38:20Z</time>
      </trkpt>
      <trkpt lat="43.91677" lon="7.55637">
        <ele>1247.4080015038</ele>
        <time>2021-11-02T10:38:21Z</time>
      </trkpt>
      <trkpt lat="43.91676" lon="7.55636">
        <ele>1247.408012612</ele>
        <time>2021-11-02T10:38:22Z</time>
      </trkpt>
      <trkpt lat="43.91676" lon="7.55635">
        <ele>1248.4080166593</ele>
        <time>2021-11-02T10:38:25Z</time>
      </trkpt>
      <trkpt lat="43.91675" lon="7.55632">
        <ele>1249.4080273886</ele>
        <time>2021-11-02T10:38:26Z</time>
      </trkpt>
      <trkpt lat="43.91675" lon="7.55632">
        <ele>1249.4080203633</ele>
        <time>2021-11-02T10:38:27Z</time>
      </trkpt>
      <trkpt lat="43.91675" lon="7.55631">
        <ele>1249.4079884227</ele>
        <time>2021-11-02T10:38:28Z</time>
      </trkpt>
      <trkpt lat="43.91676" lon="7.55631">
        <ele>1249.4079469994</ele>
        <time>2021-11-02T10:38:29Z</time>
      </trkpt>
      <trkpt lat="43.91677" lon="7.55631">
        <ele>1250.4079194629</ele>
        <time>2021-11-02T10:38:30Z</time>
      </trkpt>
      <trkpt lat="43.91678" lon="7.55632">
        <ele>1250.407866567</ele>
        <time>2021-11-02T10:38:32Z</time>
      </trkpt>
      <trkpt lat="43.91679" lon="7.55632">
        <ele>1250.4078260899</ele>
        <time>2021-11-02T10:38:33Z</time>
      </trkpt>
      <trkpt lat="43.9168" lon="7.55632">
        <ele>1251.4077760532</ele>
        <time>2021-11-02T10:38:34Z</time>
      </trkpt>
      <trkpt lat="43.91682" lon="7.55632">
        <ele>1251.4076764006</ele>
        <time>2021-11-02T10:38:36Z</time>
      </trkpt>
      <trkpt lat="43.91683" lon="7.55632">
        <ele>1251.4076219935</ele>
        <time>2021-11-02T10:38:37Z</time>
      </trkpt>
      <trkpt lat="43.91683" lon="7.55632">
        <ele>1251.4076219935</ele>
        <time>2021-11-02T10:38:38Z</time>
      </trkpt>
      <trkpt lat="43.91685" lon="7.55632">
        <ele>1252.4075354719</ele>
        <time>2021-11-02T10:38:39Z</time>
      </trkpt>
      <trkpt lat="43.91685" lon="7.55632">
        <ele>1252.4075074255</ele>
        <time>2021-11-02T10:38:40Z</time>
      </trkpt>
      <trkpt lat="43.91686" lon="7.55632">
        <ele>1253.407481521</ele>
        <time>2021-11-02T10:38:41Z</time>
      </trkpt>
      <trkpt lat="43.91686" lon="7.55633">
        <ele>1253.4074703812</ele>
        <time>2021-11-02T10:38:44Z</time>
      </trkpt>
      <trkpt lat="43.91688" lon="7.55632">
        <ele>1253.4073768047</ele>
        <time>2021-11-02T10:38:46Z</time>
      </trkpt>
      <trkpt lat="43.91689" lon="7.55632">
        <ele>1254.4073463759</ele>
        <time>2021-11-02T10:38:47Z</time>
      </trkpt>
      <trkpt lat="43.9169" lon="7.55633">
        <ele>1255.4073138325</ele>
        <time>2021-11-02T10:38:48Z</time>
      </trkpt>
      <trkpt lat="43.9169" lon="7.55633">
        <ele>1255.4072773485</ele>
        <time>2021-11-02T10:38:49Z</time>
      </trkpt>
      <trkpt lat="43.91691" lon="7.55634">
        <ele>1255.4072595492</ele>
        <time>2021-11-02T10:38:51Z</time>
      </trkpt>
      <trkpt lat="43.91692" lon="7.55634">
        <ele>1255.4072290714</ele>
        <time>2021-11-02T10:38:52Z</time>
      </trkpt>
      <trkpt lat="43.91692" lon="7.55634">
        <ele>1255.4071930684</ele>
        <time>2021-11-02T10:38:53Z</time>
      </trkpt>
      <trkpt lat="43.91693" lon="7.55634">
        <ele>1256.4071491616</ele>
        <time>2021-11-02T10:38:54Z</time>
      </trkpt>
      <trkpt lat="43.91694" lon="7.55634">
        <ele>1257.4071309727</ele>
        <time>2021-11-02T10:38:55Z</time>
      </trkpt>
      <trkpt lat="43.91694" lon="7.55635">
        <ele>1257.4071148472</ele>
        <time>2021-11-02T10:39:07Z</time>
      </trkpt>
      <trkpt lat="43.91695" lon="7.55635">
        <ele>1257.4070582</ele>
        <time>2021-11-02T10:39:08Z</time>
      </trkpt>
      <trkpt lat="43.91696" lon="7.55635">
        <ele>1257.4070285499</ele>
        <time>2021-11-02T10:39:09Z</time>
      </trkpt>
      <trkpt lat="43.91697" lon="7.55634">
        <ele>1258.4069912455</ele>
        <time>2021-11-02T10:39:12Z</time>
      </trkpt>
      <trkpt lat="43.91699" lon="7.55635">
        <ele>1258.4068968559</ele>
        <time>2021-11-02T10:39:14Z</time>
      </trkpt>
      <trkpt lat="43.91699" lon="7.55634">
        <ele>1259.4068544877</ele>
        <time>2021-11-02T10:39:15Z</time>
      </trkpt>
      <trkpt lat="43.917" lon="7.55635">
        <ele>1259.4068123088</ele>
        <time>2021-11-02T10:39:16Z</time>
      </trkpt>
      <trkpt lat="43.91701" lon="7.55635">
        <ele>1259.40677595</ele>
        <time>2021-11-02T10:39:17Z</time>
      </trkpt>
      <trkpt lat="43.91702" lon="7.55635">
        <ele>1259.4067415161</ele>
        <time>2021-11-02T10:39:18Z</time>
      </trkpt>
      <trkpt lat="43.91702" lon="7.55635">
        <ele>1259.4067173533</ele>
        <time>2021-11-02T10:39:19Z</time>
      </trkpt>
      <trkpt lat="43.91703" lon="7.55635">
        <ele>1259.4066696096</ele>
        <time>2021-11-02T10:39:20Z</time>
      </trkpt>
      <trkpt lat="43.91705" lon="7.55636">
        <ele>1260.4066163263</ele>
        <time>2021-11-02T10:39:21Z</time>
      </trkpt>
      <trkpt lat="43.91705" lon="7.55636">
        <ele>1259.4065833124</ele>
        <time>2021-11-02T10:39:23Z</time>
      </trkpt>
      <trkpt lat="43.91706" lon="7.55635">
        <ele>1260.4065479898</ele>
        <time>2021-11-02T10:39:25Z</time>
      </trkpt>
      <trkpt lat="43.91708" lon="7.55634">
        <ele>1259.4064090143</ele>
        <time>2021-11-02T10:39:27Z</time>
      </trkpt>
      <trkpt lat="43.91709" lon="7.55633">
        <ele>1259.4063732153</ele>
        <time>2021-11-02T10:39:28Z</time>
      </trkpt>
      <trkpt lat="43.9171" lon="7.55633">
        <ele>1259.4063289084</ele>
        <time>2021-11-02T10:39:29Z</time>
      </trkpt>
      <trkpt lat="43.91711" lon="7.55633">
        <ele>1259.4062969658</ele>
        <time>2021-11-02T10:39:30Z</time>
      </trkpt>
      <trkpt lat="43.91711" lon="7.55633">
        <ele>1258.4062722317</ele>
        <time>2021-11-02T10:39:31Z</time>
      </trkpt>
      <trkpt lat="43.91711" lon="7.55633">
        <ele>1259.4062479014</ele>
        <time>2021-11-02T10:39:32Z</time>
      </trkpt>
      <trkpt lat="43.91712" lon="7.55632">
        <ele>1259.4062167839</ele>
        <time>2021-11-02T10:39:33Z</time>
      </trkpt>
      <trkpt lat="43.91713" lon="7.55632">
        <ele>1259.4061733211</ele>
        <time>2021-11-02T10:39:34Z</time>
      </trkpt>
      <trkpt lat="43.91714" lon="7.55631">
        <ele>1260.4061186329</ele>
        <time>2021-11-02T10:39:35Z</time>
      </trkpt>
      <trkpt lat="43.91715" lon="7.55631">
        <ele>1261.4060645559</ele>
        <time>2021-11-02T10:39:36Z</time>
      </trkpt>
      <trkpt lat="43.91715" lon="7.5563">
        <ele>1261.4060164703</ele>
        <time>2021-11-02T10:39:37Z</time>
      </trkpt>
      <trkpt lat="43.91716" lon="7.5563">
        <ele>1261.4059729021</ele>
        <time>2021-11-02T10:39:38Z</time>
      </trkpt>
      <trkpt lat="43.91717" lon="7.55629">
        <ele>1262.405936019</ele>
        <time>2021-11-02T10:39:40Z</time>
      </trkpt>
      <trkpt lat="43.91716" lon="7.55628">
        <ele>1261.4059466797</ele>
        <time>2021-11-02T10:39:42Z</time>
      </trkpt>
      <trkpt lat="43.91715" lon="7.55627">
        <ele>1261.4059816402</ele>
        <time>2021-11-02T10:39:43Z</time>
      </trkpt>
      <trkpt lat="43.91714" lon="7.55626">
        <ele>1261.4060139596</ele>
        <time>2021-11-02T10:39:44Z</time>
      </trkpt>
      <trkpt lat="43.91714" lon="7.55627">
        <ele>1261.4060549359</ele>
        <time>2021-11-02T10:39:45Z</time>
      </trkpt>
      <trkpt lat="43.91713" lon="7.55626">
        <ele>1261.4060750306</ele>
        <time>2021-11-02T10:39:46Z</time>
      </trkpt>
      <trkpt lat="43.91713" lon="7.55626">
        <ele>1261.4060936609</ele>
        <time>2021-11-02T10:39:47Z</time>
      </trkpt>
      <trkpt lat="43.91712" lon="7.55626">
        <ele>1261.4061127112</ele>
        <time>2021-11-02T10:39:49Z</time>
      </trkpt>
      <trkpt lat="43.91711" lon="7.55625">
        <ele>1262.4061590269</ele>
        <time>2021-11-02T10:39:50Z</time>
      </trkpt>
      <trkpt lat="43.9171" lon="7.55624">
        <ele>1262.4062036724</ele>
        <time>2021-11-02T10:39:52Z</time>
      </trkpt>
      <trkpt lat="43.91709" lon="7.55624">
        <ele>1262.4062262975</ele>
        <time>2021-11-02T10:39:53Z</time>
      </trkpt>
      <trkpt lat="43.91709" lon="7.55624">
        <ele>1262.4062528487</ele>
        <time>2021-11-02T10:39:54Z</time>
      </trkpt>
      <trkpt lat="43.91708" lon="7.55623">
        <ele>1261.4062661467</ele>
        <time>2021-11-02T10:39:55Z</time>
      </trkpt>
      <trkpt lat="43.91708" lon="7.55623">
        <ele>1262.4062986272</ele>
        <time>2021-11-02T10:39:57Z</time>
      </trkpt>
      <trkpt lat="43.91707" lon="7.55622">
        <ele>1263.4063219166</ele>
        <time>2021-11-02T10:39:58Z</time>
      </trkpt>
      <trkpt lat="43.91707" lon="7.55622">
        <ele>1263.4063238247</ele>
        <time>2021-11-02T10:39:59Z</time>
      </trkpt>
      <trkpt lat="43.91706" lon="7.5562">
        <ele>1264.4063530831</ele>
        <time>2021-11-02T10:40:01Z</time>
      </trkpt>
      <trkpt lat="43.91706" lon="7.5562">
        <ele>1264.4063465537</ele>
        <time>2021-11-02T10:40:02Z</time>
      </trkpt>
      <trkpt lat="43.91706" lon="7.55619">
        <ele>1264.4063472272</ele>
        <time>2021-11-02T10:40:04Z</time>
      </trkpt>
      <trkpt lat="43.91705" lon="7.55618">
        <ele>1265.4063789531</ele>
        <time>2021-11-02T10:40:05Z</time>
      </trkpt>
      <trkpt lat="43.91704" lon="7.55617">
        <ele>1265.4064153656</ele>
        <time>2021-11-02T10:40:06Z</time>
      </trkpt>
      <trkpt lat="43.91703" lon="7.55616">
        <ele>1265.4064262393</ele>
        <time>2021-11-02T10:40:07Z</time>
      </trkpt>
      <trkpt lat="43.91703" lon="7.55615">
        <ele>1265.4064424507</ele>
        <time>2021-11-02T10:40:08Z</time>
      </trkpt>
      <trkpt lat="43.91702" lon="7.55615">
        <ele>1266.4064529895</ele>
        <time>2021-11-02T10:40:10Z</time>
      </trkpt>
      <trkpt lat="43.91701" lon="7.55613">
        <ele>1266.4064714245</ele>
        <time>2021-11-02T10:40:11Z</time>
      </trkpt>
      <trkpt lat="43.917" lon="7.55612">
        <ele>1266.4065212074</ele>
        <time>2021-11-02T10:40:12Z</time>
      </trkpt>
      <trkpt lat="43.91699" lon="7.55611">
        <ele>1266.4065581805</ele>
        <time>2021-11-02T10:40:13Z</time>
      </trkpt>
      <trkpt lat="43.91698" lon="7.5561">
        <ele>1266.4065833568</ele>
        <time>2021-11-02T10:40:14Z</time>
      </trkpt>
      <trkpt lat="43.91698" lon="7.55609">
        <ele>1266.406598857</ele>
        <time>2021-11-02T10:40:16Z</time>
      </trkpt>
      <trkpt lat="43.91697" lon="7.55608">
        <ele>1265.4066377823</ele>
        <time>2021-11-02T10:40:17Z</time>
      </trkpt>
      <trkpt lat="43.91697" lon="7.55608">
        <ele>1267.4066178673</ele>
        <time>2021-11-02T10:40:20Z</time>
      </trkpt>
      <trkpt lat="43.91696" lon="7.55607">
        <ele>1266.4066424667</ele>
        <time>2021-11-02T10:40:21Z</time>
      </trkpt>
      <trkpt lat="43.91696" lon="7.55606">
        <ele>1266.4066455086</ele>
        <time>2021-11-02T10:40:22Z</time>
      </trkpt>
      <trkpt lat="43.91696" lon="7.55605">
        <ele>1265.406652379</ele>
        <time>2021-11-02T10:40:23Z</time>
      </trkpt>
      <trkpt lat="43.91695" lon="7.55604">
        <ele>1265.4066729908</ele>
        <time>2021-11-02T10:40:24Z</time>
      </trkpt>
      <trkpt lat="43.91694" lon="7.55604">
        <ele>1265.4066984324</ele>
        <time>2021-11-02T10:40:25Z</time>
      </trkpt>
      <trkpt lat="43.91694" lon="7.55604">
        <ele>1265.4067192128</ele>
        <time>2021-11-02T10:40:26Z</time>
      </trkpt>
      <trkpt lat="43.91693" lon="7.55603">
        <ele>1265.4067460838</ele>
        <time>2021-11-02T10:40:27Z</time>
      </trkpt>
      <trkpt lat="43.91693" lon="7.55602">
        <ele>1266.4067434096</ele>
        <time>2021-11-02T10:40:28Z</time>
      </trkpt>
      <trkpt lat="43.91693" lon="7.55601">
        <ele>1267.4067253098</ele>
        <time>2021-11-02T10:40:29Z</time>
      </trkpt>
      <trkpt lat="43.91693" lon="7.55601">
        <ele>1267.4067258716</ele>
        <time>2021-11-02T10:40:30Z</time>
      </trkpt>
      <trkpt lat="43.91693" lon="7.556">
        <ele>1267.4067299557</ele>
        <time>2021-11-02T10:40:31Z</time>
      </trkpt>
      <trkpt lat="43.91692" lon="7.55599">
        <ele>1267.4067321095</ele>
        <time>2021-11-02T10:40:32Z</time>
      </trkpt>
      <trkpt lat="43.91692" lon="7.55599">
        <ele>1267.4067379295</ele>
        <time>2021-11-02T10:40:33Z</time>
      </trkpt>
      <trkpt lat="43.91691" lon="7.55598">
        <ele>1267.4067636267</ele>
        <time>2021-11-02T10:40:34Z</time>
      </trkpt>
      <trkpt lat="43.91692" lon="7.55597">
        <ele>1267.4067116293</ele>
        <time>2021-11-02T10:40:36Z</time>
      </trkpt>
      <trkpt lat="43.91692" lon="7.55596">
        <ele>1267.4067107561</ele>
        <time>2021-11-02T10:40:37Z</time>
      </trkpt>
      <trkpt lat="43.91692" lon="7.55595">
        <ele>1267.4067163907</ele>
        <time>2021-11-02T10:40:38Z</time>
      </trkpt>
      <trkpt lat="43.91691" lon="7.55594">
        <ele>1267.4067219183</ele>
        <time>2021-11-02T10:40:40Z</time>
      </trkpt>
      <trkpt lat="43.9169" lon="7.55592">
        <ele>1268.4067490853</ele>
        <time>2021-11-02T10:40:42Z</time>
      </trkpt>
      <trkpt lat="43.9169" lon="7.55591">
        <ele>1269.4067619411</ele>
        <time>2021-11-02T10:40:43Z</time>
      </trkpt>
      <trkpt lat="43.91689" lon="7.5559">
        <ele>1269.4067560143</ele>
        <time>2021-11-02T10:40:44Z</time>
      </trkpt>
      <trkpt lat="43.91689" lon="7.55589">
        <ele>1269.4067728407</ele>
        <time>2021-11-02T10:40:45Z</time>
      </trkpt>
      <trkpt lat="43.91688" lon="7.55588">
        <ele>1269.4067919218</ele>
        <time>2021-11-02T10:40:48Z</time>
      </trkpt>
      <trkpt lat="43.91688" lon="7.55588">
        <ele>1269.4067998542</ele>
        <time>2021-11-02T10:40:49Z</time>
      </trkpt>
      <trkpt lat="43.91688" lon="7.55587">
        <ele>1269.4068064392</ele>
        <time>2021-11-02T10:40:50Z</time>
      </trkpt>
      <trkpt lat="43.91687" lon="7.55586">
        <ele>1269.4067981347</ele>
        <time>2021-11-02T10:40:51Z</time>
      </trkpt>
      <trkpt lat="43.91687" lon="7.55585">
        <ele>1269.4068001919</ele>
        <time>2021-11-02T10:40:52Z</time>
      </trkpt>
      <trkpt lat="43.91687" lon="7.55584">
        <ele>1269.406812534</ele>
        <time>2021-11-02T10:40:53Z</time>
      </trkpt>
      <trkpt lat="43.91686" lon="7.55583">
        <ele>1269.4068436542</ele>
        <time>2021-11-02T10:40:55Z</time>
      </trkpt>
      <trkpt lat="43.91685" lon="7.55581">
        <ele>1269.4068521068</ele>
        <time>2021-11-02T10:40:56Z</time>
      </trkpt>
      <trkpt lat="43.91685" lon="7.55581">
        <ele>1269.4068643645</ele>
        <time>2021-11-02T10:40:57Z</time>
      </trkpt>
      <trkpt lat="43.91684" lon="7.5558">
        <ele>1269.4068798336</ele>
        <time>2021-11-02T10:40:58Z</time>
      </trkpt>
      <trkpt lat="43.91684" lon="7.55579">
        <ele>1270.4068911822</ele>
        <time>2021-11-02T10:40:59Z</time>
      </trkpt>
      <trkpt lat="43.91684" lon="7.55578">
        <ele>1270.4068701499</ele>
        <time>2021-11-02T10:41:00Z</time>
      </trkpt>
      <trkpt lat="43.91684" lon="7.55576">
        <ele>1270.406863611</ele>
        <time>2021-11-02T10:41:01Z</time>
      </trkpt>
      <trkpt lat="43.91683" lon="7.55576">
        <ele>1270.4068663993</ele>
        <time>2021-11-02T10:41:02Z</time>
      </trkpt>
      <trkpt lat="43.91684" lon="7.55574">
        <ele>1271.406835293</ele>
        <time>2021-11-02T10:41:04Z</time>
      </trkpt>
      <trkpt lat="43.91684" lon="7.55573">
        <ele>1273.4067810202</ele>
        <time>2021-11-02T10:41:05Z</time>
      </trkpt>
      <trkpt lat="43.91685" lon="7.55573">
        <ele>1273.4067447588</ele>
        <time>2021-11-02T10:41:06Z</time>
      </trkpt>
      <trkpt lat="43.91686" lon="7.55572">
        <ele>1274.4067050161</ele>
        <time>2021-11-02T10:41:07Z</time>
      </trkpt>
      <trkpt lat="43.91687" lon="7.55572">
        <ele>1274.4066554591</ele>
        <time>2021-11-02T10:41:08Z</time>
      </trkpt>
      <trkpt lat="43.91688" lon="7.55573">
        <ele>1275.4066003014</ele>
        <time>2021-11-02T10:41:10Z</time>
      </trkpt>
      <trkpt lat="43.91689" lon="7.55573">
        <ele>1276.4065704063</ele>
        <time>2021-11-02T10:41:14Z</time>
      </trkpt>
      <trkpt lat="43.9169" lon="7.55573">
        <ele>1276.4064968555</ele>
        <time>2021-11-02T10:41:16Z</time>
      </trkpt>
      <trkpt lat="43.91691" lon="7.55574">
        <ele>1275.4064561568</ele>
        <time>2021-11-02T10:41:17Z</time>
      </trkpt>
      <trkpt lat="43.91692" lon="7.55574">
        <ele>1275.4064063477</ele>
        <time>2021-11-02T10:41:18Z</time>
      </trkpt>
      <trkpt lat="43.91693" lon="7.55574">
        <ele>1275.4063545378</ele>
        <time>2021-11-02T10:41:19Z</time>
      </trkpt>
      <trkpt lat="43.91694" lon="7.55573">
        <ele>1275.4062997704</ele>
        <time>2021-11-02T10:41:20Z</time>
      </trkpt>
      <trkpt lat="43.91695" lon="7.55573">
        <ele>1276.4062745736</ele>
        <time>2021-11-02T10:41:21Z</time>
      </trkpt>
      <trkpt lat="43.91695" lon="7.55572">
        <ele>1276.4062483249</ele>
        <time>2021-11-02T10:41:22Z</time>
      </trkpt>
      <trkpt lat="43.91696" lon="7.55572">
        <ele>1276.4062094571</ele>
        <time>2021-11-02T10:41:23Z</time>
      </trkpt>
      <trkpt lat="43.91697" lon="7.55572">
        <ele>1277.4061642152</ele>
        <time>2021-11-02T10:41:25Z</time>
      </trkpt>
      <trkpt lat="43.91697" lon="7.55572">
        <ele>1277.4061331415</ele>
        <time>2021-11-02T10:41:26Z</time>
      </trkpt>
      <trkpt lat="43.91698" lon="7.55572">
        <ele>1277.4060978732</ele>
        <time>2021-11-02T10:41:27Z</time>
      </trkpt>
      <trkpt lat="43.91699" lon="7.55572">
        <ele>1278.406064762</ele>
        <time>2021-11-02T10:41:28Z</time>
      </trkpt>
      <trkpt lat="43.917" lon="7.55572">
        <ele>1278.4060153105</ele>
        <time>2021-11-02T10:41:29Z</time>
      </trkpt>
      <trkpt lat="43.91702" lon="7.55573">
        <ele>1279.4059130557</ele>
        <time>2021-11-02T10:41:31Z</time>
      </trkpt>
      <trkpt lat="43.91703" lon="7.55573">
        <ele>1278.4058574055</ele>
        <time>2021-11-02T10:41:32Z</time>
      </trkpt>
      <trkpt lat="43.91704" lon="7.55573">
        <ele>1278.4058161407</ele>
        <time>2021-11-02T10:41:33Z</time>
      </trkpt>
      <trkpt lat="43.91706" lon="7.55572">
        <ele>1277.405717853</ele>
        <time>2021-11-02T10:41:35Z</time>
      </trkpt>
      <trkpt lat="43.91707" lon="7.55572">
        <ele>1277.4056532468</ele>
        <time>2021-11-02T10:41:37Z</time>
      </trkpt>
      <trkpt lat="43.91708" lon="7.55572">
        <ele>1277.4055931211</ele>
        <time>2021-11-02T10:41:38Z</time>
      </trkpt>
      <trkpt lat="43.91709" lon="7.55572">
        <ele>1277.4055541711</ele>
        <time>2021-11-02T10:41:39Z</time>
      </trkpt>
      <trkpt lat="43.91711" lon="7.55572">
        <ele>1277.4054625696</ele>
        <time>2021-11-02T10:41:41Z</time>
      </trkpt>
      <trkpt lat="43.91712" lon="7.55573">
        <ele>1277.4054155152</ele>
        <time>2021-11-02T10:41:42Z</time>
      </trkpt>
      <trkpt lat="43.91713" lon="7.55573">
        <ele>1278.4053740892</ele>
        <time>2021-11-02T10:41:43Z</time>
      </trkpt>
      <trkpt lat="43.91714" lon="7.55572">
        <ele>1278.4053318865</ele>
        <time>2021-11-02T10:41:45Z</time>
      </trkpt>
      <trkpt lat="43.91715" lon="7.55571">
        <ele>1278.4052745995</ele>
        <time>2021-11-02T10:41:47Z</time>
      </trkpt>
      <trkpt lat="43.91715" lon="7.55571">
        <ele>1278.40524072</ele>
        <time>2021-11-02T10:41:48Z</time>
      </trkpt>
      <trkpt lat="43.91716" lon="7.55571">
        <ele>1278.405203239</ele>
        <time>2021-11-02T10:41:49Z</time>
      </trkpt>
      <trkpt lat="43.91718" lon="7.5557">
        <ele>1278.4050857658</ele>
        <time>2021-11-02T10:41:51Z</time>
      </trkpt>
      <trkpt lat="43.91719" lon="7.55569">
        <ele>1278.4050186812</ele>
        <time>2021-11-02T10:41:52Z</time>
      </trkpt>
      <trkpt lat="43.9172" lon="7.55568">
        <ele>1278.404962695</ele>
        <time>2021-11-02T10:41:53Z</time>
      </trkpt>
      <trkpt lat="43.91722" lon="7.55568">
        <ele>1279.4048642209</ele>
        <time>2021-11-02T10:41:55Z</time>
      </trkpt>
      <trkpt lat="43.91724" lon="7.55568">
        <ele>1280.4047787973</ele>
        <time>2021-11-02T10:41:57Z</time>
      </trkpt>
      <trkpt lat="43.91725" lon="7.55569">
        <ele>1280.4047410544</ele>
        <time>2021-11-02T10:41:58Z</time>
      </trkpt>
      <trkpt lat="43.91726" lon="7.55569">
        <ele>1280.4047043372</ele>
        <time>2021-11-02T10:42:00Z</time>
      </trkpt>
      <trkpt lat="43.91728" lon="7.55568">
        <ele>1280.4045865791</ele>
        <time>2021-11-02T10:42:01Z</time>
      </trkpt>
      <trkpt lat="43.91729" lon="7.55567">
        <ele>1280.4045272047</ele>
        <time>2021-11-02T10:42:02Z</time>
      </trkpt>
      <trkpt lat="43.9173" lon="7.55567">
        <ele>1279.4044847115</ele>
        <time>2021-11-02T10:42:03Z</time>
      </trkpt>
      <trkpt lat="43.9173" lon="7.55565">
        <ele>1279.4044446466</ele>
        <time>2021-11-02T10:42:05Z</time>
      </trkpt>
      <trkpt lat="43.9173" lon="7.55564">
        <ele>1279.4044204264</ele>
        <time>2021-11-02T10:42:07Z</time>
      </trkpt>
      <trkpt lat="43.91731" lon="7.55564">
        <ele>1279.40438335</ele>
        <time>2021-11-02T10:42:10Z</time>
      </trkpt>
      <trkpt lat="43.91733" lon="7.55563">
        <ele>1280.4042588425</ele>
        <time>2021-11-02T10:42:12Z</time>
      </trkpt>
      <trkpt lat="43.91734" lon="7.55563">
        <ele>1280.4042207901</ele>
        <time>2021-11-02T10:42:13Z</time>
      </trkpt>
      <trkpt lat="43.91734" lon="7.55563">
        <ele>1280.4041956195</ele>
        <time>2021-11-02T10:42:14Z</time>
      </trkpt>
      <trkpt lat="43.91735" lon="7.55563">
        <ele>1279.4041474182</ele>
        <time>2021-11-02T10:42:15Z</time>
      </trkpt>
      <trkpt lat="43.91736" lon="7.55563">
        <ele>1279.4041090484</ele>
        <time>2021-11-02T10:42:16Z</time>
      </trkpt>
      <trkpt lat="43.91737" lon="7.55563">
        <ele>1279.4040746246</ele>
        <time>2021-11-02T10:42:17Z</time>
      </trkpt>
      <trkpt lat="43.91737" lon="7.55562">
        <ele>1280.4040450152</ele>
        <time>2021-11-02T10:42:18Z</time>
      </trkpt>
      <trkpt lat="43.91737" lon="7.55561">
        <ele>1279.4040391602</ele>
        <time>2021-11-02T10:42:20Z</time>
      </trkpt>
      <trkpt lat="43.91737" lon="7.5556">
        <ele>1279.4040543314</ele>
        <time>2021-11-02T10:42:21Z</time>
      </trkpt>
      <trkpt lat="43.91736" lon="7.5556">
        <ele>1279.4040652277</ele>
        <time>2021-11-02T10:42:22Z</time>
      </trkpt>
      <trkpt lat="43.91735" lon="7.5556">
        <ele>1280.4041093791</ele>
        <time>2021-11-02T10:42:23Z</time>
      </trkpt>
      <trkpt lat="43.91735" lon="7.55559">
        <ele>1280.4041206876</ele>
        <time>2021-11-02T10:42:25Z</time>
      </trkpt>
      <trkpt lat="43.91734" lon="7.55558">
        <ele>1280.4041355894</ele>
        <time>2021-11-02T10:42:26Z</time>
      </trkpt>
      <trkpt lat="43.91734" lon="7.55558">
        <ele>1281.4041353844</ele>
        <time>2021-11-02T10:42:28Z</time>
      </trkpt>
      <trkpt lat="43.91733" lon="7.55556">
        <ele>1281.4041871611</ele>
        <time>2021-11-02T10:42:29Z</time>
      </trkpt>
      <trkpt lat="43.91732" lon="7.55556">
        <ele>1281.4041942124</ele>
        <time>2021-11-02T10:42:30Z</time>
      </trkpt>
      <trkpt lat="43.91731" lon="7.55555">
        <ele>1281.4042370677</ele>
        <time>2021-11-02T10:42:32Z</time>
      </trkpt>
      <trkpt lat="43.91731" lon="7.55555">
        <ele>1281.4042370677</ele>
        <time>2021-11-02T10:42:34Z</time>
      </trkpt>
      <trkpt lat="43.9173" lon="7.55555">
        <ele>1282.4043225594</ele>
        <time>2021-11-02T10:42:36Z</time>
      </trkpt>
      <trkpt lat="43.91729" lon="7.55554">
        <ele>1282.4043402683</ele>
        <time>2021-11-02T10:42:37Z</time>
      </trkpt>
      <trkpt lat="43.91728" lon="7.55553">
        <ele>1282.4043763134</ele>
        <time>2021-11-02T10:42:38Z</time>
      </trkpt>
      <trkpt lat="43.91728" lon="7.55553">
        <ele>1282.4043916911</ele>
        <time>2021-11-02T10:42:39Z</time>
      </trkpt>
      <trkpt lat="43.91727" lon="7.55552">
        <ele>1282.4044313944</ele>
        <time>2021-11-02T10:42:41Z</time>
      </trkpt>
      <trkpt lat="43.91725" lon="7.55551">
        <ele>1282.4045007237</ele>
        <time>2021-11-02T10:42:42Z</time>
      </trkpt>
      <trkpt lat="43.91724" lon="7.55551">
        <ele>1282.404566783</ele>
        <time>2021-11-02T10:42:43Z</time>
      </trkpt>
      <trkpt lat="43.91722" lon="7.5555">
        <ele>1282.4046308401</ele>
        <time>2021-11-02T10:42:45Z</time>
      </trkpt>
      <trkpt lat="43.91722" lon="7.5555">
        <ele>1281.4046521609</ele>
        <time>2021-11-02T10:42:46Z</time>
      </trkpt>
      <trkpt lat="43.9172" lon="7.5555">
        <ele>1280.4047073837</ele>
        <time>2021-11-02T10:42:47Z</time>
      </trkpt>
      <trkpt lat="43.91719" lon="7.55549">
        <ele>1280.4047649678</ele>
        <time>2021-11-02T10:42:48Z</time>
      </trkpt>
      <trkpt lat="43.91718" lon="7.55548">
        <ele>1280.4048040993</ele>
        <time>2021-11-02T10:42:49Z</time>
      </trkpt>
      <trkpt lat="43.91718" lon="7.55547">
        <ele>1280.4048127631</ele>
        <time>2021-11-02T10:42:50Z</time>
      </trkpt>
      <trkpt lat="43.91717" lon="7.55547">
        <ele>1281.4048129384</ele>
        <time>2021-11-02T10:42:51Z</time>
      </trkpt>
      <trkpt lat="43.91717" lon="7.55546">
        <ele>1281.4048360289</ele>
        <time>2021-11-02T10:42:52Z</time>
      </trkpt>
      <trkpt lat="43.91716" lon="7.55545">
        <ele>1282.4048532447</ele>
        <time>2021-11-02T10:42:54Z</time>
      </trkpt>
      <trkpt lat="43.91716" lon="7.55544">
        <ele>1282.4048505395</ele>
        <time>2021-11-02T10:42:55Z</time>
      </trkpt>
      <trkpt lat="43.91716" lon="7.55543">
        <ele>1280.404833927</ele>
        <time>2021-11-02T10:42:56Z</time>
      </trkpt>
      <trkpt lat="43.91715" lon="7.55543">
        <ele>1280.4048575682</ele>
        <time>2021-11-02T10:42:57Z</time>
      </trkpt>
      <trkpt lat="43.91715" lon="7.55542">
        <ele>1280.4048783494</ele>
        <time>2021-11-02T10:42:58Z</time>
      </trkpt>
      <trkpt lat="43.91714" lon="7.55541">
        <ele>1281.4048986039</ele>
        <time>2021-11-02T10:43:00Z</time>
      </trkpt>
      <trkpt lat="43.91714" lon="7.55539">
        <ele>1281.4048610444</ele>
        <time>2021-11-02T10:43:01Z</time>
      </trkpt>
      <trkpt lat="43.91715" lon="7.55539">
        <ele>1281.4048219157</ele>
        <time>2021-11-02T10:43:02Z</time>
      </trkpt>
      <trkpt lat="43.91716" lon="7.55538">
        <ele>1281.4047804438</ele>
        <time>2021-11-02T10:43:03Z</time>
      </trkpt>
      <trkpt lat="43.91716" lon="7.55538">
        <ele>1281.4047538711</ele>
        <time>2021-11-02T10:43:04Z</time>
      </trkpt>
      <trkpt lat="43.91717" lon="7.55538">
        <ele>1282.4047169971</ele>
        <time>2021-11-02T10:43:05Z</time>
      </trkpt>
      <trkpt lat="43.91717" lon="7.55537">
        <ele>1282.4046839062</ele>
        <time>2021-11-02T10:43:06Z</time>
      </trkpt>
      <trkpt lat="43.91718" lon="7.55537">
        <ele>1282.4046445902</ele>
        <time>2021-11-02T10:43:07Z</time>
      </trkpt>
      <trkpt lat="43.91719" lon="7.55536">
        <ele>1282.4046145764</ele>
        <time>2021-11-02T10:43:08Z</time>
      </trkpt>
      <trkpt lat="43.91719" lon="7.55536">
        <ele>1282.4045821408</ele>
        <time>2021-11-02T10:43:09Z</time>
      </trkpt>
      <trkpt lat="43.9172" lon="7.55535">
        <ele>1283.404526055</ele>
        <time>2021-11-02T10:43:11Z</time>
      </trkpt>
      <trkpt lat="43.91721" lon="7.55535">
        <ele>1283.4044997423</ele>
        <time>2021-11-02T10:43:12Z</time>
      </trkpt>
      <trkpt lat="43.91722" lon="7.55535">
        <ele>1283.4044541337</ele>
        <time>2021-11-02T10:43:14Z</time>
      </trkpt>
      <trkpt lat="43.91723" lon="7.55536">
        <ele>1285.4043898126</ele>
        <time>2021-11-02T10:43:15Z</time>
      </trkpt>
      <trkpt lat="43.91725" lon="7.55535">
        <ele>1285.4042961122</ele>
        <time>2021-11-02T10:43:17Z</time>
      </trkpt>
      <trkpt lat="43.91726" lon="7.55535">
        <ele>1286.4042628059</ele>
        <time>2021-11-02T10:43:18Z</time>
      </trkpt>
      <trkpt lat="43.91727" lon="7.55535">
        <ele>1286.4041925707</ele>
        <time>2021-11-02T10:43:20Z</time>
      </trkpt>
      <trkpt lat="43.91728" lon="7.55535">
        <ele>1286.4041198857</ele>
        <time>2021-11-02T10:43:22Z</time>
      </trkpt>
      <trkpt lat="43.91729" lon="7.55535">
        <ele>1286.4040900435</ele>
        <time>2021-11-02T10:43:23Z</time>
      </trkpt>
      <trkpt lat="43.9173" lon="7.55535">
        <ele>1287.4040503639</ele>
        <time>2021-11-02T10:43:24Z</time>
      </trkpt>
      <trkpt lat="43.91731" lon="7.55535">
        <ele>1287.4040075274</ele>
        <time>2021-11-02T10:43:25Z</time>
      </trkpt>
      <trkpt lat="43.91732" lon="7.55536">
        <ele>1286.4039624032</ele>
        <time>2021-11-02T10:43:26Z</time>
      </trkpt>
      <trkpt lat="43.91733" lon="7.55536">
        <ele>1287.4039269039</ele>
        <time>2021-11-02T10:43:27Z</time>
      </trkpt>
      <trkpt lat="43.91733" lon="7.55536">
        <ele>1287.4038939969</ele>
        <time>2021-11-02T10:43:29Z</time>
      </trkpt>
      <trkpt lat="43.91735" lon="7.55535">
        <ele>1288.4038019282</ele>
        <time>2021-11-02T10:43:30Z</time>
      </trkpt>
      <trkpt lat="43.91736" lon="7.55535">
        <ele>1288.4037528885</ele>
        <time>2021-11-02T10:43:31Z</time>
      </trkpt>
      <trkpt lat="43.91737" lon="7.55535">
        <ele>1288.4037215536</ele>
        <time>2021-11-02T10:43:32Z</time>
      </trkpt>
      <trkpt lat="43.91738" lon="7.55535">
        <ele>1288.4036739397</ele>
        <time>2021-11-02T10:43:33Z</time>
      </trkpt>
      <trkpt lat="43.9174" lon="7.55535">
        <ele>1288.403567051</ele>
        <time>2021-11-02T10:43:35Z</time>
      </trkpt>
      <trkpt lat="43.91741" lon="7.55535">
        <ele>1288.4035023823</ele>
        <time>2021-11-02T10:43:37Z</time>
      </trkpt>
      <trkpt lat="43.91742" lon="7.55535">
        <ele>1288.4034727432</ele>
        <time>2021-11-02T10:43:38Z</time>
      </trkpt>
      <trkpt lat="43.91742" lon="7.55536">
        <ele>1288.4034428515</ele>
        <time>2021-11-02T10:43:39Z</time>
      </trkpt>
      <trkpt lat="43.91744" lon="7.55535">
        <ele>1288.403349343</ele>
        <time>2021-11-02T10:43:41Z</time>
      </trkpt>
      <trkpt lat="43.91745" lon="7.55535">
        <ele>1288.4033035553</ele>
        <time>2021-11-02T10:43:42Z</time>
      </trkpt>
      <trkpt lat="43.91746" lon="7.55535">
        <ele>1287.4032682601</ele>
        <time>2021-11-02T10:43:43Z</time>
      </trkpt>
      <trkpt lat="43.91747" lon="7.55535">
        <ele>1288.4032327325</ele>
        <time>2021-11-02T10:43:44Z</time>
      </trkpt>
      <trkpt lat="43.91748" lon="7.55535">
        <ele>1288.4031852902</ele>
        <time>2021-11-02T10:43:45Z</time>
      </trkpt>
      <trkpt lat="43.9175" lon="7.55535">
        <ele>1287.4030799934</ele>
        <time>2021-11-02T10:43:47Z</time>
      </trkpt>
      <trkpt lat="43.91751" lon="7.55535">
        <ele>1287.4030303779</ele>
        <time>2021-11-02T10:43:48Z</time>
      </trkpt>
      <trkpt lat="43.91751" lon="7.55534">
        <ele>1287.4029846595</ele>
        <time>2021-11-02T10:43:49Z</time>
      </trkpt>
      <trkpt lat="43.91753" lon="7.55533">
        <ele>1287.4029138125</ele>
        <time>2021-11-02T10:43:51Z</time>
      </trkpt>
      <trkpt lat="43.91753" lon="7.55532">
        <ele>1287.4028587902</ele>
        <time>2021-11-02T10:43:52Z</time>
      </trkpt>
      <trkpt lat="43.91754" lon="7.55531">
        <ele>1287.4028355931</ele>
        <time>2021-11-02T10:43:53Z</time>
      </trkpt>
      <trkpt lat="43.91754" lon="7.5553">
        <ele>1287.4028103545</ele>
        <time>2021-11-02T10:43:55Z</time>
      </trkpt>
      <trkpt lat="43.91753" lon="7.55527">
        <ele>1288.4028324673</ele>
        <time>2021-11-02T10:43:57Z</time>
      </trkpt>
      <trkpt lat="43.91752" lon="7.55527">
        <ele>1289.4028681194</ele>
        <time>2021-11-02T10:43:58Z</time>
      </trkpt>
      <trkpt lat="43.91751" lon="7.55527">
        <ele>1289.402921906</ele>
        <time>2021-11-02T10:43:59Z</time>
      </trkpt>
      <trkpt lat="43.9175" lon="7.55526">
        <ele>1290.4029373252</ele>
        <time>2021-11-02T10:44:02Z</time>
      </trkpt>
      <trkpt lat="43.91748" lon="7.55524">
        <ele>1291.4030001232</ele>
        <time>2021-11-02T10:44:03Z</time>
      </trkpt>
      <trkpt lat="43.91747" lon="7.55523">
        <ele>1292.4030470496</ele>
        <time>2021-11-02T10:44:05Z</time>
      </trkpt>
      <trkpt lat="43.91745" lon="7.55521">
        <ele>1292.4031078246</ele>
        <time>2021-11-02T10:44:07Z</time>
      </trkpt>
      <trkpt lat="43.91745" lon="7.5552">
        <ele>1292.4031339985</ele>
        <time>2021-11-02T10:44:08Z</time>
      </trkpt>
      <trkpt lat="43.91744" lon="7.55519">
        <ele>1293.4031565964</ele>
        <time>2021-11-02T10:44:09Z</time>
      </trkpt>
      <trkpt lat="43.91742" lon="7.55517">
        <ele>1293.4032076168</ele>
        <time>2021-11-02T10:44:11Z</time>
      </trkpt>
      <trkpt lat="43.91742" lon="7.55516">
        <ele>1295.4032077216</ele>
        <time>2021-11-02T10:44:12Z</time>
      </trkpt>
      <trkpt lat="43.91741" lon="7.55515">
        <ele>1296.4032146792</ele>
        <time>2021-11-02T10:44:13Z</time>
      </trkpt>
      <trkpt lat="43.91741" lon="7.55513">
        <ele>1297.4032297263</ele>
        <time>2021-11-02T10:44:16Z</time>
      </trkpt>
      <trkpt lat="43.9174" lon="7.55511">
        <ele>1296.4032367267</ele>
        <time>2021-11-02T10:44:17Z</time>
      </trkpt>
      <trkpt lat="43.9174" lon="7.55511">
        <ele>1296.403253575</ele>
        <time>2021-11-02T10:44:18Z</time>
      </trkpt>
      <trkpt lat="43.91739" lon="7.55509">
        <ele>1296.4032515848</ele>
        <time>2021-11-02T10:44:19Z</time>
      </trkpt>
      <trkpt lat="43.91739" lon="7.55508">
        <ele>1296.4032704687</ele>
        <time>2021-11-02T10:44:21Z</time>
      </trkpt>
      <trkpt lat="43.91738" lon="7.55508">
        <ele>1296.4032849341</ele>
        <time>2021-11-02T10:44:25Z</time>
      </trkpt>
      <trkpt lat="43.91736" lon="7.55506">
        <ele>1295.4033743003</ele>
        <time>2021-11-02T10:44:27Z</time>
      </trkpt>
      <trkpt lat="43.91735" lon="7.55505">
        <ele>1295.4034003779</ele>
        <time>2021-11-02T10:44:28Z</time>
      </trkpt>
      <trkpt lat="43.91734" lon="7.55504">
        <ele>1295.4034247011</ele>
        <time>2021-11-02T10:44:29Z</time>
      </trkpt>
      <trkpt lat="43.91734" lon="7.55503">
        <ele>1295.4034234739</ele>
        <time>2021-11-02T10:44:30Z</time>
      </trkpt>
      <trkpt lat="43.91734" lon="7.55502">
        <ele>1295.4034014028</ele>
        <time>2021-11-02T10:44:31Z</time>
      </trkpt>
      <trkpt lat="43.91734" lon="7.55501">
        <ele>1295.4034175877</ele>
        <time>2021-11-02T10:44:32Z</time>
      </trkpt>
      <trkpt lat="43.91733" lon="7.555">
        <ele>1295.4034491049</ele>
        <time>2021-11-02T10:44:34Z</time>
      </trkpt>
      <trkpt lat="43.91732" lon="7.555">
        <ele>1294.4034976108</ele>
        <time>2021-11-02T10:44:35Z</time>
      </trkpt>
      <trkpt lat="43.9173" lon="7.55499">
        <ele>1295.4035812723</ele>
        <time>2021-11-02T10:44:37Z</time>
      </trkpt>
      <trkpt lat="43.91729" lon="7.55498">
        <ele>1295.4036150471</ele>
        <time>2021-11-02T10:44:38Z</time>
      </trkpt>
      <trkpt lat="43.91728" lon="7.55497">
        <ele>1295.4036350822</ele>
        <time>2021-11-02T10:44:39Z</time>
      </trkpt>
      <trkpt lat="43.91727" lon="7.55496">
        <ele>1296.4036549991</ele>
        <time>2021-11-02T10:44:40Z</time>
      </trkpt>
      <trkpt lat="43.91727" lon="7.55495">
        <ele>1297.4036473849</ele>
        <time>2021-11-02T10:44:42Z</time>
      </trkpt>
      <trkpt lat="43.91727" lon="7.55494">
        <ele>1297.4036392985</ele>
        <time>2021-11-02T10:44:43Z</time>
      </trkpt>
      <trkpt lat="43.91727" lon="7.55493">
        <ele>1298.4036340967</ele>
        <time>2021-11-02T10:44:44Z</time>
      </trkpt>
      <trkpt lat="43.91727" lon="7.55492">
        <ele>1297.4036183767</ele>
        <time>2021-11-02T10:44:46Z</time>
      </trkpt>
      <trkpt lat="43.91727" lon="7.55491">
        <ele>1298.4035951251</ele>
        <time>2021-11-02T10:44:47Z</time>
      </trkpt>
      <trkpt lat="43.91728" lon="7.55491">
        <ele>1298.4035457672</ele>
        <time>2021-11-02T10:44:48Z</time>
      </trkpt>
      <trkpt lat="43.91729" lon="7.5549">
        <ele>1299.4035062226</ele>
        <time>2021-11-02T10:44:49Z</time>
      </trkpt>
      <trkpt lat="43.9173" lon="7.55489">
        <ele>1299.4034443469</ele>
        <time>2021-11-02T10:44:51Z</time>
      </trkpt>
      <trkpt lat="43.91731" lon="7.55489">
        <ele>1299.4034105062</ele>
        <time>2021-11-02T10:44:52Z</time>
      </trkpt>
      <trkpt lat="43.91731" lon="7.5549">
        <ele>1299.4033811182</ele>
        <time>2021-11-02T10:44:53Z</time>
      </trkpt>
      <trkpt lat="43.91733" lon="7.5549">
        <ele>1299.403310665</ele>
        <time>2021-11-02T10:44:55Z</time>
      </trkpt>
      <trkpt lat="43.91735" lon="7.5549">
        <ele>1300.4032268735</ele>
        <time>2021-11-02T10:44:57Z</time>
      </trkpt>
      <trkpt lat="43.91735" lon="7.5549">
        <ele>1300.4031756921</ele>
        <time>2021-11-02T10:44:58Z</time>
      </trkpt>
      <trkpt lat="43.91736" lon="7.55489">
        <ele>1300.4031237143</ele>
        <time>2021-11-02T10:44:59Z</time>
      </trkpt>
      <trkpt lat="43.91738" lon="7.55489">
        <ele>1299.4030588848</ele>
        <time>2021-11-02T10:45:00Z</time>
      </trkpt>
      <trkpt lat="43.91738" lon="7.55489">
        <ele>1299.4030148875</ele>
        <time>2021-11-02T10:45:01Z</time>
      </trkpt>
      <trkpt lat="43.9174" lon="7.55489">
        <ele>1299.402954151</ele>
        <time>2021-11-02T10:45:02Z</time>
      </trkpt>
      <trkpt lat="43.91741" lon="7.55488">
        <ele>1299.4029086355</ele>
        <time>2021-11-02T10:45:03Z</time>
      </trkpt>
      <trkpt lat="43.91741" lon="7.55488">
        <ele>1299.4028749966</ele>
        <time>2021-11-02T10:45:04Z</time>
      </trkpt>
      <trkpt lat="43.91742" lon="7.55489">
        <ele>1300.4028472787</ele>
        <time>2021-11-02T10:45:05Z</time>
      </trkpt>
      <trkpt lat="43.91743" lon="7.5549">
        <ele>1300.4028181115</ele>
        <time>2021-11-02T10:45:06Z</time>
      </trkpt>
      <trkpt lat="43.91744" lon="7.5549">
        <ele>1300.4027714793</ele>
        <time>2021-11-02T10:45:07Z</time>
      </trkpt>
      <trkpt lat="43.91745" lon="7.5549">
        <ele>1299.4027180577</ele>
        <time>2021-11-02T10:45:08Z</time>
      </trkpt>
      <trkpt lat="43.91746" lon="7.5549">
        <ele>1300.4026661892</ele>
        <time>2021-11-02T10:45:09Z</time>
      </trkpt>
      <trkpt lat="43.91747" lon="7.55489">
        <ele>1300.4026216038</ele>
        <time>2021-11-02T10:45:10Z</time>
      </trkpt>
      <trkpt lat="43.91748" lon="7.55489">
        <ele>1300.4025781935</ele>
        <time>2021-11-02T10:45:11Z</time>
      </trkpt>
      <trkpt lat="43.91749" lon="7.55489">
        <ele>1300.402520939</ele>
        <time>2021-11-02T10:45:12Z</time>
      </trkpt>
      <trkpt lat="43.9175" lon="7.55489">
        <ele>1300.4024839868</ele>
        <time>2021-11-02T10:45:13Z</time>
      </trkpt>
      <trkpt lat="43.9175" lon="7.55489">
        <ele>1300.4024457482</ele>
        <time>2021-11-02T10:45:14Z</time>
      </trkpt>
      <trkpt lat="43.91751" lon="7.55489">
        <ele>1300.4024096552</ele>
        <time>2021-11-02T10:45:15Z</time>
      </trkpt>
      <trkpt lat="43.91752" lon="7.55489">
        <ele>1300.4023801084</ele>
        <time>2021-11-02T10:45:16Z</time>
      </trkpt>
      <trkpt lat="43.91753" lon="7.5549">
        <ele>1301.4023394469</ele>
        <time>2021-11-02T10:45:17Z</time>
      </trkpt>
      <trkpt lat="43.91753" lon="7.5549">
        <ele>1301.4022963149</ele>
        <time>2021-11-02T10:45:18Z</time>
      </trkpt>
      <trkpt lat="43.91754" lon="7.5549">
        <ele>1301.4022676408</ele>
        <time>2021-11-02T10:45:19Z</time>
      </trkpt>
      <trkpt lat="43.91755" lon="7.55491">
        <ele>1301.4022423872</ele>
        <time>2021-11-02T10:45:20Z</time>
      </trkpt>
      <trkpt lat="43.91756" lon="7.55491">
        <ele>1301.4022087143</ele>
        <time>2021-11-02T10:45:21Z</time>
      </trkpt>
      <trkpt lat="43.91756" lon="7.55492">
        <ele>1301.402183325</ele>
        <time>2021-11-02T10:45:25Z</time>
      </trkpt>
      <trkpt lat="43.91757" lon="7.55492">
        <ele>1302.4021412451</ele>
        <time>2021-11-02T10:45:26Z</time>
      </trkpt>
      <trkpt lat="43.91758" lon="7.55491">
        <ele>1302.4020755514</ele>
        <time>2021-11-02T10:45:27Z</time>
      </trkpt>
      <trkpt lat="43.91759" lon="7.55491">
        <ele>1302.4020270119</ele>
        <time>2021-11-02T10:45:28Z</time>
      </trkpt>
      <trkpt lat="43.91761" lon="7.55491">
        <ele>1302.4019725428</ele>
        <time>2021-11-02T10:45:29Z</time>
      </trkpt>
      <trkpt lat="43.91762" lon="7.55492">
        <ele>1302.4019043459</ele>
        <time>2021-11-02T10:45:30Z</time>
      </trkpt>
      <trkpt lat="43.91763" lon="7.55491">
        <ele>1302.4018693007</ele>
        <time>2021-11-02T10:45:31Z</time>
      </trkpt>
      <trkpt lat="43.91763" lon="7.55491">
        <ele>1303.4018336655</ele>
        <time>2021-11-02T10:45:32Z</time>
      </trkpt>
      <trkpt lat="43.91764" lon="7.55491">
        <ele>1303.4018013845</ele>
        <time>2021-11-02T10:45:33Z</time>
      </trkpt>
      <trkpt lat="43.91765" lon="7.5549">
        <ele>1303.4017624278</ele>
        <time>2021-11-02T10:45:34Z</time>
      </trkpt>
      <trkpt lat="43.91765" lon="7.5549">
        <ele>1303.4017323386</ele>
        <time>2021-11-02T10:45:35Z</time>
      </trkpt>
      <trkpt lat="43.91766" lon="7.5549">
        <ele>1303.4016888432</ele>
        <time>2021-11-02T10:45:36Z</time>
      </trkpt>
      <trkpt lat="43.91767" lon="7.55489">
        <ele>1303.4016505088</ele>
        <time>2021-11-02T10:45:37Z</time>
      </trkpt>
      <trkpt lat="43.91767" lon="7.55489">
        <ele>1303.4016134342</ele>
        <time>2021-11-02T10:45:38Z</time>
      </trkpt>
      <trkpt lat="43.91768" lon="7.5549">
        <ele>1303.4015688318</ele>
        <time>2021-11-02T10:45:39Z</time>
      </trkpt>
      <trkpt lat="43.91769" lon="7.5549">
        <ele>1303.4015463904</ele>
        <time>2021-11-02T10:45:40Z</time>
      </trkpt>
      <trkpt lat="43.9177" lon="7.55491">
        <ele>1303.4015148993</ele>
        <time>2021-11-02T10:45:41Z</time>
      </trkpt>
      <trkpt lat="43.91771" lon="7.55491">
        <ele>1303.401473735</ele>
        <time>2021-11-02T10:45:42Z</time>
      </trkpt>
      <trkpt lat="43.91771" lon="7.55491">
        <ele>1303.4014479121</ele>
        <time>2021-11-02T10:45:43Z</time>
      </trkpt>
      <trkpt lat="43.91772" lon="7.55491">
        <ele>1303.4014227966</ele>
        <time>2021-11-02T10:45:44Z</time>
      </trkpt>
      <trkpt lat="43.91772" lon="7.5549">
        <ele>1303.4013878737</ele>
        <time>2021-11-02T10:45:45Z</time>
      </trkpt>
      <trkpt lat="43.91773" lon="7.5549">
        <ele>1303.4013492157</ele>
        <time>2021-11-02T10:45:46Z</time>
      </trkpt>
      <trkpt lat="43.91774" lon="7.55491">
        <ele>1303.4013160224</ele>
        <time>2021-11-02T10:45:47Z</time>
      </trkpt>
      <trkpt lat="43.91774" lon="7.55491">
        <ele>1304.4012881605</ele>
        <time>2021-11-02T10:45:48Z</time>
      </trkpt>
      <trkpt lat="43.91775" lon="7.55491">
        <ele>1305.4012632976</ele>
        <time>2021-11-02T10:45:49Z</time>
      </trkpt>
      <trkpt lat="43.91775" lon="7.55491">
        <ele>1305.4012410629</ele>
        <time>2021-11-02T10:45:50Z</time>
      </trkpt>
      <trkpt lat="43.91776" lon="7.55491">
        <ele>1305.4012139937</ele>
        <time>2021-11-02T10:45:53Z</time>
      </trkpt>
      <trkpt lat="43.91777" lon="7.5549">
        <ele>1306.4011406363</ele>
        <time>2021-11-02T10:45:54Z</time>
      </trkpt>
      <trkpt lat="43.91778" lon="7.5549">
        <ele>1306.4011185441</ele>
        <time>2021-11-02T10:45:55Z</time>
      </trkpt>
      <trkpt lat="43.91778" lon="7.55491">
        <ele>1306.4010940164</ele>
        <time>2021-11-02T10:45:56Z</time>
      </trkpt>
      <trkpt lat="43.91779" lon="7.5549">
        <ele>1307.401053893</ele>
        <time>2021-11-02T10:45:57Z</time>
      </trkpt>
      <trkpt lat="43.9178" lon="7.5549">
        <ele>1307.4010190817</ele>
        <time>2021-11-02T10:45:58Z</time>
      </trkpt>
      <trkpt lat="43.9178" lon="7.5549">
        <ele>1308.4009828778</ele>
        <time>2021-11-02T10:45:59Z</time>
      </trkpt>
      <trkpt lat="43.91782" lon="7.5549">
        <ele>1308.400910831</ele>
        <time>2021-11-02T10:46:01Z</time>
      </trkpt>
      <trkpt lat="43.91783" lon="7.5549">
        <ele>1308.400871153</ele>
        <time>2021-11-02T10:46:02Z</time>
      </trkpt>
      <trkpt lat="43.91784" lon="7.55491">
        <ele>1308.4008357576</ele>
        <time>2021-11-02T10:46:04Z</time>
      </trkpt>
      <trkpt lat="43.91785" lon="7.55491">
        <ele>1309.4007743946</ele>
        <time>2021-11-02T10:46:05Z</time>
      </trkpt>
      <trkpt lat="43.91786" lon="7.55491">
        <ele>1310.4007377498</ele>
        <time>2021-11-02T10:46:06Z</time>
      </trkpt>
      <trkpt lat="43.91787" lon="7.55491">
        <ele>1310.4007002086</ele>
        <time>2021-11-02T10:46:07Z</time>
      </trkpt>
      <trkpt lat="43.91787" lon="7.55491">
        <ele>1311.400663942</ele>
        <time>2021-11-02T10:46:08Z</time>
      </trkpt>
      <trkpt lat="43.91788" lon="7.55491">
        <ele>1310.4006210503</ele>
        <time>2021-11-02T10:46:09Z</time>
      </trkpt>
      <trkpt lat="43.9179" lon="7.5549">
        <ele>1310.4005299234</ele>
        <time>2021-11-02T10:46:11Z</time>
      </trkpt>
      <trkpt lat="43.9179" lon="7.5549">
        <ele>1310.4005299234</ele>
        <time>2021-11-02T10:46:13Z</time>
      </trkpt>
      <trkpt lat="43.91792" lon="7.5549">
        <ele>1309.4004180733</ele>
        <time>2021-11-02T10:46:15Z</time>
      </trkpt>
      <trkpt lat="43.91792" lon="7.55489">
        <ele>1310.4003925026</ele>
        <time>2021-11-02T10:46:16Z</time>
      </trkpt>
      <trkpt lat="43.91793" lon="7.55488">
        <ele>1309.400347369</ele>
        <time>2021-11-02T10:46:17Z</time>
      </trkpt>
      <trkpt lat="43.91794" lon="7.55489">
        <ele>1309.4003231187</ele>
        <time>2021-11-02T10:46:18Z</time>
      </trkpt>
      <trkpt lat="43.91794" lon="7.55489">
        <ele>1309.40030118</ele>
        <time>2021-11-02T10:46:19Z</time>
      </trkpt>
      <trkpt lat="43.91795" lon="7.55489">
        <ele>1309.4002760643</ele>
        <time>2021-11-02T10:46:20Z</time>
      </trkpt>
      <trkpt lat="43.91795" lon="7.55489">
        <ele>1310.4002434328</ele>
        <time>2021-11-02T10:46:21Z</time>
      </trkpt>
      <trkpt lat="43.91796" lon="7.55488">
        <ele>1309.4001946889</ele>
        <time>2021-11-02T10:46:22Z</time>
      </trkpt>
      <trkpt lat="43.91797" lon="7.55487">
        <ele>1310.4001573134</ele>
        <time>2021-11-02T10:46:23Z</time>
      </trkpt>
      <trkpt lat="43.91797" lon="7.55486">
        <ele>1310.4001246401</ele>
        <time>2021-11-02T10:46:24Z</time>
      </trkpt>
      <trkpt lat="43.91799" lon="7.55485">
        <ele>1309.4000352731</ele>
        <time>2021-11-02T10:46:26Z</time>
      </trkpt>
      <trkpt lat="43.91799" lon="7.55485">
        <ele>1309.4000042459</ele>
        <time>2021-11-02T10:46:27Z</time>
      </trkpt>
      <trkpt lat="43.918" lon="7.55485">
        <ele>1311.3999580666</ele>
        <time>2021-11-02T10:46:30Z</time>
      </trkpt>
      <trkpt lat="43.91801" lon="7.55487">
        <ele>1310.3999165435</ele>
        <time>2021-11-02T10:46:32Z</time>
      </trkpt>
      <trkpt lat="43.91802" lon="7.55488">
        <ele>1310.3999197563</ele>
        <time>2021-11-02T10:46:33Z</time>
      </trkpt>
      <trkpt lat="43.91802" lon="7.55489">
        <ele>1310.3999200323</ele>
        <time>2021-11-02T10:46:35Z</time>
      </trkpt>
      <trkpt lat="43.91803" lon="7.5549">
        <ele>1310.3998770983</ele>
        <time>2021-11-02T10:46:36Z</time>
      </trkpt>
      <trkpt lat="43.91804" lon="7.5549">
        <ele>1310.3998394487</ele>
        <time>2021-11-02T10:46:37Z</time>
      </trkpt>
      <trkpt lat="43.91804" lon="7.5549">
        <ele>1310.3998137757</ele>
        <time>2021-11-02T10:46:38Z</time>
      </trkpt>
      <trkpt lat="43.91806" lon="7.5549">
        <ele>1309.3997400732</ele>
        <time>2021-11-02T10:46:40Z</time>
      </trkpt>
      <trkpt lat="43.91808" lon="7.55489">
        <ele>1309.399641251</ele>
        <time>2021-11-02T10:46:42Z</time>
      </trkpt>
      <trkpt lat="43.91809" lon="7.55489">
        <ele>1310.3995854002</ele>
        <time>2021-11-02T10:46:43Z</time>
      </trkpt>
      <trkpt lat="43.9181" lon="7.5549">
        <ele>1310.3995407541</ele>
        <time>2021-11-02T10:46:44Z</time>
      </trkpt>
      <trkpt lat="43.91812" lon="7.55491">
        <ele>1311.3994596961</ele>
        <time>2021-11-02T10:46:46Z</time>
      </trkpt>
      <trkpt lat="43.91812" lon="7.55491">
        <ele>1311.3994462512</ele>
        <time>2021-11-02T10:46:48Z</time>
      </trkpt>
      <trkpt lat="43.91813" lon="7.55489">
        <ele>1312.3993824127</ele>
        <time>2021-11-02T10:46:50Z</time>
      </trkpt>
      <trkpt lat="43.91814" lon="7.5549">
        <ele>1312.3993601506</ele>
        <time>2021-11-02T10:46:51Z</time>
      </trkpt>
      <trkpt lat="43.91815" lon="7.55489">
        <ele>1313.3992844638</ele>
        <time>2021-11-02T10:46:53Z</time>
      </trkpt>
      <trkpt lat="43.91815" lon="7.55489">
        <ele>1313.399268403</ele>
        <time>2021-11-02T10:46:54Z</time>
      </trkpt>
      <trkpt lat="43.91817" lon="7.5549">
        <ele>1314.3992156211</ele>
        <time>2021-11-02T10:46:56Z</time>
      </trkpt>
      <trkpt lat="43.91817" lon="7.5549">
        <ele>1314.3992156211</ele>
        <time>2021-11-02T10:46:58Z</time>
      </trkpt>
      <trkpt lat="43.91818" lon="7.55488">
        <ele>1316.3991462345</ele>
        <time>2021-11-02T10:46:59Z</time>
      </trkpt>
      <trkpt lat="43.91818" lon="7.55488">
        <ele>1316.3991273332</ele>
        <time>2021-11-02T10:47:00Z</time>
      </trkpt>
      <trkpt lat="43.91818" lon="7.55487">
        <ele>1316.3991162894</ele>
        <time>2021-11-02T10:47:01Z</time>
      </trkpt>
      <trkpt lat="43.91818" lon="7.55486">
        <ele>1318.3990994269</ele>
        <time>2021-11-02T10:47:03Z</time>
      </trkpt>
      <trkpt lat="43.91818" lon="7.55485">
        <ele>1318.3990676004</ele>
        <time>2021-11-02T10:47:04Z</time>
      </trkpt>
      <trkpt lat="43.91819" lon="7.55485">
        <ele>1318.3990375809</ele>
        <time>2021-11-02T10:47:05Z</time>
      </trkpt>
      <trkpt lat="43.9182" lon="7.55485">
        <ele>1318.3989883848</ele>
        <time>2021-11-02T10:47:06Z</time>
      </trkpt>
      <trkpt lat="43.91821" lon="7.55485">
        <ele>1318.3989513358</ele>
        <time>2021-11-02T10:47:07Z</time>
      </trkpt>
      <trkpt lat="43.91822" lon="7.55485">
        <ele>1317.3989042851</ele>
        <time>2021-11-02T10:47:08Z</time>
      </trkpt>
      <trkpt lat="43.91823" lon="7.55484">
        <ele>1317.3988551812</ele>
        <time>2021-11-02T10:47:09Z</time>
      </trkpt>
      <trkpt lat="43.91823" lon="7.55485">
        <ele>1317.3988316321</ele>
        <time>2021-11-02T10:47:10Z</time>
      </trkpt>
      <trkpt lat="43.91824" lon="7.55485">
        <ele>1317.3988094994</ele>
        <time>2021-11-02T10:47:11Z</time>
      </trkpt>
      <trkpt lat="43.91825" lon="7.55485">
        <ele>1317.3987687997</ele>
        <time>2021-11-02T10:47:12Z</time>
      </trkpt>
      <trkpt lat="43.91825" lon="7.55486">
        <ele>1317.3987406115</ele>
        <time>2021-11-02T10:47:13Z</time>
      </trkpt>
      <trkpt lat="43.91826" lon="7.55486">
        <ele>1317.3987226345</ele>
        <time>2021-11-02T10:47:14Z</time>
      </trkpt>
      <trkpt lat="43.91827" lon="7.55486">
        <ele>1317.3986783099</ele>
        <time>2021-11-02T10:47:16Z</time>
      </trkpt>
      <trkpt lat="43.91827" lon="7.55486">
        <ele>1317.3986400234</ele>
        <time>2021-11-02T10:47:17Z</time>
      </trkpt>
      <trkpt lat="43.91828" lon="7.55486">
        <ele>1318.398603636</ele>
        <time>2021-11-02T10:47:18Z</time>
      </trkpt>
      <trkpt lat="43.91829" lon="7.55487">
        <ele>1318.3985771617</ele>
        <time>2021-11-02T10:47:19Z</time>
      </trkpt>
      <trkpt lat="43.91829" lon="7.55487">
        <ele>1318.3985564818</ele>
        <time>2021-11-02T10:47:20Z</time>
      </trkpt>
      <trkpt lat="43.9183" lon="7.55488">
        <ele>1318.3985475928</ele>
        <time>2021-11-02T10:47:21Z</time>
      </trkpt>
      <trkpt lat="43.91831" lon="7.55488">
        <ele>1319.3985108011</ele>
        <time>2021-11-02T10:47:22Z</time>
      </trkpt>
      <trkpt lat="43.91831" lon="7.55487">
        <ele>1319.3984842732</ele>
        <time>2021-11-02T10:47:26Z</time>
      </trkpt>
      <trkpt lat="43.91831" lon="7.55486">
        <ele>1320.3984696605</ele>
        <time>2021-11-02T10:47:27Z</time>
      </trkpt>
      <trkpt lat="43.91832" lon="7.55486">
        <ele>1321.3984316265</ele>
        <time>2021-11-02T10:47:31Z</time>
      </trkpt>
      <trkpt lat="43.91833" lon="7.55484">
        <ele>1322.3983642222</ele>
        <time>2021-11-02T10:47:32Z</time>
      </trkpt>
      <trkpt lat="43.91833" lon="7.55484">
        <ele>1323.3983156146</ele>
        <time>2021-11-02T10:47:33Z</time>
      </trkpt>
      <trkpt lat="43.91834" lon="7.55483">
        <ele>1323.3982822365</ele>
        <time>2021-11-02T10:47:36Z</time>
      </trkpt>
      <trkpt lat="43.91834" lon="7.55482">
        <ele>1323.3982477284</ele>
        <time>2021-11-02T10:47:37Z</time>
      </trkpt>
      <trkpt lat="43.91835" lon="7.55482">
        <ele>1323.3982164188</ele>
        <time>2021-11-02T10:47:38Z</time>
      </trkpt>
      <trkpt lat="43.91836" lon="7.55482">
        <ele>1323.3981736704</ele>
        <time>2021-11-02T10:47:39Z</time>
      </trkpt>
      <trkpt lat="43.91837" lon="7.55482">
        <ele>1322.3981432657</ele>
        <time>2021-11-02T10:47:40Z</time>
      </trkpt>
      <trkpt lat="43.91837" lon="7.55482">
        <ele>1322.3981135773</ele>
        <time>2021-11-02T10:47:41Z</time>
      </trkpt>
      <trkpt lat="43.91838" lon="7.55482">
        <ele>1323.3980825301</ele>
        <time>2021-11-02T10:47:42Z</time>
      </trkpt>
      <trkpt lat="43.91838" lon="7.55482">
        <ele>1324.398055316</ele>
        <time>2021-11-02T10:47:44Z</time>
      </trkpt>
      <trkpt lat="43.91839" lon="7.55482">
        <ele>1324.398025876</ele>
        <time>2021-11-02T10:47:45Z</time>
      </trkpt>
      <trkpt lat="43.9184" lon="7.55483">
        <ele>1324.3979951017</ele>
        <time>2021-11-02T10:47:46Z</time>
      </trkpt>
      <trkpt lat="43.9184" lon="7.55483">
        <ele>1324.397977806</ele>
        <time>2021-11-02T10:47:47Z</time>
      </trkpt>
      <trkpt lat="43.91841" lon="7.55484">
        <ele>1324.3979565786</ele>
        <time>2021-11-02T10:47:48Z</time>
      </trkpt>
      <trkpt lat="43.91841" lon="7.55483">
        <ele>1325.3979209733</ele>
        <time>2021-11-02T10:47:49Z</time>
      </trkpt>
      <trkpt lat="43.91842" lon="7.55483">
        <ele>1325.3978639702</ele>
        <time>2021-11-02T10:47:51Z</time>
      </trkpt>
      <trkpt lat="43.91843" lon="7.55483">
        <ele>1325.3978435644</ele>
        <time>2021-11-02T10:47:52Z</time>
      </trkpt>
      <trkpt lat="43.91843" lon="7.55483">
        <ele>1326.3978143378</ele>
        <time>2021-11-02T10:47:54Z</time>
      </trkpt>
      <trkpt lat="43.91845" lon="7.55482">
        <ele>1326.3977421338</ele>
        <time>2021-11-02T10:47:56Z</time>
      </trkpt>
      <trkpt lat="43.91845" lon="7.55482">
        <ele>1326.397707037</ele>
        <time>2021-11-02T10:47:57Z</time>
      </trkpt>
      <trkpt lat="43.91846" lon="7.55482">
        <ele>1326.3976823728</ele>
        <time>2021-11-02T10:47:58Z</time>
      </trkpt>
      <trkpt lat="43.91847" lon="7.55482">
        <ele>1326.397643756</ele>
        <time>2021-11-02T10:48:00Z</time>
      </trkpt>
      <trkpt lat="43.91848" lon="7.55482">
        <ele>1326.3976146559</ele>
        <time>2021-11-02T10:48:02Z</time>
      </trkpt>
      <trkpt lat="43.91848" lon="7.55482">
        <ele>1327.3975802929</ele>
        <time>2021-11-02T10:48:05Z</time>
      </trkpt>
      <trkpt lat="43.91849" lon="7.55481">
        <ele>1328.3975322706</ele>
        <time>2021-11-02T10:48:06Z</time>
      </trkpt>
      <trkpt lat="43.91849" lon="7.55481">
        <ele>1328.3975322706</ele>
        <time>2021-11-02T10:48:08Z</time>
      </trkpt>
      <trkpt lat="43.91851" lon="7.55481">
        <ele>1329.3974130823</ele>
        <time>2021-11-02T10:48:10Z</time>
      </trkpt>
      <trkpt lat="43.91852" lon="7.5548">
        <ele>1329.3973515536</ele>
        <time>2021-11-02T10:48:12Z</time>
      </trkpt>
      <trkpt lat="43.91853" lon="7.5548">
        <ele>1329.397324931</ele>
        <time>2021-11-02T10:48:13Z</time>
      </trkpt>
      <trkpt lat="43.91853" lon="7.5548">
        <ele>1329.3973053526</ele>
        <time>2021-11-02T10:48:14Z</time>
      </trkpt>
      <trkpt lat="43.91855" lon="7.5548">
        <ele>1329.3972327293</ele>
        <time>2021-11-02T10:48:16Z</time>
      </trkpt>
      <trkpt lat="43.91855" lon="7.5548">
        <ele>1329.3972327293</ele>
        <time>2021-11-02T10:48:17Z</time>
      </trkpt>
      <trkpt lat="43.91857" lon="7.55481">
        <ele>1329.3971502017</ele>
        <time>2021-11-02T10:48:18Z</time>
      </trkpt>
      <trkpt lat="43.91858" lon="7.55481">
        <ele>1328.3970675559</ele>
        <time>2021-11-02T10:48:20Z</time>
      </trkpt>
      <trkpt lat="43.91859" lon="7.55482">
        <ele>1328.3970341366</ele>
        <time>2021-11-02T10:48:22Z</time>
      </trkpt>
      <trkpt lat="43.9186" lon="7.55482">
        <ele>1328.3970086192</ele>
        <time>2021-11-02T10:48:24Z</time>
      </trkpt>
      <trkpt lat="43.91861" lon="7.5548">
        <ele>1328.3969261689</ele>
        <time>2021-11-02T10:48:26Z</time>
      </trkpt>
      <trkpt lat="43.91862" lon="7.5548">
        <ele>1329.3968857186</ele>
        <time>2021-11-02T10:48:27Z</time>
      </trkpt>
      <trkpt lat="43.91862" lon="7.5548">
        <ele>1329.3968601525</ele>
        <time>2021-11-02T10:48:28Z</time>
      </trkpt>
      <trkpt lat="43.91863" lon="7.5548">
        <ele>1329.3968350094</ele>
        <time>2021-11-02T10:48:29Z</time>
      </trkpt>
      <trkpt lat="43.91863" lon="7.5548">
        <ele>1330.3968014333</ele>
        <time>2021-11-02T10:48:30Z</time>
      </trkpt>
      <trkpt lat="43.91864" lon="7.5548">
        <ele>1330.396765141</ele>
        <time>2021-11-02T10:48:31Z</time>
      </trkpt>
      <trkpt lat="43.91865" lon="7.5548">
        <ele>1332.3967397834</ele>
        <time>2021-11-02T10:48:32Z</time>
      </trkpt>
      <trkpt lat="43.91865" lon="7.5548">
        <ele>1332.3967185245</ele>
        <time>2021-11-02T10:48:34Z</time>
      </trkpt>
      <trkpt lat="43.91867" lon="7.5548">
        <ele>1331.3966258021</ele>
        <time>2021-11-02T10:48:36Z</time>
      </trkpt>
      <trkpt lat="43.91868" lon="7.55479">
        <ele>1332.3965973882</ele>
        <time>2021-11-02T10:48:37Z</time>
      </trkpt>
      <trkpt lat="43.91868" lon="7.55479">
        <ele>1333.3965685407</ele>
        <time>2021-11-02T10:48:39Z</time>
      </trkpt>
      <trkpt lat="43.91869" lon="7.55479">
        <ele>1334.3965078415</ele>
        <time>2021-11-02T10:48:41Z</time>
      </trkpt>
      <trkpt lat="43.9187" lon="7.55479">
        <ele>1333.3964643374</ele>
        <time>2021-11-02T10:48:42Z</time>
      </trkpt>
      <trkpt lat="43.91871" lon="7.5548">
        <ele>1333.3964254925</ele>
        <time>2021-11-02T10:48:43Z</time>
      </trkpt>
      <trkpt lat="43.91872" lon="7.5548">
        <ele>1333.3963985006</ele>
        <time>2021-11-02T10:48:44Z</time>
      </trkpt>
      <trkpt lat="43.91872" lon="7.55481">
        <ele>1333.3963909381</ele>
        <time>2021-11-02T10:48:45Z</time>
      </trkpt>
      <trkpt lat="43.91873" lon="7.55482">
        <ele>1333.3963714243</ele>
        <time>2021-11-02T10:48:47Z</time>
      </trkpt>
      <trkpt lat="43.91874" lon="7.55482">
        <ele>1333.3963395921</ele>
        <time>2021-11-02T10:48:48Z</time>
      </trkpt>
      <trkpt lat="43.91874" lon="7.55482">
        <ele>1333.3963089464</ele>
        <time>2021-11-02T10:48:49Z</time>
      </trkpt>
      <trkpt lat="43.91874" lon="7.55481">
        <ele>1333.3962894768</ele>
        <time>2021-11-02T10:48:50Z</time>
      </trkpt>
      <trkpt lat="43.91874" lon="7.5548">
        <ele>1333.396286783</ele>
        <time>2021-11-02T10:48:52Z</time>
      </trkpt>
      <trkpt lat="43.91874" lon="7.55479">
        <ele>1333.3962629691</ele>
        <time>2021-11-02T10:48:54Z</time>
      </trkpt>
      <trkpt lat="43.91875" lon="7.55477">
        <ele>1334.3962014212</ele>
        <time>2021-11-02T10:48:56Z</time>
      </trkpt>
      <trkpt lat="43.91876" lon="7.55476">
        <ele>1334.3961677853</ele>
        <time>2021-11-02T10:48:57Z</time>
      </trkpt>
      <trkpt lat="43.91876" lon="7.55476">
        <ele>1335.3961418459</ele>
        <time>2021-11-02T10:48:58Z</time>
      </trkpt>
      <trkpt lat="43.91877" lon="7.55476">
        <ele>1335.3961044505</ele>
        <time>2021-11-02T10:48:59Z</time>
      </trkpt>
      <trkpt lat="43.91877" lon="7.55476">
        <ele>1336.3960712503</ele>
        <time>2021-11-02T10:49:00Z</time>
      </trkpt>
      <trkpt lat="43.91879" lon="7.55475">
        <ele>1336.3959841021</ele>
        <time>2021-11-02T10:49:02Z</time>
      </trkpt>
      <trkpt lat="43.91879" lon="7.55475">
        <ele>1336.3959605648</ele>
        <time>2021-11-02T10:49:03Z</time>
      </trkpt>
      <trkpt lat="43.91881" lon="7.55475">
        <ele>1337.3959014121</ele>
        <time>2021-11-02T10:49:05Z</time>
      </trkpt>
      <trkpt lat="43.91881" lon="7.55475">
        <ele>1337.3959014121</ele>
        <time>2021-11-02T10:49:10Z</time>
      </trkpt>
      <trkpt lat="43.91882" lon="7.55476">
        <ele>1338.3958255739</ele>
        <time>2021-11-02T10:49:11Z</time>
      </trkpt>
      <trkpt lat="43.91883" lon="7.55477">
        <ele>1338.3958270767</ele>
        <time>2021-11-02T10:49:12Z</time>
      </trkpt>
      <trkpt lat="43.91883" lon="7.55478">
        <ele>1338.3958148246</ele>
        <time>2021-11-02T10:49:13Z</time>
      </trkpt>
      <trkpt lat="43.91885" lon="7.55478">
        <ele>1338.3957352514</ele>
        <time>2021-11-02T10:49:16Z</time>
      </trkpt>
      <trkpt lat="43.91886" lon="7.55478">
        <ele>1339.3957019182</ele>
        <time>2021-11-02T10:49:17Z</time>
      </trkpt>
      <trkpt lat="43.91886" lon="7.55479">
        <ele>1340.3957088058</ele>
        <time>2021-11-02T10:49:18Z</time>
      </trkpt>
      <trkpt lat="43.91886" lon="7.55479">
        <ele>1339.3956852674</ele>
        <time>2021-11-02T10:49:19Z</time>
      </trkpt>
      <trkpt lat="43.91887" lon="7.55481">
        <ele>1339.3956656273</ele>
        <time>2021-11-02T10:49:21Z</time>
      </trkpt>
      <trkpt lat="43.91887" lon="7.55482">
        <ele>1340.3956639409</ele>
        <time>2021-11-02T10:49:22Z</time>
      </trkpt>
      <trkpt lat="43.91887" lon="7.55482">
        <ele>1340.3956637369</ele>
        <time>2021-11-02T10:49:23Z</time>
      </trkpt>
      <trkpt lat="43.91888" lon="7.55484">
        <ele>1340.3956706373</ele>
        <time>2021-11-02T10:49:25Z</time>
      </trkpt>
      <trkpt lat="43.91888" lon="7.55484">
        <ele>1340.3956706373</ele>
        <time>2021-11-02T10:49:28Z</time>
      </trkpt>
      <trkpt lat="43.91889" lon="7.55485">
        <ele>1341.3956529002</ele>
        <time>2021-11-02T10:49:29Z</time>
      </trkpt>
      <trkpt lat="43.91889" lon="7.55486">
        <ele>1341.3956133701</ele>
        <time>2021-11-02T10:49:31Z</time>
      </trkpt>
      <trkpt lat="43.9189" lon="7.55486">
        <ele>1341.3955986924</ele>
        <time>2021-11-02T10:49:32Z</time>
      </trkpt>
      <trkpt lat="43.9189" lon="7.55487">
        <ele>1341.3955870122</ele>
        <time>2021-11-02T10:49:34Z</time>
      </trkpt>
      <trkpt lat="43.91891" lon="7.55488">
        <ele>1341.3955556435</ele>
        <time>2021-11-02T10:49:35Z</time>
      </trkpt>
      <trkpt lat="43.91891" lon="7.55488">
        <ele>1341.3955556435</ele>
        <time>2021-11-02T10:49:37Z</time>
      </trkpt>
      <trkpt lat="43.91892" lon="7.55488">
        <ele>1340.3955032333</ele>
        <time>2021-11-02T10:49:38Z</time>
      </trkpt>
      <trkpt lat="43.91893" lon="7.55488">
        <ele>1341.3954778085</ele>
        <time>2021-11-02T10:49:39Z</time>
      </trkpt>
      <trkpt lat="43.91894" lon="7.55489">
        <ele>1342.3954054135</ele>
        <time>2021-11-02T10:49:41Z</time>
      </trkpt>
      <trkpt lat="43.91895" lon="7.55488">
        <ele>1342.3953645534</ele>
        <time>2021-11-02T10:49:42Z</time>
      </trkpt>
      <trkpt lat="43.91896" lon="7.55488">
        <ele>1342.3953191753</ele>
        <time>2021-11-02T10:49:44Z</time>
      </trkpt>
      <trkpt lat="43.91898" lon="7.55489">
        <ele>1344.3952450848</ele>
        <time>2021-11-02T10:49:45Z</time>
      </trkpt>
      <trkpt lat="43.91899" lon="7.55489">
        <ele>1344.3951761259</ele>
        <time>2021-11-02T10:49:47Z</time>
      </trkpt>
      <trkpt lat="43.91899" lon="7.55489">
        <ele>1344.3951625103</ele>
        <time>2021-11-02T10:49:48Z</time>
      </trkpt>
      <trkpt lat="43.919" lon="7.55489">
        <ele>1345.3951233855</ele>
        <time>2021-11-02T10:49:49Z</time>
      </trkpt>
      <trkpt lat="43.91901" lon="7.55488">
        <ele>1345.3950797429</ele>
        <time>2021-11-02T10:49:50Z</time>
      </trkpt>
      <trkpt lat="43.91902" lon="7.55488">
        <ele>1345.3950368171</ele>
        <time>2021-11-02T10:49:51Z</time>
      </trkpt>
      <trkpt lat="43.91903" lon="7.55487">
        <ele>1346.3949807519</ele>
        <time>2021-11-02T10:49:52Z</time>
      </trkpt>
      <trkpt lat="43.91904" lon="7.55486">
        <ele>1345.3949175907</ele>
        <time>2021-11-02T10:49:53Z</time>
      </trkpt>
      <trkpt lat="43.91905" lon="7.55486">
        <ele>1346.3948737047</ele>
        <time>2021-11-02T10:49:54Z</time>
      </trkpt>
      <trkpt lat="43.91906" lon="7.55486">
        <ele>1346.3948181607</ele>
        <time>2021-11-02T10:49:55Z</time>
      </trkpt>
      <trkpt lat="43.91907" lon="7.55486">
        <ele>1346.3947719288</ele>
        <time>2021-11-02T10:49:56Z</time>
      </trkpt>
      <trkpt lat="43.91908" lon="7.55486">
        <ele>1346.394735184</ele>
        <time>2021-11-02T10:49:57Z</time>
      </trkpt>
      <trkpt lat="43.91908" lon="7.55487">
        <ele>1347.39470428</ele>
        <time>2021-11-02T10:49:58Z</time>
      </trkpt>
      <trkpt lat="43.91909" lon="7.55487">
        <ele>1347.3946772185</ele>
        <time>2021-11-02T10:49:59Z</time>
      </trkpt>
      <trkpt lat="43.9191" lon="7.55487">
        <ele>1346.3946094927</ele>
        <time>2021-11-02T10:50:01Z</time>
      </trkpt>
      <trkpt lat="43.91911" lon="7.55488">
        <ele>1346.3945686644</ele>
        <time>2021-11-02T10:50:02Z</time>
      </trkpt>
      <trkpt lat="43.91912" lon="7.55488">
        <ele>1346.3945454502</ele>
        <time>2021-11-02T10:50:03Z</time>
      </trkpt>
      <trkpt lat="43.91913" lon="7.55488">
        <ele>1347.3945089518</ele>
        <time>2021-11-02T10:50:04Z</time>
      </trkpt>
      <trkpt lat="43.91914" lon="7.55488">
        <ele>1347.3944280635</ele>
        <time>2021-11-02T10:50:06Z</time>
      </trkpt>
      <trkpt lat="43.91915" lon="7.55489">
        <ele>1347.3943877332</ele>
        <time>2021-11-02T10:50:07Z</time>
      </trkpt>
      <trkpt lat="43.91916" lon="7.55489">
        <ele>1347.3943597307</ele>
        <time>2021-11-02T10:50:09Z</time>
      </trkpt>
      <trkpt lat="43.91918" lon="7.5549">
        <ele>1348.3942845246</ele>
        <time>2021-11-02T10:50:10Z</time>
      </trkpt>
      <trkpt lat="43.91919" lon="7.55491">
        <ele>1348.3942205516</ele>
        <time>2021-11-02T10:50:12Z</time>
      </trkpt>
      <trkpt lat="43.9192" lon="7.55491">
        <ele>1348.3941879752</ele>
        <time>2021-11-02T10:50:13Z</time>
      </trkpt>
      <trkpt lat="43.91921" lon="7.55492">
        <ele>1348.3941560184</ele>
        <time>2021-11-02T10:50:14Z</time>
      </trkpt>
      <trkpt lat="43.91922" lon="7.55493">
        <ele>1349.3941305396</ele>
        <time>2021-11-02T10:50:15Z</time>
      </trkpt>
      <trkpt lat="43.91923" lon="7.55494">
        <ele>1349.3941025825</ele>
        <time>2021-11-02T10:50:16Z</time>
      </trkpt>
      <trkpt lat="43.91924" lon="7.55494">
        <ele>1349.3940532826</ele>
        <time>2021-11-02T10:50:17Z</time>
      </trkpt>
      <trkpt lat="43.91925" lon="7.55494">
        <ele>1349.3939969563</ele>
        <time>2021-11-02T10:50:18Z</time>
      </trkpt>
      <trkpt lat="43.91925" lon="7.55495">
        <ele>1349.3939746927</ele>
        <time>2021-11-02T10:50:19Z</time>
      </trkpt>
      <trkpt lat="43.91926" lon="7.55495">
        <ele>1349.3939429501</ele>
        <time>2021-11-02T10:50:20Z</time>
      </trkpt>
      <trkpt lat="43.91928" lon="7.55494">
        <ele>1349.3938573316</ele>
        <time>2021-11-02T10:50:22Z</time>
      </trkpt>
      <trkpt lat="43.91929" lon="7.55493">
        <ele>1348.3937923567</ele>
        <time>2021-11-02T10:50:23Z</time>
      </trkpt>
      <trkpt lat="43.9193" lon="7.55493">
        <ele>1349.3937398438</ele>
        <time>2021-11-02T10:50:24Z</time>
      </trkpt>
      <trkpt lat="43.91931" lon="7.55493">
        <ele>1350.3936776731</ele>
        <time>2021-11-02T10:50:26Z</time>
      </trkpt>
      <trkpt lat="43.91932" lon="7.55493">
        <ele>1350.3936471817</ele>
        <time>2021-11-02T10:50:27Z</time>
      </trkpt>
      <trkpt lat="43.91932" lon="7.55493">
        <ele>1351.393604846</ele>
        <time>2021-11-02T10:50:28Z</time>
      </trkpt>
      <trkpt lat="43.91933" lon="7.55493">
        <ele>1352.3935647721</ele>
        <time>2021-11-02T10:50:29Z</time>
      </trkpt>
      <trkpt lat="43.91935" lon="7.55492">
        <ele>1352.3934830736</ele>
        <time>2021-11-02T10:50:31Z</time>
      </trkpt>
      <trkpt lat="43.91935" lon="7.55491">
        <ele>1353.3934437751</ele>
        <time>2021-11-02T10:50:32Z</time>
      </trkpt>
      <trkpt lat="43.91936" lon="7.55491">
        <ele>1352.3934234404</ele>
        <time>2021-11-02T10:50:33Z</time>
      </trkpt>
      <trkpt lat="43.91936" lon="7.55491">
        <ele>1351.3933987564</ele>
        <time>2021-11-02T10:50:35Z</time>
      </trkpt>
      <trkpt lat="43.91936" lon="7.5549">
        <ele>1352.3933788465</ele>
        <time>2021-11-02T10:50:37Z</time>
      </trkpt>
      <trkpt lat="43.91937" lon="7.55489">
        <ele>1352.3933594202</ele>
        <time>2021-11-02T10:50:39Z</time>
      </trkpt>
      <trkpt lat="43.91937" lon="7.55488">
        <ele>1351.3933031058</ele>
        <time>2021-11-02T10:50:41Z</time>
      </trkpt>
      <trkpt lat="43.91938" lon="7.55487">
        <ele>1352.3932861565</ele>
        <time>2021-11-02T10:50:42Z</time>
      </trkpt>
      <trkpt lat="43.91938" lon="7.55487">
        <ele>1352.3932684642</ele>
        <time>2021-11-02T10:50:43Z</time>
      </trkpt>
      <trkpt lat="43.91939" lon="7.55485">
        <ele>1353.3931707843</ele>
        <time>2021-11-02T10:50:45Z</time>
      </trkpt>
      <trkpt lat="43.9194" lon="7.55484">
        <ele>1353.3931261691</ele>
        <time>2021-11-02T10:50:46Z</time>
      </trkpt>
      <trkpt lat="43.91941" lon="7.55483">
        <ele>1352.3930684563</ele>
        <time>2021-11-02T10:50:47Z</time>
      </trkpt>
      <trkpt lat="43.91942" lon="7.55483">
        <ele>1352.3930264052</ele>
        <time>2021-11-02T10:50:48Z</time>
      </trkpt>
      <trkpt lat="43.91942" lon="7.55483">
        <ele>1353.3929975281</ele>
        <time>2021-11-02T10:50:51Z</time>
      </trkpt>
      <trkpt lat="43.91944" lon="7.55482">
        <ele>1352.392920652</ele>
        <time>2021-11-02T10:50:52Z</time>
      </trkpt>
      <trkpt lat="43.91945" lon="7.55482">
        <ele>1352.3928595348</ele>
        <time>2021-11-02T10:50:53Z</time>
      </trkpt>
      <trkpt lat="43.91945" lon="7.55481">
        <ele>1352.3928230573</ele>
        <time>2021-11-02T10:50:54Z</time>
      </trkpt>
      <trkpt lat="43.91946" lon="7.5548">
        <ele>1352.3927885898</ele>
        <time>2021-11-02T10:50:56Z</time>
      </trkpt>
      <trkpt lat="43.91946" lon="7.5548">
        <ele>1352.3927572008</ele>
        <time>2021-11-02T10:50:57Z</time>
      </trkpt>
      <trkpt lat="43.91947" lon="7.55479">
        <ele>1353.3927232623</ele>
        <time>2021-11-02T10:50:59Z</time>
      </trkpt>
      <trkpt lat="43.91947" lon="7.55478">
        <ele>1353.3927077515</ele>
        <time>2021-11-02T10:51:00Z</time>
      </trkpt>
      <trkpt lat="43.91948" lon="7.55477">
        <ele>1354.3926490102</ele>
        <time>2021-11-02T10:51:02Z</time>
      </trkpt>
      <trkpt lat="43.91949" lon="7.55478">
        <ele>1354.3926155561</ele>
        <time>2021-11-02T10:51:03Z</time>
      </trkpt>
      <trkpt lat="43.91949" lon="7.55477">
        <ele>1354.3925877349</ele>
        <time>2021-11-02T10:51:04Z</time>
      </trkpt>
      <trkpt lat="43.9195" lon="7.55477">
        <ele>1355.3925494916</ele>
        <time>2021-11-02T10:51:05Z</time>
      </trkpt>
      <trkpt lat="43.91951" lon="7.55477">
        <ele>1355.3925055615</ele>
        <time>2021-11-02T10:51:06Z</time>
      </trkpt>
      <trkpt lat="43.91951" lon="7.55477">
        <ele>1355.3924707853</ele>
        <time>2021-11-02T10:51:07Z</time>
      </trkpt>
      <trkpt lat="43.91953" lon="7.55477">
        <ele>1355.3924178784</ele>
        <time>2021-11-02T10:51:08Z</time>
      </trkpt>
      <trkpt lat="43.91953" lon="7.55477">
        <ele>1356.3923778004</ele>
        <time>2021-11-02T10:51:09Z</time>
      </trkpt>
      <trkpt lat="43.91954" lon="7.55477">
        <ele>1356.3923556966</ele>
        <time>2021-11-02T10:51:10Z</time>
      </trkpt>
      <trkpt lat="43.91955" lon="7.55477">
        <ele>1357.3923104737</ele>
        <time>2021-11-02T10:51:11Z</time>
      </trkpt>
      <trkpt lat="43.91956" lon="7.55477">
        <ele>1357.392261234</ele>
        <time>2021-11-02T10:51:13Z</time>
      </trkpt>
      <trkpt lat="43.91956" lon="7.55477">
        <ele>1357.3922309033</ele>
        <time>2021-11-02T10:51:14Z</time>
      </trkpt>
      <trkpt lat="43.91958" lon="7.55476">
        <ele>1358.3921618859</ele>
        <time>2021-11-02T10:51:16Z</time>
      </trkpt>
      <trkpt lat="43.91959" lon="7.55476">
        <ele>1359.3920975017</ele>
        <time>2021-11-02T10:51:18Z</time>
      </trkpt>
      <trkpt lat="43.9196" lon="7.55476">
        <ele>1358.3920709003</ele>
        <time>2021-11-02T10:51:19Z</time>
      </trkpt>
      <trkpt lat="43.91961" lon="7.55476">
        <ele>1358.3920183586</ele>
        <time>2021-11-02T10:51:21Z</time>
      </trkpt>
      <trkpt lat="43.91962" lon="7.55475">
        <ele>1357.391922218</ele>
        <time>2021-11-02T10:51:23Z</time>
      </trkpt>
      <trkpt lat="43.91963" lon="7.55474">
        <ele>1356.3918737561</ele>
        <time>2021-11-02T10:51:24Z</time>
      </trkpt>
      <trkpt lat="43.91964" lon="7.55474">
        <ele>1355.3918328896</ele>
        <time>2021-11-02T10:51:25Z</time>
      </trkpt>
      <trkpt lat="43.91965" lon="7.55472">
        <ele>1354.3917381684</ele>
        <time>2021-11-02T10:51:27Z</time>
      </trkpt>
      <trkpt lat="43.91966" lon="7.55472">
        <ele>1354.3917119168</ele>
        <time>2021-11-02T10:51:29Z</time>
      </trkpt>
      <trkpt lat="43.91967" lon="7.55472">
        <ele>1354.3916379645</ele>
        <time>2021-11-02T10:51:31Z</time>
      </trkpt>
      <trkpt lat="43.91969" lon="7.55472">
        <ele>1355.3915553789</ele>
        <time>2021-11-02T10:51:33Z</time>
      </trkpt>
      <trkpt lat="43.91969" lon="7.55472">
        <ele>1355.3915244891</ele>
        <time>2021-11-02T10:51:34Z</time>
      </trkpt>
      <trkpt lat="43.9197" lon="7.55471">
        <ele>1355.3914981886</ele>
        <time>2021-11-02T10:51:38Z</time>
      </trkpt>
      <trkpt lat="43.91971" lon="7.5547">
        <ele>1357.3914449762</ele>
        <time>2021-11-02T10:51:40Z</time>
      </trkpt>
      <trkpt lat="43.91972" lon="7.5547">
        <ele>1358.3913966196</ele>
        <time>2021-11-02T10:51:41Z</time>
      </trkpt>
      <trkpt lat="43.91972" lon="7.5547">
        <ele>1358.3913646252</ele>
        <time>2021-11-02T10:51:42Z</time>
      </trkpt>
      <trkpt lat="43.91973" lon="7.55469">
        <ele>1358.3913226067</ele>
        <time>2021-11-02T10:51:43Z</time>
      </trkpt>
      <trkpt lat="43.91974" lon="7.55469">
        <ele>1359.3912927441</ele>
        <time>2021-11-02T10:51:44Z</time>
      </trkpt>
      <trkpt lat="43.91974" lon="7.55469">
        <ele>1359.3912589031</ele>
        <time>2021-11-02T10:51:46Z</time>
      </trkpt>
      <trkpt lat="43.91975" lon="7.55469">
        <ele>1359.3912283421</ele>
        <time>2021-11-02T10:51:47Z</time>
      </trkpt>
      <trkpt lat="43.91976" lon="7.5547">
        <ele>1359.3912035269</ele>
        <time>2021-11-02T10:51:48Z</time>
      </trkpt>
      <trkpt lat="43.91976" lon="7.5547">
        <ele>1359.3911712291</ele>
        <time>2021-11-02T10:51:50Z</time>
      </trkpt>
      <trkpt lat="43.91977" lon="7.55471">
        <ele>1358.3911335836</ele>
        <time>2021-11-02T10:51:52Z</time>
      </trkpt>
      <trkpt lat="43.91977" lon="7.55471">
        <ele>1358.3911335836</ele>
        <time>2021-11-02T10:51:53Z</time>
      </trkpt>
      <trkpt lat="43.91979" lon="7.55471">
        <ele>1358.3910422962</ele>
        <time>2021-11-02T10:51:54Z</time>
      </trkpt>
      <trkpt lat="43.9198" lon="7.55471">
        <ele>1358.3909979371</ele>
        <time>2021-11-02T10:51:55Z</time>
      </trkpt>
      <trkpt lat="43.91981" lon="7.55471">
        <ele>1358.3909677295</ele>
        <time>2021-11-02T10:51:56Z</time>
      </trkpt>
      <trkpt lat="43.91981" lon="7.55471">
        <ele>1358.3909541799</ele>
        <time>2021-11-02T10:51:57Z</time>
      </trkpt>
      <trkpt lat="43.91981" lon="7.55472">
        <ele>1358.390948007</ele>
        <time>2021-11-02T10:51:58Z</time>
      </trkpt>
      <trkpt lat="43.91982" lon="7.55473">
        <ele>1358.3909104949</ele>
        <time>2021-11-02T10:51:59Z</time>
      </trkpt>
      <trkpt lat="43.91982" lon="7.55473">
        <ele>1358.3909104949</ele>
        <time>2021-11-02T10:52:01Z</time>
      </trkpt>
      <trkpt lat="43.91984" lon="7.55474">
        <ele>1358.3908434987</ele>
        <time>2021-11-02T10:52:02Z</time>
      </trkpt>
      <trkpt lat="43.91985" lon="7.55474">
        <ele>1358.3908244608</ele>
        <time>2021-11-02T10:52:03Z</time>
      </trkpt>
      <trkpt lat="43.91985" lon="7.55475">
        <ele>1358.3908154533</ele>
        <time>2021-11-02T10:52:04Z</time>
      </trkpt>
      <trkpt lat="43.91985" lon="7.55476">
        <ele>1359.3908040032</ele>
        <time>2021-11-02T10:52:05Z</time>
      </trkpt>
      <trkpt lat="43.91987" lon="7.55478">
        <ele>1358.390769382</ele>
        <time>2021-11-02T10:52:07Z</time>
      </trkpt>
      <trkpt lat="43.91987" lon="7.55479">
        <ele>1359.3907503072</ele>
        <time>2021-11-02T10:52:08Z</time>
      </trkpt>
      <trkpt lat="43.91987" lon="7.55479">
        <ele>1359.3907503072</ele>
        <time>2021-11-02T10:52:09Z</time>
      </trkpt>
      <trkpt lat="43.91989" lon="7.55482">
        <ele>1359.3907020975</ele>
        <time>2021-11-02T10:52:11Z</time>
      </trkpt>
      <trkpt lat="43.9199" lon="7.55481">
        <ele>1359.3906465154</ele>
        <time>2021-11-02T10:52:12Z</time>
      </trkpt>
      <trkpt lat="43.91991" lon="7.55482">
        <ele>1359.3906181506</ele>
        <time>2021-11-02T10:52:13Z</time>
      </trkpt>
      <trkpt lat="43.91991" lon="7.55483">
        <ele>1359.3906022159</ele>
        <time>2021-11-02T10:52:14Z</time>
      </trkpt>
      <trkpt lat="43.91992" lon="7.55484">
        <ele>1359.3906036573</ele>
        <time>2021-11-02T10:52:15Z</time>
      </trkpt>
      <trkpt lat="43.91993" lon="7.55487">
        <ele>1359.3905899847</ele>
        <time>2021-11-02T10:52:17Z</time>
      </trkpt>
      <trkpt lat="43.91994" lon="7.55487">
        <ele>1359.3905263651</ele>
        <time>2021-11-02T10:52:18Z</time>
      </trkpt>
      <trkpt lat="43.91995" lon="7.55489">
        <ele>1360.3904816891</ele>
        <time>2021-11-02T10:52:19Z</time>
      </trkpt>
      <trkpt lat="43.91997" lon="7.5549">
        <ele>1360.3904444915</ele>
        <time>2021-11-02T10:52:20Z</time>
      </trkpt>
      <trkpt lat="43.91998" lon="7.55491">
        <ele>1360.3903977775</ele>
        <time>2021-11-02T10:52:21Z</time>
      </trkpt>
      <trkpt lat="43.91998" lon="7.55492">
        <ele>1360.3903896264</ele>
        <time>2021-11-02T10:52:22Z</time>
      </trkpt>
      <trkpt lat="43.91999" lon="7.55493">
        <ele>1360.390367841</ele>
        <time>2021-11-02T10:52:23Z</time>
      </trkpt>
      <trkpt lat="43.91999" lon="7.55493">
        <ele>1359.3903509752</ele>
        <time>2021-11-02T10:52:24Z</time>
      </trkpt>
      <trkpt lat="43.92001" lon="7.55494">
        <ele>1360.390297844</ele>
        <time>2021-11-02T10:52:26Z</time>
      </trkpt>
      <trkpt lat="43.92001" lon="7.55496">
        <ele>1360.3902751769</ele>
        <time>2021-11-02T10:52:28Z</time>
      </trkpt>
      <trkpt lat="43.92002" lon="7.55496">
        <ele>1360.39024626</ele>
        <time>2021-11-02T10:52:29Z</time>
      </trkpt>
      <trkpt lat="43.92003" lon="7.55496">
        <ele>1360.3902126464</ele>
        <time>2021-11-02T10:52:30Z</time>
      </trkpt>
      <trkpt lat="43.92004" lon="7.55498">
        <ele>1360.3901791981</ele>
        <time>2021-11-02T10:52:32Z</time>
      </trkpt>
      <trkpt lat="43.92004" lon="7.55499">
        <ele>1361.390173521</ele>
        <time>2021-11-02T10:52:33Z</time>
      </trkpt>
      <trkpt lat="43.92005" lon="7.55499">
        <ele>1360.3901548355</ele>
        <time>2021-11-02T10:52:34Z</time>
      </trkpt>
      <trkpt lat="43.92005" lon="7.555">
        <ele>1361.3901325913</ele>
        <time>2021-11-02T10:52:35Z</time>
      </trkpt>
      <trkpt lat="43.92006" lon="7.55501">
        <ele>1361.3901004228</ele>
        <time>2021-11-02T10:52:37Z</time>
      </trkpt>
      <trkpt lat="43.92006" lon="7.55501">
        <ele>1362.3901005429</ele>
        <time>2021-11-02T10:52:39Z</time>
      </trkpt>
      <trkpt lat="43.92007" lon="7.55502">
        <ele>1362.3900999602</ele>
        <time>2021-11-02T10:52:41Z</time>
      </trkpt>
      <trkpt lat="43.92008" lon="7.55503">
        <ele>1363.3900722069</ele>
        <time>2021-11-02T10:52:42Z</time>
      </trkpt>
      <trkpt lat="43.92008" lon="7.55504">
        <ele>1363.3900471302</ele>
        <time>2021-11-02T10:52:43Z</time>
      </trkpt>
      <trkpt lat="43.92009" lon="7.55504">
        <ele>1363.3900109454</ele>
        <time>2021-11-02T10:52:49Z</time>
      </trkpt>
      <trkpt lat="43.92011" lon="7.55507">
        <ele>1362.3899707092</ele>
        <time>2021-11-02T10:52:50Z</time>
      </trkpt>
      <trkpt lat="43.92012" lon="7.55508">
        <ele>1362.3899395542</ele>
        <time>2021-11-02T10:52:51Z</time>
      </trkpt>
      <trkpt lat="43.92012" lon="7.55509">
        <ele>1362.3899188195</ele>
        <time>2021-11-02T10:52:52Z</time>
      </trkpt>
      <trkpt lat="43.92013" lon="7.5551">
        <ele>1362.3898945657</ele>
        <time>2021-11-02T10:52:53Z</time>
      </trkpt>
      <trkpt lat="43.92013" lon="7.5551">
        <ele>1362.3898945657</ele>
        <time>2021-11-02T10:52:55Z</time>
      </trkpt>
      <trkpt lat="43.92014" lon="7.55514">
        <ele>1363.3898878056</ele>
        <time>2021-11-02T10:52:56Z</time>
      </trkpt>
      <trkpt lat="43.92014" lon="7.55515">
        <ele>1363.3899057904</ele>
        <time>2021-11-02T10:52:57Z</time>
      </trkpt>
      <trkpt lat="43.92014" lon="7.55516">
        <ele>1363.3899069365</ele>
        <time>2021-11-02T10:52:58Z</time>
      </trkpt>
      <trkpt lat="43.92014" lon="7.55517">
        <ele>1363.3899138862</ele>
        <time>2021-11-02T10:52:59Z</time>
      </trkpt>
      <trkpt lat="43.92015" lon="7.55517">
        <ele>1363.3898882359</ele>
        <time>2021-11-02T10:53:00Z</time>
      </trkpt>
      <trkpt lat="43.92016" lon="7.55519">
        <ele>1364.3898734048</ele>
        <time>2021-11-02T10:53:01Z</time>
      </trkpt>
      <trkpt lat="43.92016" lon="7.5552">
        <ele>1364.3898541293</ele>
        <time>2021-11-02T10:53:02Z</time>
      </trkpt>
      <trkpt lat="43.92017" lon="7.55521">
        <ele>1365.3898473723</ele>
        <time>2021-11-02T10:53:03Z</time>
      </trkpt>
      <trkpt lat="43.92017" lon="7.55522">
        <ele>1364.389827127</ele>
        <time>2021-11-02T10:53:04Z</time>
      </trkpt>
      <trkpt lat="43.92018" lon="7.55523">
        <ele>1364.3898167098</ele>
        <time>2021-11-02T10:53:05Z</time>
      </trkpt>
      <trkpt lat="43.92018" lon="7.55525">
        <ele>1365.3898195622</ele>
        <time>2021-11-02T10:53:06Z</time>
      </trkpt>
      <trkpt lat="43.92019" lon="7.55526">
        <ele>1365.3898077748</ele>
        <time>2021-11-02T10:53:07Z</time>
      </trkpt>
      <trkpt lat="43.92019" lon="7.55528">
        <ele>1366.389806493</ele>
        <time>2021-11-02T10:53:08Z</time>
      </trkpt>
      <trkpt lat="43.9202" lon="7.55529">
        <ele>1367.3897793527</ele>
        <time>2021-11-02T10:53:09Z</time>
      </trkpt>
      <trkpt lat="43.92021" lon="7.5553">
        <ele>1367.3897540936</ele>
        <time>2021-11-02T10:53:10Z</time>
      </trkpt>
      <trkpt lat="43.92022" lon="7.55531">
        <ele>1366.3897361085</ele>
        <time>2021-11-02T10:53:11Z</time>
      </trkpt>
      <trkpt lat="43.92023" lon="7.55533">
        <ele>1366.3897213207</ele>
        <time>2021-11-02T10:53:12Z</time>
      </trkpt>
      <trkpt lat="43.92023" lon="7.55534">
        <ele>1367.3897008756</ele>
        <time>2021-11-02T10:53:13Z</time>
      </trkpt>
      <trkpt lat="43.92024" lon="7.55535">
        <ele>1367.3896830422</ele>
        <time>2021-11-02T10:53:14Z</time>
      </trkpt>
      <trkpt lat="43.92024" lon="7.55536">
        <ele>1367.3896800904</ele>
        <time>2021-11-02T10:53:17Z</time>
      </trkpt>
      <trkpt lat="43.92025" lon="7.55537">
        <ele>1367.3896453095</ele>
        <time>2021-11-02T10:53:18Z</time>
      </trkpt>
      <trkpt lat="43.92026" lon="7.55538">
        <ele>1366.3895982241</ele>
        <time>2021-11-02T10:53:19Z</time>
      </trkpt>
      <trkpt lat="43.92026" lon="7.55539">
        <ele>1366.389630879</ele>
        <time>2021-11-02T10:53:20Z</time>
      </trkpt>
      <trkpt lat="43.92026" lon="7.5554">
        <ele>1366.3896231676</ele>
        <time>2021-11-02T10:53:21Z</time>
      </trkpt>
      <trkpt lat="43.92027" lon="7.5554">
        <ele>1366.3896103105</ele>
        <time>2021-11-02T10:53:25Z</time>
      </trkpt>
      <trkpt lat="43.92028" lon="7.55545">
        <ele>1367.3896049152</ele>
        <time>2021-11-02T10:53:27Z</time>
      </trkpt>
      <trkpt lat="43.92029" lon="7.55547">
        <ele>1368.3896082913</ele>
        <time>2021-11-02T10:53:28Z</time>
      </trkpt>
      <trkpt lat="43.92029" lon="7.55548">
        <ele>1369.3896047867</ele>
        <time>2021-11-02T10:53:29Z</time>
      </trkpt>
      <trkpt lat="43.92029" lon="7.55549">
        <ele>1369.389596996</ele>
        <time>2021-11-02T10:53:30Z</time>
      </trkpt>
      <trkpt lat="43.9203" lon="7.5555">
        <ele>1370.3895779289</ele>
        <time>2021-11-02T10:53:31Z</time>
      </trkpt>
      <trkpt lat="43.9203" lon="7.5555">
        <ele>1370.3895793368</ele>
        <time>2021-11-02T10:53:32Z</time>
      </trkpt>
      <trkpt lat="43.92031" lon="7.55551">
        <ele>1370.3895693075</ele>
        <time>2021-11-02T10:53:33Z</time>
      </trkpt>
      <trkpt lat="43.92032" lon="7.55554">
        <ele>1370.3895431244</ele>
        <time>2021-11-02T10:53:35Z</time>
      </trkpt>
      <trkpt lat="43.92033" lon="7.55555">
        <ele>1369.3895094306</ele>
        <time>2021-11-02T10:53:37Z</time>
      </trkpt>
      <trkpt lat="43.92034" lon="7.55555">
        <ele>1369.389463771</ele>
        <time>2021-11-02T10:53:38Z</time>
      </trkpt>
      <trkpt lat="43.92035" lon="7.55556">
        <ele>1369.3894080198</ele>
        <time>2021-11-02T10:53:39Z</time>
      </trkpt>
      <trkpt lat="43.92036" lon="7.55557">
        <ele>1369.389375137</ele>
        <time>2021-11-02T10:53:40Z</time>
      </trkpt>
      <trkpt lat="43.92038" lon="7.55558">
        <ele>1369.3892978993</ele>
        <time>2021-11-02T10:53:42Z</time>
      </trkpt>
      <trkpt lat="43.92039" lon="7.55559">
        <ele>1369.3892653582</ele>
        <time>2021-11-02T10:53:43Z</time>
      </trkpt>
      <trkpt lat="43.92039" lon="7.5556">
        <ele>1370.3892393635</ele>
        <time>2021-11-02T10:53:44Z</time>
      </trkpt>
      <trkpt lat="43.92041" lon="7.55562">
        <ele>1370.3891956248</ele>
        <time>2021-11-02T10:53:46Z</time>
      </trkpt>
      <trkpt lat="43.92042" lon="7.55562">
        <ele>1370.3891665628</ele>
        <time>2021-11-02T10:53:47Z</time>
      </trkpt>
      <trkpt lat="43.92042" lon="7.55563">
        <ele>1370.3891355649</ele>
        <time>2021-11-02T10:53:48Z</time>
      </trkpt>
      <trkpt lat="43.92044" lon="7.55563">
        <ele>1371.3890724043</ele>
        <time>2021-11-02T10:53:50Z</time>
      </trkpt>
      <trkpt lat="43.92044" lon="7.55563">
        <ele>1371.3890512531</ele>
        <time>2021-11-02T10:53:52Z</time>
      </trkpt>
      <trkpt lat="43.92046" lon="7.55563">
        <ele>1371.3889771488</ele>
        <time>2021-11-02T10:53:53Z</time>
      </trkpt>
      <trkpt lat="43.92046" lon="7.55564">
        <ele>1371.3889560496</ele>
        <time>2021-11-02T10:53:54Z</time>
      </trkpt>
      <trkpt lat="43.92047" lon="7.55565">
        <ele>1372.3889320605</ele>
        <time>2021-11-02T10:53:55Z</time>
      </trkpt>
      <trkpt lat="43.92048" lon="7.55565">
        <ele>1372.388892835</ele>
        <time>2021-11-02T10:53:58Z</time>
      </trkpt>
      <trkpt lat="43.9205" lon="7.55566">
        <ele>1373.3888107602</ele>
        <time>2021-11-02T10:53:59Z</time>
      </trkpt>
      <trkpt lat="43.92052" lon="7.55567">
        <ele>1375.3887384374</ele>
        <time>2021-11-02T10:54:01Z</time>
      </trkpt>
      <trkpt lat="43.92053" lon="7.55567">
        <ele>1375.3886960338</ele>
        <time>2021-11-02T10:54:02Z</time>
      </trkpt>
      <trkpt lat="43.92053" lon="7.55567">
        <ele>1375.3886960338</ele>
        <time>2021-11-02T10:54:04Z</time>
      </trkpt>
      <trkpt lat="43.92054" lon="7.55568">
        <ele>1375.3886273344</ele>
        <time>2021-11-02T10:54:05Z</time>
      </trkpt>
      <trkpt lat="43.92055" lon="7.55568">
        <ele>1376.3885915965</ele>
        <time>2021-11-02T10:54:06Z</time>
      </trkpt>
      <trkpt lat="43.92055" lon="7.55568">
        <ele>1376.3885741495</ele>
        <time>2021-11-02T10:54:07Z</time>
      </trkpt>
      <trkpt lat="43.92056" lon="7.55567">
        <ele>1377.3885432912</ele>
        <time>2021-11-02T10:54:09Z</time>
      </trkpt>
      <trkpt lat="43.92057" lon="7.55569">
        <ele>1378.3884739827</ele>
        <time>2021-11-02T10:54:11Z</time>
      </trkpt>
      <trkpt lat="43.92058" lon="7.55569">
        <ele>1378.3884506854</ele>
        <time>2021-11-02T10:54:12Z</time>
      </trkpt>
      <trkpt lat="43.92059" lon="7.5557">
        <ele>1378.3884310167</ele>
        <time>2021-11-02T10:54:16Z</time>
      </trkpt>
      <trkpt lat="43.92059" lon="7.55571">
        <ele>1379.3884044969</ele>
        <time>2021-11-02T10:54:17Z</time>
      </trkpt>
      <trkpt lat="43.92059" lon="7.55572">
        <ele>1380.3884174811</ele>
        <time>2021-11-02T10:54:18Z</time>
      </trkpt>
      <trkpt lat="43.9206" lon="7.55573">
        <ele>1380.3884219296</ele>
        <time>2021-11-02T10:54:19Z</time>
      </trkpt>
      <trkpt lat="43.9206" lon="7.55573">
        <ele>1380.3883805264</ele>
        <time>2021-11-02T10:54:21Z</time>
      </trkpt>
      <trkpt lat="43.92061" lon="7.55573">
        <ele>1380.3883399591</ele>
        <time>2021-11-02T10:54:23Z</time>
      </trkpt>
      <trkpt lat="43.92062" lon="7.55573">
        <ele>1379.3883174329</ele>
        <time>2021-11-02T10:54:24Z</time>
      </trkpt>
      <trkpt lat="43.92063" lon="7.55573">
        <ele>1379.3882670755</ele>
        <time>2021-11-02T10:54:26Z</time>
      </trkpt>
      <trkpt lat="43.92063" lon="7.55574">
        <ele>1379.3882454506</ele>
        <time>2021-11-02T10:54:27Z</time>
      </trkpt>
      <trkpt lat="43.92064" lon="7.55573">
        <ele>1378.3882069485</ele>
        <time>2021-11-02T10:54:29Z</time>
      </trkpt>
      <trkpt lat="43.92064" lon="7.55573">
        <ele>1378.3881998727</ele>
        <time>2021-11-02T10:54:36Z</time>
      </trkpt>
      <trkpt lat="43.92066" lon="7.55573">
        <ele>1379.3881177793</ele>
        <time>2021-11-02T10:54:38Z</time>
      </trkpt>
      <trkpt lat="43.92066" lon="7.55573">
        <ele>1379.3880858734</ele>
        <time>2021-11-02T10:54:39Z</time>
      </trkpt>
      <trkpt lat="43.92067" lon="7.55573">
        <ele>1380.3880472228</ele>
        <time>2021-11-02T10:54:40Z</time>
      </trkpt>
      <trkpt lat="43.92068" lon="7.55574">
        <ele>1379.3880105746</ele>
        <time>2021-11-02T10:54:44Z</time>
      </trkpt>
      <trkpt lat="43.9207" lon="7.55573">
        <ele>1380.3879312616</ele>
        <time>2021-11-02T10:54:46Z</time>
      </trkpt>
      <trkpt lat="43.92071" lon="7.55573">
        <ele>1380.387881675</ele>
        <time>2021-11-02T10:54:48Z</time>
      </trkpt>
      <trkpt lat="43.92071" lon="7.55573">
        <ele>1380.387881675</ele>
        <time>2021-11-02T10:54:50Z</time>
      </trkpt>
      <trkpt lat="43.92073" lon="7.55573">
        <ele>1380.387747074</ele>
        <time>2021-11-02T10:54:52Z</time>
      </trkpt>
      <trkpt lat="43.92074" lon="7.55574">
        <ele>1379.3877160943</ele>
        <time>2021-11-02T10:54:53Z</time>
      </trkpt>
      <trkpt lat="43.92075" lon="7.55574">
        <ele>1380.3876776122</ele>
        <time>2021-11-02T10:54:55Z</time>
      </trkpt>
      <trkpt lat="43.92075" lon="7.55574">
        <ele>1380.3876568386</ele>
        <time>2021-11-02T10:54:56Z</time>
      </trkpt>
      <trkpt lat="43.92076" lon="7.55574">
        <ele>1382.3876402226</ele>
        <time>2021-11-02T10:55:00Z</time>
      </trkpt>
      <trkpt lat="43.92077" lon="7.55574">
        <ele>1381.3876020682</ele>
        <time>2021-11-02T10:55:02Z</time>
      </trkpt>
      <trkpt lat="43.92077" lon="7.55574">
        <ele>1382.3875660484</ele>
        <time>2021-11-02T10:55:03Z</time>
      </trkpt>
      <trkpt lat="43.92078" lon="7.55573">
        <ele>1381.3875478038</ele>
        <time>2021-11-02T10:55:04Z</time>
      </trkpt>
      <trkpt lat="43.9208" lon="7.55573">
        <ele>1381.3874429563</ele>
        <time>2021-11-02T10:55:06Z</time>
      </trkpt>
      <trkpt lat="43.92081" lon="7.55573">
        <ele>1381.3873522737</ele>
        <time>2021-11-02T10:55:08Z</time>
      </trkpt>
      <trkpt lat="43.92082" lon="7.55573">
        <ele>1383.3873323879</ele>
        <time>2021-11-02T10:55:09Z</time>
      </trkpt>
      <trkpt lat="43.92083" lon="7.55573">
        <ele>1383.3873011278</ele>
        <time>2021-11-02T10:55:10Z</time>
      </trkpt>
      <trkpt lat="43.92083" lon="7.55573">
        <ele>1383.3872609203</ele>
        <time>2021-11-02T10:55:13Z</time>
      </trkpt>
      <trkpt lat="43.92085" lon="7.55572">
        <ele>1383.3871728201</ele>
        <time>2021-11-02T10:55:14Z</time>
      </trkpt>
      <trkpt lat="43.92085" lon="7.55571">
        <ele>1384.3871350727</ele>
        <time>2021-11-02T10:55:19Z</time>
      </trkpt>
      <trkpt lat="43.92086" lon="7.5557">
        <ele>1386.3870800352</ele>
        <time>2021-11-02T10:55:20Z</time>
      </trkpt>
      <trkpt lat="43.92087" lon="7.55569">
        <ele>1389.387035818</ele>
        <time>2021-11-02T10:55:25Z</time>
      </trkpt>
      <trkpt lat="43.92088" lon="7.55569">
        <ele>1389.3869714894</ele>
        <time>2021-11-02T10:55:27Z</time>
      </trkpt>
      <trkpt lat="43.92089" lon="7.55568">
        <ele>1389.3869444709</ele>
        <time>2021-11-02T10:55:28Z</time>
      </trkpt>
      <trkpt lat="43.92089" lon="7.55568">
        <ele>1388.3869098638</ele>
        <time>2021-11-02T10:55:29Z</time>
      </trkpt>
      <trkpt lat="43.9209" lon="7.55568">
        <ele>1389.3868504535</ele>
        <time>2021-11-02T10:55:31Z</time>
      </trkpt>
      <trkpt lat="43.92091" lon="7.55568">
        <ele>1388.3868236678</ele>
        <time>2021-11-02T10:55:34Z</time>
      </trkpt>
      <trkpt lat="43.92091" lon="7.55569">
        <ele>1389.3868132868</ele>
        <time>2021-11-02T10:55:35Z</time>
      </trkpt>
      <trkpt lat="43.92092" lon="7.5557">
        <ele>1389.3868028012</ele>
        <time>2021-11-02T10:55:37Z</time>
      </trkpt>
      <trkpt lat="43.92092" lon="7.55571">
        <ele>1388.3867986128</ele>
        <time>2021-11-02T10:55:38Z</time>
      </trkpt>
      <trkpt lat="43.92093" lon="7.55571">
        <ele>1387.3867724173</ele>
        <time>2021-11-02T10:55:39Z</time>
      </trkpt>
      <trkpt lat="43.92095" lon="7.55574">
        <ele>1387.3867113887</ele>
        <time>2021-11-02T10:55:41Z</time>
      </trkpt>
      <trkpt lat="43.92095" lon="7.55574">
        <ele>1386.3867095563</ele>
        <time>2021-11-02T10:55:42Z</time>
      </trkpt>
      <trkpt lat="43.92096" lon="7.55574">
        <ele>1387.3866744688</ele>
        <time>2021-11-02T10:55:43Z</time>
      </trkpt>
      <trkpt lat="43.92096" lon="7.55575">
        <ele>1387.3866491471</ele>
        <time>2021-11-02T10:55:44Z</time>
      </trkpt>
      <trkpt lat="43.92097" lon="7.55576">
        <ele>1387.3866254946</ele>
        <time>2021-11-02T10:55:45Z</time>
      </trkpt>
      <trkpt lat="43.92098" lon="7.55577">
        <ele>1387.3865911589</ele>
        <time>2021-11-02T10:55:47Z</time>
      </trkpt>
      <trkpt lat="43.92098" lon="7.55578">
        <ele>1387.3865955798</ele>
        <time>2021-11-02T10:55:49Z</time>
      </trkpt>
      <trkpt lat="43.921" lon="7.55581">
        <ele>1386.3865403183</ele>
        <time>2021-11-02T10:55:51Z</time>
      </trkpt>
      <trkpt lat="43.92101" lon="7.55582">
        <ele>1386.3864972097</ele>
        <time>2021-11-02T10:55:53Z</time>
      </trkpt>
      <trkpt lat="43.92102" lon="7.55582">
        <ele>1385.3864872864</ele>
        <time>2021-11-02T10:55:54Z</time>
      </trkpt>
      <trkpt lat="43.92102" lon="7.55583">
        <ele>1385.3864813174</ele>
        <time>2021-11-02T10:55:57Z</time>
      </trkpt>
      <trkpt lat="43.92102" lon="7.55584">
        <ele>1385.3864991485</ele>
        <time>2021-11-02T10:55:58Z</time>
      </trkpt>
      <trkpt lat="43.92102" lon="7.55584">
        <ele>1386.3864993539</ele>
        <time>2021-11-02T10:56:00Z</time>
      </trkpt>
      <trkpt lat="43.92102" lon="7.55586">
        <ele>1386.3864838902</ele>
        <time>2021-11-02T10:56:01Z</time>
      </trkpt>
      <trkpt lat="43.92103" lon="7.55588">
        <ele>1386.3864772017</ele>
        <time>2021-11-02T10:56:02Z</time>
      </trkpt>
      <trkpt lat="43.92103" lon="7.55589">
        <ele>1386.3864895068</ele>
        <time>2021-11-02T10:56:03Z</time>
      </trkpt>
      <trkpt lat="43.92103" lon="7.55589">
        <ele>1386.3864836521</ele>
        <time>2021-11-02T10:56:04Z</time>
      </trkpt>
      <trkpt lat="43.92104" lon="7.5559">
        <ele>1386.3864789057</ele>
        <time>2021-11-02T10:56:05Z</time>
      </trkpt>
      <trkpt lat="43.92104" lon="7.55592">
        <ele>1387.3864934281</ele>
        <time>2021-11-02T10:56:07Z</time>
      </trkpt>
      <trkpt lat="43.92105" lon="7.55593">
        <ele>1387.3864827627</ele>
        <time>2021-11-02T10:56:08Z</time>
      </trkpt>
      <trkpt lat="43.92105" lon="7.55595">
        <ele>1387.3864654772</ele>
        <time>2021-11-02T10:56:09Z</time>
      </trkpt>
      <trkpt lat="43.92107" lon="7.55596">
        <ele>1387.3863909341</ele>
        <time>2021-11-02T10:56:11Z</time>
      </trkpt>
      <trkpt lat="43.9211" lon="7.55597">
        <ele>1387.3862784265</ele>
        <time>2021-11-02T10:56:13Z</time>
      </trkpt>
      <trkpt lat="43.92111" lon="7.55597">
        <ele>1387.3862160398</ele>
        <time>2021-11-02T10:56:14Z</time>
      </trkpt>
      <trkpt lat="43.92112" lon="7.55598">
        <ele>1388.3861718096</ele>
        <time>2021-11-02T10:56:15Z</time>
      </trkpt>
      <trkpt lat="43.92114" lon="7.55599">
        <ele>1388.3860744341</ele>
        <time>2021-11-02T10:56:17Z</time>
      </trkpt>
      <trkpt lat="43.92115" lon="7.556">
        <ele>1388.3860403447</ele>
        <time>2021-11-02T10:56:18Z</time>
      </trkpt>
      <trkpt lat="43.92116" lon="7.556">
        <ele>1390.3860015337</ele>
        <time>2021-11-02T10:56:20Z</time>
      </trkpt>
      <trkpt lat="43.92117" lon="7.55601">
        <ele>1392.3859691971</ele>
        <time>2021-11-02T10:56:21Z</time>
      </trkpt>
      <trkpt lat="43.92118" lon="7.55603">
        <ele>1392.3859533786</ele>
        <time>2021-11-02T10:56:22Z</time>
      </trkpt>
      <trkpt lat="43.92118" lon="7.55603">
        <ele>1393.3859413889</ele>
        <time>2021-11-02T10:56:23Z</time>
      </trkpt>
      <trkpt lat="43.92118" lon="7.55604">
        <ele>1394.3859341117</ele>
        <time>2021-11-02T10:56:24Z</time>
      </trkpt>
      <trkpt lat="43.92119" lon="7.55605">
        <ele>1394.3859199986</ele>
        <time>2021-11-02T10:56:25Z</time>
      </trkpt>
      <trkpt lat="43.92119" lon="7.55607">
        <ele>1395.3859205584</ele>
        <time>2021-11-02T10:56:26Z</time>
      </trkpt>
      <trkpt lat="43.9212" lon="7.55608">
        <ele>1396.3859068461</ele>
        <time>2021-11-02T10:56:27Z</time>
      </trkpt>
      <trkpt lat="43.92121" lon="7.55609">
        <ele>1396.3858796286</ele>
        <time>2021-11-02T10:56:28Z</time>
      </trkpt>
      <trkpt lat="43.92121" lon="7.5561">
        <ele>1396.3858620552</ele>
        <time>2021-11-02T10:56:29Z</time>
      </trkpt>
      <trkpt lat="43.92122" lon="7.55611">
        <ele>1396.3858594126</ele>
        <time>2021-11-02T10:56:30Z</time>
      </trkpt>
      <trkpt lat="43.92122" lon="7.55612">
        <ele>1396.3858520232</ele>
        <time>2021-11-02T10:56:31Z</time>
      </trkpt>
      <trkpt lat="43.92123" lon="7.55613">
        <ele>1396.3858257718</ele>
        <time>2021-11-02T10:56:32Z</time>
      </trkpt>
      <trkpt lat="43.92124" lon="7.55614">
        <ele>1396.3858064548</ele>
        <time>2021-11-02T10:56:33Z</time>
      </trkpt>
      <trkpt lat="43.92124" lon="7.55615">
        <ele>1396.3857839071</ele>
        <time>2021-11-02T10:56:34Z</time>
      </trkpt>
      <trkpt lat="43.92125" lon="7.55615">
        <ele>1396.3857672342</ele>
        <time>2021-11-02T10:56:35Z</time>
      </trkpt>
      <trkpt lat="43.92125" lon="7.55615">
        <ele>1396.3857565261</ele>
        <time>2021-11-02T10:56:36Z</time>
      </trkpt>
      <trkpt lat="43.92126" lon="7.55616">
        <ele>1397.385720789</ele>
        <time>2021-11-02T10:56:38Z</time>
      </trkpt>
      <trkpt lat="43.92126" lon="7.55616">
        <ele>1397.3856956024</ele>
        <time>2021-11-02T10:56:39Z</time>
      </trkpt>
      <trkpt lat="43.92127" lon="7.55617">
        <ele>1397.3856809798</ele>
        <time>2021-11-02T10:56:40Z</time>
      </trkpt>
      <trkpt lat="43.92128" lon="7.55618">
        <ele>1397.3856512505</ele>
        <time>2021-11-02T10:56:42Z</time>
      </trkpt>
      <trkpt lat="43.92129" lon="7.55619">
        <ele>1397.3856215901</ele>
        <time>2021-11-02T10:56:43Z</time>
      </trkpt>
      <trkpt lat="43.92129" lon="7.55619">
        <ele>1397.385601156</ele>
        <time>2021-11-02T10:56:44Z</time>
      </trkpt>
      <trkpt lat="43.9213" lon="7.5562">
        <ele>1397.3855930906</ele>
        <time>2021-11-02T10:56:45Z</time>
      </trkpt>
      <trkpt lat="43.9213" lon="7.55621">
        <ele>1397.3855881115</ele>
        <time>2021-11-02T10:56:46Z</time>
      </trkpt>
      <trkpt lat="43.92131" lon="7.55621">
        <ele>1397.3855496227</ele>
        <time>2021-11-02T10:56:48Z</time>
      </trkpt>
      <trkpt lat="43.92132" lon="7.5562">
        <ele>1397.3854976911</ele>
        <time>2021-11-02T10:56:49Z</time>
      </trkpt>
      <trkpt lat="43.92132" lon="7.5562">
        <ele>1398.3854660166</ele>
        <time>2021-11-02T10:56:50Z</time>
      </trkpt>
      <trkpt lat="43.92132" lon="7.55619">
        <ele>1397.3854565543</ele>
        <time>2021-11-02T10:56:51Z</time>
      </trkpt>
      <trkpt lat="43.92132" lon="7.55618">
        <ele>1398.3854325715</ele>
        <time>2021-11-02T10:56:52Z</time>
      </trkpt>
      <trkpt lat="43.92132" lon="7.55618">
        <ele>1398.3854195195</ele>
        <time>2021-11-02T10:56:53Z</time>
      </trkpt>
      <trkpt lat="43.92133" lon="7.55616">
        <ele>1398.3853981209</ele>
        <time>2021-11-02T10:56:54Z</time>
      </trkpt>
      <trkpt lat="43.92133" lon="7.55615">
        <ele>1398.3853653859</ele>
        <time>2021-11-02T10:56:55Z</time>
      </trkpt>
      <trkpt lat="43.92133" lon="7.55612">
        <ele>1399.385348394</ele>
        <time>2021-11-02T10:56:57Z</time>
      </trkpt>
      <trkpt lat="43.92132" lon="7.55611">
        <ele>1399.3853415107</ele>
        <time>2021-11-02T10:56:58Z</time>
      </trkpt>
      <trkpt lat="43.92132" lon="7.5561">
        <ele>1399.3853436464</ele>
        <time>2021-11-02T10:56:59Z</time>
      </trkpt>
      <trkpt lat="43.92132" lon="7.55609">
        <ele>1399.3853529041</ele>
        <time>2021-11-02T10:57:00Z</time>
      </trkpt>
      <trkpt lat="43.92131" lon="7.55608">
        <ele>1399.3853761704</ele>
        <time>2021-11-02T10:57:01Z</time>
      </trkpt>
      <trkpt lat="43.9213" lon="7.55607">
        <ele>1399.385387255</ele>
        <time>2021-11-02T10:57:03Z</time>
      </trkpt>
      <trkpt lat="43.9213" lon="7.55607">
        <ele>1399.3854096672</ele>
        <time>2021-11-02T10:57:04Z</time>
      </trkpt>
      <trkpt lat="43.9213" lon="7.55606">
        <ele>1400.3854082774</ele>
        <time>2021-11-02T10:57:05Z</time>
      </trkpt>
      <trkpt lat="43.9213" lon="7.55605">
        <ele>1400.3853980859</ele>
        <time>2021-11-02T10:57:06Z</time>
      </trkpt>
      <trkpt lat="43.9213" lon="7.55604">
        <ele>1401.3853876482</ele>
        <time>2021-11-02T10:57:07Z</time>
      </trkpt>
      <trkpt lat="43.92129" lon="7.55604">
        <ele>1400.3853973449</ele>
        <time>2021-11-02T10:57:08Z</time>
      </trkpt>
      <trkpt lat="43.92129" lon="7.55603">
        <ele>1400.3853956361</ele>
        <time>2021-11-02T10:57:10Z</time>
      </trkpt>
      <trkpt lat="43.92128" lon="7.55601">
        <ele>1400.3854429937</ele>
        <time>2021-11-02T10:57:11Z</time>
      </trkpt>
      <trkpt lat="43.92127" lon="7.55599">
        <ele>1400.3854730428</ele>
        <time>2021-11-02T10:57:12Z</time>
      </trkpt>
      <trkpt lat="43.92126" lon="7.55598">
        <ele>1400.3854860647</ele>
        <time>2021-11-02T10:57:13Z</time>
      </trkpt>
      <trkpt lat="43.92125" lon="7.55597">
        <ele>1400.385519855</ele>
        <time>2021-11-02T10:57:14Z</time>
      </trkpt>
      <trkpt lat="43.92125" lon="7.55596">
        <ele>1400.3855281898</ele>
        <time>2021-11-02T10:57:15Z</time>
      </trkpt>
      <trkpt lat="43.92125" lon="7.55593">
        <ele>1401.3855012761</ele>
        <time>2021-11-02T10:57:17Z</time>
      </trkpt>
      <trkpt lat="43.92124" lon="7.55592">
        <ele>1402.3854933034</ele>
        <time>2021-11-02T10:57:18Z</time>
      </trkpt>
      <trkpt lat="43.92124" lon="7.55591">
        <ele>1402.3855006686</ele>
        <time>2021-11-02T10:57:19Z</time>
      </trkpt>
      <trkpt lat="43.92123" lon="7.55589">
        <ele>1403.3854960666</ele>
        <time>2021-11-02T10:57:21Z</time>
      </trkpt>
      <trkpt lat="43.92124" lon="7.55586">
        <ele>1403.3854603557</ele>
        <time>2021-11-02T10:57:23Z</time>
      </trkpt>
      <trkpt lat="43.92123" lon="7.55585">
        <ele>1404.3854478114</ele>
        <time>2021-11-02T10:57:24Z</time>
      </trkpt>
      <trkpt lat="43.92123" lon="7.55583">
        <ele>1404.3854301829</ele>
        <time>2021-11-02T10:57:25Z</time>
      </trkpt>
      <trkpt lat="43.92123" lon="7.55582">
        <ele>1403.3854201048</ele>
        <time>2021-11-02T10:57:26Z</time>
      </trkpt>
      <trkpt lat="43.92123" lon="7.5558">
        <ele>1403.3853984245</ele>
        <time>2021-11-02T10:57:27Z</time>
      </trkpt>
      <trkpt lat="43.92123" lon="7.55579">
        <ele>1404.3853874381</ele>
        <time>2021-11-02T10:57:28Z</time>
      </trkpt>
      <trkpt lat="43.92123" lon="7.55578">
        <ele>1403.3853810926</ele>
        <time>2021-11-02T10:57:29Z</time>
      </trkpt>
      <trkpt lat="43.92123" lon="7.55576">
        <ele>1404.3853757031</ele>
        <time>2021-11-02T10:57:30Z</time>
      </trkpt>
      <trkpt lat="43.92122" lon="7.55575">
        <ele>1404.3853778117</ele>
        <time>2021-11-02T10:57:31Z</time>
      </trkpt>
      <trkpt lat="43.92122" lon="7.55574">
        <ele>1404.3853739673</ele>
        <time>2021-11-02T10:57:32Z</time>
      </trkpt>
      <trkpt lat="43.92122" lon="7.55573">
        <ele>1404.3853663577</ele>
        <time>2021-11-02T10:57:33Z</time>
      </trkpt>
      <trkpt lat="43.92122" lon="7.55572">
        <ele>1404.385360952</ele>
        <time>2021-11-02T10:57:34Z</time>
      </trkpt>
      <trkpt lat="43.92121" lon="7.5557">
        <ele>1404.385357756</ele>
        <time>2021-11-02T10:57:35Z</time>
      </trkpt>
      <trkpt lat="43.92121" lon="7.55568">
        <ele>1403.3853467498</ele>
        <time>2021-11-02T10:57:37Z</time>
      </trkpt>
      <trkpt lat="43.92121" lon="7.55567">
        <ele>1403.3853462623</ele>
        <time>2021-11-02T10:57:38Z</time>
      </trkpt>
      <trkpt lat="43.92121" lon="7.55566">
        <ele>1403.385343033</ele>
        <time>2021-11-02T10:57:40Z</time>
      </trkpt>
      <trkpt lat="43.92121" lon="7.55563">
        <ele>1403.3852833799</ele>
        <time>2021-11-02T10:57:41Z</time>
      </trkpt>
      <trkpt lat="43.92121" lon="7.55561">
        <ele>1404.3852828901</ele>
        <time>2021-11-02T10:57:42Z</time>
      </trkpt>
      <trkpt lat="43.92122" lon="7.55559">
        <ele>1404.3852180415</ele>
        <time>2021-11-02T10:57:43Z</time>
      </trkpt>
      <trkpt lat="43.92122" lon="7.55558">
        <ele>1404.3851765502</ele>
        <time>2021-11-02T10:57:44Z</time>
      </trkpt>
      <trkpt lat="43.92123" lon="7.55557">
        <ele>1404.3851080366</ele>
        <time>2021-11-02T10:57:46Z</time>
      </trkpt>
      <trkpt lat="43.92125" lon="7.55557">
        <ele>1404.3850151448</ele>
        <time>2021-11-02T10:57:48Z</time>
      </trkpt>
      <trkpt lat="43.92126" lon="7.55557">
        <ele>1404.3849797857</ele>
        <time>2021-11-02T10:57:50Z</time>
      </trkpt>
      <trkpt lat="43.92126" lon="7.55557">
        <ele>1405.384948871</ele>
        <time>2021-11-02T10:57:51Z</time>
      </trkpt>
      <trkpt lat="43.92128" lon="7.55556">
        <ele>1405.3848546528</ele>
        <time>2021-11-02T10:57:53Z</time>
      </trkpt>
      <trkpt lat="43.92129" lon="7.55556">
        <ele>1405.3848127359</ele>
        <time>2021-11-02T10:57:54Z</time>
      </trkpt>
      <trkpt lat="43.9213" lon="7.55556">
        <ele>1404.3847615625</ele>
        <time>2021-11-02T10:57:55Z</time>
      </trkpt>
      <trkpt lat="43.9213" lon="7.55556">
        <ele>1404.3847443074</ele>
        <time>2021-11-02T10:57:59Z</time>
      </trkpt>
      <trkpt lat="43.92133" lon="7.55557">
        <ele>1404.3846447975</ele>
        <time>2021-11-02T10:58:01Z</time>
      </trkpt>
      <trkpt lat="43.92134" lon="7.55559">
        <ele>1404.3845766469</ele>
        <time>2021-11-02T10:58:03Z</time>
      </trkpt>
      <trkpt lat="43.92135" lon="7.5556">
        <ele>1404.3845703472</ele>
        <time>2021-11-02T10:58:04Z</time>
      </trkpt>
      <trkpt lat="43.92136" lon="7.55561">
        <ele>1404.3845566747</ele>
        <time>2021-11-02T10:58:05Z</time>
      </trkpt>
      <trkpt lat="43.92136" lon="7.55562">
        <ele>1403.3845383596</ele>
        <time>2021-11-02T10:58:06Z</time>
      </trkpt>
      <trkpt lat="43.92137" lon="7.55564">
        <ele>1403.3845106672</ele>
        <time>2021-11-02T10:58:08Z</time>
      </trkpt>
      <trkpt lat="43.92137" lon="7.55565">
        <ele>1403.3845059683</ele>
        <time>2021-11-02T10:58:09Z</time>
      </trkpt>
      <trkpt lat="43.92138" lon="7.55565">
        <ele>1403.3844699264</ele>
        <time>2021-11-02T10:58:10Z</time>
      </trkpt>
      <trkpt lat="43.9214" lon="7.55566">
        <ele>1403.3844029431</ele>
        <time>2021-11-02T10:58:12Z</time>
      </trkpt>
      <trkpt lat="43.9214" lon="7.55567">
        <ele>1403.3843991074</ele>
        <time>2021-11-02T10:58:13Z</time>
      </trkpt>
      <trkpt lat="43.92141" lon="7.55568">
        <ele>1403.3843676758</ele>
        <time>2021-11-02T10:58:14Z</time>
      </trkpt>
      <trkpt lat="43.92143" lon="7.55569">
        <ele>1404.3843092056</ele>
        <time>2021-11-02T10:58:16Z</time>
      </trkpt>
      <trkpt lat="43.92144" lon="7.55571">
        <ele>1404.3842457723</ele>
        <time>2021-11-02T10:58:18Z</time>
      </trkpt>
      <trkpt lat="43.92145" lon="7.55572">
        <ele>1404.3842215827</ele>
        <time>2021-11-02T10:58:19Z</time>
      </trkpt>
      <trkpt lat="43.92146" lon="7.55574">
        <ele>1404.3842043202</ele>
        <time>2021-11-02T10:58:20Z</time>
      </trkpt>
      <trkpt lat="43.92148" lon="7.55577">
        <ele>1404.3841622336</ele>
        <time>2021-11-02T10:58:22Z</time>
      </trkpt>
      <trkpt lat="43.92148" lon="7.55578">
        <ele>1404.3841622474</ele>
        <time>2021-11-02T10:58:23Z</time>
      </trkpt>
      <trkpt lat="43.92148" lon="7.55579">
        <ele>1403.3841682452</ele>
        <time>2021-11-02T10:58:24Z</time>
      </trkpt>
      <trkpt lat="43.92149" lon="7.55581">
        <ele>1403.3841702515</ele>
        <time>2021-11-02T10:58:25Z</time>
      </trkpt>
      <trkpt lat="43.92149" lon="7.55582">
        <ele>1404.3841712757</ele>
        <time>2021-11-02T10:58:26Z</time>
      </trkpt>
      <trkpt lat="43.92149" lon="7.55583">
        <ele>1404.3841796202</ele>
        <time>2021-11-02T10:58:27Z</time>
      </trkpt>
      <trkpt lat="43.92149" lon="7.55585">
        <ele>1404.3841899305</ele>
        <time>2021-11-02T10:58:28Z</time>
      </trkpt>
      <trkpt lat="43.92149" lon="7.55586">
        <ele>1404.3841978028</ele>
        <time>2021-11-02T10:58:29Z</time>
      </trkpt>
      <trkpt lat="43.9215" lon="7.55587">
        <ele>1404.3841938182</ele>
        <time>2021-11-02T10:58:30Z</time>
      </trkpt>
      <trkpt lat="43.9215" lon="7.55588">
        <ele>1403.3841836067</ele>
        <time>2021-11-02T10:58:31Z</time>
      </trkpt>
      <trkpt lat="43.92151" lon="7.55589">
        <ele>1403.3841764887</ele>
        <time>2021-11-02T10:58:32Z</time>
      </trkpt>
      <trkpt lat="43.92151" lon="7.5559">
        <ele>1403.3841852563</ele>
        <time>2021-11-02T10:58:33Z</time>
      </trkpt>
      <trkpt lat="43.92151" lon="7.55591">
        <ele>1403.3841787844</ele>
        <time>2021-11-02T10:58:34Z</time>
      </trkpt>
      <trkpt lat="43.92151" lon="7.55593">
        <ele>1403.384192528</ele>
        <time>2021-11-02T10:58:35Z</time>
      </trkpt>
      <trkpt lat="43.92152" lon="7.55594">
        <ele>1403.3841826151</ele>
        <time>2021-11-02T10:58:36Z</time>
      </trkpt>
      <trkpt lat="43.92152" lon="7.55595">
        <ele>1403.3841631956</ele>
        <time>2021-11-02T10:58:37Z</time>
      </trkpt>
      <trkpt lat="43.92153" lon="7.55595">
        <ele>1403.3841294889</ele>
        <time>2021-11-02T10:58:38Z</time>
      </trkpt>
      <trkpt lat="43.92154" lon="7.55596">
        <ele>1403.3840981165</ele>
        <time>2021-11-02T10:58:39Z</time>
      </trkpt>
      <trkpt lat="43.92154" lon="7.55596">
        <ele>1403.3840745869</ele>
        <time>2021-11-02T10:58:40Z</time>
      </trkpt>
      <trkpt lat="43.92155" lon="7.55597">
        <ele>1403.3840535339</ele>
        <time>2021-11-02T10:58:41Z</time>
      </trkpt>
      <trkpt lat="43.92155" lon="7.55598">
        <ele>1404.3840543067</ele>
        <time>2021-11-02T10:58:42Z</time>
      </trkpt>
      <trkpt lat="43.92155" lon="7.55599">
        <ele>1404.3840589611</ele>
        <time>2021-11-02T10:58:43Z</time>
      </trkpt>
      <trkpt lat="43.92156" lon="7.556">
        <ele>1404.3840473894</ele>
        <time>2021-11-02T10:58:44Z</time>
      </trkpt>
      <trkpt lat="43.92158" lon="7.55602">
        <ele>1404.3839864912</ele>
        <time>2021-11-02T10:58:46Z</time>
      </trkpt>
      <trkpt lat="43.92159" lon="7.55603">
        <ele>1405.3839557418</ele>
        <time>2021-11-02T10:58:48Z</time>
      </trkpt>
      <trkpt lat="43.9216" lon="7.55604">
        <ele>1405.3839208479</ele>
        <time>2021-11-02T10:58:49Z</time>
      </trkpt>
      <trkpt lat="43.9216" lon="7.55605">
        <ele>1405.3838837501</ele>
        <time>2021-11-02T10:58:50Z</time>
      </trkpt>
      <trkpt lat="43.92161" lon="7.55606">
        <ele>1406.3838499399</ele>
        <time>2021-11-02T10:58:51Z</time>
      </trkpt>
      <trkpt lat="43.92163" lon="7.55607">
        <ele>1406.3837914384</ele>
        <time>2021-11-02T10:58:53Z</time>
      </trkpt>
      <trkpt lat="43.92164" lon="7.55608">
        <ele>1406.3837588073</ele>
        <time>2021-11-02T10:58:54Z</time>
      </trkpt>
      <trkpt lat="43.92165" lon="7.55609">
        <ele>1406.3837081791</ele>
        <time>2021-11-02T10:58:55Z</time>
      </trkpt>
      <trkpt lat="43.92167" lon="7.5561">
        <ele>1406.3836306933</ele>
        <time>2021-11-02T10:58:57Z</time>
      </trkpt>
      <trkpt lat="43.92168" lon="7.55611">
        <ele>1407.3835914865</ele>
        <time>2021-11-02T10:58:58Z</time>
      </trkpt>
      <trkpt lat="43.92169" lon="7.55612">
        <ele>1408.3835664126</ele>
        <time>2021-11-02T10:58:59Z</time>
      </trkpt>
      <trkpt lat="43.9217" lon="7.55615">
        <ele>1408.3835486409</ele>
        <time>2021-11-02T10:59:01Z</time>
      </trkpt>
      <trkpt lat="43.92171" lon="7.55617">
        <ele>1408.3835320463</ele>
        <time>2021-11-02T10:59:03Z</time>
      </trkpt>
      <trkpt lat="43.92171" lon="7.55619">
        <ele>1409.3835189705</ele>
        <time>2021-11-02T10:59:04Z</time>
      </trkpt>
      <trkpt lat="43.92172" lon="7.5562">
        <ele>1409.383506953</ele>
        <time>2021-11-02T10:59:05Z</time>
      </trkpt>
      <trkpt lat="43.92173" lon="7.55623">
        <ele>1409.3835124652</ele>
        <time>2021-11-02T10:59:07Z</time>
      </trkpt>
      <trkpt lat="43.92174" lon="7.55624">
        <ele>1409.3834904624</ele>
        <time>2021-11-02T10:59:08Z</time>
      </trkpt>
      <trkpt lat="43.92174" lon="7.55626">
        <ele>1410.3834713138</ele>
        <time>2021-11-02T10:59:09Z</time>
      </trkpt>
      <trkpt lat="43.92175" lon="7.55627">
        <ele>1410.383466917</ele>
        <time>2021-11-02T10:59:10Z</time>
      </trkpt>
      <trkpt lat="43.92175" lon="7.55629">
        <ele>1411.3835012076</ele>
        <time>2021-11-02T10:59:12Z</time>
      </trkpt>
      <trkpt lat="43.92175" lon="7.5563">
        <ele>1411.3834988541</ele>
        <time>2021-11-02T10:59:13Z</time>
      </trkpt>
      <trkpt lat="43.92175" lon="7.55631">
        <ele>1411.3834884563</ele>
        <time>2021-11-02T10:59:14Z</time>
      </trkpt>
      <trkpt lat="43.92176" lon="7.55632">
        <ele>1410.3834928594</ele>
        <time>2021-11-02T10:59:15Z</time>
      </trkpt>
      <trkpt lat="43.92176" lon="7.55634">
        <ele>1410.3835051209</ele>
        <time>2021-11-02T10:59:16Z</time>
      </trkpt>
      <trkpt lat="43.92175" lon="7.55636">
        <ele>1411.3835412532</ele>
        <time>2021-11-02T10:59:18Z</time>
      </trkpt>
      <trkpt lat="43.92176" lon="7.55637">
        <ele>1411.3835360128</ele>
        <time>2021-11-02T10:59:19Z</time>
      </trkpt>
      <trkpt lat="43.92176" lon="7.55638">
        <ele>1412.3835526838</ele>
        <time>2021-11-02T10:59:20Z</time>
      </trkpt>
      <trkpt lat="43.92176" lon="7.5564">
        <ele>1412.3835677002</ele>
        <time>2021-11-02T10:59:22Z</time>
      </trkpt>
      <trkpt lat="43.92176" lon="7.5564">
        <ele>1412.3835586456</ele>
        <time>2021-11-02T10:59:24Z</time>
      </trkpt>
      <trkpt lat="43.92175" lon="7.55639">
        <ele>1412.3835943724</ele>
        <time>2021-11-02T10:59:26Z</time>
      </trkpt>
      <trkpt lat="43.92176" lon="7.55637">
        <ele>1414.3835347473</ele>
        <time>2021-11-02T10:59:28Z</time>
      </trkpt>
      <trkpt lat="43.92176" lon="7.55637">
        <ele>1415.3835030296</ele>
        <time>2021-11-02T10:59:31Z</time>
      </trkpt>
      <trkpt lat="43.92176" lon="7.55635">
        <ele>1415.3834945031</ele>
        <time>2021-11-02T10:59:33Z</time>
      </trkpt>
      <trkpt lat="43.92177" lon="7.55635">
        <ele>1415.383474431</ele>
        <time>2021-11-02T10:59:35Z</time>
      </trkpt>
      <trkpt lat="43.92176" lon="7.55634">
        <ele>1416.3835042433</ele>
        <time>2021-11-02T10:59:36Z</time>
      </trkpt>
      <trkpt lat="43.92175" lon="7.55633">
        <ele>1416.3835011872</ele>
        <time>2021-11-02T10:59:37Z</time>
      </trkpt>
      <trkpt lat="43.92175" lon="7.55633">
        <ele>1415.383518917</ele>
        <time>2021-11-02T10:59:38Z</time>
      </trkpt>
      <trkpt lat="43.92175" lon="7.55632">
        <ele>1415.383525221</ele>
        <time>2021-11-02T10:59:39Z</time>
      </trkpt>
      <trkpt lat="43.92175" lon="7.5563">
        <ele>1416.3834997446</ele>
        <time>2021-11-02T10:59:40Z</time>
      </trkpt>
      <trkpt lat="43.92174" lon="7.55627">
        <ele>1416.3834876396</ele>
        <time>2021-11-02T10:59:42Z</time>
      </trkpt>
      <trkpt lat="43.92174" lon="7.55627">
        <ele>1415.3835050517</ele>
        <time>2021-11-02T10:59:43Z</time>
      </trkpt>
      <trkpt lat="43.92173" lon="7.55625">
        <ele>1415.3835208556</ele>
        <time>2021-11-02T10:59:44Z</time>
      </trkpt>
      <trkpt lat="43.92173" lon="7.55625">
        <ele>1415.3835348144</ele>
        <time>2021-11-02T10:59:45Z</time>
      </trkpt>
      <trkpt lat="43.92172" lon="7.55623">
        <ele>1415.3835383708</ele>
        <time>2021-11-02T10:59:46Z</time>
      </trkpt>
      <trkpt lat="43.92172" lon="7.55622">
        <ele>1416.3835348301</ele>
        <time>2021-11-02T10:59:47Z</time>
      </trkpt>
      <trkpt lat="43.92171" lon="7.55621">
        <ele>1415.3835441913</ele>
        <time>2021-11-02T10:59:48Z</time>
      </trkpt>
      <trkpt lat="43.92171" lon="7.55619">
        <ele>1415.3835637155</ele>
        <time>2021-11-02T10:59:49Z</time>
      </trkpt>
      <trkpt lat="43.92169" lon="7.55618">
        <ele>1415.383605353</ele>
        <time>2021-11-02T10:59:50Z</time>
      </trkpt>
      <trkpt lat="43.92169" lon="7.55616">
        <ele>1415.3836199846</ele>
        <time>2021-11-02T10:59:51Z</time>
      </trkpt>
      <trkpt lat="43.92168" lon="7.55615">
        <ele>1415.3836341841</ele>
        <time>2021-11-02T10:59:52Z</time>
      </trkpt>
      <trkpt lat="43.92168" lon="7.55614">
        <ele>1415.3836380839</ele>
        <time>2021-11-02T10:59:53Z</time>
      </trkpt>
      <trkpt lat="43.92167" lon="7.55613">
        <ele>1415.3836485664</ele>
        <time>2021-11-02T10:59:55Z</time>
      </trkpt>
      <trkpt lat="43.92167" lon="7.55611">
        <ele>1415.3836315268</ele>
        <time>2021-11-02T10:59:56Z</time>
      </trkpt>
      <trkpt lat="43.92166" lon="7.5561">
        <ele>1415.3836671656</ele>
        <time>2021-11-02T10:59:57Z</time>
      </trkpt>
      <trkpt lat="43.92165" lon="7.55609">
        <ele>1414.3837160009</ele>
        <time>2021-11-02T10:59:58Z</time>
      </trkpt>
      <trkpt lat="43.92164" lon="7.55608">
        <ele>1414.3837652007</ele>
        <time>2021-11-02T10:59:59Z</time>
      </trkpt>
      <trkpt lat="43.92163" lon="7.55607">
        <ele>1414.3837826836</ele>
        <time>2021-11-02T11:00:00Z</time>
      </trkpt>
      <trkpt lat="43.92162" lon="7.55606">
        <ele>1413.3838135296</ele>
        <time>2021-11-02T11:00:01Z</time>
      </trkpt>
      <trkpt lat="43.92161" lon="7.55604">
        <ele>1414.3838419192</ele>
        <time>2021-11-02T11:00:03Z</time>
      </trkpt>
      <trkpt lat="43.9216" lon="7.55603">
        <ele>1413.3838709312</ele>
        <time>2021-11-02T11:00:04Z</time>
      </trkpt>
      <trkpt lat="43.92159" lon="7.55602">
        <ele>1413.383927232</ele>
        <time>2021-11-02T11:00:05Z</time>
      </trkpt>
      <trkpt lat="43.92158" lon="7.55601">
        <ele>1413.3839548232</ele>
        <time>2021-11-02T11:00:06Z</time>
      </trkpt>
      <trkpt lat="43.92157" lon="7.55599">
        <ele>1413.383987052</ele>
        <time>2021-11-02T11:00:08Z</time>
      </trkpt>
      <trkpt lat="43.92155" lon="7.55598">
        <ele>1413.3840675847</ele>
        <time>2021-11-02T11:00:09Z</time>
      </trkpt>
      <trkpt lat="43.92154" lon="7.55598">
        <ele>1413.3841053526</ele>
        <time>2021-11-02T11:00:10Z</time>
      </trkpt>
      <trkpt lat="43.92153" lon="7.55596">
        <ele>1413.3841692628</ele>
        <time>2021-11-02T11:00:12Z</time>
      </trkpt>
      <trkpt lat="43.92152" lon="7.55596">
        <ele>1413.3841987248</ele>
        <time>2021-11-02T11:00:13Z</time>
      </trkpt>
      <trkpt lat="43.92151" lon="7.55595">
        <ele>1413.3842214668</ele>
        <time>2021-11-02T11:00:14Z</time>
      </trkpt>
      <trkpt lat="43.9215" lon="7.55594">
        <ele>1412.3842424934</ele>
        <time>2021-11-02T11:00:16Z</time>
      </trkpt>
      <trkpt lat="43.92149" lon="7.5559">
        <ele>1411.3842479479</ele>
        <time>2021-11-02T11:00:18Z</time>
      </trkpt>
      <trkpt lat="43.92148" lon="7.55589">
        <ele>1410.3842977694</ele>
        <time>2021-11-02T11:00:19Z</time>
      </trkpt>
      <trkpt lat="43.92147" lon="7.55587">
        <ele>1410.3843265259</ele>
        <time>2021-11-02T11:00:20Z</time>
      </trkpt>
      <trkpt lat="43.92145" lon="7.55584">
        <ele>1410.3843623779</ele>
        <time>2021-11-02T11:00:22Z</time>
      </trkpt>
      <trkpt lat="43.92144" lon="7.55581">
        <ele>1410.3843752043</ele>
        <time>2021-11-02T11:00:23Z</time>
      </trkpt>
      <trkpt lat="43.92144" lon="7.5558">
        <ele>1410.3843966673</ele>
        <time>2021-11-02T11:00:24Z</time>
      </trkpt>
      <trkpt lat="43.92143" lon="7.55579">
        <ele>1410.3844124576</ele>
        <time>2021-11-02T11:00:25Z</time>
      </trkpt>
      <trkpt lat="43.92142" lon="7.55575">
        <ele>1411.3844150017</ele>
        <time>2021-11-02T11:00:27Z</time>
      </trkpt>
      <trkpt lat="43.92141" lon="7.55574">
        <ele>1411.3844271025</ele>
        <time>2021-11-02T11:00:28Z</time>
      </trkpt>
      <trkpt lat="43.92141" lon="7.55572">
        <ele>1411.3844405695</ele>
        <time>2021-11-02T11:00:29Z</time>
      </trkpt>
      <trkpt lat="43.9214" lon="7.55568">
        <ele>1411.3844475332</ele>
        <time>2021-11-02T11:00:31Z</time>
      </trkpt>
      <trkpt lat="43.92139" lon="7.55566">
        <ele>1411.384457286</ele>
        <time>2021-11-02T11:00:33Z</time>
      </trkpt>
      <trkpt lat="43.92138" lon="7.55564">
        <ele>1411.3844753139</ele>
        <time>2021-11-02T11:00:34Z</time>
      </trkpt>
      <trkpt lat="43.92137" lon="7.55562">
        <ele>1411.3844873094</ele>
        <time>2021-11-02T11:00:35Z</time>
      </trkpt>
      <trkpt lat="43.92136" lon="7.5556">
        <ele>1412.3845064943</ele>
        <time>2021-11-02T11:00:37Z</time>
      </trkpt>
      <trkpt lat="43.92135" lon="7.55558">
        <ele>1412.3845216399</ele>
        <time>2021-11-02T11:00:38Z</time>
      </trkpt>
      <trkpt lat="43.92135" lon="7.55556">
        <ele>1412.3845355738</ele>
        <time>2021-11-02T11:00:39Z</time>
      </trkpt>
      <trkpt lat="43.92134" lon="7.55553">
        <ele>1412.3845503773</ele>
        <time>2021-11-02T11:00:41Z</time>
      </trkpt>
      <trkpt lat="43.92132" lon="7.5555">
        <ele>1412.3846030076</ele>
        <time>2021-11-02T11:00:43Z</time>
      </trkpt>
      <trkpt lat="43.92131" lon="7.55549">
        <ele>1412.384612456</ele>
        <time>2021-11-02T11:00:44Z</time>
      </trkpt>
      <trkpt lat="43.92131" lon="7.55548">
        <ele>1412.3846317595</ele>
        <time>2021-11-02T11:00:45Z</time>
      </trkpt>
      <trkpt lat="43.9213" lon="7.55546">
        <ele>1412.3846379315</ele>
        <time>2021-11-02T11:00:46Z</time>
      </trkpt>
      <trkpt lat="43.92129" lon="7.55545">
        <ele>1412.3846496182</ele>
        <time>2021-11-02T11:00:47Z</time>
      </trkpt>
      <trkpt lat="43.92129" lon="7.55543">
        <ele>1412.3846627902</ele>
        <time>2021-11-02T11:00:48Z</time>
      </trkpt>
      <trkpt lat="43.92128" lon="7.55541">
        <ele>1412.3846845009</ele>
        <time>2021-11-02T11:00:49Z</time>
      </trkpt>
      <trkpt lat="43.92127" lon="7.5554">
        <ele>1412.3846901038</ele>
        <time>2021-11-02T11:00:50Z</time>
      </trkpt>
      <trkpt lat="43.92127" lon="7.55538">
        <ele>1412.3846964211</ele>
        <time>2021-11-02T11:00:51Z</time>
      </trkpt>
      <trkpt lat="43.92126" lon="7.55537">
        <ele>1411.3846986023</ele>
        <time>2021-11-02T11:00:52Z</time>
      </trkpt>
      <trkpt lat="43.92126" lon="7.55536">
        <ele>1411.3846897637</ele>
        <time>2021-11-02T11:00:53Z</time>
      </trkpt>
      <trkpt lat="43.92126" lon="7.55534">
        <ele>1411.3846836558</ele>
        <time>2021-11-02T11:00:54Z</time>
      </trkpt>
      <trkpt lat="43.92126" lon="7.55533">
        <ele>1411.3846710725</ele>
        <time>2021-11-02T11:00:55Z</time>
      </trkpt>
      <trkpt lat="43.92126" lon="7.55531">
        <ele>1411.3846430025</ele>
        <time>2021-11-02T11:00:57Z</time>
      </trkpt>
      <trkpt lat="43.92127" lon="7.5553">
        <ele>1413.3845992218</ele>
        <time>2021-11-02T11:01:07Z</time>
      </trkpt>
      <trkpt lat="43.92127" lon="7.5553">
        <ele>1412.3845905699</ele>
        <time>2021-11-02T11:01:08Z</time>
      </trkpt>
      <trkpt lat="43.92127" lon="7.55529">
        <ele>1412.3845848638</ele>
        <time>2021-11-02T11:01:09Z</time>
      </trkpt>
      <trkpt lat="43.92127" lon="7.55528">
        <ele>1411.3845534764</ele>
        <time>2021-11-02T11:01:11Z</time>
      </trkpt>
      <trkpt lat="43.92127" lon="7.55529">
        <ele>1411.3845910267</ele>
        <time>2021-11-02T11:01:13Z</time>
      </trkpt>
      <trkpt lat="43.92126" lon="7.55529">
        <ele>1408.3846148075</ele>
        <time>2021-11-02T11:01:18Z</time>
      </trkpt>
      <trkpt lat="43.92126" lon="7.55527">
        <ele>1407.3846182631</ele>
        <time>2021-11-02T11:01:19Z</time>
      </trkpt>
      <trkpt lat="43.92126" lon="7.55526">
        <ele>1409.3846047587</ele>
        <time>2021-11-02T11:01:27Z</time>
      </trkpt>
      <trkpt lat="43.92125" lon="7.55526">
        <ele>1408.3846362772</ele>
        <time>2021-11-02T11:01:28Z</time>
      </trkpt>
      <trkpt lat="43.92124" lon="7.55525">
        <ele>1408.384668422</ele>
        <time>2021-11-02T11:01:29Z</time>
      </trkpt>
      <trkpt lat="43.92123" lon="7.55524">
        <ele>1407.3847021627</ele>
        <time>2021-11-02T11:01:30Z</time>
      </trkpt>
      <trkpt lat="43.92122" lon="7.55521">
        <ele>1408.3847098833</ele>
        <time>2021-11-02T11:01:32Z</time>
      </trkpt>
      <trkpt lat="43.92121" lon="7.5552">
        <ele>1408.3847281529</ele>
        <time>2021-11-02T11:01:33Z</time>
      </trkpt>
      <trkpt lat="43.9212" lon="7.55518">
        <ele>1408.3847586048</ele>
        <time>2021-11-02T11:01:34Z</time>
      </trkpt>
      <trkpt lat="43.92119" lon="7.55516">
        <ele>1407.3847823376</ele>
        <time>2021-11-02T11:01:37Z</time>
      </trkpt>
      <trkpt lat="43.92119" lon="7.55514">
        <ele>1407.3847847508</ele>
        <time>2021-11-02T11:01:38Z</time>
      </trkpt>
      <trkpt lat="43.92119" lon="7.55513">
        <ele>1407.3847747961</ele>
        <time>2021-11-02T11:01:39Z</time>
      </trkpt>
      <trkpt lat="43.92118" lon="7.55512">
        <ele>1407.3847963112</ele>
        <time>2021-11-02T11:01:40Z</time>
      </trkpt>
      <trkpt lat="43.92117" lon="7.5551">
        <ele>1406.3848066456</ele>
        <time>2021-11-02T11:01:42Z</time>
      </trkpt>
      <trkpt lat="43.92116" lon="7.55508">
        <ele>1407.3848570579</ele>
        <time>2021-11-02T11:01:43Z</time>
      </trkpt>
      <trkpt lat="43.92114" lon="7.55507">
        <ele>1407.3849056391</ele>
        <time>2021-11-02T11:01:44Z</time>
      </trkpt>
      <trkpt lat="43.92113" lon="7.55506">
        <ele>1406.3849404682</ele>
        <time>2021-11-02T11:01:45Z</time>
      </trkpt>
      <trkpt lat="43.92112" lon="7.55505">
        <ele>1406.3849810933</ele>
        <time>2021-11-02T11:01:46Z</time>
      </trkpt>
      <trkpt lat="43.92112" lon="7.55503">
        <ele>1407.3849949971</ele>
        <time>2021-11-02T11:01:47Z</time>
      </trkpt>
      <trkpt lat="43.92111" lon="7.55501">
        <ele>1407.3850042287</ele>
        <time>2021-11-02T11:01:48Z</time>
      </trkpt>
      <trkpt lat="43.9211" lon="7.555">
        <ele>1407.3850109815</ele>
        <time>2021-11-02T11:01:49Z</time>
      </trkpt>
      <trkpt lat="43.9211" lon="7.55498">
        <ele>1406.3850220056</ele>
        <time>2021-11-02T11:01:50Z</time>
      </trkpt>
      <trkpt lat="43.92109" lon="7.55497">
        <ele>1406.3850393462</ele>
        <time>2021-11-02T11:01:51Z</time>
      </trkpt>
      <trkpt lat="43.92109" lon="7.55496">
        <ele>1405.3850347749</ele>
        <time>2021-11-02T11:01:52Z</time>
      </trkpt>
      <trkpt lat="43.92108" lon="7.55494">
        <ele>1405.3850303402</ele>
        <time>2021-11-02T11:01:53Z</time>
      </trkpt>
      <trkpt lat="43.92108" lon="7.55492">
        <ele>1405.3850279577</ele>
        <time>2021-11-02T11:01:54Z</time>
      </trkpt>
      <trkpt lat="43.92107" lon="7.55491">
        <ele>1405.3850409151</ele>
        <time>2021-11-02T11:01:55Z</time>
      </trkpt>
      <trkpt lat="43.92107" lon="7.55489">
        <ele>1405.3850598605</ele>
        <time>2021-11-02T11:01:56Z</time>
      </trkpt>
      <trkpt lat="43.92106" lon="7.55488">
        <ele>1404.3850824964</ele>
        <time>2021-11-02T11:01:57Z</time>
      </trkpt>
      <trkpt lat="43.92105" lon="7.55488">
        <ele>1404.3851018374</ele>
        <time>2021-11-02T11:01:58Z</time>
      </trkpt>
      <trkpt lat="43.92105" lon="7.55486">
        <ele>1404.3851165613</ele>
        <time>2021-11-02T11:01:59Z</time>
      </trkpt>
      <trkpt lat="43.92104" lon="7.55485">
        <ele>1404.3851364542</ele>
        <time>2021-11-02T11:02:00Z</time>
      </trkpt>
      <trkpt lat="43.92103" lon="7.55482">
        <ele>1404.3851426635</ele>
        <time>2021-11-02T11:02:02Z</time>
      </trkpt>
      <trkpt lat="43.92102" lon="7.5548">
        <ele>1404.3851520411</ele>
        <time>2021-11-02T11:02:03Z</time>
      </trkpt>
      <trkpt lat="43.92102" lon="7.55479">
        <ele>1405.3851432173</ele>
        <time>2021-11-02T11:02:04Z</time>
      </trkpt>
      <trkpt lat="43.92102" lon="7.55477">
        <ele>1405.3851527019</ele>
        <time>2021-11-02T11:02:05Z</time>
      </trkpt>
      <trkpt lat="43.92101" lon="7.55476">
        <ele>1405.3851755422</ele>
        <time>2021-11-02T11:02:06Z</time>
      </trkpt>
      <trkpt lat="43.921" lon="7.55475">
        <ele>1405.3852130846</ele>
        <time>2021-11-02T11:02:07Z</time>
      </trkpt>
      <trkpt lat="43.92099" lon="7.55474">
        <ele>1405.3852361077</ele>
        <time>2021-11-02T11:02:08Z</time>
      </trkpt>
      <trkpt lat="43.92098" lon="7.55472">
        <ele>1405.3852579925</ele>
        <time>2021-11-02T11:02:09Z</time>
      </trkpt>
      <trkpt lat="43.92097" lon="7.55471">
        <ele>1404.3853069661</ele>
        <time>2021-11-02T11:02:10Z</time>
      </trkpt>
      <trkpt lat="43.92096" lon="7.5547">
        <ele>1404.3853361541</ele>
        <time>2021-11-02T11:02:11Z</time>
      </trkpt>
      <trkpt lat="43.92095" lon="7.55469">
        <ele>1404.3853723448</ele>
        <time>2021-11-02T11:02:12Z</time>
      </trkpt>
      <trkpt lat="43.92094" lon="7.55468">
        <ele>1404.3853937621</ele>
        <time>2021-11-02T11:02:13Z</time>
      </trkpt>
      <trkpt lat="43.92093" lon="7.55466">
        <ele>1404.3854148351</ele>
        <time>2021-11-02T11:02:14Z</time>
      </trkpt>
      <trkpt lat="43.92092" lon="7.55465">
        <ele>1404.3854420268</ele>
        <time>2021-11-02T11:02:15Z</time>
      </trkpt>
      <trkpt lat="43.92091" lon="7.55463">
        <ele>1404.3854851698</ele>
        <time>2021-11-02T11:02:16Z</time>
      </trkpt>
      <trkpt lat="43.92091" lon="7.55462">
        <ele>1404.3855066525</ele>
        <time>2021-11-02T11:02:17Z</time>
      </trkpt>
      <trkpt lat="43.9209" lon="7.55461">
        <ele>1404.3855296752</ele>
        <time>2021-11-02T11:02:18Z</time>
      </trkpt>
      <trkpt lat="43.92089" lon="7.5546">
        <ele>1404.3855676836</ele>
        <time>2021-11-02T11:02:19Z</time>
      </trkpt>
      <trkpt lat="43.92087" lon="7.55458">
        <ele>1404.385603175</ele>
        <time>2021-11-02T11:02:20Z</time>
      </trkpt>
      <trkpt lat="43.92087" lon="7.55457">
        <ele>1404.3856291306</ele>
        <time>2021-11-02T11:02:21Z</time>
      </trkpt>
      <trkpt lat="43.92086" lon="7.55457">
        <ele>1403.3856467636</ele>
        <time>2021-11-02T11:02:22Z</time>
      </trkpt>
      <trkpt lat="43.92086" lon="7.55456">
        <ele>1403.3856611794</ele>
        <time>2021-11-02T11:02:23Z</time>
      </trkpt>
      <trkpt lat="43.92085" lon="7.55455">
        <ele>1403.3856877669</ele>
        <time>2021-11-02T11:02:24Z</time>
      </trkpt>
      <trkpt lat="43.92083" lon="7.55454">
        <ele>1403.3857694858</ele>
        <time>2021-11-02T11:02:26Z</time>
      </trkpt>
      <trkpt lat="43.92082" lon="7.55453">
        <ele>1403.3858021266</ele>
        <time>2021-11-02T11:02:27Z</time>
      </trkpt>
      <trkpt lat="43.92081" lon="7.55452">
        <ele>1403.3858213859</ele>
        <time>2021-11-02T11:02:28Z</time>
      </trkpt>
      <trkpt lat="43.92081" lon="7.55451">
        <ele>1403.3858391399</ele>
        <time>2021-11-02T11:02:29Z</time>
      </trkpt>
      <trkpt lat="43.9208" lon="7.55449">
        <ele>1403.3858542261</ele>
        <time>2021-11-02T11:02:31Z</time>
      </trkpt>
      <trkpt lat="43.92078" lon="7.55447">
        <ele>1402.3859280482</ele>
        <time>2021-11-02T11:02:32Z</time>
      </trkpt>
      <trkpt lat="43.92077" lon="7.55445">
        <ele>1403.3859362933</ele>
        <time>2021-11-02T11:02:33Z</time>
      </trkpt>
      <trkpt lat="43.92076" lon="7.55444">
        <ele>1402.3859660558</ele>
        <time>2021-11-02T11:02:35Z</time>
      </trkpt>
      <trkpt lat="43.92075" lon="7.55442">
        <ele>1402.3860152342</ele>
        <time>2021-11-02T11:02:36Z</time>
      </trkpt>
      <trkpt lat="43.92074" lon="7.5544">
        <ele>1402.3860302109</ele>
        <time>2021-11-02T11:02:37Z</time>
      </trkpt>
      <trkpt lat="43.92073" lon="7.55439">
        <ele>1401.3860664167</ele>
        <time>2021-11-02T11:02:38Z</time>
      </trkpt>
      <trkpt lat="43.92072" lon="7.55438">
        <ele>1401.3861038437</ele>
        <time>2021-11-02T11:02:39Z</time>
      </trkpt>
      <trkpt lat="43.92071" lon="7.55437">
        <ele>1401.3861471378</ele>
        <time>2021-11-02T11:02:41Z</time>
      </trkpt>
      <trkpt lat="43.92069" lon="7.55434">
        <ele>1401.386181199</ele>
        <time>2021-11-02T11:02:42Z</time>
      </trkpt>
      <trkpt lat="43.92069" lon="7.55433">
        <ele>1401.3862006666</ele>
        <time>2021-11-02T11:02:43Z</time>
      </trkpt>
      <trkpt lat="43.92068" lon="7.55431">
        <ele>1400.3862194837</ele>
        <time>2021-11-02T11:02:44Z</time>
      </trkpt>
      <trkpt lat="43.92067" lon="7.5543">
        <ele>1400.3862467607</ele>
        <time>2021-11-02T11:02:45Z</time>
      </trkpt>
      <trkpt lat="43.92066" lon="7.55428">
        <ele>1400.3862480152</ele>
        <time>2021-11-02T11:02:46Z</time>
      </trkpt>
      <trkpt lat="43.92066" lon="7.55427">
        <ele>1400.3862681245</ele>
        <time>2021-11-02T11:02:47Z</time>
      </trkpt>
      <trkpt lat="43.92065" lon="7.55426">
        <ele>1400.3862952101</ele>
        <time>2021-11-02T11:02:48Z</time>
      </trkpt>
      <trkpt lat="43.92064" lon="7.55425">
        <ele>1400.3863242363</ele>
        <time>2021-11-02T11:02:49Z</time>
      </trkpt>
      <trkpt lat="43.92063" lon="7.55424">
        <ele>1401.3863648882</ele>
        <time>2021-11-02T11:02:50Z</time>
      </trkpt>
      <trkpt lat="43.92063" lon="7.55423">
        <ele>1401.3863575429</ele>
        <time>2021-11-02T11:02:51Z</time>
      </trkpt>
      <trkpt lat="43.92063" lon="7.55422">
        <ele>1401.3863359794</ele>
        <time>2021-11-02T11:02:52Z</time>
      </trkpt>
      <trkpt lat="43.92063" lon="7.55421">
        <ele>1402.3863076497</ele>
        <time>2021-11-02T11:02:53Z</time>
      </trkpt>
      <trkpt lat="43.92064" lon="7.5542">
        <ele>1402.3862812547</ele>
        <time>2021-11-02T11:02:54Z</time>
      </trkpt>
      <trkpt lat="43.92064" lon="7.55419">
        <ele>1402.3862533268</ele>
        <time>2021-11-02T11:02:55Z</time>
      </trkpt>
      <trkpt lat="43.92065" lon="7.55419">
        <ele>1403.3862154671</ele>
        <time>2021-11-02T11:02:57Z</time>
      </trkpt>
      <trkpt lat="43.92065" lon="7.55418">
        <ele>1403.3861684212</ele>
        <time>2021-11-02T11:02:58Z</time>
      </trkpt>
      <trkpt lat="43.92065" lon="7.55418">
        <ele>1404.3861946975</ele>
        <time>2021-11-02T11:03:40Z</time>
      </trkpt>
      <trkpt lat="43.92064" lon="7.55417">
        <ele>1404.3862075643</ele>
        <time>2021-11-02T11:03:41Z</time>
      </trkpt>
      <trkpt lat="43.92064" lon="7.55416">
        <ele>1404.3862045923</ele>
        <time>2021-11-02T11:03:43Z</time>
      </trkpt>
      <trkpt lat="43.92063" lon="7.55416">
        <ele>1404.3862484677</ele>
        <time>2021-11-02T11:03:44Z</time>
      </trkpt>
      <trkpt lat="43.92062" lon="7.55415">
        <ele>1403.3862852714</ele>
        <time>2021-11-02T11:03:45Z</time>
      </trkpt>
      <trkpt lat="43.92062" lon="7.55415">
        <ele>1403.386309178</ele>
        <time>2021-11-02T11:03:46Z</time>
      </trkpt>
      <trkpt lat="43.92061" lon="7.55415">
        <ele>1402.3863550465</ele>
        <time>2021-11-02T11:03:47Z</time>
      </trkpt>
      <trkpt lat="43.9206" lon="7.55414">
        <ele>1401.3863994072</ele>
        <time>2021-11-02T11:03:48Z</time>
      </trkpt>
      <trkpt lat="43.92059" lon="7.55413">
        <ele>1401.3864336475</ele>
        <time>2021-11-02T11:03:49Z</time>
      </trkpt>
      <trkpt lat="43.92057" lon="7.55412">
        <ele>1400.3864809564</ele>
        <time>2021-11-02T11:03:50Z</time>
      </trkpt>
      <trkpt lat="43.92057" lon="7.55411">
        <ele>1400.3864814964</ele>
        <time>2021-11-02T11:03:51Z</time>
      </trkpt>
      <trkpt lat="43.92057" lon="7.5541">
        <ele>1401.386473492</ele>
        <time>2021-11-02T11:03:52Z</time>
      </trkpt>
      <trkpt lat="43.92057" lon="7.5541">
        <ele>1401.3864851453</ele>
        <time>2021-11-02T11:03:53Z</time>
      </trkpt>
      <trkpt lat="43.92056" lon="7.55409">
        <ele>1401.3865146324</ele>
        <time>2021-11-02T11:03:54Z</time>
      </trkpt>
      <trkpt lat="43.92055" lon="7.55408">
        <ele>1401.3865367611</ele>
        <time>2021-11-02T11:03:55Z</time>
      </trkpt>
      <trkpt lat="43.92053" lon="7.55406">
        <ele>1400.3866024207</ele>
        <time>2021-11-02T11:03:57Z</time>
      </trkpt>
      <trkpt lat="43.92053" lon="7.55405">
        <ele>1401.3866244728</ele>
        <time>2021-11-02T11:03:58Z</time>
      </trkpt>
      <trkpt lat="43.92052" lon="7.55404">
        <ele>1401.3866420002</ele>
        <time>2021-11-02T11:03:59Z</time>
      </trkpt>
      <trkpt lat="43.92051" lon="7.55403">
        <ele>1401.3866671943</ele>
        <time>2021-11-02T11:04:00Z</time>
      </trkpt>
      <trkpt lat="43.9205" lon="7.55403">
        <ele>1401.3867074613</ele>
        <time>2021-11-02T11:04:01Z</time>
      </trkpt>
      <trkpt lat="43.92049" lon="7.55402">
        <ele>1400.386777247</ele>
        <time>2021-11-02T11:04:03Z</time>
      </trkpt>
      <trkpt lat="43.92048" lon="7.55402">
        <ele>1400.3868247082</ele>
        <time>2021-11-02T11:04:04Z</time>
      </trkpt>
      <trkpt lat="43.92047" lon="7.55401">
        <ele>1399.3868607109</ele>
        <time>2021-11-02T11:04:05Z</time>
      </trkpt>
      <trkpt lat="43.92046" lon="7.554">
        <ele>1399.3868842512</ele>
        <time>2021-11-02T11:04:06Z</time>
      </trkpt>
      <trkpt lat="43.92045" lon="7.55399">
        <ele>1399.386912726</ele>
        <time>2021-11-02T11:04:07Z</time>
      </trkpt>
      <trkpt lat="43.92044" lon="7.55398">
        <ele>1399.3869407898</ele>
        <time>2021-11-02T11:04:08Z</time>
      </trkpt>
      <trkpt lat="43.92044" lon="7.55397">
        <ele>1399.3869456428</ele>
        <time>2021-11-02T11:04:09Z</time>
      </trkpt>
      <trkpt lat="43.92044" lon="7.55395">
        <ele>1399.3869364633</ele>
        <time>2021-11-02T11:04:10Z</time>
      </trkpt>
      <trkpt lat="43.92043" lon="7.55393">
        <ele>1399.3869650361</ele>
        <time>2021-11-02T11:04:12Z</time>
      </trkpt>
      <trkpt lat="43.92042" lon="7.55393">
        <ele>1399.387000422</ele>
        <time>2021-11-02T11:04:13Z</time>
      </trkpt>
      <trkpt lat="43.92041" lon="7.55392">
        <ele>1399.3870155921</ele>
        <time>2021-11-02T11:04:14Z</time>
      </trkpt>
      <trkpt lat="43.92041" lon="7.55391">
        <ele>1399.3870232687</ele>
        <time>2021-11-02T11:04:15Z</time>
      </trkpt>
      <trkpt lat="43.9204" lon="7.5539">
        <ele>1399.3870308956</ele>
        <time>2021-11-02T11:04:16Z</time>
      </trkpt>
      <trkpt lat="43.9204" lon="7.55389">
        <ele>1399.3870462163</ele>
        <time>2021-11-02T11:04:17Z</time>
      </trkpt>
      <trkpt lat="43.92039" lon="7.55389">
        <ele>1399.3870836513</ele>
        <time>2021-11-02T11:04:18Z</time>
      </trkpt>
      <trkpt lat="43.92038" lon="7.55388">
        <ele>1398.3870998226</ele>
        <time>2021-11-02T11:04:19Z</time>
      </trkpt>
      <trkpt lat="43.92038" lon="7.55387">
        <ele>1398.3871151588</ele>
        <time>2021-11-02T11:04:20Z</time>
      </trkpt>
      <trkpt lat="43.92037" lon="7.55386">
        <ele>1399.3871373242</ele>
        <time>2021-11-02T11:04:21Z</time>
      </trkpt>
      <trkpt lat="43.92037" lon="7.55385">
        <ele>1398.3871388209</ele>
        <time>2021-11-02T11:04:22Z</time>
      </trkpt>
      <trkpt lat="43.92037" lon="7.55384">
        <ele>1399.3871231698</ele>
        <time>2021-11-02T11:04:23Z</time>
      </trkpt>
      <trkpt lat="43.92037" lon="7.55383">
        <ele>1399.387111516</ele>
        <time>2021-11-02T11:04:24Z</time>
      </trkpt>
      <trkpt lat="43.92036" lon="7.55381">
        <ele>1400.3871092923</ele>
        <time>2021-11-02T11:04:25Z</time>
      </trkpt>
      <trkpt lat="43.92036" lon="7.5538">
        <ele>1400.3870978628</ele>
        <time>2021-11-02T11:04:26Z</time>
      </trkpt>
      <trkpt lat="43.92037" lon="7.55379">
        <ele>1401.3870806819</ele>
        <time>2021-11-02T11:04:27Z</time>
      </trkpt>
      <trkpt lat="43.92036" lon="7.55379">
        <ele>1402.3870749404</ele>
        <time>2021-11-02T11:04:28Z</time>
      </trkpt>
      <trkpt lat="43.92036" lon="7.55378">
        <ele>1402.3870812268</ele>
        <time>2021-11-02T11:04:29Z</time>
      </trkpt>
      <trkpt lat="43.92036" lon="7.55377">
        <ele>1402.3870753557</ele>
        <time>2021-11-02T11:04:31Z</time>
      </trkpt>
      <trkpt lat="43.92036" lon="7.55376">
        <ele>1402.3870867627</ele>
        <time>2021-11-02T11:04:32Z</time>
      </trkpt>
      <trkpt lat="43.92035" lon="7.55376">
        <ele>1403.3871116842</ele>
        <time>2021-11-02T11:04:33Z</time>
      </trkpt>
      <trkpt lat="43.92035" lon="7.55375">
        <ele>1403.3871191653</ele>
        <time>2021-11-02T11:04:34Z</time>
      </trkpt>
      <trkpt lat="43.92034" lon="7.55374">
        <ele>1404.3871288875</ele>
        <time>2021-11-02T11:04:35Z</time>
      </trkpt>
      <trkpt lat="43.92034" lon="7.55374">
        <ele>1404.3871403541</ele>
        <time>2021-11-02T11:04:36Z</time>
      </trkpt>
      <trkpt lat="43.92034" lon="7.55373">
        <ele>1404.3871511559</ele>
        <time>2021-11-02T11:04:37Z</time>
      </trkpt>
      <trkpt lat="43.92033" lon="7.55372">
        <ele>1404.3871734753</ele>
        <time>2021-11-02T11:04:38Z</time>
      </trkpt>
      <trkpt lat="43.92032" lon="7.55371">
        <ele>1404.3871830356</ele>
        <time>2021-11-02T11:04:40Z</time>
      </trkpt>
      <trkpt lat="43.92032" lon="7.5537">
        <ele>1405.3871812851</ele>
        <time>2021-11-02T11:04:41Z</time>
      </trkpt>
      <trkpt lat="43.92031" lon="7.55369">
        <ele>1405.3872082364</ele>
        <time>2021-11-02T11:04:42Z</time>
      </trkpt>
      <trkpt lat="43.92031" lon="7.55368">
        <ele>1405.3872252652</ele>
        <time>2021-11-02T11:04:43Z</time>
      </trkpt>
      <trkpt lat="43.9203" lon="7.55368">
        <ele>1405.3872604282</ele>
        <time>2021-11-02T11:04:44Z</time>
      </trkpt>
      <trkpt lat="43.92029" lon="7.55367">
        <ele>1405.3872817692</ele>
        <time>2021-11-02T11:04:45Z</time>
      </trkpt>
      <trkpt lat="43.92029" lon="7.55367">
        <ele>1405.3872944962</ele>
        <time>2021-11-02T11:04:46Z</time>
      </trkpt>
      <trkpt lat="43.92028" lon="7.55365">
        <ele>1405.3873139857</ele>
        <time>2021-11-02T11:04:47Z</time>
      </trkpt>
      <trkpt lat="43.92027" lon="7.55365">
        <ele>1405.387347311</ele>
        <time>2021-11-02T11:04:48Z</time>
      </trkpt>
      <trkpt lat="43.92027" lon="7.55364">
        <ele>1405.3873675432</ele>
        <time>2021-11-02T11:04:49Z</time>
      </trkpt>
      <trkpt lat="43.92026" lon="7.55364">
        <ele>1406.3874012519</ele>
        <time>2021-11-02T11:04:50Z</time>
      </trkpt>
      <trkpt lat="43.92025" lon="7.55363">
        <ele>1406.3874236911</ele>
        <time>2021-11-02T11:04:51Z</time>
      </trkpt>
      <trkpt lat="43.92025" lon="7.55363">
        <ele>1406.3874496254</ele>
        <time>2021-11-02T11:04:52Z</time>
      </trkpt>
      <trkpt lat="43.92024" lon="7.55362">
        <ele>1406.3874758865</ele>
        <time>2021-11-02T11:04:53Z</time>
      </trkpt>
      <trkpt lat="43.92023" lon="7.55361">
        <ele>1407.3874935982</ele>
        <time>2021-11-02T11:04:54Z</time>
      </trkpt>
      <trkpt lat="43.92023" lon="7.5536">
        <ele>1408.3875006803</ele>
        <time>2021-11-02T11:04:55Z</time>
      </trkpt>
      <trkpt lat="43.92022" lon="7.55359">
        <ele>1408.3875067061</ele>
        <time>2021-11-02T11:04:56Z</time>
      </trkpt>
      <trkpt lat="43.92022" lon="7.55359">
        <ele>1407.3875273455</ele>
        <time>2021-11-02T11:04:57Z</time>
      </trkpt>
      <trkpt lat="43.92021" lon="7.55358">
        <ele>1407.3875570748</ele>
        <time>2021-11-02T11:04:58Z</time>
      </trkpt>
      <trkpt lat="43.92021" lon="7.55358">
        <ele>1408.3875610622</ele>
        <time>2021-11-02T11:05:00Z</time>
      </trkpt>
      <trkpt lat="43.9202" lon="7.55357">
        <ele>1407.3875799714</ele>
        <time>2021-11-02T11:05:01Z</time>
      </trkpt>
      <trkpt lat="43.9202" lon="7.55356">
        <ele>1407.3875958512</ele>
        <time>2021-11-02T11:05:02Z</time>
      </trkpt>
      <trkpt lat="43.92019" lon="7.55355">
        <ele>1407.3876109658</ele>
        <time>2021-11-02T11:05:03Z</time>
      </trkpt>
      <trkpt lat="43.92019" lon="7.55354">
        <ele>1408.387631608</ele>
        <time>2021-11-02T11:05:04Z</time>
      </trkpt>
      <trkpt lat="43.92018" lon="7.55354">
        <ele>1408.3876640417</ele>
        <time>2021-11-02T11:05:05Z</time>
      </trkpt>
      <trkpt lat="43.92017" lon="7.55353">
        <ele>1408.3876806614</ele>
        <time>2021-11-02T11:05:06Z</time>
      </trkpt>
      <trkpt lat="43.92017" lon="7.55353">
        <ele>1407.3876938298</ele>
        <time>2021-11-02T11:05:07Z</time>
      </trkpt>
      <trkpt lat="43.92016" lon="7.55352">
        <ele>1407.3877181713</ele>
        <time>2021-11-02T11:05:08Z</time>
      </trkpt>
      <trkpt lat="43.92015" lon="7.55352">
        <ele>1406.3877553852</ele>
        <time>2021-11-02T11:05:09Z</time>
      </trkpt>
      <trkpt lat="43.92015" lon="7.55352">
        <ele>1407.3877784697</ele>
        <time>2021-11-02T11:05:10Z</time>
      </trkpt>
      <trkpt lat="43.92015" lon="7.55351">
        <ele>1407.387786923</ele>
        <time>2021-11-02T11:05:11Z</time>
      </trkpt>
      <trkpt lat="43.92014" lon="7.5535">
        <ele>1408.3878261278</ele>
        <time>2021-11-02T11:05:12Z</time>
      </trkpt>
      <trkpt lat="43.92012" lon="7.5535">
        <ele>1408.3878871489</ele>
        <time>2021-11-02T11:05:13Z</time>
      </trkpt>
      <trkpt lat="43.92011" lon="7.55349">
        <ele>1408.3879173418</ele>
        <time>2021-11-02T11:05:14Z</time>
      </trkpt>
      <trkpt lat="43.92011" lon="7.55348">
        <ele>1408.3879304385</ele>
        <time>2021-11-02T11:05:15Z</time>
      </trkpt>
      <trkpt lat="43.92011" lon="7.55348">
        <ele>1408.3879378562</ele>
        <time>2021-11-02T11:05:16Z</time>
      </trkpt>
      <trkpt lat="43.9201" lon="7.55346">
        <ele>1408.3879634145</ele>
        <time>2021-11-02T11:05:17Z</time>
      </trkpt>
      <trkpt lat="43.92009" lon="7.55346">
        <ele>1408.3879780403</ele>
        <time>2021-11-02T11:05:18Z</time>
      </trkpt>
      <trkpt lat="43.92009" lon="7.55345">
        <ele>1408.3880037388</ele>
        <time>2021-11-02T11:05:19Z</time>
      </trkpt>
      <trkpt lat="43.92008" lon="7.55345">
        <ele>1408.3880104801</ele>
        <time>2021-11-02T11:05:20Z</time>
      </trkpt>
      <trkpt lat="43.92008" lon="7.55344">
        <ele>1408.3880395393</ele>
        <time>2021-11-02T11:05:21Z</time>
      </trkpt>
      <trkpt lat="43.92007" lon="7.55344">
        <ele>1408.3880798449</ele>
        <time>2021-11-02T11:05:22Z</time>
      </trkpt>
      <trkpt lat="43.92006" lon="7.55343">
        <ele>1408.3881052065</ele>
        <time>2021-11-02T11:05:23Z</time>
      </trkpt>
      <trkpt lat="43.92006" lon="7.55343">
        <ele>1408.3881249795</ele>
        <time>2021-11-02T11:05:24Z</time>
      </trkpt>
      <trkpt lat="43.92005" lon="7.55342">
        <ele>1408.3881541663</ele>
        <time>2021-11-02T11:05:25Z</time>
      </trkpt>
      <trkpt lat="43.92004" lon="7.5534">
        <ele>1408.3881847705</ele>
        <time>2021-11-02T11:05:27Z</time>
      </trkpt>
      <trkpt lat="43.92003" lon="7.5534">
        <ele>1409.3882299733</ele>
        <time>2021-11-02T11:05:28Z</time>
      </trkpt>
      <trkpt lat="43.92002" lon="7.55339">
        <ele>1409.3882671783</ele>
        <time>2021-11-02T11:05:29Z</time>
      </trkpt>
      <trkpt lat="43.92" lon="7.55338">
        <ele>1410.3883193735</ele>
        <time>2021-11-02T11:05:31Z</time>
      </trkpt>
      <trkpt lat="43.91999" lon="7.55335">
        <ele>1410.3883565199</ele>
        <time>2021-11-02T11:05:33Z</time>
      </trkpt>
      <trkpt lat="43.91998" lon="7.55335">
        <ele>1410.388376232</ele>
        <time>2021-11-02T11:05:34Z</time>
      </trkpt>
      <trkpt lat="43.91998" lon="7.55334">
        <ele>1411.3883917124</ele>
        <time>2021-11-02T11:05:35Z</time>
      </trkpt>
      <trkpt lat="43.91997" lon="7.55333">
        <ele>1410.3884081342</ele>
        <time>2021-11-02T11:05:36Z</time>
      </trkpt>
      <trkpt lat="43.91996" lon="7.55332">
        <ele>1410.3884368424</ele>
        <time>2021-11-02T11:05:37Z</time>
      </trkpt>
      <trkpt lat="43.91995" lon="7.55331">
        <ele>1410.388460209</ele>
        <time>2021-11-02T11:05:38Z</time>
      </trkpt>
      <trkpt lat="43.91995" lon="7.5533">
        <ele>1410.3884852625</ele>
        <time>2021-11-02T11:05:40Z</time>
      </trkpt>
      <trkpt lat="43.91993" lon="7.55328">
        <ele>1410.3885218684</ele>
        <time>2021-11-02T11:05:41Z</time>
      </trkpt>
      <trkpt lat="43.91992" lon="7.55326">
        <ele>1410.3885725083</ele>
        <time>2021-11-02T11:05:43Z</time>
      </trkpt>
      <trkpt lat="43.91991" lon="7.55325">
        <ele>1410.388607066</ele>
        <time>2021-11-02T11:05:44Z</time>
      </trkpt>
      <trkpt lat="43.9199" lon="7.55325">
        <ele>1410.3886409595</ele>
        <time>2021-11-02T11:05:46Z</time>
      </trkpt>
      <trkpt lat="43.91989" lon="7.55323">
        <ele>1411.3886867977</ele>
        <time>2021-11-02T11:05:47Z</time>
      </trkpt>
      <trkpt lat="43.91988" lon="7.55322">
        <ele>1411.3887179425</ele>
        <time>2021-11-02T11:05:48Z</time>
      </trkpt>
      <trkpt lat="43.91988" lon="7.55321">
        <ele>1411.3887197105</ele>
        <time>2021-11-02T11:05:49Z</time>
      </trkpt>
      <trkpt lat="43.91987" lon="7.55321">
        <ele>1411.3887200074</ele>
        <time>2021-11-02T11:05:50Z</time>
      </trkpt>
      <trkpt lat="43.91987" lon="7.5532">
        <ele>1411.3887117508</ele>
        <time>2021-11-02T11:05:51Z</time>
      </trkpt>
      <trkpt lat="43.91987" lon="7.55319">
        <ele>1411.3886981152</ele>
        <time>2021-11-02T11:05:52Z</time>
      </trkpt>
      <trkpt lat="43.91987" lon="7.55318">
        <ele>1411.3887162288</ele>
        <time>2021-11-02T11:05:53Z</time>
      </trkpt>
      <trkpt lat="43.91986" lon="7.55318">
        <ele>1411.3887343975</ele>
        <time>2021-11-02T11:05:55Z</time>
      </trkpt>
      <trkpt lat="43.91986" lon="7.55316">
        <ele>1411.3887460594</ele>
        <time>2021-11-02T11:05:56Z</time>
      </trkpt>
      <trkpt lat="43.91985" lon="7.55316">
        <ele>1411.3887692246</ele>
        <time>2021-11-02T11:05:57Z</time>
      </trkpt>
      <trkpt lat="43.91985" lon="7.55315">
        <ele>1412.3887828555</ele>
        <time>2021-11-02T11:05:58Z</time>
      </trkpt>
      <trkpt lat="43.91984" lon="7.55314">
        <ele>1412.3887937528</ele>
        <time>2021-11-02T11:05:59Z</time>
      </trkpt>
      <trkpt lat="43.91983" lon="7.55314">
        <ele>1412.3888188582</ele>
        <time>2021-11-02T11:06:00Z</time>
      </trkpt>
      <trkpt lat="43.91983" lon="7.55313">
        <ele>1413.3888339318</ele>
        <time>2021-11-02T11:06:01Z</time>
      </trkpt>
      <trkpt lat="43.91982" lon="7.55311">
        <ele>1413.3888622881</ele>
        <time>2021-11-02T11:06:03Z</time>
      </trkpt>
      <trkpt lat="43.91981" lon="7.5531">
        <ele>1413.3888703313</ele>
        <time>2021-11-02T11:06:04Z</time>
      </trkpt>
      <trkpt lat="43.91981" lon="7.55309">
        <ele>1412.3888678036</ele>
        <time>2021-11-02T11:06:05Z</time>
      </trkpt>
      <trkpt lat="43.91981" lon="7.55308">
        <ele>1412.3888725559</ele>
        <time>2021-11-02T11:06:06Z</time>
      </trkpt>
      <trkpt lat="43.91981" lon="7.55307">
        <ele>1413.3888758335</ele>
        <time>2021-11-02T11:06:07Z</time>
      </trkpt>
      <trkpt lat="43.9198" lon="7.55307">
        <ele>1413.3888934929</ele>
        <time>2021-11-02T11:06:08Z</time>
      </trkpt>
      <trkpt lat="43.9198" lon="7.55306">
        <ele>1413.3888934122</ele>
        <time>2021-11-02T11:06:09Z</time>
      </trkpt>
      <trkpt lat="43.91979" lon="7.55305">
        <ele>1414.3889215063</ele>
        <time>2021-11-02T11:06:11Z</time>
      </trkpt>
      <trkpt lat="43.91979" lon="7.55304">
        <ele>1414.388905</ele>
        <time>2021-11-02T11:06:12Z</time>
      </trkpt>
      <trkpt lat="43.91979" lon="7.55302">
        <ele>1414.3889002313</ele>
        <time>2021-11-02T11:06:13Z</time>
      </trkpt>
      <trkpt lat="43.91978" lon="7.55301">
        <ele>1414.3889238123</ele>
        <time>2021-11-02T11:06:14Z</time>
      </trkpt>
      <trkpt lat="43.91977" lon="7.553">
        <ele>1413.3889346013</ele>
        <time>2021-11-02T11:06:16Z</time>
      </trkpt>
      <trkpt lat="43.91976" lon="7.55298">
        <ele>1414.388965449</ele>
        <time>2021-11-02T11:06:17Z</time>
      </trkpt>
      <trkpt lat="43.91976" lon="7.55296">
        <ele>1414.3889814534</ele>
        <time>2021-11-02T11:06:18Z</time>
      </trkpt>
      <trkpt lat="43.91975" lon="7.55295">
        <ele>1414.3889847993</ele>
        <time>2021-11-02T11:06:19Z</time>
      </trkpt>
      <trkpt lat="43.91974" lon="7.55293">
        <ele>1415.3890142543</ele>
        <time>2021-11-02T11:06:21Z</time>
      </trkpt>
      <trkpt lat="43.91973" lon="7.5529">
        <ele>1415.3890443323</ele>
        <time>2021-11-02T11:06:23Z</time>
      </trkpt>
      <trkpt lat="43.91973" lon="7.5529">
        <ele>1415.3890380351</ele>
        <time>2021-11-02T11:06:24Z</time>
      </trkpt>
      <trkpt lat="43.91973" lon="7.55289">
        <ele>1415.3890236912</ele>
        <time>2021-11-02T11:06:25Z</time>
      </trkpt>
      <trkpt lat="43.91973" lon="7.55288">
        <ele>1415.3890061303</ele>
        <time>2021-11-02T11:06:27Z</time>
      </trkpt>
      <trkpt lat="43.91972" lon="7.55287">
        <ele>1414.3890304123</ele>
        <time>2021-11-02T11:06:28Z</time>
      </trkpt>
      <trkpt lat="43.91971" lon="7.55287">
        <ele>1415.3890688175</ele>
        <time>2021-11-02T11:06:29Z</time>
      </trkpt>
      <trkpt lat="43.9197" lon="7.55286">
        <ele>1415.3891177648</ele>
        <time>2021-11-02T11:06:30Z</time>
      </trkpt>
      <trkpt lat="43.91969" lon="7.55285">
        <ele>1415.3891480974</ele>
        <time>2021-11-02T11:06:31Z</time>
      </trkpt>
      <trkpt lat="43.91968" lon="7.55284">
        <ele>1416.3891683352</ele>
        <time>2021-11-02T11:06:33Z</time>
      </trkpt>
      <trkpt lat="43.91968" lon="7.55284">
        <ele>1416.3891746234</ele>
        <time>2021-11-02T11:06:34Z</time>
      </trkpt>
      <trkpt lat="43.91967" lon="7.55284">
        <ele>1416.3892215583</ele>
        <time>2021-11-02T11:06:35Z</time>
      </trkpt>
      <trkpt lat="43.91966" lon="7.55283">
        <ele>1416.3892614388</ele>
        <time>2021-11-02T11:06:36Z</time>
      </trkpt>
      <trkpt lat="43.91965" lon="7.55282">
        <ele>1416.389296414</ele>
        <time>2021-11-02T11:06:37Z</time>
      </trkpt>
      <trkpt lat="43.91964" lon="7.55281">
        <ele>1416.3893295844</ele>
        <time>2021-11-02T11:06:38Z</time>
      </trkpt>
      <trkpt lat="43.91963" lon="7.5528">
        <ele>1416.3893588151</ele>
        <time>2021-11-02T11:06:39Z</time>
      </trkpt>
      <trkpt lat="43.91963" lon="7.55279">
        <ele>1416.3893583845</ele>
        <time>2021-11-02T11:06:40Z</time>
      </trkpt>
      <trkpt lat="43.91963" lon="7.55279">
        <ele>1416.3893763897</ele>
        <time>2021-11-02T11:06:41Z</time>
      </trkpt>
      <trkpt lat="43.91962" lon="7.55279">
        <ele>1416.3894339889</ele>
        <time>2021-11-02T11:06:42Z</time>
      </trkpt>
      <trkpt lat="43.91961" lon="7.55278">
        <ele>1416.3894462137</ele>
        <time>2021-11-02T11:06:43Z</time>
      </trkpt>
      <trkpt lat="43.91961" lon="7.55277">
        <ele>1417.3894465164</ele>
        <time>2021-11-02T11:06:44Z</time>
      </trkpt>
      <trkpt lat="43.9196" lon="7.55276">
        <ele>1416.3894536832</ele>
        <time>2021-11-02T11:06:47Z</time>
      </trkpt>
      <trkpt lat="43.91959" lon="7.55274">
        <ele>1417.3894887843</ele>
        <time>2021-11-02T11:06:48Z</time>
      </trkpt>
      <trkpt lat="43.91959" lon="7.55273">
        <ele>1417.3894879226</ele>
        <time>2021-11-02T11:06:49Z</time>
      </trkpt>
      <trkpt lat="43.91959" lon="7.55271">
        <ele>1417.3894769733</ele>
        <time>2021-11-02T11:06:50Z</time>
      </trkpt>
      <trkpt lat="43.91958" lon="7.55271">
        <ele>1417.3894817427</ele>
        <time>2021-11-02T11:06:51Z</time>
      </trkpt>
      <trkpt lat="43.91959" lon="7.5527">
        <ele>1418.3894652493</ele>
        <time>2021-11-02T11:06:52Z</time>
      </trkpt>
      <trkpt lat="43.91958" lon="7.55269">
        <ele>1419.3894620758</ele>
        <time>2021-11-02T11:06:55Z</time>
      </trkpt>
      <trkpt lat="43.91958" lon="7.55268">
        <ele>1419.3894735797</ele>
        <time>2021-11-02T11:06:58Z</time>
      </trkpt>
      <trkpt lat="43.91958" lon="7.55267">
        <ele>1419.3894546985</ele>
        <time>2021-11-02T11:06:59Z</time>
      </trkpt>
      <trkpt lat="43.91959" lon="7.55267">
        <ele>1421.3894127252</ele>
        <time>2021-11-02T11:07:02Z</time>
      </trkpt>
      <trkpt lat="43.91959" lon="7.55267">
        <ele>1421.3893812861</ele>
        <time>2021-11-02T11:07:05Z</time>
      </trkpt>
      <trkpt lat="43.91961" lon="7.55267">
        <ele>1420.3893126747</ele>
        <time>2021-11-02T11:07:06Z</time>
      </trkpt>
      <trkpt lat="43.91961" lon="7.55268">
        <ele>1421.3893417669</ele>
        <time>2021-11-02T11:07:43Z</time>
      </trkpt>
      <trkpt lat="43.91962" lon="7.55268">
        <ele>1420.3892859465</ele>
        <time>2021-11-02T11:07:44Z</time>
      </trkpt>
      <trkpt lat="43.91962" lon="7.55268">
        <ele>1420.3892691571</ele>
        <time>2021-11-02T11:07:45Z</time>
      </trkpt>
      <trkpt lat="43.91963" lon="7.55269">
        <ele>1420.3892462075</ele>
        <time>2021-11-02T11:07:49Z</time>
      </trkpt>
      <trkpt lat="43.91964" lon="7.55269">
        <ele>1421.3892035956</ele>
        <time>2021-11-02T11:07:50Z</time>
      </trkpt>
      <trkpt lat="43.91964" lon="7.55269">
        <ele>1421.3891862966</ele>
        <time>2021-11-02T11:07:51Z</time>
      </trkpt>
      <trkpt lat="43.91965" lon="7.5527">
        <ele>1421.3891675889</ele>
        <time>2021-11-02T11:08:20Z</time>
      </trkpt>
      <trkpt lat="43.91968" lon="7.5527">
        <ele>1421.3890262382</ele>
        <time>2021-11-02T11:08:22Z</time>
      </trkpt>
      <trkpt lat="43.91968" lon="7.55269">
        <ele>1421.3890009518</ele>
        <time>2021-11-02T11:08:23Z</time>
      </trkpt>
      <trkpt lat="43.91968" lon="7.55268">
        <ele>1422.3889641131</ele>
        <time>2021-11-02T11:08:24Z</time>
      </trkpt>
      <trkpt lat="43.91968" lon="7.55266">
        <ele>1422.3889420854</ele>
        <time>2021-11-02T11:08:26Z</time>
      </trkpt>
      <trkpt lat="43.91968" lon="7.55265">
        <ele>1422.3889458574</ele>
        <time>2021-11-02T11:08:27Z</time>
      </trkpt>
      <trkpt lat="43.91968" lon="7.55264">
        <ele>1423.3889354067</ele>
        <time>2021-11-02T11:08:28Z</time>
      </trkpt>
      <trkpt lat="43.91968" lon="7.55263">
        <ele>1423.3889377423</ele>
        <time>2021-11-02T11:08:29Z</time>
      </trkpt>
      <trkpt lat="43.91967" lon="7.55262">
        <ele>1423.3889410318</ele>
        <time>2021-11-02T11:08:30Z</time>
      </trkpt>
      <trkpt lat="43.91967" lon="7.55261">
        <ele>1424.3889466768</ele>
        <time>2021-11-02T11:08:32Z</time>
      </trkpt>
      <trkpt lat="43.91967" lon="7.55259">
        <ele>1425.3889036494</ele>
        <time>2021-11-02T11:08:33Z</time>
      </trkpt>
      <trkpt lat="43.91967" lon="7.55258">
        <ele>1425.3888927437</ele>
        <time>2021-11-02T11:08:34Z</time>
      </trkpt>
      <trkpt lat="43.91967" lon="7.55257">
        <ele>1427.3888858131</ele>
        <time>2021-11-02T11:08:38Z</time>
      </trkpt>
      <trkpt lat="43.91967" lon="7.55256">
        <ele>1427.3888975334</ele>
        <time>2021-11-02T11:08:39Z</time>
      </trkpt>
      <trkpt lat="43.91966" lon="7.55255">
        <ele>1427.3889218533</ele>
        <time>2021-11-02T11:08:40Z</time>
      </trkpt>
      <trkpt lat="43.91965" lon="7.55254">
        <ele>1427.3889307511</ele>
        <time>2021-11-02T11:08:41Z</time>
      </trkpt>
      <trkpt lat="43.91965" lon="7.55253">
        <ele>1428.3889492013</ele>
        <time>2021-11-02T11:08:42Z</time>
      </trkpt>
      <trkpt lat="43.91964" lon="7.55252">
        <ele>1429.3889576141</ele>
        <time>2021-11-02T11:08:43Z</time>
      </trkpt>
      <trkpt lat="43.91964" lon="7.5525">
        <ele>1429.3889569219</ele>
        <time>2021-11-02T11:08:44Z</time>
      </trkpt>
      <trkpt lat="43.91964" lon="7.5525">
        <ele>1429.3889530853</ele>
        <time>2021-11-02T11:08:45Z</time>
      </trkpt>
      <trkpt lat="43.91963" lon="7.55249">
        <ele>1429.3889681626</ele>
        <time>2021-11-02T11:08:47Z</time>
      </trkpt>
      <trkpt lat="43.91964" lon="7.55248">
        <ele>1429.3889233782</ele>
        <time>2021-11-02T11:08:48Z</time>
      </trkpt>
      <trkpt lat="43.91964" lon="7.55247">
        <ele>1429.3889240223</ele>
        <time>2021-11-02T11:08:52Z</time>
      </trkpt>
      <trkpt lat="43.91964" lon="7.55246">
        <ele>1429.3889086376</ele>
        <time>2021-11-02T11:08:53Z</time>
      </trkpt>
      <trkpt lat="43.91964" lon="7.55245">
        <ele>1429.3888772998</ele>
        <time>2021-11-02T11:08:54Z</time>
      </trkpt>
      <trkpt lat="43.91965" lon="7.55245">
        <ele>1430.3888530375</ele>
        <time>2021-11-02T11:08:56Z</time>
      </trkpt>
      <trkpt lat="43.91965" lon="7.55244">
        <ele>1430.3888102504</ele>
        <time>2021-11-02T11:08:58Z</time>
      </trkpt>
      <trkpt lat="43.91965" lon="7.55243">
        <ele>1429.3887976356</ele>
        <time>2021-11-02T11:08:59Z</time>
      </trkpt>
      <trkpt lat="43.91965" lon="7.55242">
        <ele>1429.3887821771</ele>
        <time>2021-11-02T11:09:00Z</time>
      </trkpt>
      <trkpt lat="43.91965" lon="7.5524">
        <ele>1429.388751793</ele>
        <time>2021-11-02T11:09:02Z</time>
      </trkpt>
      <trkpt lat="43.91966" lon="7.55239">
        <ele>1428.3887205183</ele>
        <time>2021-11-02T11:09:04Z</time>
      </trkpt>
      <trkpt lat="43.91966" lon="7.55238">
        <ele>1427.388684225</ele>
        <time>2021-11-02T11:09:07Z</time>
      </trkpt>
      <trkpt lat="43.91966" lon="7.55238">
        <ele>1427.3887165209</ele>
        <time>2021-11-02T11:09:14Z</time>
      </trkpt>
      <trkpt lat="43.91965" lon="7.55236">
        <ele>1427.3887302546</ele>
        <time>2021-11-02T11:09:15Z</time>
      </trkpt>
      <trkpt lat="43.91965" lon="7.55235">
        <ele>1428.3887074088</ele>
        <time>2021-11-02T11:09:16Z</time>
      </trkpt>
      <trkpt lat="43.91965" lon="7.55234">
        <ele>1429.3887090565</ele>
        <time>2021-11-02T11:09:20Z</time>
      </trkpt>
      <trkpt lat="43.91965" lon="7.55236">
        <ele>1427.3887139794</ele>
        <time>2021-11-02T11:09:21Z</time>
      </trkpt>
      <trkpt lat="43.91964" lon="7.55237">
        <ele>1426.3887572328</ele>
        <time>2021-11-02T11:09:22Z</time>
      </trkpt>
      <trkpt lat="43.91963" lon="7.55237">
        <ele>1426.3888080657</ele>
        <time>2021-11-02T11:09:23Z</time>
      </trkpt>
      <trkpt lat="43.91963" lon="7.55236">
        <ele>1426.3888253541</ele>
        <time>2021-11-02T11:09:24Z</time>
      </trkpt>
      <trkpt lat="43.91962" lon="7.55236">
        <ele>1429.3888563666</ele>
        <time>2021-11-02T11:09:31Z</time>
      </trkpt>
      <trkpt lat="43.91962" lon="7.55236">
        <ele>1430.3888826733</ele>
        <time>2021-11-02T11:09:33Z</time>
      </trkpt>
      <trkpt lat="43.91961" lon="7.55237">
        <ele>1428.3889111369</ele>
        <time>2021-11-02T11:09:59Z</time>
      </trkpt>
      <trkpt lat="43.91962" lon="7.55236">
        <ele>1430.388859085</ele>
        <time>2021-11-02T11:10:00Z</time>
      </trkpt>
      <trkpt lat="43.91963" lon="7.55237">
        <ele>1428.3888266369</ele>
        <time>2021-11-02T11:20:19Z</time>
      </trkpt>
      <trkpt lat="43.91963" lon="7.55236">
        <ele>1427.3888216919</ele>
        <time>2021-11-02T11:24:20Z</time>
      </trkpt>
      <trkpt lat="43.91963" lon="7.55236">
        <ele>1426.3888101096</ele>
        <time>2021-11-02T11:24:22Z</time>
      </trkpt>
      <trkpt lat="43.91963" lon="7.55237">
        <ele>1426.3888136553</ele>
        <time>2021-11-02T11:24:24Z</time>
      </trkpt>
      <trkpt lat="43.91964" lon="7.55237">
        <ele>1425.3887925708</ele>
        <time>2021-11-02T11:24:30Z</time>
      </trkpt>
      <trkpt lat="43.91964" lon="7.55238">
        <ele>1425.3887649608</ele>
        <time>2021-11-02T11:24:31Z</time>
      </trkpt>
      <trkpt lat="43.91965" lon="7.55239">
        <ele>1425.3887740855</ele>
        <time>2021-11-02T11:24:32Z</time>
      </trkpt>
      <trkpt lat="43.91965" lon="7.5524">
        <ele>1424.3887703699</ele>
        <time>2021-11-02T11:24:34Z</time>
      </trkpt>
      <trkpt lat="43.91966" lon="7.5524">
        <ele>1424.3887357473</ele>
        <time>2021-11-02T11:24:35Z</time>
      </trkpt>
      <trkpt lat="43.91966" lon="7.55241">
        <ele>1423.3887151989</ele>
        <time>2021-11-02T11:24:36Z</time>
      </trkpt>
      <trkpt lat="43.91967" lon="7.55242">
        <ele>1423.3887249594</ele>
        <time>2021-11-02T11:24:37Z</time>
      </trkpt>
      <trkpt lat="43.91966" lon="7.55244">
        <ele>1423.3887447896</ele>
        <time>2021-11-02T11:24:38Z</time>
      </trkpt>
      <trkpt lat="43.91966" lon="7.55245">
        <ele>1422.3887555444</ele>
        <time>2021-11-02T11:24:39Z</time>
      </trkpt>
      <trkpt lat="43.91966" lon="7.55245">
        <ele>1421.3887910612</ele>
        <time>2021-11-02T11:24:42Z</time>
      </trkpt>
      <trkpt lat="43.91965" lon="7.55245">
        <ele>1422.3888139153</ele>
        <time>2021-11-02T11:24:43Z</time>
      </trkpt>
      <trkpt lat="43.91965" lon="7.55246">
        <ele>1422.3888405983</ele>
        <time>2021-11-02T11:24:44Z</time>
      </trkpt>
      <trkpt lat="43.91965" lon="7.55246">
        <ele>1422.3888578324</ele>
        <time>2021-11-02T11:24:47Z</time>
      </trkpt>
      <trkpt lat="43.91965" lon="7.55249">
        <ele>1421.3889010313</ele>
        <time>2021-11-02T11:24:48Z</time>
      </trkpt>
      <trkpt lat="43.91964" lon="7.5525">
        <ele>1421.3889347797</ele>
        <time>2021-11-02T11:24:49Z</time>
      </trkpt>
      <trkpt lat="43.91964" lon="7.5525">
        <ele>1421.3889590328</ele>
        <time>2021-11-02T11:24:50Z</time>
      </trkpt>
      <trkpt lat="43.91963" lon="7.5525">
        <ele>1421.3889876145</ele>
        <time>2021-11-02T11:24:51Z</time>
      </trkpt>
      <trkpt lat="43.91962" lon="7.5525">
        <ele>1421.3890164545</ele>
        <time>2021-11-02T11:24:53Z</time>
      </trkpt>
      <trkpt lat="43.91962" lon="7.55249">
        <ele>1421.3890243105</ele>
        <time>2021-11-02T11:24:54Z</time>
      </trkpt>
      <trkpt lat="43.91962" lon="7.55247">
        <ele>1421.3890243142</ele>
        <time>2021-11-02T11:24:55Z</time>
      </trkpt>
      <trkpt lat="43.91961" lon="7.55246">
        <ele>1421.3890289771</ele>
        <time>2021-11-02T11:24:56Z</time>
      </trkpt>
      <trkpt lat="43.91961" lon="7.55245">
        <ele>1422.389045509</ele>
        <time>2021-11-02T11:24:57Z</time>
      </trkpt>
      <trkpt lat="43.91959" lon="7.55244">
        <ele>1422.3890834502</ele>
        <time>2021-11-02T11:24:58Z</time>
      </trkpt>
      <trkpt lat="43.91959" lon="7.55242">
        <ele>1422.3890965847</ele>
        <time>2021-11-02T11:24:59Z</time>
      </trkpt>
      <trkpt lat="43.91958" lon="7.55242">
        <ele>1423.3891344127</ele>
        <time>2021-11-02T11:25:00Z</time>
      </trkpt>
      <trkpt lat="43.91958" lon="7.5524">
        <ele>1423.3891263887</ele>
        <time>2021-11-02T11:25:01Z</time>
      </trkpt>
      <trkpt lat="43.91958" lon="7.55239">
        <ele>1423.3891074447</ele>
        <time>2021-11-02T11:25:02Z</time>
      </trkpt>
      <trkpt lat="43.91958" lon="7.55238">
        <ele>1424.3890783845</ele>
        <time>2021-11-02T11:25:03Z</time>
      </trkpt>
      <trkpt lat="43.91958" lon="7.55238">
        <ele>1426.3890846269</ele>
        <time>2021-11-02T11:25:07Z</time>
      </trkpt>
      <trkpt lat="43.91957" lon="7.55237">
        <ele>1426.3890993363</ele>
        <time>2021-11-02T11:25:09Z</time>
      </trkpt>
      <trkpt lat="43.91957" lon="7.55236">
        <ele>1426.3891018594</ele>
        <time>2021-11-02T11:25:10Z</time>
      </trkpt>
      <trkpt lat="43.91957" lon="7.55235">
        <ele>1426.3891086247</ele>
        <time>2021-11-02T11:25:12Z</time>
      </trkpt>
      <trkpt lat="43.91956" lon="7.55235">
        <ele>1425.3891325354</ele>
        <time>2021-11-02T11:25:16Z</time>
      </trkpt>
      <trkpt lat="43.91956" lon="7.55236">
        <ele>1425.3891504376</ele>
        <time>2021-11-02T11:25:17Z</time>
      </trkpt>
      <trkpt lat="43.91956" lon="7.55238">
        <ele>1424.389154997</ele>
        <time>2021-11-02T11:25:19Z</time>
      </trkpt>
      <trkpt lat="43.91956" lon="7.55238">
        <ele>1425.3891579186</ele>
        <time>2021-11-02T11:26:18Z</time>
      </trkpt>
      <trkpt lat="43.91957" lon="7.55237">
        <ele>1425.3891076158</ele>
        <time>2021-11-02T11:26:19Z</time>
      </trkpt>
      <trkpt lat="43.91958" lon="7.55237">
        <ele>1425.389081533</ele>
        <time>2021-11-02T11:30:48Z</time>
      </trkpt>
      <trkpt lat="43.91958" lon="7.55235">
        <ele>1426.389060109</ele>
        <time>2021-11-02T11:30:50Z</time>
      </trkpt>
      <trkpt lat="43.91958" lon="7.55235">
        <ele>1426.3890422499</ele>
        <time>2021-11-02T11:31:36Z</time>
      </trkpt>
      <trkpt lat="43.9196" lon="7.55235">
        <ele>1427.3889593765</ele>
        <time>2021-11-02T11:31:38Z</time>
      </trkpt>
      <trkpt lat="43.9196" lon="7.55234">
        <ele>1427.3889284318</ele>
        <time>2021-11-02T11:33:33Z</time>
      </trkpt>
      <trkpt lat="43.9196" lon="7.55234">
        <ele>1428.3889071022</ele>
        <time>2021-11-02T11:35:13Z</time>
      </trkpt>
      <trkpt lat="43.91961" lon="7.55233">
        <ele>1428.3888744211</ele>
        <time>2021-11-02T11:35:57Z</time>
      </trkpt>
      <trkpt lat="43.91961" lon="7.55233">
        <ele>1428.3888451863</ele>
        <time>2021-11-02T11:50:21Z</time>
      </trkpt>
      <trkpt lat="43.91962" lon="7.55232">
        <ele>1429.3888092264</ele>
        <time>2021-11-02T11:50:23Z</time>
      </trkpt>
      <trkpt lat="43.91963" lon="7.55232">
        <ele>1429.3887787495</ele>
        <time>2021-11-02T11:50:25Z</time>
      </trkpt>
      <trkpt lat="43.91961" lon="7.55231">
        <ele>1429.3888352618</ele>
        <time>2021-11-02T11:50:27Z</time>
      </trkpt>
      <trkpt lat="43.91961" lon="7.55231">
        <ele>1429.3888352618</ele>
        <time>2021-11-02T11:50:37Z</time>
      </trkpt>
      <trkpt lat="43.91962" lon="7.5523">
        <ele>1429.3887906811</ele>
        <time>2021-11-02T11:50:39Z</time>
      </trkpt>
      <trkpt lat="43.91962" lon="7.5523">
        <ele>1430.3887978496</ele>
        <time>2021-11-02T11:56:38Z</time>
      </trkpt>
      <trkpt lat="43.91962" lon="7.55229">
        <ele>1431.3887549336</ele>
        <time>2021-11-02T11:56:52Z</time>
      </trkpt>
      <trkpt lat="43.91962" lon="7.55228">
        <ele>1432.3887667181</ele>
        <time>2021-11-02T11:57:29Z</time>
      </trkpt>
      <trkpt lat="43.91961" lon="7.55228">
        <ele>1433.3888057486</ele>
        <time>2021-11-02T11:57:32Z</time>
      </trkpt>
      <trkpt lat="43.9196" lon="7.55227">
        <ele>1435.3888202644</ele>
        <time>2021-11-02T11:58:07Z</time>
      </trkpt>
      <trkpt lat="43.91961" lon="7.55225">
        <ele>1437.3887852462</ele>
        <time>2021-11-02T11:58:09Z</time>
      </trkpt>
      <trkpt lat="43.91961" lon="7.55224">
        <ele>1438.3887485098</ele>
        <time>2021-11-02T11:58:25Z</time>
      </trkpt>
      <trkpt lat="43.9196" lon="7.55224">
        <ele>1438.3887983228</ele>
        <time>2021-11-02T11:58:26Z</time>
      </trkpt>
      <trkpt lat="43.9196" lon="7.55224">
        <ele>1438.3887983228</ele>
        <time>2021-11-02T11:59:32Z</time>
      </trkpt>
      <trkpt lat="43.91961" lon="7.55224">
        <ele>1440.3887571816</ele>
        <time>2021-11-02T11:59:34Z</time>
      </trkpt>
      <trkpt lat="43.91961" lon="7.55224">
        <ele>1442.3887453312</ele>
        <time>2021-11-02T12:00:14Z</time>
      </trkpt>
      <trkpt lat="43.91961" lon="7.55223">
        <ele>1442.388714616</ele>
        <time>2021-11-02T12:00:48Z</time>
      </trkpt>
      <trkpt lat="43.91961" lon="7.55222">
        <ele>1441.3887140799</ele>
        <time>2021-11-02T12:00:56Z</time>
      </trkpt>
      <trkpt lat="43.91961" lon="7.55223">
        <ele>1441.3887516303</ele>
        <time>2021-11-02T12:00:57Z</time>
      </trkpt>
      <trkpt lat="43.91961" lon="7.55223">
        <ele>1441.388714715</ele>
        <time>2021-11-02T12:01:14Z</time>
      </trkpt>
      <trkpt lat="43.91961" lon="7.55222">
        <ele>1440.3887338159</ele>
        <time>2021-11-02T12:01:39Z</time>
      </trkpt>
      <trkpt lat="43.91962" lon="7.55222">
        <ele>1441.3886680822</ele>
        <time>2021-11-02T12:01:41Z</time>
      </trkpt>
      <trkpt lat="43.91961" lon="7.55222">
        <ele>1441.3887178955</ele>
        <time>2021-11-02T12:01:42Z</time>
      </trkpt>
      <trkpt lat="43.91961" lon="7.55222">
        <ele>1441.388717585</ele>
        <time>2021-11-02T12:02:07Z</time>
      </trkpt>
      <trkpt lat="43.91962" lon="7.55221">
        <ele>1441.3886714577</ele>
        <time>2021-11-02T12:02:09Z</time>
      </trkpt>
      <trkpt lat="43.91962" lon="7.55221">
        <ele>1442.3886401208</ele>
        <time>2021-11-02T12:02:23Z</time>
      </trkpt>
      <trkpt lat="43.91963" lon="7.55219">
        <ele>1441.388597717</ele>
        <time>2021-11-02T12:02:25Z</time>
      </trkpt>
      <trkpt lat="43.91962" lon="7.55221">
        <ele>1441.3886513653</ele>
        <time>2021-11-02T12:02:26Z</time>
      </trkpt>
      <trkpt lat="43.91963" lon="7.55221">
        <ele>1442.3886237066</ele>
        <time>2021-11-02T12:03:27Z</time>
      </trkpt>
      <trkpt lat="43.91963" lon="7.55221">
        <ele>1444.3886012517</ele>
        <time>2021-11-02T12:04:22Z</time>
      </trkpt>
      <trkpt lat="43.91964" lon="7.55219">
        <ele>1444.3885403063</ele>
        <time>2021-11-02T12:04:24Z</time>
      </trkpt>
      <trkpt lat="43.91964" lon="7.55219">
        <ele>1444.3885278507</ele>
        <time>2021-11-02T12:04:35Z</time>
      </trkpt>
      <trkpt lat="43.91963" lon="7.55219">
        <ele>1445.3885841964</ele>
        <time>2021-11-02T12:04:36Z</time>
      </trkpt>
      <trkpt lat="43.91964" lon="7.55219">
        <ele>1445.3885623206</ele>
        <time>2021-11-02T12:04:59Z</time>
      </trkpt>
      <trkpt lat="43.91965" lon="7.55219">
        <ele>1445.3885014436</ele>
        <time>2021-11-02T12:05:01Z</time>
      </trkpt>
      <trkpt lat="43.91963" lon="7.55219">
        <ele>1445.3885798979</ele>
        <time>2021-11-02T12:05:02Z</time>
      </trkpt>
      <trkpt lat="43.91964" lon="7.55219">
        <ele>1445.3885684296</ele>
        <time>2021-11-02T12:05:19Z</time>
      </trkpt>
      <trkpt lat="43.91965" lon="7.5522">
        <ele>1445.3884856188</ele>
        <time>2021-11-02T12:05:21Z</time>
      </trkpt>
      <trkpt lat="43.91964" lon="7.55219">
        <ele>1445.3885606087</ele>
        <time>2021-11-02T12:05:22Z</time>
      </trkpt>
      <trkpt lat="43.91964" lon="7.55219">
        <ele>1445.3885265492</ele>
        <time>2021-11-02T12:05:39Z</time>
      </trkpt>
      <trkpt lat="43.91964" lon="7.55219">
        <ele>1445.3885729437</ele>
        <time>2021-11-02T12:05:40Z</time>
      </trkpt>
      <trkpt lat="43.91964" lon="7.55219">
        <ele>1444.3885574052</ele>
        <time>2021-11-02T12:06:19Z</time>
      </trkpt>
      <trkpt lat="43.91965" lon="7.5522">
        <ele>1443.3885046106</ele>
        <time>2021-11-02T12:06:21Z</time>
      </trkpt>
      <trkpt lat="43.91965" lon="7.5522">
        <ele>1443.388508538</ele>
        <time>2021-11-02T12:06:22Z</time>
      </trkpt>
      <trkpt lat="43.91963" lon="7.5522">
        <ele>1443.3885960051</ele>
        <time>2021-11-02T12:06:23Z</time>
      </trkpt>
      <trkpt lat="43.91964" lon="7.55221">
        <ele>1443.3885753738</ele>
        <time>2021-11-02T12:07:05Z</time>
      </trkpt>
      <trkpt lat="43.91964" lon="7.5522">
        <ele>1442.3885486312</ele>
        <time>2021-11-02T12:07:46Z</time>
      </trkpt>
      <trkpt lat="43.91964" lon="7.5522">
        <ele>1439.3885387561</ele>
        <time>2021-11-02T12:08:13Z</time>
      </trkpt>
      <trkpt lat="43.91965" lon="7.55221">
        <ele>1437.3885129675</ele>
        <time>2021-11-02T12:08:15Z</time>
      </trkpt>
      <trkpt lat="43.91965" lon="7.5522">
        <ele>1437.3884882403</ele>
        <time>2021-11-02T12:08:17Z</time>
      </trkpt>
      <trkpt lat="43.91966" lon="7.55219">
        <ele>1438.3884623076</ele>
        <time>2021-11-02T12:08:19Z</time>
      </trkpt>
      <trkpt lat="43.91966" lon="7.55218">
        <ele>1437.3884210292</ele>
        <time>2021-11-02T12:08:48Z</time>
      </trkpt>
      <trkpt lat="43.91967" lon="7.55217">
        <ele>1436.3883888493</ele>
        <time>2021-11-02T12:08:49Z</time>
      </trkpt>
      <trkpt lat="43.91967" lon="7.55217">
        <ele>1436.3883703843</ele>
        <time>2021-11-02T12:08:51Z</time>
      </trkpt>
      <trkpt lat="43.91966" lon="7.55218">
        <ele>1436.3884182329</ele>
        <time>2021-11-02T12:08:52Z</time>
      </trkpt>
      <trkpt lat="43.91966" lon="7.55218">
        <ele>1435.3884169895</ele>
        <time>2021-11-02T12:09:45Z</time>
      </trkpt>
      <trkpt lat="43.91967" lon="7.55219">
        <ele>1434.388424096</ele>
        <time>2021-11-02T12:09:46Z</time>
      </trkpt>
      <trkpt lat="43.91967" lon="7.5522">
        <ele>1434.3884229291</ele>
        <time>2021-11-02T12:10:07Z</time>
      </trkpt>
      <trkpt lat="43.91967" lon="7.55221">
        <ele>1433.3884236676</ele>
        <time>2021-11-02T12:10:09Z</time>
      </trkpt>
      <trkpt lat="43.91967" lon="7.55222">
        <ele>1433.388439217</ele>
        <time>2021-11-02T12:10:13Z</time>
      </trkpt>
      <trkpt lat="43.91967" lon="7.55222">
        <ele>1434.3884600491</ele>
        <time>2021-11-02T12:10:23Z</time>
      </trkpt>
      <trkpt lat="43.91967" lon="7.55221">
        <ele>1433.3884191837</ele>
        <time>2021-11-02T12:10:24Z</time>
      </trkpt>
      <trkpt lat="43.91968" lon="7.55221">
        <ele>1433.3883822582</ele>
        <time>2021-11-02T12:10:25Z</time>
      </trkpt>
      <trkpt lat="43.91966" lon="7.55221">
        <ele>1433.3884580713</ele>
        <time>2021-11-02T12:10:26Z</time>
      </trkpt>
      <trkpt lat="43.91967" lon="7.5522">
        <ele>1433.3884291443</ele>
        <time>2021-11-02T12:10:43Z</time>
      </trkpt>
      <trkpt lat="43.91968" lon="7.55221">
        <ele>1432.3883799011</ele>
        <time>2021-11-02T12:10:45Z</time>
      </trkpt>
      <trkpt lat="43.91968" lon="7.55221">
        <ele>1432.3883835925</ele>
        <time>2021-11-02T12:10:46Z</time>
      </trkpt>
      <trkpt lat="43.91966" lon="7.5522">
        <ele>1432.3884434242</ele>
        <time>2021-11-02T12:10:47Z</time>
      </trkpt>
      <trkpt lat="43.91966" lon="7.5522">
        <ele>1434.3884408127</ele>
        <time>2021-11-02T12:11:24Z</time>
      </trkpt>
      <trkpt lat="43.91967" lon="7.55219">
        <ele>1433.3883782824</ele>
        <time>2021-11-02T12:11:26Z</time>
      </trkpt>
      <trkpt lat="43.91967" lon="7.5522">
        <ele>1433.3883937413</ele>
        <time>2021-11-02T12:13:06Z</time>
      </trkpt>
      <trkpt lat="43.91967" lon="7.55221">
        <ele>1433.3884158184</ele>
        <time>2021-11-02T12:13:36Z</time>
      </trkpt>
      <trkpt lat="43.91966" lon="7.55222">
        <ele>1434.3884647283</ele>
        <time>2021-11-02T12:13:37Z</time>
      </trkpt>
      <trkpt lat="43.91966" lon="7.55222">
        <ele>1434.3884671857</ele>
        <time>2021-11-02T12:14:00Z</time>
      </trkpt>
      <trkpt lat="43.91966" lon="7.55244">
        <ele>1428.3887626994</ele>
        <time>2021-11-02T12:29:12Z</time>
      </trkpt>
      <trkpt lat="43.91963" lon="7.55242">
        <ele>1413.388890225</ele>
        <time>2021-11-02T12:29:14Z</time>
      </trkpt>
      <trkpt lat="43.91962" lon="7.55243">
        <ele>1413.3889342341</ele>
        <time>2021-11-02T12:29:30Z</time>
      </trkpt>
      <trkpt lat="43.91962" lon="7.55243">
        <ele>1413.388974699</ele>
        <time>2021-11-02T12:29:32Z</time>
      </trkpt>
      <trkpt lat="43.91962" lon="7.55244">
        <ele>1413.3889612123</ele>
        <time>2021-11-02T12:29:35Z</time>
      </trkpt>
      <trkpt lat="43.91963" lon="7.55245">
        <ele>1413.3889322486</ele>
        <time>2021-11-02T12:29:36Z</time>
      </trkpt>
      <trkpt lat="43.91963" lon="7.55246">
        <ele>1413.3889250136</ele>
        <time>2021-11-02T12:29:37Z</time>
      </trkpt>
      <trkpt lat="43.91963" lon="7.55247">
        <ele>1414.3889267726</ele>
        <time>2021-11-02T12:29:38Z</time>
      </trkpt>
      <trkpt lat="43.91963" lon="7.55248">
        <ele>1414.3889456645</ele>
        <time>2021-11-02T12:29:39Z</time>
      </trkpt>
      <trkpt lat="43.91964" lon="7.55249">
        <ele>1415.3889430622</ele>
        <time>2021-11-02T12:29:40Z</time>
      </trkpt>
      <trkpt lat="43.91964" lon="7.5525">
        <ele>1415.3889399959</ele>
        <time>2021-11-02T12:29:41Z</time>
      </trkpt>
      <trkpt lat="43.91964" lon="7.5525">
        <ele>1414.3889321493</ele>
        <time>2021-11-02T12:29:42Z</time>
      </trkpt>
      <trkpt lat="43.91964" lon="7.55251">
        <ele>1414.3889491446</ele>
        <time>2021-11-02T12:29:43Z</time>
      </trkpt>
      <trkpt lat="43.91964" lon="7.55253">
        <ele>1414.3889629265</ele>
        <time>2021-11-02T12:29:44Z</time>
      </trkpt>
      <trkpt lat="43.91965" lon="7.55254">
        <ele>1414.3889687453</ele>
        <time>2021-11-02T12:29:45Z</time>
      </trkpt>
      <trkpt lat="43.91965" lon="7.55255">
        <ele>1414.3889564074</ele>
        <time>2021-11-02T12:29:46Z</time>
      </trkpt>
      <trkpt lat="43.91965" lon="7.55255">
        <ele>1414.3889389396</ele>
        <time>2021-11-02T12:29:47Z</time>
      </trkpt>
      <trkpt lat="43.91966" lon="7.55256">
        <ele>1414.3889264979</ele>
        <time>2021-11-02T12:29:48Z</time>
      </trkpt>
      <trkpt lat="43.91966" lon="7.55257">
        <ele>1414.3889135208</ele>
        <time>2021-11-02T12:29:49Z</time>
      </trkpt>
      <trkpt lat="43.91967" lon="7.55258">
        <ele>1414.3889143654</ele>
        <time>2021-11-02T12:29:51Z</time>
      </trkpt>
      <trkpt lat="43.91967" lon="7.55259">
        <ele>1414.3888963774</ele>
        <time>2021-11-02T12:29:53Z</time>
      </trkpt>
      <trkpt lat="43.91968" lon="7.5526">
        <ele>1414.3888904919</ele>
        <time>2021-11-02T12:29:55Z</time>
      </trkpt>
      <trkpt lat="43.91968" lon="7.55261">
        <ele>1414.3888877893</ele>
        <time>2021-11-02T12:29:56Z</time>
      </trkpt>
      <trkpt lat="43.91968" lon="7.55262">
        <ele>1414.388898997</ele>
        <time>2021-11-02T12:29:57Z</time>
      </trkpt>
      <trkpt lat="43.91968" lon="7.55263">
        <ele>1414.3889127599</ele>
        <time>2021-11-02T12:29:58Z</time>
      </trkpt>
      <trkpt lat="43.91968" lon="7.55263">
        <ele>1414.3889302514</ele>
        <time>2021-11-02T12:29:59Z</time>
      </trkpt>
      <trkpt lat="43.91968" lon="7.55264">
        <ele>1414.3889104584</ele>
        <time>2021-11-02T12:30:01Z</time>
      </trkpt>
      <trkpt lat="43.91969" lon="7.55264">
        <ele>1413.388875844</ele>
        <time>2021-11-02T12:30:03Z</time>
      </trkpt>
      <trkpt lat="43.91969" lon="7.55265">
        <ele>1413.388875142</ele>
        <time>2021-11-02T12:30:04Z</time>
      </trkpt>
      <trkpt lat="43.9197" lon="7.55266">
        <ele>1413.3888679246</ele>
        <time>2021-11-02T12:30:05Z</time>
      </trkpt>
      <trkpt lat="43.9197" lon="7.55266">
        <ele>1412.3888728167</ele>
        <time>2021-11-02T12:30:06Z</time>
      </trkpt>
      <trkpt lat="43.9197" lon="7.55267">
        <ele>1412.3888572847</ele>
        <time>2021-11-02T12:30:07Z</time>
      </trkpt>
      <trkpt lat="43.9197" lon="7.55268">
        <ele>1412.3888658042</ele>
        <time>2021-11-02T12:30:08Z</time>
      </trkpt>
      <trkpt lat="43.9197" lon="7.55267">
        <ele>1412.3888715122</ele>
        <time>2021-11-02T12:30:12Z</time>
      </trkpt>
      <trkpt lat="43.91969" lon="7.55267">
        <ele>1413.3888948972</ele>
        <time>2021-11-02T12:30:13Z</time>
      </trkpt>
      <trkpt lat="43.91969" lon="7.55267">
        <ele>1413.3889371453</ele>
        <time>2021-11-02T12:30:21Z</time>
      </trkpt>
      <trkpt lat="43.91967" lon="7.55266">
        <ele>1412.3889850968</ele>
        <time>2021-11-02T12:30:22Z</time>
      </trkpt>
      <trkpt lat="43.91967" lon="7.55265">
        <ele>1412.3889957159</ele>
        <time>2021-11-02T12:30:23Z</time>
      </trkpt>
      <trkpt lat="43.91967" lon="7.55265">
        <ele>1412.3889951548</ele>
        <time>2021-11-02T12:30:24Z</time>
      </trkpt>
      <trkpt lat="43.91966" lon="7.55264">
        <ele>1413.3890130403</ele>
        <time>2021-11-02T12:30:26Z</time>
      </trkpt>
      <trkpt lat="43.91966" lon="7.55263">
        <ele>1412.3890164692</ele>
        <time>2021-11-02T12:30:28Z</time>
      </trkpt>
      <trkpt lat="43.91966" lon="7.55263">
        <ele>1412.3890345265</ele>
        <time>2021-11-02T12:30:29Z</time>
      </trkpt>
      <trkpt lat="43.91965" lon="7.55263">
        <ele>1412.3890646942</ele>
        <time>2021-11-02T12:30:31Z</time>
      </trkpt>
      <trkpt lat="43.91964" lon="7.55263">
        <ele>1411.389106919</ele>
        <time>2021-11-02T12:30:33Z</time>
      </trkpt>
      <trkpt lat="43.91964" lon="7.55264">
        <ele>1409.3891413212</ele>
        <time>2021-11-02T12:30:34Z</time>
      </trkpt>
      <trkpt lat="43.91963" lon="7.55265">
        <ele>1409.3891802931</ele>
        <time>2021-11-02T12:30:35Z</time>
      </trkpt>
      <trkpt lat="43.91963" lon="7.55267">
        <ele>1409.3892083066</ele>
        <time>2021-11-02T12:30:36Z</time>
      </trkpt>
      <trkpt lat="43.91963" lon="7.55268">
        <ele>1409.3892276254</ele>
        <time>2021-11-02T12:30:37Z</time>
      </trkpt>
      <trkpt lat="43.91963" lon="7.5527">
        <ele>1408.3892553431</ele>
        <time>2021-11-02T12:30:38Z</time>
      </trkpt>
      <trkpt lat="43.91962" lon="7.5527">
        <ele>1408.3892829748</ele>
        <time>2021-11-02T12:30:39Z</time>
      </trkpt>
      <trkpt lat="43.91962" lon="7.55272">
        <ele>1407.3893070477</ele>
        <time>2021-11-02T12:30:40Z</time>
      </trkpt>
      <trkpt lat="43.91962" lon="7.55272">
        <ele>1407.3893411152</ele>
        <time>2021-11-02T12:30:49Z</time>
      </trkpt>
      <trkpt lat="43.91962" lon="7.55274">
        <ele>1408.3893708392</ele>
        <time>2021-11-02T12:30:50Z</time>
      </trkpt>
      <trkpt lat="43.91962" lon="7.55275">
        <ele>1408.3893844113</ele>
        <time>2021-11-02T12:30:51Z</time>
      </trkpt>
      <trkpt lat="43.91962" lon="7.55276">
        <ele>1409.3893938714</ele>
        <time>2021-11-02T12:30:52Z</time>
      </trkpt>
      <trkpt lat="43.91962" lon="7.55277">
        <ele>1409.3893992671</ele>
        <time>2021-11-02T12:30:54Z</time>
      </trkpt>
      <trkpt lat="43.91962" lon="7.55277">
        <ele>1410.3893872762</ele>
        <time>2021-11-02T12:30:55Z</time>
      </trkpt>
      <trkpt lat="43.91963" lon="7.55278">
        <ele>1411.3893697518</ele>
        <time>2021-11-02T12:30:57Z</time>
      </trkpt>
      <trkpt lat="43.91963" lon="7.55279">
        <ele>1411.3893596505</ele>
        <time>2021-11-02T12:30:58Z</time>
      </trkpt>
      <trkpt lat="43.91964" lon="7.5528">
        <ele>1412.3893461465</ele>
        <time>2021-11-02T12:31:00Z</time>
      </trkpt>
      <trkpt lat="43.91964" lon="7.5528">
        <ele>1412.389331412</ele>
        <time>2021-11-02T12:31:01Z</time>
      </trkpt>
      <trkpt lat="43.91965" lon="7.5528">
        <ele>1412.3892967461</ele>
        <time>2021-11-02T12:31:02Z</time>
      </trkpt>
      <trkpt lat="43.91965" lon="7.55281">
        <ele>1413.3892712754</ele>
        <time>2021-11-02T12:31:03Z</time>
      </trkpt>
      <trkpt lat="43.91966" lon="7.55282">
        <ele>1413.3892580779</ele>
        <time>2021-11-02T12:31:04Z</time>
      </trkpt>
      <trkpt lat="43.91966" lon="7.55282">
        <ele>1413.3892587949</ele>
        <time>2021-11-02T12:31:07Z</time>
      </trkpt>
      <trkpt lat="43.91967" lon="7.55283">
        <ele>1413.3892467103</ele>
        <time>2021-11-02T12:31:08Z</time>
      </trkpt>
      <trkpt lat="43.91967" lon="7.55284">
        <ele>1413.3892298992</ele>
        <time>2021-11-02T12:31:09Z</time>
      </trkpt>
      <trkpt lat="43.91968" lon="7.55285">
        <ele>1414.3892182615</ele>
        <time>2021-11-02T12:31:10Z</time>
      </trkpt>
      <trkpt lat="43.91969" lon="7.55286">
        <ele>1414.3891854188</ele>
        <time>2021-11-02T12:31:11Z</time>
      </trkpt>
      <trkpt lat="43.91969" lon="7.55287">
        <ele>1414.3891648807</ele>
        <time>2021-11-02T12:31:12Z</time>
      </trkpt>
      <trkpt lat="43.9197" lon="7.55288">
        <ele>1414.3891497195</ele>
        <time>2021-11-02T12:31:13Z</time>
      </trkpt>
      <trkpt lat="43.9197" lon="7.55289">
        <ele>1413.389148982</ele>
        <time>2021-11-02T12:31:14Z</time>
      </trkpt>
      <trkpt lat="43.91971" lon="7.5529">
        <ele>1413.3891180961</ele>
        <time>2021-11-02T12:31:16Z</time>
      </trkpt>
      <trkpt lat="43.91972" lon="7.5529">
        <ele>1413.3890942468</ele>
        <time>2021-11-02T12:31:17Z</time>
      </trkpt>
      <trkpt lat="43.91972" lon="7.55291">
        <ele>1412.3890710522</ele>
        <time>2021-11-02T12:31:20Z</time>
      </trkpt>
      <trkpt lat="43.91973" lon="7.55291">
        <ele>1413.3890624934</ele>
        <time>2021-11-02T12:31:21Z</time>
      </trkpt>
      <trkpt lat="43.91972" lon="7.55293">
        <ele>1413.3890967409</ele>
        <time>2021-11-02T12:31:23Z</time>
      </trkpt>
      <trkpt lat="43.91972" lon="7.55294">
        <ele>1412.3891351113</ele>
        <time>2021-11-02T12:31:25Z</time>
      </trkpt>
      <trkpt lat="43.91972" lon="7.55296">
        <ele>1412.3891566834</ele>
        <time>2021-11-02T12:31:27Z</time>
      </trkpt>
      <trkpt lat="43.91972" lon="7.55297">
        <ele>1411.3891584458</ele>
        <time>2021-11-02T12:31:28Z</time>
      </trkpt>
      <trkpt lat="43.91973" lon="7.55298">
        <ele>1411.3891527488</ele>
        <time>2021-11-02T12:31:29Z</time>
      </trkpt>
      <trkpt lat="43.91973" lon="7.553">
        <ele>1410.3891369731</ele>
        <time>2021-11-02T12:31:30Z</time>
      </trkpt>
      <trkpt lat="43.91974" lon="7.553">
        <ele>1410.3891179407</ele>
        <time>2021-11-02T12:31:31Z</time>
      </trkpt>
      <trkpt lat="43.91974" lon="7.55301">
        <ele>1410.3891132047</ele>
        <time>2021-11-02T12:31:32Z</time>
      </trkpt>
      <trkpt lat="43.91975" lon="7.55302">
        <ele>1410.3890835937</ele>
        <time>2021-11-02T12:31:33Z</time>
      </trkpt>
      <trkpt lat="43.91976" lon="7.55303">
        <ele>1410.3890534559</ele>
        <time>2021-11-02T12:31:34Z</time>
      </trkpt>
      <trkpt lat="43.91977" lon="7.55305">
        <ele>1410.3890322909</ele>
        <time>2021-11-02T12:31:35Z</time>
      </trkpt>
      <trkpt lat="43.91978" lon="7.55306">
        <ele>1410.3890052533</ele>
        <time>2021-11-02T12:31:36Z</time>
      </trkpt>
      <trkpt lat="43.91978" lon="7.55307">
        <ele>1410.3889848478</ele>
        <time>2021-11-02T12:31:37Z</time>
      </trkpt>
      <trkpt lat="43.91979" lon="7.55307">
        <ele>1410.3889537777</ele>
        <time>2021-11-02T12:31:38Z</time>
      </trkpt>
      <trkpt lat="43.9198" lon="7.55308">
        <ele>1410.3889165503</ele>
        <time>2021-11-02T12:31:39Z</time>
      </trkpt>
      <trkpt lat="43.9198" lon="7.55309">
        <ele>1410.3889127084</ele>
        <time>2021-11-02T12:31:40Z</time>
      </trkpt>
      <trkpt lat="43.91981" lon="7.55309">
        <ele>1410.3888999362</ele>
        <time>2021-11-02T12:31:41Z</time>
      </trkpt>
      <trkpt lat="43.91981" lon="7.55311">
        <ele>1410.3889193205</ele>
        <time>2021-11-02T12:31:42Z</time>
      </trkpt>
      <trkpt lat="43.91981" lon="7.55311">
        <ele>1410.3889086865</ele>
        <time>2021-11-02T12:31:43Z</time>
      </trkpt>
      <trkpt lat="43.91981" lon="7.55313">
        <ele>1410.3889169736</ele>
        <time>2021-11-02T12:31:44Z</time>
      </trkpt>
      <trkpt lat="43.91981" lon="7.55314">
        <ele>1410.388924351</ele>
        <time>2021-11-02T12:31:45Z</time>
      </trkpt>
      <trkpt lat="43.91982" lon="7.55315">
        <ele>1410.3889288976</ele>
        <time>2021-11-02T12:31:46Z</time>
      </trkpt>
      <trkpt lat="43.91982" lon="7.55316">
        <ele>1410.3889095299</ele>
        <time>2021-11-02T12:31:47Z</time>
      </trkpt>
      <trkpt lat="43.91983" lon="7.55317">
        <ele>1410.3888884973</ele>
        <time>2021-11-02T12:31:48Z</time>
      </trkpt>
      <trkpt lat="43.91983" lon="7.55318">
        <ele>1409.3888690168</ele>
        <time>2021-11-02T12:31:49Z</time>
      </trkpt>
      <trkpt lat="43.91984" lon="7.55318">
        <ele>1409.3888421637</ele>
        <time>2021-11-02T12:31:50Z</time>
      </trkpt>
      <trkpt lat="43.91985" lon="7.55319">
        <ele>1409.3888292885</ele>
        <time>2021-11-02T12:31:51Z</time>
      </trkpt>
      <trkpt lat="43.91985" lon="7.5532">
        <ele>1409.3888277499</ele>
        <time>2021-11-02T12:31:52Z</time>
      </trkpt>
      <trkpt lat="43.91986" lon="7.55322">
        <ele>1408.3888167383</ele>
        <time>2021-11-02T12:31:53Z</time>
      </trkpt>
      <trkpt lat="43.91986" lon="7.55323">
        <ele>1408.3888321375</ele>
        <time>2021-11-02T12:31:54Z</time>
      </trkpt>
      <trkpt lat="43.91986" lon="7.55324">
        <ele>1408.3888386794</ele>
        <time>2021-11-02T12:31:55Z</time>
      </trkpt>
      <trkpt lat="43.91987" lon="7.55325">
        <ele>1407.3888103247</ele>
        <time>2021-11-02T12:31:56Z</time>
      </trkpt>
      <trkpt lat="43.91987" lon="7.55326">
        <ele>1407.3887977875</ele>
        <time>2021-11-02T12:31:57Z</time>
      </trkpt>
      <trkpt lat="43.91988" lon="7.55327">
        <ele>1407.3887727928</ele>
        <time>2021-11-02T12:31:58Z</time>
      </trkpt>
      <trkpt lat="43.91988" lon="7.55327">
        <ele>1407.3887542924</ele>
        <time>2021-11-02T12:31:59Z</time>
      </trkpt>
      <trkpt lat="43.91989" lon="7.55328">
        <ele>1407.3887348812</ele>
        <time>2021-11-02T12:32:00Z</time>
      </trkpt>
      <trkpt lat="43.91989" lon="7.55329">
        <ele>1407.388726412</ele>
        <time>2021-11-02T12:32:01Z</time>
      </trkpt>
      <trkpt lat="43.9199" lon="7.55329">
        <ele>1407.3886968815</ele>
        <time>2021-11-02T12:32:07Z</time>
      </trkpt>
      <trkpt lat="43.91991" lon="7.55329">
        <ele>1408.3886725632</ele>
        <time>2021-11-02T12:32:08Z</time>
      </trkpt>
      <trkpt lat="43.91992" lon="7.5533">
        <ele>1407.3886379784</ele>
        <time>2021-11-02T12:32:09Z</time>
      </trkpt>
      <trkpt lat="43.91992" lon="7.55331">
        <ele>1407.3886180987</ele>
        <time>2021-11-02T12:32:10Z</time>
      </trkpt>
      <trkpt lat="43.91993" lon="7.55332">
        <ele>1407.388595622</ele>
        <time>2021-11-02T12:32:11Z</time>
      </trkpt>
      <trkpt lat="43.91993" lon="7.55332">
        <ele>1406.3885797816</ele>
        <time>2021-11-02T12:32:12Z</time>
      </trkpt>
      <trkpt lat="43.91994" lon="7.55332">
        <ele>1406.3885536802</ele>
        <time>2021-11-02T12:32:13Z</time>
      </trkpt>
      <trkpt lat="43.91994" lon="7.55333">
        <ele>1406.3885525076</ele>
        <time>2021-11-02T12:32:14Z</time>
      </trkpt>
      <trkpt lat="43.91995" lon="7.55335">
        <ele>1406.3885266485</ele>
        <time>2021-11-02T12:32:15Z</time>
      </trkpt>
      <trkpt lat="43.91996" lon="7.55334">
        <ele>1407.3884906171</ele>
        <time>2021-11-02T12:32:42Z</time>
      </trkpt>
      <trkpt lat="43.91996" lon="7.55335">
        <ele>1407.3885025668</ele>
        <time>2021-11-02T12:32:45Z</time>
      </trkpt>
      <trkpt lat="43.91996" lon="7.55336">
        <ele>1407.3885128943</ele>
        <time>2021-11-02T12:32:47Z</time>
      </trkpt>
      <trkpt lat="43.91996" lon="7.55337">
        <ele>1405.3885078068</ele>
        <time>2021-11-02T12:32:48Z</time>
      </trkpt>
      <trkpt lat="43.91997" lon="7.55338">
        <ele>1405.3884974628</ele>
        <time>2021-11-02T12:32:50Z</time>
      </trkpt>
      <trkpt lat="43.91997" lon="7.55339">
        <ele>1406.3884938435</ele>
        <time>2021-11-02T12:32:51Z</time>
      </trkpt>
      <trkpt lat="43.91996" lon="7.55339">
        <ele>1405.388519599</ele>
        <time>2021-11-02T12:32:57Z</time>
      </trkpt>
      <trkpt lat="43.91996" lon="7.5534">
        <ele>1402.3885367407</ele>
        <time>2021-11-02T12:33:02Z</time>
      </trkpt>
      <trkpt lat="43.91996" lon="7.55341">
        <ele>1402.3885665727</ele>
        <time>2021-11-02T12:33:03Z</time>
      </trkpt>
      <trkpt lat="43.91995" lon="7.55341">
        <ele>1402.3885886516</ele>
        <time>2021-11-02T12:33:04Z</time>
      </trkpt>
      <trkpt lat="43.91995" lon="7.55342">
        <ele>1402.3886187141</ele>
        <time>2021-11-02T12:33:06Z</time>
      </trkpt>
      <trkpt lat="43.91996" lon="7.55342">
        <ele>1402.3885990899</ele>
        <time>2021-11-02T12:33:07Z</time>
      </trkpt>
      <trkpt lat="43.91996" lon="7.55343">
        <ele>1402.3885821884</ele>
        <time>2021-11-02T12:33:08Z</time>
      </trkpt>
      <trkpt lat="43.91996" lon="7.55344">
        <ele>1403.3886059591</ele>
        <time>2021-11-02T12:33:09Z</time>
      </trkpt>
      <trkpt lat="43.91995" lon="7.55345">
        <ele>1403.3886435592</ele>
        <time>2021-11-02T12:33:13Z</time>
      </trkpt>
      <trkpt lat="43.91995" lon="7.55345">
        <ele>1403.388686391</ele>
        <time>2021-11-02T12:33:15Z</time>
      </trkpt>
      <trkpt lat="43.91994" lon="7.55345">
        <ele>1403.388720673</ele>
        <time>2021-11-02T12:33:16Z</time>
      </trkpt>
      <trkpt lat="43.91993" lon="7.55344">
        <ele>1404.3887521048</ele>
        <time>2021-11-02T12:33:17Z</time>
      </trkpt>
      <trkpt lat="43.91992" lon="7.55344">
        <ele>1405.3887850388</ele>
        <time>2021-11-02T12:33:19Z</time>
      </trkpt>
      <trkpt lat="43.91992" lon="7.55344">
        <ele>1404.3888001413</ele>
        <time>2021-11-02T12:33:20Z</time>
      </trkpt>
      <trkpt lat="43.91992" lon="7.55345">
        <ele>1404.3888246839</ele>
        <time>2021-11-02T12:33:21Z</time>
      </trkpt>
      <trkpt lat="43.91992" lon="7.55346">
        <ele>1403.3888395956</ele>
        <time>2021-11-02T12:33:22Z</time>
      </trkpt>
      <trkpt lat="43.91991" lon="7.55346">
        <ele>1403.3888862227</ele>
        <time>2021-11-02T12:33:23Z</time>
      </trkpt>
      <trkpt lat="43.91991" lon="7.55347">
        <ele>1399.3888677846</ele>
        <time>2021-11-02T12:33:28Z</time>
      </trkpt>
      <trkpt lat="43.91991" lon="7.55347">
        <ele>1399.3888704309</ele>
        <time>2021-11-02T12:33:29Z</time>
      </trkpt>
      <trkpt lat="43.91991" lon="7.55348">
        <ele>1398.3888934211</ele>
        <time>2021-11-02T12:33:34Z</time>
      </trkpt>
      <trkpt lat="43.91991" lon="7.55349">
        <ele>1397.388906474</ele>
        <time>2021-11-02T12:33:36Z</time>
      </trkpt>
      <trkpt lat="43.91991" lon="7.5535">
        <ele>1397.3889223253</ele>
        <time>2021-11-02T12:33:38Z</time>
      </trkpt>
      <trkpt lat="43.91991" lon="7.55352">
        <ele>1397.388918893</ele>
        <time>2021-11-02T12:33:39Z</time>
      </trkpt>
      <trkpt lat="43.91991" lon="7.55353">
        <ele>1396.388940086</ele>
        <time>2021-11-02T12:33:40Z</time>
      </trkpt>
      <trkpt lat="43.91991" lon="7.55354">
        <ele>1396.3889768049</ele>
        <time>2021-11-02T12:33:41Z</time>
      </trkpt>
      <trkpt lat="43.9199" lon="7.55355">
        <ele>1395.3890171564</ele>
        <time>2021-11-02T12:33:42Z</time>
      </trkpt>
      <trkpt lat="43.91989" lon="7.55355">
        <ele>1395.38906836</ele>
        <time>2021-11-02T12:33:43Z</time>
      </trkpt>
      <trkpt lat="43.91988" lon="7.55355">
        <ele>1394.3891107942</ele>
        <time>2021-11-02T12:33:44Z</time>
      </trkpt>
      <trkpt lat="43.91988" lon="7.55356">
        <ele>1393.3891294545</ele>
        <time>2021-11-02T12:33:46Z</time>
      </trkpt>
      <trkpt lat="43.91988" lon="7.55357">
        <ele>1393.3891377564</ele>
        <time>2021-11-02T12:33:47Z</time>
      </trkpt>
      <trkpt lat="43.91989" lon="7.55358">
        <ele>1393.3891432819</ele>
        <time>2021-11-02T12:33:48Z</time>
      </trkpt>
      <trkpt lat="43.91988" lon="7.55358">
        <ele>1393.3891732969</ele>
        <time>2021-11-02T12:33:49Z</time>
      </trkpt>
      <trkpt lat="43.91987" lon="7.55358">
        <ele>1392.3892178835</ele>
        <time>2021-11-02T12:33:50Z</time>
      </trkpt>
      <trkpt lat="43.91987" lon="7.55359">
        <ele>1392.3892132704</ele>
        <time>2021-11-02T12:33:54Z</time>
      </trkpt>
      <trkpt lat="43.91988" lon="7.55358">
        <ele>1391.3891673876</ele>
        <time>2021-11-02T12:33:55Z</time>
      </trkpt>
      <trkpt lat="43.91989" lon="7.55358">
        <ele>1391.3891287495</ele>
        <time>2021-11-02T12:33:57Z</time>
      </trkpt>
      <trkpt lat="43.91988" lon="7.55359">
        <ele>1390.3891608007</ele>
        <time>2021-11-02T12:33:59Z</time>
      </trkpt>
      <trkpt lat="43.91988" lon="7.5536">
        <ele>1390.3891929096</ele>
        <time>2021-11-02T12:34:00Z</time>
      </trkpt>
      <trkpt lat="43.91988" lon="7.55361">
        <ele>1389.3892084558</ele>
        <time>2021-11-02T12:34:01Z</time>
      </trkpt>
      <trkpt lat="43.91988" lon="7.55362">
        <ele>1390.3892324853</ele>
        <time>2021-11-02T12:34:04Z</time>
      </trkpt>
      <trkpt lat="43.91987" lon="7.55362">
        <ele>1390.3892724296</ele>
        <time>2021-11-02T12:34:05Z</time>
      </trkpt>
      <trkpt lat="43.91986" lon="7.55363">
        <ele>1390.3893071376</ele>
        <time>2021-11-02T12:34:06Z</time>
      </trkpt>
      <trkpt lat="43.91986" lon="7.55364">
        <ele>1389.3893423626</ele>
        <time>2021-11-02T12:34:08Z</time>
      </trkpt>
      <trkpt lat="43.91985" lon="7.55363">
        <ele>1389.3893783359</ele>
        <time>2021-11-02T12:34:09Z</time>
      </trkpt>
      <trkpt lat="43.91984" lon="7.55362">
        <ele>1389.3894012645</ele>
        <time>2021-11-02T12:34:10Z</time>
      </trkpt>
      <trkpt lat="43.91983" lon="7.55362">
        <ele>1389.3894391376</ele>
        <time>2021-11-02T12:34:11Z</time>
      </trkpt>
      <trkpt lat="43.91983" lon="7.55362">
        <ele>1388.389476393</ele>
        <time>2021-11-02T12:34:13Z</time>
      </trkpt>
      <trkpt lat="43.91983" lon="7.55363">
        <ele>1388.3894970552</ele>
        <time>2021-11-02T12:34:14Z</time>
      </trkpt>
      <trkpt lat="43.91982" lon="7.55365">
        <ele>1388.3895321376</ele>
        <time>2021-11-02T12:34:15Z</time>
      </trkpt>
      <trkpt lat="43.91983" lon="7.55366">
        <ele>1388.3895326267</ele>
        <time>2021-11-02T12:34:18Z</time>
      </trkpt>
      <trkpt lat="43.91983" lon="7.55367">
        <ele>1388.3895482659</ele>
        <time>2021-11-02T12:34:19Z</time>
      </trkpt>
      <trkpt lat="43.91982" lon="7.55368">
        <ele>1387.3895772537</ele>
        <time>2021-11-02T12:34:20Z</time>
      </trkpt>
      <trkpt lat="43.91982" lon="7.55369">
        <ele>1386.3895982913</ele>
        <time>2021-11-02T12:34:22Z</time>
      </trkpt>
      <trkpt lat="43.91982" lon="7.55369">
        <ele>1386.3895984664</ele>
        <time>2021-11-02T12:34:24Z</time>
      </trkpt>
      <trkpt lat="43.91982" lon="7.5537">
        <ele>1386.3896376272</ele>
        <time>2021-11-02T12:34:26Z</time>
      </trkpt>
      <trkpt lat="43.91982" lon="7.55371">
        <ele>1385.3896504422</ele>
        <time>2021-11-02T12:34:29Z</time>
      </trkpt>
      <trkpt lat="43.91981" lon="7.55372">
        <ele>1384.3896627595</ele>
        <time>2021-11-02T12:34:30Z</time>
      </trkpt>
      <trkpt lat="43.91982" lon="7.55373">
        <ele>1384.389655881</ele>
        <time>2021-11-02T12:34:31Z</time>
      </trkpt>
      <trkpt lat="43.91982" lon="7.55373">
        <ele>1384.3896589717</ele>
        <time>2021-11-02T12:34:32Z</time>
      </trkpt>
      <trkpt lat="43.91982" lon="7.55374">
        <ele>1384.3896602321</ele>
        <time>2021-11-02T12:34:33Z</time>
      </trkpt>
      <trkpt lat="43.91982" lon="7.55375">
        <ele>1384.3896777025</ele>
        <time>2021-11-02T12:34:34Z</time>
      </trkpt>
      <trkpt lat="43.91983" lon="7.55376">
        <ele>1384.3896659536</ele>
        <time>2021-11-02T12:34:35Z</time>
      </trkpt>
      <trkpt lat="43.91982" lon="7.55377">
        <ele>1383.3896907275</ele>
        <time>2021-11-02T12:34:36Z</time>
      </trkpt>
      <trkpt lat="43.91982" lon="7.55379">
        <ele>1383.3897187053</ele>
        <time>2021-11-02T12:34:37Z</time>
      </trkpt>
      <trkpt lat="43.91982" lon="7.55379">
        <ele>1383.3897351053</ele>
        <time>2021-11-02T12:34:38Z</time>
      </trkpt>
      <trkpt lat="43.91982" lon="7.55381">
        <ele>1383.3897469288</ele>
        <time>2021-11-02T12:34:39Z</time>
      </trkpt>
      <trkpt lat="43.91982" lon="7.55382">
        <ele>1383.3897616151</ele>
        <time>2021-11-02T12:34:42Z</time>
      </trkpt>
      <trkpt lat="43.91982" lon="7.55383">
        <ele>1383.3897844849</ele>
        <time>2021-11-02T12:34:43Z</time>
      </trkpt>
      <trkpt lat="43.91983" lon="7.55384">
        <ele>1382.3897630583</ele>
        <time>2021-11-02T12:34:44Z</time>
      </trkpt>
      <trkpt lat="43.91983" lon="7.55385">
        <ele>1382.3897708108</ele>
        <time>2021-11-02T12:34:46Z</time>
      </trkpt>
      <trkpt lat="43.91982" lon="7.55386">
        <ele>1378.3897948691</ele>
        <time>2021-11-02T12:34:51Z</time>
      </trkpt>
      <trkpt lat="43.91983" lon="7.55387">
        <ele>1378.3897932774</ele>
        <time>2021-11-02T12:34:52Z</time>
      </trkpt>
      <trkpt lat="43.91983" lon="7.55388">
        <ele>1379.3898040574</ele>
        <time>2021-11-02T12:34:53Z</time>
      </trkpt>
      <trkpt lat="43.91983" lon="7.55389">
        <ele>1378.3898006734</ele>
        <time>2021-11-02T12:34:54Z</time>
      </trkpt>
      <trkpt lat="43.91983" lon="7.5539">
        <ele>1378.389800692</ele>
        <time>2021-11-02T12:34:55Z</time>
      </trkpt>
      <trkpt lat="43.91984" lon="7.55391">
        <ele>1378.3898065234</ele>
        <time>2021-11-02T12:34:56Z</time>
      </trkpt>
      <trkpt lat="43.91984" lon="7.55391">
        <ele>1378.3897742961</ele>
        <time>2021-11-02T12:34:57Z</time>
      </trkpt>
      <trkpt lat="43.91984" lon="7.55392">
        <ele>1378.3897970099</ele>
        <time>2021-11-02T12:34:58Z</time>
      </trkpt>
      <trkpt lat="43.91984" lon="7.55393">
        <ele>1377.3898085932</ele>
        <time>2021-11-02T12:34:59Z</time>
      </trkpt>
      <trkpt lat="43.91984" lon="7.55394">
        <ele>1377.3898152628</ele>
        <time>2021-11-02T12:35:00Z</time>
      </trkpt>
      <trkpt lat="43.91984" lon="7.55395">
        <ele>1376.389818884</ele>
        <time>2021-11-02T12:35:01Z</time>
      </trkpt>
      <trkpt lat="43.91984" lon="7.55396">
        <ele>1376.389835641</ele>
        <time>2021-11-02T12:35:02Z</time>
      </trkpt>
      <trkpt lat="43.91984" lon="7.55396">
        <ele>1376.3898313263</ele>
        <time>2021-11-02T12:35:03Z</time>
      </trkpt>
      <trkpt lat="43.91984" lon="7.55397">
        <ele>1376.3898605393</ele>
        <time>2021-11-02T12:35:04Z</time>
      </trkpt>
      <trkpt lat="43.91984" lon="7.55398">
        <ele>1376.3898747728</ele>
        <time>2021-11-02T12:35:05Z</time>
      </trkpt>
      <trkpt lat="43.91983" lon="7.55398">
        <ele>1376.3899054822</ele>
        <time>2021-11-02T12:35:06Z</time>
      </trkpt>
      <trkpt lat="43.91983" lon="7.55399">
        <ele>1375.3899281748</ele>
        <time>2021-11-02T12:35:08Z</time>
      </trkpt>
      <trkpt lat="43.91983" lon="7.55399">
        <ele>1374.3899518965</ele>
        <time>2021-11-02T12:35:20Z</time>
      </trkpt>
      <trkpt lat="43.91984" lon="7.55397">
        <ele>1371.389882687</ele>
        <time>2021-11-02T12:35:21Z</time>
      </trkpt>
      <trkpt lat="43.91984" lon="7.55399">
        <ele>1368.3898967594</ele>
        <time>2021-11-02T12:35:26Z</time>
      </trkpt>
      <trkpt lat="43.91983" lon="7.554">
        <ele>1368.3899188222</ele>
        <time>2021-11-02T12:35:27Z</time>
      </trkpt>
      <trkpt lat="43.91983" lon="7.55401">
        <ele>1368.389940827</ele>
        <time>2021-11-02T12:35:29Z</time>
      </trkpt>
      <trkpt lat="43.91984" lon="7.55402">
        <ele>1367.3899389725</ele>
        <time>2021-11-02T12:35:31Z</time>
      </trkpt>
      <trkpt lat="43.91983" lon="7.55402">
        <ele>1367.3899732962</ele>
        <time>2021-11-02T12:35:33Z</time>
      </trkpt>
      <trkpt lat="43.91983" lon="7.55402">
        <ele>1367.3899942732</ele>
        <time>2021-11-02T12:35:36Z</time>
      </trkpt>
      <trkpt lat="43.91983" lon="7.55404">
        <ele>1366.3900013611</ele>
        <time>2021-11-02T12:35:37Z</time>
      </trkpt>
      <trkpt lat="43.91982" lon="7.55404">
        <ele>1365.3900333303</ele>
        <time>2021-11-02T12:35:38Z</time>
      </trkpt>
      <trkpt lat="43.91981" lon="7.55404">
        <ele>1365.3900891255</ele>
        <time>2021-11-02T12:35:39Z</time>
      </trkpt>
      <trkpt lat="43.91982" lon="7.55405">
        <ele>1365.3900781206</ele>
        <time>2021-11-02T12:35:41Z</time>
      </trkpt>
      <trkpt lat="43.91982" lon="7.55406">
        <ele>1365.3900777363</ele>
        <time>2021-11-02T12:35:42Z</time>
      </trkpt>
      <trkpt lat="43.91982" lon="7.55407">
        <ele>1365.3901032466</ele>
        <time>2021-11-02T12:35:43Z</time>
      </trkpt>
      <trkpt lat="43.91981" lon="7.55408">
        <ele>1365.3901409695</ele>
        <time>2021-11-02T12:35:44Z</time>
      </trkpt>
      <trkpt lat="43.9198" lon="7.55408">
        <ele>1365.3901836094</ele>
        <time>2021-11-02T12:35:45Z</time>
      </trkpt>
      <trkpt lat="43.9198" lon="7.55409">
        <ele>1364.390219833</ele>
        <time>2021-11-02T12:35:46Z</time>
      </trkpt>
      <trkpt lat="43.91979" lon="7.55409">
        <ele>1364.390247108</ele>
        <time>2021-11-02T12:35:47Z</time>
      </trkpt>
      <trkpt lat="43.91979" lon="7.5541">
        <ele>1365.3902709311</ele>
        <time>2021-11-02T12:35:48Z</time>
      </trkpt>
      <trkpt lat="43.91979" lon="7.55411">
        <ele>1364.3902884419</ele>
        <time>2021-11-02T12:35:49Z</time>
      </trkpt>
      <trkpt lat="43.91979" lon="7.55412">
        <ele>1364.3902994769</ele>
        <time>2021-11-02T12:35:50Z</time>
      </trkpt>
      <trkpt lat="43.91979" lon="7.55413">
        <ele>1364.3903326198</ele>
        <time>2021-11-02T12:35:52Z</time>
      </trkpt>
      <trkpt lat="43.91978" lon="7.55413">
        <ele>1363.3903644029</ele>
        <time>2021-11-02T12:35:53Z</time>
      </trkpt>
      <trkpt lat="43.91978" lon="7.55414">
        <ele>1363.3903829224</ele>
        <time>2021-11-02T12:35:59Z</time>
      </trkpt>
      <trkpt lat="43.91978" lon="7.55415">
        <ele>1363.3903664571</ele>
        <time>2021-11-02T12:36:02Z</time>
      </trkpt>
      <trkpt lat="43.91977" lon="7.55415">
        <ele>1365.3904073361</ele>
        <time>2021-11-02T12:36:09Z</time>
      </trkpt>
      <trkpt lat="43.91977" lon="7.55414">
        <ele>1365.3904368596</ele>
        <time>2021-11-02T12:36:11Z</time>
      </trkpt>
      <trkpt lat="43.91976" lon="7.55414">
        <ele>1363.3904754387</ele>
        <time>2021-11-02T12:36:13Z</time>
      </trkpt>
      <trkpt lat="43.91975" lon="7.55415">
        <ele>1362.3905116934</ele>
        <time>2021-11-02T12:36:15Z</time>
      </trkpt>
      <trkpt lat="43.91975" lon="7.55416">
        <ele>1362.3905231018</ele>
        <time>2021-11-02T12:36:16Z</time>
      </trkpt>
      <trkpt lat="43.91975" lon="7.55417">
        <ele>1362.3905380046</ele>
        <time>2021-11-02T12:36:18Z</time>
      </trkpt>
      <trkpt lat="43.91976" lon="7.55418">
        <ele>1362.3905342388</ele>
        <time>2021-11-02T12:36:20Z</time>
      </trkpt>
      <trkpt lat="43.91976" lon="7.55418">
        <ele>1362.3905443497</ele>
        <time>2021-11-02T12:36:21Z</time>
      </trkpt>
      <trkpt lat="43.91976" lon="7.55419">
        <ele>1361.3905395978</ele>
        <time>2021-11-02T12:36:22Z</time>
      </trkpt>
      <trkpt lat="43.91976" lon="7.5542">
        <ele>1361.3905247423</ele>
        <time>2021-11-02T12:36:24Z</time>
      </trkpt>
      <trkpt lat="43.91976" lon="7.55421">
        <ele>1361.3905357966</ele>
        <time>2021-11-02T12:36:25Z</time>
      </trkpt>
      <trkpt lat="43.91977" lon="7.55422">
        <ele>1361.390542995</ele>
        <time>2021-11-02T12:36:26Z</time>
      </trkpt>
      <trkpt lat="43.91977" lon="7.55423">
        <ele>1361.390531369</ele>
        <time>2021-11-02T12:36:27Z</time>
      </trkpt>
      <trkpt lat="43.91977" lon="7.55424">
        <ele>1363.3905328381</ele>
        <time>2021-11-02T12:36:32Z</time>
      </trkpt>
      <trkpt lat="43.91977" lon="7.55425">
        <ele>1363.3905483832</ele>
        <time>2021-11-02T12:36:34Z</time>
      </trkpt>
      <trkpt lat="43.91978" lon="7.55426">
        <ele>1363.3905492276</ele>
        <time>2021-11-02T12:36:36Z</time>
      </trkpt>
      <trkpt lat="43.91978" lon="7.55427">
        <ele>1363.390548939</ele>
        <time>2021-11-02T12:36:38Z</time>
      </trkpt>
      <trkpt lat="43.91978" lon="7.55427">
        <ele>1362.3905540368</ele>
        <time>2021-11-02T12:36:39Z</time>
      </trkpt>
      <trkpt lat="43.91978" lon="7.55428">
        <ele>1362.3905768152</ele>
        <time>2021-11-02T12:36:40Z</time>
      </trkpt>
      <trkpt lat="43.91978" lon="7.55429">
        <ele>1362.3905795905</ele>
        <time>2021-11-02T12:36:41Z</time>
      </trkpt>
      <trkpt lat="43.91978" lon="7.5543">
        <ele>1362.390587218</ele>
        <time>2021-11-02T12:36:42Z</time>
      </trkpt>
      <trkpt lat="43.91978" lon="7.55431">
        <ele>1362.3906127018</ele>
        <time>2021-11-02T12:36:43Z</time>
      </trkpt>
      <trkpt lat="43.91978" lon="7.55433">
        <ele>1361.3906328694</ele>
        <time>2021-11-02T12:36:44Z</time>
      </trkpt>
      <trkpt lat="43.91977" lon="7.55433">
        <ele>1361.3906726811</ele>
        <time>2021-11-02T12:36:51Z</time>
      </trkpt>
      <trkpt lat="43.91977" lon="7.55432">
        <ele>1360.390656571</ele>
        <time>2021-11-02T12:36:57Z</time>
      </trkpt>
      <trkpt lat="43.91978" lon="7.55432">
        <ele>1360.3906295639</ele>
        <time>2021-11-02T12:37:42Z</time>
      </trkpt>
      <trkpt lat="43.91976" lon="7.55431">
        <ele>1359.3906986428</ele>
        <time>2021-11-02T12:37:44Z</time>
      </trkpt>
      <trkpt lat="43.91976" lon="7.55431">
        <ele>1360.3907096772</ele>
        <time>2021-11-02T12:38:01Z</time>
      </trkpt>
      <trkpt lat="43.91976" lon="7.55432">
        <ele>1360.3907114895</ele>
        <time>2021-11-02T12:38:12Z</time>
      </trkpt>
      <trkpt lat="43.91975" lon="7.55433">
        <ele>1360.3907690857</ele>
        <time>2021-11-02T12:38:13Z</time>
      </trkpt>
      <trkpt lat="43.91975" lon="7.55433">
        <ele>1360.3907639142</ele>
        <time>2021-11-02T12:38:22Z</time>
      </trkpt>
      <trkpt lat="43.91975" lon="7.55434">
        <ele>1359.3907858363</ele>
        <time>2021-11-02T12:38:23Z</time>
      </trkpt>
      <trkpt lat="43.91974" lon="7.55435">
        <ele>1358.3908329595</ele>
        <time>2021-11-02T12:38:24Z</time>
      </trkpt>
      <trkpt lat="43.91974" lon="7.55436">
        <ele>1358.390868046</ele>
        <time>2021-11-02T12:38:25Z</time>
      </trkpt>
      <trkpt lat="43.91973" lon="7.55437">
        <ele>1358.3909270326</ele>
        <time>2021-11-02T12:38:27Z</time>
      </trkpt>
      <trkpt lat="43.91972" lon="7.55437">
        <ele>1358.3909447399</ele>
        <time>2021-11-02T12:38:28Z</time>
      </trkpt>
      <trkpt lat="43.91972" lon="7.55438">
        <ele>1358.3909525855</ele>
        <time>2021-11-02T12:38:29Z</time>
      </trkpt>
      <trkpt lat="43.91972" lon="7.55439">
        <ele>1358.3909681154</ele>
        <time>2021-11-02T12:38:30Z</time>
      </trkpt>
      <trkpt lat="43.91972" lon="7.5544">
        <ele>1356.3909991449</ele>
        <time>2021-11-02T12:38:33Z</time>
      </trkpt>
      <trkpt lat="43.91972" lon="7.55441">
        <ele>1356.3910174279</ele>
        <time>2021-11-02T12:38:34Z</time>
      </trkpt>
      <trkpt lat="43.91972" lon="7.55442">
        <ele>1357.3910109445</ele>
        <time>2021-11-02T12:38:35Z</time>
      </trkpt>
      <trkpt lat="43.91973" lon="7.55442">
        <ele>1357.3909857595</ele>
        <time>2021-11-02T12:38:36Z</time>
      </trkpt>
      <trkpt lat="43.91972" lon="7.55443">
        <ele>1359.3910594395</ele>
        <time>2021-11-02T12:38:38Z</time>
      </trkpt>
      <trkpt lat="43.91971" lon="7.55442">
        <ele>1358.3910725311</ele>
        <time>2021-11-02T12:38:39Z</time>
      </trkpt>
      <trkpt lat="43.9197" lon="7.55442">
        <ele>1359.3911008866</ele>
        <time>2021-11-02T12:38:40Z</time>
      </trkpt>
      <trkpt lat="43.9197" lon="7.55442">
        <ele>1359.391138028</ele>
        <time>2021-11-02T12:38:41Z</time>
      </trkpt>
      <trkpt lat="43.91969" lon="7.55441">
        <ele>1359.3911647346</ele>
        <time>2021-11-02T12:38:42Z</time>
      </trkpt>
      <trkpt lat="43.91967" lon="7.55443">
        <ele>1358.3912684527</ele>
        <time>2021-11-02T12:38:44Z</time>
      </trkpt>
      <trkpt lat="43.91966" lon="7.55443">
        <ele>1358.3913230021</ele>
        <time>2021-11-02T12:38:45Z</time>
      </trkpt>
      <trkpt lat="43.91965" lon="7.55443">
        <ele>1358.3913662568</ele>
        <time>2021-11-02T12:38:46Z</time>
      </trkpt>
      <trkpt lat="43.91964" lon="7.55444">
        <ele>1357.3914312723</ele>
        <time>2021-11-02T12:38:48Z</time>
      </trkpt>
      <trkpt lat="43.91964" lon="7.55445">
        <ele>1357.3914460287</ele>
        <time>2021-11-02T12:38:49Z</time>
      </trkpt>
      <trkpt lat="43.91964" lon="7.55446">
        <ele>1357.3914674674</ele>
        <time>2021-11-02T12:38:50Z</time>
      </trkpt>
      <trkpt lat="43.91963" lon="7.55448">
        <ele>1357.3915309403</ele>
        <time>2021-11-02T12:38:52Z</time>
      </trkpt>
      <trkpt lat="43.91963" lon="7.55449">
        <ele>1356.3915445682</ele>
        <time>2021-11-02T12:38:54Z</time>
      </trkpt>
      <trkpt lat="43.91964" lon="7.55451">
        <ele>1356.391535184</ele>
        <time>2021-11-02T12:38:55Z</time>
      </trkpt>
      <trkpt lat="43.91964" lon="7.55453">
        <ele>1356.3915600739</ele>
        <time>2021-11-02T12:38:56Z</time>
      </trkpt>
      <trkpt lat="43.91964" lon="7.55454">
        <ele>1356.3915795129</ele>
        <time>2021-11-02T12:38:58Z</time>
      </trkpt>
      <trkpt lat="43.91965" lon="7.55455">
        <ele>1354.3915484264</ele>
        <time>2021-11-02T12:39:00Z</time>
      </trkpt>
      <trkpt lat="43.91964" lon="7.55455">
        <ele>1354.3915998659</ele>
        <time>2021-11-02T12:39:02Z</time>
      </trkpt>
      <trkpt lat="43.91963" lon="7.55455">
        <ele>1354.3916515102</ele>
        <time>2021-11-02T12:39:03Z</time>
      </trkpt>
      <trkpt lat="43.91962" lon="7.55456">
        <ele>1352.3916796882</ele>
        <time>2021-11-02T12:39:05Z</time>
      </trkpt>
      <trkpt lat="43.91962" lon="7.55456">
        <ele>1352.3917030835</ele>
        <time>2021-11-02T12:39:06Z</time>
      </trkpt>
      <trkpt lat="43.91961" lon="7.55457">
        <ele>1351.391732675</ele>
        <time>2021-11-02T12:39:07Z</time>
      </trkpt>
      <trkpt lat="43.91961" lon="7.55457">
        <ele>1350.3917634804</ele>
        <time>2021-11-02T12:39:09Z</time>
      </trkpt>
      <trkpt lat="43.91961" lon="7.55458">
        <ele>1350.3917783185</ele>
        <time>2021-11-02T12:39:10Z</time>
      </trkpt>
      <trkpt lat="43.9196" lon="7.55459">
        <ele>1349.3918021032</ele>
        <time>2021-11-02T12:39:11Z</time>
      </trkpt>
      <trkpt lat="43.9196" lon="7.5546">
        <ele>1350.3918149906</ele>
        <time>2021-11-02T12:39:12Z</time>
      </trkpt>
      <trkpt lat="43.91961" lon="7.55461">
        <ele>1350.3918092224</ele>
        <time>2021-11-02T12:39:13Z</time>
      </trkpt>
      <trkpt lat="43.9196" lon="7.55462">
        <ele>1349.3918494175</ele>
        <time>2021-11-02T12:39:15Z</time>
      </trkpt>
      <trkpt lat="43.91959" lon="7.55462">
        <ele>1349.391891684</ele>
        <time>2021-11-02T12:39:16Z</time>
      </trkpt>
      <trkpt lat="43.91959" lon="7.55462">
        <ele>1349.3919337638</ele>
        <time>2021-11-02T12:39:19Z</time>
      </trkpt>
      <trkpt lat="43.91957" lon="7.55463">
        <ele>1349.3920434573</ele>
        <time>2021-11-02T12:39:20Z</time>
      </trkpt>
      <trkpt lat="43.91956" lon="7.55462">
        <ele>1349.3920878585</ele>
        <time>2021-11-02T12:39:21Z</time>
      </trkpt>
      <trkpt lat="43.91954" lon="7.55462">
        <ele>1349.3921313949</ele>
        <time>2021-11-02T12:39:22Z</time>
      </trkpt>
      <trkpt lat="43.91954" lon="7.55462">
        <ele>1348.392147909</ele>
        <time>2021-11-02T12:39:23Z</time>
      </trkpt>
      <trkpt lat="43.91954" lon="7.55463">
        <ele>1349.3921838244</ele>
        <time>2021-11-02T12:39:24Z</time>
      </trkpt>
      <trkpt lat="43.91954" lon="7.55463">
        <ele>1348.3921840127</ele>
        <time>2021-11-02T12:39:25Z</time>
      </trkpt>
      <trkpt lat="43.91954" lon="7.55466">
        <ele>1348.392213414</ele>
        <time>2021-11-02T12:39:27Z</time>
      </trkpt>
      <trkpt lat="43.91954" lon="7.55467">
        <ele>1349.392249019</ele>
        <time>2021-11-02T12:39:28Z</time>
      </trkpt>
      <trkpt lat="43.91953" lon="7.55468">
        <ele>1348.3922776382</ele>
        <time>2021-11-02T12:39:29Z</time>
      </trkpt>
      <trkpt lat="43.91953" lon="7.55469">
        <ele>1347.3923112708</ele>
        <time>2021-11-02T12:39:30Z</time>
      </trkpt>
      <trkpt lat="43.91952" lon="7.5547">
        <ele>1347.3923529961</ele>
        <time>2021-11-02T12:39:31Z</time>
      </trkpt>
      <trkpt lat="43.91952" lon="7.5547">
        <ele>1346.3923737739</ele>
        <time>2021-11-02T12:39:32Z</time>
      </trkpt>
      <trkpt lat="43.91952" lon="7.55471">
        <ele>1346.3923729325</ele>
        <time>2021-11-02T12:39:33Z</time>
      </trkpt>
      <trkpt lat="43.91951" lon="7.55472">
        <ele>1346.3924232967</ele>
        <time>2021-11-02T12:39:34Z</time>
      </trkpt>
      <trkpt lat="43.9195" lon="7.55473">
        <ele>1346.3924670315</ele>
        <time>2021-11-02T12:39:35Z</time>
      </trkpt>
      <trkpt lat="43.9195" lon="7.55474">
        <ele>1347.3925206999</ele>
        <time>2021-11-02T12:39:36Z</time>
      </trkpt>
      <trkpt lat="43.91949" lon="7.55474">
        <ele>1347.392569801</ele>
        <time>2021-11-02T12:39:37Z</time>
      </trkpt>
      <trkpt lat="43.91947" lon="7.55475">
        <ele>1346.3926445803</ele>
        <time>2021-11-02T12:39:39Z</time>
      </trkpt>
      <trkpt lat="43.91946" lon="7.55476">
        <ele>1344.3927085886</ele>
        <time>2021-11-02T12:39:40Z</time>
      </trkpt>
      <trkpt lat="43.91945" lon="7.55475">
        <ele>1344.3927710684</ele>
        <time>2021-11-02T12:39:41Z</time>
      </trkpt>
      <trkpt lat="43.91943" lon="7.55475">
        <ele>1344.3928516917</ele>
        <time>2021-11-02T12:39:42Z</time>
      </trkpt>
      <trkpt lat="43.91942" lon="7.55476">
        <ele>1344.3929046171</ele>
        <time>2021-11-02T12:39:43Z</time>
      </trkpt>
      <trkpt lat="43.91941" lon="7.55475">
        <ele>1344.3929565504</ele>
        <time>2021-11-02T12:39:44Z</time>
      </trkpt>
      <trkpt lat="43.9194" lon="7.55475">
        <ele>1344.3929968482</ele>
        <time>2021-11-02T12:39:46Z</time>
      </trkpt>
      <trkpt lat="43.91938" lon="7.55475">
        <ele>1344.3930849147</ele>
        <time>2021-11-02T12:39:47Z</time>
      </trkpt>
      <trkpt lat="43.91937" lon="7.55474">
        <ele>1344.3931414363</ele>
        <time>2021-11-02T12:39:48Z</time>
      </trkpt>
      <trkpt lat="43.91936" lon="7.55474">
        <ele>1344.3931735916</ele>
        <time>2021-11-02T12:39:49Z</time>
      </trkpt>
      <trkpt lat="43.91936" lon="7.55475">
        <ele>1343.3932068132</ele>
        <time>2021-11-02T12:39:50Z</time>
      </trkpt>
      <trkpt lat="43.91935" lon="7.55475">
        <ele>1343.3932257209</ele>
        <time>2021-11-02T12:39:51Z</time>
      </trkpt>
      <trkpt lat="43.91935" lon="7.55476">
        <ele>1342.3932412837</ele>
        <time>2021-11-02T12:39:52Z</time>
      </trkpt>
      <trkpt lat="43.91935" lon="7.55477">
        <ele>1343.3932840021</ele>
        <time>2021-11-02T12:39:53Z</time>
      </trkpt>
      <trkpt lat="43.91935" lon="7.55479">
        <ele>1344.3933059836</ele>
        <time>2021-11-02T12:39:54Z</time>
      </trkpt>
      <trkpt lat="43.91935" lon="7.5548">
        <ele>1344.3933069768</ele>
        <time>2021-11-02T12:39:55Z</time>
      </trkpt>
      <trkpt lat="43.91936" lon="7.55482">
        <ele>1344.393315642</ele>
        <time>2021-11-02T12:39:57Z</time>
      </trkpt>
      <trkpt lat="43.91935" lon="7.55483">
        <ele>1344.3933429039</ele>
        <time>2021-11-02T12:39:58Z</time>
      </trkpt>
      <trkpt lat="43.91935" lon="7.55484">
        <ele>1344.393396945</ele>
        <time>2021-11-02T12:39:59Z</time>
      </trkpt>
      <trkpt lat="43.91934" lon="7.55485">
        <ele>1344.3934399661</ele>
        <time>2021-11-02T12:40:00Z</time>
      </trkpt>
      <trkpt lat="43.91932" lon="7.55487">
        <ele>1344.393535373</ele>
        <time>2021-11-02T12:40:02Z</time>
      </trkpt>
      <trkpt lat="43.91932" lon="7.5549">
        <ele>1344.3935900341</ele>
        <time>2021-11-02T12:40:03Z</time>
      </trkpt>
      <trkpt lat="43.91931" lon="7.55491">
        <ele>1345.3936429323</ele>
        <time>2021-11-02T12:40:04Z</time>
      </trkpt>
      <trkpt lat="43.91931" lon="7.55492">
        <ele>1345.3936907372</ele>
        <time>2021-11-02T12:40:05Z</time>
      </trkpt>
      <trkpt lat="43.9193" lon="7.55493">
        <ele>1345.3937397961</ele>
        <time>2021-11-02T12:40:06Z</time>
      </trkpt>
      <trkpt lat="43.91928" lon="7.55493">
        <ele>1344.393826251</ele>
        <time>2021-11-02T12:40:08Z</time>
      </trkpt>
      <trkpt lat="43.91927" lon="7.55493">
        <ele>1343.3938910446</ele>
        <time>2021-11-02T12:40:09Z</time>
      </trkpt>
      <trkpt lat="43.91926" lon="7.55493">
        <ele>1342.3939428468</ele>
        <time>2021-11-02T12:40:10Z</time>
      </trkpt>
      <trkpt lat="43.91924" lon="7.55493">
        <ele>1342.3939941202</ele>
        <time>2021-11-02T12:40:11Z</time>
      </trkpt>
      <trkpt lat="43.91923" lon="7.55493">
        <ele>1342.3940825946</ele>
        <time>2021-11-02T12:40:13Z</time>
      </trkpt>
      <trkpt lat="43.91922" lon="7.55493">
        <ele>1342.3941180547</ele>
        <time>2021-11-02T12:40:14Z</time>
      </trkpt>
      <trkpt lat="43.91922" lon="7.55493">
        <ele>1342.3941378517</ele>
        <time>2021-11-02T12:40:15Z</time>
      </trkpt>
      <trkpt lat="43.91921" lon="7.55493">
        <ele>1341.3941726571</ele>
        <time>2021-11-02T12:40:16Z</time>
      </trkpt>
      <trkpt lat="43.9192" lon="7.55493">
        <ele>1341.3942199603</ele>
        <time>2021-11-02T12:40:18Z</time>
      </trkpt>
      <trkpt lat="43.9192" lon="7.55495">
        <ele>1341.3942468581</ele>
        <time>2021-11-02T12:40:19Z</time>
      </trkpt>
      <trkpt lat="43.91919" lon="7.55495">
        <ele>1342.3943004897</ele>
        <time>2021-11-02T12:40:20Z</time>
      </trkpt>
      <trkpt lat="43.91918" lon="7.55495">
        <ele>1342.3943393576</ele>
        <time>2021-11-02T12:40:21Z</time>
      </trkpt>
      <trkpt lat="43.91917" lon="7.55494">
        <ele>1342.3943712347</ele>
        <time>2021-11-02T12:40:22Z</time>
      </trkpt>
      <trkpt lat="43.91916" lon="7.55493">
        <ele>1342.3943983676</ele>
        <time>2021-11-02T12:40:23Z</time>
      </trkpt>
      <trkpt lat="43.91915" lon="7.55493">
        <ele>1342.3944446409</ele>
        <time>2021-11-02T12:40:24Z</time>
      </trkpt>
      <trkpt lat="43.91914" lon="7.55493">
        <ele>1341.3944878025</ele>
        <time>2021-11-02T12:40:25Z</time>
      </trkpt>
      <trkpt lat="43.91913" lon="7.55492">
        <ele>1342.3945217092</ele>
        <time>2021-11-02T12:40:26Z</time>
      </trkpt>
      <trkpt lat="43.91913" lon="7.55492">
        <ele>1342.3945686314</ele>
        <time>2021-11-02T12:40:27Z</time>
      </trkpt>
      <trkpt lat="43.91912" lon="7.55492">
        <ele>1342.3946070337</ele>
        <time>2021-11-02T12:40:28Z</time>
      </trkpt>
      <trkpt lat="43.91911" lon="7.55492">
        <ele>1342.3946545698</ele>
        <time>2021-11-02T12:40:29Z</time>
      </trkpt>
      <trkpt lat="43.9191" lon="7.55492">
        <ele>1342.3946923669</ele>
        <time>2021-11-02T12:40:30Z</time>
      </trkpt>
      <trkpt lat="43.91909" lon="7.55492">
        <ele>1342.3947281484</ele>
        <time>2021-11-02T12:40:31Z</time>
      </trkpt>
      <trkpt lat="43.91908" lon="7.55492">
        <ele>1341.3947716619</ele>
        <time>2021-11-02T12:40:32Z</time>
      </trkpt>
      <trkpt lat="43.91907" lon="7.55492">
        <ele>1340.3948223693</ele>
        <time>2021-11-02T12:40:33Z</time>
      </trkpt>
      <trkpt lat="43.91907" lon="7.55492">
        <ele>1340.394846943</ele>
        <time>2021-11-02T12:40:34Z</time>
      </trkpt>
      <trkpt lat="43.91906" lon="7.55492">
        <ele>1340.3948594836</ele>
        <time>2021-11-02T12:40:35Z</time>
      </trkpt>
      <trkpt lat="43.91905" lon="7.55491">
        <ele>1340.3949119711</ele>
        <time>2021-11-02T12:40:37Z</time>
      </trkpt>
      <trkpt lat="43.91904" lon="7.55491">
        <ele>1340.3949818578</ele>
        <time>2021-11-02T12:40:38Z</time>
      </trkpt>
      <trkpt lat="43.91903" lon="7.55491">
        <ele>1340.3950149487</ele>
        <time>2021-11-02T12:40:39Z</time>
      </trkpt>
      <trkpt lat="43.91902" lon="7.5549">
        <ele>1340.3950338754</ele>
        <time>2021-11-02T12:40:40Z</time>
      </trkpt>
      <trkpt lat="43.91901" lon="7.55491">
        <ele>1338.3951312975</ele>
        <time>2021-11-02T12:40:42Z</time>
      </trkpt>
      <trkpt lat="43.919" lon="7.55491">
        <ele>1338.3951826044</ele>
        <time>2021-11-02T12:40:43Z</time>
      </trkpt>
      <trkpt lat="43.91899" lon="7.55491">
        <ele>1337.3952082383</ele>
        <time>2021-11-02T12:40:45Z</time>
      </trkpt>
      <trkpt lat="43.91899" lon="7.55491">
        <ele>1336.3952249971</ele>
        <time>2021-11-02T12:40:48Z</time>
      </trkpt>
      <trkpt lat="43.91896" lon="7.5549">
        <ele>1334.3953398914</ele>
        <time>2021-11-02T12:40:49Z</time>
      </trkpt>
      <trkpt lat="43.91896" lon="7.5549">
        <ele>1334.3953620042</ele>
        <time>2021-11-02T12:40:50Z</time>
      </trkpt>
      <trkpt lat="43.91895" lon="7.55489">
        <ele>1335.3953946176</ele>
        <time>2021-11-02T12:40:51Z</time>
      </trkpt>
      <trkpt lat="43.91894" lon="7.55489">
        <ele>1335.3954189456</ele>
        <time>2021-11-02T12:40:53Z</time>
      </trkpt>
      <trkpt lat="43.91893" lon="7.55487">
        <ele>1334.3954589072</ele>
        <time>2021-11-02T12:40:54Z</time>
      </trkpt>
      <trkpt lat="43.91892" lon="7.55486">
        <ele>1334.3954735842</ele>
        <time>2021-11-02T12:40:55Z</time>
      </trkpt>
      <trkpt lat="43.91892" lon="7.55485">
        <ele>1334.3954772722</ele>
        <time>2021-11-02T12:40:56Z</time>
      </trkpt>
      <trkpt lat="43.91891" lon="7.55485">
        <ele>1334.395499153</ele>
        <time>2021-11-02T12:40:57Z</time>
      </trkpt>
      <trkpt lat="43.91891" lon="7.55484">
        <ele>1334.3955142837</ele>
        <time>2021-11-02T12:40:58Z</time>
      </trkpt>
      <trkpt lat="43.9189" lon="7.55483">
        <ele>1334.3955336148</ele>
        <time>2021-11-02T12:40:59Z</time>
      </trkpt>
      <trkpt lat="43.9189" lon="7.55483">
        <ele>1335.395558625</ele>
        <time>2021-11-02T12:41:00Z</time>
      </trkpt>
      <trkpt lat="43.91889" lon="7.55482">
        <ele>1336.3956129765</ele>
        <time>2021-11-02T12:41:02Z</time>
      </trkpt>
      <trkpt lat="43.91888" lon="7.55482">
        <ele>1336.3956190364</ele>
        <time>2021-11-02T12:41:04Z</time>
      </trkpt>
      <trkpt lat="43.91888" lon="7.55479">
        <ele>1335.3956169181</ele>
        <time>2021-11-02T12:41:05Z</time>
      </trkpt>
      <trkpt lat="43.91887" lon="7.55479">
        <ele>1334.3956576364</ele>
        <time>2021-11-02T12:41:07Z</time>
      </trkpt>
      <trkpt lat="43.91886" lon="7.55479">
        <ele>1333.3956713678</ele>
        <time>2021-11-02T12:41:08Z</time>
      </trkpt>
      <trkpt lat="43.91886" lon="7.55479">
        <ele>1334.3956958746</ele>
        <time>2021-11-02T12:41:09Z</time>
      </trkpt>
      <trkpt lat="43.91885" lon="7.55478">
        <ele>1333.3957141457</ele>
        <time>2021-11-02T12:41:13Z</time>
      </trkpt>
      <trkpt lat="43.91885" lon="7.55478">
        <ele>1331.3957495392</ele>
        <time>2021-11-02T12:41:15Z</time>
      </trkpt>
      <trkpt lat="43.91884" lon="7.55478">
        <ele>1330.3957913818</ele>
        <time>2021-11-02T12:41:17Z</time>
      </trkpt>
      <trkpt lat="43.91883" lon="7.55478">
        <ele>1330.3958151512</ele>
        <time>2021-11-02T12:41:18Z</time>
      </trkpt>
      <trkpt lat="43.91883" lon="7.55479">
        <ele>1330.395852041</ele>
        <time>2021-11-02T12:41:19Z</time>
      </trkpt>
      <trkpt lat="43.91882" lon="7.55479">
        <ele>1331.3958973245</ele>
        <time>2021-11-02T12:41:20Z</time>
      </trkpt>
      <trkpt lat="43.91881" lon="7.55479">
        <ele>1331.3959182227</ele>
        <time>2021-11-02T12:41:21Z</time>
      </trkpt>
      <trkpt lat="43.91881" lon="7.5548">
        <ele>1331.3959578939</ele>
        <time>2021-11-02T12:41:22Z</time>
      </trkpt>
      <trkpt lat="43.9188" lon="7.55481">
        <ele>1331.3959980353</ele>
        <time>2021-11-02T12:41:23Z</time>
      </trkpt>
      <trkpt lat="43.9188" lon="7.55481">
        <ele>1331.396035729</ele>
        <time>2021-11-02T12:41:24Z</time>
      </trkpt>
      <trkpt lat="43.91879" lon="7.55482">
        <ele>1332.3960741267</ele>
        <time>2021-11-02T12:41:25Z</time>
      </trkpt>
      <trkpt lat="43.91879" lon="7.55481">
        <ele>1332.3960876732</ele>
        <time>2021-11-02T12:41:26Z</time>
      </trkpt>
      <trkpt lat="43.91878" lon="7.55481">
        <ele>1332.3961322713</ele>
        <time>2021-11-02T12:41:27Z</time>
      </trkpt>
      <trkpt lat="43.91877" lon="7.55481">
        <ele>1333.3961640331</ele>
        <time>2021-11-02T12:41:28Z</time>
      </trkpt>
      <trkpt lat="43.91876" lon="7.55481">
        <ele>1333.3961936433</ele>
        <time>2021-11-02T12:41:31Z</time>
      </trkpt>
      <trkpt lat="43.91875" lon="7.55483">
        <ele>1333.3962804642</ele>
        <time>2021-11-02T12:41:32Z</time>
      </trkpt>
      <trkpt lat="43.91874" lon="7.55483">
        <ele>1332.3963216024</ele>
        <time>2021-11-02T12:41:33Z</time>
      </trkpt>
      <trkpt lat="43.91873" lon="7.55483">
        <ele>1331.3963633001</ele>
        <time>2021-11-02T12:41:34Z</time>
      </trkpt>
      <trkpt lat="43.91873" lon="7.55483">
        <ele>1331.3964032667</ele>
        <time>2021-11-02T12:41:35Z</time>
      </trkpt>
      <trkpt lat="43.91872" lon="7.55483">
        <ele>1331.3964466281</ele>
        <time>2021-11-02T12:41:36Z</time>
      </trkpt>
      <trkpt lat="43.91871" lon="7.55483">
        <ele>1331.3964803824</ele>
        <time>2021-11-02T12:41:37Z</time>
      </trkpt>
      <trkpt lat="43.9187" lon="7.55482">
        <ele>1331.3965053731</ele>
        <time>2021-11-02T12:41:38Z</time>
      </trkpt>
      <trkpt lat="43.9187" lon="7.55482">
        <ele>1331.3965165314</ele>
        <time>2021-11-02T12:41:39Z</time>
      </trkpt>
      <trkpt lat="43.91869" lon="7.5548">
        <ele>1331.396521937</ele>
        <time>2021-11-02T12:41:40Z</time>
      </trkpt>
      <trkpt lat="43.91869" lon="7.5548">
        <ele>1332.3965093036</ele>
        <time>2021-11-02T12:41:43Z</time>
      </trkpt>
      <trkpt lat="43.91869" lon="7.55477">
        <ele>1330.396495816</ele>
        <time>2021-11-02T12:41:44Z</time>
      </trkpt>
      <trkpt lat="43.91869" lon="7.55476">
        <ele>1329.3964672237</ele>
        <time>2021-11-02T12:41:45Z</time>
      </trkpt>
      <trkpt lat="43.91869" lon="7.55474">
        <ele>1328.3964427726</ele>
        <time>2021-11-02T12:41:46Z</time>
      </trkpt>
      <trkpt lat="43.91869" lon="7.55473">
        <ele>1328.3964249301</ele>
        <time>2021-11-02T12:41:47Z</time>
      </trkpt>
      <trkpt lat="43.91869" lon="7.55473">
        <ele>1327.3964695337</ele>
        <time>2021-11-02T12:42:03Z</time>
      </trkpt>
      <trkpt lat="43.91868" lon="7.55473">
        <ele>1328.3965025377</ele>
        <time>2021-11-02T12:42:04Z</time>
      </trkpt>
      <trkpt lat="43.91867" lon="7.55472">
        <ele>1328.3965127479</ele>
        <time>2021-11-02T12:42:05Z</time>
      </trkpt>
      <trkpt lat="43.91867" lon="7.55472">
        <ele>1328.3965265538</ele>
        <time>2021-11-02T12:42:06Z</time>
      </trkpt>
      <trkpt lat="43.91867" lon="7.5547">
        <ele>1328.3965198219</ele>
        <time>2021-11-02T12:42:07Z</time>
      </trkpt>
      <trkpt lat="43.91866" lon="7.5547">
        <ele>1328.39653169</ele>
        <time>2021-11-02T12:42:08Z</time>
      </trkpt>
      <trkpt lat="43.91866" lon="7.55469">
        <ele>1329.3965536654</ele>
        <time>2021-11-02T12:42:09Z</time>
      </trkpt>
      <trkpt lat="43.91865" lon="7.55468">
        <ele>1328.3965817507</ele>
        <time>2021-11-02T12:42:10Z</time>
      </trkpt>
      <trkpt lat="43.91864" lon="7.55467">
        <ele>1328.3965940265</ele>
        <time>2021-11-02T12:42:11Z</time>
      </trkpt>
      <trkpt lat="43.91864" lon="7.55466">
        <ele>1328.3966028086</ele>
        <time>2021-11-02T12:42:12Z</time>
      </trkpt>
      <trkpt lat="43.91863" lon="7.55465">
        <ele>1327.3966247945</ele>
        <time>2021-11-02T12:42:14Z</time>
      </trkpt>
      <trkpt lat="43.91863" lon="7.55465">
        <ele>1327.3966110363</ele>
        <time>2021-11-02T12:42:22Z</time>
      </trkpt>
      <trkpt lat="43.91863" lon="7.55464">
        <ele>1328.3966327045</ele>
        <time>2021-11-02T12:42:23Z</time>
      </trkpt>
      <trkpt lat="43.91862" lon="7.55465">
        <ele>1328.3966714615</ele>
        <time>2021-11-02T12:42:24Z</time>
      </trkpt>
      <trkpt lat="43.91861" lon="7.55465">
        <ele>1328.3967166195</ele>
        <time>2021-11-02T12:42:25Z</time>
      </trkpt>
      <trkpt lat="43.9186" lon="7.55466">
        <ele>1328.3967624447</ele>
        <time>2021-11-02T12:42:26Z</time>
      </trkpt>
      <trkpt lat="43.9186" lon="7.55466">
        <ele>1329.3967840384</ele>
        <time>2021-11-02T12:42:27Z</time>
      </trkpt>
      <trkpt lat="43.91859" lon="7.55466">
        <ele>1329.396831116</ele>
        <time>2021-11-02T12:42:28Z</time>
      </trkpt>
      <trkpt lat="43.91859" lon="7.55466">
        <ele>1329.396858477</ele>
        <time>2021-11-02T12:42:29Z</time>
      </trkpt>
      <trkpt lat="43.91858" lon="7.55466">
        <ele>1329.3968963096</ele>
        <time>2021-11-02T12:42:31Z</time>
      </trkpt>
      <trkpt lat="43.91857" lon="7.55466">
        <ele>1328.3969154914</ele>
        <time>2021-11-02T12:42:32Z</time>
      </trkpt>
      <trkpt lat="43.91856" lon="7.55465">
        <ele>1328.3969557875</ele>
        <time>2021-11-02T12:42:33Z</time>
      </trkpt>
      <trkpt lat="43.91856" lon="7.55464">
        <ele>1328.3969655651</ele>
        <time>2021-11-02T12:42:34Z</time>
      </trkpt>
      <trkpt lat="43.91855" lon="7.55465">
        <ele>1328.3970110044</ele>
        <time>2021-11-02T12:42:36Z</time>
      </trkpt>
      <trkpt lat="43.91855" lon="7.55465">
        <ele>1328.3970339506</ele>
        <time>2021-11-02T12:42:37Z</time>
      </trkpt>
      <trkpt lat="43.91854" lon="7.55464">
        <ele>1328.3970575192</ele>
        <time>2021-11-02T12:42:38Z</time>
      </trkpt>
      <trkpt lat="43.91854" lon="7.55464">
        <ele>1328.3970727845</ele>
        <time>2021-11-02T12:42:39Z</time>
      </trkpt>
      <trkpt lat="43.91853" lon="7.55463">
        <ele>1328.3970829842</ele>
        <time>2021-11-02T12:42:40Z</time>
      </trkpt>
      <trkpt lat="43.91853" lon="7.55462">
        <ele>1328.3970953686</ele>
        <time>2021-11-02T12:42:41Z</time>
      </trkpt>
      <trkpt lat="43.91852" lon="7.55462">
        <ele>1328.3971187679</ele>
        <time>2021-11-02T12:42:42Z</time>
      </trkpt>
      <trkpt lat="43.91851" lon="7.55461">
        <ele>1327.3971485891</ele>
        <time>2021-11-02T12:42:43Z</time>
      </trkpt>
      <trkpt lat="43.91851" lon="7.55462">
        <ele>1327.3971664455</ele>
        <time>2021-11-02T12:42:44Z</time>
      </trkpt>
      <trkpt lat="43.9185" lon="7.55462">
        <ele>1327.3971991234</ele>
        <time>2021-11-02T12:42:45Z</time>
      </trkpt>
      <trkpt lat="43.9185" lon="7.55461">
        <ele>1327.3972213716</ele>
        <time>2021-11-02T12:42:46Z</time>
      </trkpt>
      <trkpt lat="43.91849" lon="7.55461">
        <ele>1328.3972343447</ele>
        <time>2021-11-02T12:42:47Z</time>
      </trkpt>
      <trkpt lat="43.91849" lon="7.5546">
        <ele>1328.3972442242</ele>
        <time>2021-11-02T12:42:48Z</time>
      </trkpt>
      <trkpt lat="43.91849" lon="7.5546">
        <ele>1327.3972652503</ele>
        <time>2021-11-02T12:42:49Z</time>
      </trkpt>
      <trkpt lat="43.91848" lon="7.5546">
        <ele>1327.3973111409</ele>
        <time>2021-11-02T12:42:50Z</time>
      </trkpt>
      <trkpt lat="43.91847" lon="7.55461">
        <ele>1327.3973631775</ele>
        <time>2021-11-02T12:42:51Z</time>
      </trkpt>
      <trkpt lat="43.91846" lon="7.55461">
        <ele>1327.3974093868</ele>
        <time>2021-11-02T12:42:52Z</time>
      </trkpt>
      <trkpt lat="43.91845" lon="7.55462">
        <ele>1327.3974449368</ele>
        <time>2021-11-02T12:42:53Z</time>
      </trkpt>
      <trkpt lat="43.91845" lon="7.55463">
        <ele>1327.3974818954</ele>
        <time>2021-11-02T12:42:54Z</time>
      </trkpt>
      <trkpt lat="43.91844" lon="7.55463">
        <ele>1327.3975126484</ele>
        <time>2021-11-02T12:42:55Z</time>
      </trkpt>
      <trkpt lat="43.91844" lon="7.55464">
        <ele>1327.3975615472</ele>
        <time>2021-11-02T12:42:56Z</time>
      </trkpt>
      <trkpt lat="43.91843" lon="7.55464">
        <ele>1327.3976052387</ele>
        <time>2021-11-02T12:42:57Z</time>
      </trkpt>
      <trkpt lat="43.91842" lon="7.55464">
        <ele>1327.397643541</ele>
        <time>2021-11-02T12:42:58Z</time>
      </trkpt>
      <trkpt lat="43.91841" lon="7.55463">
        <ele>1327.3976738404</ele>
        <time>2021-11-02T12:42:59Z</time>
      </trkpt>
      <trkpt lat="43.91841" lon="7.55464">
        <ele>1326.3976893354</ele>
        <time>2021-11-02T12:43:02Z</time>
      </trkpt>
      <trkpt lat="43.91841" lon="7.55465">
        <ele>1326.3977049835</ele>
        <time>2021-11-02T12:43:03Z</time>
      </trkpt>
      <trkpt lat="43.91841" lon="7.55465">
        <ele>1325.3977235136</ele>
        <time>2021-11-02T12:43:04Z</time>
      </trkpt>
      <trkpt lat="43.91841" lon="7.55466">
        <ele>1325.3977409277</ele>
        <time>2021-11-02T12:43:05Z</time>
      </trkpt>
      <trkpt lat="43.9184" lon="7.55468">
        <ele>1324.3977647839</ele>
        <time>2021-11-02T12:43:06Z</time>
      </trkpt>
      <trkpt lat="43.9184" lon="7.55469">
        <ele>1324.3978024539</ele>
        <time>2021-11-02T12:43:07Z</time>
      </trkpt>
      <trkpt lat="43.91839" lon="7.5547">
        <ele>1324.397869627</ele>
        <time>2021-11-02T12:43:09Z</time>
      </trkpt>
      <trkpt lat="43.91838" lon="7.55471">
        <ele>1324.3979108994</ele>
        <time>2021-11-02T12:43:10Z</time>
      </trkpt>
      <trkpt lat="43.91838" lon="7.55471">
        <ele>1323.3979364984</ele>
        <time>2021-11-02T12:43:11Z</time>
      </trkpt>
      <trkpt lat="43.91838" lon="7.55472">
        <ele>1323.397962091</ele>
        <time>2021-11-02T12:43:14Z</time>
      </trkpt>
      <trkpt lat="43.91838" lon="7.55474">
        <ele>1323.3979781023</ele>
        <time>2021-11-02T12:43:15Z</time>
      </trkpt>
      <trkpt lat="43.91837" lon="7.55475">
        <ele>1323.3980089362</ele>
        <time>2021-11-02T12:43:16Z</time>
      </trkpt>
      <trkpt lat="43.91836" lon="7.55476">
        <ele>1323.398087291</ele>
        <time>2021-11-02T12:43:18Z</time>
      </trkpt>
      <trkpt lat="43.91835" lon="7.55476">
        <ele>1322.3981322999</ele>
        <time>2021-11-02T12:43:19Z</time>
      </trkpt>
      <trkpt lat="43.91834" lon="7.55476">
        <ele>1322.398170166</ele>
        <time>2021-11-02T12:43:21Z</time>
      </trkpt>
      <trkpt lat="43.91834" lon="7.55476">
        <ele>1321.3982028057</ele>
        <time>2021-11-02T12:43:22Z</time>
      </trkpt>
      <trkpt lat="43.91833" lon="7.55477">
        <ele>1321.3982620942</ele>
        <time>2021-11-02T12:43:23Z</time>
      </trkpt>
      <trkpt lat="43.91832" lon="7.55477">
        <ele>1321.3982982532</ele>
        <time>2021-11-02T12:43:24Z</time>
      </trkpt>
      <trkpt lat="43.91832" lon="7.55478">
        <ele>1321.3983119084</ele>
        <time>2021-11-02T12:43:25Z</time>
      </trkpt>
      <trkpt lat="43.91832" lon="7.55478">
        <ele>1320.3983141221</ele>
        <time>2021-11-02T12:43:34Z</time>
      </trkpt>
      <trkpt lat="43.9183" lon="7.55479">
        <ele>1319.3984032409</ele>
        <time>2021-11-02T12:43:35Z</time>
      </trkpt>
      <trkpt lat="43.9183" lon="7.55479">
        <ele>1318.3984256359</ele>
        <time>2021-11-02T12:43:36Z</time>
      </trkpt>
      <trkpt lat="43.91829" lon="7.55478">
        <ele>1319.3984388415</ele>
        <time>2021-11-02T12:43:56Z</time>
      </trkpt>
      <trkpt lat="43.91829" lon="7.5548">
        <ele>1319.398466323</ele>
        <time>2021-11-02T12:43:57Z</time>
      </trkpt>
      <trkpt lat="43.91829" lon="7.5548">
        <ele>1319.3985029901</ele>
        <time>2021-11-02T12:44:03Z</time>
      </trkpt>
      <trkpt lat="43.91828" lon="7.5548">
        <ele>1319.3985289259</ele>
        <time>2021-11-02T12:44:04Z</time>
      </trkpt>
      <trkpt lat="43.91827" lon="7.5548">
        <ele>1318.3985735885</ele>
        <time>2021-11-02T12:44:05Z</time>
      </trkpt>
      <trkpt lat="43.91827" lon="7.55481">
        <ele>1318.3985991137</ele>
        <time>2021-11-02T12:44:06Z</time>
      </trkpt>
      <trkpt lat="43.91826" lon="7.55482">
        <ele>1318.3986652091</ele>
        <time>2021-11-02T12:44:08Z</time>
      </trkpt>
      <trkpt lat="43.91825" lon="7.55482">
        <ele>1318.3986907884</ele>
        <time>2021-11-02T12:44:09Z</time>
      </trkpt>
      <trkpt lat="43.91825" lon="7.55482">
        <ele>1318.3987213195</ele>
        <time>2021-11-02T12:44:10Z</time>
      </trkpt>
      <trkpt lat="43.91824" lon="7.55483">
        <ele>1318.3987443934</ele>
        <time>2021-11-02T12:44:13Z</time>
      </trkpt>
      <trkpt lat="43.91824" lon="7.55483">
        <ele>1318.3987647929</ele>
        <time>2021-11-02T12:44:14Z</time>
      </trkpt>
      <trkpt lat="43.91823" lon="7.55483">
        <ele>1318.3988095308</ele>
        <time>2021-11-02T12:44:15Z</time>
      </trkpt>
      <trkpt lat="43.91822" lon="7.55484">
        <ele>1318.3988583829</ele>
        <time>2021-11-02T12:44:16Z</time>
      </trkpt>
      <trkpt lat="43.91821" lon="7.55484">
        <ele>1318.3989244775</ele>
        <time>2021-11-02T12:44:18Z</time>
      </trkpt>
      <trkpt lat="43.91821" lon="7.55485">
        <ele>1319.3989510666</ele>
        <time>2021-11-02T12:44:19Z</time>
      </trkpt>
      <trkpt lat="43.9182" lon="7.55485">
        <ele>1319.3989956648</ele>
        <time>2021-11-02T12:44:20Z</time>
      </trkpt>
      <trkpt lat="43.91819" lon="7.55485">
        <ele>1319.3990422733</ele>
        <time>2021-11-02T12:44:21Z</time>
      </trkpt>
      <trkpt lat="43.91818" lon="7.55486">
        <ele>1319.3990778935</ele>
        <time>2021-11-02T12:44:25Z</time>
      </trkpt>
      <trkpt lat="43.91817" lon="7.55486">
        <ele>1318.3991320095</ele>
        <time>2021-11-02T12:44:27Z</time>
      </trkpt>
      <trkpt lat="43.91817" lon="7.55487">
        <ele>1319.3991607945</ele>
        <time>2021-11-02T12:44:30Z</time>
      </trkpt>
      <trkpt lat="43.91816" lon="7.55487">
        <ele>1319.3991917926</ele>
        <time>2021-11-02T12:44:32Z</time>
      </trkpt>
      <trkpt lat="43.91816" lon="7.55487">
        <ele>1319.3992236389</ele>
        <time>2021-11-02T12:44:33Z</time>
      </trkpt>
      <trkpt lat="43.91815" lon="7.55487">
        <ele>1320.3992685542</ele>
        <time>2021-11-02T12:44:34Z</time>
      </trkpt>
      <trkpt lat="43.91814" lon="7.55487">
        <ele>1318.3993106325</ele>
        <time>2021-11-02T12:44:39Z</time>
      </trkpt>
      <trkpt lat="43.91813" lon="7.55487">
        <ele>1317.3993350316</ele>
        <time>2021-11-02T12:44:42Z</time>
      </trkpt>
      <trkpt lat="43.91812" lon="7.55488">
        <ele>1316.3994252711</ele>
        <time>2021-11-02T12:44:43Z</time>
      </trkpt>
      <trkpt lat="43.91811" lon="7.55488">
        <ele>1316.3994539597</ele>
        <time>2021-11-02T12:44:44Z</time>
      </trkpt>
      <trkpt lat="43.9181" lon="7.55487">
        <ele>1316.3994935286</ele>
        <time>2021-11-02T12:44:45Z</time>
      </trkpt>
      <trkpt lat="43.91809" lon="7.55485">
        <ele>1313.3995272952</ele>
        <time>2021-11-02T12:44:47Z</time>
      </trkpt>
      <trkpt lat="43.91808" lon="7.55485">
        <ele>1313.3995690225</ele>
        <time>2021-11-02T12:44:48Z</time>
      </trkpt>
      <trkpt lat="43.91808" lon="7.55483">
        <ele>1313.3995480897</ele>
        <time>2021-11-02T12:44:49Z</time>
      </trkpt>
      <trkpt lat="43.91807" lon="7.55482">
        <ele>1313.3995667157</ele>
        <time>2021-11-02T12:44:50Z</time>
      </trkpt>
      <trkpt lat="43.91807" lon="7.55482">
        <ele>1313.3996017542</ele>
        <time>2021-11-02T12:44:51Z</time>
      </trkpt>
      <trkpt lat="43.91806" lon="7.55482">
        <ele>1313.3996195369</ele>
        <time>2021-11-02T12:44:52Z</time>
      </trkpt>
      <trkpt lat="43.91805" lon="7.55481">
        <ele>1312.3996525027</ele>
        <time>2021-11-02T12:44:54Z</time>
      </trkpt>
      <trkpt lat="43.91805" lon="7.5548">
        <ele>1311.3996405618</ele>
        <time>2021-11-02T12:44:56Z</time>
      </trkpt>
      <trkpt lat="43.91806" lon="7.55481">
        <ele>1310.399606768</ele>
        <time>2021-11-02T12:44:57Z</time>
      </trkpt>
      <trkpt lat="43.91807" lon="7.55482">
        <ele>1310.3996020162</ele>
        <time>2021-11-02T12:45:00Z</time>
      </trkpt>
      <trkpt lat="43.91808" lon="7.55483">
        <ele>1309.3995313846</ele>
        <time>2021-11-02T12:45:02Z</time>
      </trkpt>
      <trkpt lat="43.9181" lon="7.55485">
        <ele>1309.3994890199</ele>
        <time>2021-11-02T12:45:04Z</time>
      </trkpt>
      <trkpt lat="43.9181" lon="7.55485">
        <ele>1308.3994609755</ele>
        <time>2021-11-02T12:45:11Z</time>
      </trkpt>
      <trkpt lat="43.91811" lon="7.55484">
        <ele>1308.3994265517</ele>
        <time>2021-11-02T12:45:14Z</time>
      </trkpt>
      <trkpt lat="43.91811" lon="7.55485">
        <ele>1309.3994143098</ele>
        <time>2021-11-02T12:45:16Z</time>
      </trkpt>
      <trkpt lat="43.91811" lon="7.55486">
        <ele>1310.399459534</ele>
        <time>2021-11-02T12:45:18Z</time>
      </trkpt>
      <trkpt lat="43.9181" lon="7.55486">
        <ele>1310.3994816488</ele>
        <time>2021-11-02T12:45:19Z</time>
      </trkpt>
      <trkpt lat="43.9181" lon="7.55486">
        <ele>1310.3995017831</ele>
        <time>2021-11-02T12:45:20Z</time>
      </trkpt>
      <trkpt lat="43.91809" lon="7.55485">
        <ele>1310.3995125284</ele>
        <time>2021-11-02T12:45:21Z</time>
      </trkpt>
      <trkpt lat="43.91809" lon="7.55484">
        <ele>1309.3995254808</ele>
        <time>2021-11-02T12:45:23Z</time>
      </trkpt>
      <trkpt lat="43.91809" lon="7.55484">
        <ele>1309.3995254808</ele>
        <time>2021-11-02T12:45:24Z</time>
      </trkpt>
      <trkpt lat="43.91807" lon="7.55482">
        <ele>1308.3995745328</ele>
        <time>2021-11-02T12:45:25Z</time>
      </trkpt>
      <trkpt lat="43.91807" lon="7.55481">
        <ele>1309.3995950782</ele>
        <time>2021-11-02T12:45:27Z</time>
      </trkpt>
      <trkpt lat="43.91806" lon="7.55481">
        <ele>1310.3996304574</ele>
        <time>2021-11-02T12:45:28Z</time>
      </trkpt>
      <trkpt lat="43.91805" lon="7.5548">
        <ele>1310.399654566</ele>
        <time>2021-11-02T12:45:29Z</time>
      </trkpt>
      <trkpt lat="43.91805" lon="7.5548">
        <ele>1310.3996632272</ele>
        <time>2021-11-02T12:45:30Z</time>
      </trkpt>
      <trkpt lat="43.91804" lon="7.55479">
        <ele>1310.3996726414</ele>
        <time>2021-11-02T12:45:33Z</time>
      </trkpt>
      <trkpt lat="43.91803" lon="7.55479">
        <ele>1308.3997474078</ele>
        <time>2021-11-02T12:45:34Z</time>
      </trkpt>
      <trkpt lat="43.91802" lon="7.55479">
        <ele>1308.3997795473</ele>
        <time>2021-11-02T12:45:35Z</time>
      </trkpt>
      <trkpt lat="43.91802" lon="7.55478">
        <ele>1308.39979278</ele>
        <time>2021-11-02T12:45:36Z</time>
      </trkpt>
      <trkpt lat="43.91801" lon="7.55478">
        <ele>1308.399823782</ele>
        <time>2021-11-02T12:45:37Z</time>
      </trkpt>
      <trkpt lat="43.91801" lon="7.55478">
        <ele>1309.3998469214</ele>
        <time>2021-11-02T12:45:39Z</time>
      </trkpt>
      <trkpt lat="43.91799" lon="7.55478">
        <ele>1309.3999098952</ele>
        <time>2021-11-02T12:45:40Z</time>
      </trkpt>
      <trkpt lat="43.91798" lon="7.55478">
        <ele>1310.3999585368</ele>
        <time>2021-11-02T12:45:41Z</time>
      </trkpt>
      <trkpt lat="43.91798" lon="7.55478">
        <ele>1309.3999828606</ele>
        <time>2021-11-02T12:45:43Z</time>
      </trkpt>
      <trkpt lat="43.91797" lon="7.55477">
        <ele>1309.3999937254</ele>
        <time>2021-11-02T12:45:44Z</time>
      </trkpt>
      <trkpt lat="43.91797" lon="7.55477">
        <ele>1308.4000243352</ele>
        <time>2021-11-02T12:45:45Z</time>
      </trkpt>
      <trkpt lat="43.91797" lon="7.55476">
        <ele>1308.4000135535</ele>
        <time>2021-11-02T12:45:46Z</time>
      </trkpt>
      <trkpt lat="43.91797" lon="7.55475">
        <ele>1310.399999879</ele>
        <time>2021-11-02T12:45:52Z</time>
      </trkpt>
      <trkpt lat="43.91795" lon="7.55477">
        <ele>1310.4001106385</ele>
        <time>2021-11-02T12:45:53Z</time>
      </trkpt>
      <trkpt lat="43.91794" lon="7.55477">
        <ele>1310.4001342819</ele>
        <time>2021-11-02T12:45:54Z</time>
      </trkpt>
      <trkpt lat="43.91795" lon="7.55478">
        <ele>1309.4001346906</ele>
        <time>2021-11-02T12:45:55Z</time>
      </trkpt>
      <trkpt lat="43.91794" lon="7.55479">
        <ele>1307.4001659439</ele>
        <time>2021-11-02T12:45:57Z</time>
      </trkpt>
      <trkpt lat="43.91793" lon="7.5548">
        <ele>1307.4002397726</ele>
        <time>2021-11-02T12:45:59Z</time>
      </trkpt>
      <trkpt lat="43.91792" lon="7.5548">
        <ele>1306.4002906486</ele>
        <time>2021-11-02T12:46:00Z</time>
      </trkpt>
      <trkpt lat="43.91791" lon="7.55479">
        <ele>1305.4003251562</ele>
        <time>2021-11-02T12:46:01Z</time>
      </trkpt>
      <trkpt lat="43.91791" lon="7.5548">
        <ele>1305.4003559088</ele>
        <time>2021-11-02T12:46:05Z</time>
      </trkpt>
      <trkpt lat="43.9179" lon="7.55482">
        <ele>1305.4004236195</ele>
        <time>2021-11-02T12:46:06Z</time>
      </trkpt>
      <trkpt lat="43.91789" lon="7.55482">
        <ele>1304.4004528638</ele>
        <time>2021-11-02T12:46:08Z</time>
      </trkpt>
      <trkpt lat="43.91788" lon="7.55482">
        <ele>1303.4005028341</ele>
        <time>2021-11-02T12:46:09Z</time>
      </trkpt>
      <trkpt lat="43.91787" lon="7.55482">
        <ele>1303.4005567179</ele>
        <time>2021-11-02T12:46:10Z</time>
      </trkpt>
      <trkpt lat="43.91786" lon="7.55482">
        <ele>1302.4005879125</ele>
        <time>2021-11-02T12:46:11Z</time>
      </trkpt>
      <trkpt lat="43.91786" lon="7.55482">
        <ele>1302.4006170486</ele>
        <time>2021-11-02T12:46:12Z</time>
      </trkpt>
      <trkpt lat="43.91785" lon="7.55482">
        <ele>1302.4006555381</ele>
        <time>2021-11-02T12:46:13Z</time>
      </trkpt>
      <trkpt lat="43.91784" lon="7.55482">
        <ele>1302.4006902844</ele>
        <time>2021-11-02T12:46:14Z</time>
      </trkpt>
      <trkpt lat="43.91784" lon="7.55482">
        <ele>1302.4007117876</ele>
        <time>2021-11-02T12:46:15Z</time>
      </trkpt>
      <trkpt lat="43.91782" lon="7.55482">
        <ele>1302.4007848492</ele>
        <time>2021-11-02T12:46:17Z</time>
      </trkpt>
      <trkpt lat="43.91782" lon="7.55481">
        <ele>1302.4008144664</ele>
        <time>2021-11-02T12:46:18Z</time>
      </trkpt>
      <trkpt lat="43.91781" lon="7.55481">
        <ele>1302.4008399082</ele>
        <time>2021-11-02T12:46:19Z</time>
      </trkpt>
      <trkpt lat="43.9178" lon="7.5548">
        <ele>1301.4008705227</ele>
        <time>2021-11-02T12:46:20Z</time>
      </trkpt>
      <trkpt lat="43.91779" lon="7.5548">
        <ele>1302.4009179994</ele>
        <time>2021-11-02T12:46:21Z</time>
      </trkpt>
      <trkpt lat="43.91777" lon="7.5548">
        <ele>1303.4010060816</ele>
        <time>2021-11-02T12:46:23Z</time>
      </trkpt>
      <trkpt lat="43.91777" lon="7.5548">
        <ele>1303.4010455221</ele>
        <time>2021-11-02T12:46:25Z</time>
      </trkpt>
      <trkpt lat="43.91775" lon="7.5548">
        <ele>1303.4011145037</ele>
        <time>2021-11-02T12:46:27Z</time>
      </trkpt>
      <trkpt lat="43.91774" lon="7.5548">
        <ele>1303.4011670894</ele>
        <time>2021-11-02T12:46:29Z</time>
      </trkpt>
      <trkpt lat="43.91773" lon="7.5548">
        <ele>1303.4011960762</ele>
        <time>2021-11-02T12:46:30Z</time>
      </trkpt>
      <trkpt lat="43.91772" lon="7.55481">
        <ele>1304.4012511685</ele>
        <time>2021-11-02T12:46:31Z</time>
      </trkpt>
      <trkpt lat="43.91771" lon="7.55481">
        <ele>1304.4013369751</ele>
        <time>2021-11-02T12:46:33Z</time>
      </trkpt>
      <trkpt lat="43.9177" lon="7.55481">
        <ele>1304.4013851044</ele>
        <time>2021-11-02T12:46:34Z</time>
      </trkpt>
      <trkpt lat="43.91769" lon="7.5548">
        <ele>1304.4014296393</ele>
        <time>2021-11-02T12:46:35Z</time>
      </trkpt>
      <trkpt lat="43.91768" lon="7.5548">
        <ele>1304.4014812573</ele>
        <time>2021-11-02T12:46:36Z</time>
      </trkpt>
      <trkpt lat="43.91766" lon="7.55479">
        <ele>1304.4015347205</ele>
        <time>2021-11-02T12:46:37Z</time>
      </trkpt>
      <trkpt lat="43.91764" lon="7.55479">
        <ele>1304.4016344247</ele>
        <time>2021-11-02T12:46:39Z</time>
      </trkpt>
      <trkpt lat="43.91764" lon="7.55478">
        <ele>1304.4016526439</ele>
        <time>2021-11-02T12:46:40Z</time>
      </trkpt>
      <trkpt lat="43.91763" lon="7.55477">
        <ele>1304.4016781133</ele>
        <time>2021-11-02T12:46:41Z</time>
      </trkpt>
      <trkpt lat="43.91762" lon="7.55477">
        <ele>1303.4016940261</ele>
        <time>2021-11-02T12:46:42Z</time>
      </trkpt>
      <trkpt lat="43.91762" lon="7.55477">
        <ele>1303.4017195379</ele>
        <time>2021-11-02T12:46:43Z</time>
      </trkpt>
      <trkpt lat="43.91761" lon="7.55477">
        <ele>1304.40175633</ele>
        <time>2021-11-02T12:46:44Z</time>
      </trkpt>
      <trkpt lat="43.91761" lon="7.55477">
        <ele>1303.4017818317</ele>
        <time>2021-11-02T12:46:45Z</time>
      </trkpt>
      <trkpt lat="43.9176" lon="7.55478">
        <ele>1302.4018270389</ele>
        <time>2021-11-02T12:46:47Z</time>
      </trkpt>
      <trkpt lat="43.91759" lon="7.55477">
        <ele>1301.4018786344</ele>
        <time>2021-11-02T12:46:48Z</time>
      </trkpt>
      <trkpt lat="43.91758" lon="7.55476">
        <ele>1301.4019133556</ele>
        <time>2021-11-02T12:46:49Z</time>
      </trkpt>
      <trkpt lat="43.91757" lon="7.55475">
        <ele>1301.4019177052</ele>
        <time>2021-11-02T12:46:50Z</time>
      </trkpt>
      <trkpt lat="43.91757" lon="7.55474">
        <ele>1301.4019196519</ele>
        <time>2021-11-02T12:46:51Z</time>
      </trkpt>
      <trkpt lat="43.91756" lon="7.55474">
        <ele>1301.4019578442</ele>
        <time>2021-11-02T12:46:53Z</time>
      </trkpt>
      <trkpt lat="43.91756" lon="7.55475">
        <ele>1303.4019548267</ele>
        <time>2021-11-02T12:46:57Z</time>
      </trkpt>
      <trkpt lat="43.91757" lon="7.55476">
        <ele>1302.4019386796</ele>
        <time>2021-11-02T12:46:59Z</time>
      </trkpt>
      <trkpt lat="43.91757" lon="7.55475">
        <ele>1302.4019036825</ele>
        <time>2021-11-02T12:47:17Z</time>
      </trkpt>
      <trkpt lat="43.91757" lon="7.55475">
        <ele>1303.4019450144</ele>
        <time>2021-11-02T12:47:19Z</time>
      </trkpt>
      <trkpt lat="43.91756" lon="7.55475">
        <ele>1304.4019647025</ele>
        <time>2021-11-02T12:47:45Z</time>
      </trkpt>
      <trkpt lat="43.91757" lon="7.55473">
        <ele>1302.4019175605</ele>
        <time>2021-11-02T12:47:46Z</time>
      </trkpt>
      <trkpt lat="43.91756" lon="7.55472">
        <ele>1299.4019228584</ele>
        <time>2021-11-02T12:48:51Z</time>
      </trkpt>
      <trkpt lat="43.91756" lon="7.55471">
        <ele>1297.4019192115</ele>
        <time>2021-11-02T12:48:56Z</time>
      </trkpt>
      <trkpt lat="43.91757" lon="7.55472">
        <ele>1298.4018719501</ele>
        <time>2021-11-02T12:48:57Z</time>
      </trkpt>
      <trkpt lat="43.91758" lon="7.55472">
        <ele>1297.401869629</ele>
        <time>2021-11-02T12:49:05Z</time>
      </trkpt>
      <trkpt lat="43.91758" lon="7.55474">
        <ele>1296.4018843908</ele>
        <time>2021-11-02T12:49:06Z</time>
      </trkpt>
      <trkpt lat="43.91757" lon="7.55474">
        <ele>1296.4019127176</ele>
        <time>2021-11-02T12:49:08Z</time>
      </trkpt>
      <trkpt lat="43.91757" lon="7.55474">
        <ele>1297.4019320735</ele>
        <time>2021-11-02T12:49:09Z</time>
      </trkpt>
      <trkpt lat="43.91756" lon="7.55475">
        <ele>1297.401961359</ele>
        <time>2021-11-02T12:49:10Z</time>
      </trkpt>
      <trkpt lat="43.91755" lon="7.55474">
        <ele>1297.4020108674</ele>
        <time>2021-11-02T12:49:11Z</time>
      </trkpt>
      <trkpt lat="43.91755" lon="7.55475">
        <ele>1298.4020383622</ele>
        <time>2021-11-02T12:49:13Z</time>
      </trkpt>
      <trkpt lat="43.91755" lon="7.55476">
        <ele>1298.4020604985</ele>
        <time>2021-11-02T12:49:14Z</time>
      </trkpt>
      <trkpt lat="43.91754" lon="7.55477">
        <ele>1298.4020949883</ele>
        <time>2021-11-02T12:49:15Z</time>
      </trkpt>
      <trkpt lat="43.91753" lon="7.55477">
        <ele>1299.4021480528</ele>
        <time>2021-11-02T12:49:16Z</time>
      </trkpt>
      <trkpt lat="43.91752" lon="7.55478">
        <ele>1299.4021961064</ele>
        <time>2021-11-02T12:49:17Z</time>
      </trkpt>
      <trkpt lat="43.91752" lon="7.55478">
        <ele>1299.4022351076</ele>
        <time>2021-11-02T12:49:18Z</time>
      </trkpt>
      <trkpt lat="43.91751" lon="7.55479">
        <ele>1299.4022832421</ele>
        <time>2021-11-02T12:49:19Z</time>
      </trkpt>
      <trkpt lat="43.9175" lon="7.55479">
        <ele>1298.4023179934</ele>
        <time>2021-11-02T12:49:20Z</time>
      </trkpt>
      <trkpt lat="43.91749" lon="7.55479">
        <ele>1298.4023673324</ele>
        <time>2021-11-02T12:49:21Z</time>
      </trkpt>
      <trkpt lat="43.91748" lon="7.55479">
        <ele>1298.4024087858</ele>
        <time>2021-11-02T12:49:22Z</time>
      </trkpt>
      <trkpt lat="43.91748" lon="7.55479">
        <ele>1298.4024506897</ele>
        <time>2021-11-02T12:49:23Z</time>
      </trkpt>
      <trkpt lat="43.91747" lon="7.5548">
        <ele>1297.4024954222</ele>
        <time>2021-11-02T12:49:24Z</time>
      </trkpt>
      <trkpt lat="43.91746" lon="7.5548">
        <ele>1297.4025605348</ele>
        <time>2021-11-02T12:49:25Z</time>
      </trkpt>
      <trkpt lat="43.91745" lon="7.55481">
        <ele>1298.4026149275</ele>
        <time>2021-11-02T12:49:26Z</time>
      </trkpt>
      <trkpt lat="43.91744" lon="7.55481">
        <ele>1298.4026558995</ele>
        <time>2021-11-02T12:49:27Z</time>
      </trkpt>
      <trkpt lat="43.91743" lon="7.55481">
        <ele>1298.4027061627</ele>
        <time>2021-11-02T12:49:28Z</time>
      </trkpt>
      <trkpt lat="43.91741" lon="7.55481">
        <ele>1298.4027689793</ele>
        <time>2021-11-02T12:49:29Z</time>
      </trkpt>
      <trkpt lat="43.91741" lon="7.55481">
        <ele>1297.4027924225</ele>
        <time>2021-11-02T12:49:30Z</time>
      </trkpt>
      <trkpt lat="43.9174" lon="7.55481">
        <ele>1297.4028327136</ele>
        <time>2021-11-02T12:49:31Z</time>
      </trkpt>
      <trkpt lat="43.91738" lon="7.55482">
        <ele>1296.4029272973</ele>
        <time>2021-11-02T12:49:33Z</time>
      </trkpt>
      <trkpt lat="43.91738" lon="7.55482">
        <ele>1297.4029666643</ele>
        <time>2021-11-02T12:49:34Z</time>
      </trkpt>
      <trkpt lat="43.91737" lon="7.55483">
        <ele>1297.4030127056</ele>
        <time>2021-11-02T12:49:35Z</time>
      </trkpt>
      <trkpt lat="43.91736" lon="7.55484">
        <ele>1296.4030632655</ele>
        <time>2021-11-02T12:49:36Z</time>
      </trkpt>
      <trkpt lat="43.91735" lon="7.55485">
        <ele>1296.4031196395</ele>
        <time>2021-11-02T12:49:37Z</time>
      </trkpt>
      <trkpt lat="43.91735" lon="7.55485">
        <ele>1296.403155359</ele>
        <time>2021-11-02T12:49:38Z</time>
      </trkpt>
      <trkpt lat="43.91734" lon="7.55485">
        <ele>1296.4031887371</ele>
        <time>2021-11-02T12:49:39Z</time>
      </trkpt>
      <trkpt lat="43.91734" lon="7.55486">
        <ele>1296.4032041055</ele>
        <time>2021-11-02T12:49:40Z</time>
      </trkpt>
      <trkpt lat="43.91734" lon="7.55487">
        <ele>1296.4032051425</ele>
        <time>2021-11-02T12:49:41Z</time>
      </trkpt>
      <trkpt lat="43.91734" lon="7.55488">
        <ele>1296.4031981166</ele>
        <time>2021-11-02T12:49:42Z</time>
      </trkpt>
      <trkpt lat="43.91735" lon="7.55488">
        <ele>1295.4031791091</ele>
        <time>2021-11-02T12:49:43Z</time>
      </trkpt>
      <trkpt lat="43.91735" lon="7.55489">
        <ele>1295.4031764611</ele>
        <time>2021-11-02T12:49:44Z</time>
      </trkpt>
      <trkpt lat="43.91736" lon="7.5549">
        <ele>1293.4031674744</ele>
        <time>2021-11-02T12:49:45Z</time>
      </trkpt>
      <trkpt lat="43.91736" lon="7.55491">
        <ele>1293.4031849131</ele>
        <time>2021-11-02T12:49:46Z</time>
      </trkpt>
      <trkpt lat="43.91735" lon="7.55491">
        <ele>1292.4032389437</ele>
        <time>2021-11-02T12:49:48Z</time>
      </trkpt>
      <trkpt lat="43.91734" lon="7.55491">
        <ele>1291.403265016</ele>
        <time>2021-11-02T12:49:49Z</time>
      </trkpt>
      <trkpt lat="43.91734" lon="7.55492">
        <ele>1291.4032907588</ele>
        <time>2021-11-02T12:49:50Z</time>
      </trkpt>
      <trkpt lat="43.91733" lon="7.55493">
        <ele>1291.4033242136</ele>
        <time>2021-11-02T12:49:52Z</time>
      </trkpt>
      <trkpt lat="43.91734" lon="7.55496">
        <ele>1290.403332399</ele>
        <time>2021-11-02T12:49:53Z</time>
      </trkpt>
      <trkpt lat="43.91734" lon="7.55497">
        <ele>1289.4033252268</ele>
        <time>2021-11-02T12:49:54Z</time>
      </trkpt>
      <trkpt lat="43.91734" lon="7.55498">
        <ele>1290.4033519651</ele>
        <time>2021-11-02T12:49:55Z</time>
      </trkpt>
      <trkpt lat="43.91732" lon="7.55499">
        <ele>1289.4034401371</ele>
        <time>2021-11-02T12:49:57Z</time>
      </trkpt>
      <trkpt lat="43.91731" lon="7.55499">
        <ele>1289.4034943793</ele>
        <time>2021-11-02T12:49:58Z</time>
      </trkpt>
      <trkpt lat="43.91731" lon="7.55499">
        <ele>1289.4035296489</ele>
        <time>2021-11-02T12:49:59Z</time>
      </trkpt>
      <trkpt lat="43.91729" lon="7.55499">
        <ele>1289.4036374578</ele>
        <time>2021-11-02T12:50:01Z</time>
      </trkpt>
      <trkpt lat="43.91727" lon="7.555">
        <ele>1289.4037174709</ele>
        <time>2021-11-02T12:50:03Z</time>
      </trkpt>
      <trkpt lat="43.91727" lon="7.55501">
        <ele>1289.4037482227</ele>
        <time>2021-11-02T12:50:04Z</time>
      </trkpt>
      <trkpt lat="43.91726" lon="7.55501">
        <ele>1289.4038023649</ele>
        <time>2021-11-02T12:50:05Z</time>
      </trkpt>
      <trkpt lat="43.91725" lon="7.55502">
        <ele>1290.4038532298</ele>
        <time>2021-11-02T12:50:06Z</time>
      </trkpt>
      <trkpt lat="43.91723" lon="7.55503">
        <ele>1289.4039454912</ele>
        <time>2021-11-02T12:50:08Z</time>
      </trkpt>
      <trkpt lat="43.91723" lon="7.55504">
        <ele>1289.4039754443</ele>
        <time>2021-11-02T12:50:09Z</time>
      </trkpt>
      <trkpt lat="43.91723" lon="7.55504">
        <ele>1289.4039987203</ele>
        <time>2021-11-02T12:50:10Z</time>
      </trkpt>
      <trkpt lat="43.91721" lon="7.55506">
        <ele>1288.4040699648</ele>
        <time>2021-11-02T12:50:12Z</time>
      </trkpt>
      <trkpt lat="43.9172" lon="7.55507">
        <ele>1288.4041300046</ele>
        <time>2021-11-02T12:50:13Z</time>
      </trkpt>
      <trkpt lat="43.9172" lon="7.55507">
        <ele>1288.4041816186</ele>
        <time>2021-11-02T12:50:14Z</time>
      </trkpt>
      <trkpt lat="43.91718" lon="7.55507">
        <ele>1288.4042380031</ele>
        <time>2021-11-02T12:50:15Z</time>
      </trkpt>
      <trkpt lat="43.91718" lon="7.55508">
        <ele>1286.4042588764</ele>
        <time>2021-11-02T12:50:20Z</time>
      </trkpt>
      <trkpt lat="43.91717" lon="7.55509">
        <ele>1285.4043112152</ele>
        <time>2021-11-02T12:50:22Z</time>
      </trkpt>
      <trkpt lat="43.91717" lon="7.5551">
        <ele>1286.4043263444</ele>
        <time>2021-11-02T12:50:23Z</time>
      </trkpt>
      <trkpt lat="43.91717" lon="7.55511">
        <ele>1285.4043499562</ele>
        <time>2021-11-02T12:50:25Z</time>
      </trkpt>
      <trkpt lat="43.91717" lon="7.55512">
        <ele>1285.4043470051</ele>
        <time>2021-11-02T12:50:26Z</time>
      </trkpt>
      <trkpt lat="43.91718" lon="7.55512">
        <ele>1285.4043381322</ele>
        <time>2021-11-02T12:50:27Z</time>
      </trkpt>
      <trkpt lat="43.91718" lon="7.55513">
        <ele>1285.4043295157</ele>
        <time>2021-11-02T12:50:28Z</time>
      </trkpt>
      <trkpt lat="43.91718" lon="7.55513">
        <ele>1285.4043175723</ele>
        <time>2021-11-02T12:50:29Z</time>
      </trkpt>
      <trkpt lat="43.91719" lon="7.55514">
        <ele>1285.4043171498</ele>
        <time>2021-11-02T12:50:30Z</time>
      </trkpt>
      <trkpt lat="43.91719" lon="7.55515">
        <ele>1285.4043222868</ele>
        <time>2021-11-02T12:50:31Z</time>
      </trkpt>
      <trkpt lat="43.91719" lon="7.55516">
        <ele>1285.4043308602</ele>
        <time>2021-11-02T12:50:32Z</time>
      </trkpt>
      <trkpt lat="43.91719" lon="7.55518">
        <ele>1285.4043541844</ele>
        <time>2021-11-02T12:50:33Z</time>
      </trkpt>
      <trkpt lat="43.91718" lon="7.55518">
        <ele>1285.4043863396</ele>
        <time>2021-11-02T12:50:34Z</time>
      </trkpt>
      <trkpt lat="43.91718" lon="7.55519">
        <ele>1284.4044205833</ele>
        <time>2021-11-02T12:50:35Z</time>
      </trkpt>
      <trkpt lat="43.91717" lon="7.5552">
        <ele>1284.4044517295</ele>
        <time>2021-11-02T12:50:36Z</time>
      </trkpt>
      <trkpt lat="43.91717" lon="7.5552">
        <ele>1284.4044864551</ele>
        <time>2021-11-02T12:50:41Z</time>
      </trkpt>
      <trkpt lat="43.91715" lon="7.55521">
        <ele>1283.404583889</ele>
        <time>2021-11-02T12:50:42Z</time>
      </trkpt>
      <trkpt lat="43.91714" lon="7.55522">
        <ele>1282.40463043</ele>
        <time>2021-11-02T12:50:44Z</time>
      </trkpt>
      <trkpt lat="43.91714" lon="7.55522">
        <ele>1282.404651149</ele>
        <time>2021-11-02T12:50:47Z</time>
      </trkpt>
      <trkpt lat="43.91712" lon="7.55522">
        <ele>1281.404769814</ele>
        <time>2021-11-02T12:50:48Z</time>
      </trkpt>
      <trkpt lat="43.91711" lon="7.55522">
        <ele>1280.4047841955</ele>
        <time>2021-11-02T12:50:49Z</time>
      </trkpt>
      <trkpt lat="43.91711" lon="7.55523">
        <ele>1280.4048121811</ele>
        <time>2021-11-02T12:50:50Z</time>
      </trkpt>
      <trkpt lat="43.9171" lon="7.55524">
        <ele>1279.4048578683</ele>
        <time>2021-11-02T12:50:51Z</time>
      </trkpt>
      <trkpt lat="43.91709" lon="7.55524">
        <ele>1279.4049021392</ele>
        <time>2021-11-02T12:50:52Z</time>
      </trkpt>
      <trkpt lat="43.91707" lon="7.55523">
        <ele>1278.4050017613</ele>
        <time>2021-11-02T12:50:54Z</time>
      </trkpt>
      <trkpt lat="43.91707" lon="7.55523">
        <ele>1277.4050249966</ele>
        <time>2021-11-02T12:50:55Z</time>
      </trkpt>
      <trkpt lat="43.91705" lon="7.55523">
        <ele>1277.4050894632</ele>
        <time>2021-11-02T12:50:57Z</time>
      </trkpt>
      <trkpt lat="43.91705" lon="7.55523">
        <ele>1278.4051207963</ele>
        <time>2021-11-02T12:50:58Z</time>
      </trkpt>
      <trkpt lat="43.91704" lon="7.55524">
        <ele>1278.4051660668</ele>
        <time>2021-11-02T12:50:59Z</time>
      </trkpt>
      <trkpt lat="43.91703" lon="7.55525">
        <ele>1278.4052164204</ele>
        <time>2021-11-02T12:51:00Z</time>
      </trkpt>
      <trkpt lat="43.91703" lon="7.55525">
        <ele>1278.4052346525</ele>
        <time>2021-11-02T12:51:03Z</time>
      </trkpt>
      <trkpt lat="43.91703" lon="7.55526">
        <ele>1277.4052604998</ele>
        <time>2021-11-02T12:51:13Z</time>
      </trkpt>
      <trkpt lat="43.91702" lon="7.55527">
        <ele>1277.405319475</ele>
        <time>2021-11-02T12:51:14Z</time>
      </trkpt>
      <trkpt lat="43.91701" lon="7.55528">
        <ele>1276.4053787392</ele>
        <time>2021-11-02T12:51:15Z</time>
      </trkpt>
      <trkpt lat="43.917" lon="7.55528">
        <ele>1277.4054101358</ele>
        <time>2021-11-02T12:51:21Z</time>
      </trkpt>
      <trkpt lat="43.91699" lon="7.55531">
        <ele>1278.4054803767</ele>
        <time>2021-11-02T12:51:22Z</time>
      </trkpt>
      <trkpt lat="43.91699" lon="7.55531">
        <ele>1278.4055241504</ele>
        <time>2021-11-02T12:51:24Z</time>
      </trkpt>
      <trkpt lat="43.91698" lon="7.55531">
        <ele>1279.4055759648</ele>
        <time>2021-11-02T12:51:25Z</time>
      </trkpt>
      <trkpt lat="43.91697" lon="7.55531">
        <ele>1280.4056175822</ele>
        <time>2021-11-02T12:51:27Z</time>
      </trkpt>
      <trkpt lat="43.91697" lon="7.55532">
        <ele>1280.4056261636</ele>
        <time>2021-11-02T12:51:28Z</time>
      </trkpt>
      <trkpt lat="43.91696" lon="7.55533">
        <ele>1279.405654612</ele>
        <time>2021-11-02T12:51:30Z</time>
      </trkpt>
      <trkpt lat="43.91695" lon="7.55533">
        <ele>1279.4057124068</ele>
        <time>2021-11-02T12:51:31Z</time>
      </trkpt>
      <trkpt lat="43.91695" lon="7.55534">
        <ele>1279.4057583756</ele>
        <time>2021-11-02T12:51:32Z</time>
      </trkpt>
      <trkpt lat="43.91694" lon="7.55535">
        <ele>1279.4057918977</ele>
        <time>2021-11-02T12:51:33Z</time>
      </trkpt>
      <trkpt lat="43.91694" lon="7.55535">
        <ele>1279.4058143293</ele>
        <time>2021-11-02T12:51:34Z</time>
      </trkpt>
      <trkpt lat="43.91694" lon="7.55536">
        <ele>1279.4058221141</ele>
        <time>2021-11-02T12:51:36Z</time>
      </trkpt>
      <trkpt lat="43.91694" lon="7.55537">
        <ele>1279.4058444011</ele>
        <time>2021-11-02T12:51:37Z</time>
      </trkpt>
      <trkpt lat="43.91693" lon="7.55538">
        <ele>1279.4058632958</ele>
        <time>2021-11-02T12:51:40Z</time>
      </trkpt>
      <trkpt lat="43.91692" lon="7.55539">
        <ele>1279.4059330195</ele>
        <time>2021-11-02T12:51:41Z</time>
      </trkpt>
      <trkpt lat="43.91692" lon="7.5554">
        <ele>1280.4059713284</ele>
        <time>2021-11-02T12:51:43Z</time>
      </trkpt>
      <trkpt lat="43.91692" lon="7.55541">
        <ele>1280.405990608</ele>
        <time>2021-11-02T12:51:46Z</time>
      </trkpt>
      <trkpt lat="43.91692" lon="7.55542">
        <ele>1279.4060047253</ele>
        <time>2021-11-02T12:51:47Z</time>
      </trkpt>
      <trkpt lat="43.91692" lon="7.55543">
        <ele>1278.4059970549</ele>
        <time>2021-11-02T12:51:49Z</time>
      </trkpt>
      <trkpt lat="43.91692" lon="7.55544">
        <ele>1279.4060318944</ele>
        <time>2021-11-02T12:51:53Z</time>
      </trkpt>
      <trkpt lat="43.91692" lon="7.55545">
        <ele>1279.406047841</ele>
        <time>2021-11-02T12:51:54Z</time>
      </trkpt>
      <trkpt lat="43.91691" lon="7.55546">
        <ele>1279.4060733245</ele>
        <time>2021-11-02T12:51:55Z</time>
      </trkpt>
      <trkpt lat="43.91691" lon="7.55546">
        <ele>1278.4061011191</ele>
        <time>2021-11-02T12:51:56Z</time>
      </trkpt>
      <trkpt lat="43.91691" lon="7.55548">
        <ele>1278.4061096652</ele>
        <time>2021-11-02T12:51:59Z</time>
      </trkpt>
      <trkpt lat="43.91692" lon="7.55548">
        <ele>1276.4060938728</ele>
        <time>2021-11-02T12:52:00Z</time>
      </trkpt>
      <trkpt lat="43.91691" lon="7.55549">
        <ele>1276.4061164474</ele>
        <time>2021-11-02T12:52:01Z</time>
      </trkpt>
      <trkpt lat="43.91691" lon="7.5555">
        <ele>1276.4061543751</ele>
        <time>2021-11-02T12:52:02Z</time>
      </trkpt>
      <trkpt lat="43.9169" lon="7.5555">
        <ele>1276.4061918043</ele>
        <time>2021-11-02T12:52:03Z</time>
      </trkpt>
      <trkpt lat="43.91689" lon="7.5555">
        <ele>1275.4062403127</ele>
        <time>2021-11-02T12:52:04Z</time>
      </trkpt>
      <trkpt lat="43.91689" lon="7.55551">
        <ele>1275.4062763976</ele>
        <time>2021-11-02T12:52:05Z</time>
      </trkpt>
      <trkpt lat="43.91688" lon="7.55551">
        <ele>1275.406322786</ele>
        <time>2021-11-02T12:52:06Z</time>
      </trkpt>
      <trkpt lat="43.91688" lon="7.55552">
        <ele>1273.4063330963</ele>
        <time>2021-11-02T12:52:13Z</time>
      </trkpt>
      <trkpt lat="43.91687" lon="7.55553">
        <ele>1273.4063647107</ele>
        <time>2021-11-02T12:52:14Z</time>
      </trkpt>
      <trkpt lat="43.91687" lon="7.55554">
        <ele>1273.406377245</ele>
        <time>2021-11-02T12:52:16Z</time>
      </trkpt>
      <trkpt lat="43.91687" lon="7.55555">
        <ele>1272.4063991407</ele>
        <time>2021-11-02T12:52:19Z</time>
      </trkpt>
      <trkpt lat="43.91687" lon="7.55557">
        <ele>1271.4064266953</ele>
        <time>2021-11-02T12:52:20Z</time>
      </trkpt>
      <trkpt lat="43.91688" lon="7.55558">
        <ele>1270.4064193267</ele>
        <time>2021-11-02T12:52:21Z</time>
      </trkpt>
      <trkpt lat="43.91688" lon="7.55559">
        <ele>1270.4064130996</ele>
        <time>2021-11-02T12:52:22Z</time>
      </trkpt>
      <trkpt lat="43.91688" lon="7.5556">
        <ele>1269.4064321536</ele>
        <time>2021-11-02T12:52:24Z</time>
      </trkpt>
      <trkpt lat="43.91688" lon="7.55561">
        <ele>1268.4064503014</ele>
        <time>2021-11-02T12:52:26Z</time>
      </trkpt>
      <trkpt lat="43.91688" lon="7.55561">
        <ele>1268.4064446909</ele>
        <time>2021-11-02T12:52:27Z</time>
      </trkpt>
      <trkpt lat="43.91689" lon="7.55562">
        <ele>1267.406420032</ele>
        <time>2021-11-02T12:52:28Z</time>
      </trkpt>
      <trkpt lat="43.91689" lon="7.55563">
        <ele>1267.4063956661</ele>
        <time>2021-11-02T12:52:29Z</time>
      </trkpt>
      <trkpt lat="43.9169" lon="7.55564">
        <ele>1267.4063840197</ele>
        <time>2021-11-02T12:52:31Z</time>
      </trkpt>
      <trkpt lat="43.9169" lon="7.55564">
        <ele>1267.4063775248</ele>
        <time>2021-11-02T12:52:34Z</time>
      </trkpt>
      <trkpt lat="43.91691" lon="7.55566">
        <ele>1267.4063445719</ele>
        <time>2021-11-02T12:52:35Z</time>
      </trkpt>
      <trkpt lat="43.91693" lon="7.55567">
        <ele>1266.4062671788</ele>
        <time>2021-11-02T12:52:37Z</time>
      </trkpt>
      <trkpt lat="43.91693" lon="7.55569">
        <ele>1266.4063020618</ele>
        <time>2021-11-02T12:52:39Z</time>
      </trkpt>
      <trkpt lat="43.91693" lon="7.5557">
        <ele>1266.4063062818</ele>
        <time>2021-11-02T12:52:40Z</time>
      </trkpt>
      <trkpt lat="43.91693" lon="7.55571">
        <ele>1265.4063175605</ele>
        <time>2021-11-02T12:52:41Z</time>
      </trkpt>
      <trkpt lat="43.91693" lon="7.55571">
        <ele>1265.4063319722</ele>
        <time>2021-11-02T12:52:42Z</time>
      </trkpt>
      <trkpt lat="43.91693" lon="7.55572">
        <ele>1265.4063358397</ele>
        <time>2021-11-02T12:52:43Z</time>
      </trkpt>
      <trkpt lat="43.91693" lon="7.55573">
        <ele>1265.4063401259</ele>
        <time>2021-11-02T12:52:44Z</time>
      </trkpt>
      <trkpt lat="43.91693" lon="7.55574">
        <ele>1265.4063583882</ele>
        <time>2021-11-02T12:52:47Z</time>
      </trkpt>
      <trkpt lat="43.91692" lon="7.55575">
        <ele>1265.4064337126</ele>
        <time>2021-11-02T12:52:48Z</time>
      </trkpt>
      <trkpt lat="43.9169" lon="7.55575">
        <ele>1263.4065148873</ele>
        <time>2021-11-02T12:52:49Z</time>
      </trkpt>
      <trkpt lat="43.91689" lon="7.55574">
        <ele>1263.4065764534</ele>
        <time>2021-11-02T12:52:50Z</time>
      </trkpt>
      <trkpt lat="43.91687" lon="7.55574">
        <ele>1262.4066407759</ele>
        <time>2021-11-02T12:52:51Z</time>
      </trkpt>
      <trkpt lat="43.91687" lon="7.55574">
        <ele>1262.4066831921</ele>
        <time>2021-11-02T12:52:55Z</time>
      </trkpt>
      <trkpt lat="43.91685" lon="7.55574">
        <ele>1262.4067562027</ele>
        <time>2021-11-02T12:52:56Z</time>
      </trkpt>
      <trkpt lat="43.91684" lon="7.55575">
        <ele>1261.4067938907</ele>
        <time>2021-11-02T12:52:57Z</time>
      </trkpt>
      <trkpt lat="43.91684" lon="7.55576">
        <ele>1260.4068050428</ele>
        <time>2021-11-02T12:52:59Z</time>
      </trkpt>
      <trkpt lat="43.91685" lon="7.55576">
        <ele>1260.4068066375</ele>
        <time>2021-11-02T12:53:02Z</time>
      </trkpt>
      <trkpt lat="43.91684" lon="7.55578">
        <ele>1260.4068436605</ele>
        <time>2021-11-02T12:53:03Z</time>
      </trkpt>
      <trkpt lat="43.91684" lon="7.55578">
        <ele>1260.4068691008</ele>
        <time>2021-11-02T12:53:04Z</time>
      </trkpt>
      <trkpt lat="43.91684" lon="7.55579">
        <ele>1260.4068905387</ele>
        <time>2021-11-02T12:53:05Z</time>
      </trkpt>
      <trkpt lat="43.91684" lon="7.5558">
        <ele>1260.4068978567</ele>
        <time>2021-11-02T12:53:07Z</time>
      </trkpt>
      <trkpt lat="43.91683" lon="7.55582">
        <ele>1259.406978657</ele>
        <time>2021-11-02T12:53:09Z</time>
      </trkpt>
      <trkpt lat="43.91683" lon="7.55583">
        <ele>1259.4069854261</ele>
        <time>2021-11-02T12:53:11Z</time>
      </trkpt>
      <trkpt lat="43.91683" lon="7.55584">
        <ele>1259.4069856324</ele>
        <time>2021-11-02T12:53:15Z</time>
      </trkpt>
      <trkpt lat="43.91682" lon="7.55585">
        <ele>1259.4070295355</ele>
        <time>2021-11-02T12:53:16Z</time>
      </trkpt>
      <trkpt lat="43.91682" lon="7.55586">
        <ele>1259.4070619984</ele>
        <time>2021-11-02T12:53:19Z</time>
      </trkpt>
      <trkpt lat="43.91682" lon="7.55586">
        <ele>1259.4070715706</ele>
        <time>2021-11-02T12:53:21Z</time>
      </trkpt>
      <trkpt lat="43.91683" lon="7.55589">
        <ele>1259.4070661303</ele>
        <time>2021-11-02T12:53:23Z</time>
      </trkpt>
      <trkpt lat="43.91683" lon="7.5559">
        <ele>1259.4070662944</ele>
        <time>2021-11-02T12:53:25Z</time>
      </trkpt>
      <trkpt lat="43.91683" lon="7.5559">
        <ele>1260.4070444582</ele>
        <time>2021-11-02T12:53:27Z</time>
      </trkpt>
      <trkpt lat="43.91684" lon="7.55591">
        <ele>1260.4070330242</ele>
        <time>2021-11-02T12:53:29Z</time>
      </trkpt>
      <trkpt lat="43.91684" lon="7.55592">
        <ele>1260.4070488153</ele>
        <time>2021-11-02T12:53:31Z</time>
      </trkpt>
      <trkpt lat="43.91683" lon="7.55592">
        <ele>1260.4070865102</ele>
        <time>2021-11-02T12:53:32Z</time>
      </trkpt>
      <trkpt lat="43.91683" lon="7.55592">
        <ele>1260.407099713</ele>
        <time>2021-11-02T12:53:33Z</time>
      </trkpt>
      <trkpt lat="43.91683" lon="7.55593">
        <ele>1260.4070970967</ele>
        <time>2021-11-02T12:53:48Z</time>
      </trkpt>
      <trkpt lat="43.91683" lon="7.55594">
        <ele>1261.4071122417</ele>
        <time>2021-11-02T12:53:50Z</time>
      </trkpt>
      <trkpt lat="43.91683" lon="7.55595">
        <ele>1261.4071152649</ele>
        <time>2021-11-02T12:53:51Z</time>
      </trkpt>
      <trkpt lat="43.91684" lon="7.55596">
        <ele>1261.4071155683</ele>
        <time>2021-11-02T12:53:52Z</time>
      </trkpt>
      <trkpt lat="43.91684" lon="7.55597">
        <ele>1262.407132243</ele>
        <time>2021-11-02T12:53:55Z</time>
      </trkpt>
      <trkpt lat="43.91684" lon="7.55598">
        <ele>1260.4071364119</ele>
        <time>2021-11-02T12:53:57Z</time>
      </trkpt>
      <trkpt lat="43.91684" lon="7.55599">
        <ele>1260.407160103</ele>
        <time>2021-11-02T12:53:58Z</time>
      </trkpt>
      <trkpt lat="43.91683" lon="7.556">
        <ele>1261.4071736565</ele>
        <time>2021-11-02T12:53:59Z</time>
      </trkpt>
      <trkpt lat="43.91683" lon="7.55601">
        <ele>1260.4072234903</ele>
        <time>2021-11-02T12:54:00Z</time>
      </trkpt>
      <trkpt lat="43.91683" lon="7.55602">
        <ele>1261.4072410952</ele>
        <time>2021-11-02T12:54:01Z</time>
      </trkpt>
      <trkpt lat="43.91683" lon="7.55603">
        <ele>1260.4072347451</ele>
        <time>2021-11-02T12:54:03Z</time>
      </trkpt>
      <trkpt lat="43.91683" lon="7.55603">
        <ele>1260.4072347451</ele>
        <time>2021-11-02T12:54:05Z</time>
      </trkpt>
      <trkpt lat="43.91684" lon="7.55606">
        <ele>1258.4072255991</ele>
        <time>2021-11-02T12:54:07Z</time>
      </trkpt>
      <trkpt lat="43.91684" lon="7.55606">
        <ele>1258.4072476655</ele>
        <time>2021-11-02T12:54:08Z</time>
      </trkpt>
      <trkpt lat="43.91682" lon="7.55606">
        <ele>1258.4073027512</ele>
        <time>2021-11-02T12:54:09Z</time>
      </trkpt>
      <trkpt lat="43.91682" lon="7.55605">
        <ele>1258.4073364557</ele>
        <time>2021-11-02T12:54:10Z</time>
      </trkpt>
      <trkpt lat="43.91681" lon="7.55604">
        <ele>1257.4073680885</ele>
        <time>2021-11-02T12:54:11Z</time>
      </trkpt>
      <trkpt lat="43.9168" lon="7.55604">
        <ele>1257.4073922623</ele>
        <time>2021-11-02T12:54:12Z</time>
      </trkpt>
      <trkpt lat="43.9168" lon="7.55604">
        <ele>1256.4074191392</ele>
        <time>2021-11-02T12:54:15Z</time>
      </trkpt>
      <trkpt lat="43.91678" lon="7.55602">
        <ele>1256.4074968784</ele>
        <time>2021-11-02T12:54:16Z</time>
      </trkpt>
      <trkpt lat="43.91677" lon="7.55602">
        <ele>1255.4075209223</ele>
        <time>2021-11-02T12:54:18Z</time>
      </trkpt>
      <trkpt lat="43.91677" lon="7.55602">
        <ele>1254.4075431957</ele>
        <time>2021-11-02T12:54:19Z</time>
      </trkpt>
      <trkpt lat="43.91676" lon="7.55601">
        <ele>1254.4075810409</ele>
        <time>2021-11-02T12:54:20Z</time>
      </trkpt>
      <trkpt lat="43.91675" lon="7.55601">
        <ele>1254.4076139996</ele>
        <time>2021-11-02T12:54:21Z</time>
      </trkpt>
      <trkpt lat="43.91674" lon="7.55601">
        <ele>1254.4076472261</ele>
        <time>2021-11-02T12:54:22Z</time>
      </trkpt>
      <trkpt lat="43.91673" lon="7.55601">
        <ele>1254.4076868887</ele>
        <time>2021-11-02T12:54:23Z</time>
      </trkpt>
      <trkpt lat="43.91673" lon="7.55601">
        <ele>1254.4077141405</ele>
        <time>2021-11-02T12:54:26Z</time>
      </trkpt>
      <trkpt lat="43.91672" lon="7.556">
        <ele>1254.4077531403</ele>
        <time>2021-11-02T12:54:27Z</time>
      </trkpt>
      <trkpt lat="43.91671" lon="7.556">
        <ele>1254.4077922299</ele>
        <time>2021-11-02T12:54:28Z</time>
      </trkpt>
      <trkpt lat="43.9167" lon="7.55599">
        <ele>1253.4078214029</ele>
        <time>2021-11-02T12:54:30Z</time>
      </trkpt>
      <trkpt lat="43.91669" lon="7.55599">
        <ele>1251.4078498573</ele>
        <time>2021-11-02T12:54:32Z</time>
      </trkpt>
      <trkpt lat="43.91669" lon="7.55599">
        <ele>1251.4078890429</ele>
        <time>2021-11-02T12:54:33Z</time>
      </trkpt>
      <trkpt lat="43.91668" lon="7.55599">
        <ele>1251.4079199581</ele>
        <time>2021-11-02T12:54:34Z</time>
      </trkpt>
      <trkpt lat="43.91667" lon="7.55598">
        <ele>1251.4079406888</ele>
        <time>2021-11-02T12:54:35Z</time>
      </trkpt>
      <trkpt lat="43.91667" lon="7.55598">
        <ele>1250.4079586065</ele>
        <time>2021-11-02T12:54:36Z</time>
      </trkpt>
      <trkpt lat="43.91667" lon="7.55598">
        <ele>1249.4079723749</ele>
        <time>2021-11-02T12:54:37Z</time>
      </trkpt>
      <trkpt lat="43.91666" lon="7.55598">
        <ele>1249.4080297544</ele>
        <time>2021-11-02T12:54:39Z</time>
      </trkpt>
      <trkpt lat="43.91665" lon="7.55599">
        <ele>1249.4080509016</ele>
        <time>2021-11-02T12:54:41Z</time>
      </trkpt>
      <trkpt lat="43.91665" lon="7.55599">
        <ele>1249.4080945795</ele>
        <time>2021-11-02T12:54:45Z</time>
      </trkpt>
      <trkpt lat="43.91664" lon="7.55601">
        <ele>1249.4081378809</ele>
        <time>2021-11-02T12:54:46Z</time>
      </trkpt>
      <trkpt lat="43.91665" lon="7.55602">
        <ele>1248.4081167946</ele>
        <time>2021-11-02T12:54:49Z</time>
      </trkpt>
      <trkpt lat="43.91665" lon="7.55603">
        <ele>1248.4081257494</ele>
        <time>2021-11-02T12:54:50Z</time>
      </trkpt>
      <trkpt lat="43.91665" lon="7.55604">
        <ele>1248.4081390433</ele>
        <time>2021-11-02T12:54:51Z</time>
      </trkpt>
      <trkpt lat="43.91665" lon="7.55605">
        <ele>1248.4081429488</ele>
        <time>2021-11-02T12:54:52Z</time>
      </trkpt>
      <trkpt lat="43.91666" lon="7.55607">
        <ele>1248.4081452453</ele>
        <time>2021-11-02T12:54:54Z</time>
      </trkpt>
      <trkpt lat="43.91665" lon="7.55607">
        <ele>1248.4081641725</ele>
        <time>2021-11-02T12:54:55Z</time>
      </trkpt>
      <trkpt lat="43.91665" lon="7.55607">
        <ele>1248.4082014469</ele>
        <time>2021-11-02T12:54:56Z</time>
      </trkpt>
      <trkpt lat="43.91664" lon="7.55607">
        <ele>1248.4082446202</ele>
        <time>2021-11-02T12:54:57Z</time>
      </trkpt>
      <trkpt lat="43.91663" lon="7.55608">
        <ele>1246.4082860323</ele>
        <time>2021-11-02T12:55:01Z</time>
      </trkpt>
      <trkpt lat="43.91662" lon="7.55611">
        <ele>1246.4083501</ele>
        <time>2021-11-02T12:55:03Z</time>
      </trkpt>
      <trkpt lat="43.91662" lon="7.55611">
        <ele>1247.4083867912</ele>
        <time>2021-11-02T12:55:04Z</time>
      </trkpt>
      <trkpt lat="43.91661" lon="7.55612">
        <ele>1247.4084201854</ele>
        <time>2021-11-02T12:55:05Z</time>
      </trkpt>
      <trkpt lat="43.91662" lon="7.55613">
        <ele>1247.4084167757</ele>
        <time>2021-11-02T12:55:07Z</time>
      </trkpt>
      <trkpt lat="43.91662" lon="7.55614">
        <ele>1248.4084309313</ele>
        <time>2021-11-02T12:55:08Z</time>
      </trkpt>
      <trkpt lat="43.91662" lon="7.55615">
        <ele>1248.4084251832</ele>
        <time>2021-11-02T12:55:12Z</time>
      </trkpt>
      <trkpt lat="43.91662" lon="7.55618">
        <ele>1249.4084804952</ele>
        <time>2021-11-02T12:55:14Z</time>
      </trkpt>
      <trkpt lat="43.91662" lon="7.55618">
        <ele>1248.4084718212</ele>
        <time>2021-11-02T12:55:15Z</time>
      </trkpt>
      <trkpt lat="43.91662" lon="7.55619">
        <ele>1248.4084901674</ele>
        <time>2021-11-02T12:55:16Z</time>
      </trkpt>
      <trkpt lat="43.91662" lon="7.5562">
        <ele>1247.4085100045</ele>
        <time>2021-11-02T12:55:17Z</time>
      </trkpt>
      <trkpt lat="43.91662" lon="7.55621">
        <ele>1248.4085252788</ele>
        <time>2021-11-02T12:55:18Z</time>
      </trkpt>
      <trkpt lat="43.91662" lon="7.55622">
        <ele>1247.4085341765</ele>
        <time>2021-11-02T12:55:19Z</time>
      </trkpt>
      <trkpt lat="43.91662" lon="7.55623">
        <ele>1247.4085511249</ele>
        <time>2021-11-02T12:55:21Z</time>
      </trkpt>
      <trkpt lat="43.91661" lon="7.55624">
        <ele>1248.4085764582</ele>
        <time>2021-11-02T12:55:26Z</time>
      </trkpt>
      <trkpt lat="43.91661" lon="7.55627">
        <ele>1246.4086578881</ele>
        <time>2021-11-02T12:55:27Z</time>
      </trkpt>
      <trkpt lat="43.9166" lon="7.55628">
        <ele>1245.4086932234</ele>
        <time>2021-11-02T12:55:29Z</time>
      </trkpt>
      <trkpt lat="43.9166" lon="7.55629">
        <ele>1245.4087258064</ele>
        <time>2021-11-02T12:55:32Z</time>
      </trkpt>
      <trkpt lat="43.9166" lon="7.55629">
        <ele>1244.4086984032</ele>
        <time>2021-11-02T12:55:33Z</time>
      </trkpt>
      <trkpt lat="43.91661" lon="7.5563">
        <ele>1242.4086886353</ele>
        <time>2021-11-02T12:55:35Z</time>
      </trkpt>
      <trkpt lat="43.91661" lon="7.55631">
        <ele>1242.4087148657</ele>
        <time>2021-11-02T12:55:37Z</time>
      </trkpt>
      <trkpt lat="43.91661" lon="7.55633">
        <ele>1240.4086953118</ele>
        <time>2021-11-02T12:55:39Z</time>
      </trkpt>
      <trkpt lat="43.91661" lon="7.55634">
        <ele>1242.4087212205</ele>
        <time>2021-11-02T12:55:41Z</time>
      </trkpt>
      <trkpt lat="43.91662" lon="7.55635">
        <ele>1242.408697393</ele>
        <time>2021-11-02T12:55:45Z</time>
      </trkpt>
      <trkpt lat="43.91662" lon="7.55637">
        <ele>1243.4087167775</ele>
        <time>2021-11-02T12:55:46Z</time>
      </trkpt>
      <trkpt lat="43.91662" lon="7.55639">
        <ele>1243.4087248876</ele>
        <time>2021-11-02T12:55:48Z</time>
      </trkpt>
      <trkpt lat="43.91663" lon="7.5564">
        <ele>1243.4087365907</ele>
        <time>2021-11-02T12:55:49Z</time>
      </trkpt>
      <trkpt lat="43.91663" lon="7.55641">
        <ele>1243.4087576986</ele>
        <time>2021-11-02T12:55:50Z</time>
      </trkpt>
      <trkpt lat="43.91662" lon="7.55642">
        <ele>1243.4087706261</ele>
        <time>2021-11-02T12:55:51Z</time>
      </trkpt>
      <trkpt lat="43.91663" lon="7.55643">
        <ele>1243.40877164</ele>
        <time>2021-11-02T12:55:55Z</time>
      </trkpt>
      <trkpt lat="43.91664" lon="7.55645">
        <ele>1241.4087294975</ele>
        <time>2021-11-02T12:55:56Z</time>
      </trkpt>
      <trkpt lat="43.91664" lon="7.55645">
        <ele>1241.4087147487</ele>
        <time>2021-11-02T12:55:57Z</time>
      </trkpt>
      <trkpt lat="43.91665" lon="7.55646">
        <ele>1240.4086927236</ele>
        <time>2021-11-02T12:55:58Z</time>
      </trkpt>
      <trkpt lat="43.91666" lon="7.55648">
        <ele>1240.4086817216</ele>
        <time>2021-11-02T12:56:00Z</time>
      </trkpt>
      <trkpt lat="43.91666" lon="7.55649">
        <ele>1240.408679536</ele>
        <time>2021-11-02T12:56:01Z</time>
      </trkpt>
      <trkpt lat="43.91666" lon="7.5565">
        <ele>1240.4086990198</ele>
        <time>2021-11-02T12:56:03Z</time>
      </trkpt>
      <trkpt lat="43.91667" lon="7.55651">
        <ele>1239.4086860708</ele>
        <time>2021-11-02T12:56:04Z</time>
      </trkpt>
      <trkpt lat="43.91667" lon="7.55652">
        <ele>1239.408680601</ele>
        <time>2021-11-02T12:56:05Z</time>
      </trkpt>
      <trkpt lat="43.91667" lon="7.55653">
        <ele>1238.4086967336</ele>
        <time>2021-11-02T12:56:07Z</time>
      </trkpt>
      <trkpt lat="43.91667" lon="7.55655">
        <ele>1237.4087261255</ele>
        <time>2021-11-02T12:56:09Z</time>
      </trkpt>
      <trkpt lat="43.91666" lon="7.55655">
        <ele>1236.4087630144</ele>
        <time>2021-11-02T12:56:10Z</time>
      </trkpt>
      <trkpt lat="43.91666" lon="7.55655">
        <ele>1236.4087866717</ele>
        <time>2021-11-02T12:56:11Z</time>
      </trkpt>
      <trkpt lat="43.91665" lon="7.55656">
        <ele>1236.4088244901</ele>
        <time>2021-11-02T12:56:12Z</time>
      </trkpt>
      <trkpt lat="43.91665" lon="7.55657">
        <ele>1236.4088256492</ele>
        <time>2021-11-02T12:56:13Z</time>
      </trkpt>
      <trkpt lat="43.91666" lon="7.55657">
        <ele>1236.4088103915</ele>
        <time>2021-11-02T12:56:14Z</time>
      </trkpt>
      <trkpt lat="43.91666" lon="7.55658">
        <ele>1236.4087982107</ele>
        <time>2021-11-02T12:56:15Z</time>
      </trkpt>
      <trkpt lat="43.91666" lon="7.55659">
        <ele>1237.4088096166</ele>
        <time>2021-11-02T12:56:16Z</time>
      </trkpt>
      <trkpt lat="43.91666" lon="7.5566">
        <ele>1238.4088147427</ele>
        <time>2021-11-02T12:56:18Z</time>
      </trkpt>
      <trkpt lat="43.91666" lon="7.55661">
        <ele>1238.4088260845</ele>
        <time>2021-11-02T12:56:19Z</time>
      </trkpt>
      <trkpt lat="43.91667" lon="7.55662">
        <ele>1238.4088164274</ele>
        <time>2021-11-02T12:56:20Z</time>
      </trkpt>
      <trkpt lat="43.91667" lon="7.55663">
        <ele>1238.4088085532</ele>
        <time>2021-11-02T12:56:21Z</time>
      </trkpt>
      <trkpt lat="43.91667" lon="7.55664">
        <ele>1238.4088224327</ele>
        <time>2021-11-02T12:56:22Z</time>
      </trkpt>
      <trkpt lat="43.91667" lon="7.55664">
        <ele>1238.4088236935</ele>
        <time>2021-11-02T12:56:23Z</time>
      </trkpt>
      <trkpt lat="43.91667" lon="7.55665">
        <ele>1238.4088383865</ele>
        <time>2021-11-02T12:56:24Z</time>
      </trkpt>
      <trkpt lat="43.91667" lon="7.55666">
        <ele>1237.4088482116</ele>
        <time>2021-11-02T12:56:25Z</time>
      </trkpt>
      <trkpt lat="43.91667" lon="7.55667">
        <ele>1238.4088556225</ele>
        <time>2021-11-02T12:56:26Z</time>
      </trkpt>
      <trkpt lat="43.91667" lon="7.55668">
        <ele>1237.4088723888</ele>
        <time>2021-11-02T12:56:28Z</time>
      </trkpt>
      <trkpt lat="43.91668" lon="7.5567">
        <ele>1237.4088885461</ele>
        <time>2021-11-02T12:56:30Z</time>
      </trkpt>
      <trkpt lat="43.91668" lon="7.55671">
        <ele>1236.4088745551</ele>
        <time>2021-11-02T12:56:31Z</time>
      </trkpt>
      <trkpt lat="43.91669" lon="7.55671">
        <ele>1235.4088604855</ele>
        <time>2021-11-02T12:56:32Z</time>
      </trkpt>
      <trkpt lat="43.91669" lon="7.55673">
        <ele>1236.408849926</ele>
        <time>2021-11-02T12:56:34Z</time>
      </trkpt>
      <trkpt lat="43.9167" lon="7.55675">
        <ele>1236.4088506512</ele>
        <time>2021-11-02T12:56:35Z</time>
      </trkpt>
      <trkpt lat="43.9167" lon="7.55675">
        <ele>1235.4088532248</ele>
        <time>2021-11-02T12:56:36Z</time>
      </trkpt>
      <trkpt lat="43.9167" lon="7.55676">
        <ele>1234.4088456495</ele>
        <time>2021-11-02T12:56:38Z</time>
      </trkpt>
      <trkpt lat="43.9167" lon="7.55677">
        <ele>1235.4088469222</ele>
        <time>2021-11-02T12:56:39Z</time>
      </trkpt>
      <trkpt lat="43.9167" lon="7.55678">
        <ele>1234.4088520977</ele>
        <time>2021-11-02T12:56:40Z</time>
      </trkpt>
      <trkpt lat="43.91671" lon="7.55679">
        <ele>1234.4088603952</ele>
        <time>2021-11-02T12:56:41Z</time>
      </trkpt>
      <trkpt lat="43.91671" lon="7.5568">
        <ele>1234.4088573021</ele>
        <time>2021-11-02T12:56:42Z</time>
      </trkpt>
      <trkpt lat="43.91671" lon="7.55682">
        <ele>1234.4088896358</ele>
        <time>2021-11-02T12:56:44Z</time>
      </trkpt>
      <trkpt lat="43.91671" lon="7.55683">
        <ele>1234.4088941932</ele>
        <time>2021-11-02T12:56:45Z</time>
      </trkpt>
      <trkpt lat="43.91671" lon="7.55683">
        <ele>1234.4088911311</ele>
        <time>2021-11-02T12:56:46Z</time>
      </trkpt>
      <trkpt lat="43.91671" lon="7.55684">
        <ele>1234.4089064455</ele>
        <time>2021-11-02T12:56:47Z</time>
      </trkpt>
      <trkpt lat="43.91672" lon="7.55685">
        <ele>1233.4088936475</ele>
        <time>2021-11-02T12:56:48Z</time>
      </trkpt>
      <trkpt lat="43.91672" lon="7.55686">
        <ele>1234.4089064861</ele>
        <time>2021-11-02T12:56:49Z</time>
      </trkpt>
      <trkpt lat="43.91672" lon="7.55687">
        <ele>1234.4088864194</ele>
        <time>2021-11-02T12:56:50Z</time>
      </trkpt>
      <trkpt lat="43.91673" lon="7.55688">
        <ele>1234.4088621353</ele>
        <time>2021-11-02T12:56:51Z</time>
      </trkpt>
      <trkpt lat="43.91674" lon="7.55689">
        <ele>1234.408842177</ele>
        <time>2021-11-02T12:56:52Z</time>
      </trkpt>
      <trkpt lat="43.91674" lon="7.55689">
        <ele>1234.4088258797</ele>
        <time>2021-11-02T12:56:53Z</time>
      </trkpt>
      <trkpt lat="43.91675" lon="7.5569">
        <ele>1233.4087946436</ele>
        <time>2021-11-02T12:57:04Z</time>
      </trkpt>
      <trkpt lat="43.91676" lon="7.5569">
        <ele>1233.408749913</ele>
        <time>2021-11-02T12:57:06Z</time>
      </trkpt>
      <trkpt lat="43.91676" lon="7.5569">
        <ele>1233.4087485718</ele>
        <time>2021-11-02T12:57:07Z</time>
      </trkpt>
      <trkpt lat="43.91676" lon="7.55691">
        <ele>1233.4087406339</ele>
        <time>2021-11-02T12:57:08Z</time>
      </trkpt>
      <trkpt lat="43.91676" lon="7.55692">
        <ele>1233.4087552157</ele>
        <time>2021-11-02T12:57:10Z</time>
      </trkpt>
      <trkpt lat="43.91677" lon="7.55692">
        <ele>1233.4087258657</ele>
        <time>2021-11-02T12:57:11Z</time>
      </trkpt>
      <trkpt lat="43.91678" lon="7.55693">
        <ele>1233.4086968463</ele>
        <time>2021-11-02T12:57:12Z</time>
      </trkpt>
      <trkpt lat="43.91678" lon="7.55694">
        <ele>1233.4086973661</ele>
        <time>2021-11-02T12:57:13Z</time>
      </trkpt>
      <trkpt lat="43.91678" lon="7.55695">
        <ele>1232.4087055318</ele>
        <time>2021-11-02T12:57:14Z</time>
      </trkpt>
      <trkpt lat="43.91679" lon="7.55696">
        <ele>1232.4086958731</ele>
        <time>2021-11-02T12:57:19Z</time>
      </trkpt>
      <trkpt lat="43.91679" lon="7.55697">
        <ele>1232.4086943279</ele>
        <time>2021-11-02T12:57:20Z</time>
      </trkpt>
      <trkpt lat="43.91679" lon="7.55699">
        <ele>1231.4087032198</ele>
        <time>2021-11-02T12:57:21Z</time>
      </trkpt>
      <trkpt lat="43.9168" lon="7.55699">
        <ele>1231.408694084</ele>
        <time>2021-11-02T12:57:23Z</time>
      </trkpt>
      <trkpt lat="43.9168" lon="7.557">
        <ele>1231.4086864056</ele>
        <time>2021-11-02T12:57:24Z</time>
      </trkpt>
      <trkpt lat="43.91681" lon="7.55701">
        <ele>1231.4086657159</ele>
        <time>2021-11-02T12:57:25Z</time>
      </trkpt>
      <trkpt lat="43.91681" lon="7.55702">
        <ele>1231.4086580883</ele>
        <time>2021-11-02T12:57:26Z</time>
      </trkpt>
      <trkpt lat="43.91681" lon="7.55703">
        <ele>1231.4086523295</ele>
        <time>2021-11-02T12:57:27Z</time>
      </trkpt>
      <trkpt lat="43.91681" lon="7.55704">
        <ele>1231.4086582342</ele>
        <time>2021-11-02T12:57:28Z</time>
      </trkpt>
      <trkpt lat="43.91682" lon="7.55705">
        <ele>1231.4086630168</ele>
        <time>2021-11-02T12:57:29Z</time>
      </trkpt>
      <trkpt lat="43.91682" lon="7.55706">
        <ele>1231.408649749</ele>
        <time>2021-11-02T12:57:30Z</time>
      </trkpt>
      <trkpt lat="43.91683" lon="7.55707">
        <ele>1230.4086376804</ele>
        <time>2021-11-02T12:57:31Z</time>
      </trkpt>
      <trkpt lat="43.91683" lon="7.55707">
        <ele>1230.4086468102</ele>
        <time>2021-11-02T12:57:32Z</time>
      </trkpt>
      <trkpt lat="43.91683" lon="7.55709">
        <ele>1230.4086575188</ele>
        <time>2021-11-02T12:57:33Z</time>
      </trkpt>
      <trkpt lat="43.91683" lon="7.55709">
        <ele>1230.4086528858</ele>
        <time>2021-11-02T12:57:34Z</time>
      </trkpt>
      <trkpt lat="43.91683" lon="7.5571">
        <ele>1230.4086539838</ele>
        <time>2021-11-02T12:57:37Z</time>
      </trkpt>
      <trkpt lat="43.91684" lon="7.55712">
        <ele>1230.4086412392</ele>
        <time>2021-11-02T12:57:38Z</time>
      </trkpt>
      <trkpt lat="43.91684" lon="7.55712">
        <ele>1230.4086287443</ele>
        <time>2021-11-02T12:57:39Z</time>
      </trkpt>
      <trkpt lat="43.91685" lon="7.55713">
        <ele>1230.4086119231</ele>
        <time>2021-11-02T12:57:40Z</time>
      </trkpt>
      <trkpt lat="43.91685" lon="7.55714">
        <ele>1229.4086190411</ele>
        <time>2021-11-02T12:57:41Z</time>
      </trkpt>
      <trkpt lat="43.91685" lon="7.55715">
        <ele>1229.4086334425</ele>
        <time>2021-11-02T12:57:42Z</time>
      </trkpt>
      <trkpt lat="43.91685" lon="7.55716">
        <ele>1228.4086259285</ele>
        <time>2021-11-02T12:57:43Z</time>
      </trkpt>
      <trkpt lat="43.91686" lon="7.55717">
        <ele>1228.4086205893</ele>
        <time>2021-11-02T12:57:44Z</time>
      </trkpt>
      <trkpt lat="43.91686" lon="7.55718">
        <ele>1228.4086436985</ele>
        <time>2021-11-02T12:57:45Z</time>
      </trkpt>
      <trkpt lat="43.91686" lon="7.5572">
        <ele>1228.4086534731</ele>
        <time>2021-11-02T12:57:46Z</time>
      </trkpt>
      <trkpt lat="43.91686" lon="7.5572">
        <ele>1228.4086701531</ele>
        <time>2021-11-02T12:57:47Z</time>
      </trkpt>
      <trkpt lat="43.91686" lon="7.55721">
        <ele>1228.4086853971</ele>
        <time>2021-11-02T12:57:48Z</time>
      </trkpt>
      <trkpt lat="43.91686" lon="7.55722">
        <ele>1227.4086758864</ele>
        <time>2021-11-02T12:57:49Z</time>
      </trkpt>
      <trkpt lat="43.91686" lon="7.55723">
        <ele>1227.4086687063</ele>
        <time>2021-11-02T12:57:50Z</time>
      </trkpt>
      <trkpt lat="43.91687" lon="7.55724">
        <ele>1227.4086658001</ele>
        <time>2021-11-02T12:57:51Z</time>
      </trkpt>
      <trkpt lat="43.91687" lon="7.55725">
        <ele>1227.408685282</ele>
        <time>2021-11-02T12:57:53Z</time>
      </trkpt>
      <trkpt lat="43.91686" lon="7.55726">
        <ele>1227.4087284051</ele>
        <time>2021-11-02T12:57:54Z</time>
      </trkpt>
      <trkpt lat="43.91686" lon="7.55726">
        <ele>1226.4087487008</ele>
        <time>2021-11-02T12:57:55Z</time>
      </trkpt>
      <trkpt lat="43.91686" lon="7.55728">
        <ele>1226.4087627622</ele>
        <time>2021-11-02T12:57:57Z</time>
      </trkpt>
      <trkpt lat="43.91686" lon="7.55729">
        <ele>1227.4087798657</ele>
        <time>2021-11-02T12:57:59Z</time>
      </trkpt>
      <trkpt lat="43.91686" lon="7.5573">
        <ele>1227.4088006882</ele>
        <time>2021-11-02T12:58:00Z</time>
      </trkpt>
      <trkpt lat="43.91685" lon="7.55731">
        <ele>1228.4088274872</ele>
        <time>2021-11-02T12:58:01Z</time>
      </trkpt>
      <trkpt lat="43.91685" lon="7.55732">
        <ele>1227.4088608457</ele>
        <time>2021-11-02T12:58:02Z</time>
      </trkpt>
      <trkpt lat="43.91684" lon="7.55733">
        <ele>1227.4089019319</ele>
        <time>2021-11-02T12:58:03Z</time>
      </trkpt>
      <trkpt lat="43.91684" lon="7.55733">
        <ele>1227.4089286035</ele>
        <time>2021-11-02T12:58:04Z</time>
      </trkpt>
      <trkpt lat="43.91683" lon="7.55734">
        <ele>1227.4089804883</ele>
        <time>2021-11-02T12:58:05Z</time>
      </trkpt>
      <trkpt lat="43.91683" lon="7.55734">
        <ele>1227.4090037263</ele>
        <time>2021-11-02T12:58:06Z</time>
      </trkpt>
      <trkpt lat="43.91682" lon="7.55735">
        <ele>1226.4090629254</ele>
        <time>2021-11-02T12:58:08Z</time>
      </trkpt>
      <trkpt lat="43.91681" lon="7.55736">
        <ele>1225.4090969525</ele>
        <time>2021-11-02T12:58:09Z</time>
      </trkpt>
      <trkpt lat="43.9168" lon="7.55736">
        <ele>1224.4091404627</ele>
        <time>2021-11-02T12:58:10Z</time>
      </trkpt>
      <trkpt lat="43.9168" lon="7.55736">
        <ele>1225.4091685188</ele>
        <time>2021-11-02T12:58:11Z</time>
      </trkpt>
      <trkpt lat="43.9168" lon="7.55737">
        <ele>1224.409180709</ele>
        <time>2021-11-02T12:58:13Z</time>
      </trkpt>
      <trkpt lat="43.9168" lon="7.55737">
        <ele>1224.409182876</ele>
        <time>2021-11-02T12:58:14Z</time>
      </trkpt>
      <trkpt lat="43.9168" lon="7.55739">
        <ele>1224.4091982231</ele>
        <time>2021-11-02T12:58:15Z</time>
      </trkpt>
      <trkpt lat="43.91679" lon="7.5574">
        <ele>1224.4092449091</ele>
        <time>2021-11-02T12:58:17Z</time>
      </trkpt>
      <trkpt lat="43.91678" lon="7.5574">
        <ele>1223.4092933396</ele>
        <time>2021-11-02T12:58:18Z</time>
      </trkpt>
      <trkpt lat="43.91678" lon="7.5574">
        <ele>1223.4093323218</ele>
        <time>2021-11-02T12:58:19Z</time>
      </trkpt>
      <trkpt lat="43.91677" lon="7.5574">
        <ele>1222.4093771285</ele>
        <time>2021-11-02T12:58:20Z</time>
      </trkpt>
      <trkpt lat="43.91676" lon="7.55741">
        <ele>1221.4094143862</ele>
        <time>2021-11-02T12:58:21Z</time>
      </trkpt>
      <trkpt lat="43.91675" lon="7.5574">
        <ele>1219.4094603881</ele>
        <time>2021-11-02T12:58:23Z</time>
      </trkpt>
      <trkpt lat="43.91674" lon="7.55739">
        <ele>1218.4094845734</ele>
        <time>2021-11-02T12:58:24Z</time>
      </trkpt>
      <trkpt lat="43.91674" lon="7.55739">
        <ele>1217.4095147529</ele>
        <time>2021-11-02T12:58:25Z</time>
      </trkpt>
      <trkpt lat="43.91673" lon="7.55739">
        <ele>1216.4095439609</ele>
        <time>2021-11-02T12:58:27Z</time>
      </trkpt>
      <trkpt lat="43.91672" lon="7.55739">
        <ele>1215.4095768192</ele>
        <time>2021-11-02T12:58:30Z</time>
      </trkpt>
      <trkpt lat="43.91672" lon="7.55738">
        <ele>1217.4095651167</ele>
        <time>2021-11-02T12:58:36Z</time>
      </trkpt>
      <trkpt lat="43.91672" lon="7.55739">
        <ele>1217.4096031973</ele>
        <time>2021-11-02T12:58:37Z</time>
      </trkpt>
      <trkpt lat="43.91671" lon="7.55742">
        <ele>1217.409655076</ele>
        <time>2021-11-02T12:58:39Z</time>
      </trkpt>
      <trkpt lat="43.91671" lon="7.55743">
        <ele>1218.4096793016</ele>
        <time>2021-11-02T12:58:40Z</time>
      </trkpt>
      <trkpt lat="43.91671" lon="7.55743">
        <ele>1218.4096908566</ele>
        <time>2021-11-02T12:58:43Z</time>
      </trkpt>
      <trkpt lat="43.91671" lon="7.55745">
        <ele>1217.4097091333</ele>
        <time>2021-11-02T12:58:44Z</time>
      </trkpt>
      <trkpt lat="43.91672" lon="7.55746">
        <ele>1217.4096950833</ele>
        <time>2021-11-02T12:58:45Z</time>
      </trkpt>
      <trkpt lat="43.91672" lon="7.55748">
        <ele>1218.4097247232</ele>
        <time>2021-11-02T12:58:46Z</time>
      </trkpt>
      <trkpt lat="43.91672" lon="7.55749">
        <ele>1218.409738066</ele>
        <time>2021-11-02T12:58:47Z</time>
      </trkpt>
      <trkpt lat="43.91672" lon="7.5575">
        <ele>1218.4097497078</ele>
        <time>2021-11-02T12:58:48Z</time>
      </trkpt>
      <trkpt lat="43.91672" lon="7.55751">
        <ele>1218.4097693226</ele>
        <time>2021-11-02T12:58:51Z</time>
      </trkpt>
      <trkpt lat="43.91671" lon="7.55753">
        <ele>1218.4098143101</ele>
        <time>2021-11-02T12:58:52Z</time>
      </trkpt>
      <trkpt lat="43.91671" lon="7.55754">
        <ele>1218.4098389958</ele>
        <time>2021-11-02T12:58:53Z</time>
      </trkpt>
      <trkpt lat="43.91671" lon="7.55755">
        <ele>1218.4098715533</ele>
        <time>2021-11-02T12:58:54Z</time>
      </trkpt>
      <trkpt lat="43.9167" lon="7.55756">
        <ele>1218.4099029004</ele>
        <time>2021-11-02T12:58:57Z</time>
      </trkpt>
      <trkpt lat="43.91671" lon="7.55758">
        <ele>1217.4098923722</ele>
        <time>2021-11-02T12:58:58Z</time>
      </trkpt>
      <trkpt lat="43.91672" lon="7.55758">
        <ele>1217.4098712218</ele>
        <time>2021-11-02T12:58:59Z</time>
      </trkpt>
      <trkpt lat="43.91672" lon="7.55759">
        <ele>1217.4098554508</ele>
        <time>2021-11-02T12:59:00Z</time>
      </trkpt>
      <trkpt lat="43.91672" lon="7.5576">
        <ele>1217.4098608093</ele>
        <time>2021-11-02T12:59:01Z</time>
      </trkpt>
      <trkpt lat="43.91672" lon="7.5576">
        <ele>1218.4098980194</ele>
        <time>2021-11-02T12:59:04Z</time>
      </trkpt>
      <trkpt lat="43.9167" lon="7.55761">
        <ele>1218.4099657075</ele>
        <time>2021-11-02T12:59:05Z</time>
      </trkpt>
      <trkpt lat="43.91668" lon="7.55761">
        <ele>1217.4100658676</ele>
        <time>2021-11-02T12:59:07Z</time>
      </trkpt>
      <trkpt lat="43.91667" lon="7.55762">
        <ele>1216.4101213128</ele>
        <time>2021-11-02T12:59:09Z</time>
      </trkpt>
      <trkpt lat="43.91667" lon="7.55763">
        <ele>1215.4101420289</ele>
        <time>2021-11-02T12:59:10Z</time>
      </trkpt>
      <trkpt lat="43.91667" lon="7.55764">
        <ele>1215.410157407</ele>
        <time>2021-11-02T12:59:11Z</time>
      </trkpt>
      <trkpt lat="43.91667" lon="7.55765">
        <ele>1215.4101853695</ele>
        <time>2021-11-02T12:59:12Z</time>
      </trkpt>
      <trkpt lat="43.91666" lon="7.55765">
        <ele>1214.4102188671</ele>
        <time>2021-11-02T12:59:13Z</time>
      </trkpt>
      <trkpt lat="43.91666" lon="7.55766">
        <ele>1214.4102436254</ele>
        <time>2021-11-02T12:59:14Z</time>
      </trkpt>
      <trkpt lat="43.91666" lon="7.55767">
        <ele>1214.4102418048</ele>
        <time>2021-11-02T12:59:16Z</time>
      </trkpt>
      <trkpt lat="43.91666" lon="7.55768">
        <ele>1213.4102610014</ele>
        <time>2021-11-02T12:59:17Z</time>
      </trkpt>
      <trkpt lat="43.91666" lon="7.55769">
        <ele>1214.4103020772</ele>
        <time>2021-11-02T12:59:18Z</time>
      </trkpt>
      <trkpt lat="43.91665" lon="7.5577">
        <ele>1215.4103419254</ele>
        <time>2021-11-02T12:59:19Z</time>
      </trkpt>
      <trkpt lat="43.91665" lon="7.5577">
        <ele>1215.4103700394</ele>
        <time>2021-11-02T12:59:20Z</time>
      </trkpt>
      <trkpt lat="43.91664" lon="7.55771">
        <ele>1215.410400208</ele>
        <time>2021-11-02T12:59:21Z</time>
      </trkpt>
      <trkpt lat="43.91664" lon="7.55771">
        <ele>1215.4104341438</ele>
        <time>2021-11-02T12:59:22Z</time>
      </trkpt>
      <trkpt lat="43.91663" lon="7.55773">
        <ele>1215.410465824</ele>
        <time>2021-11-02T12:59:24Z</time>
      </trkpt>
      <trkpt lat="43.91663" lon="7.55774">
        <ele>1215.4104982159</ele>
        <time>2021-11-02T12:59:26Z</time>
      </trkpt>
      <trkpt lat="43.91663" lon="7.55776">
        <ele>1215.4105413949</ele>
        <time>2021-11-02T12:59:27Z</time>
      </trkpt>
      <trkpt lat="43.91662" lon="7.55777">
        <ele>1215.4105739287</ele>
        <time>2021-11-02T12:59:28Z</time>
      </trkpt>
      <trkpt lat="43.91661" lon="7.55778">
        <ele>1214.4106330354</ele>
        <time>2021-11-02T12:59:29Z</time>
      </trkpt>
      <trkpt lat="43.9166" lon="7.55779">
        <ele>1213.4106892352</ele>
        <time>2021-11-02T12:59:30Z</time>
      </trkpt>
      <trkpt lat="43.9166" lon="7.5578">
        <ele>1213.4107334356</ele>
        <time>2021-11-02T12:59:31Z</time>
      </trkpt>
      <trkpt lat="43.9166" lon="7.55781">
        <ele>1212.4107591737</ele>
        <time>2021-11-02T12:59:32Z</time>
      </trkpt>
      <trkpt lat="43.91658" lon="7.55781">
        <ele>1212.4108291596</ele>
        <time>2021-11-02T12:59:33Z</time>
      </trkpt>
      <trkpt lat="43.91656" lon="7.5578">
        <ele>1211.4109223535</ele>
        <time>2021-11-02T12:59:35Z</time>
      </trkpt>
      <trkpt lat="43.91656" lon="7.55781">
        <ele>1212.4109272418</ele>
        <time>2021-11-02T12:59:37Z</time>
      </trkpt>
      <trkpt lat="43.91656" lon="7.55783">
        <ele>1212.410957741</ele>
        <time>2021-11-02T12:59:39Z</time>
      </trkpt>
      <trkpt lat="43.91656" lon="7.55784">
        <ele>1211.4109790283</ele>
        <time>2021-11-02T12:59:40Z</time>
      </trkpt>
      <trkpt lat="43.91656" lon="7.55785">
        <ele>1211.4110045553</ele>
        <time>2021-11-02T12:59:41Z</time>
      </trkpt>
      <trkpt lat="43.91655" lon="7.55787">
        <ele>1212.4110474545</ele>
        <time>2021-11-02T12:59:42Z</time>
      </trkpt>
      <trkpt lat="43.91655" lon="7.55788">
        <ele>1213.4110825401</ele>
        <time>2021-11-02T12:59:43Z</time>
      </trkpt>
      <trkpt lat="43.91654" lon="7.55791">
        <ele>1214.411163664</ele>
        <time>2021-11-02T12:59:45Z</time>
      </trkpt>
      <trkpt lat="43.91654" lon="7.55792">
        <ele>1214.4112159542</ele>
        <time>2021-11-02T12:59:46Z</time>
      </trkpt>
      <trkpt lat="43.91653" lon="7.55794">
        <ele>1214.4112735567</ele>
        <time>2021-11-02T12:59:47Z</time>
      </trkpt>
      <trkpt lat="43.91652" lon="7.55795">
        <ele>1214.4113170913</ele>
        <time>2021-11-02T12:59:48Z</time>
      </trkpt>
      <trkpt lat="43.91652" lon="7.55797">
        <ele>1214.4113675474</ele>
        <time>2021-11-02T12:59:49Z</time>
      </trkpt>
      <trkpt lat="43.91651" lon="7.55798">
        <ele>1214.4114216938</ele>
        <time>2021-11-02T12:59:50Z</time>
      </trkpt>
      <trkpt lat="43.9165" lon="7.55799">
        <ele>1214.4114681393</ele>
        <time>2021-11-02T12:59:51Z</time>
      </trkpt>
      <trkpt lat="43.91649" lon="7.55801">
        <ele>1213.4115621987</ele>
        <time>2021-11-02T12:59:53Z</time>
      </trkpt>
      <trkpt lat="43.91648" lon="7.55802">
        <ele>1213.4116038261</ele>
        <time>2021-11-02T12:59:54Z</time>
      </trkpt>
      <trkpt lat="43.91648" lon="7.55803">
        <ele>1214.4116549569</ele>
        <time>2021-11-02T12:59:55Z</time>
      </trkpt>
      <trkpt lat="43.91647" lon="7.55805">
        <ele>1214.4117043958</ele>
        <time>2021-11-02T12:59:56Z</time>
      </trkpt>
      <trkpt lat="43.91646" lon="7.55806">
        <ele>1214.4117465376</ele>
        <time>2021-11-02T12:59:57Z</time>
      </trkpt>
      <trkpt lat="43.91646" lon="7.55807">
        <ele>1215.411772782</ele>
        <time>2021-11-02T12:59:58Z</time>
      </trkpt>
      <trkpt lat="43.91646" lon="7.55808">
        <ele>1215.4117975319</ele>
        <time>2021-11-02T12:59:59Z</time>
      </trkpt>
      <trkpt lat="43.91646" lon="7.55809">
        <ele>1215.4118239216</ele>
        <time>2021-11-02T13:00:00Z</time>
      </trkpt>
      <trkpt lat="43.91645" lon="7.5581">
        <ele>1214.4118508308</ele>
        <time>2021-11-02T13:00:01Z</time>
      </trkpt>
      <trkpt lat="43.91645" lon="7.5581">
        <ele>1214.4118840751</ele>
        <time>2021-11-02T13:00:02Z</time>
      </trkpt>
      <trkpt lat="43.91644" lon="7.5581">
        <ele>1215.4119125123</ele>
        <time>2021-11-02T13:00:03Z</time>
      </trkpt>
      <trkpt lat="43.91643" lon="7.55811">
        <ele>1215.4119812938</ele>
        <time>2021-11-02T13:00:04Z</time>
      </trkpt>
      <trkpt lat="43.91642" lon="7.55811">
        <ele>1216.4120338544</ele>
        <time>2021-11-02T13:00:05Z</time>
      </trkpt>
      <trkpt lat="43.91641" lon="7.55811">
        <ele>1216.4120726187</ele>
        <time>2021-11-02T13:00:07Z</time>
      </trkpt>
      <trkpt lat="43.9164" lon="7.5581">
        <ele>1215.4120909243</ele>
        <time>2021-11-02T13:00:08Z</time>
      </trkpt>
      <trkpt lat="43.9164" lon="7.5581">
        <ele>1216.4121298636</ele>
        <time>2021-11-02T13:00:10Z</time>
      </trkpt>
      <trkpt lat="43.91639" lon="7.5581">
        <ele>1215.4121620908</ele>
        <time>2021-11-02T13:00:11Z</time>
      </trkpt>
      <trkpt lat="43.91639" lon="7.55811">
        <ele>1215.4121669528</ele>
        <time>2021-11-02T13:00:12Z</time>
      </trkpt>
      <trkpt lat="43.91639" lon="7.55812">
        <ele>1215.4121978745</ele>
        <time>2021-11-02T13:00:13Z</time>
      </trkpt>
      <trkpt lat="43.91639" lon="7.55812">
        <ele>1215.4122009373</ele>
        <time>2021-11-02T13:00:14Z</time>
      </trkpt>
      <trkpt lat="43.91639" lon="7.55814">
        <ele>1215.4122122084</ele>
        <time>2021-11-02T13:00:15Z</time>
      </trkpt>
      <trkpt lat="43.91639" lon="7.55814">
        <ele>1214.4122054866</ele>
        <time>2021-11-02T13:00:16Z</time>
      </trkpt>
      <trkpt lat="43.91639" lon="7.55815">
        <ele>1214.4122188423</ele>
        <time>2021-11-02T13:00:17Z</time>
      </trkpt>
      <trkpt lat="43.9164" lon="7.55816">
        <ele>1213.4122190392</ele>
        <time>2021-11-02T13:00:18Z</time>
      </trkpt>
      <trkpt lat="43.9164" lon="7.55817">
        <ele>1213.4122021548</ele>
        <time>2021-11-02T13:00:19Z</time>
      </trkpt>
      <trkpt lat="43.91641" lon="7.55817">
        <ele>1213.4121779555</ele>
        <time>2021-11-02T13:00:20Z</time>
      </trkpt>
      <trkpt lat="43.91641" lon="7.55818">
        <ele>1212.412151822</ele>
        <time>2021-11-02T13:00:21Z</time>
      </trkpt>
      <trkpt lat="43.91642" lon="7.55819">
        <ele>1211.4121538481</ele>
        <time>2021-11-02T13:00:23Z</time>
      </trkpt>
      <trkpt lat="43.91641" lon="7.55819">
        <ele>1211.4121834283</ele>
        <time>2021-11-02T13:00:24Z</time>
      </trkpt>
      <trkpt lat="43.9164" lon="7.55819">
        <ele>1210.4122289081</ele>
        <time>2021-11-02T13:00:26Z</time>
      </trkpt>
      <trkpt lat="43.9164" lon="7.5582">
        <ele>1210.412243468</ele>
        <time>2021-11-02T13:00:27Z</time>
      </trkpt>
      <trkpt lat="43.9164" lon="7.55821">
        <ele>1210.412260785</ele>
        <time>2021-11-02T13:00:28Z</time>
      </trkpt>
      <trkpt lat="43.9164" lon="7.55822">
        <ele>1209.4122667946</ele>
        <time>2021-11-02T13:00:31Z</time>
      </trkpt>
      <trkpt lat="43.9164" lon="7.55825">
        <ele>1209.4123242903</ele>
        <time>2021-11-02T13:00:32Z</time>
      </trkpt>
      <trkpt lat="43.91639" lon="7.55826">
        <ele>1209.4123765249</ele>
        <time>2021-11-02T13:00:33Z</time>
      </trkpt>
      <trkpt lat="43.91638" lon="7.55827">
        <ele>1208.4124143223</ele>
        <time>2021-11-02T13:00:34Z</time>
      </trkpt>
      <trkpt lat="43.91638" lon="7.55827">
        <ele>1209.4124404748</ele>
        <time>2021-11-02T13:00:35Z</time>
      </trkpt>
      <trkpt lat="43.91638" lon="7.55828">
        <ele>1209.4124570528</ele>
        <time>2021-11-02T13:00:38Z</time>
      </trkpt>
      <trkpt lat="43.91637" lon="7.5583">
        <ele>1209.4125345836</ele>
        <time>2021-11-02T13:00:39Z</time>
      </trkpt>
      <trkpt lat="43.91637" lon="7.5583">
        <ele>1209.4125406336</ele>
        <time>2021-11-02T13:00:41Z</time>
      </trkpt>
      <trkpt lat="43.91637" lon="7.55831">
        <ele>1209.412564874</ele>
        <time>2021-11-02T13:00:44Z</time>
      </trkpt>
      <trkpt lat="43.91636" lon="7.55833">
        <ele>1208.4126413736</ele>
        <time>2021-11-02T13:00:45Z</time>
      </trkpt>
      <trkpt lat="43.91635" lon="7.55833">
        <ele>1207.4126789874</ele>
        <time>2021-11-02T13:00:46Z</time>
      </trkpt>
      <trkpt lat="43.91634" lon="7.55834">
        <ele>1207.4127129158</ele>
        <time>2021-11-02T13:00:47Z</time>
      </trkpt>
      <trkpt lat="43.91634" lon="7.55834">
        <ele>1207.4127392557</ele>
        <time>2021-11-02T13:00:50Z</time>
      </trkpt>
      <trkpt lat="43.91634" lon="7.55836">
        <ele>1207.4127670186</ele>
        <time>2021-11-02T13:00:51Z</time>
      </trkpt>
      <trkpt lat="43.91634" lon="7.55836">
        <ele>1207.4127685397</ele>
        <time>2021-11-02T13:00:52Z</time>
      </trkpt>
      <trkpt lat="43.91634" lon="7.55837">
        <ele>1206.4127728942</ele>
        <time>2021-11-02T13:00:53Z</time>
      </trkpt>
      <trkpt lat="43.91634" lon="7.55838">
        <ele>1207.4127709919</ele>
        <time>2021-11-02T13:00:54Z</time>
      </trkpt>
      <trkpt lat="43.91634" lon="7.55839">
        <ele>1206.4127830846</ele>
        <time>2021-11-02T13:00:56Z</time>
      </trkpt>
      <trkpt lat="43.91634" lon="7.5584">
        <ele>1205.4128275871</ele>
        <time>2021-11-02T13:01:00Z</time>
      </trkpt>
      <trkpt lat="43.91632" lon="7.55841">
        <ele>1206.4129211226</ele>
        <time>2021-11-02T13:01:01Z</time>
      </trkpt>
      <trkpt lat="43.91631" lon="7.55842">
        <ele>1206.4129631736</ele>
        <time>2021-11-02T13:01:02Z</time>
      </trkpt>
      <trkpt lat="43.9163" lon="7.55842">
        <ele>1206.4130124055</ele>
        <time>2021-11-02T13:01:03Z</time>
      </trkpt>
      <trkpt lat="43.9163" lon="7.55842">
        <ele>1205.4130415595</ele>
        <time>2021-11-02T13:01:06Z</time>
      </trkpt>
      <trkpt lat="43.91629" lon="7.55842">
        <ele>1203.4131004943</ele>
        <time>2021-11-02T13:01:07Z</time>
      </trkpt>
      <trkpt lat="43.91628" lon="7.55842">
        <ele>1203.413125684</ele>
        <time>2021-11-02T13:01:08Z</time>
      </trkpt>
      <trkpt lat="43.91627" lon="7.55842">
        <ele>1202.413172116</ele>
        <time>2021-11-02T13:01:09Z</time>
      </trkpt>
      <trkpt lat="43.91626" lon="7.55842">
        <ele>1202.4132143044</ele>
        <time>2021-11-02T13:01:10Z</time>
      </trkpt>
      <trkpt lat="43.91625" lon="7.55842">
        <ele>1201.4132613159</ele>
        <time>2021-11-02T13:01:11Z</time>
      </trkpt>
      <trkpt lat="43.91625" lon="7.55842">
        <ele>1201.4132918757</ele>
        <time>2021-11-02T13:01:12Z</time>
      </trkpt>
      <trkpt lat="43.91624" lon="7.55842">
        <ele>1201.4133281387</ele>
        <time>2021-11-02T13:01:15Z</time>
      </trkpt>
      <trkpt lat="43.91623" lon="7.55843">
        <ele>1201.4133850856</ele>
        <time>2021-11-02T13:01:16Z</time>
      </trkpt>
      <trkpt lat="43.91623" lon="7.55844">
        <ele>1201.4134060457</ele>
        <time>2021-11-02T13:01:17Z</time>
      </trkpt>
      <trkpt lat="43.91622" lon="7.55844">
        <ele>1200.4134451891</ele>
        <time>2021-11-02T13:01:18Z</time>
      </trkpt>
      <trkpt lat="43.91622" lon="7.55845">
        <ele>1199.4134927345</ele>
        <time>2021-11-02T13:01:20Z</time>
      </trkpt>
      <trkpt lat="43.91621" lon="7.55846">
        <ele>1199.4135469748</ele>
        <time>2021-11-02T13:01:21Z</time>
      </trkpt>
      <trkpt lat="43.9162" lon="7.55846">
        <ele>1199.4135926221</ele>
        <time>2021-11-02T13:01:24Z</time>
      </trkpt>
      <trkpt lat="43.91619" lon="7.55845">
        <ele>1199.4136070928</ele>
        <time>2021-11-02T13:01:28Z</time>
      </trkpt>
      <trkpt lat="43.91618" lon="7.55846">
        <ele>1198.4136859952</ele>
        <time>2021-11-02T13:01:29Z</time>
      </trkpt>
      <trkpt lat="43.91617" lon="7.55847">
        <ele>1197.4137217788</ele>
        <time>2021-11-02T13:01:30Z</time>
      </trkpt>
      <trkpt lat="43.91617" lon="7.55847">
        <ele>1197.4137513174</ele>
        <time>2021-11-02T13:01:31Z</time>
      </trkpt>
      <trkpt lat="43.91616" lon="7.55847">
        <ele>1197.4137835277</ele>
        <time>2021-11-02T13:01:32Z</time>
      </trkpt>
      <trkpt lat="43.91616" lon="7.55848">
        <ele>1197.4138134728</ele>
        <time>2021-11-02T13:01:33Z</time>
      </trkpt>
      <trkpt lat="43.91615" lon="7.55849">
        <ele>1196.4138589396</ele>
        <time>2021-11-02T13:01:34Z</time>
      </trkpt>
      <trkpt lat="43.91615" lon="7.55851">
        <ele>1196.4139150716</ele>
        <time>2021-11-02T13:01:35Z</time>
      </trkpt>
      <trkpt lat="43.91614" lon="7.55852">
        <ele>1195.4139663748</ele>
        <time>2021-11-02T13:01:36Z</time>
      </trkpt>
      <trkpt lat="43.91613" lon="7.55852">
        <ele>1195.413999509</ele>
        <time>2021-11-02T13:01:37Z</time>
      </trkpt>
      <trkpt lat="43.91612" lon="7.55852">
        <ele>1195.4140523419</ele>
        <time>2021-11-02T13:01:38Z</time>
      </trkpt>
      <trkpt lat="43.91612" lon="7.55852">
        <ele>1195.4140523419</ele>
        <time>2021-11-02T13:01:40Z</time>
      </trkpt>
      <trkpt lat="43.91611" lon="7.55854">
        <ele>1194.414151183</ele>
        <time>2021-11-02T13:01:41Z</time>
      </trkpt>
      <trkpt lat="43.9161" lon="7.55855">
        <ele>1195.414180674</ele>
        <time>2021-11-02T13:01:42Z</time>
      </trkpt>
      <trkpt lat="43.9161" lon="7.55855">
        <ele>1194.4142089062</ele>
        <time>2021-11-02T13:01:43Z</time>
      </trkpt>
      <trkpt lat="43.91609" lon="7.55855">
        <ele>1194.4142555451</ele>
        <time>2021-11-02T13:01:44Z</time>
      </trkpt>
      <trkpt lat="43.91609" lon="7.55855">
        <ele>1194.4142555451</ele>
        <time>2021-11-02T13:01:45Z</time>
      </trkpt>
      <trkpt lat="43.91607" lon="7.55855">
        <ele>1195.4143619867</ele>
        <time>2021-11-02T13:01:46Z</time>
      </trkpt>
      <trkpt lat="43.91606" lon="7.55855">
        <ele>1195.4144212544</ele>
        <time>2021-11-02T13:01:47Z</time>
      </trkpt>
      <trkpt lat="43.91605" lon="7.55856">
        <ele>1196.4144728004</ele>
        <time>2021-11-02T13:01:48Z</time>
      </trkpt>
      <trkpt lat="43.91604" lon="7.55856">
        <ele>1196.4145208736</ele>
        <time>2021-11-02T13:01:49Z</time>
      </trkpt>
      <trkpt lat="43.91603" lon="7.55856">
        <ele>1196.4145434997</ele>
        <time>2021-11-02T13:01:51Z</time>
      </trkpt>
      <trkpt lat="43.91602" lon="7.55857">
        <ele>1195.4145991158</ele>
        <time>2021-11-02T13:01:52Z</time>
      </trkpt>
      <trkpt lat="43.91602" lon="7.55857">
        <ele>1195.4146449695</ele>
        <time>2021-11-02T13:01:53Z</time>
      </trkpt>
      <trkpt lat="43.91601" lon="7.55857">
        <ele>1194.414667806</ele>
        <time>2021-11-02T13:01:54Z</time>
      </trkpt>
      <trkpt lat="43.91601" lon="7.55857">
        <ele>1194.4146918839</ele>
        <time>2021-11-02T13:01:57Z</time>
      </trkpt>
      <trkpt lat="43.916" lon="7.55859">
        <ele>1194.4147378025</ele>
        <time>2021-11-02T13:01:58Z</time>
      </trkpt>
      <trkpt lat="43.916" lon="7.55859">
        <ele>1194.4147598719</ele>
        <time>2021-11-02T13:01:59Z</time>
      </trkpt>
      <trkpt lat="43.91599" lon="7.5586">
        <ele>1194.4148148645</ele>
        <time>2021-11-02T13:02:00Z</time>
      </trkpt>
      <trkpt lat="43.91598" lon="7.5586">
        <ele>1194.4148685496</ele>
        <time>2021-11-02T13:02:01Z</time>
      </trkpt>
      <trkpt lat="43.91597" lon="7.5586">
        <ele>1194.4149243766</ele>
        <time>2021-11-02T13:02:02Z</time>
      </trkpt>
      <trkpt lat="43.91596" lon="7.55861">
        <ele>1194.4149891584</ele>
        <time>2021-11-02T13:02:03Z</time>
      </trkpt>
      <trkpt lat="43.91595" lon="7.55861">
        <ele>1193.4150478245</ele>
        <time>2021-11-02T13:02:04Z</time>
      </trkpt>
      <trkpt lat="43.91595" lon="7.55862">
        <ele>1193.4150562774</ele>
        <time>2021-11-02T13:02:05Z</time>
      </trkpt>
      <trkpt lat="43.91594" lon="7.55862">
        <ele>1194.4150929173</ele>
        <time>2021-11-02T13:02:06Z</time>
      </trkpt>
      <trkpt lat="43.91593" lon="7.55862">
        <ele>1193.4151542325</ele>
        <time>2021-11-02T13:02:07Z</time>
      </trkpt>
      <trkpt lat="43.91591" lon="7.55862">
        <ele>1193.4152109015</ele>
        <time>2021-11-02T13:02:08Z</time>
      </trkpt>
      <trkpt lat="43.91591" lon="7.55862">
        <ele>1193.4152087007</ele>
        <time>2021-11-02T13:02:11Z</time>
      </trkpt>
      <trkpt lat="43.91589" lon="7.55863">
        <ele>1193.4153408763</ele>
        <time>2021-11-02T13:02:12Z</time>
      </trkpt>
      <trkpt lat="43.91588" lon="7.55863">
        <ele>1192.4153906713</ele>
        <time>2021-11-02T13:02:13Z</time>
      </trkpt>
      <trkpt lat="43.91587" lon="7.55863">
        <ele>1191.4154257774</ele>
        <time>2021-11-02T13:02:14Z</time>
      </trkpt>
      <trkpt lat="43.91586" lon="7.55863">
        <ele>1191.4154741109</ele>
        <time>2021-11-02T13:02:15Z</time>
      </trkpt>
      <trkpt lat="43.91586" lon="7.55863">
        <ele>1191.4154741109</ele>
        <time>2021-11-02T13:02:18Z</time>
      </trkpt>
      <trkpt lat="43.91585" lon="7.55865">
        <ele>1190.4155678364</ele>
        <time>2021-11-02T13:02:19Z</time>
      </trkpt>
      <trkpt lat="43.91585" lon="7.55866">
        <ele>1190.4155987294</ele>
        <time>2021-11-02T13:02:20Z</time>
      </trkpt>
      <trkpt lat="43.91584" lon="7.55866">
        <ele>1189.4156517126</ele>
        <time>2021-11-02T13:02:21Z</time>
      </trkpt>
      <trkpt lat="43.91583" lon="7.55866">
        <ele>1189.4157021012</ele>
        <time>2021-11-02T13:02:22Z</time>
      </trkpt>
      <trkpt lat="43.91583" lon="7.55866">
        <ele>1189.4157021012</ele>
        <time>2021-11-02T13:02:24Z</time>
      </trkpt>
      <trkpt lat="43.9158" lon="7.55866">
        <ele>1188.4158350343</ele>
        <time>2021-11-02T13:02:25Z</time>
      </trkpt>
      <trkpt lat="43.91579" lon="7.55866">
        <ele>1188.4158760532</ele>
        <time>2021-11-02T13:02:26Z</time>
      </trkpt>
      <trkpt lat="43.91578" lon="7.55866">
        <ele>1188.4159479672</ele>
        <time>2021-11-02T13:02:27Z</time>
      </trkpt>
      <trkpt lat="43.91577" lon="7.55867">
        <ele>1188.4159865992</ele>
        <time>2021-11-02T13:02:30Z</time>
      </trkpt>
      <trkpt lat="43.91575" lon="7.55868">
        <ele>1189.4160931319</ele>
        <time>2021-11-02T13:02:31Z</time>
      </trkpt>
      <trkpt lat="43.91574" lon="7.55868">
        <ele>1190.4161362462</ele>
        <time>2021-11-02T13:02:33Z</time>
      </trkpt>
      <trkpt lat="43.91574" lon="7.55869">
        <ele>1190.4161538086</ele>
        <time>2021-11-02T13:02:34Z</time>
      </trkpt>
      <trkpt lat="43.91574" lon="7.5587">
        <ele>1190.4161808752</ele>
        <time>2021-11-02T13:02:37Z</time>
      </trkpt>
      <trkpt lat="43.91573" lon="7.55871">
        <ele>1191.4162474567</ele>
        <time>2021-11-02T13:02:38Z</time>
      </trkpt>
      <trkpt lat="43.91572" lon="7.55872">
        <ele>1190.4162829956</ele>
        <time>2021-11-02T13:02:39Z</time>
      </trkpt>
      <trkpt lat="43.91572" lon="7.55873">
        <ele>1190.4163192532</ele>
        <time>2021-11-02T13:02:40Z</time>
      </trkpt>
      <trkpt lat="43.91571" lon="7.55874">
        <ele>1190.4163529313</ele>
        <time>2021-11-02T13:02:43Z</time>
      </trkpt>
      <trkpt lat="43.9157" lon="7.55875">
        <ele>1190.416455364</ele>
        <time>2021-11-02T13:02:44Z</time>
      </trkpt>
      <trkpt lat="43.91569" lon="7.55876">
        <ele>1189.4164988828</ele>
        <time>2021-11-02T13:02:45Z</time>
      </trkpt>
      <trkpt lat="43.91568" lon="7.55876">
        <ele>1189.416543834</ele>
        <time>2021-11-02T13:02:46Z</time>
      </trkpt>
      <trkpt lat="43.91568" lon="7.55876">
        <ele>1189.4165810837</ele>
        <time>2021-11-02T13:02:47Z</time>
      </trkpt>
      <trkpt lat="43.91567" lon="7.55876">
        <ele>1189.4166161555</ele>
        <time>2021-11-02T13:02:48Z</time>
      </trkpt>
      <trkpt lat="43.91566" lon="7.55876">
        <ele>1188.4166569064</ele>
        <time>2021-11-02T13:02:49Z</time>
      </trkpt>
      <trkpt lat="43.91565" lon="7.55876">
        <ele>1188.4167032263</ele>
        <time>2021-11-02T13:02:50Z</time>
      </trkpt>
      <trkpt lat="43.91565" lon="7.55877">
        <ele>1188.4167327608</ele>
        <time>2021-11-02T13:02:51Z</time>
      </trkpt>
      <trkpt lat="43.91564" lon="7.55876">
        <ele>1188.4167630253</ele>
        <time>2021-11-02T13:02:52Z</time>
      </trkpt>
      <trkpt lat="43.91563" lon="7.55877">
        <ele>1188.4167961038</ele>
        <time>2021-11-02T13:02:53Z</time>
      </trkpt>
      <trkpt lat="43.91563" lon="7.55877">
        <ele>1189.4168199909</ele>
        <time>2021-11-02T13:02:55Z</time>
      </trkpt>
      <trkpt lat="43.9156" lon="7.55876">
        <ele>1188.4169386636</ele>
        <time>2021-11-02T13:02:56Z</time>
      </trkpt>
      <trkpt lat="43.91558" lon="7.55876">
        <ele>1188.4170229913</ele>
        <time>2021-11-02T13:02:57Z</time>
      </trkpt>
      <trkpt lat="43.91557" lon="7.55875">
        <ele>1188.4170877972</ele>
        <time>2021-11-02T13:02:58Z</time>
      </trkpt>
      <trkpt lat="43.91556" lon="7.55875">
        <ele>1188.4171480515</ele>
        <time>2021-11-02T13:02:59Z</time>
      </trkpt>
      <trkpt lat="43.91554" lon="7.55874">
        <ele>1188.4172173366</ele>
        <time>2021-11-02T13:03:00Z</time>
      </trkpt>
      <trkpt lat="43.91553" lon="7.55874">
        <ele>1188.4172872492</ele>
        <time>2021-11-02T13:03:01Z</time>
      </trkpt>
      <trkpt lat="43.91551" lon="7.55874">
        <ele>1188.4173413251</ele>
        <time>2021-11-02T13:03:02Z</time>
      </trkpt>
      <trkpt lat="43.9155" lon="7.55874">
        <ele>1188.4173945217</ele>
        <time>2021-11-02T13:03:03Z</time>
      </trkpt>
      <trkpt lat="43.91549" lon="7.55874">
        <ele>1188.417441797</ele>
        <time>2021-11-02T13:03:04Z</time>
      </trkpt>
      <trkpt lat="43.91549" lon="7.55873">
        <ele>1188.4174768197</ele>
        <time>2021-11-02T13:03:05Z</time>
      </trkpt>
      <trkpt lat="43.91547" lon="7.55873">
        <ele>1188.4175290925</ele>
        <time>2021-11-02T13:03:06Z</time>
      </trkpt>
      <trkpt lat="43.91546" lon="7.55873">
        <ele>1188.4176025893</ele>
        <time>2021-11-02T13:03:07Z</time>
      </trkpt>
      <trkpt lat="43.91546" lon="7.55873">
        <ele>1188.4176276094</ele>
        <time>2021-11-02T13:03:09Z</time>
      </trkpt>
      <trkpt lat="43.91544" lon="7.55874">
        <ele>1186.4177191672</ele>
        <time>2021-11-02T13:03:10Z</time>
      </trkpt>
      <trkpt lat="43.91543" lon="7.55876">
        <ele>1186.4177938368</ele>
        <time>2021-11-02T13:03:11Z</time>
      </trkpt>
      <trkpt lat="43.91542" lon="7.55877">
        <ele>1185.4178723951</ele>
        <time>2021-11-02T13:03:13Z</time>
      </trkpt>
      <trkpt lat="43.91541" lon="7.55878">
        <ele>1185.4179105224</ele>
        <time>2021-11-02T13:03:14Z</time>
      </trkpt>
      <trkpt lat="43.9154" lon="7.55879">
        <ele>1185.4179556458</ele>
        <time>2021-11-02T13:03:15Z</time>
      </trkpt>
      <trkpt lat="43.9154" lon="7.55879">
        <ele>1185.4179937448</ele>
        <time>2021-11-02T13:03:16Z</time>
      </trkpt>
      <trkpt lat="43.91539" lon="7.5588">
        <ele>1186.4180471116</ele>
        <time>2021-11-02T13:03:17Z</time>
      </trkpt>
      <trkpt lat="43.91538" lon="7.55881">
        <ele>1185.4180903201</ele>
        <time>2021-11-02T13:03:18Z</time>
      </trkpt>
      <trkpt lat="43.91538" lon="7.55882">
        <ele>1185.4181329358</ele>
        <time>2021-11-02T13:03:19Z</time>
      </trkpt>
      <trkpt lat="43.91537" lon="7.55883">
        <ele>1185.4181741565</ele>
        <time>2021-11-02T13:03:20Z</time>
      </trkpt>
      <trkpt lat="43.91537" lon="7.55884">
        <ele>1185.4182103889</ele>
        <time>2021-11-02T13:03:23Z</time>
      </trkpt>
      <trkpt lat="43.91534" lon="7.55886">
        <ele>1184.4183712362</ele>
        <time>2021-11-02T13:03:24Z</time>
      </trkpt>
      <trkpt lat="43.91533" lon="7.55887">
        <ele>1183.4184467618</ele>
        <time>2021-11-02T13:03:25Z</time>
      </trkpt>
      <trkpt lat="43.91532" lon="7.55888">
        <ele>1184.418516392</ele>
        <time>2021-11-02T13:03:26Z</time>
      </trkpt>
      <trkpt lat="43.9153" lon="7.55889">
        <ele>1184.4185812473</ele>
        <time>2021-11-02T13:03:27Z</time>
      </trkpt>
      <trkpt lat="43.9153" lon="7.55889">
        <ele>1184.4185812473</ele>
        <time>2021-11-02T13:03:28Z</time>
      </trkpt>
      <trkpt lat="43.91529" lon="7.55889">
        <ele>1184.4186562603</ele>
        <time>2021-11-02T13:03:29Z</time>
      </trkpt>
      <trkpt lat="43.91529" lon="7.55889">
        <ele>1185.418679259</ele>
        <time>2021-11-02T13:03:31Z</time>
      </trkpt>
      <trkpt lat="43.91527" lon="7.5589">
        <ele>1186.4187465178</ele>
        <time>2021-11-02T13:03:33Z</time>
      </trkpt>
      <trkpt lat="43.91527" lon="7.55891">
        <ele>1184.4187879686</ele>
        <time>2021-11-02T13:03:39Z</time>
      </trkpt>
      <trkpt lat="43.91527" lon="7.55892">
        <ele>1184.4188026204</ele>
        <time>2021-11-02T13:03:40Z</time>
      </trkpt>
      <trkpt lat="43.91527" lon="7.55893">
        <ele>1184.4188170119</ele>
        <time>2021-11-02T13:03:41Z</time>
      </trkpt>
      <trkpt lat="43.91526" lon="7.55893">
        <ele>1184.4188481215</ele>
        <time>2021-11-02T13:03:43Z</time>
      </trkpt>
      <trkpt lat="43.91525" lon="7.55896">
        <ele>1184.4189412363</ele>
        <time>2021-11-02T13:03:45Z</time>
      </trkpt>
      <trkpt lat="43.91524" lon="7.55896">
        <ele>1184.418989397</ele>
        <time>2021-11-02T13:03:46Z</time>
      </trkpt>
      <trkpt lat="43.91523" lon="7.55897">
        <ele>1184.4190620867</ele>
        <time>2021-11-02T13:03:47Z</time>
      </trkpt>
      <trkpt lat="43.91522" lon="7.55897">
        <ele>1184.4191262489</ele>
        <time>2021-11-02T13:03:49Z</time>
      </trkpt>
      <trkpt lat="43.91522" lon="7.55897">
        <ele>1184.4191262489</ele>
        <time>2021-11-02T13:03:50Z</time>
      </trkpt>
      <trkpt lat="43.91519" lon="7.55897">
        <ele>1183.4192521812</ele>
        <time>2021-11-02T13:03:51Z</time>
      </trkpt>
      <trkpt lat="43.91518" lon="7.55898">
        <ele>1183.4193312812</ele>
        <time>2021-11-02T13:03:53Z</time>
      </trkpt>
      <trkpt lat="43.91517" lon="7.55899">
        <ele>1184.4193681489</ele>
        <time>2021-11-02T13:03:54Z</time>
      </trkpt>
      <trkpt lat="43.91517" lon="7.55899">
        <ele>1184.419383872</ele>
        <time>2021-11-02T13:03:55Z</time>
      </trkpt>
      <trkpt lat="43.91517" lon="7.559">
        <ele>1184.4194236477</ele>
        <time>2021-11-02T13:03:56Z</time>
      </trkpt>
      <trkpt lat="43.91516" lon="7.55901">
        <ele>1184.4194483177</ele>
        <time>2021-11-02T13:03:57Z</time>
      </trkpt>
      <trkpt lat="43.91516" lon="7.55902">
        <ele>1184.4194835533</ele>
        <time>2021-11-02T13:03:59Z</time>
      </trkpt>
      <trkpt lat="43.91515" lon="7.55902">
        <ele>1184.4195185902</ele>
        <time>2021-11-02T13:04:00Z</time>
      </trkpt>
      <trkpt lat="43.91515" lon="7.55903">
        <ele>1184.4195614633</ele>
        <time>2021-11-02T13:04:01Z</time>
      </trkpt>
      <trkpt lat="43.91514" lon="7.55904">
        <ele>1183.4196144991</ele>
        <time>2021-11-02T13:04:02Z</time>
      </trkpt>
      <trkpt lat="43.91512" lon="7.55905">
        <ele>1183.4197245662</ele>
        <time>2021-11-02T13:04:04Z</time>
      </trkpt>
      <trkpt lat="43.9151" lon="7.55905">
        <ele>1183.4197984126</ele>
        <time>2021-11-02T13:04:05Z</time>
      </trkpt>
      <trkpt lat="43.91509" lon="7.55906">
        <ele>1183.4198628381</ele>
        <time>2021-11-02T13:04:06Z</time>
      </trkpt>
      <trkpt lat="43.91508" lon="7.55906">
        <ele>1183.4199341841</ele>
        <time>2021-11-02T13:04:07Z</time>
      </trkpt>
      <trkpt lat="43.91507" lon="7.55906">
        <ele>1182.4199916027</ele>
        <time>2021-11-02T13:04:09Z</time>
      </trkpt>
      <trkpt lat="43.91506" lon="7.55906">
        <ele>1182.4200433303</ele>
        <time>2021-11-02T13:04:10Z</time>
      </trkpt>
      <trkpt lat="43.91504" lon="7.55906">
        <ele>1182.4201103307</ele>
        <time>2021-11-02T13:04:11Z</time>
      </trkpt>
      <trkpt lat="43.91503" lon="7.55905">
        <ele>1181.4201642667</ele>
        <time>2021-11-02T13:04:12Z</time>
      </trkpt>
      <trkpt lat="43.91502" lon="7.55905">
        <ele>1181.4202315356</ele>
        <time>2021-11-02T13:04:13Z</time>
      </trkpt>
      <trkpt lat="43.915" lon="7.55907">
        <ele>1181.4203512491</ele>
        <time>2021-11-02T13:04:15Z</time>
      </trkpt>
      <trkpt lat="43.91498" lon="7.55907">
        <ele>1180.4204262528</ele>
        <time>2021-11-02T13:04:16Z</time>
      </trkpt>
      <trkpt lat="43.91497" lon="7.55907">
        <ele>1180.420485743</ele>
        <time>2021-11-02T13:04:17Z</time>
      </trkpt>
      <trkpt lat="43.91495" lon="7.55908">
        <ele>1180.4206167414</ele>
        <time>2021-11-02T13:04:19Z</time>
      </trkpt>
      <trkpt lat="43.91493" lon="7.55909">
        <ele>1179.4206866996</ele>
        <time>2021-11-02T13:04:20Z</time>
      </trkpt>
      <trkpt lat="43.91492" lon="7.5591">
        <ele>1180.4207543225</ele>
        <time>2021-11-02T13:04:21Z</time>
      </trkpt>
      <trkpt lat="43.91492" lon="7.55911">
        <ele>1179.4207832059</ele>
        <time>2021-11-02T13:04:22Z</time>
      </trkpt>
      <trkpt lat="43.9149" lon="7.55912">
        <ele>1179.4209101594</ele>
        <time>2021-11-02T13:04:24Z</time>
      </trkpt>
      <trkpt lat="43.91489" lon="7.55913">
        <ele>1179.42098244</ele>
        <time>2021-11-02T13:04:25Z</time>
      </trkpt>
      <trkpt lat="43.91487" lon="7.55913">
        <ele>1178.4210390232</ele>
        <time>2021-11-02T13:04:26Z</time>
      </trkpt>
      <trkpt lat="43.91486" lon="7.55913">
        <ele>1178.4210951982</ele>
        <time>2021-11-02T13:04:27Z</time>
      </trkpt>
      <trkpt lat="43.91485" lon="7.55913">
        <ele>1178.4211443626</ele>
        <time>2021-11-02T13:04:28Z</time>
      </trkpt>
      <trkpt lat="43.91484" lon="7.55914">
        <ele>1178.4212014086</ele>
        <time>2021-11-02T13:04:29Z</time>
      </trkpt>
      <trkpt lat="43.91483" lon="7.55914">
        <ele>1178.4212566369</ele>
        <time>2021-11-02T13:04:30Z</time>
      </trkpt>
      <trkpt lat="43.91482" lon="7.55915">
        <ele>1178.4213302445</ele>
        <time>2021-11-02T13:04:31Z</time>
      </trkpt>
      <trkpt lat="43.91481" lon="7.55915">
        <ele>1178.4213953977</ele>
        <time>2021-11-02T13:04:32Z</time>
      </trkpt>
      <trkpt lat="43.9148" lon="7.55916">
        <ele>1177.4214463078</ele>
        <time>2021-11-02T13:04:33Z</time>
      </trkpt>
      <trkpt lat="43.91479" lon="7.55917">
        <ele>1176.421506849</ele>
        <time>2021-11-02T13:04:34Z</time>
      </trkpt>
      <trkpt lat="43.91478" lon="7.55917">
        <ele>1176.4215571858</ele>
        <time>2021-11-02T13:04:35Z</time>
      </trkpt>
      <trkpt lat="43.91477" lon="7.55917">
        <ele>1175.4216085414</ele>
        <time>2021-11-02T13:04:36Z</time>
      </trkpt>
      <trkpt lat="43.91476" lon="7.55917">
        <ele>1175.4216653864</ele>
        <time>2021-11-02T13:04:37Z</time>
      </trkpt>
      <trkpt lat="43.91475" lon="7.55918">
        <ele>1175.421721339</ele>
        <time>2021-11-02T13:04:38Z</time>
      </trkpt>
      <trkpt lat="43.91474" lon="7.55918">
        <ele>1175.4217602331</ele>
        <time>2021-11-02T13:04:39Z</time>
      </trkpt>
      <trkpt lat="43.91474" lon="7.55919">
        <ele>1175.4217991936</ele>
        <time>2021-11-02T13:04:40Z</time>
      </trkpt>
      <trkpt lat="43.91473" lon="7.55919">
        <ele>1175.421838842</ele>
        <time>2021-11-02T13:04:41Z</time>
      </trkpt>
      <trkpt lat="43.91472" lon="7.55919">
        <ele>1175.4218930466</ele>
        <time>2021-11-02T13:04:42Z</time>
      </trkpt>
      <trkpt lat="43.91472" lon="7.55919">
        <ele>1175.4218930466</ele>
        <time>2021-11-02T13:04:43Z</time>
      </trkpt>
      <trkpt lat="43.9147" lon="7.5592">
        <ele>1176.4219785446</ele>
        <time>2021-11-02T13:04:44Z</time>
      </trkpt>
      <trkpt lat="43.9147" lon="7.55921">
        <ele>1176.4220250388</ele>
        <time>2021-11-02T13:04:45Z</time>
      </trkpt>
      <trkpt lat="43.91469" lon="7.55922">
        <ele>1177.422073208</ele>
        <time>2021-11-02T13:04:46Z</time>
      </trkpt>
      <trkpt lat="43.91468" lon="7.55923">
        <ele>1177.4221201989</ele>
        <time>2021-11-02T13:04:47Z</time>
      </trkpt>
      <trkpt lat="43.91467" lon="7.55924">
        <ele>1177.4221767243</ele>
        <time>2021-11-02T13:04:48Z</time>
      </trkpt>
      <trkpt lat="43.91467" lon="7.55925">
        <ele>1177.4222171073</ele>
        <time>2021-11-02T13:04:49Z</time>
      </trkpt>
      <trkpt lat="43.91466" lon="7.55926">
        <ele>1176.4222768115</ele>
        <time>2021-11-02T13:04:50Z</time>
      </trkpt>
      <trkpt lat="43.91465" lon="7.55927">
        <ele>1176.4223372411</ele>
        <time>2021-11-02T13:04:51Z</time>
      </trkpt>
      <trkpt lat="43.91464" lon="7.55928">
        <ele>1177.4223847971</ele>
        <time>2021-11-02T13:04:52Z</time>
      </trkpt>
      <trkpt lat="43.91463" lon="7.55929">
        <ele>1177.4224444227</ele>
        <time>2021-11-02T13:04:53Z</time>
      </trkpt>
      <trkpt lat="43.91463" lon="7.55929">
        <ele>1176.4224916908</ele>
        <time>2021-11-02T13:04:54Z</time>
      </trkpt>
      <trkpt lat="43.91462" lon="7.5593">
        <ele>1176.4225383532</ele>
        <time>2021-11-02T13:04:55Z</time>
      </trkpt>
      <trkpt lat="43.91461" lon="7.5593">
        <ele>1176.4225975198</ele>
        <time>2021-11-02T13:04:56Z</time>
      </trkpt>
      <trkpt lat="43.9146" lon="7.55931">
        <ele>1176.4226493518</ele>
        <time>2021-11-02T13:04:57Z</time>
      </trkpt>
      <trkpt lat="43.91459" lon="7.55932">
        <ele>1176.4227076621</ele>
        <time>2021-11-02T13:04:58Z</time>
      </trkpt>
      <trkpt lat="43.91458" lon="7.55932">
        <ele>1176.422760451</ele>
        <time>2021-11-02T13:04:59Z</time>
      </trkpt>
      <trkpt lat="43.91457" lon="7.55932">
        <ele>1175.4228129192</ele>
        <time>2021-11-02T13:05:00Z</time>
      </trkpt>
      <trkpt lat="43.91456" lon="7.55933">
        <ele>1176.4228508967</ele>
        <time>2021-11-02T13:05:01Z</time>
      </trkpt>
      <trkpt lat="43.91456" lon="7.55933">
        <ele>1176.4228849891</ele>
        <time>2021-11-02T13:05:02Z</time>
      </trkpt>
      <trkpt lat="43.91455" lon="7.55934">
        <ele>1176.4229348221</ele>
        <time>2021-11-02T13:05:03Z</time>
      </trkpt>
      <trkpt lat="43.91454" lon="7.55935">
        <ele>1176.4229799686</ele>
        <time>2021-11-02T13:05:04Z</time>
      </trkpt>
      <trkpt lat="43.91453" lon="7.55935">
        <ele>1177.4230372513</ele>
        <time>2021-11-02T13:05:05Z</time>
      </trkpt>
      <trkpt lat="43.91453" lon="7.55936">
        <ele>1177.4230754848</ele>
        <time>2021-11-02T13:05:06Z</time>
      </trkpt>
      <trkpt lat="43.91452" lon="7.55937">
        <ele>1177.423125735</ele>
        <time>2021-11-02T13:05:07Z</time>
      </trkpt>
      <trkpt lat="43.91451" lon="7.55937">
        <ele>1177.4231592484</ele>
        <time>2021-11-02T13:05:08Z</time>
      </trkpt>
      <trkpt lat="43.91451" lon="7.55937">
        <ele>1176.423195558</ele>
        <time>2021-11-02T13:05:09Z</time>
      </trkpt>
      <trkpt lat="43.9145" lon="7.55938">
        <ele>1176.4232240179</ele>
        <time>2021-11-02T13:05:12Z</time>
      </trkpt>
      <trkpt lat="43.91448" lon="7.55939">
        <ele>1177.42334385</ele>
        <time>2021-11-02T13:05:13Z</time>
      </trkpt>
      <trkpt lat="43.91447" lon="7.5594">
        <ele>1177.4233902361</ele>
        <time>2021-11-02T13:05:14Z</time>
      </trkpt>
      <trkpt lat="43.91447" lon="7.55941">
        <ele>1177.4234461885</ele>
        <time>2021-11-02T13:05:15Z</time>
      </trkpt>
      <trkpt lat="43.91446" lon="7.55942">
        <ele>1176.4234881983</ele>
        <time>2021-11-02T13:05:16Z</time>
      </trkpt>
      <trkpt lat="43.91446" lon="7.55942">
        <ele>1176.4235090318</ele>
        <time>2021-11-02T13:05:17Z</time>
      </trkpt>
      <trkpt lat="43.91445" lon="7.55943">
        <ele>1176.4235399935</ele>
        <time>2021-11-02T13:05:20Z</time>
      </trkpt>
      <trkpt lat="43.91445" lon="7.55944">
        <ele>1176.4235804084</ele>
        <time>2021-11-02T13:05:22Z</time>
      </trkpt>
      <trkpt lat="43.91444" lon="7.55946">
        <ele>1175.4236624128</ele>
        <time>2021-11-02T13:05:24Z</time>
      </trkpt>
      <trkpt lat="43.91443" lon="7.55947">
        <ele>1175.423703182</ele>
        <time>2021-11-02T13:05:25Z</time>
      </trkpt>
      <trkpt lat="43.91443" lon="7.55948">
        <ele>1175.4237391391</ele>
        <time>2021-11-02T13:05:26Z</time>
      </trkpt>
      <trkpt lat="43.91442" lon="7.55949">
        <ele>1174.4237896658</ele>
        <time>2021-11-02T13:05:27Z</time>
      </trkpt>
      <trkpt lat="43.91441" lon="7.5595">
        <ele>1174.4238412871</ele>
        <time>2021-11-02T13:05:28Z</time>
      </trkpt>
      <trkpt lat="43.9144" lon="7.5595">
        <ele>1173.4238982045</ele>
        <time>2021-11-02T13:05:29Z</time>
      </trkpt>
      <trkpt lat="43.9144" lon="7.55951">
        <ele>1173.4239122231</ele>
        <time>2021-11-02T13:05:30Z</time>
      </trkpt>
      <trkpt lat="43.91439" lon="7.55952">
        <ele>1173.4239726939</ele>
        <time>2021-11-02T13:05:31Z</time>
      </trkpt>
      <trkpt lat="43.91438" lon="7.55953">
        <ele>1174.424007152</ele>
        <time>2021-11-02T13:05:32Z</time>
      </trkpt>
      <trkpt lat="43.91438" lon="7.55954">
        <ele>1174.4240463322</ele>
        <time>2021-11-02T13:05:33Z</time>
      </trkpt>
      <trkpt lat="43.91438" lon="7.55955">
        <ele>1174.4240760943</ele>
        <time>2021-11-02T13:05:34Z</time>
      </trkpt>
      <trkpt lat="43.91438" lon="7.55957">
        <ele>1174.4240777106</ele>
        <time>2021-11-02T13:05:35Z</time>
      </trkpt>
      <trkpt lat="43.91438" lon="7.55958">
        <ele>1175.4240893424</ele>
        <time>2021-11-02T13:05:36Z</time>
      </trkpt>
      <trkpt lat="43.91438" lon="7.55959">
        <ele>1174.424110669</ele>
        <time>2021-11-02T13:05:37Z</time>
      </trkpt>
      <trkpt lat="43.91438" lon="7.55961">
        <ele>1175.4241394073</ele>
        <time>2021-11-02T13:05:39Z</time>
      </trkpt>
      <trkpt lat="43.91437" lon="7.55961">
        <ele>1175.4241850762</ele>
        <time>2021-11-02T13:05:41Z</time>
      </trkpt>
      <trkpt lat="43.91436" lon="7.55962">
        <ele>1176.4242442986</ele>
        <time>2021-11-02T13:05:42Z</time>
      </trkpt>
      <trkpt lat="43.91435" lon="7.55963">
        <ele>1176.4243051222</ele>
        <time>2021-11-02T13:05:43Z</time>
      </trkpt>
      <trkpt lat="43.91434" lon="7.55964">
        <ele>1176.424407604</ele>
        <time>2021-11-02T13:05:45Z</time>
      </trkpt>
      <trkpt lat="43.91433" lon="7.55964">
        <ele>1176.4244419393</ele>
        <time>2021-11-02T13:05:46Z</time>
      </trkpt>
      <trkpt lat="43.91433" lon="7.55965">
        <ele>1176.4244706626</ele>
        <time>2021-11-02T13:05:47Z</time>
      </trkpt>
      <trkpt lat="43.91432" lon="7.55966">
        <ele>1177.4245002315</ele>
        <time>2021-11-02T13:05:48Z</time>
      </trkpt>
      <trkpt lat="43.91432" lon="7.55967">
        <ele>1177.4244996519</ele>
        <time>2021-11-02T13:05:49Z</time>
      </trkpt>
      <trkpt lat="43.91433" lon="7.55968">
        <ele>1177.4245109396</ele>
        <time>2021-11-02T13:05:50Z</time>
      </trkpt>
      <trkpt lat="43.91432" lon="7.5597">
        <ele>1178.4245447434</ele>
        <time>2021-11-02T13:05:51Z</time>
      </trkpt>
      <trkpt lat="43.91432" lon="7.55971">
        <ele>1178.4245909229</ele>
        <time>2021-11-02T13:05:52Z</time>
      </trkpt>
      <trkpt lat="43.91432" lon="7.55972">
        <ele>1179.4246197401</ele>
        <time>2021-11-02T13:05:53Z</time>
      </trkpt>
      <trkpt lat="43.91431" lon="7.55973">
        <ele>1179.424672814</ele>
        <time>2021-11-02T13:05:54Z</time>
      </trkpt>
      <trkpt lat="43.9143" lon="7.55973">
        <ele>1179.4247008401</ele>
        <time>2021-11-02T13:05:55Z</time>
      </trkpt>
      <trkpt lat="43.91429" lon="7.55974">
        <ele>1180.4247580404</ele>
        <time>2021-11-02T13:05:56Z</time>
      </trkpt>
      <trkpt lat="43.91428" lon="7.55974">
        <ele>1180.4248165166</ele>
        <time>2021-11-02T13:05:57Z</time>
      </trkpt>
      <trkpt lat="43.91427" lon="7.55975">
        <ele>1180.4248508974</ele>
        <time>2021-11-02T13:05:58Z</time>
      </trkpt>
      <trkpt lat="43.91427" lon="7.55975">
        <ele>1180.4249004489</ele>
        <time>2021-11-02T13:05:59Z</time>
      </trkpt>
      <trkpt lat="43.91426" lon="7.55976">
        <ele>1180.4249448612</ele>
        <time>2021-11-02T13:06:00Z</time>
      </trkpt>
      <trkpt lat="43.91425" lon="7.55976">
        <ele>1180.4249968857</ele>
        <time>2021-11-02T13:06:01Z</time>
      </trkpt>
      <trkpt lat="43.91423" lon="7.55977">
        <ele>1180.4251063063</ele>
        <time>2021-11-02T13:06:03Z</time>
      </trkpt>
      <trkpt lat="43.91422" lon="7.55978">
        <ele>1180.4251697622</ele>
        <time>2021-11-02T13:06:04Z</time>
      </trkpt>
      <trkpt lat="43.91421" lon="7.55979">
        <ele>1180.425208271</ele>
        <time>2021-11-02T13:06:05Z</time>
      </trkpt>
      <trkpt lat="43.91421" lon="7.5598">
        <ele>1181.4252449469</ele>
        <time>2021-11-02T13:06:06Z</time>
      </trkpt>
      <trkpt lat="43.91421" lon="7.55981">
        <ele>1181.4252823179</ele>
        <time>2021-11-02T13:06:07Z</time>
      </trkpt>
      <trkpt lat="43.91418" lon="7.55982">
        <ele>1180.4254018594</ele>
        <time>2021-11-02T13:06:09Z</time>
      </trkpt>
      <trkpt lat="43.91417" lon="7.55982">
        <ele>1179.4254604274</ele>
        <time>2021-11-02T13:06:10Z</time>
      </trkpt>
      <trkpt lat="43.91416" lon="7.55982">
        <ele>1178.4255239121</ele>
        <time>2021-11-02T13:06:11Z</time>
      </trkpt>
      <trkpt lat="43.91415" lon="7.55983">
        <ele>1178.4255808829</ele>
        <time>2021-11-02T13:06:12Z</time>
      </trkpt>
      <trkpt lat="43.91413" lon="7.55983">
        <ele>1177.4256912498</ele>
        <time>2021-11-02T13:06:14Z</time>
      </trkpt>
      <trkpt lat="43.91412" lon="7.55983">
        <ele>1177.4257534579</ele>
        <time>2021-11-02T13:06:15Z</time>
      </trkpt>
      <trkpt lat="43.91411" lon="7.55983">
        <ele>1177.4257740679</ele>
        <time>2021-11-02T13:06:16Z</time>
      </trkpt>
      <trkpt lat="43.91409" lon="7.55983">
        <ele>1177.4258747501</ele>
        <time>2021-11-02T13:06:18Z</time>
      </trkpt>
      <trkpt lat="43.91408" lon="7.55984">
        <ele>1178.4259568656</ele>
        <time>2021-11-02T13:06:20Z</time>
      </trkpt>
      <trkpt lat="43.91407" lon="7.55985">
        <ele>1178.4259998822</ele>
        <time>2021-11-02T13:06:21Z</time>
      </trkpt>
      <trkpt lat="43.91406" lon="7.55985">
        <ele>1179.426042887</ele>
        <time>2021-11-02T13:06:22Z</time>
      </trkpt>
      <trkpt lat="43.91405" lon="7.55985">
        <ele>1178.4260975074</ele>
        <time>2021-11-02T13:06:23Z</time>
      </trkpt>
      <trkpt lat="43.91405" lon="7.55985">
        <ele>1178.4261210322</ele>
        <time>2021-11-02T13:06:24Z</time>
      </trkpt>
      <trkpt lat="43.91404" lon="7.55985">
        <ele>1177.4261683553</ele>
        <time>2021-11-02T13:06:25Z</time>
      </trkpt>
      <trkpt lat="43.91403" lon="7.55985">
        <ele>1177.4262182849</ele>
        <time>2021-11-02T13:06:26Z</time>
      </trkpt>
      <trkpt lat="43.91402" lon="7.55986">
        <ele>1177.4262555813</ele>
        <time>2021-11-02T13:06:27Z</time>
      </trkpt>
      <trkpt lat="43.91402" lon="7.55987">
        <ele>1177.4262870544</ele>
        <time>2021-11-02T13:06:28Z</time>
      </trkpt>
      <trkpt lat="43.91402" lon="7.55988">
        <ele>1177.4263162235</ele>
        <time>2021-11-02T13:06:29Z</time>
      </trkpt>
      <trkpt lat="43.91401" lon="7.55989">
        <ele>1176.4263516045</ele>
        <time>2021-11-02T13:06:30Z</time>
      </trkpt>
      <trkpt lat="43.914" lon="7.5599">
        <ele>1177.4264045794</ele>
        <time>2021-11-02T13:06:31Z</time>
      </trkpt>
      <trkpt lat="43.91399" lon="7.55991">
        <ele>1177.4265035511</ele>
        <time>2021-11-02T13:06:33Z</time>
      </trkpt>
      <trkpt lat="43.91398" lon="7.55992">
        <ele>1177.4265471366</ele>
        <time>2021-11-02T13:06:34Z</time>
      </trkpt>
      <trkpt lat="43.91397" lon="7.55992">
        <ele>1176.4265852998</ele>
        <time>2021-11-02T13:06:35Z</time>
      </trkpt>
      <trkpt lat="43.91396" lon="7.55993">
        <ele>1177.4266455364</ele>
        <time>2021-11-02T13:06:36Z</time>
      </trkpt>
      <trkpt lat="43.91396" lon="7.55993">
        <ele>1176.4266816731</ele>
        <time>2021-11-02T13:06:37Z</time>
      </trkpt>
      <trkpt lat="43.91395" lon="7.55994">
        <ele>1176.426720855</ele>
        <time>2021-11-02T13:06:38Z</time>
      </trkpt>
      <trkpt lat="43.91393" lon="7.55994">
        <ele>1176.42680835</ele>
        <time>2021-11-02T13:06:40Z</time>
      </trkpt>
      <trkpt lat="43.91392" lon="7.55994">
        <ele>1176.4268563123</ele>
        <time>2021-11-02T13:06:41Z</time>
      </trkpt>
      <trkpt lat="43.91392" lon="7.55994">
        <ele>1176.4268563123</ele>
        <time>2021-11-02T13:06:43Z</time>
      </trkpt>
      <trkpt lat="43.91391" lon="7.55996">
        <ele>1176.4269525377</ele>
        <time>2021-11-02T13:06:44Z</time>
      </trkpt>
      <trkpt lat="43.9139" lon="7.55997">
        <ele>1176.4270042906</ele>
        <time>2021-11-02T13:06:45Z</time>
      </trkpt>
      <trkpt lat="43.91389" lon="7.55998">
        <ele>1176.4270551913</ele>
        <time>2021-11-02T13:06:46Z</time>
      </trkpt>
      <trkpt lat="43.91388" lon="7.55999">
        <ele>1176.4271440189</ele>
        <time>2021-11-02T13:06:48Z</time>
      </trkpt>
      <trkpt lat="43.91387" lon="7.56">
        <ele>1176.4272102847</ele>
        <time>2021-11-02T13:06:49Z</time>
      </trkpt>
      <trkpt lat="43.91386" lon="7.56001">
        <ele>1176.4272538482</ele>
        <time>2021-11-02T13:06:50Z</time>
      </trkpt>
      <trkpt lat="43.91386" lon="7.56001">
        <ele>1176.4272870396</ele>
        <time>2021-11-02T13:06:51Z</time>
      </trkpt>
      <trkpt lat="43.91384" lon="7.56001">
        <ele>1175.4273715571</ele>
        <time>2021-11-02T13:06:53Z</time>
      </trkpt>
      <trkpt lat="43.91383" lon="7.56002">
        <ele>1176.4274365347</ele>
        <time>2021-11-02T13:06:54Z</time>
      </trkpt>
      <trkpt lat="43.91382" lon="7.56002">
        <ele>1177.4274870084</ele>
        <time>2021-11-02T13:06:55Z</time>
      </trkpt>
      <trkpt lat="43.91381" lon="7.56003">
        <ele>1177.4275408329</ele>
        <time>2021-11-02T13:06:56Z</time>
      </trkpt>
      <trkpt lat="43.9138" lon="7.56003">
        <ele>1177.4275929886</ele>
        <time>2021-11-02T13:06:57Z</time>
      </trkpt>
      <trkpt lat="43.91379" lon="7.56003">
        <ele>1177.4276343839</ele>
        <time>2021-11-02T13:06:58Z</time>
      </trkpt>
      <trkpt lat="43.91378" lon="7.56003">
        <ele>1177.4276811696</ele>
        <time>2021-11-02T13:06:59Z</time>
      </trkpt>
      <trkpt lat="43.91378" lon="7.56003">
        <ele>1178.4277108207</ele>
        <time>2021-11-02T13:07:00Z</time>
      </trkpt>
      <trkpt lat="43.91376" lon="7.56002">
        <ele>1177.4277652795</ele>
        <time>2021-11-02T13:07:01Z</time>
      </trkpt>
      <trkpt lat="43.91376" lon="7.56002">
        <ele>1178.4277875923</ele>
        <time>2021-11-02T13:07:02Z</time>
      </trkpt>
      <trkpt lat="43.91375" lon="7.56002">
        <ele>1178.4278260717</ele>
        <time>2021-11-02T13:07:03Z</time>
      </trkpt>
      <trkpt lat="43.91374" lon="7.56002">
        <ele>1178.4278715317</ele>
        <time>2021-11-02T13:07:04Z</time>
      </trkpt>
      <trkpt lat="43.91374" lon="7.56002">
        <ele>1176.4279045135</ele>
        <time>2021-11-02T13:07:07Z</time>
      </trkpt>
      <trkpt lat="43.91373" lon="7.56002">
        <ele>1176.427931564</ele>
        <time>2021-11-02T13:07:08Z</time>
      </trkpt>
      <trkpt lat="43.91372" lon="7.56002">
        <ele>1175.427962047</ele>
        <time>2021-11-02T13:07:09Z</time>
      </trkpt>
      <trkpt lat="43.91371" lon="7.56002">
        <ele>1175.4280067402</ele>
        <time>2021-11-02T13:07:10Z</time>
      </trkpt>
      <trkpt lat="43.91371" lon="7.56002">
        <ele>1175.4280412512</ele>
        <time>2021-11-02T13:07:15Z</time>
      </trkpt>
      <trkpt lat="43.91369" lon="7.56002">
        <ele>1173.4281217095</ele>
        <time>2021-11-02T13:07:16Z</time>
      </trkpt>
      <trkpt lat="43.91369" lon="7.56003">
        <ele>1173.4281636744</ele>
        <time>2021-11-02T13:07:21Z</time>
      </trkpt>
      <trkpt lat="43.91367" lon="7.56004">
        <ele>1173.4282588058</ele>
        <time>2021-11-02T13:07:22Z</time>
      </trkpt>
      <trkpt lat="43.91365" lon="7.56004">
        <ele>1172.4283512624</ele>
        <time>2021-11-02T13:07:24Z</time>
      </trkpt>
      <trkpt lat="43.91364" lon="7.56004">
        <ele>1171.4283807338</ele>
        <time>2021-11-02T13:07:25Z</time>
      </trkpt>
      <trkpt lat="43.91364" lon="7.56004">
        <ele>1170.4284154852</ele>
        <time>2021-11-02T13:07:26Z</time>
      </trkpt>
      <trkpt lat="43.91363" lon="7.56004">
        <ele>1169.4284404451</ele>
        <time>2021-11-02T13:07:28Z</time>
      </trkpt>
      <trkpt lat="43.91362" lon="7.56003">
        <ele>1168.4284708347</ele>
        <time>2021-11-02T13:07:30Z</time>
      </trkpt>
      <trkpt lat="43.91362" lon="7.56002">
        <ele>1168.4284872703</ele>
        <time>2021-11-02T13:07:31Z</time>
      </trkpt>
      <trkpt lat="43.91361" lon="7.56002">
        <ele>1167.4285243046</ele>
        <time>2021-11-02T13:07:35Z</time>
      </trkpt>
      <trkpt lat="43.91361" lon="7.56">
        <ele>1166.4285203077</ele>
        <time>2021-11-02T13:07:36Z</time>
      </trkpt>
      <trkpt lat="43.9136" lon="7.55999">
        <ele>1166.4285157512</ele>
        <time>2021-11-02T13:07:39Z</time>
      </trkpt>
      <trkpt lat="43.9136" lon="7.55999">
        <ele>1164.4285151172</ele>
        <time>2021-11-02T13:07:40Z</time>
      </trkpt>
      <trkpt lat="43.9136" lon="7.55998">
        <ele>1164.4285347594</ele>
        <time>2021-11-02T13:07:41Z</time>
      </trkpt>
      <trkpt lat="43.9136" lon="7.55997">
        <ele>1165.4285261055</ele>
        <time>2021-11-02T13:07:42Z</time>
      </trkpt>
      <trkpt lat="43.91359" lon="7.55996">
        <ele>1165.4285615739</ele>
        <time>2021-11-02T13:07:43Z</time>
      </trkpt>
      <trkpt lat="43.91358" lon="7.55997">
        <ele>1165.4285871419</ele>
        <time>2021-11-02T13:07:44Z</time>
      </trkpt>
      <trkpt lat="43.91358" lon="7.55998">
        <ele>1165.4286196971</ele>
        <time>2021-11-02T13:07:45Z</time>
      </trkpt>
      <trkpt lat="43.91358" lon="7.55999">
        <ele>1165.4286347767</ele>
        <time>2021-11-02T13:07:46Z</time>
      </trkpt>
      <trkpt lat="43.91358" lon="7.55999">
        <ele>1165.4286500089</ele>
        <time>2021-11-02T13:07:47Z</time>
      </trkpt>
      <trkpt lat="43.91358" lon="7.56">
        <ele>1165.4286561152</ele>
        <time>2021-11-02T13:07:48Z</time>
      </trkpt>
      <trkpt lat="43.91358" lon="7.56002">
        <ele>1165.4286860529</ele>
        <time>2021-11-02T13:07:50Z</time>
      </trkpt>
      <trkpt lat="43.91358" lon="7.56004">
        <ele>1165.4287067203</ele>
        <time>2021-11-02T13:07:51Z</time>
      </trkpt>
      <trkpt lat="43.91358" lon="7.56005">
        <ele>1166.4287215151</ele>
        <time>2021-11-02T13:07:52Z</time>
      </trkpt>
      <trkpt lat="43.91358" lon="7.56006">
        <ele>1167.4287388383</ele>
        <time>2021-11-02T13:07:54Z</time>
      </trkpt>
      <trkpt lat="43.91358" lon="7.56007">
        <ele>1168.4287585621</ele>
        <time>2021-11-02T13:07:55Z</time>
      </trkpt>
      <trkpt lat="43.91358" lon="7.56007">
        <ele>1168.4287559892</ele>
        <time>2021-11-02T13:07:56Z</time>
      </trkpt>
      <trkpt lat="43.91358" lon="7.56008">
        <ele>1167.428744888</ele>
        <time>2021-11-02T13:07:58Z</time>
      </trkpt>
      <trkpt lat="43.91358" lon="7.56009">
        <ele>1167.4287689024</ele>
        <time>2021-11-02T13:08:00Z</time>
      </trkpt>
      <trkpt lat="43.91358" lon="7.5601">
        <ele>1167.4287720827</ele>
        <time>2021-11-02T13:08:05Z</time>
      </trkpt>
      <trkpt lat="43.91359" lon="7.56009">
        <ele>1168.428719636</ele>
        <time>2021-11-02T13:08:06Z</time>
      </trkpt>
      <trkpt lat="43.91359" lon="7.56009">
        <ele>1169.4287412472</ele>
        <time>2021-11-02T13:08:15Z</time>
      </trkpt>
      <trkpt lat="43.91359" lon="7.56011">
        <ele>1170.4287571339</ele>
        <time>2021-11-02T13:08:16Z</time>
      </trkpt>
      <trkpt lat="43.91358" lon="7.56012">
        <ele>1170.4287847826</ele>
        <time>2021-11-02T13:08:17Z</time>
      </trkpt>
      <trkpt lat="43.91359" lon="7.56013">
        <ele>1169.4288019477</ele>
        <time>2021-11-02T13:08:19Z</time>
      </trkpt>
      <trkpt lat="43.91359" lon="7.56013">
        <ele>1169.4288019477</ele>
        <time>2021-11-02T13:08:23Z</time>
      </trkpt>
      <trkpt lat="43.91357" lon="7.56014">
        <ele>1170.4288748627</ele>
        <time>2021-11-02T13:08:25Z</time>
      </trkpt>
      <trkpt lat="43.91357" lon="7.56013">
        <ele>1169.4288854928</ele>
        <time>2021-11-02T13:08:27Z</time>
      </trkpt>
      <trkpt lat="43.91357" lon="7.56013">
        <ele>1169.4288920858</ele>
        <time>2021-11-02T13:08:30Z</time>
      </trkpt>
      <trkpt lat="43.91355" lon="7.56012">
        <ele>1170.4289529213</ele>
        <time>2021-11-02T13:08:31Z</time>
      </trkpt>
      <trkpt lat="43.91353" lon="7.56011">
        <ele>1169.429031527</ele>
        <time>2021-11-02T13:08:33Z</time>
      </trkpt>
      <trkpt lat="43.91352" lon="7.5601">
        <ele>1170.4290613664</ele>
        <time>2021-11-02T13:08:34Z</time>
      </trkpt>
      <trkpt lat="43.91352" lon="7.56009">
        <ele>1170.4290767199</ele>
        <time>2021-11-02T13:08:35Z</time>
      </trkpt>
      <trkpt lat="43.91351" lon="7.56008">
        <ele>1170.4290968623</ele>
        <time>2021-11-02T13:08:36Z</time>
      </trkpt>
      <trkpt lat="43.91351" lon="7.56008">
        <ele>1170.4291193929</ele>
        <time>2021-11-02T13:08:37Z</time>
      </trkpt>
      <trkpt lat="43.9135" lon="7.56008">
        <ele>1171.4291456547</ele>
        <time>2021-11-02T13:08:38Z</time>
      </trkpt>
      <trkpt lat="43.91349" lon="7.56008">
        <ele>1171.4291797933</ele>
        <time>2021-11-02T13:08:39Z</time>
      </trkpt>
      <trkpt lat="43.91349" lon="7.56008">
        <ele>1171.4292201302</ele>
        <time>2021-11-02T13:08:40Z</time>
      </trkpt>
      <trkpt lat="43.91348" lon="7.56007">
        <ele>1170.429269026</ele>
        <time>2021-11-02T13:08:41Z</time>
      </trkpt>
      <trkpt lat="43.91346" lon="7.56007">
        <ele>1170.4293145024</ele>
        <time>2021-11-02T13:08:42Z</time>
      </trkpt>
      <trkpt lat="43.91346" lon="7.56006">
        <ele>1170.4293490544</ele>
        <time>2021-11-02T13:08:43Z</time>
      </trkpt>
      <trkpt lat="43.91345" lon="7.56006">
        <ele>1171.4293806038</ele>
        <time>2021-11-02T13:08:44Z</time>
      </trkpt>
      <trkpt lat="43.91345" lon="7.56006">
        <ele>1171.4294017485</ele>
        <time>2021-11-02T13:08:47Z</time>
      </trkpt>
      <trkpt lat="43.91343" lon="7.56006">
        <ele>1171.4294467804</ele>
        <time>2021-11-02T13:08:48Z</time>
      </trkpt>
      <trkpt lat="43.91343" lon="7.56006">
        <ele>1170.4294900987</ele>
        <time>2021-11-02T13:08:50Z</time>
      </trkpt>
      <trkpt lat="43.91342" lon="7.56006">
        <ele>1170.4295025273</ele>
        <time>2021-11-02T13:08:53Z</time>
      </trkpt>
      <trkpt lat="43.91341" lon="7.56005">
        <ele>1170.4295646432</ele>
        <time>2021-11-02T13:08:54Z</time>
      </trkpt>
      <trkpt lat="43.9134" lon="7.56004">
        <ele>1169.4295911413</ele>
        <time>2021-11-02T13:08:56Z</time>
      </trkpt>
      <trkpt lat="43.91339" lon="7.56004">
        <ele>1169.4296302008</ele>
        <time>2021-11-02T13:08:58Z</time>
      </trkpt>
      <trkpt lat="43.91338" lon="7.56005">
        <ele>1169.4296865108</ele>
        <time>2021-11-02T13:08:59Z</time>
      </trkpt>
      <trkpt lat="43.91337" lon="7.56004">
        <ele>1169.4297291</ele>
        <time>2021-11-02T13:09:00Z</time>
      </trkpt>
      <trkpt lat="43.91337" lon="7.56004">
        <ele>1169.4297703437</ele>
        <time>2021-11-02T13:09:01Z</time>
      </trkpt>
      <trkpt lat="43.91336" lon="7.56004">
        <ele>1168.4298104439</ele>
        <time>2021-11-02T13:09:02Z</time>
      </trkpt>
      <trkpt lat="43.91335" lon="7.56004">
        <ele>1168.4298494128</ele>
        <time>2021-11-02T13:09:03Z</time>
      </trkpt>
      <trkpt lat="43.91334" lon="7.56005">
        <ele>1167.4299016706</ele>
        <time>2021-11-02T13:09:04Z</time>
      </trkpt>
      <trkpt lat="43.91333" lon="7.56005">
        <ele>1167.4299439418</ele>
        <time>2021-11-02T13:09:05Z</time>
      </trkpt>
      <trkpt lat="43.91332" lon="7.56004">
        <ele>1166.4299945401</ele>
        <time>2021-11-02T13:09:06Z</time>
      </trkpt>
      <trkpt lat="43.91331" lon="7.56004">
        <ele>1167.4300441763</ele>
        <time>2021-11-02T13:09:07Z</time>
      </trkpt>
      <trkpt lat="43.9133" lon="7.56004">
        <ele>1167.4300826659</ele>
        <time>2021-11-02T13:09:08Z</time>
      </trkpt>
      <trkpt lat="43.91329" lon="7.56003">
        <ele>1167.4301099143</ele>
        <time>2021-11-02T13:09:09Z</time>
      </trkpt>
      <trkpt lat="43.91328" lon="7.56003">
        <ele>1167.4301553972</ele>
        <time>2021-11-02T13:09:10Z</time>
      </trkpt>
      <trkpt lat="43.91328" lon="7.56004">
        <ele>1168.4302101664</ele>
        <time>2021-11-02T13:09:11Z</time>
      </trkpt>
      <trkpt lat="43.91327" lon="7.56005">
        <ele>1168.4302314101</ele>
        <time>2021-11-02T13:09:13Z</time>
      </trkpt>
      <trkpt lat="43.91327" lon="7.56005">
        <ele>1168.4302477489</ele>
        <time>2021-11-02T13:09:14Z</time>
      </trkpt>
      <trkpt lat="43.91327" lon="7.56007">
        <ele>1168.4302844155</ele>
        <time>2021-11-02T13:09:15Z</time>
      </trkpt>
      <trkpt lat="43.91326" lon="7.56008">
        <ele>1167.4303308533</ele>
        <time>2021-11-02T13:09:16Z</time>
      </trkpt>
      <trkpt lat="43.91325" lon="7.56009">
        <ele>1166.4303970006</ele>
        <time>2021-11-02T13:09:17Z</time>
      </trkpt>
      <trkpt lat="43.91325" lon="7.5601">
        <ele>1167.4304288739</ele>
        <time>2021-11-02T13:09:18Z</time>
      </trkpt>
      <trkpt lat="43.91324" lon="7.5601">
        <ele>1167.4304593814</ele>
        <time>2021-11-02T13:09:19Z</time>
      </trkpt>
      <trkpt lat="43.91323" lon="7.5601">
        <ele>1168.4305057593</ele>
        <time>2021-11-02T13:09:20Z</time>
      </trkpt>
      <trkpt lat="43.91323" lon="7.5601">
        <ele>1168.4305057593</ele>
        <time>2021-11-02T13:09:22Z</time>
      </trkpt>
      <trkpt lat="43.91322" lon="7.56011">
        <ele>1168.4305618746</ele>
        <time>2021-11-02T13:09:23Z</time>
      </trkpt>
      <trkpt lat="43.91322" lon="7.5601">
        <ele>1168.4305893322</ele>
        <time>2021-11-02T13:09:24Z</time>
      </trkpt>
      <trkpt lat="43.91321" lon="7.56011">
        <ele>1168.4306207676</ele>
        <time>2021-11-02T13:09:25Z</time>
      </trkpt>
      <trkpt lat="43.91321" lon="7.56012">
        <ele>1168.4306561707</ele>
        <time>2021-11-02T13:09:26Z</time>
      </trkpt>
      <trkpt lat="43.9132" lon="7.56012">
        <ele>1168.4307038506</ele>
        <time>2021-11-02T13:09:27Z</time>
      </trkpt>
      <trkpt lat="43.9132" lon="7.56012">
        <ele>1168.4307038506</ele>
        <time>2021-11-02T13:09:28Z</time>
      </trkpt>
      <trkpt lat="43.91318" lon="7.56012">
        <ele>1168.4307861166</ele>
        <time>2021-11-02T13:09:29Z</time>
      </trkpt>
      <trkpt lat="43.91318" lon="7.56012">
        <ele>1167.4308183068</ele>
        <time>2021-11-02T13:09:31Z</time>
      </trkpt>
      <trkpt lat="43.91317" lon="7.56013">
        <ele>1167.4308606041</ele>
        <time>2021-11-02T13:09:33Z</time>
      </trkpt>
      <trkpt lat="43.91315" lon="7.56014">
        <ele>1167.4309566414</ele>
        <time>2021-11-02T13:09:35Z</time>
      </trkpt>
      <trkpt lat="43.91315" lon="7.56015">
        <ele>1166.4309987685</ele>
        <time>2021-11-02T13:09:36Z</time>
      </trkpt>
      <trkpt lat="43.91314" lon="7.56015">
        <ele>1166.4310355225</ele>
        <time>2021-11-02T13:09:37Z</time>
      </trkpt>
      <trkpt lat="43.91313" lon="7.56016">
        <ele>1167.431099438</ele>
        <time>2021-11-02T13:09:39Z</time>
      </trkpt>
      <trkpt lat="43.91312" lon="7.56015">
        <ele>1166.4311260414</ele>
        <time>2021-11-02T13:09:42Z</time>
      </trkpt>
      <trkpt lat="43.91311" lon="7.56017">
        <ele>1166.4311935167</ele>
        <time>2021-11-02T13:09:43Z</time>
      </trkpt>
      <trkpt lat="43.91311" lon="7.56017">
        <ele>1166.4312276629</ele>
        <time>2021-11-02T13:09:44Z</time>
      </trkpt>
      <trkpt lat="43.91311" lon="7.56018">
        <ele>1167.4312387557</ele>
        <time>2021-11-02T13:09:45Z</time>
      </trkpt>
      <trkpt lat="43.9131" lon="7.56019">
        <ele>1167.4312697039</ele>
        <time>2021-11-02T13:09:48Z</time>
      </trkpt>
      <trkpt lat="43.91309" lon="7.56021">
        <ele>1166.4313576066</ele>
        <time>2021-11-02T13:09:50Z</time>
      </trkpt>
      <trkpt lat="43.91309" lon="7.56022">
        <ele>1166.4313749967</ele>
        <time>2021-11-02T13:09:54Z</time>
      </trkpt>
      <trkpt lat="43.91308" lon="7.56023">
        <ele>1166.4314357815</ele>
        <time>2021-11-02T13:09:55Z</time>
      </trkpt>
      <trkpt lat="43.91308" lon="7.56024">
        <ele>1166.4314351215</ele>
        <time>2021-11-02T13:09:56Z</time>
      </trkpt>
      <trkpt lat="43.91308" lon="7.56024">
        <ele>1166.4314598088</ele>
        <time>2021-11-02T13:09:58Z</time>
      </trkpt>
      <trkpt lat="43.91307" lon="7.56025">
        <ele>1166.4314954349</ele>
        <time>2021-11-02T13:10:00Z</time>
      </trkpt>
      <trkpt lat="43.91307" lon="7.56026">
        <ele>1165.4315267259</ele>
        <time>2021-11-02T13:10:02Z</time>
      </trkpt>
      <trkpt lat="43.91306" lon="7.56028">
        <ele>1166.431627365</ele>
        <time>2021-11-02T13:10:04Z</time>
      </trkpt>
      <trkpt lat="43.91306" lon="7.56029">
        <ele>1166.4316475144</ele>
        <time>2021-11-02T13:10:05Z</time>
      </trkpt>
      <trkpt lat="43.91305" lon="7.56031">
        <ele>1166.4316816043</ele>
        <time>2021-11-02T13:10:06Z</time>
      </trkpt>
      <trkpt lat="43.91305" lon="7.56034">
        <ele>1166.4317365537</ele>
        <time>2021-11-02T13:10:08Z</time>
      </trkpt>
      <trkpt lat="43.91305" lon="7.56035">
        <ele>1167.4317657365</ele>
        <time>2021-11-02T13:10:11Z</time>
      </trkpt>
      <trkpt lat="43.91304" lon="7.56038">
        <ele>1166.4318274041</ele>
        <time>2021-11-02T13:10:12Z</time>
      </trkpt>
      <trkpt lat="43.91305" lon="7.5604">
        <ele>1166.4318382494</ele>
        <time>2021-11-02T13:10:13Z</time>
      </trkpt>
      <trkpt lat="43.91305" lon="7.56042">
        <ele>1166.4318733071</ele>
        <time>2021-11-02T13:10:14Z</time>
      </trkpt>
      <trkpt lat="43.91305" lon="7.56044">
        <ele>1166.4319086694</ele>
        <time>2021-11-02T13:10:15Z</time>
      </trkpt>
      <trkpt lat="43.91305" lon="7.56044">
        <ele>1166.4319086694</ele>
        <time>2021-11-02T13:10:17Z</time>
      </trkpt>
      <trkpt lat="43.91303" lon="7.56045">
        <ele>1166.4319857158</ele>
        <time>2021-11-02T13:10:18Z</time>
      </trkpt>
      <trkpt lat="43.91303" lon="7.56047">
        <ele>1166.4320322098</ele>
        <time>2021-11-02T13:10:20Z</time>
      </trkpt>
      <trkpt lat="43.91303" lon="7.56048">
        <ele>1166.4320609392</ele>
        <time>2021-11-02T13:10:23Z</time>
      </trkpt>
      <trkpt lat="43.91303" lon="7.56051">
        <ele>1167.4320588288</ele>
        <time>2021-11-02T13:10:24Z</time>
      </trkpt>
      <trkpt lat="43.91303" lon="7.56052">
        <ele>1167.4320821701</ele>
        <time>2021-11-02T13:10:26Z</time>
      </trkpt>
      <trkpt lat="43.91303" lon="7.56052">
        <ele>1167.4320977467</ele>
        <time>2021-11-02T13:10:27Z</time>
      </trkpt>
      <trkpt lat="43.91303" lon="7.56053">
        <ele>1167.4321026139</ele>
        <time>2021-11-02T13:10:28Z</time>
      </trkpt>
      <trkpt lat="43.91303" lon="7.56054">
        <ele>1168.4321013248</ele>
        <time>2021-11-02T13:10:35Z</time>
      </trkpt>
      <trkpt lat="43.91304" lon="7.56058">
        <ele>1168.4321063925</ele>
        <time>2021-11-02T13:10:36Z</time>
      </trkpt>
      <trkpt lat="43.91305" lon="7.56059">
        <ele>1169.4320884716</ele>
        <time>2021-11-02T13:10:37Z</time>
      </trkpt>
      <trkpt lat="43.91305" lon="7.5606">
        <ele>1168.4320948238</ele>
        <time>2021-11-02T13:10:38Z</time>
      </trkpt>
      <trkpt lat="43.91306" lon="7.56062">
        <ele>1169.4320983087</ele>
        <time>2021-11-02T13:10:39Z</time>
      </trkpt>
      <trkpt lat="43.91306" lon="7.56063">
        <ele>1169.4320955838</ele>
        <time>2021-11-02T13:10:40Z</time>
      </trkpt>
      <trkpt lat="43.91306" lon="7.56065">
        <ele>1169.4321218934</ele>
        <time>2021-11-02T13:10:41Z</time>
      </trkpt>
      <trkpt lat="43.91306" lon="7.56066">
        <ele>1170.4321134072</ele>
        <time>2021-11-02T13:10:42Z</time>
      </trkpt>
      <trkpt lat="43.91307" lon="7.56067">
        <ele>1170.4321085824</ele>
        <time>2021-11-02T13:10:45Z</time>
      </trkpt>
      <trkpt lat="43.91307" lon="7.56067">
        <ele>1170.4321050047</ele>
        <time>2021-11-02T13:10:55Z</time>
      </trkpt>
      <trkpt lat="43.9131" lon="7.56069">
        <ele>1171.4320078036</ele>
        <time>2021-11-02T13:10:56Z</time>
      </trkpt>
      <trkpt lat="43.9131" lon="7.5607">
        <ele>1170.4320194132</ele>
        <time>2021-11-02T13:10:57Z</time>
      </trkpt>
      <trkpt lat="43.9131" lon="7.56071">
        <ele>1170.43202651</ele>
        <time>2021-11-02T13:10:58Z</time>
      </trkpt>
      <trkpt lat="43.9131" lon="7.56072">
        <ele>1170.4320354349</ele>
        <time>2021-11-02T13:10:59Z</time>
      </trkpt>
      <trkpt lat="43.9131" lon="7.56073">
        <ele>1170.4320577123</ele>
        <time>2021-11-02T13:11:00Z</time>
      </trkpt>
      <trkpt lat="43.91309" lon="7.56074">
        <ele>1170.4320933997</ele>
        <time>2021-11-02T13:11:01Z</time>
      </trkpt>
      <trkpt lat="43.91308" lon="7.56074">
        <ele>1171.4321431615</ele>
        <time>2021-11-02T13:11:02Z</time>
      </trkpt>
      <trkpt lat="43.91308" lon="7.56075">
        <ele>1174.4321831876</ele>
        <time>2021-11-02T13:11:04Z</time>
      </trkpt>
      <trkpt lat="43.91307" lon="7.56075">
        <ele>1174.4322173854</ele>
        <time>2021-11-02T13:11:07Z</time>
      </trkpt>
      <trkpt lat="43.91305" lon="7.56074">
        <ele>1175.4322815478</ele>
        <time>2021-11-02T13:11:08Z</time>
      </trkpt>
      <trkpt lat="43.91305" lon="7.56074">
        <ele>1175.4323144733</ele>
        <time>2021-11-02T13:11:10Z</time>
      </trkpt>
      <trkpt lat="43.91304" lon="7.56074">
        <ele>1175.4323473762</ele>
        <time>2021-11-02T13:11:13Z</time>
      </trkpt>
      <trkpt lat="43.91302" lon="7.56074">
        <ele>1175.4324247388</ele>
        <time>2021-11-02T13:11:14Z</time>
      </trkpt>
      <trkpt lat="43.91302" lon="7.56074">
        <ele>1175.432470893</ele>
        <time>2021-11-02T13:11:15Z</time>
      </trkpt>
      <trkpt lat="43.91301" lon="7.56075">
        <ele>1175.4325128908</ele>
        <time>2021-11-02T13:11:16Z</time>
      </trkpt>
      <trkpt lat="43.913" lon="7.56076">
        <ele>1175.4325533052</ele>
        <time>2021-11-02T13:11:19Z</time>
      </trkpt>
      <trkpt lat="43.913" lon="7.56077">
        <ele>1175.4326136251</ele>
        <time>2021-11-02T13:11:20Z</time>
      </trkpt>
      <trkpt lat="43.91299" lon="7.56077">
        <ele>1175.4326510765</ele>
        <time>2021-11-02T13:11:21Z</time>
      </trkpt>
      <trkpt lat="43.91298" lon="7.56077">
        <ele>1175.4326806924</ele>
        <time>2021-11-02T13:11:22Z</time>
      </trkpt>
      <trkpt lat="43.91298" lon="7.56077">
        <ele>1174.4326985391</ele>
        <time>2021-11-02T13:11:25Z</time>
      </trkpt>
      <trkpt lat="43.91298" lon="7.5608">
        <ele>1174.4327493556</ele>
        <time>2021-11-02T13:11:26Z</time>
      </trkpt>
      <trkpt lat="43.91297" lon="7.56081">
        <ele>1173.4327723974</ele>
        <time>2021-11-02T13:11:27Z</time>
      </trkpt>
      <trkpt lat="43.91297" lon="7.56081">
        <ele>1173.4327997327</ele>
        <time>2021-11-02T13:11:28Z</time>
      </trkpt>
      <trkpt lat="43.91296" lon="7.56081">
        <ele>1173.4328296522</ele>
        <time>2021-11-02T13:11:31Z</time>
      </trkpt>
      <trkpt lat="43.91295" lon="7.5608">
        <ele>1172.4328946074</ele>
        <time>2021-11-02T13:11:32Z</time>
      </trkpt>
      <trkpt lat="43.91294" lon="7.5608">
        <ele>1172.4329171001</ele>
        <time>2021-11-02T13:11:34Z</time>
      </trkpt>
      <trkpt lat="43.91294" lon="7.5608">
        <ele>1172.4329460087</ele>
        <time>2021-11-02T13:11:35Z</time>
      </trkpt>
      <trkpt lat="43.91293" lon="7.5608">
        <ele>1171.4329917861</ele>
        <time>2021-11-02T13:11:36Z</time>
      </trkpt>
      <trkpt lat="43.91293" lon="7.56081">
        <ele>1171.4330237225</ele>
        <time>2021-11-02T13:11:46Z</time>
      </trkpt>
      <trkpt lat="43.9129" lon="7.56083">
        <ele>1170.4331579544</ele>
        <time>2021-11-02T13:11:47Z</time>
      </trkpt>
      <trkpt lat="43.91289" lon="7.56083">
        <ele>1169.4332166674</ele>
        <time>2021-11-02T13:11:48Z</time>
      </trkpt>
      <trkpt lat="43.91289" lon="7.56084">
        <ele>1169.4332555829</ele>
        <time>2021-11-02T13:11:49Z</time>
      </trkpt>
      <trkpt lat="43.91288" lon="7.56084">
        <ele>1167.4333081328</ele>
        <time>2021-11-02T13:11:50Z</time>
      </trkpt>
      <trkpt lat="43.91288" lon="7.56084">
        <ele>1167.4333081328</ele>
        <time>2021-11-02T13:11:52Z</time>
      </trkpt>
      <trkpt lat="43.91286" lon="7.56084">
        <ele>1166.4333936739</ele>
        <time>2021-11-02T13:11:53Z</time>
      </trkpt>
      <trkpt lat="43.91285" lon="7.56084">
        <ele>1166.433432784</ele>
        <time>2021-11-02T13:11:54Z</time>
      </trkpt>
      <trkpt lat="43.91284" lon="7.56084">
        <ele>1166.4334684208</ele>
        <time>2021-11-02T13:11:55Z</time>
      </trkpt>
      <trkpt lat="43.91284" lon="7.56085">
        <ele>1166.4335073056</ele>
        <time>2021-11-02T13:11:57Z</time>
      </trkpt>
      <trkpt lat="43.91282" lon="7.56085">
        <ele>1166.4336004569</ele>
        <time>2021-11-02T13:11:58Z</time>
      </trkpt>
      <trkpt lat="43.9128" lon="7.56085">
        <ele>1166.433704825</ele>
        <time>2021-11-02T13:12:00Z</time>
      </trkpt>
      <trkpt lat="43.91279" lon="7.56085">
        <ele>1165.4337513476</ele>
        <time>2021-11-02T13:12:01Z</time>
      </trkpt>
      <trkpt lat="43.91279" lon="7.56085">
        <ele>1165.4337513476</ele>
        <time>2021-11-02T13:12:03Z</time>
      </trkpt>
      <trkpt lat="43.91277" lon="7.56086">
        <ele>1166.4338719754</ele>
        <time>2021-11-02T13:12:05Z</time>
      </trkpt>
      <trkpt lat="43.91276" lon="7.56085">
        <ele>1167.4339064727</ele>
        <time>2021-11-02T13:12:08Z</time>
      </trkpt>
      <trkpt lat="43.91276" lon="7.56084">
        <ele>1166.4339148526</ele>
        <time>2021-11-02T13:12:19Z</time>
      </trkpt>
      <trkpt lat="43.91275" lon="7.56084">
        <ele>1165.4339452297</ele>
        <time>2021-11-02T13:12:20Z</time>
      </trkpt>
      <trkpt lat="43.91275" lon="7.56085">
        <ele>1165.433965693</ele>
        <time>2021-11-02T13:12:21Z</time>
      </trkpt>
      <trkpt lat="43.91274" lon="7.56086">
        <ele>1165.4339935474</ele>
        <time>2021-11-02T13:12:22Z</time>
      </trkpt>
      <trkpt lat="43.91274" lon="7.56087">
        <ele>1165.4340432719</ele>
        <time>2021-11-02T13:12:23Z</time>
      </trkpt>
      <trkpt lat="43.91273" lon="7.56087">
        <ele>1165.4340833212</ele>
        <time>2021-11-02T13:12:24Z</time>
      </trkpt>
      <trkpt lat="43.91272" lon="7.56087">
        <ele>1166.4341237148</ele>
        <time>2021-11-02T13:12:25Z</time>
      </trkpt>
      <trkpt lat="43.91272" lon="7.56088">
        <ele>1166.43415409</ele>
        <time>2021-11-02T13:12:26Z</time>
      </trkpt>
      <trkpt lat="43.91272" lon="7.5609">
        <ele>1167.4341861031</ele>
        <time>2021-11-02T13:12:27Z</time>
      </trkpt>
      <trkpt lat="43.91271" lon="7.56091">
        <ele>1167.4342309072</ele>
        <time>2021-11-02T13:12:28Z</time>
      </trkpt>
      <trkpt lat="43.91271" lon="7.56092">
        <ele>1167.4342676178</ele>
        <time>2021-11-02T13:12:31Z</time>
      </trkpt>
      <trkpt lat="43.9127" lon="7.56092">
        <ele>1167.4343002703</ele>
        <time>2021-11-02T13:12:34Z</time>
      </trkpt>
      <trkpt lat="43.91269" lon="7.56092">
        <ele>1167.4343479771</ele>
        <time>2021-11-02T13:12:35Z</time>
      </trkpt>
      <trkpt lat="43.91268" lon="7.56092">
        <ele>1166.4343937958</ele>
        <time>2021-11-02T13:12:36Z</time>
      </trkpt>
      <trkpt lat="43.91268" lon="7.56091">
        <ele>1165.4343929107</ele>
        <time>2021-11-02T13:12:38Z</time>
      </trkpt>
      <trkpt lat="43.91268" lon="7.56091">
        <ele>1165.4343929107</ele>
        <time>2021-11-02T13:12:43Z</time>
      </trkpt>
      <trkpt lat="43.91268" lon="7.56085">
        <ele>1166.4343150134</ele>
        <time>2021-11-02T13:12:45Z</time>
      </trkpt>
      <trkpt lat="43.91267" lon="7.56084">
        <ele>1167.4343132558</ele>
        <time>2021-11-02T13:12:46Z</time>
      </trkpt>
      <trkpt lat="43.91267" lon="7.56084">
        <ele>1167.4343267607</ele>
        <time>2021-11-02T13:12:47Z</time>
      </trkpt>
      <trkpt lat="43.91267" lon="7.56083">
        <ele>1167.4343133298</ele>
        <time>2021-11-02T13:12:48Z</time>
      </trkpt>
      <trkpt lat="43.91267" lon="7.56082">
        <ele>1167.4343030927</ele>
        <time>2021-11-02T13:12:51Z</time>
      </trkpt>
      <trkpt lat="43.91266" lon="7.5608">
        <ele>1167.4343379092</ele>
        <time>2021-11-02T13:12:52Z</time>
      </trkpt>
      <trkpt lat="43.91266" lon="7.56079">
        <ele>1167.4343035574</ele>
        <time>2021-11-02T13:12:53Z</time>
      </trkpt>
      <trkpt lat="43.91267" lon="7.56077">
        <ele>1167.4342631103</ele>
        <time>2021-11-02T13:12:54Z</time>
      </trkpt>
      <trkpt lat="43.91266" lon="7.56076">
        <ele>1168.4342559496</ele>
        <time>2021-11-02T13:12:55Z</time>
      </trkpt>
      <trkpt lat="43.91266" lon="7.56076">
        <ele>1168.4342559496</ele>
        <time>2021-11-02T13:12:57Z</time>
      </trkpt>
      <trkpt lat="43.91267" lon="7.56073">
        <ele>1169.4341821492</ele>
        <time>2021-11-02T13:12:58Z</time>
      </trkpt>
      <trkpt lat="43.91267" lon="7.56072">
        <ele>1169.4341642273</ele>
        <time>2021-11-02T13:12:59Z</time>
      </trkpt>
      <trkpt lat="43.91267" lon="7.56071">
        <ele>1170.4341491437</ele>
        <time>2021-11-02T13:13:00Z</time>
      </trkpt>
      <trkpt lat="43.91267" lon="7.56071">
        <ele>1171.4341509312</ele>
        <time>2021-11-02T13:13:06Z</time>
      </trkpt>
      <trkpt lat="43.91266" lon="7.5607">
        <ele>1171.4341841917</ele>
        <time>2021-11-02T13:13:07Z</time>
      </trkpt>
      <trkpt lat="43.91265" lon="7.5607">
        <ele>1171.4342126467</ele>
        <time>2021-11-02T13:13:08Z</time>
      </trkpt>
      <trkpt lat="43.91265" lon="7.56069">
        <ele>1171.4342268298</ele>
        <time>2021-11-02T13:13:09Z</time>
      </trkpt>
      <trkpt lat="43.91264" lon="7.56069">
        <ele>1170.4342575589</ele>
        <time>2021-11-02T13:13:10Z</time>
      </trkpt>
      <trkpt lat="43.91264" lon="7.56069">
        <ele>1170.4342946814</ele>
        <time>2021-11-02T13:13:11Z</time>
      </trkpt>
      <trkpt lat="43.91263" lon="7.56069">
        <ele>1170.4343379115</ele>
        <time>2021-11-02T13:13:12Z</time>
      </trkpt>
      <trkpt lat="43.91261" lon="7.56069">
        <ele>1168.4344073648</ele>
        <time>2021-11-02T13:13:14Z</time>
      </trkpt>
      <trkpt lat="43.91261" lon="7.56069">
        <ele>1168.4344400999</ele>
        <time>2021-11-02T13:13:15Z</time>
      </trkpt>
      <trkpt lat="43.9126" lon="7.56069">
        <ele>1169.4344538367</ele>
        <time>2021-11-02T13:13:19Z</time>
      </trkpt>
      <trkpt lat="43.91259" lon="7.56071">
        <ele>1168.4345332195</ele>
        <time>2021-11-02T13:13:20Z</time>
      </trkpt>
      <trkpt lat="43.91259" lon="7.56071">
        <ele>1168.4345752551</ele>
        <time>2021-11-02T13:13:21Z</time>
      </trkpt>
      <trkpt lat="43.91257" lon="7.56073">
        <ele>1169.4346637204</ele>
        <time>2021-11-02T13:13:23Z</time>
      </trkpt>
      <trkpt lat="43.91257" lon="7.56073">
        <ele>1169.4346637204</ele>
        <time>2021-11-02T13:13:25Z</time>
      </trkpt>
      <trkpt lat="43.91256" lon="7.56074">
        <ele>1169.4347184641</ele>
        <time>2021-11-02T13:13:26Z</time>
      </trkpt>
      <trkpt lat="43.91255" lon="7.56076">
        <ele>1168.4348147064</ele>
        <time>2021-11-02T13:13:28Z</time>
      </trkpt>
      <trkpt lat="43.91253" lon="7.56077">
        <ele>1170.4349123994</ele>
        <time>2021-11-02T13:13:30Z</time>
      </trkpt>
      <trkpt lat="43.91252" lon="7.56078">
        <ele>1170.4349776716</ele>
        <time>2021-11-02T13:13:31Z</time>
      </trkpt>
      <trkpt lat="43.91252" lon="7.56079">
        <ele>1172.4350013345</ele>
        <time>2021-11-02T13:13:32Z</time>
      </trkpt>
      <trkpt lat="43.91252" lon="7.56079">
        <ele>1172.4350338791</ele>
        <time>2021-11-02T13:13:33Z</time>
      </trkpt>
      <trkpt lat="43.91251" lon="7.5608">
        <ele>1172.4350838662</ele>
        <time>2021-11-02T13:13:34Z</time>
      </trkpt>
      <trkpt lat="43.9125" lon="7.56081">
        <ele>1172.4351411722</ele>
        <time>2021-11-02T13:13:35Z</time>
      </trkpt>
      <trkpt lat="43.91249" lon="7.56081">
        <ele>1171.4351791234</ele>
        <time>2021-11-02T13:13:36Z</time>
      </trkpt>
      <trkpt lat="43.91248" lon="7.56081">
        <ele>1172.4352229289</ele>
        <time>2021-11-02T13:13:41Z</time>
      </trkpt>
      <trkpt lat="43.91248" lon="7.56082">
        <ele>1173.4352368412</ele>
        <time>2021-11-02T13:13:42Z</time>
      </trkpt>
      <trkpt lat="43.91248" lon="7.56083">
        <ele>1173.4352494604</ele>
        <time>2021-11-02T13:13:47Z</time>
      </trkpt>
      <trkpt lat="43.91248" lon="7.56083">
        <ele>1174.435252053</ele>
        <time>2021-11-02T13:13:51Z</time>
      </trkpt>
      <trkpt lat="43.91248" lon="7.56085">
        <ele>1174.4352754927</ele>
        <time>2021-11-02T13:13:57Z</time>
      </trkpt>
      <trkpt lat="43.91248" lon="7.56086">
        <ele>1174.4352964028</ele>
        <time>2021-11-02T13:13:58Z</time>
      </trkpt>
      <trkpt lat="43.91248" lon="7.56087">
        <ele>1174.4353240575</ele>
        <time>2021-11-02T13:13:59Z</time>
      </trkpt>
      <trkpt lat="43.91247" lon="7.56088">
        <ele>1174.4353637651</ele>
        <time>2021-11-02T13:14:00Z</time>
      </trkpt>
      <trkpt lat="43.91247" lon="7.56088">
        <ele>1175.4353820165</ele>
        <time>2021-11-02T13:14:03Z</time>
      </trkpt>
      <trkpt lat="43.91247" lon="7.56091">
        <ele>1176.4354237148</ele>
        <time>2021-11-02T13:14:04Z</time>
      </trkpt>
      <trkpt lat="43.91247" lon="7.56093">
        <ele>1175.4354403468</ele>
        <time>2021-11-02T13:14:05Z</time>
      </trkpt>
      <trkpt lat="43.91247" lon="7.56094">
        <ele>1175.4354680817</ele>
        <time>2021-11-02T13:14:06Z</time>
      </trkpt>
      <trkpt lat="43.91247" lon="7.56095">
        <ele>1175.435481087</ele>
        <time>2021-11-02T13:14:07Z</time>
      </trkpt>
      <trkpt lat="43.91247" lon="7.56096">
        <ele>1175.4355013672</ele>
        <time>2021-11-02T13:14:08Z</time>
      </trkpt>
      <trkpt lat="43.91247" lon="7.56097">
        <ele>1175.43549981</ele>
        <time>2021-11-02T13:14:09Z</time>
      </trkpt>
      <trkpt lat="43.91247" lon="7.56098">
        <ele>1175.4355192764</ele>
        <time>2021-11-02T13:14:10Z</time>
      </trkpt>
      <trkpt lat="43.91247" lon="7.56099">
        <ele>1175.4355572699</ele>
        <time>2021-11-02T13:14:11Z</time>
      </trkpt>
      <trkpt lat="43.91246" lon="7.561">
        <ele>1176.4356226601</ele>
        <time>2021-11-02T13:14:12Z</time>
      </trkpt>
      <trkpt lat="43.91245" lon="7.56101">
        <ele>1176.4356851675</ele>
        <time>2021-11-02T13:14:13Z</time>
      </trkpt>
      <trkpt lat="43.91244" lon="7.56103">
        <ele>1176.4357415812</ele>
        <time>2021-11-02T13:14:15Z</time>
      </trkpt>
      <trkpt lat="43.91243" lon="7.56103">
        <ele>1177.4357733146</ele>
        <time>2021-11-02T13:14:16Z</time>
      </trkpt>
      <trkpt lat="43.91244" lon="7.56104">
        <ele>1176.4357654542</ele>
        <time>2021-11-02T13:14:22Z</time>
      </trkpt>
      <trkpt lat="43.91244" lon="7.56105">
        <ele>1176.4357704841</ele>
        <time>2021-11-02T13:14:24Z</time>
      </trkpt>
      <trkpt lat="43.91244" lon="7.56106">
        <ele>1176.4357582723</ele>
        <time>2021-11-02T13:14:27Z</time>
      </trkpt>
      <trkpt lat="43.91245" lon="7.56107">
        <ele>1173.4357679346</ele>
        <time>2021-11-02T13:14:29Z</time>
      </trkpt>
      <trkpt lat="43.91245" lon="7.56108">
        <ele>1173.4357840322</ele>
        <time>2021-11-02T13:14:30Z</time>
      </trkpt>
      <trkpt lat="43.91244" lon="7.56109">
        <ele>1173.4358416137</ele>
        <time>2021-11-02T13:14:31Z</time>
      </trkpt>
      <trkpt lat="43.91243" lon="7.56109">
        <ele>1173.4358972484</ele>
        <time>2021-11-02T13:14:33Z</time>
      </trkpt>
      <trkpt lat="43.91241" lon="7.56109">
        <ele>1171.4359714862</ele>
        <time>2021-11-02T13:14:35Z</time>
      </trkpt>
      <trkpt lat="43.91241" lon="7.5611">
        <ele>1171.4359998871</ele>
        <time>2021-11-02T13:14:37Z</time>
      </trkpt>
      <trkpt lat="43.91242" lon="7.56112">
        <ele>1171.4359893092</ele>
        <time>2021-11-02T13:14:39Z</time>
      </trkpt>
      <trkpt lat="43.91242" lon="7.56112">
        <ele>1170.4359962289</ele>
        <time>2021-11-02T13:14:41Z</time>
      </trkpt>
      <trkpt lat="43.91241" lon="7.56114">
        <ele>1171.4360374744</ele>
        <time>2021-11-02T13:14:42Z</time>
      </trkpt>
      <trkpt lat="43.91241" lon="7.56114">
        <ele>1171.4360670288</ele>
        <time>2021-11-02T13:14:43Z</time>
      </trkpt>
      <trkpt lat="43.9124" lon="7.56115">
        <ele>1171.4361139556</ele>
        <time>2021-11-02T13:14:44Z</time>
      </trkpt>
      <trkpt lat="43.91239" lon="7.56116">
        <ele>1171.4361624398</ele>
        <time>2021-11-02T13:14:45Z</time>
      </trkpt>
      <trkpt lat="43.91238" lon="7.56117">
        <ele>1171.436207535</ele>
        <time>2021-11-02T13:14:46Z</time>
      </trkpt>
      <trkpt lat="43.91238" lon="7.56118">
        <ele>1172.4362746099</ele>
        <time>2021-11-02T13:14:48Z</time>
      </trkpt>
      <trkpt lat="43.91238" lon="7.56119">
        <ele>1171.4362896187</ele>
        <time>2021-11-02T13:14:49Z</time>
      </trkpt>
      <trkpt lat="43.91237" lon="7.5612">
        <ele>1171.4363381233</ele>
        <time>2021-11-02T13:14:50Z</time>
      </trkpt>
      <trkpt lat="43.91236" lon="7.5612">
        <ele>1171.4363896063</ele>
        <time>2021-11-02T13:14:51Z</time>
      </trkpt>
      <trkpt lat="43.91235" lon="7.56121">
        <ele>1171.4364418154</ele>
        <time>2021-11-02T13:14:52Z</time>
      </trkpt>
      <trkpt lat="43.91234" lon="7.56121">
        <ele>1170.4364868107</ele>
        <time>2021-11-02T13:14:53Z</time>
      </trkpt>
      <trkpt lat="43.91234" lon="7.56122">
        <ele>1170.4365228955</ele>
        <time>2021-11-02T13:14:55Z</time>
      </trkpt>
      <trkpt lat="43.91232" lon="7.56121">
        <ele>1169.4365800018</ele>
        <time>2021-11-02T13:14:56Z</time>
      </trkpt>
      <trkpt lat="43.91232" lon="7.56122">
        <ele>1169.4366105824</ele>
        <time>2021-11-02T13:14:57Z</time>
      </trkpt>
      <trkpt lat="43.9123" lon="7.56121">
        <ele>1169.43670571</ele>
        <time>2021-11-02T13:14:59Z</time>
      </trkpt>
      <trkpt lat="43.91229" lon="7.56122">
        <ele>1168.4367411904</ele>
        <time>2021-11-02T13:15:00Z</time>
      </trkpt>
      <trkpt lat="43.91228" lon="7.56122">
        <ele>1169.4367757373</ele>
        <time>2021-11-02T13:15:01Z</time>
      </trkpt>
      <trkpt lat="43.91228" lon="7.56121">
        <ele>1168.436813938</ele>
        <time>2021-11-02T13:15:03Z</time>
      </trkpt>
      <trkpt lat="43.91227" lon="7.56122">
        <ele>1167.4368506391</ele>
        <time>2021-11-02T13:15:05Z</time>
      </trkpt>
      <trkpt lat="43.91227" lon="7.56123">
        <ele>1167.4368576983</ele>
        <time>2021-11-02T13:15:10Z</time>
      </trkpt>
      <trkpt lat="43.91227" lon="7.56125">
        <ele>1167.436890049</ele>
        <time>2021-11-02T13:15:11Z</time>
      </trkpt>
      <trkpt lat="43.91227" lon="7.56126">
        <ele>1167.4369160151</ele>
        <time>2021-11-02T13:15:12Z</time>
      </trkpt>
      <trkpt lat="43.91227" lon="7.56127">
        <ele>1166.4369279283</ele>
        <time>2021-11-02T13:15:22Z</time>
      </trkpt>
      <trkpt lat="43.91226" lon="7.5613">
        <ele>1167.4370190893</ele>
        <time>2021-11-02T13:15:23Z</time>
      </trkpt>
      <trkpt lat="43.91226" lon="7.56131">
        <ele>1166.437033828</ele>
        <time>2021-11-02T13:15:24Z</time>
      </trkpt>
      <trkpt lat="43.91226" lon="7.56131">
        <ele>1166.4370400572</ele>
        <time>2021-11-02T13:15:25Z</time>
      </trkpt>
      <trkpt lat="43.91227" lon="7.56131">
        <ele>1165.436983353</ele>
        <time>2021-11-02T13:15:26Z</time>
      </trkpt>
      <trkpt lat="43.91227" lon="7.56131">
        <ele>1165.4369913308</ele>
        <time>2021-11-02T13:15:28Z</time>
      </trkpt>
      <trkpt lat="43.91226" lon="7.56129">
        <ele>1164.4369888857</ele>
        <time>2021-11-02T13:15:31Z</time>
      </trkpt>
      <trkpt lat="43.91227" lon="7.56128">
        <ele>1164.4369661243</ele>
        <time>2021-11-02T13:15:33Z</time>
      </trkpt>
      <trkpt lat="43.91226" lon="7.56128">
        <ele>1164.4369970235</ele>
        <time>2021-11-02T13:15:34Z</time>
      </trkpt>
      <trkpt lat="43.91225" lon="7.56128">
        <ele>1164.4370486242</ele>
        <time>2021-11-02T13:15:35Z</time>
      </trkpt>
      <trkpt lat="43.91224" lon="7.56128">
        <ele>1164.437087854</ele>
        <time>2021-11-02T13:15:36Z</time>
      </trkpt>
      <trkpt lat="43.91223" lon="7.56127">
        <ele>1164.4371057277</ele>
        <time>2021-11-02T13:15:39Z</time>
      </trkpt>
      <trkpt lat="43.91222" lon="7.56128">
        <ele>1163.4371928284</ele>
        <time>2021-11-02T13:15:40Z</time>
      </trkpt>
      <trkpt lat="43.91221" lon="7.56128">
        <ele>1163.4372486225</ele>
        <time>2021-11-02T13:15:41Z</time>
      </trkpt>
      <trkpt lat="43.9122" lon="7.56129">
        <ele>1163.4372919478</ele>
        <time>2021-11-02T13:15:42Z</time>
      </trkpt>
      <trkpt lat="43.9122" lon="7.5613">
        <ele>1163.4373019242</ele>
        <time>2021-11-02T13:15:43Z</time>
      </trkpt>
      <trkpt lat="43.91219" lon="7.5613">
        <ele>1163.4373456367</ele>
        <time>2021-11-02T13:15:45Z</time>
      </trkpt>
      <trkpt lat="43.91218" lon="7.5613">
        <ele>1163.4373990704</ele>
        <time>2021-11-02T13:15:46Z</time>
      </trkpt>
      <trkpt lat="43.91218" lon="7.56131">
        <ele>1164.4374305593</ele>
        <time>2021-11-02T13:15:47Z</time>
      </trkpt>
      <trkpt lat="43.91217" lon="7.56131">
        <ele>1164.4374784499</ele>
        <time>2021-11-02T13:15:48Z</time>
      </trkpt>
      <trkpt lat="43.91216" lon="7.56131">
        <ele>1164.4375097788</ele>
        <time>2021-11-02T13:15:49Z</time>
      </trkpt>
      <trkpt lat="43.91216" lon="7.56131">
        <ele>1164.4375429182</ele>
        <time>2021-11-02T13:15:50Z</time>
      </trkpt>
      <trkpt lat="43.91215" lon="7.56131">
        <ele>1164.4375890255</ele>
        <time>2021-11-02T13:15:51Z</time>
      </trkpt>
      <trkpt lat="43.91214" lon="7.56131">
        <ele>1164.4376103387</ele>
        <time>2021-11-02T13:15:52Z</time>
      </trkpt>
      <trkpt lat="43.91213" lon="7.56131">
        <ele>1164.4376653313</ele>
        <time>2021-11-02T13:15:54Z</time>
      </trkpt>
      <trkpt lat="43.91213" lon="7.56131">
        <ele>1164.4376653313</ele>
        <time>2021-11-02T13:15:59Z</time>
      </trkpt>
      <trkpt lat="43.91211" lon="7.5613">
        <ele>1163.4377468395</ele>
        <time>2021-11-02T13:16:00Z</time>
      </trkpt>
      <trkpt lat="43.91211" lon="7.5613">
        <ele>1161.4377649838</ele>
        <time>2021-11-02T13:16:02Z</time>
      </trkpt>
      <trkpt lat="43.9121" lon="7.56129">
        <ele>1161.4377815182</ele>
        <time>2021-11-02T13:16:06Z</time>
      </trkpt>
      <trkpt lat="43.91209" lon="7.56128">
        <ele>1160.4378372463</ele>
        <time>2021-11-02T13:16:07Z</time>
      </trkpt>
      <trkpt lat="43.91208" lon="7.56127">
        <ele>1161.4378585571</ele>
        <time>2021-11-02T13:16:09Z</time>
      </trkpt>
      <trkpt lat="43.91208" lon="7.56128">
        <ele>1161.4378944087</ele>
        <time>2021-11-02T13:16:10Z</time>
      </trkpt>
      <trkpt lat="43.91207" lon="7.56128">
        <ele>1162.437930989</ele>
        <time>2021-11-02T13:16:11Z</time>
      </trkpt>
      <trkpt lat="43.91207" lon="7.56129">
        <ele>1161.4379688365</ele>
        <time>2021-11-02T13:16:14Z</time>
      </trkpt>
      <trkpt lat="43.91205" lon="7.5613">
        <ele>1161.4380606942</ele>
        <time>2021-11-02T13:16:15Z</time>
      </trkpt>
      <trkpt lat="43.91204" lon="7.5613">
        <ele>1161.438099183</ele>
        <time>2021-11-02T13:16:16Z</time>
      </trkpt>
      <trkpt lat="43.91204" lon="7.56131">
        <ele>1160.4381240209</ele>
        <time>2021-11-02T13:16:20Z</time>
      </trkpt>
      <trkpt lat="43.91203" lon="7.56132">
        <ele>1162.4381803286</ele>
        <time>2021-11-02T13:16:21Z</time>
      </trkpt>
      <trkpt lat="43.91203" lon="7.56132">
        <ele>1162.4381981357</ele>
        <time>2021-11-02T13:16:25Z</time>
      </trkpt>
      <trkpt lat="43.91204" lon="7.56131">
        <ele>1162.438146249</ele>
        <time>2021-11-02T13:16:26Z</time>
      </trkpt>
      <trkpt lat="43.91204" lon="7.5613">
        <ele>1162.4381406412</ele>
        <time>2021-11-02T13:16:30Z</time>
      </trkpt>
      <trkpt lat="43.91203" lon="7.56129">
        <ele>1162.4381644299</ele>
        <time>2021-11-02T13:16:31Z</time>
      </trkpt>
      <trkpt lat="43.91201" lon="7.56128">
        <ele>1161.4382597116</ele>
        <time>2021-11-02T13:16:33Z</time>
      </trkpt>
      <trkpt lat="43.912" lon="7.56128">
        <ele>1160.4383023894</ele>
        <time>2021-11-02T13:16:35Z</time>
      </trkpt>
      <trkpt lat="43.91199" lon="7.56128">
        <ele>1159.4383323667</ele>
        <time>2021-11-02T13:16:36Z</time>
      </trkpt>
      <trkpt lat="43.91198" lon="7.56128">
        <ele>1158.4383681215</ele>
        <time>2021-11-02T13:16:37Z</time>
      </trkpt>
      <trkpt lat="43.91198" lon="7.56127">
        <ele>1158.4383851777</ele>
        <time>2021-11-02T13:16:38Z</time>
      </trkpt>
      <trkpt lat="43.91198" lon="7.56127">
        <ele>1158.4383767945</ele>
        <time>2021-11-02T13:16:39Z</time>
      </trkpt>
      <trkpt lat="43.91198" lon="7.56126">
        <ele>1158.4383690988</ele>
        <time>2021-11-02T13:16:40Z</time>
      </trkpt>
      <trkpt lat="43.91198" lon="7.56125">
        <ele>1158.4383596613</ele>
        <time>2021-11-02T13:16:41Z</time>
      </trkpt>
      <trkpt lat="43.91197" lon="7.56124">
        <ele>1159.4383587065</ele>
        <time>2021-11-02T13:16:42Z</time>
      </trkpt>
      <trkpt lat="43.91197" lon="7.56123">
        <ele>1159.438369731</ele>
        <time>2021-11-02T13:16:44Z</time>
      </trkpt>
      <trkpt lat="43.91197" lon="7.56123">
        <ele>1159.4383753276</ele>
        <time>2021-11-02T13:16:48Z</time>
      </trkpt>
      <trkpt lat="43.91197" lon="7.5612">
        <ele>1160.4383000192</ele>
        <time>2021-11-02T13:16:50Z</time>
      </trkpt>
      <trkpt lat="43.91198" lon="7.56119">
        <ele>1160.4382665398</ele>
        <time>2021-11-02T13:16:51Z</time>
      </trkpt>
      <trkpt lat="43.91198" lon="7.56118">
        <ele>1163.4382379705</ele>
        <time>2021-11-02T13:16:55Z</time>
      </trkpt>
      <trkpt lat="43.91198" lon="7.56118">
        <ele>1163.4382165346</ele>
        <time>2021-11-02T13:16:56Z</time>
      </trkpt>
      <trkpt lat="43.91199" lon="7.56117">
        <ele>1163.438186778</ele>
        <time>2021-11-02T13:16:58Z</time>
      </trkpt>
      <trkpt lat="43.912" lon="7.56115">
        <ele>1165.4381318792</ele>
        <time>2021-11-02T13:17:00Z</time>
      </trkpt>
      <trkpt lat="43.912" lon="7.56115">
        <ele>1165.4381318792</ele>
        <time>2021-11-02T13:17:02Z</time>
      </trkpt>
      <trkpt lat="43.91199" lon="7.56113">
        <ele>1165.4381046657</ele>
        <time>2021-11-02T13:17:03Z</time>
      </trkpt>
      <trkpt lat="43.912" lon="7.56112">
        <ele>1165.4380857806</ele>
        <time>2021-11-02T13:17:04Z</time>
      </trkpt>
      <trkpt lat="43.91199" lon="7.56111">
        <ele>1164.4380867921</ele>
        <time>2021-11-02T13:17:08Z</time>
      </trkpt>
      <trkpt lat="43.91199" lon="7.56111">
        <ele>1164.4380916455</ele>
        <time>2021-11-02T13:17:10Z</time>
      </trkpt>
      <trkpt lat="43.91199" lon="7.5611">
        <ele>1164.4380858944</ele>
        <time>2021-11-02T13:17:11Z</time>
      </trkpt>
      <trkpt lat="43.91198" lon="7.56109">
        <ele>1164.4380974716</ele>
        <time>2021-11-02T13:17:12Z</time>
      </trkpt>
      <trkpt lat="43.91198" lon="7.56108">
        <ele>1164.4381255662</ele>
        <time>2021-11-02T13:17:14Z</time>
      </trkpt>
      <trkpt lat="43.91198" lon="7.56108">
        <ele>1164.4381255662</ele>
        <time>2021-11-02T13:17:15Z</time>
      </trkpt>
      <trkpt lat="43.91197" lon="7.56106">
        <ele>1165.4381258997</ele>
        <time>2021-11-02T13:17:16Z</time>
      </trkpt>
      <trkpt lat="43.91197" lon="7.56105">
        <ele>1166.438093441</ele>
        <time>2021-11-02T13:17:17Z</time>
      </trkpt>
      <trkpt lat="43.91198" lon="7.56104">
        <ele>1166.438038471</ele>
        <time>2021-11-02T13:17:18Z</time>
      </trkpt>
      <trkpt lat="43.91199" lon="7.56102">
        <ele>1165.437977893</ele>
        <time>2021-11-02T13:17:19Z</time>
      </trkpt>
      <trkpt lat="43.91199" lon="7.56101">
        <ele>1166.4379477088</ele>
        <time>2021-11-02T13:17:20Z</time>
      </trkpt>
      <trkpt lat="43.912" lon="7.56101">
        <ele>1167.4378936456</ele>
        <time>2021-11-02T13:17:21Z</time>
      </trkpt>
      <trkpt lat="43.91201" lon="7.561">
        <ele>1167.4378466149</ele>
        <time>2021-11-02T13:17:22Z</time>
      </trkpt>
      <trkpt lat="43.91201" lon="7.561">
        <ele>1167.4378158486</ele>
        <time>2021-11-02T13:17:23Z</time>
      </trkpt>
      <trkpt lat="43.91202" lon="7.56099">
        <ele>1167.4377921489</ele>
        <time>2021-11-02T13:17:27Z</time>
      </trkpt>
      <trkpt lat="43.91203" lon="7.56099">
        <ele>1168.4377372137</ele>
        <time>2021-11-02T13:17:28Z</time>
      </trkpt>
      <trkpt lat="43.91203" lon="7.56099">
        <ele>1170.4377024324</ele>
        <time>2021-11-02T13:17:30Z</time>
      </trkpt>
      <trkpt lat="43.91204" lon="7.56099">
        <ele>1170.4376863038</ele>
        <time>2021-11-02T13:17:33Z</time>
      </trkpt>
      <trkpt lat="43.91204" lon="7.56101">
        <ele>1170.437707068</ele>
        <time>2021-11-02T13:17:35Z</time>
      </trkpt>
      <trkpt lat="43.91204" lon="7.56102">
        <ele>1169.4377027156</ele>
        <time>2021-11-02T13:17:36Z</time>
      </trkpt>
      <trkpt lat="43.91204" lon="7.56102">
        <ele>1169.4377094479</ele>
        <time>2021-11-02T13:17:37Z</time>
      </trkpt>
      <trkpt lat="43.91204" lon="7.56103">
        <ele>1168.4377596864</ele>
        <time>2021-11-02T13:17:39Z</time>
      </trkpt>
      <trkpt lat="43.91204" lon="7.56103">
        <ele>1168.4377596864</ele>
        <time>2021-11-02T13:17:41Z</time>
      </trkpt>
      <trkpt lat="43.91201" lon="7.56104">
        <ele>1167.4378886466</ele>
        <time>2021-11-02T13:17:42Z</time>
      </trkpt>
      <trkpt lat="43.912" lon="7.56105">
        <ele>1166.4379353555</ele>
        <time>2021-11-02T13:17:43Z</time>
      </trkpt>
      <trkpt lat="43.912" lon="7.56105">
        <ele>1166.4379770792</ele>
        <time>2021-11-02T13:17:44Z</time>
      </trkpt>
      <trkpt lat="43.91199" lon="7.56105">
        <ele>1166.4380121863</ele>
        <time>2021-11-02T13:17:45Z</time>
      </trkpt>
      <trkpt lat="43.91199" lon="7.56106">
        <ele>1165.438033665</ele>
        <time>2021-11-02T13:17:46Z</time>
      </trkpt>
      <trkpt lat="43.91195" lon="7.56106">
        <ele>1164.4381991864</ele>
        <time>2021-11-02T13:17:48Z</time>
      </trkpt>
      <trkpt lat="43.91195" lon="7.56106">
        <ele>1164.4382373898</ele>
        <time>2021-11-02T13:17:50Z</time>
      </trkpt>
      <trkpt lat="43.91195" lon="7.56107">
        <ele>1164.4382657091</ele>
        <time>2021-11-02T13:17:51Z</time>
      </trkpt>
      <trkpt lat="43.91194" lon="7.56108">
        <ele>1164.4382895264</ele>
        <time>2021-11-02T13:17:52Z</time>
      </trkpt>
      <trkpt lat="43.91194" lon="7.56108">
        <ele>1165.4382842882</ele>
        <time>2021-11-02T13:17:55Z</time>
      </trkpt>
      <trkpt lat="43.91195" lon="7.56109">
        <ele>1165.4382765439</ele>
        <time>2021-11-02T13:17:56Z</time>
      </trkpt>
      <trkpt lat="43.91195" lon="7.56109">
        <ele>1163.4382616425</ele>
        <time>2021-11-02T13:18:06Z</time>
      </trkpt>
      <trkpt lat="43.91195" lon="7.56111">
        <ele>1163.438289089</ele>
        <time>2021-11-02T13:18:08Z</time>
      </trkpt>
      <trkpt lat="43.91194" lon="7.56112">
        <ele>1164.438346987</ele>
        <time>2021-11-02T13:18:09Z</time>
      </trkpt>
      <trkpt lat="43.91193" lon="7.56112">
        <ele>1164.4384158842</ele>
        <time>2021-11-02T13:18:10Z</time>
      </trkpt>
      <trkpt lat="43.91192" lon="7.56113">
        <ele>1164.4384483054</ele>
        <time>2021-11-02T13:18:11Z</time>
      </trkpt>
      <trkpt lat="43.91192" lon="7.56113">
        <ele>1165.4384666739</ele>
        <time>2021-11-02T13:18:13Z</time>
      </trkpt>
      <trkpt lat="43.91193" lon="7.56115">
        <ele>1166.4384557151</ele>
        <time>2021-11-02T13:18:15Z</time>
      </trkpt>
      <trkpt lat="43.91193" lon="7.56116">
        <ele>1167.4384571972</ele>
        <time>2021-11-02T13:18:16Z</time>
      </trkpt>
      <trkpt lat="43.91193" lon="7.56117">
        <ele>1167.4384694293</ele>
        <time>2021-11-02T13:18:17Z</time>
      </trkpt>
      <trkpt lat="43.91193" lon="7.56118">
        <ele>1167.43849526</ele>
        <time>2021-11-02T13:18:19Z</time>
      </trkpt>
      <trkpt lat="43.91194" lon="7.56118">
        <ele>1168.4384669016</ele>
        <time>2021-11-02T13:18:20Z</time>
      </trkpt>
      <trkpt lat="43.91194" lon="7.56119">
        <ele>1168.4384414634</ele>
        <time>2021-11-02T13:18:21Z</time>
      </trkpt>
      <trkpt lat="43.91195" lon="7.56121">
        <ele>1168.4384365324</ele>
        <time>2021-11-02T13:18:23Z</time>
      </trkpt>
      <trkpt lat="43.91194" lon="7.5612">
        <ele>1168.438462685</ele>
        <time>2021-11-02T13:18:24Z</time>
      </trkpt>
      <trkpt lat="43.91193" lon="7.56119">
        <ele>1167.4385036577</ele>
        <time>2021-11-02T13:18:25Z</time>
      </trkpt>
      <trkpt lat="43.91192" lon="7.56118">
        <ele>1167.4385285166</ele>
        <time>2021-11-02T13:18:26Z</time>
      </trkpt>
      <trkpt lat="43.91191" lon="7.56118">
        <ele>1167.4385712454</ele>
        <time>2021-11-02T13:18:28Z</time>
      </trkpt>
      <trkpt lat="43.9119" lon="7.56118">
        <ele>1166.4386248902</ele>
        <time>2021-11-02T13:18:30Z</time>
      </trkpt>
      <trkpt lat="43.91189" lon="7.56118">
        <ele>1166.4386685156</ele>
        <time>2021-11-02T13:18:31Z</time>
      </trkpt>
      <trkpt lat="43.91189" lon="7.56118">
        <ele>1166.4386879487</ele>
        <time>2021-11-02T13:18:32Z</time>
      </trkpt>
      <trkpt lat="43.91188" lon="7.56119">
        <ele>1166.4387260924</ele>
        <time>2021-11-02T13:18:34Z</time>
      </trkpt>
      <trkpt lat="43.91187" lon="7.56119">
        <ele>1165.4387909622</ele>
        <time>2021-11-02T13:18:36Z</time>
      </trkpt>
      <trkpt lat="43.91186" lon="7.56119">
        <ele>1164.4388663707</ele>
        <time>2021-11-02T13:18:38Z</time>
      </trkpt>
      <trkpt lat="43.91184" lon="7.56119">
        <ele>1164.4389354328</ele>
        <time>2021-11-02T13:18:39Z</time>
      </trkpt>
      <trkpt lat="43.91183" lon="7.56119">
        <ele>1164.4389855273</ele>
        <time>2021-11-02T13:18:40Z</time>
      </trkpt>
      <trkpt lat="43.91182" lon="7.56119">
        <ele>1163.4390258</ele>
        <time>2021-11-02T13:18:41Z</time>
      </trkpt>
      <trkpt lat="43.91182" lon="7.56119">
        <ele>1163.4390258</ele>
        <time>2021-11-02T13:18:43Z</time>
      </trkpt>
      <trkpt lat="43.91178" lon="7.56117">
        <ele>1161.4392114625</ele>
        <time>2021-11-02T13:18:44Z</time>
      </trkpt>
      <trkpt lat="43.91177" lon="7.56117">
        <ele>1161.4392740051</ele>
        <time>2021-11-02T13:18:45Z</time>
      </trkpt>
      <trkpt lat="43.91176" lon="7.56117">
        <ele>1160.4393405785</ele>
        <time>2021-11-02T13:18:46Z</time>
      </trkpt>
      <trkpt lat="43.91175" lon="7.56117">
        <ele>1160.4393835584</ele>
        <time>2021-11-02T13:18:47Z</time>
      </trkpt>
      <trkpt lat="43.91174" lon="7.56116">
        <ele>1161.4394273462</ele>
        <time>2021-11-02T13:18:48Z</time>
      </trkpt>
      <trkpt lat="43.91173" lon="7.56116">
        <ele>1160.4394708036</ele>
        <time>2021-11-02T13:18:49Z</time>
      </trkpt>
      <trkpt lat="43.91172" lon="7.56115">
        <ele>1160.4395050311</ele>
        <time>2021-11-02T13:18:50Z</time>
      </trkpt>
      <trkpt lat="43.91171" lon="7.56114">
        <ele>1160.4395099734</ele>
        <time>2021-11-02T13:18:51Z</time>
      </trkpt>
      <trkpt lat="43.91171" lon="7.56113">
        <ele>1160.439529941</ele>
        <time>2021-11-02T13:18:53Z</time>
      </trkpt>
      <trkpt lat="43.91169" lon="7.56112">
        <ele>1160.4395855138</ele>
        <time>2021-11-02T13:18:54Z</time>
      </trkpt>
      <trkpt lat="43.91168" lon="7.56112">
        <ele>1161.4396318836</ele>
        <time>2021-11-02T13:18:55Z</time>
      </trkpt>
      <trkpt lat="43.91168" lon="7.56112">
        <ele>1162.4396572881</ele>
        <time>2021-11-02T13:18:57Z</time>
      </trkpt>
      <trkpt lat="43.91167" lon="7.56112">
        <ele>1162.4396894509</ele>
        <time>2021-11-02T13:18:58Z</time>
      </trkpt>
      <trkpt lat="43.91166" lon="7.56111">
        <ele>1162.439725432</ele>
        <time>2021-11-02T13:19:00Z</time>
      </trkpt>
      <trkpt lat="43.91166" lon="7.56112">
        <ele>1162.4397466517</ele>
        <time>2021-11-02T13:19:01Z</time>
      </trkpt>
      <trkpt lat="43.91165" lon="7.56112">
        <ele>1162.4397831914</ele>
        <time>2021-11-02T13:19:02Z</time>
      </trkpt>
      <trkpt lat="43.91165" lon="7.56112">
        <ele>1163.4398175858</ele>
        <time>2021-11-02T13:19:03Z</time>
      </trkpt>
      <trkpt lat="43.91164" lon="7.56112">
        <ele>1163.4398549973</ele>
        <time>2021-11-02T13:19:04Z</time>
      </trkpt>
      <trkpt lat="43.91163" lon="7.56112">
        <ele>1163.4398814685</ele>
        <time>2021-11-02T13:19:06Z</time>
      </trkpt>
      <trkpt lat="43.91163" lon="7.56112">
        <ele>1163.4399116898</ele>
        <time>2021-11-02T13:19:07Z</time>
      </trkpt>
      <trkpt lat="43.91162" lon="7.56112">
        <ele>1162.4399587521</ele>
        <time>2021-11-02T13:19:08Z</time>
      </trkpt>
      <trkpt lat="43.9116" lon="7.56112">
        <ele>1162.4400560843</ele>
        <time>2021-11-02T13:19:10Z</time>
      </trkpt>
      <trkpt lat="43.91159" lon="7.56113">
        <ele>1163.4400946239</ele>
        <time>2021-11-02T13:19:11Z</time>
      </trkpt>
      <trkpt lat="43.91158" lon="7.56112">
        <ele>1163.4401442858</ele>
        <time>2021-11-02T13:19:12Z</time>
      </trkpt>
      <trkpt lat="43.91157" lon="7.56113">
        <ele>1162.4401860834</ele>
        <time>2021-11-02T13:19:13Z</time>
      </trkpt>
      <trkpt lat="43.91156" lon="7.56112">
        <ele>1162.4402271358</ele>
        <time>2021-11-02T13:19:14Z</time>
      </trkpt>
      <trkpt lat="43.91156" lon="7.56111">
        <ele>1162.4402322636</ele>
        <time>2021-11-02T13:19:15Z</time>
      </trkpt>
      <trkpt lat="43.91156" lon="7.5611">
        <ele>1162.4402177037</ele>
        <time>2021-11-02T13:19:16Z</time>
      </trkpt>
      <trkpt lat="43.91156" lon="7.56109">
        <ele>1162.4402102404</ele>
        <time>2021-11-02T13:19:17Z</time>
      </trkpt>
      <trkpt lat="43.91156" lon="7.56109">
        <ele>1163.4401849876</ele>
        <time>2021-11-02T13:19:21Z</time>
      </trkpt>
      <trkpt lat="43.91157" lon="7.56109">
        <ele>1164.4401392438</ele>
        <time>2021-11-02T13:19:27Z</time>
      </trkpt>
      <trkpt lat="43.91157" lon="7.56108">
        <ele>1164.4401256046</ele>
        <time>2021-11-02T13:19:31Z</time>
      </trkpt>
      <trkpt lat="43.91158" lon="7.56109">
        <ele>1163.4401027023</ele>
        <time>2021-11-02T13:19:32Z</time>
      </trkpt>
      <trkpt lat="43.91158" lon="7.56109">
        <ele>1163.440121617</ele>
        <time>2021-11-02T13:19:37Z</time>
      </trkpt>
      <trkpt lat="43.91157" lon="7.56109">
        <ele>1163.4401531458</ele>
        <time>2021-11-02T13:19:42Z</time>
      </trkpt>
      <trkpt lat="43.91157" lon="7.56109">
        <ele>1163.440184271</ele>
        <time>2021-11-02T13:19:43Z</time>
      </trkpt>
      <trkpt lat="43.91156" lon="7.5611">
        <ele>1164.4402256679</ele>
        <time>2021-11-02T13:19:44Z</time>
      </trkpt>
      <trkpt lat="43.91155" lon="7.56111">
        <ele>1165.4402590696</ele>
        <time>2021-11-02T13:19:45Z</time>
      </trkpt>
      <trkpt lat="43.91155" lon="7.56111">
        <ele>1166.4403061755</ele>
        <time>2021-11-02T13:19:46Z</time>
      </trkpt>
      <trkpt lat="43.91154" lon="7.56112">
        <ele>1166.4403406469</ele>
        <time>2021-11-02T13:19:47Z</time>
      </trkpt>
      <trkpt lat="43.91154" lon="7.56112">
        <ele>1167.4403756713</ele>
        <time>2021-11-02T13:19:48Z</time>
      </trkpt>
      <trkpt lat="43.91154" lon="7.56113">
        <ele>1167.440383109</ele>
        <time>2021-11-02T13:19:49Z</time>
      </trkpt>
      <trkpt lat="43.91153" lon="7.56114">
        <ele>1167.4404062437</ele>
        <time>2021-11-02T13:19:50Z</time>
      </trkpt>
      <trkpt lat="43.91153" lon="7.56115">
        <ele>1167.4404397292</ele>
        <time>2021-11-02T13:19:51Z</time>
      </trkpt>
      <trkpt lat="43.91152" lon="7.56115">
        <ele>1167.4404734521</ele>
        <time>2021-11-02T13:19:54Z</time>
      </trkpt>
      <trkpt lat="43.91153" lon="7.56114">
        <ele>1167.4404274099</ele>
        <time>2021-11-02T13:19:56Z</time>
      </trkpt>
      <trkpt lat="43.91152" lon="7.56114">
        <ele>1168.4404586438</ele>
        <time>2021-11-02T13:20:00Z</time>
      </trkpt>
      <trkpt lat="43.91152" lon="7.56115">
        <ele>1167.4404990438</ele>
        <time>2021-11-02T13:20:02Z</time>
      </trkpt>
      <trkpt lat="43.91152" lon="7.56115">
        <ele>1167.4404936164</ele>
        <time>2021-11-02T13:20:04Z</time>
      </trkpt>
      <trkpt lat="43.91152" lon="7.56117">
        <ele>1167.4405283985</ele>
        <time>2021-11-02T13:20:06Z</time>
      </trkpt>
      <trkpt lat="43.91152" lon="7.56116">
        <ele>1167.4404871507</ele>
        <time>2021-11-02T13:22:12Z</time>
      </trkpt>
      <trkpt lat="43.91151" lon="7.56117">
        <ele>1167.4405588357</ele>
        <time>2021-11-02T13:22:14Z</time>
      </trkpt>
      <trkpt lat="43.91151" lon="7.56118">
        <ele>1167.4405853992</ele>
        <time>2021-11-02T13:22:19Z</time>
      </trkpt>
      <trkpt lat="43.91152" lon="7.56119">
        <ele>1168.4405645543</ele>
        <time>2021-11-02T13:22:23Z</time>
      </trkpt>
      <trkpt lat="43.91153" lon="7.56119">
        <ele>1168.4405228741</ele>
        <time>2021-11-02T13:22:24Z</time>
      </trkpt>
      <trkpt lat="43.91154" lon="7.56119">
        <ele>1167.4404682225</ele>
        <time>2021-11-02T13:22:25Z</time>
      </trkpt>
      <trkpt lat="43.91155" lon="7.5612">
        <ele>1167.4404320308</ele>
        <time>2021-11-02T13:22:26Z</time>
      </trkpt>
      <trkpt lat="43.91155" lon="7.5612">
        <ele>1168.4404163957</ele>
        <time>2021-11-02T13:22:27Z</time>
      </trkpt>
      <trkpt lat="43.91157" lon="7.5612">
        <ele>1167.4403155016</ele>
        <time>2021-11-02T13:22:29Z</time>
      </trkpt>
      <trkpt lat="43.91158" lon="7.56122">
        <ele>1167.4402897285</ele>
        <time>2021-11-02T13:22:31Z</time>
      </trkpt>
      <trkpt lat="43.91157" lon="7.56124">
        <ele>1166.4403549761</ele>
        <time>2021-11-02T13:22:32Z</time>
      </trkpt>
      <trkpt lat="43.91157" lon="7.56125">
        <ele>1166.4403974729</ele>
        <time>2021-11-02T13:22:33Z</time>
      </trkpt>
      <trkpt lat="43.91156" lon="7.56127">
        <ele>1165.4404859879</ele>
        <time>2021-11-02T13:22:35Z</time>
      </trkpt>
      <trkpt lat="43.91155" lon="7.56129">
        <ele>1165.4405348811</ele>
        <time>2021-11-02T13:22:36Z</time>
      </trkpt>
      <trkpt lat="43.91155" lon="7.56129">
        <ele>1165.4405348811</ele>
        <time>2021-11-02T13:22:38Z</time>
      </trkpt>
      <trkpt lat="43.91153" lon="7.5613">
        <ele>1165.4406503415</ele>
        <time>2021-11-02T13:22:39Z</time>
      </trkpt>
      <trkpt lat="43.91151" lon="7.56131">
        <ele>1165.4407470277</ele>
        <time>2021-11-02T13:22:41Z</time>
      </trkpt>
      <trkpt lat="43.91151" lon="7.5613">
        <ele>1165.4407670557</ele>
        <time>2021-11-02T13:22:44Z</time>
      </trkpt>
      <trkpt lat="43.91149" lon="7.5613">
        <ele>1164.4408650219</ele>
        <time>2021-11-02T13:22:45Z</time>
      </trkpt>
      <trkpt lat="43.91147" lon="7.5613">
        <ele>1163.4409516858</ele>
        <time>2021-11-02T13:22:46Z</time>
      </trkpt>
      <trkpt lat="43.91146" lon="7.56129">
        <ele>1162.4410081944</ele>
        <time>2021-11-02T13:22:47Z</time>
      </trkpt>
      <trkpt lat="43.91145" lon="7.56129">
        <ele>1162.4410517595</ele>
        <time>2021-11-02T13:22:48Z</time>
      </trkpt>
      <trkpt lat="43.91143" lon="7.56129">
        <ele>1162.4411128723</ele>
        <time>2021-11-02T13:22:49Z</time>
      </trkpt>
      <trkpt lat="43.91143" lon="7.56129">
        <ele>1161.441163337</ele>
        <time>2021-11-02T13:22:50Z</time>
      </trkpt>
      <trkpt lat="43.91142" lon="7.5613">
        <ele>1162.4412064408</ele>
        <time>2021-11-02T13:22:51Z</time>
      </trkpt>
      <trkpt lat="43.91141" lon="7.56131">
        <ele>1163.4412481428</ele>
        <time>2021-11-02T13:22:52Z</time>
      </trkpt>
      <trkpt lat="43.91141" lon="7.56131">
        <ele>1162.441293566</ele>
        <time>2021-11-02T13:22:54Z</time>
      </trkpt>
      <trkpt lat="43.91139" lon="7.56131">
        <ele>1162.4413829874</ele>
        <time>2021-11-02T13:22:56Z</time>
      </trkpt>
      <trkpt lat="43.91138" lon="7.56131">
        <ele>1162.4414168212</ele>
        <time>2021-11-02T13:22:57Z</time>
      </trkpt>
      <trkpt lat="43.91137" lon="7.56131">
        <ele>1162.4414560628</ele>
        <time>2021-11-02T13:23:00Z</time>
      </trkpt>
      <trkpt lat="43.91135" lon="7.56131">
        <ele>1162.4415516695</ele>
        <time>2021-11-02T13:23:01Z</time>
      </trkpt>
      <trkpt lat="43.91134" lon="7.56131">
        <ele>1162.4416036925</ele>
        <time>2021-11-02T13:23:02Z</time>
      </trkpt>
      <trkpt lat="43.91133" lon="7.56131">
        <ele>1162.4416494987</ele>
        <time>2021-11-02T13:23:03Z</time>
      </trkpt>
      <trkpt lat="43.91133" lon="7.56131">
        <ele>1162.4416862919</ele>
        <time>2021-11-02T13:23:04Z</time>
      </trkpt>
      <trkpt lat="43.91132" lon="7.56131">
        <ele>1162.4417172578</ele>
        <time>2021-11-02T13:23:05Z</time>
      </trkpt>
      <trkpt lat="43.91131" lon="7.56131">
        <ele>1162.4417462302</ele>
        <time>2021-11-02T13:23:07Z</time>
      </trkpt>
      <trkpt lat="43.91131" lon="7.56132">
        <ele>1162.4417704674</ele>
        <time>2021-11-02T13:23:08Z</time>
      </trkpt>
      <trkpt lat="43.9113" lon="7.56132">
        <ele>1163.4418021884</ele>
        <time>2021-11-02T13:23:09Z</time>
      </trkpt>
      <trkpt lat="43.9113" lon="7.56132">
        <ele>1162.4418325768</ele>
        <time>2021-11-02T13:23:10Z</time>
      </trkpt>
      <trkpt lat="43.91129" lon="7.56132">
        <ele>1162.4418727341</ele>
        <time>2021-11-02T13:23:13Z</time>
      </trkpt>
      <trkpt lat="43.91127" lon="7.56131">
        <ele>1162.4419607416</ele>
        <time>2021-11-02T13:23:15Z</time>
      </trkpt>
      <trkpt lat="43.91127" lon="7.56131">
        <ele>1161.4419692358</ele>
        <time>2021-11-02T13:23:16Z</time>
      </trkpt>
      <trkpt lat="43.91127" lon="7.56133">
        <ele>1161.4419966945</ele>
        <time>2021-11-02T13:23:17Z</time>
      </trkpt>
      <trkpt lat="43.91127" lon="7.56133">
        <ele>1161.4420161393</ele>
        <time>2021-11-02T13:23:18Z</time>
      </trkpt>
      <trkpt lat="43.91126" lon="7.56134">
        <ele>1162.4420751533</ele>
        <time>2021-11-02T13:23:20Z</time>
      </trkpt>
      <trkpt lat="43.91125" lon="7.56135">
        <ele>1162.4421227616</ele>
        <time>2021-11-02T13:23:21Z</time>
      </trkpt>
      <trkpt lat="43.91124" lon="7.56136">
        <ele>1162.4421636281</ele>
        <time>2021-11-02T13:23:22Z</time>
      </trkpt>
      <trkpt lat="43.91124" lon="7.56136">
        <ele>1161.4422086518</ele>
        <time>2021-11-02T13:23:24Z</time>
      </trkpt>
      <trkpt lat="43.91121" lon="7.56137">
        <ele>1162.4423257361</ele>
        <time>2021-11-02T13:23:26Z</time>
      </trkpt>
      <trkpt lat="43.9112" lon="7.56137">
        <ele>1162.4423838705</ele>
        <time>2021-11-02T13:23:27Z</time>
      </trkpt>
      <trkpt lat="43.91119" lon="7.56137">
        <ele>1162.4424342973</ele>
        <time>2021-11-02T13:23:28Z</time>
      </trkpt>
      <trkpt lat="43.91118" lon="7.56137">
        <ele>1162.4425035502</ele>
        <time>2021-11-02T13:23:30Z</time>
      </trkpt>
      <trkpt lat="43.91117" lon="7.56137">
        <ele>1162.4425331091</ele>
        <time>2021-11-02T13:23:31Z</time>
      </trkpt>
      <trkpt lat="43.91117" lon="7.56137">
        <ele>1162.4425439162</ele>
        <time>2021-11-02T13:23:32Z</time>
      </trkpt>
      <trkpt lat="43.91117" lon="7.56136">
        <ele>1162.4425427137</ele>
        <time>2021-11-02T13:23:33Z</time>
      </trkpt>
      <trkpt lat="43.91116" lon="7.56137">
        <ele>1162.4426137153</ele>
        <time>2021-11-02T13:23:35Z</time>
      </trkpt>
      <trkpt lat="43.91115" lon="7.56137">
        <ele>1162.4426579987</ele>
        <time>2021-11-02T13:23:36Z</time>
      </trkpt>
      <trkpt lat="43.91114" lon="7.56138">
        <ele>1162.4427072608</ele>
        <time>2021-11-02T13:23:37Z</time>
      </trkpt>
      <trkpt lat="43.91113" lon="7.56139">
        <ele>1162.442762376</ele>
        <time>2021-11-02T13:23:39Z</time>
      </trkpt>
      <trkpt lat="43.91112" lon="7.56139">
        <ele>1162.4428001358</ele>
        <time>2021-11-02T13:23:40Z</time>
      </trkpt>
      <trkpt lat="43.91112" lon="7.56139">
        <ele>1162.4428182035</ele>
        <time>2021-11-02T13:23:42Z</time>
      </trkpt>
      <trkpt lat="43.91112" lon="7.5614">
        <ele>1161.4428146737</ele>
        <time>2021-11-02T13:23:43Z</time>
      </trkpt>
      <trkpt lat="43.91113" lon="7.56141">
        <ele>1161.4428218521</ele>
        <time>2021-11-02T13:23:44Z</time>
      </trkpt>
      <trkpt lat="43.91112" lon="7.56142">
        <ele>1161.442855518</ele>
        <time>2021-11-02T13:23:46Z</time>
      </trkpt>
      <trkpt lat="43.91112" lon="7.56143">
        <ele>1161.4428498944</ele>
        <time>2021-11-02T13:23:47Z</time>
      </trkpt>
      <trkpt lat="43.91113" lon="7.56143">
        <ele>1161.4428562943</ele>
        <time>2021-11-02T13:23:48Z</time>
      </trkpt>
      <trkpt lat="43.91113" lon="7.56144">
        <ele>1162.4428627224</ele>
        <time>2021-11-02T13:23:49Z</time>
      </trkpt>
      <trkpt lat="43.91113" lon="7.56145">
        <ele>1163.442847346</ele>
        <time>2021-11-02T13:23:52Z</time>
      </trkpt>
      <trkpt lat="43.91115" lon="7.56147">
        <ele>1163.4427930886</ele>
        <time>2021-11-02T13:23:54Z</time>
      </trkpt>
      <trkpt lat="43.91116" lon="7.56148">
        <ele>1163.4427350132</ele>
        <time>2021-11-02T13:23:56Z</time>
      </trkpt>
      <trkpt lat="43.91116" lon="7.56148">
        <ele>1163.4427350132</ele>
        <time>2021-11-02T13:23:57Z</time>
      </trkpt>
      <trkpt lat="43.91117" lon="7.56151">
        <ele>1164.442730225</ele>
        <time>2021-11-02T13:23:59Z</time>
      </trkpt>
      <trkpt lat="43.91117" lon="7.56152">
        <ele>1165.4427632453</ele>
        <time>2021-11-02T13:24:01Z</time>
      </trkpt>
      <trkpt lat="43.91118" lon="7.56153">
        <ele>1165.4427447183</ele>
        <time>2021-11-02T13:24:03Z</time>
      </trkpt>
      <trkpt lat="43.91118" lon="7.56153">
        <ele>1165.4427251284</ele>
        <time>2021-11-02T13:24:06Z</time>
      </trkpt>
      <trkpt lat="43.91117" lon="7.56155">
        <ele>1165.4427800899</ele>
        <time>2021-11-02T13:24:07Z</time>
      </trkpt>
      <trkpt lat="43.91117" lon="7.56155">
        <ele>1165.4428230252</ele>
        <time>2021-11-02T13:24:08Z</time>
      </trkpt>
      <trkpt lat="43.91115" lon="7.56155">
        <ele>1163.4428926156</ele>
        <time>2021-11-02T13:24:09Z</time>
      </trkpt>
      <trkpt lat="43.91114" lon="7.56156">
        <ele>1163.4429354073</ele>
        <time>2021-11-02T13:24:10Z</time>
      </trkpt>
      <trkpt lat="43.91114" lon="7.56156">
        <ele>1163.4429643537</ele>
        <time>2021-11-02T13:24:11Z</time>
      </trkpt>
      <trkpt lat="43.91113" lon="7.56155">
        <ele>1163.4429979945</ele>
        <time>2021-11-02T13:24:12Z</time>
      </trkpt>
      <trkpt lat="43.91112" lon="7.56155">
        <ele>1163.443033051</ele>
        <time>2021-11-02T13:24:13Z</time>
      </trkpt>
      <trkpt lat="43.91112" lon="7.56154">
        <ele>1162.4430574462</ele>
        <time>2021-11-02T13:24:14Z</time>
      </trkpt>
      <trkpt lat="43.91111" lon="7.56153">
        <ele>1162.4430749169</ele>
        <time>2021-11-02T13:24:18Z</time>
      </trkpt>
      <trkpt lat="43.9111" lon="7.56153">
        <ele>1161.4431102016</ele>
        <time>2021-11-02T13:24:20Z</time>
      </trkpt>
      <trkpt lat="43.9111" lon="7.56152">
        <ele>1161.4431347979</ele>
        <time>2021-11-02T13:24:21Z</time>
      </trkpt>
      <trkpt lat="43.91109" lon="7.56152">
        <ele>1162.4431722592</ele>
        <time>2021-11-02T13:24:22Z</time>
      </trkpt>
      <trkpt lat="43.91107" lon="7.56151">
        <ele>1160.4432605944</ele>
        <time>2021-11-02T13:24:24Z</time>
      </trkpt>
      <trkpt lat="43.91107" lon="7.56151">
        <ele>1160.443267788</ele>
        <time>2021-11-02T13:24:25Z</time>
      </trkpt>
      <trkpt lat="43.91106" lon="7.56151">
        <ele>1160.4433075375</ele>
        <time>2021-11-02T13:24:27Z</time>
      </trkpt>
      <trkpt lat="43.91104" lon="7.56151">
        <ele>1160.4433785845</ele>
        <time>2021-11-02T13:24:29Z</time>
      </trkpt>
      <trkpt lat="43.91103" lon="7.56152">
        <ele>1159.4434687592</ele>
        <time>2021-11-02T13:24:31Z</time>
      </trkpt>
      <trkpt lat="43.91102" lon="7.56153">
        <ele>1160.4435210682</ele>
        <time>2021-11-02T13:24:32Z</time>
      </trkpt>
      <trkpt lat="43.91101" lon="7.56153">
        <ele>1160.4435789017</ele>
        <time>2021-11-02T13:24:33Z</time>
      </trkpt>
      <trkpt lat="43.911" lon="7.56153">
        <ele>1160.4436483745</ele>
        <time>2021-11-02T13:24:34Z</time>
      </trkpt>
      <trkpt lat="43.91098" lon="7.56153">
        <ele>1160.4437066867</ele>
        <time>2021-11-02T13:24:36Z</time>
      </trkpt>
      <trkpt lat="43.91098" lon="7.56154">
        <ele>1160.4437205353</ele>
        <time>2021-11-02T13:24:37Z</time>
      </trkpt>
      <trkpt lat="43.91098" lon="7.56155">
        <ele>1159.4437476645</ele>
        <time>2021-11-02T13:24:43Z</time>
      </trkpt>
      <trkpt lat="43.91098" lon="7.56158">
        <ele>1159.4437891207</ele>
        <time>2021-11-02T13:24:45Z</time>
      </trkpt>
      <trkpt lat="43.91098" lon="7.56158">
        <ele>1158.4437924932</ele>
        <time>2021-11-02T13:24:49Z</time>
      </trkpt>
      <trkpt lat="43.91098" lon="7.56161">
        <ele>1158.4438260396</ele>
        <time>2021-11-02T13:24:51Z</time>
      </trkpt>
      <trkpt lat="43.91098" lon="7.56162">
        <ele>1158.4438272018</ele>
        <time>2021-11-02T13:24:52Z</time>
      </trkpt>
      <trkpt lat="43.91098" lon="7.56163">
        <ele>1158.4438389907</ele>
        <time>2021-11-02T13:24:56Z</time>
      </trkpt>
      <trkpt lat="43.91098" lon="7.56164">
        <ele>1157.4438515557</ele>
        <time>2021-11-02T13:24:58Z</time>
      </trkpt>
      <trkpt lat="43.91097" lon="7.56163">
        <ele>1157.4438869925</ele>
        <time>2021-11-02T13:25:00Z</time>
      </trkpt>
      <trkpt lat="43.91097" lon="7.56162">
        <ele>1156.4438996796</ele>
        <time>2021-11-02T13:25:02Z</time>
      </trkpt>
      <trkpt lat="43.91097" lon="7.5616">
        <ele>1156.4438882472</ele>
        <time>2021-11-02T13:25:04Z</time>
      </trkpt>
      <trkpt lat="43.91096" lon="7.5616">
        <ele>1158.443901052</ele>
        <time>2021-11-02T13:25:06Z</time>
      </trkpt>
      <trkpt lat="43.91096" lon="7.56159">
        <ele>1158.4439131993</ele>
        <time>2021-11-02T13:25:26Z</time>
      </trkpt>
      <trkpt lat="43.91095" lon="7.56156">
        <ele>1160.4439321993</ele>
        <time>2021-11-02T13:25:27Z</time>
      </trkpt>
      <trkpt lat="43.91094" lon="7.56155">
        <ele>1161.4439475052</ele>
        <time>2021-11-02T13:25:29Z</time>
      </trkpt>
      <trkpt lat="43.91094" lon="7.56154">
        <ele>1162.4439616126</ele>
        <time>2021-11-02T13:25:31Z</time>
      </trkpt>
      <trkpt lat="43.91094" lon="7.56154">
        <ele>1162.4439616126</ele>
        <time>2021-11-02T13:25:32Z</time>
      </trkpt>
      <trkpt lat="43.91093" lon="7.56153">
        <ele>1163.4439818645</ele>
        <time>2021-11-02T13:25:33Z</time>
      </trkpt>
      <trkpt lat="43.91093" lon="7.56153">
        <ele>1163.4439718663</ele>
        <time>2021-11-02T13:25:39Z</time>
      </trkpt>
      <trkpt lat="43.91091" lon="7.56152">
        <ele>1162.4440572381</ele>
        <time>2021-11-02T13:25:41Z</time>
      </trkpt>
      <trkpt lat="43.9109" lon="7.56152">
        <ele>1161.4441000612</ele>
        <time>2021-11-02T13:25:42Z</time>
      </trkpt>
      <trkpt lat="43.91089" lon="7.56153">
        <ele>1161.4441489751</ele>
        <time>2021-11-02T13:25:43Z</time>
      </trkpt>
      <trkpt lat="43.91089" lon="7.56153">
        <ele>1161.4441489751</ele>
        <time>2021-11-02T13:25:45Z</time>
      </trkpt>
      <trkpt lat="43.91087" lon="7.56153">
        <ele>1160.444293455</ele>
        <time>2021-11-02T13:25:46Z</time>
      </trkpt>
      <trkpt lat="43.91086" lon="7.56153">
        <ele>1160.4443278265</ele>
        <time>2021-11-02T13:25:55Z</time>
      </trkpt>
      <trkpt lat="43.91086" lon="7.56154">
        <ele>1160.4443474831</ele>
        <time>2021-11-02T13:25:57Z</time>
      </trkpt>
      <trkpt lat="43.91086" lon="7.56155">
        <ele>1160.4443511168</ele>
        <time>2021-11-02T13:26:01Z</time>
      </trkpt>
      <trkpt lat="43.91086" lon="7.56157">
        <ele>1160.4443529667</ele>
        <time>2021-11-02T13:26:02Z</time>
      </trkpt>
      <trkpt lat="43.91086" lon="7.56157">
        <ele>1160.4443554492</ele>
        <time>2021-11-02T13:26:03Z</time>
      </trkpt>
      <trkpt lat="43.91087" lon="7.56156">
        <ele>1159.444294756</ele>
        <time>2021-11-02T13:26:05Z</time>
      </trkpt>
      <trkpt lat="43.91087" lon="7.56156">
        <ele>1159.4443193284</ele>
        <time>2021-11-02T13:26:07Z</time>
      </trkpt>
      <trkpt lat="43.91086" lon="7.56155">
        <ele>1159.444341717</ele>
        <time>2021-11-02T13:26:09Z</time>
      </trkpt>
      <trkpt lat="43.91086" lon="7.56153">
        <ele>1159.444344751</ele>
        <time>2021-11-02T13:26:11Z</time>
      </trkpt>
      <trkpt lat="43.91085" lon="7.56153">
        <ele>1160.4443500195</ele>
        <time>2021-11-02T13:26:15Z</time>
      </trkpt>
      <trkpt lat="43.91083" lon="7.56152">
        <ele>1160.444437478</ele>
        <time>2021-11-02T13:26:16Z</time>
      </trkpt>
      <trkpt lat="43.91083" lon="7.56152">
        <ele>1161.4444409805</ele>
        <time>2021-11-02T13:26:17Z</time>
      </trkpt>
      <trkpt lat="43.91083" lon="7.56151">
        <ele>1161.4444613748</ele>
        <time>2021-11-02T13:26:18Z</time>
      </trkpt>
      <trkpt lat="43.91082" lon="7.5615">
        <ele>1161.4444581243</ele>
        <time>2021-11-02T13:26:21Z</time>
      </trkpt>
      <trkpt lat="43.91081" lon="7.56148">
        <ele>1162.444490975</ele>
        <time>2021-11-02T13:26:22Z</time>
      </trkpt>
      <trkpt lat="43.91081" lon="7.56147">
        <ele>1161.4444867147</ele>
        <time>2021-11-02T13:26:23Z</time>
      </trkpt>
      <trkpt lat="43.91081" lon="7.56146">
        <ele>1161.4444765665</ele>
        <time>2021-11-02T13:26:24Z</time>
      </trkpt>
      <trkpt lat="43.91081" lon="7.56144">
        <ele>1161.4444553543</ele>
        <time>2021-11-02T13:26:25Z</time>
      </trkpt>
      <trkpt lat="43.91081" lon="7.56142">
        <ele>1162.4444381336</ele>
        <time>2021-11-02T13:26:26Z</time>
      </trkpt>
      <trkpt lat="43.91081" lon="7.56141">
        <ele>1161.4443906724</ele>
        <time>2021-11-02T13:26:27Z</time>
      </trkpt>
      <trkpt lat="43.91082" lon="7.56139">
        <ele>1161.4443205918</ele>
        <time>2021-11-02T13:26:29Z</time>
      </trkpt>
      <trkpt lat="43.91083" lon="7.56138">
        <ele>1162.4442796537</ele>
        <time>2021-11-02T13:26:31Z</time>
      </trkpt>
      <trkpt lat="43.91082" lon="7.56137">
        <ele>1163.4442771468</ele>
        <time>2021-11-02T13:26:32Z</time>
      </trkpt>
      <trkpt lat="43.91082" lon="7.56137">
        <ele>1163.4443013722</ele>
        <time>2021-11-02T13:26:34Z</time>
      </trkpt>
      <trkpt lat="43.91081" lon="7.56136">
        <ele>1164.4443123119</ele>
        <time>2021-11-02T13:26:37Z</time>
      </trkpt>
      <trkpt lat="43.9108" lon="7.56137">
        <ele>1162.4444093523</ele>
        <time>2021-11-02T13:26:38Z</time>
      </trkpt>
      <trkpt lat="43.91079" lon="7.56137">
        <ele>1162.4444511967</ele>
        <time>2021-11-02T13:26:39Z</time>
      </trkpt>
      <trkpt lat="43.91078" lon="7.56139">
        <ele>1162.4445177583</ele>
        <time>2021-11-02T13:26:41Z</time>
      </trkpt>
      <trkpt lat="43.91077" lon="7.56139">
        <ele>1162.4445423125</ele>
        <time>2021-11-02T13:26:42Z</time>
      </trkpt>
      <trkpt lat="43.91077" lon="7.56139">
        <ele>1161.4445946625</ele>
        <time>2021-11-02T13:26:43Z</time>
      </trkpt>
      <trkpt lat="43.91077" lon="7.56139">
        <ele>1161.4445946625</ele>
        <time>2021-11-02T13:26:45Z</time>
      </trkpt>
      <trkpt lat="43.91075" lon="7.5614">
        <ele>1163.4446579923</ele>
        <time>2021-11-02T13:26:46Z</time>
      </trkpt>
      <trkpt lat="43.91075" lon="7.56141">
        <ele>1164.4446905499</ele>
        <time>2021-11-02T13:26:47Z</time>
      </trkpt>
      <trkpt lat="43.91075" lon="7.56143">
        <ele>1164.4447393849</ele>
        <time>2021-11-02T13:26:49Z</time>
      </trkpt>
      <trkpt lat="43.91075" lon="7.56144">
        <ele>1164.444757849</ele>
        <time>2021-11-02T13:26:52Z</time>
      </trkpt>
      <trkpt lat="43.91075" lon="7.56146">
        <ele>1163.444784695</ele>
        <time>2021-11-02T13:26:53Z</time>
      </trkpt>
      <trkpt lat="43.91073" lon="7.56146">
        <ele>1162.444846568</ele>
        <time>2021-11-02T13:26:55Z</time>
      </trkpt>
      <trkpt lat="43.91073" lon="7.56146">
        <ele>1162.4448480072</ele>
        <time>2021-11-02T13:26:57Z</time>
      </trkpt>
      <trkpt lat="43.91072" lon="7.56146">
        <ele>1161.4449354191</ele>
        <time>2021-11-02T13:26:58Z</time>
      </trkpt>
      <trkpt lat="43.91069" lon="7.56146">
        <ele>1161.4450486324</ele>
        <time>2021-11-02T13:27:00Z</time>
      </trkpt>
      <trkpt lat="43.91069" lon="7.56146">
        <ele>1161.4450830466</ele>
        <time>2021-11-02T13:27:01Z</time>
      </trkpt>
      <trkpt lat="43.91068" lon="7.56146">
        <ele>1160.4451210694</ele>
        <time>2021-11-02T13:27:03Z</time>
      </trkpt>
      <trkpt lat="43.91066" lon="7.56146">
        <ele>1160.4451912362</ele>
        <time>2021-11-02T13:27:04Z</time>
      </trkpt>
      <trkpt lat="43.91066" lon="7.56145">
        <ele>1159.445200841</ele>
        <time>2021-11-02T13:27:07Z</time>
      </trkpt>
      <trkpt lat="43.91066" lon="7.56145">
        <ele>1160.4452061551</ele>
        <time>2021-11-02T13:27:11Z</time>
      </trkpt>
      <trkpt lat="43.91066" lon="7.56146">
        <ele>1161.4451912185</ele>
        <time>2021-11-02T13:27:12Z</time>
      </trkpt>
      <trkpt lat="43.91067" lon="7.56147">
        <ele>1160.4451676324</ele>
        <time>2021-11-02T13:27:14Z</time>
      </trkpt>
      <trkpt lat="43.91067" lon="7.56148">
        <ele>1160.4451813052</ele>
        <time>2021-11-02T13:27:16Z</time>
      </trkpt>
      <trkpt lat="43.91067" lon="7.56148">
        <ele>1160.4451813052</ele>
        <time>2021-11-02T13:27:17Z</time>
      </trkpt>
      <trkpt lat="43.91068" lon="7.56151">
        <ele>1160.4451689189</ele>
        <time>2021-11-02T13:27:18Z</time>
      </trkpt>
      <trkpt lat="43.91069" lon="7.56152">
        <ele>1159.4451511652</ele>
        <time>2021-11-02T13:27:19Z</time>
      </trkpt>
      <trkpt lat="43.91069" lon="7.56152">
        <ele>1159.44516197</ele>
        <time>2021-11-02T13:27:20Z</time>
      </trkpt>
      <trkpt lat="43.91069" lon="7.56153">
        <ele>1158.4451791509</ele>
        <time>2021-11-02T13:27:23Z</time>
      </trkpt>
      <trkpt lat="43.9107" lon="7.56156">
        <ele>1158.4451824673</ele>
        <time>2021-11-02T13:27:25Z</time>
      </trkpt>
      <trkpt lat="43.9107" lon="7.56157">
        <ele>1158.4451806748</ele>
        <time>2021-11-02T13:27:26Z</time>
      </trkpt>
      <trkpt lat="43.9107" lon="7.56158">
        <ele>1159.445167312</ele>
        <time>2021-11-02T13:27:27Z</time>
      </trkpt>
      <trkpt lat="43.91071" lon="7.56159">
        <ele>1158.4451684406</ele>
        <time>2021-11-02T13:27:28Z</time>
      </trkpt>
      <trkpt lat="43.91071" lon="7.5616">
        <ele>1157.4451839216</ele>
        <time>2021-11-02T13:27:29Z</time>
      </trkpt>
      <trkpt lat="43.91071" lon="7.56162">
        <ele>1157.4451958833</ele>
        <time>2021-11-02T13:27:30Z</time>
      </trkpt>
      <trkpt lat="43.91071" lon="7.56162">
        <ele>1156.445189998</ele>
        <time>2021-11-02T13:27:33Z</time>
      </trkpt>
      <trkpt lat="43.91072" lon="7.56163">
        <ele>1156.4451347314</ele>
        <time>2021-11-02T13:27:34Z</time>
      </trkpt>
      <trkpt lat="43.91073" lon="7.56163">
        <ele>1156.445112967</ele>
        <time>2021-11-02T13:27:35Z</time>
      </trkpt>
      <trkpt lat="43.91074" lon="7.56165">
        <ele>1156.4450840214</ele>
        <time>2021-11-02T13:27:36Z</time>
      </trkpt>
      <trkpt lat="43.91074" lon="7.56165">
        <ele>1156.4450676037</ele>
        <time>2021-11-02T13:27:41Z</time>
      </trkpt>
      <trkpt lat="43.91074" lon="7.56167">
        <ele>1156.4450951376</ele>
        <time>2021-11-02T13:27:42Z</time>
      </trkpt>
      <trkpt lat="43.91074" lon="7.56167">
        <ele>1156.445124424</ele>
        <time>2021-11-02T13:27:43Z</time>
      </trkpt>
      <trkpt lat="43.91074" lon="7.56169">
        <ele>1156.4451181398</ele>
        <time>2021-11-02T13:27:45Z</time>
      </trkpt>
      <trkpt lat="43.91075" lon="7.56169">
        <ele>1156.4451199752</ele>
        <time>2021-11-02T13:27:47Z</time>
      </trkpt>
      <trkpt lat="43.91076" lon="7.56168">
        <ele>1156.4450569503</ele>
        <time>2021-11-02T13:27:49Z</time>
      </trkpt>
      <trkpt lat="43.91076" lon="7.56168">
        <ele>1156.4450304521</ele>
        <time>2021-11-02T13:27:52Z</time>
      </trkpt>
      <trkpt lat="43.91076" lon="7.56167">
        <ele>1156.4450078129</ele>
        <time>2021-11-02T13:27:53Z</time>
      </trkpt>
      <trkpt lat="43.91077" lon="7.56167">
        <ele>1156.4449769789</ele>
        <time>2021-11-02T13:27:58Z</time>
      </trkpt>
      <trkpt lat="43.91077" lon="7.56166">
        <ele>1158.4449753092</ele>
        <time>2021-11-02T13:28:01Z</time>
      </trkpt>
      <trkpt lat="43.91075" lon="7.56166">
        <ele>1157.4450326657</ele>
        <time>2021-11-02T13:28:02Z</time>
      </trkpt>
      <trkpt lat="43.91075" lon="7.56167">
        <ele>1158.4450680281</ele>
        <time>2021-11-02T13:28:04Z</time>
      </trkpt>
      <trkpt lat="43.91074" lon="7.56166">
        <ele>1158.4450908057</ele>
        <time>2021-11-02T13:28:06Z</time>
      </trkpt>
      <trkpt lat="43.91074" lon="7.56167">
        <ele>1158.4451151395</ele>
        <time>2021-11-02T13:28:07Z</time>
      </trkpt>
      <trkpt lat="43.91073" lon="7.56166">
        <ele>1158.4451497401</ele>
        <time>2021-11-02T13:28:08Z</time>
      </trkpt>
      <trkpt lat="43.91072" lon="7.56166">
        <ele>1159.4451748494</ele>
        <time>2021-11-02T13:28:09Z</time>
      </trkpt>
      <trkpt lat="43.91071" lon="7.56165">
        <ele>1159.4452146394</ele>
        <time>2021-11-02T13:28:10Z</time>
      </trkpt>
      <trkpt lat="43.91071" lon="7.56164">
        <ele>1158.4452440884</ele>
        <time>2021-11-02T13:28:11Z</time>
      </trkpt>
      <trkpt lat="43.9107" lon="7.56164">
        <ele>1158.4452729145</ele>
        <time>2021-11-02T13:28:12Z</time>
      </trkpt>
      <trkpt lat="43.91069" lon="7.56163">
        <ele>1158.4452931599</ele>
        <time>2021-11-02T13:28:14Z</time>
      </trkpt>
      <trkpt lat="43.91069" lon="7.56163">
        <ele>1158.4452931599</ele>
        <time>2021-11-02T13:28:15Z</time>
      </trkpt>
      <trkpt lat="43.91068" lon="7.56162">
        <ele>1156.4453449054</ele>
        <time>2021-11-02T13:28:16Z</time>
      </trkpt>
      <trkpt lat="43.91067" lon="7.56162">
        <ele>1156.4454008481</ele>
        <time>2021-11-02T13:28:17Z</time>
      </trkpt>
      <trkpt lat="43.91066" lon="7.56163">
        <ele>1154.4454757039</ele>
        <time>2021-11-02T13:28:19Z</time>
      </trkpt>
      <trkpt lat="43.91066" lon="7.56163">
        <ele>1154.4454757039</ele>
        <time>2021-11-02T13:28:21Z</time>
      </trkpt>
      <trkpt lat="43.91062" lon="7.56163">
        <ele>1153.4456494133</ele>
        <time>2021-11-02T13:28:22Z</time>
      </trkpt>
      <trkpt lat="43.91061" lon="7.56163">
        <ele>1152.445688541</ele>
        <time>2021-11-02T13:28:23Z</time>
      </trkpt>
      <trkpt lat="43.9106" lon="7.56162">
        <ele>1153.4457389728</ele>
        <time>2021-11-02T13:28:25Z</time>
      </trkpt>
      <trkpt lat="43.9106" lon="7.56162">
        <ele>1153.4457586933</ele>
        <time>2021-11-02T13:28:26Z</time>
      </trkpt>
      <trkpt lat="43.91059" lon="7.56162">
        <ele>1154.4457950621</ele>
        <time>2021-11-02T13:28:27Z</time>
      </trkpt>
      <trkpt lat="43.91058" lon="7.56162">
        <ele>1154.4458285605</ele>
        <time>2021-11-02T13:28:28Z</time>
      </trkpt>
      <trkpt lat="43.91057" lon="7.56162">
        <ele>1154.4458858035</ele>
        <time>2021-11-02T13:28:29Z</time>
      </trkpt>
      <trkpt lat="43.91056" lon="7.56162">
        <ele>1155.4459248082</ele>
        <time>2021-11-02T13:28:30Z</time>
      </trkpt>
      <trkpt lat="43.91056" lon="7.56162">
        <ele>1155.4459652183</ele>
        <time>2021-11-02T13:28:33Z</time>
      </trkpt>
      <trkpt lat="43.91054" lon="7.56161">
        <ele>1156.4460438308</ele>
        <time>2021-11-02T13:28:34Z</time>
      </trkpt>
      <trkpt lat="43.91053" lon="7.56161">
        <ele>1156.4460670619</ele>
        <time>2021-11-02T13:28:35Z</time>
      </trkpt>
      <trkpt lat="43.91053" lon="7.56161">
        <ele>1156.4460842951</ele>
        <time>2021-11-02T13:28:36Z</time>
      </trkpt>
      <trkpt lat="43.91053" lon="7.5616">
        <ele>1157.446089686</ele>
        <time>2021-11-02T13:28:39Z</time>
      </trkpt>
      <trkpt lat="43.91052" lon="7.56158">
        <ele>1156.4460620078</ele>
        <time>2021-11-02T13:28:40Z</time>
      </trkpt>
      <trkpt lat="43.91053" lon="7.56157">
        <ele>1156.4460402155</ele>
        <time>2021-11-02T13:28:41Z</time>
      </trkpt>
      <trkpt lat="43.91053" lon="7.56156">
        <ele>1156.4460295145</ele>
        <time>2021-11-02T13:28:42Z</time>
      </trkpt>
      <trkpt lat="43.91052" lon="7.56155">
        <ele>1155.4460200356</ele>
        <time>2021-11-02T13:28:45Z</time>
      </trkpt>
      <trkpt lat="43.91052" lon="7.56155">
        <ele>1156.4460614218</ele>
        <time>2021-11-02T13:28:51Z</time>
      </trkpt>
      <trkpt lat="43.9105" lon="7.56157">
        <ele>1157.4461659204</ele>
        <time>2021-11-02T13:28:52Z</time>
      </trkpt>
      <trkpt lat="43.91049" lon="7.56157">
        <ele>1157.4462049758</ele>
        <time>2021-11-02T13:28:53Z</time>
      </trkpt>
      <trkpt lat="43.91048" lon="7.56157">
        <ele>1156.4462705584</ele>
        <time>2021-11-02T13:28:54Z</time>
      </trkpt>
      <trkpt lat="43.91046" lon="7.56157">
        <ele>1157.4463876263</ele>
        <time>2021-11-02T13:28:56Z</time>
      </trkpt>
      <trkpt lat="43.91045" lon="7.56157">
        <ele>1157.4464217367</ele>
        <time>2021-11-02T13:28:57Z</time>
      </trkpt>
      <trkpt lat="43.91044" lon="7.56157">
        <ele>1157.4464742806</ele>
        <time>2021-11-02T13:28:58Z</time>
      </trkpt>
      <trkpt lat="43.91042" lon="7.56156">
        <ele>1157.4465412462</ele>
        <time>2021-11-02T13:28:59Z</time>
      </trkpt>
      <trkpt lat="43.91041" lon="7.56156">
        <ele>1156.446589714</ele>
        <time>2021-11-02T13:29:00Z</time>
      </trkpt>
      <trkpt lat="43.91041" lon="7.56154">
        <ele>1156.4465951099</ele>
        <time>2021-11-02T13:29:01Z</time>
      </trkpt>
      <trkpt lat="43.9104" lon="7.56154">
        <ele>1156.446615801</ele>
        <time>2021-11-02T13:29:02Z</time>
      </trkpt>
      <trkpt lat="43.9104" lon="7.56154">
        <ele>1157.4466457241</ele>
        <time>2021-11-02T13:29:03Z</time>
      </trkpt>
      <trkpt lat="43.91038" lon="7.56153">
        <ele>1157.446717626</ele>
        <time>2021-11-02T13:29:05Z</time>
      </trkpt>
      <trkpt lat="43.91037" lon="7.56153">
        <ele>1157.4467560769</ele>
        <time>2021-11-02T13:29:06Z</time>
      </trkpt>
      <trkpt lat="43.91036" lon="7.56153">
        <ele>1157.4467913802</ele>
        <time>2021-11-02T13:29:09Z</time>
      </trkpt>
      <trkpt lat="43.91035" lon="7.56153">
        <ele>1157.4468690515</ele>
        <time>2021-11-02T13:29:10Z</time>
      </trkpt>
      <trkpt lat="43.91034" lon="7.56152">
        <ele>1156.4469002725</ele>
        <time>2021-11-02T13:29:11Z</time>
      </trkpt>
      <trkpt lat="43.91033" lon="7.56153">
        <ele>1156.44693329</ele>
        <time>2021-11-02T13:29:12Z</time>
      </trkpt>
      <trkpt lat="43.91032" lon="7.56152">
        <ele>1156.4470057128</ele>
        <time>2021-11-02T13:29:13Z</time>
      </trkpt>
      <trkpt lat="43.9103" lon="7.56151">
        <ele>1156.44710409</ele>
        <time>2021-11-02T13:29:15Z</time>
      </trkpt>
      <trkpt lat="43.91029" lon="7.56151">
        <ele>1155.4471529254</ele>
        <time>2021-11-02T13:29:16Z</time>
      </trkpt>
      <trkpt lat="43.91028" lon="7.56151">
        <ele>1155.447174096</ele>
        <time>2021-11-02T13:29:17Z</time>
      </trkpt>
      <trkpt lat="43.91027" lon="7.5615">
        <ele>1154.4471935018</ele>
        <time>2021-11-02T13:29:18Z</time>
      </trkpt>
      <trkpt lat="43.91027" lon="7.56149">
        <ele>1154.4471952403</ele>
        <time>2021-11-02T13:29:19Z</time>
      </trkpt>
      <trkpt lat="43.91026" lon="7.56148">
        <ele>1155.4472524364</ele>
        <time>2021-11-02T13:29:21Z</time>
      </trkpt>
      <trkpt lat="43.91025" lon="7.56147">
        <ele>1156.4472807696</ele>
        <time>2021-11-02T13:29:22Z</time>
      </trkpt>
      <trkpt lat="43.91023" lon="7.56147">
        <ele>1156.4473515828</ele>
        <time>2021-11-02T13:29:24Z</time>
      </trkpt>
      <trkpt lat="43.91022" lon="7.56145">
        <ele>1157.4473804361</ele>
        <time>2021-11-02T13:29:26Z</time>
      </trkpt>
      <trkpt lat="43.91021" lon="7.56144">
        <ele>1157.4474081497</ele>
        <time>2021-11-02T13:29:27Z</time>
      </trkpt>
      <trkpt lat="43.91021" lon="7.56143">
        <ele>1157.4474401028</ele>
        <time>2021-11-02T13:29:28Z</time>
      </trkpt>
      <trkpt lat="43.9102" lon="7.56143">
        <ele>1158.4474697439</ele>
        <time>2021-11-02T13:29:29Z</time>
      </trkpt>
      <trkpt lat="43.91019" lon="7.56142">
        <ele>1158.4475267876</ele>
        <time>2021-11-02T13:29:31Z</time>
      </trkpt>
      <trkpt lat="43.91018" lon="7.56142">
        <ele>1159.4475686011</ele>
        <time>2021-11-02T13:29:32Z</time>
      </trkpt>
      <trkpt lat="43.91017" lon="7.56142">
        <ele>1158.4475953228</ele>
        <time>2021-11-02T13:29:33Z</time>
      </trkpt>
      <trkpt lat="43.91017" lon="7.56142">
        <ele>1159.4476159401</ele>
        <time>2021-11-02T13:29:34Z</time>
      </trkpt>
      <trkpt lat="43.91015" lon="7.56142">
        <ele>1159.4476777672</ele>
        <time>2021-11-02T13:29:35Z</time>
      </trkpt>
      <trkpt lat="43.91016" lon="7.56142">
        <ele>1158.4476775679</ele>
        <time>2021-11-02T13:29:43Z</time>
      </trkpt>
      <trkpt lat="43.91015" lon="7.56143">
        <ele>1158.4476997293</ele>
        <time>2021-11-02T13:29:46Z</time>
      </trkpt>
      <trkpt lat="43.91014" lon="7.56145">
        <ele>1159.4477844885</ele>
        <time>2021-11-02T13:29:47Z</time>
      </trkpt>
      <trkpt lat="43.91013" lon="7.56145">
        <ele>1159.4478300326</ele>
        <time>2021-11-02T13:29:48Z</time>
      </trkpt>
      <trkpt lat="43.91012" lon="7.56145">
        <ele>1159.4478681206</ele>
        <time>2021-11-02T13:29:49Z</time>
      </trkpt>
      <trkpt lat="43.91011" lon="7.56145">
        <ele>1159.4479705076</ele>
        <time>2021-11-02T13:29:51Z</time>
      </trkpt>
      <trkpt lat="43.9101" lon="7.56145">
        <ele>1160.4480110474</ele>
        <time>2021-11-02T13:29:52Z</time>
      </trkpt>
      <trkpt lat="43.91009" lon="7.56146">
        <ele>1160.4480515013</ele>
        <time>2021-11-02T13:29:53Z</time>
      </trkpt>
      <trkpt lat="43.91008" lon="7.56146">
        <ele>1159.4480862843</ele>
        <time>2021-11-02T13:29:54Z</time>
      </trkpt>
      <trkpt lat="43.91008" lon="7.56146">
        <ele>1159.4481224765</ele>
        <time>2021-11-02T13:29:55Z</time>
      </trkpt>
      <trkpt lat="43.91007" lon="7.56147">
        <ele>1159.448170783</ele>
        <time>2021-11-02T13:29:56Z</time>
      </trkpt>
      <trkpt lat="43.91006" lon="7.56147">
        <ele>1160.4482100508</ele>
        <time>2021-11-02T13:29:57Z</time>
      </trkpt>
      <trkpt lat="43.91006" lon="7.56148">
        <ele>1159.4482385656</ele>
        <time>2021-11-02T13:29:59Z</time>
      </trkpt>
      <trkpt lat="43.91006" lon="7.56149">
        <ele>1159.4482556495</ele>
        <time>2021-11-02T13:30:00Z</time>
      </trkpt>
      <trkpt lat="43.91006" lon="7.5615">
        <ele>1159.448276426</ele>
        <time>2021-11-02T13:30:01Z</time>
      </trkpt>
      <trkpt lat="43.91006" lon="7.56151">
        <ele>1159.4482715749</ele>
        <time>2021-11-02T13:30:02Z</time>
      </trkpt>
      <trkpt lat="43.91006" lon="7.56152">
        <ele>1158.4482981293</ele>
        <time>2021-11-02T13:30:03Z</time>
      </trkpt>
      <trkpt lat="43.91005" lon="7.56154">
        <ele>1158.4483531267</ele>
        <time>2021-11-02T13:30:05Z</time>
      </trkpt>
      <trkpt lat="43.91005" lon="7.56155">
        <ele>1158.4483960551</ele>
        <time>2021-11-02T13:30:06Z</time>
      </trkpt>
      <trkpt lat="43.91004" lon="7.56155">
        <ele>1158.4484560769</ele>
        <time>2021-11-02T13:30:07Z</time>
      </trkpt>
      <trkpt lat="43.91003" lon="7.56155">
        <ele>1159.448491986</ele>
        <time>2021-11-02T13:30:08Z</time>
      </trkpt>
      <trkpt lat="43.91002" lon="7.56155">
        <ele>1158.4485442318</ele>
        <time>2021-11-02T13:30:09Z</time>
      </trkpt>
      <trkpt lat="43.91001" lon="7.56155">
        <ele>1158.4485878284</ele>
        <time>2021-11-02T13:30:10Z</time>
      </trkpt>
      <trkpt lat="43.91" lon="7.56156">
        <ele>1158.4486283111</ele>
        <time>2021-11-02T13:30:12Z</time>
      </trkpt>
      <trkpt lat="43.91001" lon="7.56156">
        <ele>1158.4486019071</ele>
        <time>2021-11-02T13:30:14Z</time>
      </trkpt>
      <trkpt lat="43.91" lon="7.56158">
        <ele>1158.448665737</ele>
        <time>2021-11-02T13:30:16Z</time>
      </trkpt>
      <trkpt lat="43.91" lon="7.56158">
        <ele>1158.4486820095</ele>
        <time>2021-11-02T13:30:17Z</time>
      </trkpt>
      <trkpt lat="43.90999" lon="7.56158">
        <ele>1158.4487157173</ele>
        <time>2021-11-02T13:30:18Z</time>
      </trkpt>
      <trkpt lat="43.90997" lon="7.56158">
        <ele>1157.4488057427</ele>
        <time>2021-11-02T13:30:20Z</time>
      </trkpt>
      <trkpt lat="43.90997" lon="7.56158">
        <ele>1157.4488414654</ele>
        <time>2021-11-02T13:30:21Z</time>
      </trkpt>
      <trkpt lat="43.90996" lon="7.56158">
        <ele>1158.448877894</ele>
        <time>2021-11-02T13:30:22Z</time>
      </trkpt>
      <trkpt lat="43.90995" lon="7.56158">
        <ele>1159.4489339429</ele>
        <time>2021-11-02T13:30:23Z</time>
      </trkpt>
      <trkpt lat="43.90994" lon="7.56158">
        <ele>1159.4489732871</ele>
        <time>2021-11-02T13:30:24Z</time>
      </trkpt>
      <trkpt lat="43.90993" lon="7.56159">
        <ele>1158.4490230519</ele>
        <time>2021-11-02T13:30:26Z</time>
      </trkpt>
      <trkpt lat="43.90992" lon="7.56158">
        <ele>1158.449055991</ele>
        <time>2021-11-02T13:30:27Z</time>
      </trkpt>
      <trkpt lat="43.90992" lon="7.56157">
        <ele>1158.449072191</ele>
        <time>2021-11-02T13:30:28Z</time>
      </trkpt>
      <trkpt lat="43.90992" lon="7.56156">
        <ele>1158.4490439407</ele>
        <time>2021-11-02T13:30:30Z</time>
      </trkpt>
      <trkpt lat="43.90992" lon="7.56156">
        <ele>1158.4490662369</ele>
        <time>2021-11-02T13:30:32Z</time>
      </trkpt>
      <trkpt lat="43.90991" lon="7.56156">
        <ele>1158.449112123</ele>
        <time>2021-11-02T13:30:34Z</time>
      </trkpt>
      <trkpt lat="43.90991" lon="7.56155">
        <ele>1159.4491003256</ele>
        <time>2021-11-02T13:30:54Z</time>
      </trkpt>
      <trkpt lat="43.90992" lon="7.56156">
        <ele>1159.4490479002</ele>
        <time>2021-11-02T13:30:56Z</time>
      </trkpt>
      <trkpt lat="43.90991" lon="7.56156">
        <ele>1158.4490871288</ele>
        <time>2021-11-02T13:30:58Z</time>
      </trkpt>
      <trkpt lat="43.9099" lon="7.56156">
        <ele>1158.4491330808</ele>
        <time>2021-11-02T13:31:00Z</time>
      </trkpt>
      <trkpt lat="43.9099" lon="7.56156">
        <ele>1158.4491330808</ele>
        <time>2021-11-02T13:31:01Z</time>
      </trkpt>
      <trkpt lat="43.90989" lon="7.56155">
        <ele>1157.4491989693</ele>
        <time>2021-11-02T13:31:02Z</time>
      </trkpt>
      <trkpt lat="43.90988" lon="7.56154">
        <ele>1157.4492093508</ele>
        <time>2021-11-02T13:31:04Z</time>
      </trkpt>
      <trkpt lat="43.90988" lon="7.56152">
        <ele>1157.4491988164</ele>
        <time>2021-11-02T13:31:06Z</time>
      </trkpt>
      <trkpt lat="43.90987" lon="7.56151">
        <ele>1156.4492454007</ele>
        <time>2021-11-02T13:31:07Z</time>
      </trkpt>
      <trkpt lat="43.90987" lon="7.5615">
        <ele>1154.4492356676</ele>
        <time>2021-11-02T13:31:11Z</time>
      </trkpt>
      <trkpt lat="43.90987" lon="7.56147">
        <ele>1156.4491385543</ele>
        <time>2021-11-02T13:31:12Z</time>
      </trkpt>
      <trkpt lat="43.90987" lon="7.56146">
        <ele>1157.4491615864</ele>
        <time>2021-11-02T13:31:14Z</time>
      </trkpt>
      <trkpt lat="43.90986" lon="7.56145">
        <ele>1156.4491916078</ele>
        <time>2021-11-02T13:31:16Z</time>
      </trkpt>
      <trkpt lat="43.90985" lon="7.56145">
        <ele>1157.4492157801</ele>
        <time>2021-11-02T13:31:17Z</time>
      </trkpt>
      <trkpt lat="43.90985" lon="7.56144">
        <ele>1157.4492285088</ele>
        <time>2021-11-02T13:31:18Z</time>
      </trkpt>
      <trkpt lat="43.90984" lon="7.56145">
        <ele>1159.4492751023</ele>
        <time>2021-11-02T13:31:21Z</time>
      </trkpt>
      <trkpt lat="43.90984" lon="7.56144">
        <ele>1159.4493009212</ele>
        <time>2021-11-02T13:31:23Z</time>
      </trkpt>
      <trkpt lat="43.90983" lon="7.56144">
        <ele>1159.4493061951</ele>
        <time>2021-11-02T13:31:26Z</time>
      </trkpt>
      <trkpt lat="43.90983" lon="7.56143">
        <ele>1159.4493147786</ele>
        <time>2021-11-02T13:31:27Z</time>
      </trkpt>
      <trkpt lat="43.90982" lon="7.56143">
        <ele>1158.4493519619</ele>
        <time>2021-11-02T13:31:28Z</time>
      </trkpt>
      <trkpt lat="43.90981" lon="7.56142">
        <ele>1158.4494229468</ele>
        <time>2021-11-02T13:31:30Z</time>
      </trkpt>
      <trkpt lat="43.9098" lon="7.56141">
        <ele>1157.4494300722</ele>
        <time>2021-11-02T13:31:31Z</time>
      </trkpt>
      <trkpt lat="43.9098" lon="7.56141">
        <ele>1158.4494456298</ele>
        <time>2021-11-02T13:31:32Z</time>
      </trkpt>
      <trkpt lat="43.90979" lon="7.56141">
        <ele>1158.4494739508</ele>
        <time>2021-11-02T13:31:34Z</time>
      </trkpt>
      <trkpt lat="43.90978" lon="7.56141">
        <ele>1158.4495326668</ele>
        <time>2021-11-02T13:31:36Z</time>
      </trkpt>
      <trkpt lat="43.90978" lon="7.56142">
        <ele>1158.4495591458</ele>
        <time>2021-11-02T13:31:38Z</time>
      </trkpt>
      <trkpt lat="43.90978" lon="7.56143">
        <ele>1158.4495746224</ele>
        <time>2021-11-02T13:31:39Z</time>
      </trkpt>
      <trkpt lat="43.90977" lon="7.56142">
        <ele>1158.4496031396</ele>
        <time>2021-11-02T13:31:40Z</time>
      </trkpt>
      <trkpt lat="43.90976" lon="7.56142">
        <ele>1157.4496367531</ele>
        <time>2021-11-02T13:31:41Z</time>
      </trkpt>
      <trkpt lat="43.90976" lon="7.56143">
        <ele>1158.4496729229</ele>
        <time>2021-11-02T13:31:45Z</time>
      </trkpt>
      <trkpt lat="43.90975" lon="7.56144">
        <ele>1158.4497362543</ele>
        <time>2021-11-02T13:31:46Z</time>
      </trkpt>
      <trkpt lat="43.90974" lon="7.56145">
        <ele>1158.4497883215</ele>
        <time>2021-11-02T13:31:47Z</time>
      </trkpt>
      <trkpt lat="43.90974" lon="7.56146">
        <ele>1157.4498100973</ele>
        <time>2021-11-02T13:31:48Z</time>
      </trkpt>
      <trkpt lat="43.90973" lon="7.56146">
        <ele>1157.4498396412</ele>
        <time>2021-11-02T13:31:49Z</time>
      </trkpt>
      <trkpt lat="43.90973" lon="7.56147">
        <ele>1157.4498817985</ele>
        <time>2021-11-02T13:31:50Z</time>
      </trkpt>
      <trkpt lat="43.90972" lon="7.56147">
        <ele>1157.4499043942</ele>
        <time>2021-11-02T13:31:51Z</time>
      </trkpt>
      <trkpt lat="43.90972" lon="7.56148">
        <ele>1157.4499444892</ele>
        <time>2021-11-02T13:31:52Z</time>
      </trkpt>
      <trkpt lat="43.90971" lon="7.56148">
        <ele>1158.4499771087</ele>
        <time>2021-11-02T13:31:53Z</time>
      </trkpt>
      <trkpt lat="43.90971" lon="7.56149">
        <ele>1157.4500152898</ele>
        <time>2021-11-02T13:31:55Z</time>
      </trkpt>
      <trkpt lat="43.9097" lon="7.56149">
        <ele>1156.4500333771</ele>
        <time>2021-11-02T13:31:56Z</time>
      </trkpt>
      <trkpt lat="43.9097" lon="7.5615">
        <ele>1156.4500702067</ele>
        <time>2021-11-02T13:32:03Z</time>
      </trkpt>
      <trkpt lat="43.9097" lon="7.56155">
        <ele>1155.4501409207</ele>
        <time>2021-11-02T13:32:05Z</time>
      </trkpt>
      <trkpt lat="43.90969" lon="7.56157">
        <ele>1155.4502094028</ele>
        <time>2021-11-02T13:32:06Z</time>
      </trkpt>
      <trkpt lat="43.90969" lon="7.56158">
        <ele>1155.4502226682</ele>
        <time>2021-11-02T13:32:07Z</time>
      </trkpt>
      <trkpt lat="43.90969" lon="7.56158">
        <ele>1155.4502356763</ele>
        <time>2021-11-02T13:32:08Z</time>
      </trkpt>
      <trkpt lat="43.90969" lon="7.5616">
        <ele>1155.4502779931</ele>
        <time>2021-11-02T13:32:10Z</time>
      </trkpt>
      <trkpt lat="43.90968" lon="7.56162">
        <ele>1155.4503085321</ele>
        <time>2021-11-02T13:32:12Z</time>
      </trkpt>
      <trkpt lat="43.90968" lon="7.56163">
        <ele>1156.4503238485</ele>
        <time>2021-11-02T13:32:13Z</time>
      </trkpt>
      <trkpt lat="43.90969" lon="7.56163">
        <ele>1156.4502991232</ele>
        <time>2021-11-02T13:32:14Z</time>
      </trkpt>
      <trkpt lat="43.9097" lon="7.56163">
        <ele>1155.450235567</ele>
        <time>2021-11-02T13:32:16Z</time>
      </trkpt>
      <trkpt lat="43.9097" lon="7.56164">
        <ele>1156.450244806</ele>
        <time>2021-11-02T13:32:21Z</time>
      </trkpt>
      <trkpt lat="43.9097" lon="7.56165">
        <ele>1156.4502817885</ele>
        <time>2021-11-02T13:32:22Z</time>
      </trkpt>
      <trkpt lat="43.90968" lon="7.56166">
        <ele>1156.4503670075</ele>
        <time>2021-11-02T13:32:23Z</time>
      </trkpt>
      <trkpt lat="43.90967" lon="7.56165">
        <ele>1155.4504247481</ele>
        <time>2021-11-02T13:32:25Z</time>
      </trkpt>
      <trkpt lat="43.90967" lon="7.56165">
        <ele>1155.4504309387</ele>
        <time>2021-11-02T13:32:26Z</time>
      </trkpt>
      <trkpt lat="43.90966" lon="7.56164">
        <ele>1154.4504580961</ele>
        <time>2021-11-02T13:32:27Z</time>
      </trkpt>
      <trkpt lat="43.90964" lon="7.56165">
        <ele>1153.4505494792</ele>
        <time>2021-11-02T13:32:29Z</time>
      </trkpt>
      <trkpt lat="43.90965" lon="7.56167">
        <ele>1152.450544142</ele>
        <time>2021-11-02T13:32:31Z</time>
      </trkpt>
      <trkpt lat="43.90965" lon="7.56167">
        <ele>1151.4505687251</ele>
        <time>2021-11-02T13:32:33Z</time>
      </trkpt>
      <trkpt lat="43.90965" lon="7.56166">
        <ele>1151.4505549131</ele>
        <time>2021-11-02T13:32:35Z</time>
      </trkpt>
      <trkpt lat="43.90964" lon="7.56165">
        <ele>1151.4505487224</ele>
        <time>2021-11-02T13:32:36Z</time>
      </trkpt>
      <trkpt lat="43.90964" lon="7.56165">
        <ele>1153.4505903124</ele>
        <time>2021-11-02T13:32:41Z</time>
      </trkpt>
      <trkpt lat="43.90963" lon="7.56166">
        <ele>1152.4506218169</ele>
        <time>2021-11-02T13:32:42Z</time>
      </trkpt>
      <trkpt lat="43.90963" lon="7.56166">
        <ele>1153.4506557088</ele>
        <time>2021-11-02T13:32:43Z</time>
      </trkpt>
      <trkpt lat="43.90963" lon="7.56167">
        <ele>1153.4506653668</ele>
        <time>2021-11-02T13:32:47Z</time>
      </trkpt>
      <trkpt lat="43.90963" lon="7.56168">
        <ele>1153.4506576642</ele>
        <time>2021-11-02T13:32:48Z</time>
      </trkpt>
      <trkpt lat="43.90962" lon="7.56169">
        <ele>1153.4507126716</ele>
        <time>2021-11-02T13:32:50Z</time>
      </trkpt>
      <trkpt lat="43.90962" lon="7.5617">
        <ele>1152.4507179664</ele>
        <time>2021-11-02T13:32:52Z</time>
      </trkpt>
      <trkpt lat="43.90963" lon="7.56172">
        <ele>1153.4507414835</ele>
        <time>2021-11-02T13:32:54Z</time>
      </trkpt>
      <trkpt lat="43.90962" lon="7.56173">
        <ele>1154.4507591545</ele>
        <time>2021-11-02T13:32:56Z</time>
      </trkpt>
      <trkpt lat="43.90963" lon="7.56174">
        <ele>1154.4507508351</ele>
        <time>2021-11-02T13:32:57Z</time>
      </trkpt>
      <trkpt lat="43.90963" lon="7.56174">
        <ele>1153.4507326954</ele>
        <time>2021-11-02T13:32:58Z</time>
      </trkpt>
      <trkpt lat="43.90964" lon="7.56175">
        <ele>1153.4506963132</ele>
        <time>2021-11-02T13:32:59Z</time>
      </trkpt>
      <trkpt lat="43.90965" lon="7.56174">
        <ele>1153.4506726834</ele>
        <time>2021-11-02T13:33:01Z</time>
      </trkpt>
      <trkpt lat="43.90964" lon="7.56173">
        <ele>1154.4506701055</ele>
        <time>2021-11-02T13:33:03Z</time>
      </trkpt>
      <trkpt lat="43.90965" lon="7.56173">
        <ele>1154.4506508717</ele>
        <time>2021-11-02T13:33:05Z</time>
      </trkpt>
      <trkpt lat="43.90965" lon="7.56173">
        <ele>1154.4506248003</ele>
        <time>2021-11-02T13:33:06Z</time>
      </trkpt>
      <trkpt lat="43.90966" lon="7.56173">
        <ele>1154.450590213</ele>
        <time>2021-11-02T13:33:07Z</time>
      </trkpt>
      <trkpt lat="43.90967" lon="7.56175">
        <ele>1154.4505780731</ele>
        <time>2021-11-02T13:33:09Z</time>
      </trkpt>
      <trkpt lat="43.90966" lon="7.56176">
        <ele>1154.4506133493</ele>
        <time>2021-11-02T13:33:10Z</time>
      </trkpt>
      <trkpt lat="43.90967" lon="7.56177">
        <ele>1154.450611997</ele>
        <time>2021-11-02T13:33:14Z</time>
      </trkpt>
      <trkpt lat="43.90966" lon="7.56181">
        <ele>1152.4506945365</ele>
        <time>2021-11-02T13:33:16Z</time>
      </trkpt>
      <trkpt lat="43.90966" lon="7.56182">
        <ele>1150.4506927308</ele>
        <time>2021-11-02T13:33:17Z</time>
      </trkpt>
      <trkpt lat="43.90967" lon="7.56182">
        <ele>1150.450681762</ele>
        <time>2021-11-02T13:33:18Z</time>
      </trkpt>
      <trkpt lat="43.90967" lon="7.56183">
        <ele>1150.4506741551</ele>
        <time>2021-11-02T13:33:19Z</time>
      </trkpt>
      <trkpt lat="43.90968" lon="7.56184">
        <ele>1150.4506647547</ele>
        <time>2021-11-02T13:33:21Z</time>
      </trkpt>
      <trkpt lat="43.90967" lon="7.56185">
        <ele>1151.4506885147</ele>
        <time>2021-11-02T13:33:22Z</time>
      </trkpt>
      <trkpt lat="43.90967" lon="7.56187">
        <ele>1151.450729779</ele>
        <time>2021-11-02T13:33:23Z</time>
      </trkpt>
      <trkpt lat="43.90967" lon="7.56187">
        <ele>1152.4507533403</ele>
        <time>2021-11-02T13:33:24Z</time>
      </trkpt>
      <trkpt lat="43.90966" lon="7.56188">
        <ele>1151.4508019434</ele>
        <time>2021-11-02T13:33:25Z</time>
      </trkpt>
      <trkpt lat="43.90966" lon="7.56189">
        <ele>1151.4507938232</ele>
        <time>2021-11-02T13:33:26Z</time>
      </trkpt>
      <trkpt lat="43.90966" lon="7.5619">
        <ele>1152.4508118172</ele>
        <time>2021-11-02T13:33:27Z</time>
      </trkpt>
      <trkpt lat="43.90966" lon="7.5619">
        <ele>1152.4508296992</ele>
        <time>2021-11-02T13:33:28Z</time>
      </trkpt>
      <trkpt lat="43.90964" lon="7.56192">
        <ele>1153.4509445965</ele>
        <time>2021-11-02T13:33:30Z</time>
      </trkpt>
      <trkpt lat="43.90963" lon="7.56192">
        <ele>1153.4510003129</ele>
        <time>2021-11-02T13:33:31Z</time>
      </trkpt>
      <trkpt lat="43.90962" lon="7.56192">
        <ele>1152.4510586355</ele>
        <time>2021-11-02T13:33:32Z</time>
      </trkpt>
      <trkpt lat="43.90962" lon="7.56193">
        <ele>1152.4510983041</ele>
        <time>2021-11-02T13:33:33Z</time>
      </trkpt>
      <trkpt lat="43.90962" lon="7.56194">
        <ele>1152.4511171212</ele>
        <time>2021-11-02T13:33:34Z</time>
      </trkpt>
      <trkpt lat="43.90962" lon="7.56196">
        <ele>1152.4511169754</ele>
        <time>2021-11-02T13:33:36Z</time>
      </trkpt>
      <trkpt lat="43.90963" lon="7.56197">
        <ele>1152.4510923916</ele>
        <time>2021-11-02T13:33:37Z</time>
      </trkpt>
      <trkpt lat="43.90963" lon="7.56199">
        <ele>1153.4510962042</ele>
        <time>2021-11-02T13:33:38Z</time>
      </trkpt>
      <trkpt lat="43.90964" lon="7.562">
        <ele>1152.4511053897</ele>
        <time>2021-11-02T13:33:40Z</time>
      </trkpt>
      <trkpt lat="43.90964" lon="7.56201">
        <ele>1152.4511118483</ele>
        <time>2021-11-02T13:33:41Z</time>
      </trkpt>
      <trkpt lat="43.90963" lon="7.56202">
        <ele>1152.4511343631</ele>
        <time>2021-11-02T13:33:42Z</time>
      </trkpt>
      <trkpt lat="43.90964" lon="7.56202">
        <ele>1152.4511319997</ele>
        <time>2021-11-02T13:33:43Z</time>
      </trkpt>
      <trkpt lat="43.90964" lon="7.56203">
        <ele>1152.4511335365</ele>
        <time>2021-11-02T13:33:44Z</time>
      </trkpt>
      <trkpt lat="43.90964" lon="7.56204">
        <ele>1153.4511459199</ele>
        <time>2021-11-02T13:33:46Z</time>
      </trkpt>
      <trkpt lat="43.90964" lon="7.56205">
        <ele>1153.4511680935</ele>
        <time>2021-11-02T13:33:47Z</time>
      </trkpt>
      <trkpt lat="43.90962" lon="7.56206">
        <ele>1154.4512510049</ele>
        <time>2021-11-02T13:33:48Z</time>
      </trkpt>
      <trkpt lat="43.90962" lon="7.56207">
        <ele>1153.4512852622</ele>
        <time>2021-11-02T13:33:50Z</time>
      </trkpt>
      <trkpt lat="43.90961" lon="7.56207">
        <ele>1151.4513239071</ele>
        <time>2021-11-02T13:33:58Z</time>
      </trkpt>
      <trkpt lat="43.90959" lon="7.56208">
        <ele>1151.4514267647</ele>
        <time>2021-11-02T13:34:00Z</time>
      </trkpt>
      <trkpt lat="43.90959" lon="7.56208">
        <ele>1150.4514502589</ele>
        <time>2021-11-02T13:34:01Z</time>
      </trkpt>
      <trkpt lat="43.90958" lon="7.56208">
        <ele>1151.4514702446</ele>
        <time>2021-11-02T13:34:02Z</time>
      </trkpt>
      <trkpt lat="43.90957" lon="7.56208">
        <ele>1151.4515306477</ele>
        <time>2021-11-02T13:34:03Z</time>
      </trkpt>
      <trkpt lat="43.90956" lon="7.56208">
        <ele>1151.4515846856</ele>
        <time>2021-11-02T13:34:04Z</time>
      </trkpt>
      <trkpt lat="43.90956" lon="7.56208">
        <ele>1151.4516093336</ele>
        <time>2021-11-02T13:34:05Z</time>
      </trkpt>
      <trkpt lat="43.90955" lon="7.56207">
        <ele>1151.4516294785</ele>
        <time>2021-11-02T13:34:06Z</time>
      </trkpt>
      <trkpt lat="43.90955" lon="7.56207">
        <ele>1151.4516364086</ele>
        <time>2021-11-02T13:34:08Z</time>
      </trkpt>
      <trkpt lat="43.90954" lon="7.56205">
        <ele>1151.4516706608</ele>
        <time>2021-11-02T13:34:09Z</time>
      </trkpt>
      <trkpt lat="43.90952" lon="7.56205">
        <ele>1152.4517299409</ele>
        <time>2021-11-02T13:34:10Z</time>
      </trkpt>
      <trkpt lat="43.90952" lon="7.56206">
        <ele>1151.451754116</ele>
        <time>2021-11-02T13:34:11Z</time>
      </trkpt>
      <trkpt lat="43.90952" lon="7.56206">
        <ele>1151.4517805723</ele>
        <time>2021-11-02T13:34:12Z</time>
      </trkpt>
      <trkpt lat="43.90952" lon="7.56207">
        <ele>1150.4518030859</ele>
        <time>2021-11-02T13:34:13Z</time>
      </trkpt>
      <trkpt lat="43.90951" lon="7.56208">
        <ele>1150.4518369004</ele>
        <time>2021-11-02T13:34:14Z</time>
      </trkpt>
      <trkpt lat="43.9095" lon="7.56209">
        <ele>1149.4518954019</ele>
        <time>2021-11-02T13:34:15Z</time>
      </trkpt>
      <trkpt lat="43.9095" lon="7.56209">
        <ele>1149.4518954019</ele>
        <time>2021-11-02T13:34:17Z</time>
      </trkpt>
      <trkpt lat="43.90949" lon="7.56211">
        <ele>1148.4520130712</ele>
        <time>2021-11-02T13:34:18Z</time>
      </trkpt>
      <trkpt lat="43.90948" lon="7.56212">
        <ele>1149.4520732175</ele>
        <time>2021-11-02T13:34:19Z</time>
      </trkpt>
      <trkpt lat="43.90946" lon="7.56213">
        <ele>1149.4521505547</ele>
        <time>2021-11-02T13:34:20Z</time>
      </trkpt>
      <trkpt lat="43.90945" lon="7.56214">
        <ele>1148.4522218806</ele>
        <time>2021-11-02T13:34:21Z</time>
      </trkpt>
      <trkpt lat="43.90944" lon="7.56214">
        <ele>1147.4522689433</ele>
        <time>2021-11-02T13:34:24Z</time>
      </trkpt>
      <trkpt lat="43.90943" lon="7.56214">
        <ele>1147.4523372472</ele>
        <time>2021-11-02T13:34:25Z</time>
      </trkpt>
      <trkpt lat="43.90942" lon="7.56214">
        <ele>1146.4523737989</ele>
        <time>2021-11-02T13:34:26Z</time>
      </trkpt>
      <trkpt lat="43.90941" lon="7.56213">
        <ele>1146.4523941945</ele>
        <time>2021-11-02T13:34:27Z</time>
      </trkpt>
      <trkpt lat="43.90941" lon="7.56212">
        <ele>1146.4524220256</ele>
        <time>2021-11-02T13:34:28Z</time>
      </trkpt>
      <trkpt lat="43.9094" lon="7.56212">
        <ele>1146.4524631418</ele>
        <time>2021-11-02T13:34:30Z</time>
      </trkpt>
      <trkpt lat="43.90938" lon="7.56212">
        <ele>1146.4525389798</ele>
        <time>2021-11-02T13:34:31Z</time>
      </trkpt>
      <trkpt lat="43.90938" lon="7.56212">
        <ele>1147.4525589708</ele>
        <time>2021-11-02T13:34:34Z</time>
      </trkpt>
      <trkpt lat="43.90935" lon="7.56212">
        <ele>1146.4527135985</ele>
        <time>2021-11-02T13:34:36Z</time>
      </trkpt>
      <trkpt lat="43.90934" lon="7.56212">
        <ele>1146.4527437731</ele>
        <time>2021-11-02T13:34:39Z</time>
      </trkpt>
      <trkpt lat="43.90933" lon="7.56212">
        <ele>1146.4527858447</ele>
        <time>2021-11-02T13:34:41Z</time>
      </trkpt>
      <trkpt lat="43.90932" lon="7.56212">
        <ele>1145.4528515346</ele>
        <time>2021-11-02T13:34:42Z</time>
      </trkpt>
      <trkpt lat="43.90931" lon="7.56212">
        <ele>1146.4529080775</ele>
        <time>2021-11-02T13:34:43Z</time>
      </trkpt>
      <trkpt lat="43.9093" lon="7.56212">
        <ele>1146.4529415786</ele>
        <time>2021-11-02T13:34:44Z</time>
      </trkpt>
      <trkpt lat="43.90929" lon="7.56212">
        <ele>1146.4529752801</ele>
        <time>2021-11-02T13:34:45Z</time>
      </trkpt>
      <trkpt lat="43.90928" lon="7.56212">
        <ele>1146.4530258566</ele>
        <time>2021-11-02T13:34:46Z</time>
      </trkpt>
      <trkpt lat="43.90928" lon="7.56212">
        <ele>1146.4530638498</ele>
        <time>2021-11-02T13:34:47Z</time>
      </trkpt>
      <trkpt lat="43.90927" lon="7.56212">
        <ele>1145.4531113688</ele>
        <time>2021-11-02T13:34:48Z</time>
      </trkpt>
      <trkpt lat="43.90926" lon="7.56212">
        <ele>1144.453162231</ele>
        <time>2021-11-02T13:34:50Z</time>
      </trkpt>
      <trkpt lat="43.90925" lon="7.56211">
        <ele>1144.4531897151</ele>
        <time>2021-11-02T13:34:51Z</time>
      </trkpt>
      <trkpt lat="43.90925" lon="7.56212">
        <ele>1144.4531738489</ele>
        <time>2021-11-02T13:34:54Z</time>
      </trkpt>
      <trkpt lat="43.90926" lon="7.5621">
        <ele>1144.4531279144</ele>
        <time>2021-11-02T13:34:55Z</time>
      </trkpt>
      <trkpt lat="43.90927" lon="7.5621">
        <ele>1144.4530880638</ele>
        <time>2021-11-02T13:34:57Z</time>
      </trkpt>
      <trkpt lat="43.90927" lon="7.56211">
        <ele>1144.4530892762</ele>
        <time>2021-11-02T13:34:58Z</time>
      </trkpt>
      <trkpt lat="43.90926" lon="7.56211">
        <ele>1144.4531207378</ele>
        <time>2021-11-02T13:34:59Z</time>
      </trkpt>
      <trkpt lat="43.90925" lon="7.56212">
        <ele>1144.4531791703</ele>
        <time>2021-11-02T13:35:00Z</time>
      </trkpt>
      <trkpt lat="43.90925" lon="7.56213">
        <ele>1144.4532267129</ele>
        <time>2021-11-02T13:35:01Z</time>
      </trkpt>
      <trkpt lat="43.90924" lon="7.56214">
        <ele>1143.4532667704</ele>
        <time>2021-11-02T13:35:02Z</time>
      </trkpt>
      <trkpt lat="43.90924" lon="7.56214">
        <ele>1143.453287973</ele>
        <time>2021-11-02T13:35:03Z</time>
      </trkpt>
      <trkpt lat="43.90923" lon="7.56214">
        <ele>1143.4533079922</ele>
        <time>2021-11-02T13:35:04Z</time>
      </trkpt>
      <trkpt lat="43.90923" lon="7.56215">
        <ele>1142.4533352738</ele>
        <time>2021-11-02T13:35:07Z</time>
      </trkpt>
      <trkpt lat="43.90923" lon="7.56214">
        <ele>1144.453333536</ele>
        <time>2021-11-02T13:35:14Z</time>
      </trkpt>
      <trkpt lat="43.90924" lon="7.56214">
        <ele>1144.4532787351</ele>
        <time>2021-11-02T13:35:15Z</time>
      </trkpt>
      <trkpt lat="43.90925" lon="7.56215">
        <ele>1144.4532551042</ele>
        <time>2021-11-02T13:35:17Z</time>
      </trkpt>
      <trkpt lat="43.90925" lon="7.56215">
        <ele>1144.4532528165</ele>
        <time>2021-11-02T13:35:20Z</time>
      </trkpt>
      <trkpt lat="43.90925" lon="7.56217">
        <ele>1144.4532612884</ele>
        <time>2021-11-02T13:35:21Z</time>
      </trkpt>
      <trkpt lat="43.90926" lon="7.56218">
        <ele>1145.4532547649</ele>
        <time>2021-11-02T13:35:22Z</time>
      </trkpt>
      <trkpt lat="43.90927" lon="7.56219">
        <ele>1145.4532147892</ele>
        <time>2021-11-02T13:35:24Z</time>
      </trkpt>
      <trkpt lat="43.90927" lon="7.5622">
        <ele>1145.453211611</ele>
        <time>2021-11-02T13:35:25Z</time>
      </trkpt>
      <trkpt lat="43.90927" lon="7.56221">
        <ele>1145.4532247575</ele>
        <time>2021-11-02T13:35:26Z</time>
      </trkpt>
      <trkpt lat="43.90927" lon="7.56222">
        <ele>1145.4532354544</ele>
        <time>2021-11-02T13:35:27Z</time>
      </trkpt>
      <trkpt lat="43.90927" lon="7.56223">
        <ele>1146.4532857427</ele>
        <time>2021-11-02T13:35:29Z</time>
      </trkpt>
      <trkpt lat="43.90926" lon="7.56225">
        <ele>1146.453323573</ele>
        <time>2021-11-02T13:35:31Z</time>
      </trkpt>
      <trkpt lat="43.90926" lon="7.56225">
        <ele>1146.4533364454</ele>
        <time>2021-11-02T13:35:32Z</time>
      </trkpt>
      <trkpt lat="43.90926" lon="7.56226">
        <ele>1146.4533561327</ele>
        <time>2021-11-02T13:35:33Z</time>
      </trkpt>
      <trkpt lat="43.90926" lon="7.56227">
        <ele>1147.4533904134</ele>
        <time>2021-11-02T13:35:34Z</time>
      </trkpt>
      <trkpt lat="43.90926" lon="7.56228">
        <ele>1147.4533838336</ele>
        <time>2021-11-02T13:35:36Z</time>
      </trkpt>
      <trkpt lat="43.90927" lon="7.56229">
        <ele>1147.4533712134</ele>
        <time>2021-11-02T13:35:37Z</time>
      </trkpt>
      <trkpt lat="43.90926" lon="7.56232">
        <ele>1147.4534188721</ele>
        <time>2021-11-02T13:35:39Z</time>
      </trkpt>
      <trkpt lat="43.90925" lon="7.56234">
        <ele>1147.453529314</ele>
        <time>2021-11-02T13:35:41Z</time>
      </trkpt>
      <trkpt lat="43.90924" lon="7.56233">
        <ele>1147.4535667879</ele>
        <time>2021-11-02T13:35:42Z</time>
      </trkpt>
      <trkpt lat="43.90924" lon="7.56232">
        <ele>1146.4535577232</ele>
        <time>2021-11-02T13:35:43Z</time>
      </trkpt>
      <trkpt lat="43.90923" lon="7.56231">
        <ele>1146.453569574</ele>
        <time>2021-11-02T13:35:45Z</time>
      </trkpt>
      <trkpt lat="43.90923" lon="7.56231">
        <ele>1146.453569574</ele>
        <time>2021-11-02T13:35:47Z</time>
      </trkpt>
      <trkpt lat="43.90922" lon="7.56229">
        <ele>1145.4535821612</ele>
        <time>2021-11-02T13:35:48Z</time>
      </trkpt>
      <trkpt lat="43.9092" lon="7.56228">
        <ele>1144.4536727863</ele>
        <time>2021-11-02T13:35:50Z</time>
      </trkpt>
      <trkpt lat="43.90919" lon="7.56227">
        <ele>1143.4537393234</ele>
        <time>2021-11-02T13:35:51Z</time>
      </trkpt>
      <trkpt lat="43.90917" lon="7.56227">
        <ele>1143.4537918866</ele>
        <time>2021-11-02T13:35:52Z</time>
      </trkpt>
      <trkpt lat="43.90917" lon="7.56226">
        <ele>1143.4538175247</ele>
        <time>2021-11-02T13:35:53Z</time>
      </trkpt>
      <trkpt lat="43.90916" lon="7.56224">
        <ele>1142.4538390981</ele>
        <time>2021-11-02T13:35:54Z</time>
      </trkpt>
      <trkpt lat="43.90914" lon="7.56223">
        <ele>1141.4538831259</ele>
        <time>2021-11-02T13:35:56Z</time>
      </trkpt>
      <trkpt lat="43.90914" lon="7.56223">
        <ele>1141.4539167682</ele>
        <time>2021-11-02T13:35:57Z</time>
      </trkpt>
      <trkpt lat="43.90913" lon="7.56222">
        <ele>1140.4539394828</ele>
        <time>2021-11-02T13:35:58Z</time>
      </trkpt>
      <trkpt lat="43.90913" lon="7.56221">
        <ele>1140.4539466969</ele>
        <time>2021-11-02T13:35:59Z</time>
      </trkpt>
      <trkpt lat="43.90911" lon="7.5622">
        <ele>1139.4540063172</ele>
        <time>2021-11-02T13:36:01Z</time>
      </trkpt>
      <trkpt lat="43.9091" lon="7.5622">
        <ele>1139.4540483326</ele>
        <time>2021-11-02T13:36:02Z</time>
      </trkpt>
      <trkpt lat="43.9091" lon="7.56219">
        <ele>1137.4540541262</ele>
        <time>2021-11-02T13:36:04Z</time>
      </trkpt>
      <trkpt lat="43.9091" lon="7.56219">
        <ele>1137.4540541262</ele>
        <time>2021-11-02T13:36:06Z</time>
      </trkpt>
      <trkpt lat="43.90908" lon="7.56217">
        <ele>1138.4541174296</ele>
        <time>2021-11-02T13:36:07Z</time>
      </trkpt>
      <trkpt lat="43.90908" lon="7.56217">
        <ele>1138.4541345741</ele>
        <time>2021-11-02T13:36:08Z</time>
      </trkpt>
      <trkpt lat="43.90907" lon="7.56215">
        <ele>1137.4541477404</ele>
        <time>2021-11-02T13:36:10Z</time>
      </trkpt>
      <trkpt lat="43.90907" lon="7.56215">
        <ele>1137.4541477404</ele>
        <time>2021-11-02T13:36:12Z</time>
      </trkpt>
      <trkpt lat="43.90906" lon="7.56213">
        <ele>1136.4541634025</ele>
        <time>2021-11-02T13:36:13Z</time>
      </trkpt>
      <trkpt lat="43.90905" lon="7.56212">
        <ele>1135.4542154412</ele>
        <time>2021-11-02T13:36:15Z</time>
      </trkpt>
      <trkpt lat="43.90904" lon="7.56211">
        <ele>1134.4542194253</ele>
        <time>2021-11-02T13:36:18Z</time>
      </trkpt>
      <trkpt lat="43.90904" lon="7.5621">
        <ele>1134.4542182901</ele>
        <time>2021-11-02T13:36:19Z</time>
      </trkpt>
      <trkpt lat="43.90903" lon="7.56209">
        <ele>1134.4542528111</ele>
        <time>2021-11-02T13:36:20Z</time>
      </trkpt>
      <trkpt lat="43.90903" lon="7.56208">
        <ele>1134.4542397403</ele>
        <time>2021-11-02T13:36:21Z</time>
      </trkpt>
      <trkpt lat="43.90903" lon="7.56207">
        <ele>1133.4542397309</ele>
        <time>2021-11-02T13:36:23Z</time>
      </trkpt>
      <trkpt lat="43.90902" lon="7.56206">
        <ele>1134.4542558382</ele>
        <time>2021-11-02T13:36:24Z</time>
      </trkpt>
      <trkpt lat="43.909" lon="7.56204">
        <ele>1133.4543100037</ele>
        <time>2021-11-02T13:36:26Z</time>
      </trkpt>
      <trkpt lat="43.909" lon="7.56204">
        <ele>1133.4543317832</ele>
        <time>2021-11-02T13:36:27Z</time>
      </trkpt>
      <trkpt lat="43.90899" lon="7.56204">
        <ele>1132.4543683121</ele>
        <time>2021-11-02T13:36:28Z</time>
      </trkpt>
      <trkpt lat="43.90899" lon="7.56204">
        <ele>1132.4543958793</ele>
        <time>2021-11-02T13:36:29Z</time>
      </trkpt>
      <trkpt lat="43.90898" lon="7.56205">
        <ele>1132.4544483296</ele>
        <time>2021-11-02T13:36:31Z</time>
      </trkpt>
      <trkpt lat="43.90897" lon="7.56205">
        <ele>1131.4544973981</ele>
        <time>2021-11-02T13:36:32Z</time>
      </trkpt>
      <trkpt lat="43.90896" lon="7.56205">
        <ele>1131.4545418637</ele>
        <time>2021-11-02T13:36:33Z</time>
      </trkpt>
      <trkpt lat="43.90895" lon="7.56205">
        <ele>1131.4545787961</ele>
        <time>2021-11-02T13:36:34Z</time>
      </trkpt>
      <trkpt lat="43.90894" lon="7.56205">
        <ele>1131.4546568953</ele>
        <time>2021-11-02T13:36:36Z</time>
      </trkpt>
      <trkpt lat="43.90893" lon="7.56206">
        <ele>1131.454686075</ele>
        <time>2021-11-02T13:36:37Z</time>
      </trkpt>
      <trkpt lat="43.90893" lon="7.56207">
        <ele>1130.4546999634</ele>
        <time>2021-11-02T13:36:39Z</time>
      </trkpt>
      <trkpt lat="43.90893" lon="7.56208">
        <ele>1130.4547422566</ele>
        <time>2021-11-02T13:36:42Z</time>
      </trkpt>
      <trkpt lat="43.90892" lon="7.56208">
        <ele>1130.454764962</ele>
        <time>2021-11-02T13:36:43Z</time>
      </trkpt>
      <trkpt lat="43.90891" lon="7.56208">
        <ele>1132.4548471911</ele>
        <time>2021-11-02T13:36:45Z</time>
      </trkpt>
      <trkpt lat="43.9089" lon="7.56208">
        <ele>1133.4548730203</ele>
        <time>2021-11-02T13:36:46Z</time>
      </trkpt>
      <trkpt lat="43.90889" lon="7.56209">
        <ele>1133.454930226</ele>
        <time>2021-11-02T13:36:47Z</time>
      </trkpt>
      <trkpt lat="43.90889" lon="7.56209">
        <ele>1133.4549682177</ele>
        <time>2021-11-02T13:36:48Z</time>
      </trkpt>
      <trkpt lat="43.90888" lon="7.5621">
        <ele>1133.455015877</ele>
        <time>2021-11-02T13:36:50Z</time>
      </trkpt>
      <trkpt lat="43.90887" lon="7.56211">
        <ele>1133.4550812926</ele>
        <time>2021-11-02T13:36:51Z</time>
      </trkpt>
      <trkpt lat="43.90886" lon="7.56213">
        <ele>1133.4551422341</ele>
        <time>2021-11-02T13:36:52Z</time>
      </trkpt>
      <trkpt lat="43.90885" lon="7.56213">
        <ele>1132.4552078569</ele>
        <time>2021-11-02T13:36:53Z</time>
      </trkpt>
      <trkpt lat="43.90885" lon="7.56214">
        <ele>1133.4552462608</ele>
        <time>2021-11-02T13:36:55Z</time>
      </trkpt>
      <trkpt lat="43.90884" lon="7.56214">
        <ele>1133.4552633739</ele>
        <time>2021-11-02T13:36:56Z</time>
      </trkpt>
      <trkpt lat="43.90883" lon="7.56215">
        <ele>1133.4553350747</ele>
        <time>2021-11-02T13:36:57Z</time>
      </trkpt>
      <trkpt lat="43.90881" lon="7.56214">
        <ele>1132.4554409457</ele>
        <time>2021-11-02T13:36:59Z</time>
      </trkpt>
      <trkpt lat="43.9088" lon="7.56214">
        <ele>1132.4554660527</ele>
        <time>2021-11-02T13:37:00Z</time>
      </trkpt>
      <trkpt lat="43.9088" lon="7.56214">
        <ele>1132.4555019527</ele>
        <time>2021-11-02T13:37:01Z</time>
      </trkpt>
      <trkpt lat="43.90879" lon="7.56214">
        <ele>1132.4555183167</ele>
        <time>2021-11-02T13:37:02Z</time>
      </trkpt>
      <trkpt lat="43.90879" lon="7.56214">
        <ele>1131.4555401034</ele>
        <time>2021-11-02T13:37:03Z</time>
      </trkpt>
      <trkpt lat="43.90878" lon="7.56213">
        <ele>1131.4555467209</ele>
        <time>2021-11-02T13:37:04Z</time>
      </trkpt>
      <trkpt lat="43.90877" lon="7.56213">
        <ele>1132.4555916006</ele>
        <time>2021-11-02T13:37:09Z</time>
      </trkpt>
      <trkpt lat="43.90878" lon="7.56214">
        <ele>1132.4555753726</ele>
        <time>2021-11-02T13:37:10Z</time>
      </trkpt>
      <trkpt lat="43.90878" lon="7.56215">
        <ele>1133.4555730663</ele>
        <time>2021-11-02T13:37:11Z</time>
      </trkpt>
      <trkpt lat="43.90879" lon="7.56215">
        <ele>1133.4555467228</ele>
        <time>2021-11-02T13:37:12Z</time>
      </trkpt>
      <trkpt lat="43.90879" lon="7.56217">
        <ele>1133.4555418717</ele>
        <time>2021-11-02T13:37:13Z</time>
      </trkpt>
      <trkpt lat="43.90879" lon="7.56218">
        <ele>1133.4555649706</ele>
        <time>2021-11-02T13:37:14Z</time>
      </trkpt>
      <trkpt lat="43.9088" lon="7.56219">
        <ele>1133.4555676621</ele>
        <time>2021-11-02T13:37:15Z</time>
      </trkpt>
      <trkpt lat="43.9088" lon="7.56221">
        <ele>1133.4555872205</ele>
        <time>2021-11-02T13:37:16Z</time>
      </trkpt>
      <trkpt lat="43.9088" lon="7.56222">
        <ele>1133.4556001407</ele>
        <time>2021-11-02T13:37:17Z</time>
      </trkpt>
      <trkpt lat="43.9088" lon="7.56223">
        <ele>1134.4556154748</ele>
        <time>2021-11-02T13:37:18Z</time>
      </trkpt>
      <trkpt lat="43.90879" lon="7.56223">
        <ele>1134.4556346252</ele>
        <time>2021-11-02T13:37:19Z</time>
      </trkpt>
      <trkpt lat="43.90878" lon="7.56225">
        <ele>1133.4557387957</ele>
        <time>2021-11-02T13:37:21Z</time>
      </trkpt>
      <trkpt lat="43.90877" lon="7.56225">
        <ele>1133.455802596</ele>
        <time>2021-11-02T13:37:22Z</time>
      </trkpt>
      <trkpt lat="43.90876" lon="7.56226">
        <ele>1132.4558667811</ele>
        <time>2021-11-02T13:37:23Z</time>
      </trkpt>
      <trkpt lat="43.90875" lon="7.56226">
        <ele>1133.4559095308</ele>
        <time>2021-11-02T13:37:24Z</time>
      </trkpt>
      <trkpt lat="43.90874" lon="7.56225">
        <ele>1132.4559558826</ele>
        <time>2021-11-02T13:37:25Z</time>
      </trkpt>
      <trkpt lat="43.90874" lon="7.56226">
        <ele>1132.455969086</ele>
        <time>2021-11-02T13:37:26Z</time>
      </trkpt>
      <trkpt lat="43.90873" lon="7.56226">
        <ele>1132.4560121129</ele>
        <time>2021-11-02T13:37:27Z</time>
      </trkpt>
      <trkpt lat="43.90872" lon="7.56226">
        <ele>1131.4560646785</ele>
        <time>2021-11-02T13:37:28Z</time>
      </trkpt>
      <trkpt lat="43.90871" lon="7.56227">
        <ele>1130.4561125229</ele>
        <time>2021-11-02T13:37:29Z</time>
      </trkpt>
      <trkpt lat="43.9087" lon="7.56227">
        <ele>1130.4561552296</ele>
        <time>2021-11-02T13:37:30Z</time>
      </trkpt>
      <trkpt lat="43.90869" lon="7.56227">
        <ele>1129.4562027161</ele>
        <time>2021-11-02T13:37:31Z</time>
      </trkpt>
      <trkpt lat="43.90868" lon="7.56228">
        <ele>1129.456255871</ele>
        <time>2021-11-02T13:37:32Z</time>
      </trkpt>
      <trkpt lat="43.90868" lon="7.56227">
        <ele>1129.4562835588</ele>
        <time>2021-11-02T13:37:33Z</time>
      </trkpt>
      <trkpt lat="43.90867" lon="7.56227">
        <ele>1129.4563025461</ele>
        <time>2021-11-02T13:37:34Z</time>
      </trkpt>
      <trkpt lat="43.90866" lon="7.56226">
        <ele>1128.4563384816</ele>
        <time>2021-11-02T13:37:35Z</time>
      </trkpt>
      <trkpt lat="43.90866" lon="7.56226">
        <ele>1128.4563688683</ele>
        <time>2021-11-02T13:37:36Z</time>
      </trkpt>
      <trkpt lat="43.90865" lon="7.56226">
        <ele>1128.4564180314</ele>
        <time>2021-11-02T13:37:37Z</time>
      </trkpt>
      <trkpt lat="43.90864" lon="7.56226">
        <ele>1128.4564607709</ele>
        <time>2021-11-02T13:37:39Z</time>
      </trkpt>
      <trkpt lat="43.90863" lon="7.56227">
        <ele>1128.4564857981</ele>
        <time>2021-11-02T13:37:40Z</time>
      </trkpt>
      <trkpt lat="43.90863" lon="7.56227">
        <ele>1128.4565295689</ele>
        <time>2021-11-02T13:37:41Z</time>
      </trkpt>
      <trkpt lat="43.90863" lon="7.56228">
        <ele>1128.4565457767</ele>
        <time>2021-11-02T13:37:42Z</time>
      </trkpt>
      <trkpt lat="43.90863" lon="7.56228">
        <ele>1130.4565439512</ele>
        <time>2021-11-02T13:37:45Z</time>
      </trkpt>
      <trkpt lat="43.90863" lon="7.56229">
        <ele>1130.4565494932</ele>
        <time>2021-11-02T13:37:46Z</time>
      </trkpt>
      <trkpt lat="43.90862" lon="7.5623">
        <ele>1131.4566009741</ele>
        <time>2021-11-02T13:37:47Z</time>
      </trkpt>
      <trkpt lat="43.90861" lon="7.5623">
        <ele>1131.4566481173</ele>
        <time>2021-11-02T13:37:48Z</time>
      </trkpt>
      <trkpt lat="43.9086" lon="7.5623">
        <ele>1131.4567059822</ele>
        <time>2021-11-02T13:37:49Z</time>
      </trkpt>
      <trkpt lat="43.90857" lon="7.5623">
        <ele>1129.4568592073</ele>
        <time>2021-11-02T13:37:51Z</time>
      </trkpt>
      <trkpt lat="43.90856" lon="7.5623">
        <ele>1128.4569391434</ele>
        <time>2021-11-02T13:37:52Z</time>
      </trkpt>
      <trkpt lat="43.90855" lon="7.56231">
        <ele>1128.4569909977</ele>
        <time>2021-11-02T13:37:53Z</time>
      </trkpt>
      <trkpt lat="43.90853" lon="7.56231">
        <ele>1128.4570566413</ele>
        <time>2021-11-02T13:37:54Z</time>
      </trkpt>
      <trkpt lat="43.90853" lon="7.56231">
        <ele>1128.4570969849</ele>
        <time>2021-11-02T13:37:55Z</time>
      </trkpt>
      <trkpt lat="43.90852" lon="7.56231">
        <ele>1127.4571426301</ele>
        <time>2021-11-02T13:37:56Z</time>
      </trkpt>
      <trkpt lat="43.90851" lon="7.56231">
        <ele>1127.4571935002</ele>
        <time>2021-11-02T13:37:57Z</time>
      </trkpt>
      <trkpt lat="43.9085" lon="7.56231">
        <ele>1127.4572289935</ele>
        <time>2021-11-02T13:37:58Z</time>
      </trkpt>
      <trkpt lat="43.90849" lon="7.56231">
        <ele>1126.4572707996</ele>
        <time>2021-11-02T13:37:59Z</time>
      </trkpt>
      <trkpt lat="43.90848" lon="7.56231">
        <ele>1127.4573017496</ele>
        <time>2021-11-02T13:38:00Z</time>
      </trkpt>
      <trkpt lat="43.90848" lon="7.56231">
        <ele>1127.4573399492</ele>
        <time>2021-11-02T13:38:01Z</time>
      </trkpt>
      <trkpt lat="43.90847" lon="7.56232">
        <ele>1126.4573868294</ele>
        <time>2021-11-02T13:38:02Z</time>
      </trkpt>
      <trkpt lat="43.90846" lon="7.56232">
        <ele>1126.4574203951</ele>
        <time>2021-11-02T13:38:03Z</time>
      </trkpt>
      <trkpt lat="43.90846" lon="7.56232">
        <ele>1127.4574479602</ele>
        <time>2021-11-02T13:38:04Z</time>
      </trkpt>
      <trkpt lat="43.90844" lon="7.56232">
        <ele>1127.4575088229</ele>
        <time>2021-11-02T13:38:06Z</time>
      </trkpt>
      <trkpt lat="43.90843" lon="7.56231">
        <ele>1127.4575530312</ele>
        <time>2021-11-02T13:38:07Z</time>
      </trkpt>
      <trkpt lat="43.90842" lon="7.5623">
        <ele>1127.4575930089</ele>
        <time>2021-11-02T13:38:08Z</time>
      </trkpt>
      <trkpt lat="43.90842" lon="7.56229">
        <ele>1127.4576184871</ele>
        <time>2021-11-02T13:38:09Z</time>
      </trkpt>
      <trkpt lat="43.90841" lon="7.56229">
        <ele>1127.4576400377</ele>
        <time>2021-11-02T13:38:10Z</time>
      </trkpt>
      <trkpt lat="43.90841" lon="7.56228">
        <ele>1127.4576561043</ele>
        <time>2021-11-02T13:38:11Z</time>
      </trkpt>
      <trkpt lat="43.9084" lon="7.56227">
        <ele>1127.4576505882</ele>
        <time>2021-11-02T13:38:12Z</time>
      </trkpt>
      <trkpt lat="43.9084" lon="7.56226">
        <ele>1126.4576567269</ele>
        <time>2021-11-02T13:38:13Z</time>
      </trkpt>
      <trkpt lat="43.90839" lon="7.56225">
        <ele>1125.4576636151</ele>
        <time>2021-11-02T13:38:14Z</time>
      </trkpt>
      <trkpt lat="43.90838" lon="7.56224">
        <ele>1125.4577050192</ele>
        <time>2021-11-02T13:38:15Z</time>
      </trkpt>
      <trkpt lat="43.90837" lon="7.56224">
        <ele>1125.4577586868</ele>
        <time>2021-11-02T13:38:16Z</time>
      </trkpt>
      <trkpt lat="43.90837" lon="7.56224">
        <ele>1125.4577985681</ele>
        <time>2021-11-02T13:38:17Z</time>
      </trkpt>
      <trkpt lat="43.90836" lon="7.56224">
        <ele>1124.4578356366</ele>
        <time>2021-11-02T13:38:18Z</time>
      </trkpt>
      <trkpt lat="43.90835" lon="7.56223">
        <ele>1124.4578746987</ele>
        <time>2021-11-02T13:38:20Z</time>
      </trkpt>
      <trkpt lat="43.90834" lon="7.56222">
        <ele>1123.4579096376</ele>
        <time>2021-11-02T13:38:21Z</time>
      </trkpt>
      <trkpt lat="43.90833" lon="7.56221">
        <ele>1123.4579128979</ele>
        <time>2021-11-02T13:38:22Z</time>
      </trkpt>
      <trkpt lat="43.90832" lon="7.5622">
        <ele>1123.4579395297</ele>
        <time>2021-11-02T13:38:24Z</time>
      </trkpt>
      <trkpt lat="43.90831" lon="7.56218">
        <ele>1122.4579717395</ele>
        <time>2021-11-02T13:38:26Z</time>
      </trkpt>
      <trkpt lat="43.90831" lon="7.56217">
        <ele>1122.457971559</ele>
        <time>2021-11-02T13:38:27Z</time>
      </trkpt>
      <trkpt lat="43.9083" lon="7.56216">
        <ele>1121.4579828995</ele>
        <time>2021-11-02T13:38:28Z</time>
      </trkpt>
      <trkpt lat="43.90829" lon="7.56215">
        <ele>1120.458018756</ele>
        <time>2021-11-02T13:38:30Z</time>
      </trkpt>
      <trkpt lat="43.90829" lon="7.56214">
        <ele>1120.4580398615</ele>
        <time>2021-11-02T13:38:31Z</time>
      </trkpt>
      <trkpt lat="43.90829" lon="7.56212">
        <ele>1119.4580237981</ele>
        <time>2021-11-02T13:38:32Z</time>
      </trkpt>
      <trkpt lat="43.90829" lon="7.56211">
        <ele>1118.4579650012</ele>
        <time>2021-11-02T13:38:33Z</time>
      </trkpt>
      <trkpt lat="43.9083" lon="7.56211">
        <ele>1119.457918041</ele>
        <time>2021-11-02T13:38:36Z</time>
      </trkpt>
      <trkpt lat="43.9083" lon="7.5621">
        <ele>1118.4579347967</ele>
        <time>2021-11-02T13:38:37Z</time>
      </trkpt>
      <trkpt lat="43.90829" lon="7.56209">
        <ele>1118.4579609461</ele>
        <time>2021-11-02T13:38:38Z</time>
      </trkpt>
      <trkpt lat="43.90828" lon="7.56208">
        <ele>1118.4579588227</ele>
        <time>2021-11-02T13:38:39Z</time>
      </trkpt>
      <trkpt lat="43.90828" lon="7.56207">
        <ele>1118.4579878298</ele>
        <time>2021-11-02T13:38:40Z</time>
      </trkpt>
      <trkpt lat="43.90827" lon="7.56207">
        <ele>1118.4580295345</ele>
        <time>2021-11-02T13:38:41Z</time>
      </trkpt>
      <trkpt lat="43.90825" lon="7.56207">
        <ele>1118.4581065417</ele>
        <time>2021-11-02T13:38:42Z</time>
      </trkpt>
      <trkpt lat="43.90823" lon="7.56206">
        <ele>1118.4582212168</ele>
        <time>2021-11-02T13:38:44Z</time>
      </trkpt>
      <trkpt lat="43.90822" lon="7.56206">
        <ele>1118.4582600276</ele>
        <time>2021-11-02T13:38:45Z</time>
      </trkpt>
      <trkpt lat="43.90821" lon="7.56205">
        <ele>1118.4583023942</ele>
        <time>2021-11-02T13:38:46Z</time>
      </trkpt>
      <trkpt lat="43.9082" lon="7.56205">
        <ele>1118.4583398236</ele>
        <time>2021-11-02T13:38:47Z</time>
      </trkpt>
      <trkpt lat="43.90819" lon="7.56205">
        <ele>1117.4583723804</ele>
        <time>2021-11-02T13:38:48Z</time>
      </trkpt>
      <trkpt lat="43.90817" lon="7.56205">
        <ele>1115.4584758451</ele>
        <time>2021-11-02T13:38:50Z</time>
      </trkpt>
      <trkpt lat="43.90816" lon="7.56205">
        <ele>1115.4585257434</ele>
        <time>2021-11-02T13:38:51Z</time>
      </trkpt>
      <trkpt lat="43.90816" lon="7.56204">
        <ele>1115.4585390536</ele>
        <time>2021-11-02T13:38:52Z</time>
      </trkpt>
      <trkpt lat="43.90815" lon="7.56205">
        <ele>1115.4585780428</ele>
        <time>2021-11-02T13:38:56Z</time>
      </trkpt>
      <trkpt lat="43.90814" lon="7.56205">
        <ele>1115.4586346051</ele>
        <time>2021-11-02T13:38:57Z</time>
      </trkpt>
      <trkpt lat="43.90813" lon="7.56205">
        <ele>1116.4587078469</ele>
        <time>2021-11-02T13:38:59Z</time>
      </trkpt>
      <trkpt lat="43.90812" lon="7.56205">
        <ele>1116.4587542643</ele>
        <time>2021-11-02T13:39:00Z</time>
      </trkpt>
      <trkpt lat="43.90811" lon="7.56205">
        <ele>1116.4587993637</ele>
        <time>2021-11-02T13:39:01Z</time>
      </trkpt>
      <trkpt lat="43.9081" lon="7.56205">
        <ele>1115.4588491067</ele>
        <time>2021-11-02T13:39:02Z</time>
      </trkpt>
      <trkpt lat="43.90809" lon="7.56205">
        <ele>1115.458903342</ele>
        <time>2021-11-02T13:39:03Z</time>
      </trkpt>
      <trkpt lat="43.90807" lon="7.56204">
        <ele>1115.4589903761</ele>
        <time>2021-11-02T13:39:05Z</time>
      </trkpt>
      <trkpt lat="43.90806" lon="7.56204">
        <ele>1115.4590353368</ele>
        <time>2021-11-02T13:39:06Z</time>
      </trkpt>
      <trkpt lat="43.90805" lon="7.56204">
        <ele>1115.4590883009</ele>
        <time>2021-11-02T13:39:07Z</time>
      </trkpt>
      <trkpt lat="43.90802" lon="7.56205">
        <ele>1114.4592120838</ele>
        <time>2021-11-02T13:39:09Z</time>
      </trkpt>
      <trkpt lat="43.90801" lon="7.56205">
        <ele>1114.4592718462</ele>
        <time>2021-11-02T13:39:10Z</time>
      </trkpt>
      <trkpt lat="43.908" lon="7.56205">
        <ele>1114.4593279396</ele>
        <time>2021-11-02T13:39:11Z</time>
      </trkpt>
      <trkpt lat="43.90799" lon="7.56205">
        <ele>1113.4593882929</ele>
        <time>2021-11-02T13:39:12Z</time>
      </trkpt>
      <trkpt lat="43.90799" lon="7.56206">
        <ele>1113.4594187626</ele>
        <time>2021-11-02T13:39:13Z</time>
      </trkpt>
      <trkpt lat="43.90798" lon="7.56206">
        <ele>1113.4594621579</ele>
        <time>2021-11-02T13:39:14Z</time>
      </trkpt>
      <trkpt lat="43.90797" lon="7.56206">
        <ele>1113.4594955734</ele>
        <time>2021-11-02T13:39:18Z</time>
      </trkpt>
      <trkpt lat="43.90796" lon="7.56206">
        <ele>1113.4595514242</ele>
        <time>2021-11-02T13:39:19Z</time>
      </trkpt>
      <trkpt lat="43.90794" lon="7.56207">
        <ele>1114.4596698144</ele>
        <time>2021-11-02T13:39:21Z</time>
      </trkpt>
      <trkpt lat="43.90793" lon="7.56207">
        <ele>1114.4597288636</ele>
        <time>2021-11-02T13:39:22Z</time>
      </trkpt>
      <trkpt lat="43.90792" lon="7.56207">
        <ele>1113.4597701706</ele>
        <time>2021-11-02T13:39:23Z</time>
      </trkpt>
      <trkpt lat="43.90791" lon="7.56207">
        <ele>1113.4598140324</ele>
        <time>2021-11-02T13:39:24Z</time>
      </trkpt>
      <trkpt lat="43.90789" lon="7.56207">
        <ele>1114.4598958739</ele>
        <time>2021-11-02T13:39:26Z</time>
      </trkpt>
      <trkpt lat="43.90788" lon="7.56207">
        <ele>1115.4599470518</ele>
        <time>2021-11-02T13:39:27Z</time>
      </trkpt>
      <trkpt lat="43.90787" lon="7.56206">
        <ele>1114.459981959</ele>
        <time>2021-11-02T13:39:28Z</time>
      </trkpt>
      <trkpt lat="43.90786" lon="7.56205">
        <ele>1114.4600226164</ele>
        <time>2021-11-02T13:39:30Z</time>
      </trkpt>
      <trkpt lat="43.90785" lon="7.56205">
        <ele>1114.4600644271</ele>
        <time>2021-11-02T13:39:31Z</time>
      </trkpt>
      <trkpt lat="43.90785" lon="7.56206">
        <ele>1114.4601085318</ele>
        <time>2021-11-02T13:39:32Z</time>
      </trkpt>
      <trkpt lat="43.90784" lon="7.56207">
        <ele>1114.4601557395</ele>
        <time>2021-11-02T13:39:33Z</time>
      </trkpt>
      <trkpt lat="43.90784" lon="7.56207">
        <ele>1114.4601855363</ele>
        <time>2021-11-02T13:39:34Z</time>
      </trkpt>
      <trkpt lat="43.90784" lon="7.56208">
        <ele>1113.460203708</ele>
        <time>2021-11-02T13:39:35Z</time>
      </trkpt>
      <trkpt lat="43.90784" lon="7.56209">
        <ele>1113.4602176443</ele>
        <time>2021-11-02T13:39:36Z</time>
      </trkpt>
      <trkpt lat="43.90783" lon="7.5621">
        <ele>1113.4602402225</ele>
        <time>2021-11-02T13:39:37Z</time>
      </trkpt>
      <trkpt lat="43.90783" lon="7.56211">
        <ele>1114.4602685912</ele>
        <time>2021-11-02T13:39:38Z</time>
      </trkpt>
      <trkpt lat="43.90783" lon="7.56212">
        <ele>1113.4603068786</ele>
        <time>2021-11-02T13:39:39Z</time>
      </trkpt>
      <trkpt lat="43.90781" lon="7.56212">
        <ele>1113.4603858818</ele>
        <time>2021-11-02T13:39:40Z</time>
      </trkpt>
      <trkpt lat="43.90781" lon="7.56214">
        <ele>1112.4604087181</ele>
        <time>2021-11-02T13:39:41Z</time>
      </trkpt>
      <trkpt lat="43.90781" lon="7.56215">
        <ele>1113.4604227627</ele>
        <time>2021-11-02T13:39:42Z</time>
      </trkpt>
      <trkpt lat="43.90781" lon="7.56216">
        <ele>1113.4604516036</ele>
        <time>2021-11-02T13:39:43Z</time>
      </trkpt>
      <trkpt lat="43.9078" lon="7.56217">
        <ele>1114.4605040828</ele>
        <time>2021-11-02T13:39:44Z</time>
      </trkpt>
      <trkpt lat="43.90779" lon="7.56217">
        <ele>1113.4605693622</ele>
        <time>2021-11-02T13:39:45Z</time>
      </trkpt>
      <trkpt lat="43.90777" lon="7.56217">
        <ele>1112.4606456041</ele>
        <time>2021-11-02T13:39:46Z</time>
      </trkpt>
      <trkpt lat="43.90777" lon="7.56218">
        <ele>1112.4606833493</ele>
        <time>2021-11-02T13:39:54Z</time>
      </trkpt>
      <trkpt lat="43.90777" lon="7.56218">
        <ele>1112.4606867179</ele>
        <time>2021-11-02T13:40:15Z</time>
      </trkpt>
      <trkpt lat="43.90777" lon="7.56217">
        <ele>1111.4606519508</ele>
        <time>2021-11-02T13:40:17Z</time>
      </trkpt>
      <trkpt lat="43.90777" lon="7.56216">
        <ele>1110.4606602096</ele>
        <time>2021-11-02T13:40:19Z</time>
      </trkpt>
      <trkpt lat="43.90776" lon="7.56216">
        <ele>1110.4607180485</ele>
        <time>2021-11-02T13:40:21Z</time>
      </trkpt>
      <trkpt lat="43.90775" lon="7.56215">
        <ele>1111.4607279031</ele>
        <time>2021-11-02T13:40:23Z</time>
      </trkpt>
      <trkpt lat="43.90774" lon="7.56216">
        <ele>1111.4607863809</ele>
        <time>2021-11-02T13:40:25Z</time>
      </trkpt>
      <trkpt lat="43.90774" lon="7.56216">
        <ele>1112.4608117178</ele>
        <time>2021-11-02T13:40:29Z</time>
      </trkpt>
      <trkpt lat="43.90773" lon="7.56217">
        <ele>1112.4608435872</ele>
        <time>2021-11-02T13:40:30Z</time>
      </trkpt>
      <trkpt lat="43.90773" lon="7.56218">
        <ele>1111.4608667154</ele>
        <time>2021-11-02T13:40:36Z</time>
      </trkpt>
      <trkpt lat="43.90773" lon="7.5622">
        <ele>1111.4608906838</ele>
        <time>2021-11-02T13:40:37Z</time>
      </trkpt>
      <trkpt lat="43.90773" lon="7.56221">
        <ele>1111.4609226139</ele>
        <time>2021-11-02T13:40:38Z</time>
      </trkpt>
      <trkpt lat="43.90772" lon="7.56221">
        <ele>1110.4609590542</ele>
        <time>2021-11-02T13:40:39Z</time>
      </trkpt>
      <trkpt lat="43.90771" lon="7.56222">
        <ele>1110.4610146135</ele>
        <time>2021-11-02T13:40:40Z</time>
      </trkpt>
      <trkpt lat="43.9077" lon="7.56223">
        <ele>1110.4610883829</ele>
        <time>2021-11-02T13:40:42Z</time>
      </trkpt>
      <trkpt lat="43.9077" lon="7.56224">
        <ele>1110.4611276965</ele>
        <time>2021-11-02T13:40:44Z</time>
      </trkpt>
      <trkpt lat="43.90768" lon="7.56224">
        <ele>1110.4612005133</ele>
        <time>2021-11-02T13:40:45Z</time>
      </trkpt>
      <trkpt lat="43.90767" lon="7.56225">
        <ele>1108.4612707893</ele>
        <time>2021-11-02T13:40:46Z</time>
      </trkpt>
      <trkpt lat="43.90766" lon="7.56225">
        <ele>1108.4613129621</ele>
        <time>2021-11-02T13:40:47Z</time>
      </trkpt>
      <trkpt lat="43.90765" lon="7.56225">
        <ele>1108.4613710241</ele>
        <time>2021-11-02T13:40:48Z</time>
      </trkpt>
      <trkpt lat="43.90765" lon="7.56226">
        <ele>1107.4614175361</ele>
        <time>2021-11-02T13:40:50Z</time>
      </trkpt>
      <trkpt lat="43.90764" lon="7.56225">
        <ele>1107.4614295949</ele>
        <time>2021-11-02T13:40:51Z</time>
      </trkpt>
      <trkpt lat="43.90763" lon="7.56225">
        <ele>1106.4614629777</ele>
        <time>2021-11-02T13:40:52Z</time>
      </trkpt>
      <trkpt lat="43.90762" lon="7.56225">
        <ele>1106.4615479958</ele>
        <time>2021-11-02T13:40:54Z</time>
      </trkpt>
      <trkpt lat="43.90761" lon="7.56225">
        <ele>1106.4615887389</ele>
        <time>2021-11-02T13:40:55Z</time>
      </trkpt>
      <trkpt lat="43.9076" lon="7.56225">
        <ele>1106.4616251449</ele>
        <time>2021-11-02T13:40:56Z</time>
      </trkpt>
      <trkpt lat="43.90759" lon="7.56225">
        <ele>1106.4616553978</ele>
        <time>2021-11-02T13:40:57Z</time>
      </trkpt>
      <trkpt lat="43.90759" lon="7.56225">
        <ele>1106.4616961109</ele>
        <time>2021-11-02T13:40:58Z</time>
      </trkpt>
      <trkpt lat="43.90758" lon="7.56225">
        <ele>1105.4617324404</ele>
        <time>2021-11-02T13:40:59Z</time>
      </trkpt>
      <trkpt lat="43.90757" lon="7.56224">
        <ele>1106.4617628117</ele>
        <time>2021-11-02T13:41:00Z</time>
      </trkpt>
      <trkpt lat="43.90757" lon="7.56224">
        <ele>1105.4617738596</ele>
        <time>2021-11-02T13:41:02Z</time>
      </trkpt>
      <trkpt lat="43.90757" lon="7.56223">
        <ele>1104.4617341197</ele>
        <time>2021-11-02T13:41:03Z</time>
      </trkpt>
      <trkpt lat="43.90758" lon="7.56222">
        <ele>1104.4616934503</ele>
        <time>2021-11-02T13:41:04Z</time>
      </trkpt>
      <trkpt lat="43.90757" lon="7.56221">
        <ele>1104.4617213059</ele>
        <time>2021-11-02T13:41:05Z</time>
      </trkpt>
      <trkpt lat="43.90755" lon="7.56222">
        <ele>1105.4618218388</ele>
        <time>2021-11-02T13:41:07Z</time>
      </trkpt>
      <trkpt lat="43.90754" lon="7.56222">
        <ele>1106.4618876932</ele>
        <time>2021-11-02T13:41:08Z</time>
      </trkpt>
      <trkpt lat="43.90754" lon="7.56222">
        <ele>1106.4619053791</ele>
        <time>2021-11-02T13:41:09Z</time>
      </trkpt>
      <trkpt lat="43.90753" lon="7.56223">
        <ele>1105.4619475239</ele>
        <time>2021-11-02T13:41:11Z</time>
      </trkpt>
      <trkpt lat="43.90752" lon="7.56223">
        <ele>1105.4619929028</ele>
        <time>2021-11-02T13:41:12Z</time>
      </trkpt>
      <trkpt lat="43.90752" lon="7.56223">
        <ele>1105.4620102107</ele>
        <time>2021-11-02T13:41:13Z</time>
      </trkpt>
      <trkpt lat="43.90751" lon="7.56222">
        <ele>1105.4620609168</ele>
        <time>2021-11-02T13:41:15Z</time>
      </trkpt>
      <trkpt lat="43.9075" lon="7.56222">
        <ele>1105.4620976484</ele>
        <time>2021-11-02T13:41:17Z</time>
      </trkpt>
      <trkpt lat="43.90749" lon="7.56223">
        <ele>1106.4621295251</ele>
        <time>2021-11-02T13:41:18Z</time>
      </trkpt>
      <trkpt lat="43.90749" lon="7.56223">
        <ele>1106.4621670323</ele>
        <time>2021-11-02T13:41:19Z</time>
      </trkpt>
      <trkpt lat="43.90747" lon="7.56223">
        <ele>1106.4622313621</ele>
        <time>2021-11-02T13:41:20Z</time>
      </trkpt>
      <trkpt lat="43.90746" lon="7.56223">
        <ele>1106.4622883884</ele>
        <time>2021-11-02T13:41:21Z</time>
      </trkpt>
      <trkpt lat="43.90745" lon="7.56223">
        <ele>1106.4623376827</ele>
        <time>2021-11-02T13:41:22Z</time>
      </trkpt>
      <trkpt lat="43.90743" lon="7.56223">
        <ele>1106.4624471526</ele>
        <time>2021-11-02T13:41:24Z</time>
      </trkpt>
      <trkpt lat="43.90742" lon="7.56223">
        <ele>1106.4625031856</ele>
        <time>2021-11-02T13:41:25Z</time>
      </trkpt>
      <trkpt lat="43.90741" lon="7.56223">
        <ele>1106.4625497941</ele>
        <time>2021-11-02T13:41:26Z</time>
      </trkpt>
      <trkpt lat="43.9074" lon="7.56223">
        <ele>1106.4625933043</ele>
        <time>2021-11-02T13:41:27Z</time>
      </trkpt>
      <trkpt lat="43.90739" lon="7.56222">
        <ele>1105.4626214125</ele>
        <time>2021-11-02T13:41:28Z</time>
      </trkpt>
      <trkpt lat="43.90739" lon="7.56222">
        <ele>1106.4626645976</ele>
        <time>2021-11-02T13:41:30Z</time>
      </trkpt>
      <trkpt lat="43.90738" lon="7.56222">
        <ele>1107.4626976614</ele>
        <time>2021-11-02T13:41:31Z</time>
      </trkpt>
      <trkpt lat="43.90737" lon="7.56221">
        <ele>1107.4627240941</ele>
        <time>2021-11-02T13:41:32Z</time>
      </trkpt>
      <trkpt lat="43.90736" lon="7.5622">
        <ele>1107.46274277</ele>
        <time>2021-11-02T13:41:33Z</time>
      </trkpt>
      <trkpt lat="43.90736" lon="7.56221">
        <ele>1107.4627745842</ele>
        <time>2021-11-02T13:41:34Z</time>
      </trkpt>
      <trkpt lat="43.90735" lon="7.56221">
        <ele>1108.4628067288</ele>
        <time>2021-11-02T13:41:35Z</time>
      </trkpt>
      <trkpt lat="43.90734" lon="7.56222">
        <ele>1108.4628585742</ele>
        <time>2021-11-02T13:41:36Z</time>
      </trkpt>
      <trkpt lat="43.90733" lon="7.56222">
        <ele>1107.4629105529</ele>
        <time>2021-11-02T13:41:37Z</time>
      </trkpt>
      <trkpt lat="43.90733" lon="7.56222">
        <ele>1107.4629474124</ele>
        <time>2021-11-02T13:41:38Z</time>
      </trkpt>
      <trkpt lat="43.90733" lon="7.56221">
        <ele>1105.4629355403</ele>
        <time>2021-11-02T13:41:43Z</time>
      </trkpt>
      <trkpt lat="43.90732" lon="7.5622">
        <ele>1105.4629632278</ele>
        <time>2021-11-02T13:41:45Z</time>
      </trkpt>
      <trkpt lat="43.90731" lon="7.56219">
        <ele>1104.462983207</ele>
        <time>2021-11-02T13:41:47Z</time>
      </trkpt>
      <trkpt lat="43.90731" lon="7.56219">
        <ele>1103.462987334</ele>
        <time>2021-11-02T13:41:51Z</time>
      </trkpt>
      <trkpt lat="43.9073" lon="7.56219">
        <ele>1103.4630354766</ele>
        <time>2021-11-02T13:41:52Z</time>
      </trkpt>
      <trkpt lat="43.90729" lon="7.56219">
        <ele>1103.46308076</ele>
        <time>2021-11-02T13:41:55Z</time>
      </trkpt>
      <trkpt lat="43.90729" lon="7.5622">
        <ele>1103.4631213876</ele>
        <time>2021-11-02T13:42:00Z</time>
      </trkpt>
      <trkpt lat="43.90727" lon="7.56221">
        <ele>1105.4632321474</ele>
        <time>2021-11-02T13:42:01Z</time>
      </trkpt>
      <trkpt lat="43.90726" lon="7.56221">
        <ele>1106.4632787457</ele>
        <time>2021-11-02T13:42:02Z</time>
      </trkpt>
      <trkpt lat="43.90725" lon="7.5622">
        <ele>1106.4632962226</ele>
        <time>2021-11-02T13:42:03Z</time>
      </trkpt>
      <trkpt lat="43.90725" lon="7.5622">
        <ele>1105.4633290691</ele>
        <time>2021-11-02T13:42:04Z</time>
      </trkpt>
      <trkpt lat="43.90724" lon="7.5622">
        <ele>1105.4633674739</ele>
        <time>2021-11-02T13:42:05Z</time>
      </trkpt>
      <trkpt lat="43.90723" lon="7.56221">
        <ele>1105.4634173576</ele>
        <time>2021-11-02T13:42:06Z</time>
      </trkpt>
      <trkpt lat="43.90723" lon="7.56222">
        <ele>1105.4634489571</ele>
        <time>2021-11-02T13:42:07Z</time>
      </trkpt>
      <trkpt lat="43.90722" lon="7.56222">
        <ele>1105.4634801515</ele>
        <time>2021-11-02T13:42:08Z</time>
      </trkpt>
      <trkpt lat="43.90722" lon="7.56222">
        <ele>1104.4635097442</ele>
        <time>2021-11-02T13:42:09Z</time>
      </trkpt>
      <trkpt lat="43.90721" lon="7.56221">
        <ele>1104.4635244698</ele>
        <time>2021-11-02T13:42:10Z</time>
      </trkpt>
      <trkpt lat="43.90721" lon="7.5622">
        <ele>1104.4635358241</ele>
        <time>2021-11-02T13:42:12Z</time>
      </trkpt>
      <trkpt lat="43.9072" lon="7.5622">
        <ele>1104.4635598993</ele>
        <time>2021-11-02T13:42:13Z</time>
      </trkpt>
      <trkpt lat="43.90719" lon="7.56221">
        <ele>1103.4636047328</ele>
        <time>2021-11-02T13:42:14Z</time>
      </trkpt>
      <trkpt lat="43.90719" lon="7.56221">
        <ele>1103.4636499644</ele>
        <time>2021-11-02T13:42:15Z</time>
      </trkpt>
      <trkpt lat="43.90718" lon="7.56222">
        <ele>1101.4636870146</ele>
        <time>2021-11-02T13:42:17Z</time>
      </trkpt>
      <trkpt lat="43.90718" lon="7.56223">
        <ele>1101.4637152502</ele>
        <time>2021-11-02T13:42:18Z</time>
      </trkpt>
      <trkpt lat="43.90716" lon="7.56224">
        <ele>1101.4637982802</ele>
        <time>2021-11-02T13:42:20Z</time>
      </trkpt>
      <trkpt lat="43.90715" lon="7.56224">
        <ele>1100.4638692359</ele>
        <time>2021-11-02T13:42:21Z</time>
      </trkpt>
      <trkpt lat="43.90714" lon="7.56225">
        <ele>1100.4639189565</ele>
        <time>2021-11-02T13:42:22Z</time>
      </trkpt>
      <trkpt lat="43.90714" lon="7.56225">
        <ele>1099.463939945</ele>
        <time>2021-11-02T13:42:23Z</time>
      </trkpt>
      <trkpt lat="43.90713" lon="7.56225">
        <ele>1099.4639883134</ele>
        <time>2021-11-02T13:42:24Z</time>
      </trkpt>
      <trkpt lat="43.90712" lon="7.56225">
        <ele>1099.4640172927</ele>
        <time>2021-11-02T13:42:25Z</time>
      </trkpt>
      <trkpt lat="43.90712" lon="7.56225">
        <ele>1099.4640503191</ele>
        <time>2021-11-02T13:42:26Z</time>
      </trkpt>
      <trkpt lat="43.90711" lon="7.56226">
        <ele>1099.4641009023</ele>
        <time>2021-11-02T13:42:27Z</time>
      </trkpt>
      <trkpt lat="43.9071" lon="7.56225">
        <ele>1098.4641340853</ele>
        <time>2021-11-02T13:42:28Z</time>
      </trkpt>
      <trkpt lat="43.90709" lon="7.56225">
        <ele>1098.4641805245</ele>
        <time>2021-11-02T13:42:29Z</time>
      </trkpt>
      <trkpt lat="43.90708" lon="7.56225">
        <ele>1097.4642221615</ele>
        <time>2021-11-02T13:42:31Z</time>
      </trkpt>
      <trkpt lat="43.90708" lon="7.56226">
        <ele>1098.4642422506</ele>
        <time>2021-11-02T13:42:32Z</time>
      </trkpt>
      <trkpt lat="43.90708" lon="7.56227">
        <ele>1098.4642465307</ele>
        <time>2021-11-02T13:42:33Z</time>
      </trkpt>
      <trkpt lat="43.90709" lon="7.56227">
        <ele>1099.4642153815</ele>
        <time>2021-11-02T13:42:34Z</time>
      </trkpt>
      <trkpt lat="43.90709" lon="7.56228">
        <ele>1100.4642120991</ele>
        <time>2021-11-02T13:42:36Z</time>
      </trkpt>
      <trkpt lat="43.90709" lon="7.56229">
        <ele>1101.4642586005</ele>
        <time>2021-11-02T13:42:37Z</time>
      </trkpt>
      <trkpt lat="43.90708" lon="7.5623">
        <ele>1101.4643083628</ele>
        <time>2021-11-02T13:42:38Z</time>
      </trkpt>
      <trkpt lat="43.90708" lon="7.56231">
        <ele>1101.4643473796</ele>
        <time>2021-11-02T13:42:39Z</time>
      </trkpt>
      <trkpt lat="43.90707" lon="7.56233">
        <ele>1101.4643877586</ele>
        <time>2021-11-02T13:42:41Z</time>
      </trkpt>
      <trkpt lat="43.90706" lon="7.56233">
        <ele>1101.4644360799</ele>
        <time>2021-11-02T13:42:42Z</time>
      </trkpt>
      <trkpt lat="43.90706" lon="7.56235">
        <ele>1101.4644921966</ele>
        <time>2021-11-02T13:42:43Z</time>
      </trkpt>
      <trkpt lat="43.90703" lon="7.56236">
        <ele>1100.4646469528</ele>
        <time>2021-11-02T13:42:45Z</time>
      </trkpt>
      <trkpt lat="43.90702" lon="7.56236">
        <ele>1100.4646801806</ele>
        <time>2021-11-02T13:42:46Z</time>
      </trkpt>
      <trkpt lat="43.90702" lon="7.56236">
        <ele>1099.4646943094</ele>
        <time>2021-11-02T13:42:47Z</time>
      </trkpt>
      <trkpt lat="43.90701" lon="7.56237">
        <ele>1099.4647561085</ele>
        <time>2021-11-02T13:42:48Z</time>
      </trkpt>
      <trkpt lat="43.907" lon="7.56238">
        <ele>1099.4648063475</ele>
        <time>2021-11-02T13:42:49Z</time>
      </trkpt>
      <trkpt lat="43.90699" lon="7.56239">
        <ele>1099.4648735364</ele>
        <time>2021-11-02T13:42:50Z</time>
      </trkpt>
      <trkpt lat="43.90698" lon="7.5624">
        <ele>1099.4649642251</ele>
        <time>2021-11-02T13:42:51Z</time>
      </trkpt>
      <trkpt lat="43.90696" lon="7.5624">
        <ele>1099.465050702</ele>
        <time>2021-11-02T13:42:52Z</time>
      </trkpt>
      <trkpt lat="43.90695" lon="7.56241">
        <ele>1098.4651082246</ele>
        <time>2021-11-02T13:42:53Z</time>
      </trkpt>
      <trkpt lat="43.90694" lon="7.56241">
        <ele>1097.4651527781</ele>
        <time>2021-11-02T13:42:55Z</time>
      </trkpt>
      <trkpt lat="43.90693" lon="7.56242">
        <ele>1096.4652328484</ele>
        <time>2021-11-02T13:42:57Z</time>
      </trkpt>
      <trkpt lat="43.90691" lon="7.56242">
        <ele>1096.4653080475</ele>
        <time>2021-11-02T13:42:58Z</time>
      </trkpt>
      <trkpt lat="43.9069" lon="7.56241">
        <ele>1095.4653631627</ele>
        <time>2021-11-02T13:42:59Z</time>
      </trkpt>
      <trkpt lat="43.90689" lon="7.56241">
        <ele>1095.4653967068</ele>
        <time>2021-11-02T13:43:00Z</time>
      </trkpt>
      <trkpt lat="43.90689" lon="7.5624">
        <ele>1094.4654166689</ele>
        <time>2021-11-02T13:43:01Z</time>
      </trkpt>
      <trkpt lat="43.90688" lon="7.56239">
        <ele>1094.4654132574</ele>
        <time>2021-11-02T13:43:02Z</time>
      </trkpt>
      <trkpt lat="43.90688" lon="7.56238">
        <ele>1093.4654159795</ele>
        <time>2021-11-02T13:43:03Z</time>
      </trkpt>
      <trkpt lat="43.90687" lon="7.56236">
        <ele>1092.4654361015</ele>
        <time>2021-11-02T13:43:04Z</time>
      </trkpt>
      <trkpt lat="43.90687" lon="7.56235">
        <ele>1092.4654364022</ele>
        <time>2021-11-02T13:43:05Z</time>
      </trkpt>
      <trkpt lat="43.90687" lon="7.56233">
        <ele>1092.4654146369</ele>
        <time>2021-11-02T13:43:06Z</time>
      </trkpt>
      <trkpt lat="43.90687" lon="7.56232">
        <ele>1092.4654082582</ele>
        <time>2021-11-02T13:43:07Z</time>
      </trkpt>
      <trkpt lat="43.90686" lon="7.56231">
        <ele>1092.4654062029</ele>
        <time>2021-11-02T13:43:08Z</time>
      </trkpt>
      <trkpt lat="43.90686" lon="7.56229">
        <ele>1093.465376853</ele>
        <time>2021-11-02T13:43:09Z</time>
      </trkpt>
      <trkpt lat="43.90686" lon="7.56229">
        <ele>1092.4653803872</ele>
        <time>2021-11-02T13:43:10Z</time>
      </trkpt>
      <trkpt lat="43.90686" lon="7.56228">
        <ele>1092.4653950812</ele>
        <time>2021-11-02T13:43:12Z</time>
      </trkpt>
      <trkpt lat="43.90685" lon="7.56228">
        <ele>1091.4654057056</ele>
        <time>2021-11-02T13:43:21Z</time>
      </trkpt>
      <trkpt lat="43.90684" lon="7.56228">
        <ele>1092.4654505928</ele>
        <time>2021-11-02T13:43:22Z</time>
      </trkpt>
      <trkpt lat="43.90683" lon="7.56227">
        <ele>1091.4655015374</ele>
        <time>2021-11-02T13:43:23Z</time>
      </trkpt>
      <trkpt lat="43.90682" lon="7.56227">
        <ele>1091.4655380937</ele>
        <time>2021-11-02T13:43:24Z</time>
      </trkpt>
      <trkpt lat="43.90681" lon="7.56225">
        <ele>1090.465572431</ele>
        <time>2021-11-02T13:43:26Z</time>
      </trkpt>
      <trkpt lat="43.90681" lon="7.56225">
        <ele>1090.4655913045</ele>
        <time>2021-11-02T13:43:27Z</time>
      </trkpt>
      <trkpt lat="43.9068" lon="7.56224">
        <ele>1090.4656341869</ele>
        <time>2021-11-02T13:43:28Z</time>
      </trkpt>
      <trkpt lat="43.90679" lon="7.56224">
        <ele>1091.465685865</ele>
        <time>2021-11-02T13:43:29Z</time>
      </trkpt>
      <trkpt lat="43.90678" lon="7.56224">
        <ele>1091.4657161325</ele>
        <time>2021-11-02T13:43:30Z</time>
      </trkpt>
      <trkpt lat="43.90676" lon="7.56223">
        <ele>1090.465824301</ele>
        <time>2021-11-02T13:43:32Z</time>
      </trkpt>
      <trkpt lat="43.90675" lon="7.56222">
        <ele>1090.4658590512</ele>
        <time>2021-11-02T13:43:33Z</time>
      </trkpt>
      <trkpt lat="43.90674" lon="7.56222">
        <ele>1090.4658721163</ele>
        <time>2021-11-02T13:43:34Z</time>
      </trkpt>
      <trkpt lat="43.90674" lon="7.56221">
        <ele>1090.4658819425</ele>
        <time>2021-11-02T13:43:35Z</time>
      </trkpt>
      <trkpt lat="43.90673" lon="7.56221">
        <ele>1090.4659278426</ele>
        <time>2021-11-02T13:43:36Z</time>
      </trkpt>
      <trkpt lat="43.90672" lon="7.56221">
        <ele>1090.4659635632</ele>
        <time>2021-11-02T13:43:37Z</time>
      </trkpt>
      <trkpt lat="43.90672" lon="7.56221">
        <ele>1089.4659800766</ele>
        <time>2021-11-02T13:43:38Z</time>
      </trkpt>
      <trkpt lat="43.9067" lon="7.5622">
        <ele>1091.4660358736</ele>
        <time>2021-11-02T13:43:40Z</time>
      </trkpt>
      <trkpt lat="43.90669" lon="7.56219">
        <ele>1090.4661040935</ele>
        <time>2021-11-02T13:43:42Z</time>
      </trkpt>
      <trkpt lat="43.90667" lon="7.56217">
        <ele>1090.4661477042</ele>
        <time>2021-11-02T13:43:44Z</time>
      </trkpt>
      <trkpt lat="43.90666" lon="7.56216">
        <ele>1090.4661807307</ele>
        <time>2021-11-02T13:43:45Z</time>
      </trkpt>
      <trkpt lat="43.90665" lon="7.56216">
        <ele>1090.4662260846</ele>
        <time>2021-11-02T13:43:46Z</time>
      </trkpt>
      <trkpt lat="43.90664" lon="7.56215">
        <ele>1090.4662698824</ele>
        <time>2021-11-02T13:43:47Z</time>
      </trkpt>
      <trkpt lat="43.90663" lon="7.56215">
        <ele>1091.4663063593</ele>
        <time>2021-11-02T13:43:48Z</time>
      </trkpt>
      <trkpt lat="43.90663" lon="7.56214">
        <ele>1091.4663414204</ele>
        <time>2021-11-02T13:43:49Z</time>
      </trkpt>
      <trkpt lat="43.9066" lon="7.56215">
        <ele>1091.4664578738</ele>
        <time>2021-11-02T13:43:51Z</time>
      </trkpt>
      <trkpt lat="43.9066" lon="7.56214">
        <ele>1091.4664807507</ele>
        <time>2021-11-02T13:43:52Z</time>
      </trkpt>
      <trkpt lat="43.90659" lon="7.56213">
        <ele>1091.4664861542</ele>
        <time>2021-11-02T13:43:53Z</time>
      </trkpt>
      <trkpt lat="43.90659" lon="7.56211">
        <ele>1090.4664771328</ele>
        <time>2021-11-02T13:43:54Z</time>
      </trkpt>
      <trkpt lat="43.90658" lon="7.5621">
        <ele>1090.4664750569</ele>
        <time>2021-11-02T13:43:55Z</time>
      </trkpt>
      <trkpt lat="43.90658" lon="7.56207">
        <ele>1089.4664731746</ele>
        <time>2021-11-02T13:43:57Z</time>
      </trkpt>
      <trkpt lat="43.90657" lon="7.56206">
        <ele>1089.46648538</ele>
        <time>2021-11-02T13:43:58Z</time>
      </trkpt>
      <trkpt lat="43.90657" lon="7.56206">
        <ele>1089.466499366</ele>
        <time>2021-11-02T13:43:59Z</time>
      </trkpt>
      <trkpt lat="43.90656" lon="7.56206">
        <ele>1089.4665345166</ele>
        <time>2021-11-02T13:44:00Z</time>
      </trkpt>
      <trkpt lat="43.90656" lon="7.56206">
        <ele>1088.4665491287</ele>
        <time>2021-11-02T13:44:01Z</time>
      </trkpt>
      <trkpt lat="43.90655" lon="7.56204">
        <ele>1088.4665458208</ele>
        <time>2021-11-02T13:44:02Z</time>
      </trkpt>
      <trkpt lat="43.90655" lon="7.56203">
        <ele>1087.4665329204</ele>
        <time>2021-11-02T13:44:05Z</time>
      </trkpt>
      <trkpt lat="43.90654" lon="7.56203">
        <ele>1087.4665758545</ele>
        <time>2021-11-02T13:44:06Z</time>
      </trkpt>
      <trkpt lat="43.90653" lon="7.56203">
        <ele>1087.4666327319</ele>
        <time>2021-11-02T13:44:07Z</time>
      </trkpt>
      <trkpt lat="43.90652" lon="7.56203">
        <ele>1087.4666744543</ele>
        <time>2021-11-02T13:44:08Z</time>
      </trkpt>
      <trkpt lat="43.90652" lon="7.56202">
        <ele>1088.4667117437</ele>
        <time>2021-11-02T13:44:09Z</time>
      </trkpt>
      <trkpt lat="43.90651" lon="7.56202">
        <ele>1088.4667348849</ele>
        <time>2021-11-02T13:44:10Z</time>
      </trkpt>
      <trkpt lat="43.90651" lon="7.56202">
        <ele>1088.4667531398</ele>
        <time>2021-11-02T13:44:11Z</time>
      </trkpt>
      <trkpt lat="43.90649" lon="7.56202">
        <ele>1088.4668103808</ele>
        <time>2021-11-02T13:44:12Z</time>
      </trkpt>
      <trkpt lat="43.90649" lon="7.56201">
        <ele>1089.4668496808</ele>
        <time>2021-11-02T13:44:13Z</time>
      </trkpt>
      <trkpt lat="43.90648" lon="7.56201">
        <ele>1089.4668691446</ele>
        <time>2021-11-02T13:44:14Z</time>
      </trkpt>
      <trkpt lat="43.90648" lon="7.562">
        <ele>1089.4668553488</ele>
        <time>2021-11-02T13:44:15Z</time>
      </trkpt>
      <trkpt lat="43.90648" lon="7.56199">
        <ele>1089.4668661531</ele>
        <time>2021-11-02T13:44:16Z</time>
      </trkpt>
      <trkpt lat="43.90647" lon="7.56199">
        <ele>1088.4668943996</ele>
        <time>2021-11-02T13:44:17Z</time>
      </trkpt>
      <trkpt lat="43.90646" lon="7.56199">
        <ele>1088.4669207594</ele>
        <time>2021-11-02T13:44:18Z</time>
      </trkpt>
      <trkpt lat="43.90646" lon="7.56199">
        <ele>1087.4669480391</ele>
        <time>2021-11-02T13:44:19Z</time>
      </trkpt>
      <trkpt lat="43.90645" lon="7.56199">
        <ele>1087.4669600517</ele>
        <time>2021-11-02T13:44:20Z</time>
      </trkpt>
      <trkpt lat="43.90645" lon="7.56198">
        <ele>1088.4669991318</ele>
        <time>2021-11-02T13:44:21Z</time>
      </trkpt>
      <trkpt lat="43.90644" lon="7.56198">
        <ele>1088.4670299692</ele>
        <time>2021-11-02T13:44:22Z</time>
      </trkpt>
      <trkpt lat="43.90643" lon="7.56199">
        <ele>1088.4670781234</ele>
        <time>2021-11-02T13:44:23Z</time>
      </trkpt>
      <trkpt lat="43.90642" lon="7.56199">
        <ele>1088.4671408842</ele>
        <time>2021-11-02T13:44:24Z</time>
      </trkpt>
      <trkpt lat="43.9064" lon="7.56199">
        <ele>1088.467247496</ele>
        <time>2021-11-02T13:44:26Z</time>
      </trkpt>
      <trkpt lat="43.90639" lon="7.56199">
        <ele>1088.4672900489</ele>
        <time>2021-11-02T13:44:27Z</time>
      </trkpt>
      <trkpt lat="43.90638" lon="7.56199">
        <ele>1088.4673362006</ele>
        <time>2021-11-02T13:44:28Z</time>
      </trkpt>
      <trkpt lat="43.90637" lon="7.562">
        <ele>1089.4674027291</ele>
        <time>2021-11-02T13:44:29Z</time>
      </trkpt>
      <trkpt lat="43.90636" lon="7.56199">
        <ele>1089.4674537323</ele>
        <time>2021-11-02T13:44:30Z</time>
      </trkpt>
      <trkpt lat="43.90635" lon="7.56199">
        <ele>1090.4674999641</ele>
        <time>2021-11-02T13:44:31Z</time>
      </trkpt>
      <trkpt lat="43.90633" lon="7.562">
        <ele>1090.4675823563</ele>
        <time>2021-11-02T13:44:32Z</time>
      </trkpt>
      <trkpt lat="43.90632" lon="7.562">
        <ele>1090.467634788</ele>
        <time>2021-11-02T13:44:33Z</time>
      </trkpt>
      <trkpt lat="43.90631" lon="7.562">
        <ele>1090.4677057118</ele>
        <time>2021-11-02T13:44:34Z</time>
      </trkpt>
      <trkpt lat="43.9063" lon="7.562">
        <ele>1089.4677408995</ele>
        <time>2021-11-02T13:44:35Z</time>
      </trkpt>
      <trkpt lat="43.9063" lon="7.562">
        <ele>1089.4677657162</ele>
        <time>2021-11-02T13:44:36Z</time>
      </trkpt>
      <trkpt lat="43.90629" lon="7.56201">
        <ele>1090.4678046063</ele>
        <time>2021-11-02T13:44:37Z</time>
      </trkpt>
      <trkpt lat="43.90629" lon="7.56203">
        <ele>1090.467840031</ele>
        <time>2021-11-02T13:44:38Z</time>
      </trkpt>
      <trkpt lat="43.90628" lon="7.56204">
        <ele>1091.4678843658</ele>
        <time>2021-11-02T13:44:39Z</time>
      </trkpt>
      <trkpt lat="43.90628" lon="7.56205">
        <ele>1091.4679292403</ele>
        <time>2021-11-02T13:44:40Z</time>
      </trkpt>
      <trkpt lat="43.90626" lon="7.56206">
        <ele>1091.4680602482</ele>
        <time>2021-11-02T13:44:42Z</time>
      </trkpt>
      <trkpt lat="43.90625" lon="7.56206">
        <ele>1091.4680985167</ele>
        <time>2021-11-02T13:44:43Z</time>
      </trkpt>
      <trkpt lat="43.90625" lon="7.56207">
        <ele>1091.4681053104</ele>
        <time>2021-11-02T13:44:44Z</time>
      </trkpt>
      <trkpt lat="43.90624" lon="7.56208">
        <ele>1091.46817121</ele>
        <time>2021-11-02T13:44:45Z</time>
      </trkpt>
      <trkpt lat="43.90623" lon="7.56209">
        <ele>1092.4682567418</ele>
        <time>2021-11-02T13:44:46Z</time>
      </trkpt>
      <trkpt lat="43.90622" lon="7.5621">
        <ele>1092.4683106656</ele>
        <time>2021-11-02T13:44:47Z</time>
      </trkpt>
      <trkpt lat="43.90621" lon="7.5621">
        <ele>1091.4683515743</ele>
        <time>2021-11-02T13:44:48Z</time>
      </trkpt>
      <trkpt lat="43.9062" lon="7.56211">
        <ele>1091.4684300222</ele>
        <time>2021-11-02T13:44:49Z</time>
      </trkpt>
      <trkpt lat="43.90619" lon="7.56211">
        <ele>1091.4684922766</ele>
        <time>2021-11-02T13:44:50Z</time>
      </trkpt>
      <trkpt lat="43.90618" lon="7.56212">
        <ele>1091.4685323092</ele>
        <time>2021-11-02T13:44:51Z</time>
      </trkpt>
      <trkpt lat="43.90617" lon="7.56212">
        <ele>1091.4685629632</ele>
        <time>2021-11-02T13:44:52Z</time>
      </trkpt>
      <trkpt lat="43.90616" lon="7.56213">
        <ele>1092.4686160088</ele>
        <time>2021-11-02T13:44:53Z</time>
      </trkpt>
      <trkpt lat="43.90615" lon="7.56213">
        <ele>1093.468676262</ele>
        <time>2021-11-02T13:44:54Z</time>
      </trkpt>
      <trkpt lat="43.90614" lon="7.56214">
        <ele>1092.4687346785</ele>
        <time>2021-11-02T13:44:55Z</time>
      </trkpt>
      <trkpt lat="43.90612" lon="7.56215">
        <ele>1092.4688822061</ele>
        <time>2021-11-02T13:44:57Z</time>
      </trkpt>
      <trkpt lat="43.9061" lon="7.56216">
        <ele>1092.4689855083</ele>
        <time>2021-11-02T13:44:59Z</time>
      </trkpt>
      <trkpt lat="43.90609" lon="7.56216">
        <ele>1092.469044213</ele>
        <time>2021-11-02T13:45:00Z</time>
      </trkpt>
      <trkpt lat="43.90608" lon="7.56216">
        <ele>1092.4690843896</ele>
        <time>2021-11-02T13:45:01Z</time>
      </trkpt>
      <trkpt lat="43.90607" lon="7.56216">
        <ele>1092.4691567901</ele>
        <time>2021-11-02T13:45:02Z</time>
      </trkpt>
      <trkpt lat="43.90606" lon="7.56216">
        <ele>1092.4691966266</ele>
        <time>2021-11-02T13:45:03Z</time>
      </trkpt>
      <trkpt lat="43.90605" lon="7.56216">
        <ele>1091.4692631655</ele>
        <time>2021-11-02T13:45:04Z</time>
      </trkpt>
      <trkpt lat="43.90604" lon="7.56216">
        <ele>1092.4693051703</ele>
        <time>2021-11-02T13:45:05Z</time>
      </trkpt>
      <trkpt lat="43.90603" lon="7.56216">
        <ele>1092.4693450263</ele>
        <time>2021-11-02T13:45:06Z</time>
      </trkpt>
      <trkpt lat="43.90602" lon="7.56214">
        <ele>1092.46935782</ele>
        <time>2021-11-02T13:45:07Z</time>
      </trkpt>
      <trkpt lat="43.90601" lon="7.56213">
        <ele>1091.4693767588</ele>
        <time>2021-11-02T13:45:08Z</time>
      </trkpt>
      <trkpt lat="43.906" lon="7.56212">
        <ele>1091.4694048703</ele>
        <time>2021-11-02T13:45:09Z</time>
      </trkpt>
      <trkpt lat="43.906" lon="7.56211">
        <ele>1091.46942611</ele>
        <time>2021-11-02T13:45:10Z</time>
      </trkpt>
      <trkpt lat="43.90598" lon="7.56211">
        <ele>1089.4695141468</ele>
        <time>2021-11-02T13:45:12Z</time>
      </trkpt>
      <trkpt lat="43.90597" lon="7.56211">
        <ele>1088.4695581592</ele>
        <time>2021-11-02T13:45:13Z</time>
      </trkpt>
      <trkpt lat="43.90596" lon="7.5621">
        <ele>1088.469587636</ele>
        <time>2021-11-02T13:45:15Z</time>
      </trkpt>
      <trkpt lat="43.90596" lon="7.56211">
        <ele>1088.4696233219</ele>
        <time>2021-11-02T13:45:16Z</time>
      </trkpt>
      <trkpt lat="43.90595" lon="7.56211">
        <ele>1088.4696616752</ele>
        <time>2021-11-02T13:45:17Z</time>
      </trkpt>
      <trkpt lat="43.90594" lon="7.56211">
        <ele>1088.4697194467</ele>
        <time>2021-11-02T13:45:18Z</time>
      </trkpt>
      <trkpt lat="43.90593" lon="7.56211">
        <ele>1088.4697762866</ele>
        <time>2021-11-02T13:45:19Z</time>
      </trkpt>
      <trkpt lat="43.90592" lon="7.56211">
        <ele>1087.4698086088</ele>
        <time>2021-11-02T13:45:20Z</time>
      </trkpt>
      <trkpt lat="43.90592" lon="7.56211">
        <ele>1087.4698382014</ele>
        <time>2021-11-02T13:45:21Z</time>
      </trkpt>
      <trkpt lat="43.9059" lon="7.56211">
        <ele>1087.469902865</ele>
        <time>2021-11-02T13:45:22Z</time>
      </trkpt>
      <trkpt lat="43.90589" lon="7.56211">
        <ele>1087.4699599363</ele>
        <time>2021-11-02T13:45:23Z</time>
      </trkpt>
      <trkpt lat="43.90588" lon="7.56211">
        <ele>1087.4700123781</ele>
        <time>2021-11-02T13:45:24Z</time>
      </trkpt>
      <trkpt lat="43.90587" lon="7.56211">
        <ele>1087.4700699456</ele>
        <time>2021-11-02T13:45:25Z</time>
      </trkpt>
      <trkpt lat="43.90586" lon="7.56211">
        <ele>1086.4701146004</ele>
        <time>2021-11-02T13:45:26Z</time>
      </trkpt>
      <trkpt lat="43.90585" lon="7.56212">
        <ele>1086.4701625378</ele>
        <time>2021-11-02T13:45:27Z</time>
      </trkpt>
      <trkpt lat="43.90584" lon="7.56212">
        <ele>1085.4702266155</ele>
        <time>2021-11-02T13:45:28Z</time>
      </trkpt>
      <trkpt lat="43.90583" lon="7.56212">
        <ele>1086.4702816304</ele>
        <time>2021-11-02T13:45:29Z</time>
      </trkpt>
      <trkpt lat="43.90582" lon="7.56212">
        <ele>1085.470330688</ele>
        <time>2021-11-02T13:45:30Z</time>
      </trkpt>
      <trkpt lat="43.90581" lon="7.56212">
        <ele>1085.4703866073</ele>
        <time>2021-11-02T13:45:31Z</time>
      </trkpt>
      <trkpt lat="43.9058" lon="7.56211">
        <ele>1086.4704321266</ele>
        <time>2021-11-02T13:45:32Z</time>
      </trkpt>
      <trkpt lat="43.90578" lon="7.56211">
        <ele>1085.4704885915</ele>
        <time>2021-11-02T13:45:33Z</time>
      </trkpt>
      <trkpt lat="43.90578" lon="7.56211">
        <ele>1086.470531641</ele>
        <time>2021-11-02T13:45:34Z</time>
      </trkpt>
      <trkpt lat="43.90577" lon="7.56211">
        <ele>1086.470569467</ele>
        <time>2021-11-02T13:45:35Z</time>
      </trkpt>
      <trkpt lat="43.90576" lon="7.56212">
        <ele>1086.4706109344</ele>
        <time>2021-11-02T13:45:36Z</time>
      </trkpt>
      <trkpt lat="43.90576" lon="7.56212">
        <ele>1085.4706384344</ele>
        <time>2021-11-02T13:45:37Z</time>
      </trkpt>
      <trkpt lat="43.90575" lon="7.56212">
        <ele>1085.470692595</ele>
        <time>2021-11-02T13:45:38Z</time>
      </trkpt>
      <trkpt lat="43.90574" lon="7.56212">
        <ele>1086.4707433084</ele>
        <time>2021-11-02T13:45:39Z</time>
      </trkpt>
      <trkpt lat="43.90573" lon="7.56212">
        <ele>1086.4707961462</ele>
        <time>2021-11-02T13:45:40Z</time>
      </trkpt>
      <trkpt lat="43.90572" lon="7.56212">
        <ele>1086.4708295942</ele>
        <time>2021-11-02T13:45:41Z</time>
      </trkpt>
      <trkpt lat="43.90571" lon="7.56213">
        <ele>1086.4708788701</ele>
        <time>2021-11-02T13:45:42Z</time>
      </trkpt>
      <trkpt lat="43.9057" lon="7.56212">
        <ele>1085.4709350745</ele>
        <time>2021-11-02T13:45:43Z</time>
      </trkpt>
      <trkpt lat="43.90569" lon="7.56211">
        <ele>1086.4709746929</ele>
        <time>2021-11-02T13:45:44Z</time>
      </trkpt>
      <trkpt lat="43.90568" lon="7.56211">
        <ele>1086.471006008</ele>
        <time>2021-11-02T13:45:45Z</time>
      </trkpt>
      <trkpt lat="43.90567" lon="7.56211">
        <ele>1086.471061123</ele>
        <time>2021-11-02T13:45:46Z</time>
      </trkpt>
      <trkpt lat="43.90567" lon="7.5621">
        <ele>1085.471069213</ele>
        <time>2021-11-02T13:45:47Z</time>
      </trkpt>
      <trkpt lat="43.90567" lon="7.56209">
        <ele>1085.4710257749</ele>
        <time>2021-11-02T13:45:48Z</time>
      </trkpt>
      <trkpt lat="43.90568" lon="7.56207">
        <ele>1085.470949731</ele>
        <time>2021-11-02T13:45:49Z</time>
      </trkpt>
      <trkpt lat="43.90569" lon="7.56206">
        <ele>1085.4709105566</ele>
        <time>2021-11-02T13:45:50Z</time>
      </trkpt>
      <trkpt lat="43.90569" lon="7.56206">
        <ele>1085.4708891318</ele>
        <time>2021-11-02T13:45:58Z</time>
      </trkpt>
      <trkpt lat="43.90567" lon="7.56208">
        <ele>1083.4710308944</ele>
        <time>2021-11-02T13:45:59Z</time>
      </trkpt>
      <trkpt lat="43.90566" lon="7.56209">
        <ele>1082.4710840318</ele>
        <time>2021-11-02T13:46:00Z</time>
      </trkpt>
      <trkpt lat="43.90565" lon="7.56209">
        <ele>1082.4711220024</ele>
        <time>2021-11-02T13:46:01Z</time>
      </trkpt>
      <trkpt lat="43.90564" lon="7.5621">
        <ele>1082.4711723789</ele>
        <time>2021-11-02T13:46:02Z</time>
      </trkpt>
      <trkpt lat="43.90563" lon="7.5621">
        <ele>1082.4712296095</ele>
        <time>2021-11-02T13:46:03Z</time>
      </trkpt>
      <trkpt lat="43.90563" lon="7.56211">
        <ele>1082.4712821508</ele>
        <time>2021-11-02T13:46:04Z</time>
      </trkpt>
      <trkpt lat="43.90562" lon="7.56212">
        <ele>1082.4713304156</ele>
        <time>2021-11-02T13:46:05Z</time>
      </trkpt>
      <trkpt lat="43.90561" lon="7.56212">
        <ele>1082.4713917037</ele>
        <time>2021-11-02T13:46:06Z</time>
      </trkpt>
      <trkpt lat="43.90559" lon="7.56211">
        <ele>1082.471463955</ele>
        <time>2021-11-02T13:46:07Z</time>
      </trkpt>
      <trkpt lat="43.90558" lon="7.56212">
        <ele>1081.471511361</ele>
        <time>2021-11-02T13:46:08Z</time>
      </trkpt>
      <trkpt lat="43.90558" lon="7.56212">
        <ele>1081.471543606</ele>
        <time>2021-11-02T13:46:09Z</time>
      </trkpt>
      <trkpt lat="43.90557" lon="7.56213">
        <ele>1081.4715890147</ele>
        <time>2021-11-02T13:46:10Z</time>
      </trkpt>
      <trkpt lat="43.90556" lon="7.56213">
        <ele>1081.4716483126</ele>
        <time>2021-11-02T13:46:11Z</time>
      </trkpt>
      <trkpt lat="43.90555" lon="7.56213">
        <ele>1081.4716970239</ele>
        <time>2021-11-02T13:46:12Z</time>
      </trkpt>
      <trkpt lat="43.90554" lon="7.56212">
        <ele>1081.4717202338</ele>
        <time>2021-11-02T13:46:13Z</time>
      </trkpt>
      <trkpt lat="43.90553" lon="7.56212">
        <ele>1081.4717506524</ele>
        <time>2021-11-02T13:46:14Z</time>
      </trkpt>
      <trkpt lat="43.90554" lon="7.56211">
        <ele>1081.4717377637</ele>
        <time>2021-11-02T13:46:15Z</time>
      </trkpt>
      <trkpt lat="43.90554" lon="7.5621">
        <ele>1081.4717160679</ele>
        <time>2021-11-02T13:46:16Z</time>
      </trkpt>
      <trkpt lat="43.90554" lon="7.56209">
        <ele>1082.4716909953</ele>
        <time>2021-11-02T13:46:17Z</time>
      </trkpt>
      <trkpt lat="43.90554" lon="7.56207">
        <ele>1082.4716588736</ele>
        <time>2021-11-02T13:46:18Z</time>
      </trkpt>
      <trkpt lat="43.90554" lon="7.56207">
        <ele>1082.4716588736</ele>
        <time>2021-11-02T13:46:20Z</time>
      </trkpt>
      <trkpt lat="43.90555" lon="7.56205">
        <ele>1082.4715730414</ele>
        <time>2021-11-02T13:46:21Z</time>
      </trkpt>
      <trkpt lat="43.90555" lon="7.56204">
        <ele>1084.4715377431</ele>
        <time>2021-11-02T13:46:31Z</time>
      </trkpt>
      <trkpt lat="43.90555" lon="7.56205">
        <ele>1085.4715509777</ele>
        <time>2021-11-02T13:46:32Z</time>
      </trkpt>
      <trkpt lat="43.90555" lon="7.56206">
        <ele>1085.4715696742</ele>
        <time>2021-11-02T13:46:33Z</time>
      </trkpt>
      <trkpt lat="43.90555" lon="7.56207">
        <ele>1086.4716095831</ele>
        <time>2021-11-02T13:46:34Z</time>
      </trkpt>
      <trkpt lat="43.90554" lon="7.56208">
        <ele>1086.4716538659</ele>
        <time>2021-11-02T13:46:35Z</time>
      </trkpt>
      <trkpt lat="43.90553" lon="7.56208">
        <ele>1085.4717127411</ele>
        <time>2021-11-02T13:46:36Z</time>
      </trkpt>
      <trkpt lat="43.90552" lon="7.56209">
        <ele>1085.4717547397</ele>
        <time>2021-11-02T13:46:37Z</time>
      </trkpt>
      <trkpt lat="43.90552" lon="7.56209">
        <ele>1085.471802766</ele>
        <time>2021-11-02T13:46:38Z</time>
      </trkpt>
      <trkpt lat="43.90551" lon="7.5621">
        <ele>1086.4718307376</ele>
        <time>2021-11-02T13:46:40Z</time>
      </trkpt>
      <trkpt lat="43.90551" lon="7.56211">
        <ele>1086.4718623236</ele>
        <time>2021-11-02T13:46:41Z</time>
      </trkpt>
      <trkpt lat="43.90551" lon="7.56213">
        <ele>1086.4718870538</ele>
        <time>2021-11-02T13:46:42Z</time>
      </trkpt>
      <trkpt lat="43.9055" lon="7.56213">
        <ele>1086.4719241145</ele>
        <time>2021-11-02T13:46:44Z</time>
      </trkpt>
      <trkpt lat="43.9055" lon="7.56214">
        <ele>1086.4719708234</ele>
        <time>2021-11-02T13:46:45Z</time>
      </trkpt>
      <trkpt lat="43.90548" lon="7.56214">
        <ele>1085.4720405033</ele>
        <time>2021-11-02T13:46:46Z</time>
      </trkpt>
      <trkpt lat="43.90548" lon="7.56214">
        <ele>1084.472073046</ele>
        <time>2021-11-02T13:46:47Z</time>
      </trkpt>
      <trkpt lat="43.90547" lon="7.56214">
        <ele>1084.4721201375</ele>
        <time>2021-11-02T13:46:52Z</time>
      </trkpt>
      <trkpt lat="43.90545" lon="7.56213">
        <ele>1084.4722039724</ele>
        <time>2021-11-02T13:46:53Z</time>
      </trkpt>
      <trkpt lat="43.90544" lon="7.56212">
        <ele>1084.4722557005</ele>
        <time>2021-11-02T13:46:54Z</time>
      </trkpt>
      <trkpt lat="43.90541" lon="7.56212">
        <ele>1085.4723691127</ele>
        <time>2021-11-02T13:46:56Z</time>
      </trkpt>
      <trkpt lat="43.9054" lon="7.56212">
        <ele>1085.4724166273</ele>
        <time>2021-11-02T13:46:57Z</time>
      </trkpt>
      <trkpt lat="43.90538" lon="7.56211">
        <ele>1085.4725001453</ele>
        <time>2021-11-02T13:46:58Z</time>
      </trkpt>
      <trkpt lat="43.90537" lon="7.56212">
        <ele>1085.4725801291</ele>
        <time>2021-11-02T13:47:00Z</time>
      </trkpt>
      <trkpt lat="43.90536" lon="7.56212">
        <ele>1084.4726379894</ele>
        <time>2021-11-02T13:47:02Z</time>
      </trkpt>
      <trkpt lat="43.90535" lon="7.56212">
        <ele>1084.4726715826</ele>
        <time>2021-11-02T13:47:03Z</time>
      </trkpt>
      <trkpt lat="43.90534" lon="7.56212">
        <ele>1083.4727206117</ele>
        <time>2021-11-02T13:47:04Z</time>
      </trkpt>
      <trkpt lat="43.90533" lon="7.56212">
        <ele>1084.4727556768</ele>
        <time>2021-11-02T13:47:06Z</time>
      </trkpt>
      <trkpt lat="43.90533" lon="7.56213">
        <ele>1084.4727720575</ele>
        <time>2021-11-02T13:47:07Z</time>
      </trkpt>
      <trkpt lat="43.90533" lon="7.56214">
        <ele>1084.4728265225</ele>
        <time>2021-11-02T13:47:08Z</time>
      </trkpt>
      <trkpt lat="43.90532" lon="7.56215">
        <ele>1083.4728764187</ele>
        <time>2021-11-02T13:47:09Z</time>
      </trkpt>
      <trkpt lat="43.9053" lon="7.56216">
        <ele>1082.4729904739</ele>
        <time>2021-11-02T13:47:11Z</time>
      </trkpt>
      <trkpt lat="43.90529" lon="7.56216">
        <ele>1081.4730390357</ele>
        <time>2021-11-02T13:47:12Z</time>
      </trkpt>
      <trkpt lat="43.90528" lon="7.56216">
        <ele>1080.4730971525</ele>
        <time>2021-11-02T13:47:13Z</time>
      </trkpt>
      <trkpt lat="43.90526" lon="7.56215">
        <ele>1079.4731700851</ele>
        <time>2021-11-02T13:47:15Z</time>
      </trkpt>
      <trkpt lat="43.90525" lon="7.56215">
        <ele>1078.473216262</ele>
        <time>2021-11-02T13:47:16Z</time>
      </trkpt>
      <trkpt lat="43.90524" lon="7.56215">
        <ele>1078.4732694053</ele>
        <time>2021-11-02T13:47:17Z</time>
      </trkpt>
      <trkpt lat="43.90523" lon="7.56216">
        <ele>1077.473326519</ele>
        <time>2021-11-02T13:47:18Z</time>
      </trkpt>
      <trkpt lat="43.90522" lon="7.56216">
        <ele>1077.4733825195</ele>
        <time>2021-11-02T13:47:19Z</time>
      </trkpt>
      <trkpt lat="43.9052" lon="7.56216">
        <ele>1076.4734711937</ele>
        <time>2021-11-02T13:47:21Z</time>
      </trkpt>
      <trkpt lat="43.90519" lon="7.56215">
        <ele>1076.4735021734</ele>
        <time>2021-11-02T13:47:22Z</time>
      </trkpt>
      <trkpt lat="43.90518" lon="7.56214">
        <ele>1076.4735299502</ele>
        <time>2021-11-02T13:47:23Z</time>
      </trkpt>
      <trkpt lat="43.90518" lon="7.56212">
        <ele>1076.4735467241</ele>
        <time>2021-11-02T13:47:24Z</time>
      </trkpt>
      <trkpt lat="43.90517" lon="7.56211">
        <ele>1076.4735709661</ele>
        <time>2021-11-02T13:47:26Z</time>
      </trkpt>
      <trkpt lat="43.90516" lon="7.56211">
        <ele>1076.4736206655</ele>
        <time>2021-11-02T13:47:27Z</time>
      </trkpt>
      <trkpt lat="43.90515" lon="7.56211">
        <ele>1076.4736646899</ele>
        <time>2021-11-02T13:47:28Z</time>
      </trkpt>
      <trkpt lat="43.90512" lon="7.5621">
        <ele>1076.4737797319</ele>
        <time>2021-11-02T13:47:30Z</time>
      </trkpt>
      <trkpt lat="43.90511" lon="7.5621">
        <ele>1076.4738174756</ele>
        <time>2021-11-02T13:47:31Z</time>
      </trkpt>
      <trkpt lat="43.90511" lon="7.5621">
        <ele>1076.4738601173</ele>
        <time>2021-11-02T13:47:32Z</time>
      </trkpt>
      <trkpt lat="43.90511" lon="7.56209">
        <ele>1076.4738293937</ele>
        <time>2021-11-02T13:47:33Z</time>
      </trkpt>
      <trkpt lat="43.90511" lon="7.56207">
        <ele>1076.473786101</ele>
        <time>2021-11-02T13:47:34Z</time>
      </trkpt>
      <trkpt lat="43.90511" lon="7.56206">
        <ele>1076.4737904438</ele>
        <time>2021-11-02T13:47:35Z</time>
      </trkpt>
      <trkpt lat="43.90511" lon="7.56205">
        <ele>1076.4737828352</ele>
        <time>2021-11-02T13:47:36Z</time>
      </trkpt>
      <trkpt lat="43.9051" lon="7.56204">
        <ele>1076.4737843912</ele>
        <time>2021-11-02T13:47:37Z</time>
      </trkpt>
      <trkpt lat="43.9051" lon="7.56203">
        <ele>1076.4738059317</ele>
        <time>2021-11-02T13:47:38Z</time>
      </trkpt>
      <trkpt lat="43.90509" lon="7.56203">
        <ele>1076.4738445514</ele>
        <time>2021-11-02T13:47:39Z</time>
      </trkpt>
      <trkpt lat="43.90507" lon="7.56203">
        <ele>1076.4739173595</ele>
        <time>2021-11-02T13:47:41Z</time>
      </trkpt>
      <trkpt lat="43.90506" lon="7.56203">
        <ele>1076.4739684294</ele>
        <time>2021-11-02T13:47:42Z</time>
      </trkpt>
      <trkpt lat="43.90506" lon="7.56203">
        <ele>1077.4740077097</ele>
        <time>2021-11-02T13:47:43Z</time>
      </trkpt>
      <trkpt lat="43.90505" lon="7.56204">
        <ele>1077.4740583875</ele>
        <time>2021-11-02T13:47:44Z</time>
      </trkpt>
      <trkpt lat="43.90504" lon="7.56204">
        <ele>1077.4741043644</ele>
        <time>2021-11-02T13:47:45Z</time>
      </trkpt>
      <trkpt lat="43.90503" lon="7.56205">
        <ele>1078.4741597766</ele>
        <time>2021-11-02T13:47:46Z</time>
      </trkpt>
      <trkpt lat="43.90502" lon="7.56206">
        <ele>1078.4742109241</ele>
        <time>2021-11-02T13:47:47Z</time>
      </trkpt>
      <trkpt lat="43.90502" lon="7.56207">
        <ele>1078.4742554865</ele>
        <time>2021-11-02T13:47:48Z</time>
      </trkpt>
      <trkpt lat="43.90501" lon="7.56207">
        <ele>1078.4743100953</ele>
        <time>2021-11-02T13:47:49Z</time>
      </trkpt>
      <trkpt lat="43.905" lon="7.56209">
        <ele>1078.4743860889</ele>
        <time>2021-11-02T13:47:50Z</time>
      </trkpt>
      <trkpt lat="43.90499" lon="7.56209">
        <ele>1078.4744462702</ele>
        <time>2021-11-02T13:47:51Z</time>
      </trkpt>
      <trkpt lat="43.90498" lon="7.56209">
        <ele>1078.4744993355</ele>
        <time>2021-11-02T13:47:52Z</time>
      </trkpt>
      <trkpt lat="43.90497" lon="7.56209">
        <ele>1078.4745494039</ele>
        <time>2021-11-02T13:47:53Z</time>
      </trkpt>
      <trkpt lat="43.90496" lon="7.56209">
        <ele>1077.4745930693</ele>
        <time>2021-11-02T13:47:54Z</time>
      </trkpt>
      <trkpt lat="43.90494" lon="7.56209">
        <ele>1077.4746524834</ele>
        <time>2021-11-02T13:47:55Z</time>
      </trkpt>
      <trkpt lat="43.90493" lon="7.56209">
        <ele>1077.4747169654</ele>
        <time>2021-11-02T13:47:56Z</time>
      </trkpt>
      <trkpt lat="43.90493" lon="7.56209">
        <ele>1078.4747458545</ele>
        <time>2021-11-02T13:47:57Z</time>
      </trkpt>
      <trkpt lat="43.90492" lon="7.56209">
        <ele>1078.4747878002</ele>
        <time>2021-11-02T13:47:58Z</time>
      </trkpt>
      <trkpt lat="43.90491" lon="7.56209">
        <ele>1078.4748267017</ele>
        <time>2021-11-02T13:47:59Z</time>
      </trkpt>
      <trkpt lat="43.9049" lon="7.56209">
        <ele>1078.474890519</ele>
        <time>2021-11-02T13:48:00Z</time>
      </trkpt>
      <trkpt lat="43.90489" lon="7.56209">
        <ele>1078.4749346589</ele>
        <time>2021-11-02T13:48:01Z</time>
      </trkpt>
      <trkpt lat="43.90487" lon="7.56209">
        <ele>1079.4749970013</ele>
        <time>2021-11-02T13:48:02Z</time>
      </trkpt>
      <trkpt lat="43.90486" lon="7.56209">
        <ele>1079.4750539732</ele>
        <time>2021-11-02T13:48:03Z</time>
      </trkpt>
      <trkpt lat="43.90486" lon="7.56209">
        <ele>1079.4750939286</ele>
        <time>2021-11-02T13:48:04Z</time>
      </trkpt>
      <trkpt lat="43.90485" lon="7.56209">
        <ele>1079.4751302092</ele>
        <time>2021-11-02T13:48:05Z</time>
      </trkpt>
      <trkpt lat="43.90484" lon="7.56209">
        <ele>1079.4751804757</ele>
        <time>2021-11-02T13:48:06Z</time>
      </trkpt>
      <trkpt lat="43.90483" lon="7.5621">
        <ele>1079.4752275943</ele>
        <time>2021-11-02T13:48:07Z</time>
      </trkpt>
      <trkpt lat="43.90483" lon="7.56211">
        <ele>1078.475270908</ele>
        <time>2021-11-02T13:48:08Z</time>
      </trkpt>
      <trkpt lat="43.90482" lon="7.56212">
        <ele>1079.4753320028</ele>
        <time>2021-11-02T13:48:09Z</time>
      </trkpt>
      <trkpt lat="43.90481" lon="7.56212">
        <ele>1079.4753615248</ele>
        <time>2021-11-02T13:48:10Z</time>
      </trkpt>
      <trkpt lat="43.9048" lon="7.56213">
        <ele>1079.4754134083</ele>
        <time>2021-11-02T13:48:11Z</time>
      </trkpt>
      <trkpt lat="43.9048" lon="7.56213">
        <ele>1078.4754393446</ele>
        <time>2021-11-02T13:48:12Z</time>
      </trkpt>
      <trkpt lat="43.90479" lon="7.56214">
        <ele>1079.4754806779</ele>
        <time>2021-11-02T13:48:13Z</time>
      </trkpt>
      <trkpt lat="43.90478" lon="7.56214">
        <ele>1079.4755374102</ele>
        <time>2021-11-02T13:48:14Z</time>
      </trkpt>
      <trkpt lat="43.90477" lon="7.56214">
        <ele>1079.475605282</ele>
        <time>2021-11-02T13:48:15Z</time>
      </trkpt>
      <trkpt lat="43.90476" lon="7.56214">
        <ele>1078.4756815093</ele>
        <time>2021-11-02T13:48:16Z</time>
      </trkpt>
      <trkpt lat="43.90474" lon="7.56214">
        <ele>1077.4757354508</ele>
        <time>2021-11-02T13:48:17Z</time>
      </trkpt>
      <trkpt lat="43.90474" lon="7.56215">
        <ele>1077.4757849591</ele>
        <time>2021-11-02T13:48:18Z</time>
      </trkpt>
      <trkpt lat="43.90473" lon="7.56215">
        <ele>1077.4757997414</ele>
        <time>2021-11-02T13:48:20Z</time>
      </trkpt>
      <trkpt lat="43.90473" lon="7.56216">
        <ele>1076.47583414</ele>
        <time>2021-11-02T13:48:21Z</time>
      </trkpt>
      <trkpt lat="43.90472" lon="7.56216">
        <ele>1076.4758915102</ele>
        <time>2021-11-02T13:48:22Z</time>
      </trkpt>
      <trkpt lat="43.90471" lon="7.56217">
        <ele>1076.4759577393</ele>
        <time>2021-11-02T13:48:23Z</time>
      </trkpt>
      <trkpt lat="43.9047" lon="7.56217">
        <ele>1075.4760059374</ele>
        <time>2021-11-02T13:48:26Z</time>
      </trkpt>
      <trkpt lat="43.90469" lon="7.56217">
        <ele>1075.4760515262</ele>
        <time>2021-11-02T13:48:27Z</time>
      </trkpt>
      <trkpt lat="43.90469" lon="7.56217">
        <ele>1075.4760515262</ele>
        <time>2021-11-02T13:48:28Z</time>
      </trkpt>
      <trkpt lat="43.90468" lon="7.56219">
        <ele>1075.4761369036</ele>
        <time>2021-11-02T13:48:29Z</time>
      </trkpt>
      <trkpt lat="43.90467" lon="7.56219">
        <ele>1075.4761802095</ele>
        <time>2021-11-02T13:48:30Z</time>
      </trkpt>
      <trkpt lat="43.90466" lon="7.5622">
        <ele>1075.4762364805</ele>
        <time>2021-11-02T13:48:31Z</time>
      </trkpt>
      <trkpt lat="43.90465" lon="7.5622">
        <ele>1075.4762811954</ele>
        <time>2021-11-02T13:48:32Z</time>
      </trkpt>
      <trkpt lat="43.90464" lon="7.5622">
        <ele>1074.4763290423</ele>
        <time>2021-11-02T13:48:33Z</time>
      </trkpt>
      <trkpt lat="43.90463" lon="7.5622">
        <ele>1075.4763963246</ele>
        <time>2021-11-02T13:48:34Z</time>
      </trkpt>
      <trkpt lat="43.90462" lon="7.5622">
        <ele>1075.476455256</ele>
        <time>2021-11-02T13:48:35Z</time>
      </trkpt>
      <trkpt lat="43.90461" lon="7.5622">
        <ele>1074.4765199099</ele>
        <time>2021-11-02T13:48:36Z</time>
      </trkpt>
      <trkpt lat="43.9046" lon="7.5622">
        <ele>1073.4765635233</ele>
        <time>2021-11-02T13:48:37Z</time>
      </trkpt>
      <trkpt lat="43.90459" lon="7.56219">
        <ele>1073.4765901671</ele>
        <time>2021-11-02T13:48:38Z</time>
      </trkpt>
      <trkpt lat="43.90458" lon="7.56219">
        <ele>1072.4766334515</ele>
        <time>2021-11-02T13:48:39Z</time>
      </trkpt>
      <trkpt lat="43.90457" lon="7.56218">
        <ele>1072.4766670448</ele>
        <time>2021-11-02T13:48:40Z</time>
      </trkpt>
      <trkpt lat="43.90456" lon="7.56217">
        <ele>1072.4767006569</ele>
        <time>2021-11-02T13:48:41Z</time>
      </trkpt>
      <trkpt lat="43.90455" lon="7.56216">
        <ele>1072.476720297</ele>
        <time>2021-11-02T13:48:42Z</time>
      </trkpt>
      <trkpt lat="43.90454" lon="7.56215">
        <ele>1072.4767527746</ele>
        <time>2021-11-02T13:48:43Z</time>
      </trkpt>
      <trkpt lat="43.90453" lon="7.56214">
        <ele>1073.476783423</ele>
        <time>2021-11-02T13:48:44Z</time>
      </trkpt>
      <trkpt lat="43.90453" lon="7.56213">
        <ele>1072.4768115497</ele>
        <time>2021-11-02T13:48:45Z</time>
      </trkpt>
      <trkpt lat="43.90452" lon="7.56213">
        <ele>1073.4768446929</ele>
        <time>2021-11-02T13:48:46Z</time>
      </trkpt>
      <trkpt lat="43.90451" lon="7.56213">
        <ele>1073.4768881803</ele>
        <time>2021-11-02T13:48:47Z</time>
      </trkpt>
      <trkpt lat="43.9045" lon="7.56212">
        <ele>1073.4769183789</ele>
        <time>2021-11-02T13:48:48Z</time>
      </trkpt>
      <trkpt lat="43.90449" lon="7.56212">
        <ele>1073.4769475861</ele>
        <time>2021-11-02T13:48:49Z</time>
      </trkpt>
      <trkpt lat="43.90449" lon="7.56212">
        <ele>1073.4769859606</ele>
        <time>2021-11-02T13:48:50Z</time>
      </trkpt>
      <trkpt lat="43.90448" lon="7.56212">
        <ele>1073.4770329859</ele>
        <time>2021-11-02T13:48:51Z</time>
      </trkpt>
      <trkpt lat="43.90447" lon="7.56212">
        <ele>1072.4770783805</ele>
        <time>2021-11-02T13:48:52Z</time>
      </trkpt>
      <trkpt lat="43.90446" lon="7.56212">
        <ele>1072.4771070963</ele>
        <time>2021-11-02T13:48:53Z</time>
      </trkpt>
      <trkpt lat="43.90445" lon="7.56212">
        <ele>1072.4771476303</ele>
        <time>2021-11-02T13:48:54Z</time>
      </trkpt>
      <trkpt lat="43.90444" lon="7.56212">
        <ele>1072.4772089532</ele>
        <time>2021-11-02T13:48:55Z</time>
      </trkpt>
      <trkpt lat="43.90443" lon="7.56213">
        <ele>1073.4772641527</ele>
        <time>2021-11-02T13:48:56Z</time>
      </trkpt>
      <trkpt lat="43.90442" lon="7.56213">
        <ele>1073.4773182454</ele>
        <time>2021-11-02T13:48:57Z</time>
      </trkpt>
      <trkpt lat="43.90441" lon="7.56212">
        <ele>1073.4773681235</ele>
        <time>2021-11-02T13:48:58Z</time>
      </trkpt>
      <trkpt lat="43.9044" lon="7.56212">
        <ele>1072.4773952496</ele>
        <time>2021-11-02T13:48:59Z</time>
      </trkpt>
      <trkpt lat="43.9044" lon="7.5621">
        <ele>1072.4774061834</ele>
        <time>2021-11-02T13:49:00Z</time>
      </trkpt>
      <trkpt lat="43.90439" lon="7.56209">
        <ele>1072.4774043886</ele>
        <time>2021-11-02T13:49:01Z</time>
      </trkpt>
      <trkpt lat="43.90439" lon="7.56207">
        <ele>1071.4773793726</ele>
        <time>2021-11-02T13:49:02Z</time>
      </trkpt>
      <trkpt lat="43.90439" lon="7.56206">
        <ele>1071.4773570224</ele>
        <time>2021-11-02T13:49:03Z</time>
      </trkpt>
      <trkpt lat="43.90438" lon="7.56205">
        <ele>1070.4773909154</ele>
        <time>2021-11-02T13:49:04Z</time>
      </trkpt>
      <trkpt lat="43.90437" lon="7.56203">
        <ele>1069.4774225991</ele>
        <time>2021-11-02T13:49:06Z</time>
      </trkpt>
      <trkpt lat="43.90437" lon="7.56202">
        <ele>1069.4774182985</ele>
        <time>2021-11-02T13:49:07Z</time>
      </trkpt>
      <trkpt lat="43.90437" lon="7.56201">
        <ele>1069.4774128027</ele>
        <time>2021-11-02T13:49:08Z</time>
      </trkpt>
      <trkpt lat="43.90437" lon="7.56199">
        <ele>1068.4773944663</ele>
        <time>2021-11-02T13:49:10Z</time>
      </trkpt>
      <trkpt lat="43.90436" lon="7.56199">
        <ele>1070.4774333011</ele>
        <time>2021-11-02T13:49:12Z</time>
      </trkpt>
      <trkpt lat="43.90435" lon="7.56198">
        <ele>1070.4774636929</ele>
        <time>2021-11-02T13:49:13Z</time>
      </trkpt>
      <trkpt lat="43.90434" lon="7.56198">
        <ele>1070.4775025047</ele>
        <time>2021-11-02T13:49:14Z</time>
      </trkpt>
      <trkpt lat="43.90434" lon="7.56197">
        <ele>1070.4775166744</ele>
        <time>2021-11-02T13:49:15Z</time>
      </trkpt>
      <trkpt lat="43.90433" lon="7.56198">
        <ele>1071.4775556457</ele>
        <time>2021-11-02T13:49:16Z</time>
      </trkpt>
      <trkpt lat="43.90432" lon="7.56199">
        <ele>1073.4776048136</ele>
        <time>2021-11-02T13:49:17Z</time>
      </trkpt>
      <trkpt lat="43.90432" lon="7.562">
        <ele>1073.4776502374</ele>
        <time>2021-11-02T13:49:18Z</time>
      </trkpt>
      <trkpt lat="43.90431" lon="7.56201">
        <ele>1074.4777089693</ele>
        <time>2021-11-02T13:49:19Z</time>
      </trkpt>
      <trkpt lat="43.90429" lon="7.56202">
        <ele>1074.4778004957</ele>
        <time>2021-11-02T13:49:21Z</time>
      </trkpt>
      <trkpt lat="43.90428" lon="7.56202">
        <ele>1074.4778569944</ele>
        <time>2021-11-02T13:49:22Z</time>
      </trkpt>
      <trkpt lat="43.90427" lon="7.56203">
        <ele>1073.4779232526</ele>
        <time>2021-11-02T13:49:23Z</time>
      </trkpt>
      <trkpt lat="43.90425" lon="7.56203">
        <ele>1072.4780408086</ele>
        <time>2021-11-02T13:49:25Z</time>
      </trkpt>
      <trkpt lat="43.90424" lon="7.56204">
        <ele>1072.4780806829</ele>
        <time>2021-11-02T13:49:26Z</time>
      </trkpt>
      <trkpt lat="43.90423" lon="7.56204">
        <ele>1071.4781240152</ele>
        <time>2021-11-02T13:49:27Z</time>
      </trkpt>
      <trkpt lat="43.90423" lon="7.56204">
        <ele>1071.4781568387</ele>
        <time>2021-11-02T13:49:28Z</time>
      </trkpt>
      <trkpt lat="43.90422" lon="7.56205">
        <ele>1071.4782195431</ele>
        <time>2021-11-02T13:49:29Z</time>
      </trkpt>
      <trkpt lat="43.9042" lon="7.56206">
        <ele>1070.478337399</ele>
        <time>2021-11-02T13:49:31Z</time>
      </trkpt>
      <trkpt lat="43.90419" lon="7.56206">
        <ele>1070.4783963862</ele>
        <time>2021-11-02T13:49:32Z</time>
      </trkpt>
      <trkpt lat="43.90418" lon="7.56207">
        <ele>1070.4784613518</ele>
        <time>2021-11-02T13:49:33Z</time>
      </trkpt>
      <trkpt lat="43.90417" lon="7.56207">
        <ele>1069.4785064428</ele>
        <time>2021-11-02T13:49:34Z</time>
      </trkpt>
      <trkpt lat="43.90415" lon="7.56208">
        <ele>1070.4785937581</ele>
        <time>2021-11-02T13:49:36Z</time>
      </trkpt>
      <trkpt lat="43.90415" lon="7.56209">
        <ele>1070.4786152223</ele>
        <time>2021-11-02T13:49:37Z</time>
      </trkpt>
      <trkpt lat="43.90415" lon="7.5621">
        <ele>1070.4786375061</ele>
        <time>2021-11-02T13:49:38Z</time>
      </trkpt>
      <trkpt lat="43.90414" lon="7.5621">
        <ele>1071.4786691185</ele>
        <time>2021-11-02T13:49:39Z</time>
      </trkpt>
      <trkpt lat="43.90414" lon="7.56211">
        <ele>1072.4787059667</ele>
        <time>2021-11-02T13:49:40Z</time>
      </trkpt>
      <trkpt lat="43.90414" lon="7.56214">
        <ele>1072.4787528223</ele>
        <time>2021-11-02T13:49:42Z</time>
      </trkpt>
      <trkpt lat="43.90414" lon="7.56215">
        <ele>1073.4787638933</ele>
        <time>2021-11-02T13:49:43Z</time>
      </trkpt>
      <trkpt lat="43.90414" lon="7.56216">
        <ele>1074.4787632573</ele>
        <time>2021-11-02T13:49:45Z</time>
      </trkpt>
      <trkpt lat="43.90415" lon="7.56218">
        <ele>1076.4787618487</ele>
        <time>2021-11-02T13:49:47Z</time>
      </trkpt>
      <trkpt lat="43.90416" lon="7.5622">
        <ele>1077.4787520314</ele>
        <time>2021-11-02T13:49:48Z</time>
      </trkpt>
      <trkpt lat="43.90416" lon="7.56221">
        <ele>1077.4787529948</ele>
        <time>2021-11-02T13:49:49Z</time>
      </trkpt>
      <trkpt lat="43.90417" lon="7.56223">
        <ele>1077.4787322466</ele>
        <time>2021-11-02T13:49:51Z</time>
      </trkpt>
      <trkpt lat="43.90418" lon="7.56224">
        <ele>1078.4787121561</ele>
        <time>2021-11-02T13:49:52Z</time>
      </trkpt>
      <trkpt lat="43.90418" lon="7.56225">
        <ele>1078.4787002578</ele>
        <time>2021-11-02T13:49:53Z</time>
      </trkpt>
      <trkpt lat="43.9042" lon="7.56228">
        <ele>1078.4786537734</ele>
        <time>2021-11-02T13:49:55Z</time>
      </trkpt>
      <trkpt lat="43.90422" lon="7.56229">
        <ele>1079.4786039811</ele>
        <time>2021-11-02T13:49:57Z</time>
      </trkpt>
      <trkpt lat="43.90422" lon="7.5623">
        <ele>1079.478604929</ele>
        <time>2021-11-02T13:49:58Z</time>
      </trkpt>
      <trkpt lat="43.90422" lon="7.56231">
        <ele>1079.4785966565</ele>
        <time>2021-11-02T13:49:59Z</time>
      </trkpt>
      <trkpt lat="43.90422" lon="7.56231">
        <ele>1079.4786372428</ele>
        <time>2021-11-02T13:50:03Z</time>
      </trkpt>
      <trkpt lat="43.90421" lon="7.56231">
        <ele>1079.4786511564</ele>
        <time>2021-11-02T13:50:05Z</time>
      </trkpt>
      <trkpt lat="43.9042" lon="7.56231">
        <ele>1079.4787071195</ele>
        <time>2021-11-02T13:50:07Z</time>
      </trkpt>
      <trkpt lat="43.9042" lon="7.56231">
        <ele>1079.4787231255</ele>
        <time>2021-11-02T13:50:16Z</time>
      </trkpt>
      <trkpt lat="43.90419" lon="7.56233">
        <ele>1079.4788165062</ele>
        <time>2021-11-02T13:50:17Z</time>
      </trkpt>
      <trkpt lat="43.90417" lon="7.56234">
        <ele>1078.4788908552</ele>
        <time>2021-11-02T13:50:18Z</time>
      </trkpt>
      <trkpt lat="43.90417" lon="7.56236">
        <ele>1079.4789203667</ele>
        <time>2021-11-02T13:50:19Z</time>
      </trkpt>
      <trkpt lat="43.90415" lon="7.56238">
        <ele>1078.479046298</ele>
        <time>2021-11-02T13:50:21Z</time>
      </trkpt>
      <trkpt lat="43.90415" lon="7.56239">
        <ele>1078.4790887257</ele>
        <time>2021-11-02T13:50:22Z</time>
      </trkpt>
      <trkpt lat="43.90414" lon="7.5624">
        <ele>1077.4791361633</ele>
        <time>2021-11-02T13:50:23Z</time>
      </trkpt>
      <trkpt lat="43.90413" lon="7.56241">
        <ele>1078.4791954966</ele>
        <time>2021-11-02T13:50:25Z</time>
      </trkpt>
      <trkpt lat="43.90412" lon="7.56241">
        <ele>1079.4792796826</ele>
        <time>2021-11-02T13:50:27Z</time>
      </trkpt>
      <trkpt lat="43.9041" lon="7.56241">
        <ele>1079.4793486597</ele>
        <time>2021-11-02T13:50:28Z</time>
      </trkpt>
      <trkpt lat="43.90409" lon="7.56241">
        <ele>1078.4794061435</ele>
        <time>2021-11-02T13:50:29Z</time>
      </trkpt>
      <trkpt lat="43.90407" lon="7.5624">
        <ele>1077.4794816848</ele>
        <time>2021-11-02T13:50:31Z</time>
      </trkpt>
      <trkpt lat="43.90407" lon="7.5624">
        <ele>1077.4795072989</ele>
        <time>2021-11-02T13:50:32Z</time>
      </trkpt>
      <trkpt lat="43.90406" lon="7.56239">
        <ele>1078.4795211466</ele>
        <time>2021-11-02T13:50:33Z</time>
      </trkpt>
      <trkpt lat="43.90405" lon="7.56237">
        <ele>1078.4795481142</ele>
        <time>2021-11-02T13:50:35Z</time>
      </trkpt>
      <trkpt lat="43.90405" lon="7.56236">
        <ele>1077.479561709</ele>
        <time>2021-11-02T13:50:37Z</time>
      </trkpt>
      <trkpt lat="43.90403" lon="7.56235">
        <ele>1077.479612061</ele>
        <time>2021-11-02T13:50:38Z</time>
      </trkpt>
      <trkpt lat="43.90402" lon="7.56235">
        <ele>1077.4796565646</ele>
        <time>2021-11-02T13:50:39Z</time>
      </trkpt>
      <trkpt lat="43.904" lon="7.56235">
        <ele>1076.4797754037</ele>
        <time>2021-11-02T13:50:41Z</time>
      </trkpt>
      <trkpt lat="43.90399" lon="7.56235">
        <ele>1075.4798278769</ele>
        <time>2021-11-02T13:50:42Z</time>
      </trkpt>
      <trkpt lat="43.90398" lon="7.56235">
        <ele>1076.4798881932</ele>
        <time>2021-11-02T13:50:43Z</time>
      </trkpt>
      <trkpt lat="43.90396" lon="7.56235">
        <ele>1077.4799908557</ele>
        <time>2021-11-02T13:50:45Z</time>
      </trkpt>
      <trkpt lat="43.90395" lon="7.56235">
        <ele>1077.4800227441</ele>
        <time>2021-11-02T13:50:47Z</time>
      </trkpt>
      <trkpt lat="43.90394" lon="7.56235">
        <ele>1077.4800615914</ele>
        <time>2021-11-02T13:50:48Z</time>
      </trkpt>
      <trkpt lat="43.90393" lon="7.56234">
        <ele>1077.4800796579</ele>
        <time>2021-11-02T13:50:49Z</time>
      </trkpt>
      <trkpt lat="43.90393" lon="7.56233">
        <ele>1077.480099266</ele>
        <time>2021-11-02T13:50:50Z</time>
      </trkpt>
      <trkpt lat="43.90392" lon="7.56233">
        <ele>1077.4801383015</ele>
        <time>2021-11-02T13:50:51Z</time>
      </trkpt>
      <trkpt lat="43.90391" lon="7.56233">
        <ele>1077.4801791092</ele>
        <time>2021-11-02T13:50:52Z</time>
      </trkpt>
      <trkpt lat="43.9039" lon="7.56233">
        <ele>1077.4802148102</ele>
        <time>2021-11-02T13:50:53Z</time>
      </trkpt>
      <trkpt lat="43.9039" lon="7.56233">
        <ele>1076.4802569862</ele>
        <time>2021-11-02T13:50:54Z</time>
      </trkpt>
      <trkpt lat="43.90388" lon="7.56232">
        <ele>1076.4803210548</ele>
        <time>2021-11-02T13:50:55Z</time>
      </trkpt>
      <trkpt lat="43.90387" lon="7.56232">
        <ele>1076.4803740065</ele>
        <time>2021-11-02T13:50:57Z</time>
      </trkpt>
      <trkpt lat="43.90386" lon="7.56232">
        <ele>1076.4804170998</ele>
        <time>2021-11-02T13:50:58Z</time>
      </trkpt>
      <trkpt lat="43.90386" lon="7.56232">
        <ele>1076.4804420215</ele>
        <time>2021-11-02T13:50:59Z</time>
      </trkpt>
      <trkpt lat="43.90385" lon="7.56232">
        <ele>1076.4804727907</ele>
        <time>2021-11-02T13:51:02Z</time>
      </trkpt>
      <trkpt lat="43.90383" lon="7.56232">
        <ele>1075.480568696</ele>
        <time>2021-11-02T13:51:03Z</time>
      </trkpt>
      <trkpt lat="43.90381" lon="7.56231">
        <ele>1076.4806588953</ele>
        <time>2021-11-02T13:51:05Z</time>
      </trkpt>
      <trkpt lat="43.9038" lon="7.5623">
        <ele>1076.4806958997</ele>
        <time>2021-11-02T13:51:07Z</time>
      </trkpt>
      <trkpt lat="43.9038" lon="7.5623">
        <ele>1076.4806958997</ele>
        <time>2021-11-02T13:51:09Z</time>
      </trkpt>
      <trkpt lat="43.90378" lon="7.5623">
        <ele>1075.4807747306</ele>
        <time>2021-11-02T13:51:10Z</time>
      </trkpt>
      <trkpt lat="43.90377" lon="7.5623">
        <ele>1075.4808198571</ele>
        <time>2021-11-02T13:51:11Z</time>
      </trkpt>
      <trkpt lat="43.90376" lon="7.56229">
        <ele>1074.4808732436</ele>
        <time>2021-11-02T13:51:12Z</time>
      </trkpt>
      <trkpt lat="43.90375" lon="7.56229">
        <ele>1073.480915931</ele>
        <time>2021-11-02T13:51:13Z</time>
      </trkpt>
      <trkpt lat="43.90374" lon="7.56228">
        <ele>1072.4809813106</ele>
        <time>2021-11-02T13:51:15Z</time>
      </trkpt>
      <trkpt lat="43.90371" lon="7.56228">
        <ele>1072.4811047634</ele>
        <time>2021-11-02T13:51:17Z</time>
      </trkpt>
      <trkpt lat="43.90371" lon="7.56228">
        <ele>1072.4811279093</ele>
        <time>2021-11-02T13:51:18Z</time>
      </trkpt>
      <trkpt lat="43.9037" lon="7.56227">
        <ele>1072.4811504148</ele>
        <time>2021-11-02T13:51:19Z</time>
      </trkpt>
      <trkpt lat="43.90368" lon="7.56227">
        <ele>1072.4812654732</ele>
        <time>2021-11-02T13:51:21Z</time>
      </trkpt>
      <trkpt lat="43.90366" lon="7.56226">
        <ele>1072.4813312262</ele>
        <time>2021-11-02T13:51:22Z</time>
      </trkpt>
      <trkpt lat="43.90365" lon="7.56226">
        <ele>1072.4813643085</ele>
        <time>2021-11-02T13:51:23Z</time>
      </trkpt>
      <trkpt lat="43.90364" lon="7.56226">
        <ele>1072.4814237964</ele>
        <time>2021-11-02T13:51:24Z</time>
      </trkpt>
      <trkpt lat="43.90362" lon="7.56227">
        <ele>1073.4815293811</ele>
        <time>2021-11-02T13:51:26Z</time>
      </trkpt>
      <trkpt lat="43.90361" lon="7.56227">
        <ele>1073.4815753722</ele>
        <time>2021-11-02T13:51:27Z</time>
      </trkpt>
      <trkpt lat="43.90361" lon="7.56227">
        <ele>1073.4816001584</ele>
        <time>2021-11-02T13:51:30Z</time>
      </trkpt>
      <trkpt lat="43.90359" lon="7.56227">
        <ele>1074.4816837555</ele>
        <time>2021-11-02T13:51:31Z</time>
      </trkpt>
      <trkpt lat="43.90358" lon="7.56227">
        <ele>1074.4817616432</ele>
        <time>2021-11-02T13:51:32Z</time>
      </trkpt>
      <trkpt lat="43.90357" lon="7.56227">
        <ele>1074.4818133573</ele>
        <time>2021-11-02T13:51:33Z</time>
      </trkpt>
      <trkpt lat="43.90356" lon="7.56227">
        <ele>1074.4818719202</ele>
        <time>2021-11-02T13:51:34Z</time>
      </trkpt>
      <trkpt lat="43.90355" lon="7.56227">
        <ele>1074.4818882838</ele>
        <time>2021-11-02T13:51:39Z</time>
      </trkpt>
      <trkpt lat="43.90353" lon="7.56226">
        <ele>1073.4819748672</ele>
        <time>2021-11-02T13:51:41Z</time>
      </trkpt>
      <trkpt lat="43.90352" lon="7.56226">
        <ele>1073.4820308412</ele>
        <time>2021-11-02T13:51:42Z</time>
      </trkpt>
      <trkpt lat="43.90351" lon="7.56226">
        <ele>1072.4820624161</ele>
        <time>2021-11-02T13:51:43Z</time>
      </trkpt>
      <trkpt lat="43.9035" lon="7.56227">
        <ele>1072.482122267</ele>
        <time>2021-11-02T13:51:45Z</time>
      </trkpt>
      <trkpt lat="43.9035" lon="7.56229">
        <ele>1073.4821772257</ele>
        <time>2021-11-02T13:51:46Z</time>
      </trkpt>
      <trkpt lat="43.90348" lon="7.56229">
        <ele>1073.4822633051</ele>
        <time>2021-11-02T13:51:47Z</time>
      </trkpt>
      <trkpt lat="43.90347" lon="7.5623">
        <ele>1073.4823486987</ele>
        <time>2021-11-02T13:51:48Z</time>
      </trkpt>
      <trkpt lat="43.90345" lon="7.56231">
        <ele>1073.4824338941</ele>
        <time>2021-11-02T13:51:49Z</time>
      </trkpt>
      <trkpt lat="43.90344" lon="7.56231">
        <ele>1073.4824880618</ele>
        <time>2021-11-02T13:51:50Z</time>
      </trkpt>
      <trkpt lat="43.90343" lon="7.56232">
        <ele>1074.4825481953</ele>
        <time>2021-11-02T13:51:51Z</time>
      </trkpt>
      <trkpt lat="43.90342" lon="7.56232">
        <ele>1074.48261711</ele>
        <time>2021-11-02T13:51:52Z</time>
      </trkpt>
      <trkpt lat="43.90341" lon="7.56233">
        <ele>1073.4826954593</ele>
        <time>2021-11-02T13:51:53Z</time>
      </trkpt>
      <trkpt lat="43.90339" lon="7.56233">
        <ele>1072.4827777848</ele>
        <time>2021-11-02T13:51:54Z</time>
      </trkpt>
      <trkpt lat="43.90337" lon="7.56233">
        <ele>1072.4828660243</ele>
        <time>2021-11-02T13:51:55Z</time>
      </trkpt>
      <trkpt lat="43.90336" lon="7.56232">
        <ele>1072.4829369723</ele>
        <time>2021-11-02T13:51:56Z</time>
      </trkpt>
      <trkpt lat="43.90335" lon="7.56233">
        <ele>1071.4830068115</ele>
        <time>2021-11-02T13:51:57Z</time>
      </trkpt>
      <trkpt lat="43.90333" lon="7.56233">
        <ele>1072.4830595182</ele>
        <time>2021-11-02T13:51:58Z</time>
      </trkpt>
      <trkpt lat="43.90332" lon="7.56232">
        <ele>1072.4831313128</ele>
        <time>2021-11-02T13:51:59Z</time>
      </trkpt>
      <trkpt lat="43.90331" lon="7.56232">
        <ele>1071.4831594054</ele>
        <time>2021-11-02T13:52:00Z</time>
      </trkpt>
      <trkpt lat="43.9033" lon="7.56232">
        <ele>1071.483203005</ele>
        <time>2021-11-02T13:52:01Z</time>
      </trkpt>
      <trkpt lat="43.90329" lon="7.56231">
        <ele>1070.4832339354</ele>
        <time>2021-11-02T13:52:02Z</time>
      </trkpt>
      <trkpt lat="43.90329" lon="7.56231">
        <ele>1071.4832677885</ele>
        <time>2021-11-02T13:52:04Z</time>
      </trkpt>
      <trkpt lat="43.90327" lon="7.56231">
        <ele>1070.4833407064</ele>
        <time>2021-11-02T13:52:05Z</time>
      </trkpt>
      <trkpt lat="43.90327" lon="7.5623">
        <ele>1071.4833606158</ele>
        <time>2021-11-02T13:52:06Z</time>
      </trkpt>
      <trkpt lat="43.90326" lon="7.5623">
        <ele>1070.4834053623</ele>
        <time>2021-11-02T13:52:07Z</time>
      </trkpt>
      <trkpt lat="43.90325" lon="7.56229">
        <ele>1070.4834426527</ele>
        <time>2021-11-02T13:52:08Z</time>
      </trkpt>
      <trkpt lat="43.90324" lon="7.56228">
        <ele>1070.4834778898</ele>
        <time>2021-11-02T13:52:09Z</time>
      </trkpt>
      <trkpt lat="43.90323" lon="7.56228">
        <ele>1070.4835291422</ele>
        <time>2021-11-02T13:52:10Z</time>
      </trkpt>
      <trkpt lat="43.90321" lon="7.56227">
        <ele>1070.4835819632</ele>
        <time>2021-11-02T13:52:11Z</time>
      </trkpt>
      <trkpt lat="43.90321" lon="7.56226">
        <ele>1070.4835998842</ele>
        <time>2021-11-02T13:52:12Z</time>
      </trkpt>
      <trkpt lat="43.9032" lon="7.56226">
        <ele>1069.4836146505</ele>
        <time>2021-11-02T13:52:13Z</time>
      </trkpt>
      <trkpt lat="43.9032" lon="7.56226">
        <ele>1069.4836441823</ele>
        <time>2021-11-02T13:52:14Z</time>
      </trkpt>
      <trkpt lat="43.90319" lon="7.56227">
        <ele>1069.4836880746</ele>
        <time>2021-11-02T13:52:15Z</time>
      </trkpt>
      <trkpt lat="43.90319" lon="7.56227">
        <ele>1069.4837176873</ele>
        <time>2021-11-02T13:52:16Z</time>
      </trkpt>
      <trkpt lat="43.90318" lon="7.56227">
        <ele>1069.4837529167</ele>
        <time>2021-11-02T13:52:17Z</time>
      </trkpt>
      <trkpt lat="43.90317" lon="7.56228">
        <ele>1069.4838053109</ele>
        <time>2021-11-02T13:52:18Z</time>
      </trkpt>
      <trkpt lat="43.90317" lon="7.56229">
        <ele>1070.4838405733</ele>
        <time>2021-11-02T13:52:19Z</time>
      </trkpt>
      <trkpt lat="43.90316" lon="7.56229">
        <ele>1071.4838954693</ele>
        <time>2021-11-02T13:52:20Z</time>
      </trkpt>
      <trkpt lat="43.90315" lon="7.5623">
        <ele>1071.4839526409</ele>
        <time>2021-11-02T13:52:21Z</time>
      </trkpt>
      <trkpt lat="43.90314" lon="7.5623">
        <ele>1071.4839962893</ele>
        <time>2021-11-02T13:52:23Z</time>
      </trkpt>
      <trkpt lat="43.90314" lon="7.56232">
        <ele>1072.4840320723</ele>
        <time>2021-11-02T13:52:24Z</time>
      </trkpt>
      <trkpt lat="43.90313" lon="7.56233">
        <ele>1072.4840857301</ele>
        <time>2021-11-02T13:52:25Z</time>
      </trkpt>
      <trkpt lat="43.90313" lon="7.56234">
        <ele>1073.4841092098</ele>
        <time>2021-11-02T13:52:26Z</time>
      </trkpt>
      <trkpt lat="43.90313" lon="7.56235">
        <ele>1073.4841178876</ele>
        <time>2021-11-02T13:52:27Z</time>
      </trkpt>
      <trkpt lat="43.90313" lon="7.56236">
        <ele>1074.4841442997</ele>
        <time>2021-11-02T13:52:28Z</time>
      </trkpt>
      <trkpt lat="43.90313" lon="7.56237">
        <ele>1075.4841522375</ele>
        <time>2021-11-02T13:52:29Z</time>
      </trkpt>
      <trkpt lat="43.90313" lon="7.56239">
        <ele>1076.4841687334</ele>
        <time>2021-11-02T13:52:30Z</time>
      </trkpt>
      <trkpt lat="43.90313" lon="7.5624">
        <ele>1076.4842189522</ele>
        <time>2021-11-02T13:52:31Z</time>
      </trkpt>
      <trkpt lat="43.90312" lon="7.56241">
        <ele>1076.4842518131</ele>
        <time>2021-11-02T13:52:32Z</time>
      </trkpt>
      <trkpt lat="43.90312" lon="7.56243">
        <ele>1077.4842955075</ele>
        <time>2021-11-02T13:52:33Z</time>
      </trkpt>
      <trkpt lat="43.90311" lon="7.56244">
        <ele>1077.4843575771</ele>
        <time>2021-11-02T13:52:34Z</time>
      </trkpt>
      <trkpt lat="43.9031" lon="7.56245">
        <ele>1077.4844008045</ele>
        <time>2021-11-02T13:52:35Z</time>
      </trkpt>
      <trkpt lat="43.9031" lon="7.56246">
        <ele>1077.4844398645</ele>
        <time>2021-11-02T13:52:36Z</time>
      </trkpt>
      <trkpt lat="43.9031" lon="7.56247">
        <ele>1078.4844767803</ele>
        <time>2021-11-02T13:52:37Z</time>
      </trkpt>
      <trkpt lat="43.90309" lon="7.56248">
        <ele>1078.4845037539</ele>
        <time>2021-11-02T13:52:38Z</time>
      </trkpt>
      <trkpt lat="43.90309" lon="7.5625">
        <ele>1078.4845474013</ele>
        <time>2021-11-02T13:52:39Z</time>
      </trkpt>
      <trkpt lat="43.90309" lon="7.56251">
        <ele>1079.484589613</ele>
        <time>2021-11-02T13:52:40Z</time>
      </trkpt>
      <trkpt lat="43.90308" lon="7.56252">
        <ele>1079.4846403497</ele>
        <time>2021-11-02T13:52:41Z</time>
      </trkpt>
      <trkpt lat="43.90307" lon="7.56253">
        <ele>1079.4847085648</ele>
        <time>2021-11-02T13:52:42Z</time>
      </trkpt>
      <trkpt lat="43.90305" lon="7.56254">
        <ele>1079.4848073788</ele>
        <time>2021-11-02T13:52:43Z</time>
      </trkpt>
      <trkpt lat="43.90304" lon="7.56255">
        <ele>1079.4848878516</ele>
        <time>2021-11-02T13:52:44Z</time>
      </trkpt>
      <trkpt lat="43.90303" lon="7.56256">
        <ele>1078.4849623358</ele>
        <time>2021-11-02T13:52:45Z</time>
      </trkpt>
      <trkpt lat="43.90302" lon="7.56256">
        <ele>1078.4850139639</ele>
        <time>2021-11-02T13:52:46Z</time>
      </trkpt>
      <trkpt lat="43.90301" lon="7.56257">
        <ele>1079.4850521373</ele>
        <time>2021-11-02T13:52:47Z</time>
      </trkpt>
      <trkpt lat="43.903" lon="7.56258">
        <ele>1080.4851244536</ele>
        <time>2021-11-02T13:52:48Z</time>
      </trkpt>
      <trkpt lat="43.90299" lon="7.56259">
        <ele>1080.4851857153</ele>
        <time>2021-11-02T13:52:49Z</time>
      </trkpt>
      <trkpt lat="43.90298" lon="7.5626">
        <ele>1080.4852392599</ele>
        <time>2021-11-02T13:52:50Z</time>
      </trkpt>
      <trkpt lat="43.90298" lon="7.56261">
        <ele>1079.485286793</ele>
        <time>2021-11-02T13:52:51Z</time>
      </trkpt>
      <trkpt lat="43.90296" lon="7.56261">
        <ele>1079.4853651063</ele>
        <time>2021-11-02T13:52:52Z</time>
      </trkpt>
      <trkpt lat="43.90294" lon="7.56262">
        <ele>1079.4854581737</ele>
        <time>2021-11-02T13:52:53Z</time>
      </trkpt>
      <trkpt lat="43.90293" lon="7.56262">
        <ele>1080.4855420766</ele>
        <time>2021-11-02T13:52:54Z</time>
      </trkpt>
      <trkpt lat="43.90292" lon="7.56262">
        <ele>1080.4856027981</ele>
        <time>2021-11-02T13:52:55Z</time>
      </trkpt>
      <trkpt lat="43.90291" lon="7.56262">
        <ele>1080.4856364845</ele>
        <time>2021-11-02T13:52:56Z</time>
      </trkpt>
      <trkpt lat="43.9029" lon="7.56263">
        <ele>1081.4856846351</ele>
        <time>2021-11-02T13:52:58Z</time>
      </trkpt>
      <trkpt lat="43.9029" lon="7.56264">
        <ele>1081.4857240078</ele>
        <time>2021-11-02T13:52:59Z</time>
      </trkpt>
      <trkpt lat="43.90289" lon="7.56264">
        <ele>1081.4857651386</ele>
        <time>2021-11-02T13:53:00Z</time>
      </trkpt>
      <trkpt lat="43.90288" lon="7.56265">
        <ele>1081.4858409859</ele>
        <time>2021-11-02T13:53:01Z</time>
      </trkpt>
      <trkpt lat="43.90286" lon="7.56265">
        <ele>1081.4859169043</ele>
        <time>2021-11-02T13:53:02Z</time>
      </trkpt>
      <trkpt lat="43.90285" lon="7.56265">
        <ele>1081.4859889283</ele>
        <time>2021-11-02T13:53:03Z</time>
      </trkpt>
      <trkpt lat="43.90284" lon="7.56264">
        <ele>1081.4860254923</ele>
        <time>2021-11-02T13:53:04Z</time>
      </trkpt>
      <trkpt lat="43.90282" lon="7.56264">
        <ele>1080.4861086292</ele>
        <time>2021-11-02T13:53:06Z</time>
      </trkpt>
      <trkpt lat="43.90281" lon="7.56263">
        <ele>1080.4861300392</ele>
        <time>2021-11-02T13:53:07Z</time>
      </trkpt>
      <trkpt lat="43.9028" lon="7.56263">
        <ele>1080.4861878337</ele>
        <time>2021-11-02T13:53:08Z</time>
      </trkpt>
      <trkpt lat="43.90279" lon="7.56262">
        <ele>1079.4862255758</ele>
        <time>2021-11-02T13:53:09Z</time>
      </trkpt>
      <trkpt lat="43.90278" lon="7.56262">
        <ele>1079.4862757205</ele>
        <time>2021-11-02T13:53:10Z</time>
      </trkpt>
      <trkpt lat="43.90277" lon="7.56261">
        <ele>1079.4863193859</ele>
        <time>2021-11-02T13:53:11Z</time>
      </trkpt>
      <trkpt lat="43.90276" lon="7.56261">
        <ele>1079.4863785384</ele>
        <time>2021-11-02T13:53:12Z</time>
      </trkpt>
      <trkpt lat="43.90275" lon="7.56261">
        <ele>1079.4864074849</ele>
        <time>2021-11-02T13:53:13Z</time>
      </trkpt>
      <trkpt lat="43.90273" lon="7.5626">
        <ele>1079.4864927836</ele>
        <time>2021-11-02T13:53:15Z</time>
      </trkpt>
      <trkpt lat="43.90272" lon="7.56259">
        <ele>1079.4865301208</ele>
        <time>2021-11-02T13:53:16Z</time>
      </trkpt>
      <trkpt lat="43.90272" lon="7.56259">
        <ele>1079.4865559329</ele>
        <time>2021-11-02T13:53:17Z</time>
      </trkpt>
      <trkpt lat="43.9027" lon="7.56258">
        <ele>1078.4866088023</ele>
        <time>2021-11-02T13:53:18Z</time>
      </trkpt>
      <trkpt lat="43.9027" lon="7.56258">
        <ele>1079.4866459028</ele>
        <time>2021-11-02T13:53:19Z</time>
      </trkpt>
      <trkpt lat="43.90268" lon="7.56256">
        <ele>1078.486691633</ele>
        <time>2021-11-02T13:53:21Z</time>
      </trkpt>
      <trkpt lat="43.90267" lon="7.56255">
        <ele>1078.4867359921</ele>
        <time>2021-11-02T13:53:22Z</time>
      </trkpt>
      <trkpt lat="43.90266" lon="7.56255">
        <ele>1078.4867829468</ele>
        <time>2021-11-02T13:53:23Z</time>
      </trkpt>
      <trkpt lat="43.90265" lon="7.56254">
        <ele>1078.4868170568</ele>
        <time>2021-11-02T13:53:24Z</time>
      </trkpt>
      <trkpt lat="43.90264" lon="7.56254">
        <ele>1078.486862019</ele>
        <time>2021-11-02T13:53:25Z</time>
      </trkpt>
      <trkpt lat="43.90263" lon="7.56254">
        <ele>1078.48689947</ele>
        <time>2021-11-02T13:53:26Z</time>
      </trkpt>
      <trkpt lat="43.90262" lon="7.56254">
        <ele>1078.4869515322</ele>
        <time>2021-11-02T13:53:27Z</time>
      </trkpt>
      <trkpt lat="43.90261" lon="7.56253">
        <ele>1078.486979982</ele>
        <time>2021-11-02T13:53:28Z</time>
      </trkpt>
      <trkpt lat="43.90261" lon="7.56253">
        <ele>1078.4870156786</ele>
        <time>2021-11-02T13:53:29Z</time>
      </trkpt>
      <trkpt lat="43.9026" lon="7.56253">
        <ele>1078.4870582322</ele>
        <time>2021-11-02T13:53:30Z</time>
      </trkpt>
      <trkpt lat="43.90259" lon="7.56253">
        <ele>1078.4870968306</ele>
        <time>2021-11-02T13:53:31Z</time>
      </trkpt>
      <trkpt lat="43.90258" lon="7.56252">
        <ele>1078.487107346</ele>
        <time>2021-11-02T13:53:32Z</time>
      </trkpt>
      <trkpt lat="43.90257" lon="7.56251">
        <ele>1078.4871491817</ele>
        <time>2021-11-02T13:53:33Z</time>
      </trkpt>
      <trkpt lat="43.90256" lon="7.5625">
        <ele>1077.4871896315</ele>
        <time>2021-11-02T13:53:34Z</time>
      </trkpt>
      <trkpt lat="43.90255" lon="7.5625">
        <ele>1077.4872454835</ele>
        <time>2021-11-02T13:53:35Z</time>
      </trkpt>
      <trkpt lat="43.90254" lon="7.5625">
        <ele>1077.4872784652</ele>
        <time>2021-11-02T13:53:36Z</time>
      </trkpt>
      <trkpt lat="43.90254" lon="7.5625">
        <ele>1077.4873119674</ele>
        <time>2021-11-02T13:53:37Z</time>
      </trkpt>
      <trkpt lat="43.90253" lon="7.56249">
        <ele>1078.4873342987</ele>
        <time>2021-11-02T13:53:38Z</time>
      </trkpt>
      <trkpt lat="43.90252" lon="7.56248">
        <ele>1077.4873674499</ele>
        <time>2021-11-02T13:53:39Z</time>
      </trkpt>
      <trkpt lat="43.90252" lon="7.56248">
        <ele>1077.4873715317</ele>
        <time>2021-11-02T13:53:40Z</time>
      </trkpt>
      <trkpt lat="43.9025" lon="7.56247">
        <ele>1078.4874509851</ele>
        <time>2021-11-02T13:53:42Z</time>
      </trkpt>
      <trkpt lat="43.90249" lon="7.56247">
        <ele>1078.4874903077</ele>
        <time>2021-11-02T13:53:43Z</time>
      </trkpt>
      <trkpt lat="43.90247" lon="7.56246">
        <ele>1078.4876091622</ele>
        <time>2021-11-02T13:53:45Z</time>
      </trkpt>
      <trkpt lat="43.90246" lon="7.56247">
        <ele>1077.4876692931</ele>
        <time>2021-11-02T13:53:46Z</time>
      </trkpt>
      <trkpt lat="43.90245" lon="7.56247">
        <ele>1077.4877211233</ele>
        <time>2021-11-02T13:53:47Z</time>
      </trkpt>
      <trkpt lat="43.90244" lon="7.56247">
        <ele>1077.4877642772</ele>
        <time>2021-11-02T13:53:48Z</time>
      </trkpt>
      <trkpt lat="43.90243" lon="7.56247">
        <ele>1077.4878168415</ele>
        <time>2021-11-02T13:53:49Z</time>
      </trkpt>
      <trkpt lat="43.90241" lon="7.56247">
        <ele>1078.4878856476</ele>
        <time>2021-11-02T13:53:50Z</time>
      </trkpt>
      <trkpt lat="43.9024" lon="7.56247">
        <ele>1079.4879479823</ele>
        <time>2021-11-02T13:53:51Z</time>
      </trkpt>
      <trkpt lat="43.90239" lon="7.56247">
        <ele>1078.4880195079</ele>
        <time>2021-11-02T13:53:52Z</time>
      </trkpt>
      <trkpt lat="43.90238" lon="7.56248">
        <ele>1079.4880806366</ele>
        <time>2021-11-02T13:53:53Z</time>
      </trkpt>
      <trkpt lat="43.90237" lon="7.56248">
        <ele>1079.4881358999</ele>
        <time>2021-11-02T13:53:54Z</time>
      </trkpt>
      <trkpt lat="43.90235" lon="7.56248">
        <ele>1079.4882049674</ele>
        <time>2021-11-02T13:53:55Z</time>
      </trkpt>
      <trkpt lat="43.90234" lon="7.56248">
        <ele>1079.4882740098</ele>
        <time>2021-11-02T13:53:56Z</time>
      </trkpt>
      <trkpt lat="43.90233" lon="7.56248">
        <ele>1079.4883093419</ele>
        <time>2021-11-02T13:53:57Z</time>
      </trkpt>
      <trkpt lat="43.90232" lon="7.56248">
        <ele>1078.4883556995</ele>
        <time>2021-11-02T13:53:58Z</time>
      </trkpt>
      <trkpt lat="43.90231" lon="7.56248">
        <ele>1079.4884116718</ele>
        <time>2021-11-02T13:53:59Z</time>
      </trkpt>
      <trkpt lat="43.9023" lon="7.56248">
        <ele>1079.4884824967</ele>
        <time>2021-11-02T13:54:00Z</time>
      </trkpt>
      <trkpt lat="43.90229" lon="7.56248">
        <ele>1079.4885308174</ele>
        <time>2021-11-02T13:54:01Z</time>
      </trkpt>
      <trkpt lat="43.90228" lon="7.56248">
        <ele>1079.4885837758</ele>
        <time>2021-11-02T13:54:02Z</time>
      </trkpt>
      <trkpt lat="43.90226" lon="7.56248">
        <ele>1079.4886516107</ele>
        <time>2021-11-02T13:54:03Z</time>
      </trkpt>
      <trkpt lat="43.90225" lon="7.56247">
        <ele>1079.4886992754</ele>
        <time>2021-11-02T13:54:04Z</time>
      </trkpt>
      <trkpt lat="43.90224" lon="7.56248">
        <ele>1079.4887563788</ele>
        <time>2021-11-02T13:54:05Z</time>
      </trkpt>
      <trkpt lat="43.90223" lon="7.56248">
        <ele>1079.488803597</ele>
        <time>2021-11-02T13:54:06Z</time>
      </trkpt>
      <trkpt lat="43.90222" lon="7.56248">
        <ele>1079.4888703118</ele>
        <time>2021-11-02T13:54:07Z</time>
      </trkpt>
      <trkpt lat="43.90221" lon="7.56248">
        <ele>1080.4889369057</ele>
        <time>2021-11-02T13:54:08Z</time>
      </trkpt>
      <trkpt lat="43.9022" lon="7.56249">
        <ele>1080.4889917421</ele>
        <time>2021-11-02T13:54:09Z</time>
      </trkpt>
      <trkpt lat="43.90218" lon="7.5625">
        <ele>1080.4890822235</ele>
        <time>2021-11-02T13:54:11Z</time>
      </trkpt>
      <trkpt lat="43.90218" lon="7.56251">
        <ele>1080.4891147279</ele>
        <time>2021-11-02T13:54:12Z</time>
      </trkpt>
      <trkpt lat="43.90217" lon="7.56251">
        <ele>1079.4891475107</ele>
        <time>2021-11-02T13:54:13Z</time>
      </trkpt>
      <trkpt lat="43.90215" lon="7.56251">
        <ele>1080.4892690308</ele>
        <time>2021-11-02T13:54:15Z</time>
      </trkpt>
      <trkpt lat="43.90213" lon="7.56252">
        <ele>1080.4893977967</ele>
        <time>2021-11-02T13:54:17Z</time>
      </trkpt>
      <trkpt lat="43.90212" lon="7.56252">
        <ele>1080.4894529481</ele>
        <time>2021-11-02T13:54:18Z</time>
      </trkpt>
      <trkpt lat="43.90211" lon="7.56252">
        <ele>1080.4895044952</ele>
        <time>2021-11-02T13:54:19Z</time>
      </trkpt>
      <trkpt lat="43.9021" lon="7.56252">
        <ele>1080.4895451195</ele>
        <time>2021-11-02T13:54:20Z</time>
      </trkpt>
      <trkpt lat="43.90209" lon="7.56252">
        <ele>1080.4895893843</ele>
        <time>2021-11-02T13:54:21Z</time>
      </trkpt>
      <trkpt lat="43.90208" lon="7.56251">
        <ele>1080.4896222544</ele>
        <time>2021-11-02T13:54:22Z</time>
      </trkpt>
      <trkpt lat="43.90206" lon="7.5625">
        <ele>1080.4896835429</ele>
        <time>2021-11-02T13:54:23Z</time>
      </trkpt>
      <trkpt lat="43.90205" lon="7.5625">
        <ele>1080.489750636</ele>
        <time>2021-11-02T13:54:24Z</time>
      </trkpt>
      <trkpt lat="43.90204" lon="7.5625">
        <ele>1079.4898138443</ele>
        <time>2021-11-02T13:54:25Z</time>
      </trkpt>
      <trkpt lat="43.90203" lon="7.5625">
        <ele>1079.4898538895</ele>
        <time>2021-11-02T13:54:26Z</time>
      </trkpt>
      <trkpt lat="43.90202" lon="7.5625">
        <ele>1079.4899216688</ele>
        <time>2021-11-02T13:54:27Z</time>
      </trkpt>
      <trkpt lat="43.90201" lon="7.5625">
        <ele>1079.4899730047</ele>
        <time>2021-11-02T13:54:28Z</time>
      </trkpt>
      <trkpt lat="43.902" lon="7.5625">
        <ele>1079.4900233894</ele>
        <time>2021-11-02T13:54:29Z</time>
      </trkpt>
      <trkpt lat="43.90199" lon="7.5625">
        <ele>1079.4900621486</ele>
        <time>2021-11-02T13:54:30Z</time>
      </trkpt>
      <trkpt lat="43.90198" lon="7.5625">
        <ele>1079.4901114422</ele>
        <time>2021-11-02T13:54:31Z</time>
      </trkpt>
      <trkpt lat="43.90197" lon="7.5625">
        <ele>1080.4901424809</ele>
        <time>2021-11-02T13:54:32Z</time>
      </trkpt>
      <trkpt lat="43.90196" lon="7.5625">
        <ele>1080.4901818016</ele>
        <time>2021-11-02T13:54:33Z</time>
      </trkpt>
      <trkpt lat="43.90195" lon="7.5625">
        <ele>1079.4902395218</ele>
        <time>2021-11-02T13:54:34Z</time>
      </trkpt>
      <trkpt lat="43.90194" lon="7.5625">
        <ele>1079.4902844763</ele>
        <time>2021-11-02T13:54:35Z</time>
      </trkpt>
      <trkpt lat="43.90194" lon="7.5625">
        <ele>1079.4903222039</ele>
        <time>2021-11-02T13:54:36Z</time>
      </trkpt>
      <trkpt lat="43.90193" lon="7.5625">
        <ele>1080.4903586522</ele>
        <time>2021-11-02T13:54:37Z</time>
      </trkpt>
      <trkpt lat="43.90192" lon="7.5625">
        <ele>1080.4904088675</ele>
        <time>2021-11-02T13:54:38Z</time>
      </trkpt>
      <trkpt lat="43.90191" lon="7.5625">
        <ele>1080.49045775</ele>
        <time>2021-11-02T13:54:39Z</time>
      </trkpt>
      <trkpt lat="43.9019" lon="7.5625">
        <ele>1080.4904874623</ele>
        <time>2021-11-02T13:54:40Z</time>
      </trkpt>
      <trkpt lat="43.90188" lon="7.5625">
        <ele>1081.4906013536</ele>
        <time>2021-11-02T13:54:42Z</time>
      </trkpt>
      <trkpt lat="43.90187" lon="7.56251">
        <ele>1081.490675893</ele>
        <time>2021-11-02T13:54:43Z</time>
      </trkpt>
      <trkpt lat="43.90186" lon="7.56252">
        <ele>1081.490748933</ele>
        <time>2021-11-02T13:54:44Z</time>
      </trkpt>
      <trkpt lat="43.90184" lon="7.56252">
        <ele>1081.4908128297</ele>
        <time>2021-11-02T13:54:45Z</time>
      </trkpt>
      <trkpt lat="43.90183" lon="7.56253">
        <ele>1080.4909020363</ele>
        <time>2021-11-02T13:54:46Z</time>
      </trkpt>
      <trkpt lat="43.90181" lon="7.56253">
        <ele>1080.4909780828</ele>
        <time>2021-11-02T13:54:47Z</time>
      </trkpt>
      <trkpt lat="43.90181" lon="7.56253">
        <ele>1080.4910191396</ele>
        <time>2021-11-02T13:54:48Z</time>
      </trkpt>
      <trkpt lat="43.9018" lon="7.56253">
        <ele>1080.491050497</ele>
        <time>2021-11-02T13:54:49Z</time>
      </trkpt>
      <trkpt lat="43.90178" lon="7.56254">
        <ele>1080.4911426168</ele>
        <time>2021-11-02T13:54:51Z</time>
      </trkpt>
      <trkpt lat="43.90178" lon="7.56253">
        <ele>1080.4911719808</ele>
        <time>2021-11-02T13:54:52Z</time>
      </trkpt>
      <trkpt lat="43.90177" lon="7.56254">
        <ele>1080.4912022189</ele>
        <time>2021-11-02T13:54:54Z</time>
      </trkpt>
      <trkpt lat="43.90176" lon="7.56255">
        <ele>1079.491277901</ele>
        <time>2021-11-02T13:54:55Z</time>
      </trkpt>
      <trkpt lat="43.90175" lon="7.56256">
        <ele>1079.4913360467</ele>
        <time>2021-11-02T13:54:56Z</time>
      </trkpt>
      <trkpt lat="43.90175" lon="7.56256">
        <ele>1080.4913639464</ele>
        <time>2021-11-02T13:54:57Z</time>
      </trkpt>
      <trkpt lat="43.90174" lon="7.56256">
        <ele>1080.4913997342</ele>
        <time>2021-11-02T13:54:58Z</time>
      </trkpt>
      <trkpt lat="43.90173" lon="7.56257">
        <ele>1081.4914778436</ele>
        <time>2021-11-02T13:55:00Z</time>
      </trkpt>
      <trkpt lat="43.90172" lon="7.56257">
        <ele>1081.4914956051</ele>
        <time>2021-11-02T13:55:01Z</time>
      </trkpt>
      <trkpt lat="43.90172" lon="7.56257">
        <ele>1082.4915377898</ele>
        <time>2021-11-02T13:55:02Z</time>
      </trkpt>
      <trkpt lat="43.90171" lon="7.56258">
        <ele>1082.4915832905</ele>
        <time>2021-11-02T13:55:03Z</time>
      </trkpt>
      <trkpt lat="43.9017" lon="7.56259">
        <ele>1082.49166258</ele>
        <time>2021-11-02T13:55:04Z</time>
      </trkpt>
      <trkpt lat="43.90168" lon="7.56259">
        <ele>1082.4917291807</ele>
        <time>2021-11-02T13:55:05Z</time>
      </trkpt>
      <trkpt lat="43.90167" lon="7.56259">
        <ele>1082.4917738135</ele>
        <time>2021-11-02T13:55:06Z</time>
      </trkpt>
      <trkpt lat="43.90166" lon="7.56259">
        <ele>1083.4918196259</ele>
        <time>2021-11-02T13:55:07Z</time>
      </trkpt>
      <trkpt lat="43.90165" lon="7.56259">
        <ele>1084.4918831159</ele>
        <time>2021-11-02T13:55:08Z</time>
      </trkpt>
      <trkpt lat="43.90165" lon="7.5626">
        <ele>1084.4919230105</ele>
        <time>2021-11-02T13:55:09Z</time>
      </trkpt>
      <trkpt lat="43.90163" lon="7.5626">
        <ele>1084.4919859466</ele>
        <time>2021-11-02T13:55:11Z</time>
      </trkpt>
      <trkpt lat="43.90164" lon="7.56261">
        <ele>1084.4919809722</ele>
        <time>2021-11-02T13:55:12Z</time>
      </trkpt>
      <trkpt lat="43.90164" lon="7.56261">
        <ele>1085.4920009259</ele>
        <time>2021-11-02T13:55:13Z</time>
      </trkpt>
      <trkpt lat="43.90162" lon="7.56261">
        <ele>1085.4920642202</ele>
        <time>2021-11-02T13:55:15Z</time>
      </trkpt>
      <trkpt lat="43.90162" lon="7.56261">
        <ele>1084.4920460242</ele>
        <time>2021-11-02T13:55:18Z</time>
      </trkpt>
      <trkpt lat="43.90162" lon="7.5626">
        <ele>1084.4920436272</ele>
        <time>2021-11-02T13:55:22Z</time>
      </trkpt>
      <trkpt lat="43.90162" lon="7.5626">
        <ele>1083.4920700174</ele>
        <time>2021-11-02T13:55:23Z</time>
      </trkpt>
      <trkpt lat="43.90161" lon="7.5626">
        <ele>1083.4921126855</ele>
        <time>2021-11-02T13:55:24Z</time>
      </trkpt>
      <trkpt lat="43.9016" lon="7.5626">
        <ele>1082.4921558885</ele>
        <time>2021-11-02T13:55:26Z</time>
      </trkpt>
      <trkpt lat="43.90159" lon="7.5626">
        <ele>1083.4921872062</ele>
        <time>2021-11-02T13:55:27Z</time>
      </trkpt>
      <trkpt lat="43.90158" lon="7.5626">
        <ele>1083.4922352311</ele>
        <time>2021-11-02T13:55:28Z</time>
      </trkpt>
      <trkpt lat="43.90157" lon="7.56261">
        <ele>1083.4923454389</ele>
        <time>2021-11-02T13:55:30Z</time>
      </trkpt>
      <trkpt lat="43.90155" lon="7.56261">
        <ele>1082.4924311232</ele>
        <time>2021-11-02T13:55:32Z</time>
      </trkpt>
      <trkpt lat="43.90154" lon="7.5626">
        <ele>1082.4924640888</ele>
        <time>2021-11-02T13:55:33Z</time>
      </trkpt>
      <trkpt lat="43.90153" lon="7.56259">
        <ele>1082.492510308</ele>
        <time>2021-11-02T13:55:34Z</time>
      </trkpt>
      <trkpt lat="43.90152" lon="7.56259">
        <ele>1082.4925637846</ele>
        <time>2021-11-02T13:55:36Z</time>
      </trkpt>
      <trkpt lat="43.90149" lon="7.56259">
        <ele>1081.492668639</ele>
        <time>2021-11-02T13:55:37Z</time>
      </trkpt>
      <trkpt lat="43.90148" lon="7.56258">
        <ele>1081.4927279305</ele>
        <time>2021-11-02T13:55:38Z</time>
      </trkpt>
      <trkpt lat="43.90147" lon="7.56259">
        <ele>1082.4927822359</ele>
        <time>2021-11-02T13:55:39Z</time>
      </trkpt>
      <trkpt lat="43.90146" lon="7.56259">
        <ele>1082.4928297987</ele>
        <time>2021-11-02T13:55:40Z</time>
      </trkpt>
      <trkpt lat="43.90144" lon="7.5626">
        <ele>1081.4929459879</ele>
        <time>2021-11-02T13:55:42Z</time>
      </trkpt>
      <trkpt lat="43.90143" lon="7.5626">
        <ele>1081.4929915134</ele>
        <time>2021-11-02T13:55:43Z</time>
      </trkpt>
      <trkpt lat="43.90142" lon="7.56261">
        <ele>1081.4930570865</ele>
        <time>2021-11-02T13:55:44Z</time>
      </trkpt>
      <trkpt lat="43.90141" lon="7.56261">
        <ele>1081.4931243491</ele>
        <time>2021-11-02T13:55:45Z</time>
      </trkpt>
      <trkpt lat="43.9014" lon="7.56261">
        <ele>1081.4931837458</ele>
        <time>2021-11-02T13:55:46Z</time>
      </trkpt>
      <trkpt lat="43.90138" lon="7.5626">
        <ele>1081.4932547597</ele>
        <time>2021-11-02T13:55:47Z</time>
      </trkpt>
      <trkpt lat="43.90137" lon="7.56261">
        <ele>1081.4933266965</ele>
        <time>2021-11-02T13:55:48Z</time>
      </trkpt>
      <trkpt lat="43.90136" lon="7.56261">
        <ele>1081.493398527</ele>
        <time>2021-11-02T13:55:49Z</time>
      </trkpt>
      <trkpt lat="43.90134" lon="7.56261">
        <ele>1081.4934549478</ele>
        <time>2021-11-02T13:55:50Z</time>
      </trkpt>
      <trkpt lat="43.90134" lon="7.56261">
        <ele>1081.4935009412</ele>
        <time>2021-11-02T13:55:51Z</time>
      </trkpt>
      <trkpt lat="43.90133" lon="7.56261">
        <ele>1081.4935392366</ele>
        <time>2021-11-02T13:55:52Z</time>
      </trkpt>
      <trkpt lat="43.90132" lon="7.56261">
        <ele>1080.4935886764</ele>
        <time>2021-11-02T13:55:53Z</time>
      </trkpt>
      <trkpt lat="43.9013" lon="7.56261">
        <ele>1080.4936488373</ele>
        <time>2021-11-02T13:55:54Z</time>
      </trkpt>
      <trkpt lat="43.90128" lon="7.56261">
        <ele>1080.4937630028</ele>
        <time>2021-11-02T13:55:56Z</time>
      </trkpt>
      <trkpt lat="43.90127" lon="7.56261">
        <ele>1079.493821145</ele>
        <time>2021-11-02T13:55:57Z</time>
      </trkpt>
      <trkpt lat="43.90126" lon="7.56262">
        <ele>1079.4938818928</ele>
        <time>2021-11-02T13:55:58Z</time>
      </trkpt>
      <trkpt lat="43.90125" lon="7.56261">
        <ele>1079.4939434776</ele>
        <time>2021-11-02T13:55:59Z</time>
      </trkpt>
      <trkpt lat="43.90123" lon="7.56261">
        <ele>1079.4940071249</ele>
        <time>2021-11-02T13:56:00Z</time>
      </trkpt>
      <trkpt lat="43.90122" lon="7.56262">
        <ele>1079.4940818759</ele>
        <time>2021-11-02T13:56:01Z</time>
      </trkpt>
      <trkpt lat="43.90121" lon="7.56262">
        <ele>1079.4941232946</ele>
        <time>2021-11-02T13:56:02Z</time>
      </trkpt>
      <trkpt lat="43.9012" lon="7.56262">
        <ele>1079.4941667624</ele>
        <time>2021-11-02T13:56:03Z</time>
      </trkpt>
      <trkpt lat="43.90119" lon="7.56262">
        <ele>1078.4942346592</ele>
        <time>2021-11-02T13:56:04Z</time>
      </trkpt>
      <trkpt lat="43.90118" lon="7.56262">
        <ele>1078.4943104379</ele>
        <time>2021-11-02T13:56:05Z</time>
      </trkpt>
      <trkpt lat="43.90117" lon="7.56261">
        <ele>1078.4943491461</ele>
        <time>2021-11-02T13:56:06Z</time>
      </trkpt>
      <trkpt lat="43.90115" lon="7.56261">
        <ele>1078.4944137705</ele>
        <time>2021-11-02T13:56:07Z</time>
      </trkpt>
      <trkpt lat="43.90114" lon="7.56261">
        <ele>1078.4944540048</ele>
        <time>2021-11-02T13:56:08Z</time>
      </trkpt>
      <trkpt lat="43.90113" lon="7.56261">
        <ele>1078.4945058349</ele>
        <time>2021-11-02T13:56:09Z</time>
      </trkpt>
      <trkpt lat="43.90112" lon="7.56261">
        <ele>1078.4945737905</ele>
        <time>2021-11-02T13:56:10Z</time>
      </trkpt>
      <trkpt lat="43.90111" lon="7.56261">
        <ele>1078.4946301234</ele>
        <time>2021-11-02T13:56:11Z</time>
      </trkpt>
      <trkpt lat="43.9011" lon="7.56261">
        <ele>1078.4946646714</ele>
        <time>2021-11-02T13:56:12Z</time>
      </trkpt>
      <trkpt lat="43.90109" lon="7.5626">
        <ele>1078.4947047709</ele>
        <time>2021-11-02T13:56:13Z</time>
      </trkpt>
      <trkpt lat="43.90107" lon="7.5626">
        <ele>1077.4948147208</ele>
        <time>2021-11-02T13:56:15Z</time>
      </trkpt>
      <trkpt lat="43.90105" lon="7.5626">
        <ele>1076.4949285299</ele>
        <time>2021-11-02T13:56:17Z</time>
      </trkpt>
      <trkpt lat="43.90103" lon="7.5626">
        <ele>1076.4949905956</ele>
        <time>2021-11-02T13:56:18Z</time>
      </trkpt>
      <trkpt lat="43.90102" lon="7.5626">
        <ele>1076.4950461717</ele>
        <time>2021-11-02T13:56:19Z</time>
      </trkpt>
      <trkpt lat="43.90101" lon="7.5626">
        <ele>1076.4951098454</ele>
        <time>2021-11-02T13:56:21Z</time>
      </trkpt>
      <trkpt lat="43.901" lon="7.5626">
        <ele>1076.4951431955</ele>
        <time>2021-11-02T13:56:22Z</time>
      </trkpt>
      <trkpt lat="43.90099" lon="7.5626">
        <ele>1076.4951923846</ele>
        <time>2021-11-02T13:56:23Z</time>
      </trkpt>
      <trkpt lat="43.90098" lon="7.5626">
        <ele>1076.4952684668</ele>
        <time>2021-11-02T13:56:25Z</time>
      </trkpt>
      <trkpt lat="43.90096" lon="7.56259">
        <ele>1076.4953349809</ele>
        <time>2021-11-02T13:56:27Z</time>
      </trkpt>
      <trkpt lat="43.90096" lon="7.56259">
        <ele>1075.4953531027</ele>
        <time>2021-11-02T13:56:28Z</time>
      </trkpt>
      <trkpt lat="43.90095" lon="7.56259">
        <ele>1075.4953823955</ele>
        <time>2021-11-02T13:56:29Z</time>
      </trkpt>
      <trkpt lat="43.90094" lon="7.56258">
        <ele>1075.4954254562</ele>
        <time>2021-11-02T13:56:30Z</time>
      </trkpt>
      <trkpt lat="43.90093" lon="7.56258">
        <ele>1074.4954723854</ele>
        <time>2021-11-02T13:56:31Z</time>
      </trkpt>
      <trkpt lat="43.90092" lon="7.56257">
        <ele>1074.4955116247</ele>
        <time>2021-11-02T13:56:32Z</time>
      </trkpt>
      <trkpt lat="43.90091" lon="7.56257">
        <ele>1074.4955666567</ele>
        <time>2021-11-02T13:56:33Z</time>
      </trkpt>
      <trkpt lat="43.90089" lon="7.56256">
        <ele>1073.495671176</ele>
        <time>2021-11-02T13:56:35Z</time>
      </trkpt>
      <trkpt lat="43.90086" lon="7.56258">
        <ele>1074.4958111219</ele>
        <time>2021-11-02T13:56:37Z</time>
      </trkpt>
      <trkpt lat="43.90085" lon="7.56258">
        <ele>1074.4958753399</ele>
        <time>2021-11-02T13:56:38Z</time>
      </trkpt>
      <trkpt lat="43.90084" lon="7.56259">
        <ele>1075.4959322487</ele>
        <time>2021-11-02T13:56:39Z</time>
      </trkpt>
      <trkpt lat="43.90083" lon="7.56259">
        <ele>1074.4959748739</ele>
        <time>2021-11-02T13:56:40Z</time>
      </trkpt>
      <trkpt lat="43.90083" lon="7.56259">
        <ele>1074.4959952752</ele>
        <time>2021-11-02T13:56:41Z</time>
      </trkpt>
      <trkpt lat="43.90082" lon="7.56259">
        <ele>1075.4960307357</ele>
        <time>2021-11-02T13:56:42Z</time>
      </trkpt>
      <trkpt lat="43.90081" lon="7.56259">
        <ele>1075.4960811576</ele>
        <time>2021-11-02T13:56:43Z</time>
      </trkpt>
      <trkpt lat="43.90079" lon="7.56259">
        <ele>1075.4961981169</ele>
        <time>2021-11-02T13:56:45Z</time>
      </trkpt>
      <trkpt lat="43.90078" lon="7.56258">
        <ele>1075.496234602</ele>
        <time>2021-11-02T13:56:46Z</time>
      </trkpt>
      <trkpt lat="43.90077" lon="7.56258">
        <ele>1075.4962824844</ele>
        <time>2021-11-02T13:56:47Z</time>
      </trkpt>
      <trkpt lat="43.90076" lon="7.56257">
        <ele>1075.4963373047</ele>
        <time>2021-11-02T13:56:48Z</time>
      </trkpt>
      <trkpt lat="43.90074" lon="7.56257">
        <ele>1075.4964032704</ele>
        <time>2021-11-02T13:56:49Z</time>
      </trkpt>
      <trkpt lat="43.90073" lon="7.56257">
        <ele>1075.4964789566</ele>
        <time>2021-11-02T13:56:50Z</time>
      </trkpt>
      <trkpt lat="43.90071" lon="7.56257">
        <ele>1075.4965337642</ele>
        <time>2021-11-02T13:56:51Z</time>
      </trkpt>
      <trkpt lat="43.90071" lon="7.56257">
        <ele>1075.4965676786</ele>
        <time>2021-11-02T13:56:52Z</time>
      </trkpt>
      <trkpt lat="43.9007" lon="7.56257">
        <ele>1075.4966112935</ele>
        <time>2021-11-02T13:56:53Z</time>
      </trkpt>
      <trkpt lat="43.90069" lon="7.56256">
        <ele>1075.4966603855</ele>
        <time>2021-11-02T13:56:54Z</time>
      </trkpt>
      <trkpt lat="43.90067" lon="7.56255">
        <ele>1075.4967158386</ele>
        <time>2021-11-02T13:56:56Z</time>
      </trkpt>
      <trkpt lat="43.90067" lon="7.56254">
        <ele>1075.4967222695</ele>
        <time>2021-11-02T13:56:57Z</time>
      </trkpt>
      <trkpt lat="43.90066" lon="7.56253">
        <ele>1074.4967406519</ele>
        <time>2021-11-02T13:56:58Z</time>
      </trkpt>
      <trkpt lat="43.90066" lon="7.56254">
        <ele>1074.4967803312</ele>
        <time>2021-11-02T13:57:00Z</time>
      </trkpt>
      <trkpt lat="43.90065" lon="7.56254">
        <ele>1074.496801251</ele>
        <time>2021-11-02T13:57:01Z</time>
      </trkpt>
      <trkpt lat="43.90064" lon="7.56254">
        <ele>1074.4968382691</ele>
        <time>2021-11-02T13:57:02Z</time>
      </trkpt>
      <trkpt lat="43.90064" lon="7.56254">
        <ele>1074.4968736081</ele>
        <time>2021-11-02T13:57:03Z</time>
      </trkpt>
      <trkpt lat="43.90063" lon="7.56254">
        <ele>1074.4968965883</ele>
        <time>2021-11-02T13:57:04Z</time>
      </trkpt>
      <trkpt lat="43.90062" lon="7.56254">
        <ele>1074.4969444268</ele>
        <time>2021-11-02T13:57:05Z</time>
      </trkpt>
      <trkpt lat="43.90062" lon="7.56254">
        <ele>1074.4969730822</ele>
        <time>2021-11-02T13:57:08Z</time>
      </trkpt>
      <trkpt lat="43.90061" lon="7.56253">
        <ele>1073.4970272302</ele>
        <time>2021-11-02T13:57:09Z</time>
      </trkpt>
      <trkpt lat="43.9006" lon="7.56253">
        <ele>1073.497037976</ele>
        <time>2021-11-02T13:57:14Z</time>
      </trkpt>
      <trkpt lat="43.90059" lon="7.56253">
        <ele>1072.497098812</ele>
        <time>2021-11-02T13:57:15Z</time>
      </trkpt>
      <trkpt lat="43.90059" lon="7.56252">
        <ele>1072.4970718202</ele>
        <time>2021-11-02T13:57:17Z</time>
      </trkpt>
      <trkpt lat="43.90059" lon="7.56251">
        <ele>1071.4970434593</ele>
        <time>2021-11-02T13:57:21Z</time>
      </trkpt>
      <trkpt lat="43.90059" lon="7.5625">
        <ele>1072.497048054</ele>
        <time>2021-11-02T13:57:46Z</time>
      </trkpt>
      <trkpt lat="43.90058" lon="7.5625">
        <ele>1072.497081123</ele>
        <time>2021-11-02T13:57:47Z</time>
      </trkpt>
      <trkpt lat="43.90058" lon="7.56251">
        <ele>1072.4971269367</ele>
        <time>2021-11-02T13:57:51Z</time>
      </trkpt>
      <trkpt lat="43.90057" lon="7.56252">
        <ele>1072.4971705038</ele>
        <time>2021-11-02T13:57:53Z</time>
      </trkpt>
      <trkpt lat="43.90056" lon="7.56252">
        <ele>1073.497233181</ele>
        <time>2021-11-02T13:57:54Z</time>
      </trkpt>
      <trkpt lat="43.90055" lon="7.56252">
        <ele>1073.4972724262</ele>
        <time>2021-11-02T13:57:55Z</time>
      </trkpt>
      <trkpt lat="43.90054" lon="7.56252">
        <ele>1074.4973460181</ele>
        <time>2021-11-02T13:57:57Z</time>
      </trkpt>
      <trkpt lat="43.90054" lon="7.56252">
        <ele>1074.4973460181</ele>
        <time>2021-11-02T13:57:59Z</time>
      </trkpt>
      <trkpt lat="43.90052" lon="7.56251">
        <ele>1075.4973988023</ele>
        <time>2021-11-02T13:58:00Z</time>
      </trkpt>
      <trkpt lat="43.90052" lon="7.56251">
        <ele>1075.4974275116</ele>
        <time>2021-11-02T13:58:01Z</time>
      </trkpt>
      <trkpt lat="43.90051" lon="7.56251">
        <ele>1074.4974588504</ele>
        <time>2021-11-02T13:58:02Z</time>
      </trkpt>
      <trkpt lat="43.90051" lon="7.56251">
        <ele>1075.4974571519</ele>
        <time>2021-11-02T13:58:16Z</time>
      </trkpt>
      <trkpt lat="43.90051" lon="7.56252">
        <ele>1076.4974949399</ele>
        <time>2021-11-02T13:58:17Z</time>
      </trkpt>
      <trkpt lat="43.90051" lon="7.56253">
        <ele>1076.4974794203</ele>
        <time>2021-11-02T13:58:28Z</time>
      </trkpt>
      <trkpt lat="43.90051" lon="7.56253">
        <ele>1075.4974959048</ele>
        <time>2021-11-02T13:58:46Z</time>
      </trkpt>
      <trkpt lat="43.90051" lon="7.56254">
        <ele>1074.4975283745</ele>
        <time>2021-11-02T13:58:47Z</time>
      </trkpt>
      <trkpt lat="43.90051" lon="7.56255">
        <ele>1074.4975166247</ele>
        <time>2021-11-02T13:58:48Z</time>
      </trkpt>
      <trkpt lat="43.90051" lon="7.56256">
        <ele>1073.4975264252</ele>
        <time>2021-11-02T13:58:50Z</time>
      </trkpt>
      <trkpt lat="43.90051" lon="7.56257">
        <ele>1073.4975387185</ele>
        <time>2021-11-02T13:58:51Z</time>
      </trkpt>
      <trkpt lat="43.90051" lon="7.56258">
        <ele>1073.497564637</ele>
        <time>2021-11-02T13:58:52Z</time>
      </trkpt>
      <trkpt lat="43.90051" lon="7.56259">
        <ele>1074.497582992</ele>
        <time>2021-11-02T13:58:53Z</time>
      </trkpt>
      <trkpt lat="43.90051" lon="7.56259">
        <ele>1074.4976064901</ele>
        <time>2021-11-02T13:58:54Z</time>
      </trkpt>
      <trkpt lat="43.9005" lon="7.5626">
        <ele>1074.4976317603</ele>
        <time>2021-11-02T13:58:57Z</time>
      </trkpt>
      <trkpt lat="43.9005" lon="7.56262">
        <ele>1075.4976750853</ele>
        <time>2021-11-02T13:58:58Z</time>
      </trkpt>
      <trkpt lat="43.9005" lon="7.56262">
        <ele>1075.4976924874</ele>
        <time>2021-11-02T13:59:00Z</time>
      </trkpt>
      <trkpt lat="43.90051" lon="7.56263">
        <ele>1075.4976826186</ele>
        <time>2021-11-02T13:59:01Z</time>
      </trkpt>
      <trkpt lat="43.90051" lon="7.56264">
        <ele>1076.4976743114</ele>
        <time>2021-11-02T13:59:02Z</time>
      </trkpt>
      <trkpt lat="43.90051" lon="7.56265">
        <ele>1076.4976798975</ele>
        <time>2021-11-02T13:59:03Z</time>
      </trkpt>
      <trkpt lat="43.90051" lon="7.56266">
        <ele>1076.4976945933</ele>
        <time>2021-11-02T13:59:04Z</time>
      </trkpt>
      <trkpt lat="43.90051" lon="7.56267">
        <ele>1076.497724556</ele>
        <time>2021-11-02T13:59:10Z</time>
      </trkpt>
      <trkpt lat="43.90051" lon="7.56268">
        <ele>1077.4977262341</ele>
        <time>2021-11-02T13:59:11Z</time>
      </trkpt>
      <trkpt lat="43.90052" lon="7.56269">
        <ele>1077.4977224976</ele>
        <time>2021-11-02T13:59:12Z</time>
      </trkpt>
      <trkpt lat="43.90052" lon="7.5627">
        <ele>1077.4977279661</ele>
        <time>2021-11-02T13:59:13Z</time>
      </trkpt>
      <trkpt lat="43.90052" lon="7.56271">
        <ele>1077.4977224737</ele>
        <time>2021-11-02T13:59:14Z</time>
      </trkpt>
      <trkpt lat="43.90053" lon="7.56272">
        <ele>1076.4977216685</ele>
        <time>2021-11-02T13:59:15Z</time>
      </trkpt>
      <trkpt lat="43.90053" lon="7.56274">
        <ele>1076.4977313269</ele>
        <time>2021-11-02T13:59:16Z</time>
      </trkpt>
      <trkpt lat="43.90053" lon="7.56274">
        <ele>1076.4977370598</ele>
        <time>2021-11-02T13:59:17Z</time>
      </trkpt>
      <trkpt lat="43.90053" lon="7.56276">
        <ele>1076.4977372048</ele>
        <time>2021-11-02T13:59:19Z</time>
      </trkpt>
      <trkpt lat="43.90054" lon="7.56276">
        <ele>1077.4977422145</ele>
        <time>2021-11-02T13:59:20Z</time>
      </trkpt>
      <trkpt lat="43.90054" lon="7.56277">
        <ele>1076.4977588695</ele>
        <time>2021-11-02T13:59:21Z</time>
      </trkpt>
      <trkpt lat="43.90054" lon="7.56278">
        <ele>1076.4977571236</ele>
        <time>2021-11-02T13:59:22Z</time>
      </trkpt>
      <trkpt lat="43.90055" lon="7.56279">
        <ele>1076.4977266433</ele>
        <time>2021-11-02T13:59:23Z</time>
      </trkpt>
      <trkpt lat="43.90056" lon="7.56281">
        <ele>1076.4977112002</ele>
        <time>2021-11-02T13:59:24Z</time>
      </trkpt>
      <trkpt lat="43.90056" lon="7.56282">
        <ele>1076.4977198055</ele>
        <time>2021-11-02T13:59:25Z</time>
      </trkpt>
      <trkpt lat="43.90056" lon="7.56283">
        <ele>1076.4977510598</ele>
        <time>2021-11-02T13:59:26Z</time>
      </trkpt>
      <trkpt lat="43.90056" lon="7.56284">
        <ele>1076.497760069</ele>
        <time>2021-11-02T13:59:27Z</time>
      </trkpt>
      <trkpt lat="43.90056" lon="7.56285">
        <ele>1077.4977446298</ele>
        <time>2021-11-02T13:59:28Z</time>
      </trkpt>
      <trkpt lat="43.90056" lon="7.56285">
        <ele>1077.497747421</ele>
        <time>2021-11-02T13:59:30Z</time>
      </trkpt>
      <trkpt lat="43.90057" lon="7.56286">
        <ele>1077.4977359429</ele>
        <time>2021-11-02T13:59:31Z</time>
      </trkpt>
      <trkpt lat="43.90057" lon="7.56287">
        <ele>1076.4977543468</ele>
        <time>2021-11-02T13:59:32Z</time>
      </trkpt>
      <trkpt lat="43.90057" lon="7.56288">
        <ele>1076.4977628208</ele>
        <time>2021-11-02T13:59:34Z</time>
      </trkpt>
      <trkpt lat="43.90057" lon="7.56288">
        <ele>1075.4977479548</ele>
        <time>2021-11-02T13:59:35Z</time>
      </trkpt>
      <trkpt lat="43.90058" lon="7.56289">
        <ele>1075.4977123702</ele>
        <time>2021-11-02T13:59:36Z</time>
      </trkpt>
      <trkpt lat="43.90059" lon="7.5629">
        <ele>1075.4977066957</ele>
        <time>2021-11-02T13:59:37Z</time>
      </trkpt>
      <trkpt lat="43.90059" lon="7.56291">
        <ele>1075.4977322678</ele>
        <time>2021-11-02T13:59:38Z</time>
      </trkpt>
      <trkpt lat="43.90058" lon="7.56292">
        <ele>1074.4977730073</ele>
        <time>2021-11-02T13:59:39Z</time>
      </trkpt>
      <trkpt lat="43.90058" lon="7.56293">
        <ele>1074.4978046293</ele>
        <time>2021-11-02T13:59:40Z</time>
      </trkpt>
      <trkpt lat="43.90058" lon="7.56294">
        <ele>1073.4978092195</ele>
        <time>2021-11-02T13:59:43Z</time>
      </trkpt>
      <trkpt lat="43.90058" lon="7.56295">
        <ele>1073.4978090826</ele>
        <time>2021-11-02T13:59:44Z</time>
      </trkpt>
      <trkpt lat="43.90059" lon="7.56296">
        <ele>1073.4978058243</ele>
        <time>2021-11-02T13:59:45Z</time>
      </trkpt>
      <trkpt lat="43.90059" lon="7.56297">
        <ele>1073.4978201272</ele>
        <time>2021-11-02T13:59:46Z</time>
      </trkpt>
      <trkpt lat="43.90059" lon="7.56297">
        <ele>1073.4978156879</ele>
        <time>2021-11-02T13:59:47Z</time>
      </trkpt>
      <trkpt lat="43.90059" lon="7.56298">
        <ele>1072.4977935823</ele>
        <time>2021-11-02T13:59:48Z</time>
      </trkpt>
      <trkpt lat="43.9006" lon="7.56299">
        <ele>1072.4977987774</ele>
        <time>2021-11-02T13:59:49Z</time>
      </trkpt>
      <trkpt lat="43.9006" lon="7.563">
        <ele>1072.4977981515</ele>
        <time>2021-11-02T13:59:50Z</time>
      </trkpt>
      <trkpt lat="43.90061" lon="7.563">
        <ele>1072.4977633956</ele>
        <time>2021-11-02T13:59:51Z</time>
      </trkpt>
      <trkpt lat="43.90061" lon="7.56301">
        <ele>1072.4977440418</ele>
        <time>2021-11-02T13:59:52Z</time>
      </trkpt>
      <trkpt lat="43.90061" lon="7.56302">
        <ele>1073.4977604928</ele>
        <time>2021-11-02T13:59:53Z</time>
      </trkpt>
      <trkpt lat="43.90061" lon="7.56303">
        <ele>1072.4977725652</ele>
        <time>2021-11-02T13:59:54Z</time>
      </trkpt>
      <trkpt lat="43.90061" lon="7.56304">
        <ele>1072.4977828083</ele>
        <time>2021-11-02T13:59:55Z</time>
      </trkpt>
      <trkpt lat="43.90062" lon="7.56304">
        <ele>1072.4977688183</ele>
        <time>2021-11-02T13:59:56Z</time>
      </trkpt>
      <trkpt lat="43.90062" lon="7.56306">
        <ele>1072.4977825494</ele>
        <time>2021-11-02T13:59:57Z</time>
      </trkpt>
      <trkpt lat="43.90063" lon="7.56307">
        <ele>1072.4977736748</ele>
        <time>2021-11-02T13:59:58Z</time>
      </trkpt>
      <trkpt lat="43.90063" lon="7.56307">
        <ele>1072.4977612347</ele>
        <time>2021-11-02T13:59:59Z</time>
      </trkpt>
      <trkpt lat="43.90063" lon="7.56308">
        <ele>1072.4977929118</ele>
        <time>2021-11-02T14:00:02Z</time>
      </trkpt>
      <trkpt lat="43.90063" lon="7.56309">
        <ele>1070.4978095597</ele>
        <time>2021-11-02T14:00:03Z</time>
      </trkpt>
      <trkpt lat="43.90063" lon="7.56311">
        <ele>1070.4978188663</ele>
        <time>2021-11-02T14:00:05Z</time>
      </trkpt>
      <trkpt lat="43.90063" lon="7.56312">
        <ele>1070.4978431473</ele>
        <time>2021-11-02T14:00:08Z</time>
      </trkpt>
      <trkpt lat="43.90063" lon="7.56312">
        <ele>1069.4978441592</ele>
        <time>2021-11-02T14:00:09Z</time>
      </trkpt>
      <trkpt lat="43.90062" lon="7.56313">
        <ele>1069.4978893248</ele>
        <time>2021-11-02T14:00:11Z</time>
      </trkpt>
      <trkpt lat="43.90062" lon="7.56314">
        <ele>1069.4978936913</ele>
        <time>2021-11-02T14:00:12Z</time>
      </trkpt>
      <trkpt lat="43.90063" lon="7.56315">
        <ele>1069.49790252</ele>
        <time>2021-11-02T14:00:17Z</time>
      </trkpt>
      <trkpt lat="43.90062" lon="7.56318">
        <ele>1068.4979571253</ele>
        <time>2021-11-02T14:00:18Z</time>
      </trkpt>
      <trkpt lat="43.90062" lon="7.56319">
        <ele>1067.4980009443</ele>
        <time>2021-11-02T14:00:20Z</time>
      </trkpt>
      <trkpt lat="43.90062" lon="7.5632">
        <ele>1066.4980254518</ele>
        <time>2021-11-02T14:00:21Z</time>
      </trkpt>
      <trkpt lat="43.90062" lon="7.56321">
        <ele>1065.4980470315</ele>
        <time>2021-11-02T14:00:22Z</time>
      </trkpt>
      <trkpt lat="43.90061" lon="7.56321">
        <ele>1064.4980804822</ele>
        <time>2021-11-02T14:00:24Z</time>
      </trkpt>
      <trkpt lat="43.9006" lon="7.56324">
        <ele>1063.4981710412</ele>
        <time>2021-11-02T14:00:25Z</time>
      </trkpt>
      <trkpt lat="43.90059" lon="7.56324">
        <ele>1061.4982476401</ele>
        <time>2021-11-02T14:00:26Z</time>
      </trkpt>
      <trkpt lat="43.90058" lon="7.56326">
        <ele>1061.4983280375</ele>
        <time>2021-11-02T14:00:27Z</time>
      </trkpt>
      <trkpt lat="43.90057" lon="7.56327">
        <ele>1060.4983810183</ele>
        <time>2021-11-02T14:00:28Z</time>
      </trkpt>
      <trkpt lat="43.90056" lon="7.56328">
        <ele>1060.4984156633</ele>
        <time>2021-11-02T14:00:29Z</time>
      </trkpt>
      <trkpt lat="43.90056" lon="7.56329">
        <ele>1059.4984559578</ele>
        <time>2021-11-02T14:00:32Z</time>
      </trkpt>
      <trkpt lat="43.90054" lon="7.56332">
        <ele>1058.4985988874</ele>
        <time>2021-11-02T14:00:33Z</time>
      </trkpt>
      <trkpt lat="43.90054" lon="7.56333">
        <ele>1059.4986440946</ele>
        <time>2021-11-02T14:00:35Z</time>
      </trkpt>
      <trkpt lat="43.90054" lon="7.56335">
        <ele>1059.4986723677</ele>
        <time>2021-11-02T14:00:37Z</time>
      </trkpt>
      <trkpt lat="43.90054" lon="7.56335">
        <ele>1059.4986688679</ele>
        <time>2021-11-02T14:00:38Z</time>
      </trkpt>
      <trkpt lat="43.90054" lon="7.56335">
        <ele>1058.4986377997</ele>
        <time>2021-11-02T14:00:39Z</time>
      </trkpt>
      <trkpt lat="43.90055" lon="7.56336">
        <ele>1057.4986212634</ele>
        <time>2021-11-02T14:00:41Z</time>
      </trkpt>
      <trkpt lat="43.90055" lon="7.56337">
        <ele>1056.4986488254</ele>
        <time>2021-11-02T14:00:42Z</time>
      </trkpt>
      <trkpt lat="43.90055" lon="7.56338">
        <ele>1056.4986777018</ele>
        <time>2021-11-02T14:00:45Z</time>
      </trkpt>
      <trkpt lat="43.90057" lon="7.5634">
        <ele>1057.4985997392</ele>
        <time>2021-11-02T14:00:47Z</time>
      </trkpt>
      <trkpt lat="43.90057" lon="7.5634">
        <ele>1057.498578557</ele>
        <time>2021-11-02T14:00:48Z</time>
      </trkpt>
      <trkpt lat="43.90058" lon="7.56341">
        <ele>1057.4985759555</ele>
        <time>2021-11-02T14:00:49Z</time>
      </trkpt>
      <trkpt lat="43.90058" lon="7.56342">
        <ele>1057.4985622075</ele>
        <time>2021-11-02T14:00:50Z</time>
      </trkpt>
      <trkpt lat="43.90058" lon="7.56344">
        <ele>1056.4986037693</ele>
        <time>2021-11-02T14:00:52Z</time>
      </trkpt>
      <trkpt lat="43.90058" lon="7.56346">
        <ele>1055.4986311168</ele>
        <time>2021-11-02T14:00:53Z</time>
      </trkpt>
      <trkpt lat="43.90058" lon="7.56347">
        <ele>1055.4986229352</ele>
        <time>2021-11-02T14:00:54Z</time>
      </trkpt>
      <trkpt lat="43.90059" lon="7.56348">
        <ele>1055.4986075473</ele>
        <time>2021-11-02T14:00:55Z</time>
      </trkpt>
      <trkpt lat="43.9006" lon="7.56348">
        <ele>1054.4985726651</ele>
        <time>2021-11-02T14:00:57Z</time>
      </trkpt>
      <trkpt lat="43.9006" lon="7.5635">
        <ele>1055.4985769053</ele>
        <time>2021-11-02T14:00:58Z</time>
      </trkpt>
      <trkpt lat="43.9006" lon="7.56351">
        <ele>1055.4986075912</ele>
        <time>2021-11-02T14:00:59Z</time>
      </trkpt>
      <trkpt lat="43.90059" lon="7.56353">
        <ele>1055.4986927905</ele>
        <time>2021-11-02T14:01:01Z</time>
      </trkpt>
      <trkpt lat="43.90058" lon="7.56355">
        <ele>1054.4987799249</ele>
        <time>2021-11-02T14:01:03Z</time>
      </trkpt>
      <trkpt lat="43.90058" lon="7.56357">
        <ele>1053.4988190999</ele>
        <time>2021-11-02T14:01:04Z</time>
      </trkpt>
      <trkpt lat="43.90057" lon="7.56358">
        <ele>1053.4988808314</ele>
        <time>2021-11-02T14:01:05Z</time>
      </trkpt>
      <trkpt lat="43.90056" lon="7.56358">
        <ele>1054.4989242499</ele>
        <time>2021-11-02T14:01:06Z</time>
      </trkpt>
      <trkpt lat="43.90056" lon="7.56359">
        <ele>1055.4989408016</ele>
        <time>2021-11-02T14:01:07Z</time>
      </trkpt>
      <trkpt lat="43.90056" lon="7.5636">
        <ele>1054.4989598416</ele>
        <time>2021-11-02T14:01:08Z</time>
      </trkpt>
      <trkpt lat="43.90055" lon="7.56361">
        <ele>1054.4989899396</ele>
        <time>2021-11-02T14:01:09Z</time>
      </trkpt>
      <trkpt lat="43.90055" lon="7.56362">
        <ele>1054.4990049282</ele>
        <time>2021-11-02T14:01:10Z</time>
      </trkpt>
      <trkpt lat="43.90056" lon="7.56362">
        <ele>1054.4990117046</ele>
        <time>2021-11-02T14:01:11Z</time>
      </trkpt>
      <trkpt lat="43.90056" lon="7.56364">
        <ele>1054.4990359771</ele>
        <time>2021-11-02T14:01:12Z</time>
      </trkpt>
      <trkpt lat="43.90056" lon="7.56366">
        <ele>1054.4990649432</ele>
        <time>2021-11-02T14:01:13Z</time>
      </trkpt>
      <trkpt lat="43.90056" lon="7.56367">
        <ele>1053.4990893287</ele>
        <time>2021-11-02T14:01:14Z</time>
      </trkpt>
      <trkpt lat="43.90055" lon="7.56369">
        <ele>1053.4991178958</ele>
        <time>2021-11-02T14:01:15Z</time>
      </trkpt>
      <trkpt lat="43.90055" lon="7.5637">
        <ele>1052.4991350591</ele>
        <time>2021-11-02T14:01:16Z</time>
      </trkpt>
      <trkpt lat="43.90055" lon="7.56371">
        <ele>1052.4991780389</ele>
        <time>2021-11-02T14:01:17Z</time>
      </trkpt>
      <trkpt lat="43.90055" lon="7.56372">
        <ele>1052.4992115301</ele>
        <time>2021-11-02T14:01:18Z</time>
      </trkpt>
      <trkpt lat="43.90054" lon="7.56373">
        <ele>1051.4992512816</ele>
        <time>2021-11-02T14:01:19Z</time>
      </trkpt>
      <trkpt lat="43.90054" lon="7.56375">
        <ele>1050.4992760113</ele>
        <time>2021-11-02T14:01:21Z</time>
      </trkpt>
      <trkpt lat="43.90054" lon="7.56377">
        <ele>1050.4993048853</ele>
        <time>2021-11-02T14:01:22Z</time>
      </trkpt>
      <trkpt lat="43.90054" lon="7.56378">
        <ele>1049.499344686</ele>
        <time>2021-11-02T14:01:23Z</time>
      </trkpt>
      <trkpt lat="43.90054" lon="7.5638">
        <ele>1049.4993803926</ele>
        <time>2021-11-02T14:01:24Z</time>
      </trkpt>
      <trkpt lat="43.90054" lon="7.56381">
        <ele>1048.4994065037</ele>
        <time>2021-11-02T14:01:25Z</time>
      </trkpt>
      <trkpt lat="43.90053" lon="7.56384">
        <ele>1047.4995010935</ele>
        <time>2021-11-02T14:01:27Z</time>
      </trkpt>
      <trkpt lat="43.90052" lon="7.56385">
        <ele>1046.4995325815</ele>
        <time>2021-11-02T14:01:28Z</time>
      </trkpt>
      <trkpt lat="43.90052" lon="7.56387">
        <ele>1046.499560857</ele>
        <time>2021-11-02T14:01:29Z</time>
      </trkpt>
      <trkpt lat="43.90052" lon="7.56389">
        <ele>1046.4995989286</ele>
        <time>2021-11-02T14:01:30Z</time>
      </trkpt>
      <trkpt lat="43.90052" lon="7.5639">
        <ele>1045.4996163316</ele>
        <time>2021-11-02T14:01:31Z</time>
      </trkpt>
      <trkpt lat="43.90052" lon="7.56391">
        <ele>1045.4996328834</ele>
        <time>2021-11-02T14:01:32Z</time>
      </trkpt>
      <trkpt lat="43.90052" lon="7.56392">
        <ele>1046.4996430848</ele>
        <time>2021-11-02T14:01:33Z</time>
      </trkpt>
      <trkpt lat="43.90052" lon="7.56393">
        <ele>1045.4996843099</ele>
        <time>2021-11-02T14:01:34Z</time>
      </trkpt>
      <trkpt lat="43.90052" lon="7.56394">
        <ele>1045.4996998604</ele>
        <time>2021-11-02T14:01:35Z</time>
      </trkpt>
      <trkpt lat="43.90051" lon="7.56395">
        <ele>1046.4997389235</ele>
        <time>2021-11-02T14:01:36Z</time>
      </trkpt>
      <trkpt lat="43.90051" lon="7.56396">
        <ele>1045.4997726861</ele>
        <time>2021-11-02T14:01:37Z</time>
      </trkpt>
      <trkpt lat="43.90051" lon="7.56398">
        <ele>1045.4998170893</ele>
        <time>2021-11-02T14:01:38Z</time>
      </trkpt>
      <trkpt lat="43.90051" lon="7.56399">
        <ele>1045.4998496059</ele>
        <time>2021-11-02T14:01:39Z</time>
      </trkpt>
      <trkpt lat="43.9005" lon="7.56401">
        <ele>1045.4998747158</ele>
        <time>2021-11-02T14:01:40Z</time>
      </trkpt>
      <trkpt lat="43.9005" lon="7.564">
        <ele>1044.4998726726</ele>
        <time>2021-11-02T14:01:44Z</time>
      </trkpt>
      <trkpt lat="43.9005" lon="7.56402">
        <ele>1044.4999191773</ele>
        <time>2021-11-02T14:01:45Z</time>
      </trkpt>
      <trkpt lat="43.90049" lon="7.56403">
        <ele>1044.4999835855</ele>
        <time>2021-11-02T14:01:46Z</time>
      </trkpt>
      <trkpt lat="43.90048" lon="7.56405">
        <ele>1043.5000621719</ele>
        <time>2021-11-02T14:01:47Z</time>
      </trkpt>
      <trkpt lat="43.90048" lon="7.56406">
        <ele>1043.5000955807</ele>
        <time>2021-11-02T14:01:48Z</time>
      </trkpt>
      <trkpt lat="43.90047" lon="7.56408">
        <ele>1043.5001652561</ele>
        <time>2021-11-02T14:01:49Z</time>
      </trkpt>
      <trkpt lat="43.90046" lon="7.56409">
        <ele>1043.5002148414</ele>
        <time>2021-11-02T14:01:50Z</time>
      </trkpt>
      <trkpt lat="43.90046" lon="7.5641">
        <ele>1042.5002654613</ele>
        <time>2021-11-02T14:01:51Z</time>
      </trkpt>
      <trkpt lat="43.90046" lon="7.56412">
        <ele>1043.5002938399</ele>
        <time>2021-11-02T14:01:52Z</time>
      </trkpt>
      <trkpt lat="43.90046" lon="7.56413">
        <ele>1043.5003229607</ele>
        <time>2021-11-02T14:01:53Z</time>
      </trkpt>
      <trkpt lat="43.90045" lon="7.56414">
        <ele>1042.500344633</ele>
        <time>2021-11-02T14:01:54Z</time>
      </trkpt>
      <trkpt lat="43.90045" lon="7.56414">
        <ele>1042.5003753071</ele>
        <time>2021-11-02T14:01:55Z</time>
      </trkpt>
      <trkpt lat="43.90044" lon="7.56416">
        <ele>1042.5004293681</ele>
        <time>2021-11-02T14:01:56Z</time>
      </trkpt>
      <trkpt lat="43.90043" lon="7.56417">
        <ele>1041.500482488</ele>
        <time>2021-11-02T14:01:57Z</time>
      </trkpt>
      <trkpt lat="43.90043" lon="7.56418">
        <ele>1041.5005344805</ele>
        <time>2021-11-02T14:01:58Z</time>
      </trkpt>
      <trkpt lat="43.90043" lon="7.5642">
        <ele>1041.5005701402</ele>
        <time>2021-11-02T14:01:59Z</time>
      </trkpt>
      <trkpt lat="43.90042" lon="7.56421">
        <ele>1042.5006063587</ele>
        <time>2021-11-02T14:02:00Z</time>
      </trkpt>
      <trkpt lat="43.90042" lon="7.56422">
        <ele>1042.5006646633</ele>
        <time>2021-11-02T14:02:01Z</time>
      </trkpt>
      <trkpt lat="43.90041" lon="7.56423">
        <ele>1043.5007157707</ele>
        <time>2021-11-02T14:02:02Z</time>
      </trkpt>
      <trkpt lat="43.9004" lon="7.56424">
        <ele>1043.5007726125</ele>
        <time>2021-11-02T14:02:03Z</time>
      </trkpt>
      <trkpt lat="43.90039" lon="7.56425">
        <ele>1043.5008391319</ele>
        <time>2021-11-02T14:02:04Z</time>
      </trkpt>
      <trkpt lat="43.90038" lon="7.56426">
        <ele>1043.5009040747</ele>
        <time>2021-11-02T14:02:05Z</time>
      </trkpt>
      <trkpt lat="43.90037" lon="7.56426">
        <ele>1042.5009524942</ele>
        <time>2021-11-02T14:02:06Z</time>
      </trkpt>
      <trkpt lat="43.90037" lon="7.56426">
        <ele>1042.5009849511</ele>
        <time>2021-11-02T14:02:07Z</time>
      </trkpt>
      <trkpt lat="43.90036" lon="7.56427">
        <ele>1040.5010103154</ele>
        <time>2021-11-02T14:03:08Z</time>
      </trkpt>
      <trkpt lat="43.90036" lon="7.56427">
        <ele>1040.5010487456</ele>
        <time>2021-11-02T14:03:09Z</time>
      </trkpt>
      <trkpt lat="43.90035" lon="7.56428">
        <ele>1039.5011134583</ele>
        <time>2021-11-02T14:03:10Z</time>
      </trkpt>
      <trkpt lat="43.90034" lon="7.5643">
        <ele>1038.5011929273</ele>
        <time>2021-11-02T14:03:11Z</time>
      </trkpt>
      <trkpt lat="43.90032" lon="7.56431">
        <ele>1038.501277978</ele>
        <time>2021-11-02T14:03:12Z</time>
      </trkpt>
      <trkpt lat="43.90031" lon="7.56432">
        <ele>1038.5013347952</ele>
        <time>2021-11-02T14:03:13Z</time>
      </trkpt>
      <trkpt lat="43.90031" lon="7.56433">
        <ele>1039.5013828898</ele>
        <time>2021-11-02T14:03:14Z</time>
      </trkpt>
      <trkpt lat="43.9003" lon="7.56433">
        <ele>1038.5014469281</ele>
        <time>2021-11-02T14:03:15Z</time>
      </trkpt>
      <trkpt lat="43.90029" lon="7.56434">
        <ele>1038.5014898182</ele>
        <time>2021-11-02T14:03:16Z</time>
      </trkpt>
      <trkpt lat="43.90028" lon="7.56435">
        <ele>1038.5015540468</ele>
        <time>2021-11-02T14:03:17Z</time>
      </trkpt>
      <trkpt lat="43.90027" lon="7.56436">
        <ele>1038.5016074304</ele>
        <time>2021-11-02T14:03:18Z</time>
      </trkpt>
      <trkpt lat="43.90027" lon="7.56437">
        <ele>1038.5016551042</ele>
        <time>2021-11-02T14:03:19Z</time>
      </trkpt>
      <trkpt lat="43.90025" lon="7.56437">
        <ele>1038.5017254827</ele>
        <time>2021-11-02T14:03:20Z</time>
      </trkpt>
      <trkpt lat="43.90024" lon="7.56437">
        <ele>1039.5017856503</ele>
        <time>2021-11-02T14:03:21Z</time>
      </trkpt>
      <trkpt lat="43.90023" lon="7.56438">
        <ele>1039.5018573622</ele>
        <time>2021-11-02T14:03:22Z</time>
      </trkpt>
      <trkpt lat="43.90022" lon="7.56438">
        <ele>1040.5019314513</ele>
        <time>2021-11-02T14:03:23Z</time>
      </trkpt>
      <trkpt lat="43.90021" lon="7.5644">
        <ele>1040.5020007758</ele>
        <time>2021-11-02T14:03:24Z</time>
      </trkpt>
      <trkpt lat="43.90019" lon="7.56441">
        <ele>1040.5020734581</ele>
        <time>2021-11-02T14:03:25Z</time>
      </trkpt>
      <trkpt lat="43.90018" lon="7.56442">
        <ele>1040.5021449089</ele>
        <time>2021-11-02T14:03:26Z</time>
      </trkpt>
      <trkpt lat="43.90017" lon="7.56443">
        <ele>1040.5022213402</ele>
        <time>2021-11-02T14:03:27Z</time>
      </trkpt>
      <trkpt lat="43.90016" lon="7.56444">
        <ele>1041.5022878292</ele>
        <time>2021-11-02T14:03:28Z</time>
      </trkpt>
      <trkpt lat="43.90015" lon="7.56445">
        <ele>1041.502357283</ele>
        <time>2021-11-02T14:03:29Z</time>
      </trkpt>
      <trkpt lat="43.90014" lon="7.56446">
        <ele>1040.5024124871</ele>
        <time>2021-11-02T14:03:30Z</time>
      </trkpt>
      <trkpt lat="43.90013" lon="7.56447">
        <ele>1040.5024765324</ele>
        <time>2021-11-02T14:03:31Z</time>
      </trkpt>
      <trkpt lat="43.90012" lon="7.56448">
        <ele>1039.5025344139</ele>
        <time>2021-11-02T14:03:32Z</time>
      </trkpt>
      <trkpt lat="43.90012" lon="7.56448">
        <ele>1039.5025772768</ele>
        <time>2021-11-02T14:03:33Z</time>
      </trkpt>
      <trkpt lat="43.90011" lon="7.56449">
        <ele>1039.5026228747</ele>
        <time>2021-11-02T14:03:34Z</time>
      </trkpt>
      <trkpt lat="43.9001" lon="7.5645">
        <ele>1039.5026876034</ele>
        <time>2021-11-02T14:03:35Z</time>
      </trkpt>
      <trkpt lat="43.90009" lon="7.56452">
        <ele>1038.5027650466</ele>
        <time>2021-11-02T14:03:36Z</time>
      </trkpt>
      <trkpt lat="43.90008" lon="7.56453">
        <ele>1038.5028326537</ele>
        <time>2021-11-02T14:03:37Z</time>
      </trkpt>
      <trkpt lat="43.90007" lon="7.56454">
        <ele>1038.5028981183</ele>
        <time>2021-11-02T14:03:38Z</time>
      </trkpt>
      <trkpt lat="43.90007" lon="7.56456">
        <ele>1037.5029578939</ele>
        <time>2021-11-02T14:03:39Z</time>
      </trkpt>
      <trkpt lat="43.90006" lon="7.56457">
        <ele>1036.5030273361</ele>
        <time>2021-11-02T14:03:40Z</time>
      </trkpt>
      <trkpt lat="43.90005" lon="7.56458">
        <ele>1036.5030850308</ele>
        <time>2021-11-02T14:03:41Z</time>
      </trkpt>
      <trkpt lat="43.90004" lon="7.56459">
        <ele>1036.5031608286</ele>
        <time>2021-11-02T14:03:42Z</time>
      </trkpt>
      <trkpt lat="43.90003" lon="7.5646">
        <ele>1036.5032282664</ele>
        <time>2021-11-02T14:03:43Z</time>
      </trkpt>
      <trkpt lat="43.90002" lon="7.5646">
        <ele>1036.5032557726</ele>
        <time>2021-11-02T14:03:44Z</time>
      </trkpt>
      <trkpt lat="43.90002" lon="7.56461">
        <ele>1035.5032874147</ele>
        <time>2021-11-02T14:03:45Z</time>
      </trkpt>
      <trkpt lat="43.90002" lon="7.56462">
        <ele>1035.5033093728</ele>
        <time>2021-11-02T14:03:46Z</time>
      </trkpt>
      <trkpt lat="43.90001" lon="7.56463">
        <ele>1035.5033421772</ele>
        <time>2021-11-02T14:03:47Z</time>
      </trkpt>
      <trkpt lat="43.90001" lon="7.56465">
        <ele>1035.5034080319</ele>
        <time>2021-11-02T14:03:48Z</time>
      </trkpt>
      <trkpt lat="43.9" lon="7.56466">
        <ele>1035.5034862592</ele>
        <time>2021-11-02T14:03:49Z</time>
      </trkpt>
      <trkpt lat="43.89999" lon="7.56468">
        <ele>1034.5035261721</ele>
        <time>2021-11-02T14:03:50Z</time>
      </trkpt>
      <trkpt lat="43.89999" lon="7.56469">
        <ele>1034.5035730501</ele>
        <time>2021-11-02T14:03:51Z</time>
      </trkpt>
      <trkpt lat="43.89998" lon="7.5647">
        <ele>1034.5036229025</ele>
        <time>2021-11-02T14:03:52Z</time>
      </trkpt>
      <trkpt lat="43.89997" lon="7.56471">
        <ele>1033.5036738026</ele>
        <time>2021-11-02T14:03:53Z</time>
      </trkpt>
      <trkpt lat="43.89996" lon="7.56472">
        <ele>1033.5037393763</ele>
        <time>2021-11-02T14:03:54Z</time>
      </trkpt>
      <trkpt lat="43.89995" lon="7.56473">
        <ele>1032.5038171772</ele>
        <time>2021-11-02T14:03:55Z</time>
      </trkpt>
      <trkpt lat="43.89994" lon="7.56474">
        <ele>1031.503891759</ele>
        <time>2021-11-02T14:03:56Z</time>
      </trkpt>
      <trkpt lat="43.89993" lon="7.56474">
        <ele>1031.503925948</ele>
        <time>2021-11-02T14:03:57Z</time>
      </trkpt>
      <trkpt lat="43.89993" lon="7.56475">
        <ele>1030.5039530156</ele>
        <time>2021-11-02T14:03:58Z</time>
      </trkpt>
      <trkpt lat="43.89992" lon="7.56475">
        <ele>1030.5040054474</ele>
        <time>2021-11-02T14:03:59Z</time>
      </trkpt>
      <trkpt lat="43.89991" lon="7.56476">
        <ele>1030.5040733791</ele>
        <time>2021-11-02T14:04:00Z</time>
      </trkpt>
      <trkpt lat="43.8999" lon="7.56477">
        <ele>1030.5041310881</ele>
        <time>2021-11-02T14:04:01Z</time>
      </trkpt>
      <trkpt lat="43.8999" lon="7.56479">
        <ele>1031.5041814427</ele>
        <time>2021-11-02T14:04:02Z</time>
      </trkpt>
      <trkpt lat="43.89989" lon="7.5648">
        <ele>1031.5042225726</ele>
        <time>2021-11-02T14:04:03Z</time>
      </trkpt>
      <trkpt lat="43.89989" lon="7.56482">
        <ele>1030.5042701157</ele>
        <time>2021-11-02T14:04:04Z</time>
      </trkpt>
      <trkpt lat="43.89988" lon="7.56483">
        <ele>1029.5043307473</ele>
        <time>2021-11-02T14:04:05Z</time>
      </trkpt>
      <trkpt lat="43.89987" lon="7.56485">
        <ele>1030.5044095961</ele>
        <time>2021-11-02T14:04:06Z</time>
      </trkpt>
      <trkpt lat="43.89986" lon="7.56486">
        <ele>1030.504477359</ele>
        <time>2021-11-02T14:04:07Z</time>
      </trkpt>
      <trkpt lat="43.89985" lon="7.56487">
        <ele>1030.504540135</ele>
        <time>2021-11-02T14:04:08Z</time>
      </trkpt>
      <trkpt lat="43.89985" lon="7.56488">
        <ele>1029.5045827025</ele>
        <time>2021-11-02T14:04:09Z</time>
      </trkpt>
      <trkpt lat="43.89984" lon="7.56489">
        <ele>1029.5046513949</ele>
        <time>2021-11-02T14:04:10Z</time>
      </trkpt>
      <trkpt lat="43.89983" lon="7.5649">
        <ele>1029.5046905501</ele>
        <time>2021-11-02T14:04:11Z</time>
      </trkpt>
      <trkpt lat="43.89982" lon="7.56491">
        <ele>1028.5047445071</ele>
        <time>2021-11-02T14:04:12Z</time>
      </trkpt>
      <trkpt lat="43.89982" lon="7.56492">
        <ele>1028.5047860849</ele>
        <time>2021-11-02T14:04:13Z</time>
      </trkpt>
      <trkpt lat="43.89981" lon="7.56493">
        <ele>1028.5048274136</ele>
        <time>2021-11-02T14:04:14Z</time>
      </trkpt>
      <trkpt lat="43.89981" lon="7.56494">
        <ele>1027.5048640608</ele>
        <time>2021-11-02T14:04:15Z</time>
      </trkpt>
      <trkpt lat="43.89981" lon="7.56495">
        <ele>1027.504892665</ele>
        <time>2021-11-02T14:04:16Z</time>
      </trkpt>
      <trkpt lat="43.8998" lon="7.56496">
        <ele>1027.5049533129</ele>
        <time>2021-11-02T14:04:17Z</time>
      </trkpt>
      <trkpt lat="43.89979" lon="7.56497">
        <ele>1028.5050217398</ele>
        <time>2021-11-02T14:04:18Z</time>
      </trkpt>
      <trkpt lat="43.89978" lon="7.56498">
        <ele>1028.5050804743</ele>
        <time>2021-11-02T14:04:19Z</time>
      </trkpt>
      <trkpt lat="43.89978" lon="7.56498">
        <ele>1027.50510317</ele>
        <time>2021-11-02T14:04:24Z</time>
      </trkpt>
      <trkpt lat="43.89977" lon="7.56499">
        <ele>1027.5051360048</ele>
        <time>2021-11-02T14:04:25Z</time>
      </trkpt>
      <trkpt lat="43.89977" lon="7.565">
        <ele>1028.5051797862</ele>
        <time>2021-11-02T14:04:26Z</time>
      </trkpt>
      <trkpt lat="43.89976" lon="7.56501">
        <ele>1027.5052331323</ele>
        <time>2021-11-02T14:04:27Z</time>
      </trkpt>
      <trkpt lat="43.89975" lon="7.56502">
        <ele>1027.5053036479</ele>
        <time>2021-11-02T14:04:28Z</time>
      </trkpt>
      <trkpt lat="43.89974" lon="7.56502">
        <ele>1027.5053741262</ele>
        <time>2021-11-02T14:04:29Z</time>
      </trkpt>
      <trkpt lat="43.89973" lon="7.56503">
        <ele>1027.5054272646</ele>
        <time>2021-11-02T14:04:30Z</time>
      </trkpt>
      <trkpt lat="43.89972" lon="7.56503">
        <ele>1027.5054581471</ele>
        <time>2021-11-02T14:04:31Z</time>
      </trkpt>
      <trkpt lat="43.89972" lon="7.56504">
        <ele>1027.5054975249</ele>
        <time>2021-11-02T14:04:32Z</time>
      </trkpt>
      <trkpt lat="43.89971" lon="7.56505">
        <ele>1026.5055553003</ele>
        <time>2021-11-02T14:04:33Z</time>
      </trkpt>
      <trkpt lat="43.8997" lon="7.56506">
        <ele>1027.5056177449</ele>
        <time>2021-11-02T14:04:34Z</time>
      </trkpt>
      <trkpt lat="43.89969" lon="7.56507">
        <ele>1027.5056606604</ele>
        <time>2021-11-02T14:04:35Z</time>
      </trkpt>
      <trkpt lat="43.89969" lon="7.56509">
        <ele>1026.5057118788</ele>
        <time>2021-11-02T14:04:36Z</time>
      </trkpt>
      <trkpt lat="43.89969" lon="7.5651">
        <ele>1025.5057382805</ele>
        <time>2021-11-02T14:04:37Z</time>
      </trkpt>
      <trkpt lat="43.89969" lon="7.56511">
        <ele>1025.5057528898</ele>
        <time>2021-11-02T14:04:38Z</time>
      </trkpt>
      <trkpt lat="43.89969" lon="7.56512">
        <ele>1025.5057694602</ele>
        <time>2021-11-02T14:04:39Z</time>
      </trkpt>
      <trkpt lat="43.89969" lon="7.56514">
        <ele>1025.5057906972</ele>
        <time>2021-11-02T14:04:40Z</time>
      </trkpt>
      <trkpt lat="43.89969" lon="7.56515">
        <ele>1026.5058074576</ele>
        <time>2021-11-02T14:04:41Z</time>
      </trkpt>
      <trkpt lat="43.89969" lon="7.56517">
        <ele>1026.5058402026</ele>
        <time>2021-11-02T14:04:42Z</time>
      </trkpt>
      <trkpt lat="43.89969" lon="7.56518">
        <ele>1026.5058231259</ele>
        <time>2021-11-02T14:04:53Z</time>
      </trkpt>
      <trkpt lat="43.89969" lon="7.56516">
        <ele>1027.5058275177</ele>
        <time>2021-11-02T14:04:54Z</time>
      </trkpt>
      <trkpt lat="43.89969" lon="7.56516">
        <ele>1028.5058379714</ele>
        <time>2021-11-02T14:04:55Z</time>
      </trkpt>
      <trkpt lat="43.89967" lon="7.56518">
        <ele>1027.5059375772</ele>
        <time>2021-11-02T14:04:57Z</time>
      </trkpt>
      <trkpt lat="43.89966" lon="7.56519">
        <ele>1027.5059980524</ele>
        <time>2021-11-02T14:04:58Z</time>
      </trkpt>
      <trkpt lat="43.89965" lon="7.5652">
        <ele>1026.5060668089</ele>
        <time>2021-11-02T14:04:59Z</time>
      </trkpt>
      <trkpt lat="43.89965" lon="7.56521">
        <ele>1026.5061085339</ele>
        <time>2021-11-02T14:05:00Z</time>
      </trkpt>
      <trkpt lat="43.89964" lon="7.56522">
        <ele>1026.5061569089</ele>
        <time>2021-11-02T14:05:01Z</time>
      </trkpt>
      <trkpt lat="43.89963" lon="7.56525">
        <ele>1025.506292471</ele>
        <time>2021-11-02T14:05:03Z</time>
      </trkpt>
      <trkpt lat="43.89962" lon="7.56527">
        <ele>1024.5063516216</ele>
        <time>2021-11-02T14:05:04Z</time>
      </trkpt>
      <trkpt lat="43.89962" lon="7.56527">
        <ele>1024.5063713463</ele>
        <time>2021-11-02T14:05:05Z</time>
      </trkpt>
      <trkpt lat="43.89961" lon="7.56528">
        <ele>1024.506428937</ele>
        <time>2021-11-02T14:05:06Z</time>
      </trkpt>
      <trkpt lat="43.8996" lon="7.56529">
        <ele>1024.5064760125</ele>
        <time>2021-11-02T14:05:07Z</time>
      </trkpt>
      <trkpt lat="43.8996" lon="7.56529">
        <ele>1023.5064826527</ele>
        <time>2021-11-02T14:05:08Z</time>
      </trkpt>
      <trkpt lat="43.8996" lon="7.56531">
        <ele>1023.5065136714</ele>
        <time>2021-11-02T14:05:09Z</time>
      </trkpt>
      <trkpt lat="43.89959" lon="7.56532">
        <ele>1022.5065654697</ele>
        <time>2021-11-02T14:05:10Z</time>
      </trkpt>
      <trkpt lat="43.89959" lon="7.56533">
        <ele>1022.5066146376</ele>
        <time>2021-11-02T14:05:11Z</time>
      </trkpt>
      <trkpt lat="43.89959" lon="7.56534">
        <ele>1022.5066411774</ele>
        <time>2021-11-02T14:05:12Z</time>
      </trkpt>
      <trkpt lat="43.89958" lon="7.56536">
        <ele>1022.5066667986</ele>
        <time>2021-11-02T14:05:13Z</time>
      </trkpt>
      <trkpt lat="43.89958" lon="7.56537">
        <ele>1022.506697647</ele>
        <time>2021-11-02T14:05:14Z</time>
      </trkpt>
      <trkpt lat="43.89958" lon="7.56538">
        <ele>1022.5067407486</ele>
        <time>2021-11-02T14:05:15Z</time>
      </trkpt>
      <trkpt lat="43.89958" lon="7.5654">
        <ele>1023.5067562066</ele>
        <time>2021-11-02T14:05:16Z</time>
      </trkpt>
      <trkpt lat="43.89958" lon="7.56541">
        <ele>1023.5067802743</ele>
        <time>2021-11-02T14:05:17Z</time>
      </trkpt>
      <trkpt lat="43.89958" lon="7.56543">
        <ele>1024.5067979793</ele>
        <time>2021-11-02T14:05:18Z</time>
      </trkpt>
      <trkpt lat="43.89958" lon="7.56544">
        <ele>1024.5068019874</ele>
        <time>2021-11-02T14:05:19Z</time>
      </trkpt>
      <trkpt lat="43.89959" lon="7.56545">
        <ele>1024.506803128</ele>
        <time>2021-11-02T14:05:20Z</time>
      </trkpt>
      <trkpt lat="43.89959" lon="7.56546">
        <ele>1024.506816135</ele>
        <time>2021-11-02T14:05:21Z</time>
      </trkpt>
      <trkpt lat="43.89959" lon="7.56547">
        <ele>1025.5068431239</ele>
        <time>2021-11-02T14:05:22Z</time>
      </trkpt>
      <trkpt lat="43.89958" lon="7.56549">
        <ele>1025.5068871936</ele>
        <time>2021-11-02T14:05:23Z</time>
      </trkpt>
      <trkpt lat="43.89959" lon="7.56551">
        <ele>1025.5069104728</ele>
        <time>2021-11-02T14:05:24Z</time>
      </trkpt>
      <trkpt lat="43.89958" lon="7.56553">
        <ele>1024.5069723168</ele>
        <time>2021-11-02T14:05:26Z</time>
      </trkpt>
      <trkpt lat="43.89958" lon="7.56554">
        <ele>1024.5070048854</ele>
        <time>2021-11-02T14:05:27Z</time>
      </trkpt>
      <trkpt lat="43.89957" lon="7.56555">
        <ele>1024.5070525176</ele>
        <time>2021-11-02T14:05:28Z</time>
      </trkpt>
      <trkpt lat="43.89957" lon="7.56557">
        <ele>1024.5071000955</ele>
        <time>2021-11-02T14:05:29Z</time>
      </trkpt>
      <trkpt lat="43.89956" lon="7.56558">
        <ele>1024.5071366701</ele>
        <time>2021-11-02T14:05:30Z</time>
      </trkpt>
      <trkpt lat="43.89956" lon="7.5656">
        <ele>1023.5072021279</ele>
        <time>2021-11-02T14:05:32Z</time>
      </trkpt>
      <trkpt lat="43.89956" lon="7.56561">
        <ele>1023.5072238532</ele>
        <time>2021-11-02T14:05:33Z</time>
      </trkpt>
      <trkpt lat="43.89955" lon="7.56562">
        <ele>1022.5072572949</ele>
        <time>2021-11-02T14:05:35Z</time>
      </trkpt>
      <trkpt lat="43.89954" lon="7.56563">
        <ele>1022.5073234093</ele>
        <time>2021-11-02T14:05:36Z</time>
      </trkpt>
      <trkpt lat="43.89954" lon="7.56564">
        <ele>1022.5073695723</ele>
        <time>2021-11-02T14:05:37Z</time>
      </trkpt>
      <trkpt lat="43.89953" lon="7.56565">
        <ele>1022.5074126624</ele>
        <time>2021-11-02T14:05:38Z</time>
      </trkpt>
      <trkpt lat="43.89953" lon="7.56567">
        <ele>1021.5074645479</ele>
        <time>2021-11-02T14:05:39Z</time>
      </trkpt>
      <trkpt lat="43.89952" lon="7.56568">
        <ele>1020.5074979997</ele>
        <time>2021-11-02T14:05:40Z</time>
      </trkpt>
      <trkpt lat="43.89952" lon="7.5657">
        <ele>1020.5075302598</ele>
        <time>2021-11-02T14:05:41Z</time>
      </trkpt>
      <trkpt lat="43.89952" lon="7.56571">
        <ele>1021.5075634649</ele>
        <time>2021-11-02T14:05:42Z</time>
      </trkpt>
      <trkpt lat="43.89952" lon="7.56572">
        <ele>1020.5075978618</ele>
        <time>2021-11-02T14:05:43Z</time>
      </trkpt>
      <trkpt lat="43.89951" lon="7.56574">
        <ele>1020.5076431172</ele>
        <time>2021-11-02T14:05:44Z</time>
      </trkpt>
      <trkpt lat="43.89951" lon="7.56575">
        <ele>1019.5076917626</ele>
        <time>2021-11-02T14:05:45Z</time>
      </trkpt>
      <trkpt lat="43.8995" lon="7.56577">
        <ele>1019.5077433751</ele>
        <time>2021-11-02T14:05:46Z</time>
      </trkpt>
      <trkpt lat="43.8995" lon="7.5658">
        <ele>1019.5078241408</ele>
        <time>2021-11-02T14:05:48Z</time>
      </trkpt>
      <trkpt lat="43.8995" lon="7.56582">
        <ele>1019.5078554866</ele>
        <time>2021-11-02T14:05:49Z</time>
      </trkpt>
      <trkpt lat="43.89949" lon="7.56583">
        <ele>1018.5078902781</ele>
        <time>2021-11-02T14:05:50Z</time>
      </trkpt>
      <trkpt lat="43.89949" lon="7.56583">
        <ele>1018.5079215083</ele>
        <time>2021-11-02T14:05:51Z</time>
      </trkpt>
      <trkpt lat="43.89949" lon="7.56584">
        <ele>1018.5079439598</ele>
        <time>2021-11-02T14:05:52Z</time>
      </trkpt>
      <trkpt lat="43.89949" lon="7.56585">
        <ele>1017.507948294</ele>
        <time>2021-11-02T14:05:53Z</time>
      </trkpt>
      <trkpt lat="43.89948" lon="7.56586">
        <ele>1016.5079887891</ele>
        <time>2021-11-02T14:05:54Z</time>
      </trkpt>
      <trkpt lat="43.89948" lon="7.56588">
        <ele>1016.5080335418</ele>
        <time>2021-11-02T14:05:55Z</time>
      </trkpt>
      <trkpt lat="43.89947" lon="7.5659">
        <ele>1015.5081125371</ele>
        <time>2021-11-02T14:05:57Z</time>
      </trkpt>
      <trkpt lat="43.89947" lon="7.56591">
        <ele>1015.5081629556</ele>
        <time>2021-11-02T14:05:58Z</time>
      </trkpt>
      <trkpt lat="43.89946" lon="7.56592">
        <ele>1015.5081971986</ele>
        <time>2021-11-02T14:05:59Z</time>
      </trkpt>
      <trkpt lat="43.89946" lon="7.56594">
        <ele>1014.5082570035</ele>
        <time>2021-11-02T14:06:00Z</time>
      </trkpt>
      <trkpt lat="43.89945" lon="7.56596">
        <ele>1014.5083043107</ele>
        <time>2021-11-02T14:06:01Z</time>
      </trkpt>
      <trkpt lat="43.89945" lon="7.56598">
        <ele>1013.5083537201</ele>
        <time>2021-11-02T14:06:03Z</time>
      </trkpt>
      <trkpt lat="43.89944" lon="7.56599">
        <ele>1013.5083938837</ele>
        <time>2021-11-02T14:06:04Z</time>
      </trkpt>
      <trkpt lat="43.89944" lon="7.56601">
        <ele>1013.5084730419</ele>
        <time>2021-11-02T14:06:06Z</time>
      </trkpt>
      <trkpt lat="43.89942" lon="7.56604">
        <ele>1013.5085777907</ele>
        <time>2021-11-02T14:06:08Z</time>
      </trkpt>
      <trkpt lat="43.89941" lon="7.56605">
        <ele>1013.5086345697</ele>
        <time>2021-11-02T14:06:09Z</time>
      </trkpt>
      <trkpt lat="43.89941" lon="7.56605">
        <ele>1013.5086928149</ele>
        <time>2021-11-02T14:06:10Z</time>
      </trkpt>
      <trkpt lat="43.89939" lon="7.56607">
        <ele>1010.5088139932</ele>
        <time>2021-11-02T14:06:12Z</time>
      </trkpt>
      <trkpt lat="43.89938" lon="7.56607">
        <ele>1010.5088680395</ele>
        <time>2021-11-02T14:06:13Z</time>
      </trkpt>
      <trkpt lat="43.89937" lon="7.56607">
        <ele>1009.5089137066</ele>
        <time>2021-11-02T14:06:14Z</time>
      </trkpt>
      <trkpt lat="43.89937" lon="7.56608">
        <ele>1008.5089257351</ele>
        <time>2021-11-02T14:06:15Z</time>
      </trkpt>
      <trkpt lat="43.89937" lon="7.56609">
        <ele>1008.5089460316</ele>
        <time>2021-11-02T14:06:16Z</time>
      </trkpt>
      <trkpt lat="43.89936" lon="7.5661">
        <ele>1008.5089908859</ele>
        <time>2021-11-02T14:06:18Z</time>
      </trkpt>
      <trkpt lat="43.89936" lon="7.56611">
        <ele>1008.5090340553</ele>
        <time>2021-11-02T14:06:19Z</time>
      </trkpt>
      <trkpt lat="43.89935" lon="7.56612">
        <ele>1007.509068714</ele>
        <time>2021-11-02T14:06:20Z</time>
      </trkpt>
      <trkpt lat="43.89935" lon="7.56613">
        <ele>1007.5090830998</ele>
        <time>2021-11-02T14:06:21Z</time>
      </trkpt>
      <trkpt lat="43.89935" lon="7.56614">
        <ele>1006.5091162391</ele>
        <time>2021-11-02T14:06:22Z</time>
      </trkpt>
      <trkpt lat="43.89934" lon="7.56615">
        <ele>1006.5091556406</ele>
        <time>2021-11-02T14:06:23Z</time>
      </trkpt>
      <trkpt lat="43.89934" lon="7.56616">
        <ele>1005.5092097306</ele>
        <time>2021-11-02T14:06:24Z</time>
      </trkpt>
      <trkpt lat="43.89933" lon="7.56619">
        <ele>1005.5092870495</ele>
        <time>2021-11-02T14:06:26Z</time>
      </trkpt>
      <trkpt lat="43.89933" lon="7.56621">
        <ele>1005.5093355034</ele>
        <time>2021-11-02T14:06:27Z</time>
      </trkpt>
      <trkpt lat="43.89932" lon="7.56622">
        <ele>1005.5093909779</ele>
        <time>2021-11-02T14:06:28Z</time>
      </trkpt>
      <trkpt lat="43.89931" lon="7.56624">
        <ele>1005.5094472818</ele>
        <time>2021-11-02T14:06:29Z</time>
      </trkpt>
      <trkpt lat="43.89931" lon="7.56625">
        <ele>1004.5094984232</ele>
        <time>2021-11-02T14:06:30Z</time>
      </trkpt>
      <trkpt lat="43.89931" lon="7.56626">
        <ele>1004.509537109</ele>
        <time>2021-11-02T14:06:31Z</time>
      </trkpt>
      <trkpt lat="43.8993" lon="7.56629">
        <ele>1004.5096335189</ele>
        <time>2021-11-02T14:06:33Z</time>
      </trkpt>
      <trkpt lat="43.89929" lon="7.56631">
        <ele>1003.5096875839</ele>
        <time>2021-11-02T14:06:34Z</time>
      </trkpt>
      <trkpt lat="43.89929" lon="7.56632">
        <ele>1003.5097211891</ele>
        <time>2021-11-02T14:06:35Z</time>
      </trkpt>
      <trkpt lat="43.89929" lon="7.56634">
        <ele>1003.509746751</ele>
        <time>2021-11-02T14:06:36Z</time>
      </trkpt>
      <trkpt lat="43.89929" lon="7.56634">
        <ele>1004.5097524281</ele>
        <time>2021-11-02T14:06:37Z</time>
      </trkpt>
      <trkpt lat="43.89929" lon="7.56635">
        <ele>1004.5097538424</ele>
        <time>2021-11-02T14:06:38Z</time>
      </trkpt>
      <trkpt lat="43.89929" lon="7.56636">
        <ele>1004.5097833572</ele>
        <time>2021-11-02T14:06:39Z</time>
      </trkpt>
      <trkpt lat="43.89928" lon="7.56638">
        <ele>1004.5098561586</ele>
        <time>2021-11-02T14:06:41Z</time>
      </trkpt>
      <trkpt lat="43.89928" lon="7.56639">
        <ele>1004.5098662336</ele>
        <time>2021-11-02T14:06:42Z</time>
      </trkpt>
      <trkpt lat="43.89928" lon="7.5664">
        <ele>1004.5098829255</ele>
        <time>2021-11-02T14:06:43Z</time>
      </trkpt>
      <trkpt lat="43.89928" lon="7.56641">
        <ele>1004.509915724</ele>
        <time>2021-11-02T14:06:44Z</time>
      </trkpt>
      <trkpt lat="43.89928" lon="7.56644">
        <ele>1004.5099762344</ele>
        <time>2021-11-02T14:06:46Z</time>
      </trkpt>
      <trkpt lat="43.89927" lon="7.56648">
        <ele>1003.5100447185</ele>
        <time>2021-11-02T14:06:48Z</time>
      </trkpt>
      <trkpt lat="43.89927" lon="7.5665">
        <ele>1004.5100911657</ele>
        <time>2021-11-02T14:06:49Z</time>
      </trkpt>
      <trkpt lat="43.89927" lon="7.56652">
        <ele>1004.5101313229</ele>
        <time>2021-11-02T14:06:50Z</time>
      </trkpt>
      <trkpt lat="43.89926" lon="7.56653">
        <ele>1004.5101976446</ele>
        <time>2021-11-02T14:06:51Z</time>
      </trkpt>
      <trkpt lat="43.89925" lon="7.56655">
        <ele>1004.5102569478</ele>
        <time>2021-11-02T14:06:52Z</time>
      </trkpt>
      <trkpt lat="43.89925" lon="7.56656">
        <ele>1004.5103090363</ele>
        <time>2021-11-02T14:06:53Z</time>
      </trkpt>
      <trkpt lat="43.89924" lon="7.56657">
        <ele>1003.5103589648</ele>
        <time>2021-11-02T14:06:54Z</time>
      </trkpt>
      <trkpt lat="43.89923" lon="7.56658">
        <ele>1003.5104340991</ele>
        <time>2021-11-02T14:06:55Z</time>
      </trkpt>
      <trkpt lat="43.89919" lon="7.5666">
        <ele>1001.5106394545</ele>
        <time>2021-11-02T14:06:57Z</time>
      </trkpt>
      <trkpt lat="43.89918" lon="7.56661">
        <ele>1001.5107340762</ele>
        <time>2021-11-02T14:06:58Z</time>
      </trkpt>
      <trkpt lat="43.89917" lon="7.56662">
        <ele>1000.5108181039</ele>
        <time>2021-11-02T14:06:59Z</time>
      </trkpt>
      <trkpt lat="43.89916" lon="7.56662">
        <ele>1000.5108683704</ele>
        <time>2021-11-02T14:07:00Z</time>
      </trkpt>
      <trkpt lat="43.89914" lon="7.56664">
        <ele>1000.5109953251</ele>
        <time>2021-11-02T14:07:02Z</time>
      </trkpt>
      <trkpt lat="43.89913" lon="7.56665">
        <ele>1000.5110429991</ele>
        <time>2021-11-02T14:07:03Z</time>
      </trkpt>
      <trkpt lat="43.89912" lon="7.56666">
        <ele>1000.5111033999</ele>
        <time>2021-11-02T14:07:04Z</time>
      </trkpt>
      <trkpt lat="43.8991" lon="7.56668">
        <ele>1000.5112444545</ele>
        <time>2021-11-02T14:07:06Z</time>
      </trkpt>
      <trkpt lat="43.89909" lon="7.56669">
        <ele>1000.5113050792</ele>
        <time>2021-11-02T14:07:07Z</time>
      </trkpt>
      <trkpt lat="43.89908" lon="7.56669">
        <ele>1000.5113522103</ele>
        <time>2021-11-02T14:07:08Z</time>
      </trkpt>
      <trkpt lat="43.89908" lon="7.56671">
        <ele>1000.5114119742</ele>
        <time>2021-11-02T14:07:09Z</time>
      </trkpt>
      <trkpt lat="43.89907" lon="7.56671">
        <ele>1000.5114656313</ele>
        <time>2021-11-02T14:07:10Z</time>
      </trkpt>
      <trkpt lat="43.89904" lon="7.56673">
        <ele>1000.5116330924</ele>
        <time>2021-11-02T14:07:12Z</time>
      </trkpt>
      <trkpt lat="43.89903" lon="7.56675">
        <ele>1000.5116912081</ele>
        <time>2021-11-02T14:07:13Z</time>
      </trkpt>
      <trkpt lat="43.89903" lon="7.56676">
        <ele>1001.51175251</ele>
        <time>2021-11-02T14:07:14Z</time>
      </trkpt>
      <trkpt lat="43.89901" lon="7.56678">
        <ele>1001.5118704188</ele>
        <time>2021-11-02T14:07:16Z</time>
      </trkpt>
      <trkpt lat="43.899" lon="7.56679">
        <ele>1001.511926361</ele>
        <time>2021-11-02T14:07:17Z</time>
      </trkpt>
      <trkpt lat="43.899" lon="7.56681">
        <ele>1001.511988001</ele>
        <time>2021-11-02T14:07:18Z</time>
      </trkpt>
      <trkpt lat="43.89899" lon="7.56683">
        <ele>1001.5120428989</ele>
        <time>2021-11-02T14:07:19Z</time>
      </trkpt>
      <trkpt lat="43.89899" lon="7.56684">
        <ele>1001.5120926911</ele>
        <time>2021-11-02T14:07:20Z</time>
      </trkpt>
      <trkpt lat="43.89898" lon="7.56685">
        <ele>1001.512129323</ele>
        <time>2021-11-02T14:07:21Z</time>
      </trkpt>
      <trkpt lat="43.89898" lon="7.56687">
        <ele>1000.512175508</ele>
        <time>2021-11-02T14:07:22Z</time>
      </trkpt>
      <trkpt lat="43.89897" lon="7.56688">
        <ele>1001.5122301788</ele>
        <time>2021-11-02T14:07:23Z</time>
      </trkpt>
      <trkpt lat="43.89896" lon="7.56689">
        <ele>1001.5122926562</ele>
        <time>2021-11-02T14:07:24Z</time>
      </trkpt>
      <trkpt lat="43.89895" lon="7.56691">
        <ele>1001.5123581277</ele>
        <time>2021-11-02T14:07:25Z</time>
      </trkpt>
      <trkpt lat="43.89895" lon="7.56693">
        <ele>1001.5124004113</ele>
        <time>2021-11-02T14:07:26Z</time>
      </trkpt>
      <trkpt lat="43.89895" lon="7.56694">
        <ele>1001.5124517613</ele>
        <time>2021-11-02T14:07:27Z</time>
      </trkpt>
      <trkpt lat="43.89894" lon="7.56696">
        <ele>1002.5125101151</ele>
        <time>2021-11-02T14:07:28Z</time>
      </trkpt>
      <trkpt lat="43.89893" lon="7.56697">
        <ele>1002.5125709302</ele>
        <time>2021-11-02T14:07:29Z</time>
      </trkpt>
      <trkpt lat="43.89892" lon="7.56698">
        <ele>1002.5126403279</ele>
        <time>2021-11-02T14:07:30Z</time>
      </trkpt>
      <trkpt lat="43.89892" lon="7.56699">
        <ele>1002.5126754724</ele>
        <time>2021-11-02T14:07:31Z</time>
      </trkpt>
      <trkpt lat="43.89891" lon="7.567">
        <ele>1003.5127236834</ele>
        <time>2021-11-02T14:07:32Z</time>
      </trkpt>
      <trkpt lat="43.89891" lon="7.56702">
        <ele>1002.5127785581</ele>
        <time>2021-11-02T14:07:33Z</time>
      </trkpt>
      <trkpt lat="43.8989" lon="7.56703">
        <ele>1002.5128392593</ele>
        <time>2021-11-02T14:07:34Z</time>
      </trkpt>
      <trkpt lat="43.89889" lon="7.56705">
        <ele>1002.5128972085</ele>
        <time>2021-11-02T14:07:35Z</time>
      </trkpt>
      <trkpt lat="43.89889" lon="7.56706">
        <ele>1003.5129384535</ele>
        <time>2021-11-02T14:07:36Z</time>
      </trkpt>
      <trkpt lat="43.89888" lon="7.56707">
        <ele>1003.5129786554</ele>
        <time>2021-11-02T14:07:37Z</time>
      </trkpt>
      <trkpt lat="43.89888" lon="7.56708">
        <ele>1003.5130188956</ele>
        <time>2021-11-02T14:07:38Z</time>
      </trkpt>
      <trkpt lat="43.89887" lon="7.56709">
        <ele>1003.5130716052</ele>
        <time>2021-11-02T14:07:39Z</time>
      </trkpt>
      <trkpt lat="43.89886" lon="7.5671">
        <ele>1003.5131297241</ele>
        <time>2021-11-02T14:07:40Z</time>
      </trkpt>
      <trkpt lat="43.89885" lon="7.56712">
        <ele>1003.5132346201</ele>
        <time>2021-11-02T14:07:42Z</time>
      </trkpt>
      <trkpt lat="43.89884" lon="7.56713">
        <ele>1003.5133020012</ele>
        <time>2021-11-02T14:07:43Z</time>
      </trkpt>
      <trkpt lat="43.89883" lon="7.56714">
        <ele>1003.5133373284</ele>
        <time>2021-11-02T14:07:44Z</time>
      </trkpt>
      <trkpt lat="43.89882" lon="7.56715">
        <ele>1003.5134080342</ele>
        <time>2021-11-02T14:07:45Z</time>
      </trkpt>
      <trkpt lat="43.8988" lon="7.56717">
        <ele>1002.5135407408</ele>
        <time>2021-11-02T14:07:47Z</time>
      </trkpt>
      <trkpt lat="43.8988" lon="7.56718">
        <ele>1002.5136076623</ele>
        <time>2021-11-02T14:07:48Z</time>
      </trkpt>
      <trkpt lat="43.89879" lon="7.5672">
        <ele>1002.5136812668</ele>
        <time>2021-11-02T14:07:49Z</time>
      </trkpt>
      <trkpt lat="43.89877" lon="7.56721">
        <ele>1002.5137796997</ele>
        <time>2021-11-02T14:07:51Z</time>
      </trkpt>
      <trkpt lat="43.89876" lon="7.56722">
        <ele>1001.5138329398</ele>
        <time>2021-11-02T14:07:52Z</time>
      </trkpt>
      <trkpt lat="43.89876" lon="7.56723">
        <ele>1001.5138804567</ele>
        <time>2021-11-02T14:07:53Z</time>
      </trkpt>
      <trkpt lat="43.89875" lon="7.56724">
        <ele>1001.5139486868</ele>
        <time>2021-11-02T14:07:54Z</time>
      </trkpt>
      <trkpt lat="43.89874" lon="7.56725">
        <ele>1001.5140007428</ele>
        <time>2021-11-02T14:07:55Z</time>
      </trkpt>
      <trkpt lat="43.89873" lon="7.56726">
        <ele>1001.5140634926</ele>
        <time>2021-11-02T14:07:56Z</time>
      </trkpt>
      <trkpt lat="43.89871" lon="7.56726">
        <ele>1001.5141880485</ele>
        <time>2021-11-02T14:07:58Z</time>
      </trkpt>
      <trkpt lat="43.8987" lon="7.56727">
        <ele>1001.5142337938</ele>
        <time>2021-11-02T14:07:59Z</time>
      </trkpt>
      <trkpt lat="43.89869" lon="7.56728">
        <ele>1001.514275055</ele>
        <time>2021-11-02T14:08:00Z</time>
      </trkpt>
      <trkpt lat="43.89868" lon="7.56729">
        <ele>1001.5143855928</ele>
        <time>2021-11-02T14:08:02Z</time>
      </trkpt>
      <trkpt lat="43.89867" lon="7.5673">
        <ele>1001.5144340873</ele>
        <time>2021-11-02T14:08:03Z</time>
      </trkpt>
      <trkpt lat="43.89866" lon="7.5673">
        <ele>1001.5144697182</ele>
        <time>2021-11-02T14:08:04Z</time>
      </trkpt>
      <trkpt lat="43.89865" lon="7.56732">
        <ele>1000.5145904432</ele>
        <time>2021-11-02T14:08:06Z</time>
      </trkpt>
      <trkpt lat="43.89863" lon="7.56735">
        <ele>1000.5147221099</ele>
        <time>2021-11-02T14:08:08Z</time>
      </trkpt>
      <trkpt lat="43.89862" lon="7.56735">
        <ele>1000.5147851107</ele>
        <time>2021-11-02T14:08:09Z</time>
      </trkpt>
      <trkpt lat="43.89861" lon="7.56737">
        <ele>999.51484236306</ele>
        <time>2021-11-02T14:08:10Z</time>
      </trkpt>
      <trkpt lat="43.89859" lon="7.56738">
        <ele>999.51496824718</ele>
        <time>2021-11-02T14:08:12Z</time>
      </trkpt>
      <trkpt lat="43.89858" lon="7.56739">
        <ele>1000.5150435557</ele>
        <time>2021-11-02T14:08:13Z</time>
      </trkpt>
      <trkpt lat="43.89857" lon="7.5674">
        <ele>1000.5151113085</ele>
        <time>2021-11-02T14:08:14Z</time>
      </trkpt>
      <trkpt lat="43.89856" lon="7.56741">
        <ele>1000.5151709685</ele>
        <time>2021-11-02T14:08:15Z</time>
      </trkpt>
      <trkpt lat="43.89855" lon="7.56742">
        <ele>1000.5152198702</ele>
        <time>2021-11-02T14:08:16Z</time>
      </trkpt>
      <trkpt lat="43.89855" lon="7.56744">
        <ele>999.51527897625</ele>
        <time>2021-11-02T14:08:18Z</time>
      </trkpt>
      <trkpt lat="43.89854" lon="7.56746">
        <ele>999.51532422036</ele>
        <time>2021-11-02T14:08:19Z</time>
      </trkpt>
      <trkpt lat="43.89853" lon="7.56748">
        <ele>1000.5154336858</ele>
        <time>2021-11-02T14:08:21Z</time>
      </trkpt>
      <trkpt lat="43.89852" lon="7.56749">
        <ele>1000.5154901234</ele>
        <time>2021-11-02T14:08:22Z</time>
      </trkpt>
      <trkpt lat="43.89852" lon="7.5675">
        <ele>1000.5155302576</ele>
        <time>2021-11-02T14:08:23Z</time>
      </trkpt>
      <trkpt lat="43.89851" lon="7.56752">
        <ele>1000.5155755302</ele>
        <time>2021-11-02T14:08:24Z</time>
      </trkpt>
      <trkpt lat="43.8985" lon="7.56753">
        <ele>1000.5156573017</ele>
        <time>2021-11-02T14:08:25Z</time>
      </trkpt>
      <trkpt lat="43.8985" lon="7.56754">
        <ele>1000.5157130064</ele>
        <time>2021-11-02T14:08:26Z</time>
      </trkpt>
      <trkpt lat="43.89849" lon="7.56756">
        <ele>999.51576183699</ele>
        <time>2021-11-02T14:08:27Z</time>
      </trkpt>
      <trkpt lat="43.89848" lon="7.56757">
        <ele>1000.5158218793</ele>
        <time>2021-11-02T14:08:28Z</time>
      </trkpt>
      <trkpt lat="43.89848" lon="7.56758">
        <ele>1000.5158680583</ele>
        <time>2021-11-02T14:08:29Z</time>
      </trkpt>
      <trkpt lat="43.89847" lon="7.5676">
        <ele>1000.515928337</ele>
        <time>2021-11-02T14:08:30Z</time>
      </trkpt>
      <trkpt lat="43.89847" lon="7.56761">
        <ele>1000.5159788604</ele>
        <time>2021-11-02T14:08:31Z</time>
      </trkpt>
      <trkpt lat="43.89846" lon="7.56762">
        <ele>1000.516036823</ele>
        <time>2021-11-02T14:08:32Z</time>
      </trkpt>
      <trkpt lat="43.89845" lon="7.56764">
        <ele>1000.5160908851</ele>
        <time>2021-11-02T14:08:33Z</time>
      </trkpt>
      <trkpt lat="43.89844" lon="7.56765">
        <ele>1000.5161572762</ele>
        <time>2021-11-02T14:08:34Z</time>
      </trkpt>
      <trkpt lat="43.89843" lon="7.56766">
        <ele>999.51622238141</ele>
        <time>2021-11-02T14:08:35Z</time>
      </trkpt>
      <trkpt lat="43.89842" lon="7.56767">
        <ele>999.51629925987</ele>
        <time>2021-11-02T14:08:36Z</time>
      </trkpt>
      <trkpt lat="43.89841" lon="7.56768">
        <ele>999.5163581177</ele>
        <time>2021-11-02T14:08:37Z</time>
      </trkpt>
      <trkpt lat="43.8984" lon="7.5677">
        <ele>999.51643384319</ele>
        <time>2021-11-02T14:08:38Z</time>
      </trkpt>
      <trkpt lat="43.8984" lon="7.56771">
        <ele>999.51647956065</ele>
        <time>2021-11-02T14:08:39Z</time>
      </trkpt>
      <trkpt lat="43.89839" lon="7.56772">
        <ele>998.51654069595</ele>
        <time>2021-11-02T14:08:40Z</time>
      </trkpt>
      <trkpt lat="43.89838" lon="7.56773">
        <ele>998.51659202563</ele>
        <time>2021-11-02T14:08:41Z</time>
      </trkpt>
      <trkpt lat="43.89837" lon="7.56774">
        <ele>998.51667705956</ele>
        <time>2021-11-02T14:08:42Z</time>
      </trkpt>
      <trkpt lat="43.89836" lon="7.56775">
        <ele>997.51673189579</ele>
        <time>2021-11-02T14:08:43Z</time>
      </trkpt>
      <trkpt lat="43.89835" lon="7.56775">
        <ele>997.51680880997</ele>
        <time>2021-11-02T14:08:44Z</time>
      </trkpt>
      <trkpt lat="43.89834" lon="7.56776">
        <ele>997.51686322723</ele>
        <time>2021-11-02T14:08:45Z</time>
      </trkpt>
      <trkpt lat="43.89833" lon="7.56776">
        <ele>997.51693320822</ele>
        <time>2021-11-02T14:08:46Z</time>
      </trkpt>
      <trkpt lat="43.8983" lon="7.56777">
        <ele>996.51708203928</ele>
        <time>2021-11-02T14:08:48Z</time>
      </trkpt>
      <trkpt lat="43.89829" lon="7.56778">
        <ele>995.51714809697</ele>
        <time>2021-11-02T14:08:49Z</time>
      </trkpt>
      <trkpt lat="43.89826" lon="7.56779">
        <ele>995.51728294482</ele>
        <time>2021-11-02T14:08:51Z</time>
      </trkpt>
      <trkpt lat="43.89825" lon="7.56779">
        <ele>995.51733519526</ele>
        <time>2021-11-02T14:08:52Z</time>
      </trkpt>
      <trkpt lat="43.89825" lon="7.56779">
        <ele>995.51738079694</ele>
        <time>2021-11-02T14:08:53Z</time>
      </trkpt>
      <trkpt lat="43.89823" lon="7.56779">
        <ele>994.51743521201</ele>
        <time>2021-11-02T14:08:54Z</time>
      </trkpt>
      <trkpt lat="43.89822" lon="7.56779">
        <ele>994.51751227078</ele>
        <time>2021-11-02T14:08:55Z</time>
      </trkpt>
      <trkpt lat="43.89819" lon="7.56779">
        <ele>994.51764389918</ele>
        <time>2021-11-02T14:08:57Z</time>
      </trkpt>
      <trkpt lat="43.89818" lon="7.56779">
        <ele>994.51770975744</ele>
        <time>2021-11-02T14:08:58Z</time>
      </trkpt>
      <trkpt lat="43.89817" lon="7.5678">
        <ele>994.5177695701</ele>
        <time>2021-11-02T14:08:59Z</time>
      </trkpt>
      <trkpt lat="43.89816" lon="7.5678">
        <ele>993.51783666154</ele>
        <time>2021-11-02T14:09:00Z</time>
      </trkpt>
      <trkpt lat="43.89815" lon="7.56781">
        <ele>993.5179013025</ele>
        <time>2021-11-02T14:09:01Z</time>
      </trkpt>
      <trkpt lat="43.89813" lon="7.5678">
        <ele>992.51800863682</ele>
        <time>2021-11-02T14:09:03Z</time>
      </trkpt>
      <trkpt lat="43.89812" lon="7.56781">
        <ele>992.51806861933</ele>
        <time>2021-11-02T14:09:04Z</time>
      </trkpt>
      <trkpt lat="43.8981" lon="7.56782">
        <ele>991.51818157457</ele>
        <time>2021-11-02T14:09:06Z</time>
      </trkpt>
      <trkpt lat="43.89809" lon="7.56783">
        <ele>991.51824883381</ele>
        <time>2021-11-02T14:09:07Z</time>
      </trkpt>
      <trkpt lat="43.89807" lon="7.56783">
        <ele>990.51832303873</ele>
        <time>2021-11-02T14:09:08Z</time>
      </trkpt>
      <trkpt lat="43.89806" lon="7.56783">
        <ele>990.5183976339</ele>
        <time>2021-11-02T14:09:09Z</time>
      </trkpt>
      <trkpt lat="43.89805" lon="7.56784">
        <ele>991.51845551943</ele>
        <time>2021-11-02T14:09:10Z</time>
      </trkpt>
      <trkpt lat="43.89803" lon="7.56784">
        <ele>990.51856695037</ele>
        <time>2021-11-02T14:09:12Z</time>
      </trkpt>
      <trkpt lat="43.89802" lon="7.56785">
        <ele>989.51862791127</ele>
        <time>2021-11-02T14:09:13Z</time>
      </trkpt>
      <trkpt lat="43.89801" lon="7.56785">
        <ele>989.51868480123</ele>
        <time>2021-11-02T14:09:14Z</time>
      </trkpt>
      <trkpt lat="43.898" lon="7.56786">
        <ele>989.51874095169</ele>
        <time>2021-11-02T14:09:15Z</time>
      </trkpt>
      <trkpt lat="43.89799" lon="7.56786">
        <ele>989.51881827494</ele>
        <time>2021-11-02T14:09:16Z</time>
      </trkpt>
      <trkpt lat="43.89797" lon="7.56788">
        <ele>989.51892209411</ele>
        <time>2021-11-02T14:09:18Z</time>
      </trkpt>
      <trkpt lat="43.89796" lon="7.56788">
        <ele>989.51899181374</ele>
        <time>2021-11-02T14:09:19Z</time>
      </trkpt>
      <trkpt lat="43.89795" lon="7.56789">
        <ele>988.51907344969</ele>
        <time>2021-11-02T14:09:20Z</time>
      </trkpt>
      <trkpt lat="43.89793" lon="7.56789">
        <ele>988.51913535418</ele>
        <time>2021-11-02T14:09:21Z</time>
      </trkpt>
      <trkpt lat="43.89792" lon="7.5679">
        <ele>988.51921233569</ele>
        <time>2021-11-02T14:09:22Z</time>
      </trkpt>
      <trkpt lat="43.89791" lon="7.56791">
        <ele>988.51927626205</ele>
        <time>2021-11-02T14:09:23Z</time>
      </trkpt>
      <trkpt lat="43.8979" lon="7.56792">
        <ele>988.5193299407</ele>
        <time>2021-11-02T14:09:24Z</time>
      </trkpt>
      <trkpt lat="43.89789" lon="7.56792">
        <ele>988.51938525823</ele>
        <time>2021-11-02T14:09:25Z</time>
      </trkpt>
      <trkpt lat="43.89788" lon="7.56792">
        <ele>988.51945118493</ele>
        <time>2021-11-02T14:09:26Z</time>
      </trkpt>
      <trkpt lat="43.89787" lon="7.56793">
        <ele>988.51952801268</ele>
        <time>2021-11-02T14:09:27Z</time>
      </trkpt>
      <trkpt lat="43.89786" lon="7.56794">
        <ele>988.51957938752</ele>
        <time>2021-11-02T14:09:28Z</time>
      </trkpt>
      <trkpt lat="43.89785" lon="7.56795">
        <ele>988.51964151245</ele>
        <time>2021-11-02T14:09:29Z</time>
      </trkpt>
      <trkpt lat="43.89784" lon="7.56795">
        <ele>987.51969383161</ele>
        <time>2021-11-02T14:09:30Z</time>
      </trkpt>
      <trkpt lat="43.89784" lon="7.56797">
        <ele>988.5197454802</ele>
        <time>2021-11-02T14:09:31Z</time>
      </trkpt>
      <trkpt lat="43.89782" lon="7.56799">
        <ele>988.51986846484</ele>
        <time>2021-11-02T14:09:33Z</time>
      </trkpt>
      <trkpt lat="43.89781" lon="7.568">
        <ele>988.519924435</ele>
        <time>2021-11-02T14:09:34Z</time>
      </trkpt>
      <trkpt lat="43.8978" lon="7.568">
        <ele>987.51998502206</ele>
        <time>2021-11-02T14:09:35Z</time>
      </trkpt>
      <trkpt lat="43.89779" lon="7.56801">
        <ele>987.52004800205</ele>
        <time>2021-11-02T14:09:36Z</time>
      </trkpt>
      <trkpt lat="43.89779" lon="7.56802">
        <ele>987.52007717011</ele>
        <time>2021-11-02T14:09:37Z</time>
      </trkpt>
      <trkpt lat="43.89778" lon="7.56803">
        <ele>987.52012527194</ele>
        <time>2021-11-02T14:09:38Z</time>
      </trkpt>
      <trkpt lat="43.89778" lon="7.56804">
        <ele>987.52017329976</ele>
        <time>2021-11-02T14:09:39Z</time>
      </trkpt>
      <trkpt lat="43.89777" lon="7.56805">
        <ele>987.52024156006</ele>
        <time>2021-11-02T14:09:40Z</time>
      </trkpt>
      <trkpt lat="43.89776" lon="7.56806">
        <ele>987.52031872005</ele>
        <time>2021-11-02T14:09:41Z</time>
      </trkpt>
      <trkpt lat="43.89774" lon="7.56807">
        <ele>987.52039266918</ele>
        <time>2021-11-02T14:09:42Z</time>
      </trkpt>
      <trkpt lat="43.89773" lon="7.56807">
        <ele>987.52045021058</ele>
        <time>2021-11-02T14:09:43Z</time>
      </trkpt>
      <trkpt lat="43.89772" lon="7.56808">
        <ele>986.52051214118</ele>
        <time>2021-11-02T14:09:44Z</time>
      </trkpt>
      <trkpt lat="43.89771" lon="7.56808">
        <ele>987.52056077389</ele>
        <time>2021-11-02T14:09:45Z</time>
      </trkpt>
      <trkpt lat="43.8977" lon="7.56809">
        <ele>986.52062593847</ele>
        <time>2021-11-02T14:09:46Z</time>
      </trkpt>
      <trkpt lat="43.89769" lon="7.56809">
        <ele>985.52068502296</ele>
        <time>2021-11-02T14:09:47Z</time>
      </trkpt>
      <trkpt lat="43.89768" lon="7.56809">
        <ele>984.52074371295</ele>
        <time>2021-11-02T14:09:48Z</time>
      </trkpt>
      <trkpt lat="43.89767" lon="7.5681">
        <ele>984.52079827835</ele>
        <time>2021-11-02T14:09:49Z</time>
      </trkpt>
      <trkpt lat="43.89767" lon="7.5681">
        <ele>983.52084638504</ele>
        <time>2021-11-02T14:09:50Z</time>
      </trkpt>
      <trkpt lat="43.89766" lon="7.5681">
        <ele>983.52088851333</ele>
        <time>2021-11-02T14:09:51Z</time>
      </trkpt>
      <trkpt lat="43.89765" lon="7.5681">
        <ele>983.52092006935</ele>
        <time>2021-11-02T14:09:52Z</time>
      </trkpt>
      <trkpt lat="43.89764" lon="7.56811">
        <ele>982.52097919681</ele>
        <time>2021-11-02T14:09:53Z</time>
      </trkpt>
      <trkpt lat="43.89763" lon="7.56812">
        <ele>982.52103683524</ele>
        <time>2021-11-02T14:09:54Z</time>
      </trkpt>
      <trkpt lat="43.89763" lon="7.56812">
        <ele>982.52108099819</ele>
        <time>2021-11-02T14:09:55Z</time>
      </trkpt>
      <trkpt lat="43.89762" lon="7.56813">
        <ele>982.52114752372</ele>
        <time>2021-11-02T14:09:56Z</time>
      </trkpt>
      <trkpt lat="43.89761" lon="7.56814">
        <ele>982.52120733593</ele>
        <time>2021-11-02T14:09:57Z</time>
      </trkpt>
      <trkpt lat="43.8976" lon="7.56815">
        <ele>983.52127607217</ele>
        <time>2021-11-02T14:09:58Z</time>
      </trkpt>
      <trkpt lat="43.89758" lon="7.56816">
        <ele>983.52134929311</ele>
        <time>2021-11-02T14:09:59Z</time>
      </trkpt>
      <trkpt lat="43.89758" lon="7.56817">
        <ele>982.52141096975</ele>
        <time>2021-11-02T14:10:00Z</time>
      </trkpt>
      <trkpt lat="43.89757" lon="7.56817">
        <ele>982.52145579949</ele>
        <time>2021-11-02T14:10:01Z</time>
      </trkpt>
      <trkpt lat="43.89756" lon="7.56818">
        <ele>982.52150795842</ele>
        <time>2021-11-02T14:10:02Z</time>
      </trkpt>
      <trkpt lat="43.89755" lon="7.56819">
        <ele>983.52157132107</ele>
        <time>2021-11-02T14:10:03Z</time>
      </trkpt>
      <trkpt lat="43.89755" lon="7.5682">
        <ele>983.52161975265</ele>
        <time>2021-11-02T14:10:04Z</time>
      </trkpt>
      <trkpt lat="43.89754" lon="7.56821">
        <ele>984.52165943108</ele>
        <time>2021-11-02T14:10:05Z</time>
      </trkpt>
      <trkpt lat="43.89753" lon="7.56822">
        <ele>983.52173119005</ele>
        <time>2021-11-02T14:10:06Z</time>
      </trkpt>
      <trkpt lat="43.89752" lon="7.56824">
        <ele>983.52180486211</ele>
        <time>2021-11-02T14:10:07Z</time>
      </trkpt>
      <trkpt lat="43.89751" lon="7.56825">
        <ele>983.52187163427</ele>
        <time>2021-11-02T14:10:08Z</time>
      </trkpt>
      <trkpt lat="43.8975" lon="7.56826">
        <ele>983.52193455006</ele>
        <time>2021-11-02T14:10:09Z</time>
      </trkpt>
      <trkpt lat="43.8975" lon="7.56827">
        <ele>983.52198786537</ele>
        <time>2021-11-02T14:10:10Z</time>
      </trkpt>
      <trkpt lat="43.89749" lon="7.56828">
        <ele>983.52203220489</ele>
        <time>2021-11-02T14:10:11Z</time>
      </trkpt>
      <trkpt lat="43.89748" lon="7.56829">
        <ele>983.52208426926</ele>
        <time>2021-11-02T14:10:12Z</time>
      </trkpt>
      <trkpt lat="43.89748" lon="7.56831">
        <ele>982.52214735633</ele>
        <time>2021-11-02T14:10:13Z</time>
      </trkpt>
      <trkpt lat="43.89747" lon="7.56832">
        <ele>982.52221531947</ele>
        <time>2021-11-02T14:10:14Z</time>
      </trkpt>
      <trkpt lat="43.89746" lon="7.56833">
        <ele>983.52226995742</ele>
        <time>2021-11-02T14:10:15Z</time>
      </trkpt>
      <trkpt lat="43.89745" lon="7.56834">
        <ele>983.52230998128</ele>
        <time>2021-11-02T14:10:16Z</time>
      </trkpt>
      <trkpt lat="43.89745" lon="7.56835">
        <ele>983.52236445298</ele>
        <time>2021-11-02T14:10:17Z</time>
      </trkpt>
      <trkpt lat="43.89744" lon="7.56836">
        <ele>983.52243539774</ele>
        <time>2021-11-02T14:10:18Z</time>
      </trkpt>
      <trkpt lat="43.89743" lon="7.56837">
        <ele>983.52250107979</ele>
        <time>2021-11-02T14:10:19Z</time>
      </trkpt>
      <trkpt lat="43.89742" lon="7.56839">
        <ele>983.52257948962</ele>
        <time>2021-11-02T14:10:20Z</time>
      </trkpt>
      <trkpt lat="43.89741" lon="7.56839">
        <ele>983.5226336272</ele>
        <time>2021-11-02T14:10:21Z</time>
      </trkpt>
      <trkpt lat="43.8974" lon="7.56841">
        <ele>982.52269614122</ele>
        <time>2021-11-02T14:10:22Z</time>
      </trkpt>
      <trkpt lat="43.89739" lon="7.56842">
        <ele>982.52276801549</ele>
        <time>2021-11-02T14:10:23Z</time>
      </trkpt>
      <trkpt lat="43.89739" lon="7.56843">
        <ele>982.52281213998</ele>
        <time>2021-11-02T14:10:24Z</time>
      </trkpt>
      <trkpt lat="43.89738" lon="7.56844">
        <ele>982.52287490536</ele>
        <time>2021-11-02T14:10:25Z</time>
      </trkpt>
      <trkpt lat="43.89737" lon="7.56846">
        <ele>983.52294577431</ele>
        <time>2021-11-02T14:10:26Z</time>
      </trkpt>
      <trkpt lat="43.89736" lon="7.56847">
        <ele>983.52301746932</ele>
        <time>2021-11-02T14:10:27Z</time>
      </trkpt>
      <trkpt lat="43.89735" lon="7.56848">
        <ele>983.52306608484</ele>
        <time>2021-11-02T14:10:28Z</time>
      </trkpt>
      <trkpt lat="43.89735" lon="7.56849">
        <ele>984.52311942771</ele>
        <time>2021-11-02T14:10:29Z</time>
      </trkpt>
      <trkpt lat="43.89733" lon="7.56851">
        <ele>984.52320709006</ele>
        <time>2021-11-02T14:10:30Z</time>
      </trkpt>
      <trkpt lat="43.89732" lon="7.56852">
        <ele>985.52327714872</ele>
        <time>2021-11-02T14:10:31Z</time>
      </trkpt>
      <trkpt lat="43.89732" lon="7.56854">
        <ele>985.52332822409</ele>
        <time>2021-11-02T14:10:32Z</time>
      </trkpt>
      <trkpt lat="43.89731" lon="7.56855">
        <ele>985.52338148564</ele>
        <time>2021-11-02T14:10:33Z</time>
      </trkpt>
      <trkpt lat="43.8973" lon="7.56856">
        <ele>985.52344997536</ele>
        <time>2021-11-02T14:10:34Z</time>
      </trkpt>
      <trkpt lat="43.8973" lon="7.56857">
        <ele>985.52349057158</ele>
        <time>2021-11-02T14:10:35Z</time>
      </trkpt>
      <trkpt lat="43.89729" lon="7.56858">
        <ele>985.52353893013</ele>
        <time>2021-11-02T14:10:36Z</time>
      </trkpt>
      <trkpt lat="43.89729" lon="7.56859">
        <ele>986.52359107423</ele>
        <time>2021-11-02T14:10:37Z</time>
      </trkpt>
      <trkpt lat="43.89728" lon="7.56861">
        <ele>985.52366192303</ele>
        <time>2021-11-02T14:10:38Z</time>
      </trkpt>
      <trkpt lat="43.89726" lon="7.56862">
        <ele>985.52373499405</ele>
        <time>2021-11-02T14:10:39Z</time>
      </trkpt>
      <trkpt lat="43.89725" lon="7.56863">
        <ele>985.52381869171</ele>
        <time>2021-11-02T14:10:40Z</time>
      </trkpt>
      <trkpt lat="43.89724" lon="7.56864">
        <ele>985.52386860818</ele>
        <time>2021-11-02T14:10:41Z</time>
      </trkpt>
      <trkpt lat="43.89724" lon="7.56864">
        <ele>986.5239109242</ele>
        <time>2021-11-02T14:10:42Z</time>
      </trkpt>
      <trkpt lat="43.89723" lon="7.56865">
        <ele>986.52397682798</ele>
        <time>2021-11-02T14:10:43Z</time>
      </trkpt>
      <trkpt lat="43.89722" lon="7.56866">
        <ele>985.52404929659</ele>
        <time>2021-11-02T14:10:44Z</time>
      </trkpt>
      <trkpt lat="43.8972" lon="7.56867">
        <ele>986.52413861496</ele>
        <time>2021-11-02T14:10:45Z</time>
      </trkpt>
      <trkpt lat="43.89719" lon="7.56868">
        <ele>986.52421561298</ele>
        <time>2021-11-02T14:10:46Z</time>
      </trkpt>
      <trkpt lat="43.89718" lon="7.5687">
        <ele>986.52428428089</ele>
        <time>2021-11-02T14:10:47Z</time>
      </trkpt>
      <trkpt lat="43.89717" lon="7.56871">
        <ele>986.5243770121</ele>
        <time>2021-11-02T14:10:48Z</time>
      </trkpt>
      <trkpt lat="43.89715" lon="7.56872">
        <ele>986.52447545554</ele>
        <time>2021-11-02T14:10:49Z</time>
      </trkpt>
      <trkpt lat="43.89714" lon="7.56872">
        <ele>986.52454217393</ele>
        <time>2021-11-02T14:10:50Z</time>
      </trkpt>
      <trkpt lat="43.89713" lon="7.56873">
        <ele>986.52462324101</ele>
        <time>2021-11-02T14:10:51Z</time>
      </trkpt>
      <trkpt lat="43.89711" lon="7.56874">
        <ele>986.52469648126</ele>
        <time>2021-11-02T14:10:52Z</time>
      </trkpt>
      <trkpt lat="43.89711" lon="7.56874">
        <ele>986.52474658418</ele>
        <time>2021-11-02T14:10:53Z</time>
      </trkpt>
      <trkpt lat="43.8971" lon="7.56875">
        <ele>987.52477800225</ele>
        <time>2021-11-02T14:10:55Z</time>
      </trkpt>
      <trkpt lat="43.8971" lon="7.56876">
        <ele>988.52482349518</ele>
        <time>2021-11-02T14:10:56Z</time>
      </trkpt>
      <trkpt lat="43.89709" lon="7.56876">
        <ele>988.52488544804</ele>
        <time>2021-11-02T14:10:57Z</time>
      </trkpt>
      <trkpt lat="43.89707" lon="7.56877">
        <ele>987.52496695213</ele>
        <time>2021-11-02T14:10:58Z</time>
      </trkpt>
      <trkpt lat="43.89706" lon="7.56878">
        <ele>987.52505239153</ele>
        <time>2021-11-02T14:10:59Z</time>
      </trkpt>
      <trkpt lat="43.89705" lon="7.56878">
        <ele>987.52512245601</ele>
        <time>2021-11-02T14:11:00Z</time>
      </trkpt>
      <trkpt lat="43.89703" lon="7.56878">
        <ele>987.52518924755</ele>
        <time>2021-11-02T14:11:01Z</time>
      </trkpt>
      <trkpt lat="43.89702" lon="7.56878">
        <ele>988.52524461517</ele>
        <time>2021-11-02T14:11:02Z</time>
      </trkpt>
      <trkpt lat="43.89701" lon="7.56878">
        <ele>987.52530097872</ele>
        <time>2021-11-02T14:11:03Z</time>
      </trkpt>
      <trkpt lat="43.897" lon="7.56878">
        <ele>987.52534772921</ele>
        <time>2021-11-02T14:11:04Z</time>
      </trkpt>
      <trkpt lat="43.89699" lon="7.56878">
        <ele>986.52539150297</ele>
        <time>2021-11-02T14:11:05Z</time>
      </trkpt>
      <trkpt lat="43.89698" lon="7.56878">
        <ele>985.5254455469</ele>
        <time>2021-11-02T14:11:06Z</time>
      </trkpt>
      <trkpt lat="43.89697" lon="7.56878">
        <ele>985.52550309693</ele>
        <time>2021-11-02T14:11:07Z</time>
      </trkpt>
      <trkpt lat="43.89695" lon="7.56877">
        <ele>984.52557123955</ele>
        <time>2021-11-02T14:11:08Z</time>
      </trkpt>
      <trkpt lat="43.89694" lon="7.56877">
        <ele>984.52564053287</ele>
        <time>2021-11-02T14:11:09Z</time>
      </trkpt>
      <trkpt lat="43.89693" lon="7.56877">
        <ele>984.52569922848</ele>
        <time>2021-11-02T14:11:10Z</time>
      </trkpt>
      <trkpt lat="43.89692" lon="7.56877">
        <ele>983.52574897161</ele>
        <time>2021-11-02T14:11:11Z</time>
      </trkpt>
      <trkpt lat="43.89691" lon="7.56877">
        <ele>983.52581635295</ele>
        <time>2021-11-02T14:11:12Z</time>
      </trkpt>
      <trkpt lat="43.89689" lon="7.56877">
        <ele>983.52587407987</ele>
        <time>2021-11-02T14:11:13Z</time>
      </trkpt>
      <trkpt lat="43.89689" lon="7.56877">
        <ele>983.5258952555</ele>
        <time>2021-11-02T14:11:14Z</time>
      </trkpt>
      <trkpt lat="43.89688" lon="7.56876">
        <ele>982.52593825754</ele>
        <time>2021-11-02T14:11:15Z</time>
      </trkpt>
      <trkpt lat="43.89687" lon="7.56877">
        <ele>982.52600782632</ele>
        <time>2021-11-02T14:11:16Z</time>
      </trkpt>
      <trkpt lat="43.89686" lon="7.56877">
        <ele>981.52605629817</ele>
        <time>2021-11-02T14:11:17Z</time>
      </trkpt>
      <trkpt lat="43.89685" lon="7.56878">
        <ele>981.52609793046</ele>
        <time>2021-11-02T14:11:18Z</time>
      </trkpt>
      <trkpt lat="43.89684" lon="7.56877">
        <ele>981.52614573565</ele>
        <time>2021-11-02T14:11:19Z</time>
      </trkpt>
      <trkpt lat="43.89683" lon="7.56877">
        <ele>981.52619902261</ele>
        <time>2021-11-02T14:11:20Z</time>
      </trkpt>
      <trkpt lat="43.89682" lon="7.56877">
        <ele>981.52624323343</ele>
        <time>2021-11-02T14:11:21Z</time>
      </trkpt>
      <trkpt lat="43.8968" lon="7.56878">
        <ele>981.52637068972</ele>
        <time>2021-11-02T14:11:23Z</time>
      </trkpt>
      <trkpt lat="43.89679" lon="7.56878">
        <ele>981.52641470136</ele>
        <time>2021-11-02T14:11:24Z</time>
      </trkpt>
      <trkpt lat="43.89678" lon="7.56879">
        <ele>981.52645697708</ele>
        <time>2021-11-02T14:11:25Z</time>
      </trkpt>
      <trkpt lat="43.89678" lon="7.56879">
        <ele>981.52651221105</ele>
        <time>2021-11-02T14:11:26Z</time>
      </trkpt>
      <trkpt lat="43.89676" lon="7.5688">
        <ele>981.52658536672</ele>
        <time>2021-11-02T14:11:27Z</time>
      </trkpt>
      <trkpt lat="43.89675" lon="7.5688">
        <ele>981.52665838642</ele>
        <time>2021-11-02T14:11:28Z</time>
      </trkpt>
      <trkpt lat="43.89674" lon="7.56881">
        <ele>981.52673346569</ele>
        <time>2021-11-02T14:11:29Z</time>
      </trkpt>
      <trkpt lat="43.89672" lon="7.56881">
        <ele>981.52681366513</ele>
        <time>2021-11-02T14:11:30Z</time>
      </trkpt>
      <trkpt lat="43.89671" lon="7.56882">
        <ele>981.52688780848</ele>
        <time>2021-11-02T14:11:31Z</time>
      </trkpt>
      <trkpt lat="43.8967" lon="7.56882">
        <ele>982.52696317693</ele>
        <time>2021-11-02T14:11:32Z</time>
      </trkpt>
      <trkpt lat="43.89669" lon="7.56883">
        <ele>981.52702944217</ele>
        <time>2021-11-02T14:11:33Z</time>
      </trkpt>
      <trkpt lat="43.89668" lon="7.56883">
        <ele>981.52708340861</ele>
        <time>2021-11-02T14:11:34Z</time>
      </trkpt>
      <trkpt lat="43.89665" lon="7.56884">
        <ele>981.52721948381</ele>
        <time>2021-11-02T14:11:36Z</time>
      </trkpt>
      <trkpt lat="43.89664" lon="7.56885">
        <ele>980.52728084206</ele>
        <time>2021-11-02T14:11:37Z</time>
      </trkpt>
      <trkpt lat="43.89663" lon="7.56884">
        <ele>980.52734352823</ele>
        <time>2021-11-02T14:11:38Z</time>
      </trkpt>
      <trkpt lat="43.89662" lon="7.56884">
        <ele>980.52738524936</ele>
        <time>2021-11-02T14:11:39Z</time>
      </trkpt>
      <trkpt lat="43.89661" lon="7.56884">
        <ele>981.52743434813</ele>
        <time>2021-11-02T14:11:40Z</time>
      </trkpt>
      <trkpt lat="43.8966" lon="7.56885">
        <ele>981.52748668216</ele>
        <time>2021-11-02T14:11:41Z</time>
      </trkpt>
      <trkpt lat="43.89659" lon="7.56885">
        <ele>981.52755048773</ele>
        <time>2021-11-02T14:11:42Z</time>
      </trkpt>
      <trkpt lat="43.89658" lon="7.56885">
        <ele>981.52761315064</ele>
        <time>2021-11-02T14:11:43Z</time>
      </trkpt>
      <trkpt lat="43.89657" lon="7.56886">
        <ele>981.52768401495</ele>
        <time>2021-11-02T14:11:44Z</time>
      </trkpt>
      <trkpt lat="43.89656" lon="7.56886">
        <ele>981.52774405504</ele>
        <time>2021-11-02T14:11:45Z</time>
      </trkpt>
      <trkpt lat="43.89655" lon="7.56886">
        <ele>982.527790966</ele>
        <time>2021-11-02T14:11:46Z</time>
      </trkpt>
      <trkpt lat="43.89654" lon="7.56886">
        <ele>981.52783552495</ele>
        <time>2021-11-02T14:11:47Z</time>
      </trkpt>
      <trkpt lat="43.89653" lon="7.56886">
        <ele>981.52789156877</ele>
        <time>2021-11-02T14:11:48Z</time>
      </trkpt>
      <trkpt lat="43.89652" lon="7.56886">
        <ele>981.52792001704</ele>
        <time>2021-11-02T14:11:49Z</time>
      </trkpt>
      <trkpt lat="43.89651" lon="7.56886">
        <ele>982.52797237457</ele>
        <time>2021-11-02T14:11:50Z</time>
      </trkpt>
      <trkpt lat="43.8965" lon="7.56887">
        <ele>981.52804022907</ele>
        <time>2021-11-02T14:11:51Z</time>
      </trkpt>
      <trkpt lat="43.89649" lon="7.56887">
        <ele>981.52808712652</ele>
        <time>2021-11-02T14:11:52Z</time>
      </trkpt>
      <trkpt lat="43.89648" lon="7.56887">
        <ele>981.5281439289</ele>
        <time>2021-11-02T14:11:53Z</time>
      </trkpt>
      <trkpt lat="43.89647" lon="7.56888">
        <ele>981.52820877198</ele>
        <time>2021-11-02T14:11:54Z</time>
      </trkpt>
      <trkpt lat="43.89646" lon="7.56888">
        <ele>981.52826714338</ele>
        <time>2021-11-02T14:11:55Z</time>
      </trkpt>
      <trkpt lat="43.89645" lon="7.56888">
        <ele>981.52832436254</ele>
        <time>2021-11-02T14:11:56Z</time>
      </trkpt>
      <trkpt lat="43.89644" lon="7.56888">
        <ele>981.52837907784</ele>
        <time>2021-11-02T14:11:57Z</time>
      </trkpt>
      <trkpt lat="43.89643" lon="7.56889">
        <ele>980.52844587428</ele>
        <time>2021-11-02T14:11:58Z</time>
      </trkpt>
      <trkpt lat="43.89642" lon="7.56889">
        <ele>980.52850414048</ele>
        <time>2021-11-02T14:11:59Z</time>
      </trkpt>
      <trkpt lat="43.8964" lon="7.56889">
        <ele>980.52857404877</ele>
        <time>2021-11-02T14:12:00Z</time>
      </trkpt>
      <trkpt lat="43.89639" lon="7.5689">
        <ele>980.52863440233</ele>
        <time>2021-11-02T14:12:01Z</time>
      </trkpt>
      <trkpt lat="43.89638" lon="7.56889">
        <ele>980.52867707429</ele>
        <time>2021-11-02T14:12:02Z</time>
      </trkpt>
      <trkpt lat="43.89638" lon="7.56889">
        <ele>981.52871696481</ele>
        <time>2021-11-02T14:12:03Z</time>
      </trkpt>
      <trkpt lat="43.89637" lon="7.5689">
        <ele>981.52876072486</ele>
        <time>2021-11-02T14:12:04Z</time>
      </trkpt>
      <trkpt lat="43.89636" lon="7.5689">
        <ele>981.52882768842</ele>
        <time>2021-11-02T14:12:05Z</time>
      </trkpt>
      <trkpt lat="43.89635" lon="7.5689">
        <ele>982.5288815338</ele>
        <time>2021-11-02T14:12:06Z</time>
      </trkpt>
      <trkpt lat="43.89634" lon="7.56891">
        <ele>981.52893364755</ele>
        <time>2021-11-02T14:12:07Z</time>
      </trkpt>
      <trkpt lat="43.89633" lon="7.56891">
        <ele>981.52898103732</ele>
        <time>2021-11-02T14:12:08Z</time>
      </trkpt>
      <trkpt lat="43.89632" lon="7.56892">
        <ele>981.52902838531</ele>
        <time>2021-11-02T14:12:09Z</time>
      </trkpt>
      <trkpt lat="43.89631" lon="7.56892">
        <ele>981.52909573024</ele>
        <time>2021-11-02T14:12:10Z</time>
      </trkpt>
      <trkpt lat="43.8963" lon="7.56892">
        <ele>982.52914724926</ele>
        <time>2021-11-02T14:12:11Z</time>
      </trkpt>
      <trkpt lat="43.89629" lon="7.56893">
        <ele>982.52921320345</ele>
        <time>2021-11-02T14:12:12Z</time>
      </trkpt>
      <trkpt lat="43.89628" lon="7.56893">
        <ele>982.52928398325</ele>
        <time>2021-11-02T14:12:13Z</time>
      </trkpt>
      <trkpt lat="43.89627" lon="7.56893">
        <ele>982.5293314973</ele>
        <time>2021-11-02T14:12:14Z</time>
      </trkpt>
      <trkpt lat="43.89626" lon="7.56894">
        <ele>982.52941847881</ele>
        <time>2021-11-02T14:12:15Z</time>
      </trkpt>
      <trkpt lat="43.89624" lon="7.56895">
        <ele>982.52948287137</ele>
        <time>2021-11-02T14:12:16Z</time>
      </trkpt>
      <trkpt lat="43.89622" lon="7.56896">
        <ele>982.52960398242</ele>
        <time>2021-11-02T14:12:18Z</time>
      </trkpt>
      <trkpt lat="43.89621" lon="7.56896">
        <ele>983.52966034749</ele>
        <time>2021-11-02T14:12:19Z</time>
      </trkpt>
      <trkpt lat="43.8962" lon="7.56896">
        <ele>982.52972365601</ele>
        <time>2021-11-02T14:12:20Z</time>
      </trkpt>
      <trkpt lat="43.89619" lon="7.56897">
        <ele>983.52978229501</ele>
        <time>2021-11-02T14:12:21Z</time>
      </trkpt>
      <trkpt lat="43.89619" lon="7.56898">
        <ele>983.52983200881</ele>
        <time>2021-11-02T14:12:22Z</time>
      </trkpt>
      <trkpt lat="43.89618" lon="7.56899">
        <ele>984.52987859922</ele>
        <time>2021-11-02T14:12:23Z</time>
      </trkpt>
      <trkpt lat="43.89617" lon="7.56899">
        <ele>984.52991982511</ele>
        <time>2021-11-02T14:12:24Z</time>
      </trkpt>
      <trkpt lat="43.89616" lon="7.569">
        <ele>984.5299888132</ele>
        <time>2021-11-02T14:12:25Z</time>
      </trkpt>
      <trkpt lat="43.89615" lon="7.56901">
        <ele>984.53008882932</ele>
        <time>2021-11-02T14:12:27Z</time>
      </trkpt>
      <trkpt lat="43.89614" lon="7.56902">
        <ele>984.53013867519</ele>
        <time>2021-11-02T14:12:28Z</time>
      </trkpt>
      <trkpt lat="43.89613" lon="7.56903">
        <ele>985.53018798633</ele>
        <time>2021-11-02T14:12:29Z</time>
      </trkpt>
      <trkpt lat="43.89612" lon="7.56903">
        <ele>985.53025029383</ele>
        <time>2021-11-02T14:12:30Z</time>
      </trkpt>
      <trkpt lat="43.89611" lon="7.56904">
        <ele>985.53034439639</ele>
        <time>2021-11-02T14:12:32Z</time>
      </trkpt>
      <trkpt lat="43.8961" lon="7.56905">
        <ele>985.53039041942</ele>
        <time>2021-11-02T14:12:33Z</time>
      </trkpt>
      <trkpt lat="43.89609" lon="7.56906">
        <ele>985.53043910687</ele>
        <time>2021-11-02T14:12:34Z</time>
      </trkpt>
      <trkpt lat="43.89608" lon="7.56908">
        <ele>985.53054059352</ele>
        <time>2021-11-02T14:12:36Z</time>
      </trkpt>
      <trkpt lat="43.89607" lon="7.56908">
        <ele>986.53061875461</ele>
        <time>2021-11-02T14:12:37Z</time>
      </trkpt>
      <trkpt lat="43.89605" lon="7.56909">
        <ele>986.53069681559</ele>
        <time>2021-11-02T14:12:38Z</time>
      </trkpt>
      <trkpt lat="43.89605" lon="7.5691">
        <ele>986.53073850773</ele>
        <time>2021-11-02T14:12:39Z</time>
      </trkpt>
      <trkpt lat="43.89604" lon="7.56911">
        <ele>986.53079715789</ele>
        <time>2021-11-02T14:12:40Z</time>
      </trkpt>
      <trkpt lat="43.89603" lon="7.56913">
        <ele>986.53090509891</ele>
        <time>2021-11-02T14:12:42Z</time>
      </trkpt>
      <trkpt lat="43.89602" lon="7.56914">
        <ele>986.53095033533</ele>
        <time>2021-11-02T14:12:43Z</time>
      </trkpt>
      <trkpt lat="43.89601" lon="7.56915">
        <ele>986.53100562643</ele>
        <time>2021-11-02T14:12:44Z</time>
      </trkpt>
      <trkpt lat="43.896" lon="7.56917">
        <ele>986.53110057341</ele>
        <time>2021-11-02T14:12:46Z</time>
      </trkpt>
      <trkpt lat="43.89599" lon="7.56918">
        <ele>987.53115468579</ele>
        <time>2021-11-02T14:12:47Z</time>
      </trkpt>
      <trkpt lat="43.89598" lon="7.56919">
        <ele>987.53122310375</ele>
        <time>2021-11-02T14:12:48Z</time>
      </trkpt>
      <trkpt lat="43.89597" lon="7.56919">
        <ele>987.5312965877</ele>
        <time>2021-11-02T14:12:49Z</time>
      </trkpt>
      <trkpt lat="43.89596" lon="7.5692">
        <ele>987.53136043625</ele>
        <time>2021-11-02T14:12:50Z</time>
      </trkpt>
      <trkpt lat="43.89595" lon="7.56921">
        <ele>987.53142455888</ele>
        <time>2021-11-02T14:12:51Z</time>
      </trkpt>
      <trkpt lat="43.89594" lon="7.56922">
        <ele>987.53148023352</ele>
        <time>2021-11-02T14:12:52Z</time>
      </trkpt>
      <trkpt lat="43.89594" lon="7.56923">
        <ele>987.5315084574</ele>
        <time>2021-11-02T14:12:53Z</time>
      </trkpt>
      <trkpt lat="43.89593" lon="7.56924">
        <ele>987.53156828619</ele>
        <time>2021-11-02T14:12:54Z</time>
      </trkpt>
      <trkpt lat="43.89593" lon="7.56925">
        <ele>987.53161587891</ele>
        <time>2021-11-02T14:12:55Z</time>
      </trkpt>
      <trkpt lat="43.89591" lon="7.56928">
        <ele>988.5317266897</ele>
        <time>2021-11-02T14:12:57Z</time>
      </trkpt>
      <trkpt lat="43.89591" lon="7.56929">
        <ele>988.53176131373</ele>
        <time>2021-11-02T14:12:58Z</time>
      </trkpt>
      <trkpt lat="43.89591" lon="7.56929">
        <ele>988.53177656972</ele>
        <time>2021-11-02T14:13:13Z</time>
      </trkpt>
      <trkpt lat="43.8959" lon="7.56927">
        <ele>987.5317728327</ele>
        <time>2021-11-02T14:13:14Z</time>
      </trkpt>
      <trkpt lat="43.8959" lon="7.56925">
        <ele>986.5317609195</ele>
        <time>2021-11-02T14:13:24Z</time>
      </trkpt>
      <trkpt lat="43.8959" lon="7.56925">
        <ele>985.53172342906</ele>
        <time>2021-11-02T14:13:26Z</time>
      </trkpt>
      <trkpt lat="43.89589" lon="7.56925">
        <ele>986.53178081888</ele>
        <time>2021-11-02T14:13:27Z</time>
      </trkpt>
      <trkpt lat="43.89588" lon="7.56926">
        <ele>986.53184605802</ele>
        <time>2021-11-02T14:13:28Z</time>
      </trkpt>
      <trkpt lat="43.89588" lon="7.56927">
        <ele>986.53189672411</ele>
        <time>2021-11-02T14:13:29Z</time>
      </trkpt>
      <trkpt lat="43.89587" lon="7.56929">
        <ele>986.5319460424</ele>
        <time>2021-11-02T14:13:30Z</time>
      </trkpt>
      <trkpt lat="43.89586" lon="7.5693">
        <ele>985.53202130714</ele>
        <time>2021-11-02T14:13:31Z</time>
      </trkpt>
      <trkpt lat="43.89584" lon="7.56932">
        <ele>986.53216654319</ele>
        <time>2021-11-02T14:13:33Z</time>
      </trkpt>
      <trkpt lat="43.89584" lon="7.56933">
        <ele>986.53220648683</ele>
        <time>2021-11-02T14:13:34Z</time>
      </trkpt>
      <trkpt lat="43.89583" lon="7.56934">
        <ele>986.53224974338</ele>
        <time>2021-11-02T14:13:35Z</time>
      </trkpt>
      <trkpt lat="43.89582" lon="7.56934">
        <ele>985.53232273814</ele>
        <time>2021-11-02T14:13:36Z</time>
      </trkpt>
      <trkpt lat="43.8958" lon="7.56934">
        <ele>984.53239546241</ele>
        <time>2021-11-02T14:13:37Z</time>
      </trkpt>
      <trkpt lat="43.89579" lon="7.56935">
        <ele>983.53245955006</ele>
        <time>2021-11-02T14:13:38Z</time>
      </trkpt>
      <trkpt lat="43.89578" lon="7.56935">
        <ele>982.53251670456</ele>
        <time>2021-11-02T14:13:39Z</time>
      </trkpt>
      <trkpt lat="43.89577" lon="7.56934">
        <ele>982.53255251333</ele>
        <time>2021-11-02T14:13:40Z</time>
      </trkpt>
      <trkpt lat="43.89576" lon="7.56931">
        <ele>983.5325909345</ele>
        <time>2021-11-02T14:13:42Z</time>
      </trkpt>
      <trkpt lat="43.89575" lon="7.56931">
        <ele>982.53262723501</ele>
        <time>2021-11-02T14:13:43Z</time>
      </trkpt>
      <trkpt lat="43.89574" lon="7.56931">
        <ele>982.53267189252</ele>
        <time>2021-11-02T14:13:44Z</time>
      </trkpt>
      <trkpt lat="43.89573" lon="7.56931">
        <ele>982.53269613073</ele>
        <time>2021-11-02T14:13:45Z</time>
      </trkpt>
      <trkpt lat="43.89572" lon="7.56931">
        <ele>982.53275008666</ele>
        <time>2021-11-02T14:13:46Z</time>
      </trkpt>
      <trkpt lat="43.89571" lon="7.56931">
        <ele>982.53282632933</ele>
        <time>2021-11-02T14:13:48Z</time>
      </trkpt>
      <trkpt lat="43.8957" lon="7.56931">
        <ele>981.53286214329</ele>
        <time>2021-11-02T14:13:49Z</time>
      </trkpt>
      <trkpt lat="43.8957" lon="7.56932">
        <ele>981.53289391454</ele>
        <time>2021-11-02T14:13:50Z</time>
      </trkpt>
      <trkpt lat="43.89569" lon="7.56932">
        <ele>981.53295075593</ele>
        <time>2021-11-02T14:13:51Z</time>
      </trkpt>
      <trkpt lat="43.89568" lon="7.56933">
        <ele>981.53301712873</ele>
        <time>2021-11-02T14:13:52Z</time>
      </trkpt>
      <trkpt lat="43.89567" lon="7.56933">
        <ele>981.5330562053</ele>
        <time>2021-11-02T14:13:53Z</time>
      </trkpt>
      <trkpt lat="43.89566" lon="7.56933">
        <ele>980.53309964916</ele>
        <time>2021-11-02T14:13:54Z</time>
      </trkpt>
      <trkpt lat="43.89565" lon="7.56932">
        <ele>980.53315332995</ele>
        <time>2021-11-02T14:13:55Z</time>
      </trkpt>
      <trkpt lat="43.89564" lon="7.56932">
        <ele>979.53318035246</ele>
        <time>2021-11-02T14:13:58Z</time>
      </trkpt>
      <trkpt lat="43.89564" lon="7.56932">
        <ele>979.53319424625</ele>
        <time>2021-11-02T14:13:59Z</time>
      </trkpt>
      <trkpt lat="43.89563" lon="7.56932">
        <ele>979.53324272794</ele>
        <time>2021-11-02T14:14:00Z</time>
      </trkpt>
      <trkpt lat="43.89562" lon="7.56932">
        <ele>978.53329282343</ele>
        <time>2021-11-02T14:14:01Z</time>
      </trkpt>
      <trkpt lat="43.89562" lon="7.56932">
        <ele>978.53330779491</ele>
        <time>2021-11-02T14:14:02Z</time>
      </trkpt>
      <trkpt lat="43.89561" lon="7.56933">
        <ele>977.53334842731</ele>
        <time>2021-11-02T14:14:03Z</time>
      </trkpt>
      <trkpt lat="43.8956" lon="7.56934">
        <ele>977.53339971932</ele>
        <time>2021-11-02T14:14:04Z</time>
      </trkpt>
      <trkpt lat="43.89559" lon="7.56934">
        <ele>976.5334741886</ele>
        <time>2021-11-02T14:14:05Z</time>
      </trkpt>
      <trkpt lat="43.89558" lon="7.56935">
        <ele>977.53355715164</ele>
        <time>2021-11-02T14:14:07Z</time>
      </trkpt>
      <trkpt lat="43.89557" lon="7.56935">
        <ele>976.53361000229</ele>
        <time>2021-11-02T14:14:08Z</time>
      </trkpt>
      <trkpt lat="43.89556" lon="7.56935">
        <ele>976.53364602736</ele>
        <time>2021-11-02T14:14:09Z</time>
      </trkpt>
      <trkpt lat="43.89556" lon="7.56935">
        <ele>976.53366844592</ele>
        <time>2021-11-02T14:14:10Z</time>
      </trkpt>
      <trkpt lat="43.89555" lon="7.56935">
        <ele>976.53371393522</ele>
        <time>2021-11-02T14:14:11Z</time>
      </trkpt>
      <trkpt lat="43.89554" lon="7.56936">
        <ele>976.53377980877</ele>
        <time>2021-11-02T14:14:13Z</time>
      </trkpt>
      <trkpt lat="43.89553" lon="7.56936">
        <ele>976.53382260608</ele>
        <time>2021-11-02T14:14:14Z</time>
      </trkpt>
      <trkpt lat="43.89552" lon="7.56936">
        <ele>976.53385443443</ele>
        <time>2021-11-02T14:14:15Z</time>
      </trkpt>
      <trkpt lat="43.89552" lon="7.56937">
        <ele>976.53389163011</ele>
        <time>2021-11-02T14:14:16Z</time>
      </trkpt>
      <trkpt lat="43.89551" lon="7.56937">
        <ele>975.53392918117</ele>
        <time>2021-11-02T14:14:17Z</time>
      </trkpt>
      <trkpt lat="43.89549" lon="7.56938">
        <ele>974.53404301084</ele>
        <time>2021-11-02T14:14:19Z</time>
      </trkpt>
      <trkpt lat="43.89548" lon="7.56937">
        <ele>974.53409965032</ele>
        <time>2021-11-02T14:14:21Z</time>
      </trkpt>
      <trkpt lat="43.89547" lon="7.56939">
        <ele>974.53416876244</ele>
        <time>2021-11-02T14:14:23Z</time>
      </trkpt>
      <trkpt lat="43.89547" lon="7.56939">
        <ele>974.53420082962</ele>
        <time>2021-11-02T14:14:24Z</time>
      </trkpt>
      <trkpt lat="43.89546" lon="7.5694">
        <ele>975.53422102065</ele>
        <time>2021-11-02T14:14:25Z</time>
      </trkpt>
      <trkpt lat="43.89546" lon="7.56941">
        <ele>975.53424853702</ele>
        <time>2021-11-02T14:14:27Z</time>
      </trkpt>
      <trkpt lat="43.89546" lon="7.56941">
        <ele>976.53428606636</ele>
        <time>2021-11-02T14:14:28Z</time>
      </trkpt>
      <trkpt lat="43.89544" lon="7.56942">
        <ele>975.53436287187</ele>
        <time>2021-11-02T14:14:29Z</time>
      </trkpt>
      <trkpt lat="43.89544" lon="7.56943">
        <ele>975.53441668638</ele>
        <time>2021-11-02T14:14:30Z</time>
      </trkpt>
      <trkpt lat="43.89543" lon="7.56943">
        <ele>975.53445960134</ele>
        <time>2021-11-02T14:14:31Z</time>
      </trkpt>
      <trkpt lat="43.89543" lon="7.56945">
        <ele>976.5345018614</ele>
        <time>2021-11-02T14:14:33Z</time>
      </trkpt>
      <trkpt lat="43.89542" lon="7.56946">
        <ele>975.53453901333</ele>
        <time>2021-11-02T14:14:34Z</time>
      </trkpt>
      <trkpt lat="43.89542" lon="7.56947">
        <ele>976.53457919352</ele>
        <time>2021-11-02T14:14:35Z</time>
      </trkpt>
      <trkpt lat="43.89541" lon="7.56947">
        <ele>976.53460380835</ele>
        <time>2021-11-02T14:14:36Z</time>
      </trkpt>
      <trkpt lat="43.89541" lon="7.56948">
        <ele>975.53465853563</ele>
        <time>2021-11-02T14:14:37Z</time>
      </trkpt>
      <trkpt lat="43.8954" lon="7.5695">
        <ele>975.53471621892</ele>
        <time>2021-11-02T14:14:38Z</time>
      </trkpt>
      <trkpt lat="43.8954" lon="7.5695">
        <ele>975.53473034395</ele>
        <time>2021-11-02T14:14:39Z</time>
      </trkpt>
      <trkpt lat="43.89541" lon="7.56952">
        <ele>975.53473110524</ele>
        <time>2021-11-02T14:14:41Z</time>
      </trkpt>
      <trkpt lat="43.89541" lon="7.56955">
        <ele>975.53474875568</ele>
        <time>2021-11-02T14:14:43Z</time>
      </trkpt>
      <trkpt lat="43.89541" lon="7.56956">
        <ele>975.53479634008</ele>
        <time>2021-11-02T14:14:44Z</time>
      </trkpt>
      <trkpt lat="43.8954" lon="7.56957">
        <ele>975.53483944881</ele>
        <time>2021-11-02T14:14:45Z</time>
      </trkpt>
      <trkpt lat="43.89539" lon="7.56959">
        <ele>975.5349144877</ele>
        <time>2021-11-02T14:14:46Z</time>
      </trkpt>
      <trkpt lat="43.89539" lon="7.5696">
        <ele>975.53495624563</ele>
        <time>2021-11-02T14:14:47Z</time>
      </trkpt>
      <trkpt lat="43.89539" lon="7.56961">
        <ele>975.53497649385</ele>
        <time>2021-11-02T14:14:48Z</time>
      </trkpt>
      <trkpt lat="43.89538" lon="7.56962">
        <ele>975.53500800093</ele>
        <time>2021-11-02T14:14:49Z</time>
      </trkpt>
      <trkpt lat="43.89538" lon="7.56962">
        <ele>975.53503433295</ele>
        <time>2021-11-02T14:14:52Z</time>
      </trkpt>
      <trkpt lat="43.89538" lon="7.56964">
        <ele>974.53506586281</ele>
        <time>2021-11-02T14:14:53Z</time>
      </trkpt>
      <trkpt lat="43.89537" lon="7.56965">
        <ele>974.53509768849</ele>
        <time>2021-11-02T14:14:54Z</time>
      </trkpt>
      <trkpt lat="43.89537" lon="7.56966">
        <ele>974.53513745811</ele>
        <time>2021-11-02T14:14:55Z</time>
      </trkpt>
      <trkpt lat="43.89537" lon="7.56967">
        <ele>973.53518768195</ele>
        <time>2021-11-02T14:14:57Z</time>
      </trkpt>
      <trkpt lat="43.89536" lon="7.56968">
        <ele>973.53521788917</ele>
        <time>2021-11-02T14:14:58Z</time>
      </trkpt>
      <trkpt lat="43.89536" lon="7.5697">
        <ele>972.53526586026</ele>
        <time>2021-11-02T14:14:59Z</time>
      </trkpt>
      <trkpt lat="43.89535" lon="7.5697">
        <ele>972.53530886903</ele>
        <time>2021-11-02T14:15:00Z</time>
      </trkpt>
      <trkpt lat="43.89534" lon="7.5697">
        <ele>972.53534731624</ele>
        <time>2021-11-02T14:15:08Z</time>
      </trkpt>
      <trkpt lat="43.89534" lon="7.56971">
        <ele>971.53538460158</ele>
        <time>2021-11-02T14:15:09Z</time>
      </trkpt>
      <trkpt lat="43.89533" lon="7.56972">
        <ele>969.53541440612</ele>
        <time>2021-11-02T14:16:10Z</time>
      </trkpt>
      <trkpt lat="43.89532" lon="7.56972">
        <ele>967.53548034873</ele>
        <time>2021-11-02T14:16:11Z</time>
      </trkpt>
      <trkpt lat="43.89532" lon="7.56973">
        <ele>966.53552889944</ele>
        <time>2021-11-02T14:16:13Z</time>
      </trkpt>
      <trkpt lat="43.89532" lon="7.56974">
        <ele>965.53553698414</ele>
        <time>2021-11-02T14:16:14Z</time>
      </trkpt>
      <trkpt lat="43.89533" lon="7.56976">
        <ele>965.53552728935</ele>
        <time>2021-11-02T14:16:15Z</time>
      </trkpt>
      <trkpt lat="43.89533" lon="7.56977">
        <ele>964.5355411037</ele>
        <time>2021-11-02T14:16:16Z</time>
      </trkpt>
      <trkpt lat="43.89533" lon="7.56979">
        <ele>963.53555902545</ele>
        <time>2021-11-02T14:16:17Z</time>
      </trkpt>
      <trkpt lat="43.89533" lon="7.5698">
        <ele>962.53557143008</ele>
        <time>2021-11-02T14:16:18Z</time>
      </trkpt>
      <trkpt lat="43.89533" lon="7.56982">
        <ele>962.53557955286</ele>
        <time>2021-11-02T14:16:19Z</time>
      </trkpt>
      <trkpt lat="43.89533" lon="7.56983">
        <ele>962.53560165316</ele>
        <time>2021-11-02T14:16:20Z</time>
      </trkpt>
      <trkpt lat="43.89533" lon="7.56983">
        <ele>962.53562911578</ele>
        <time>2021-11-02T14:16:21Z</time>
      </trkpt>
      <trkpt lat="43.89532" lon="7.56983">
        <ele>962.53568516853</ele>
        <time>2021-11-02T14:16:22Z</time>
      </trkpt>
      <trkpt lat="43.89531" lon="7.56984">
        <ele>962.53574164773</ele>
        <time>2021-11-02T14:16:23Z</time>
      </trkpt>
      <trkpt lat="43.8953" lon="7.56984">
        <ele>961.53580345443</ele>
        <time>2021-11-02T14:16:24Z</time>
      </trkpt>
      <trkpt lat="43.89529" lon="7.56984">
        <ele>960.53585211834</ele>
        <time>2021-11-02T14:16:25Z</time>
      </trkpt>
      <trkpt lat="43.89529" lon="7.56985">
        <ele>960.53588095733</ele>
        <time>2021-11-02T14:16:26Z</time>
      </trkpt>
      <trkpt lat="43.89529" lon="7.56986">
        <ele>961.53589561341</ele>
        <time>2021-11-02T14:16:27Z</time>
      </trkpt>
      <trkpt lat="43.89529" lon="7.56987">
        <ele>961.53589598824</ele>
        <time>2021-11-02T14:16:28Z</time>
      </trkpt>
      <trkpt lat="43.89528" lon="7.56987">
        <ele>961.53594595858</ele>
        <time>2021-11-02T14:16:31Z</time>
      </trkpt>
      <trkpt lat="43.89528" lon="7.56988">
        <ele>960.53598391095</ele>
        <time>2021-11-02T14:16:44Z</time>
      </trkpt>
      <trkpt lat="43.89527" lon="7.56988">
        <ele>959.536020746</ele>
        <time>2021-11-02T14:16:46Z</time>
      </trkpt>
      <trkpt lat="43.89527" lon="7.56989">
        <ele>959.53603983722</ele>
        <time>2021-11-02T14:16:47Z</time>
      </trkpt>
      <trkpt lat="43.89526" lon="7.5699">
        <ele>959.53607968256</ele>
        <time>2021-11-02T14:16:48Z</time>
      </trkpt>
      <trkpt lat="43.89526" lon="7.5699">
        <ele>959.53611838889</ele>
        <time>2021-11-02T14:16:49Z</time>
      </trkpt>
      <trkpt lat="43.89525" lon="7.5699">
        <ele>958.53616186185</ele>
        <time>2021-11-02T14:16:50Z</time>
      </trkpt>
      <trkpt lat="43.89524" lon="7.5699">
        <ele>958.53619497621</ele>
        <time>2021-11-02T14:16:51Z</time>
      </trkpt>
      <trkpt lat="43.89524" lon="7.56991">
        <ele>958.53624213342</ele>
        <time>2021-11-02T14:16:52Z</time>
      </trkpt>
      <trkpt lat="43.89523" lon="7.56991">
        <ele>957.53626590595</ele>
        <time>2021-11-02T14:16:54Z</time>
      </trkpt>
      <trkpt lat="43.89523" lon="7.56992">
        <ele>957.53631036192</ele>
        <time>2021-11-02T14:16:57Z</time>
      </trkpt>
      <trkpt lat="43.89521" lon="7.56993">
        <ele>958.53640867654</ele>
        <time>2021-11-02T14:16:58Z</time>
      </trkpt>
      <trkpt lat="43.89521" lon="7.56994">
        <ele>958.53643284237</ele>
        <time>2021-11-02T14:16:59Z</time>
      </trkpt>
      <trkpt lat="43.89521" lon="7.56996">
        <ele>958.53646074337</ele>
        <time>2021-11-02T14:17:00Z</time>
      </trkpt>
      <trkpt lat="43.8952" lon="7.56997">
        <ele>958.53650029892</ele>
        <time>2021-11-02T14:17:01Z</time>
      </trkpt>
      <trkpt lat="43.8952" lon="7.56998">
        <ele>958.53655139663</ele>
        <time>2021-11-02T14:17:02Z</time>
      </trkpt>
      <trkpt lat="43.89519" lon="7.57">
        <ele>958.53661797385</ele>
        <time>2021-11-02T14:17:03Z</time>
      </trkpt>
      <trkpt lat="43.89519" lon="7.57001">
        <ele>958.53665372352</ele>
        <time>2021-11-02T14:17:04Z</time>
      </trkpt>
      <trkpt lat="43.89518" lon="7.57003">
        <ele>959.53672899418</ele>
        <time>2021-11-02T14:17:06Z</time>
      </trkpt>
      <trkpt lat="43.89518" lon="7.57004">
        <ele>958.53673127653</ele>
        <time>2021-11-02T14:17:07Z</time>
      </trkpt>
      <trkpt lat="43.89519" lon="7.57006">
        <ele>959.53674315489</ele>
        <time>2021-11-02T14:17:08Z</time>
      </trkpt>
      <trkpt lat="43.89519" lon="7.57007">
        <ele>959.53674967566</ele>
        <time>2021-11-02T14:17:10Z</time>
      </trkpt>
      <trkpt lat="43.8952" lon="7.57008">
        <ele>959.53673878762</ele>
        <time>2021-11-02T14:17:12Z</time>
      </trkpt>
      <trkpt lat="43.8952" lon="7.57009">
        <ele>959.5367523169</ele>
        <time>2021-11-02T14:17:13Z</time>
      </trkpt>
      <trkpt lat="43.89519" lon="7.5701">
        <ele>959.5368064574</ele>
        <time>2021-11-02T14:17:14Z</time>
      </trkpt>
      <trkpt lat="43.89518" lon="7.57012">
        <ele>959.53688449737</ele>
        <time>2021-11-02T14:17:15Z</time>
      </trkpt>
      <trkpt lat="43.89518" lon="7.57012">
        <ele>960.53688960775</ele>
        <time>2021-11-02T14:17:16Z</time>
      </trkpt>
      <trkpt lat="43.89518" lon="7.57013">
        <ele>960.53692474442</ele>
        <time>2021-11-02T14:17:17Z</time>
      </trkpt>
      <trkpt lat="43.89518" lon="7.57014">
        <ele>959.53694182875</ele>
        <time>2021-11-02T14:17:18Z</time>
      </trkpt>
      <trkpt lat="43.89517" lon="7.57016">
        <ele>960.5369748923</ele>
        <time>2021-11-02T14:17:19Z</time>
      </trkpt>
      <trkpt lat="43.89517" lon="7.57017">
        <ele>960.53703423272</ele>
        <time>2021-11-02T14:17:20Z</time>
      </trkpt>
      <trkpt lat="43.89516" lon="7.57018">
        <ele>960.53709282163</ele>
        <time>2021-11-02T14:17:21Z</time>
      </trkpt>
      <trkpt lat="43.89515" lon="7.57019">
        <ele>960.53713405248</ele>
        <time>2021-11-02T14:17:22Z</time>
      </trkpt>
      <trkpt lat="43.89515" lon="7.5702">
        <ele>959.53718103658</ele>
        <time>2021-11-02T14:17:23Z</time>
      </trkpt>
      <trkpt lat="43.89514" lon="7.57021">
        <ele>958.53722230083</ele>
        <time>2021-11-02T14:17:24Z</time>
      </trkpt>
      <trkpt lat="43.89514" lon="7.57021">
        <ele>958.53725162647</ele>
        <time>2021-11-02T14:17:25Z</time>
      </trkpt>
      <trkpt lat="43.89513" lon="7.57021">
        <ele>958.53730540811</ele>
        <time>2021-11-02T14:17:26Z</time>
      </trkpt>
      <trkpt lat="43.89513" lon="7.57023">
        <ele>958.53733759015</ele>
        <time>2021-11-02T14:17:27Z</time>
      </trkpt>
      <trkpt lat="43.89513" lon="7.57023">
        <ele>957.53734460644</ele>
        <time>2021-11-02T14:17:29Z</time>
      </trkpt>
      <trkpt lat="43.89512" lon="7.57024">
        <ele>957.53738403169</ele>
        <time>2021-11-02T14:17:31Z</time>
      </trkpt>
      <trkpt lat="43.89512" lon="7.57025">
        <ele>956.53742511075</ele>
        <time>2021-11-02T14:17:32Z</time>
      </trkpt>
      <trkpt lat="43.89511" lon="7.57025">
        <ele>956.53745219679</ele>
        <time>2021-11-02T14:17:33Z</time>
      </trkpt>
      <trkpt lat="43.89511" lon="7.57027">
        <ele>955.53748074653</ele>
        <time>2021-11-02T14:17:34Z</time>
      </trkpt>
      <trkpt lat="43.8951" lon="7.57028">
        <ele>955.5375612104</ele>
        <time>2021-11-02T14:17:35Z</time>
      </trkpt>
      <trkpt lat="43.89509" lon="7.57029">
        <ele>955.53763873862</ele>
        <time>2021-11-02T14:17:36Z</time>
      </trkpt>
      <trkpt lat="43.89508" lon="7.5703">
        <ele>955.53770071117</ele>
        <time>2021-11-02T14:17:37Z</time>
      </trkpt>
      <trkpt lat="43.89507" lon="7.5703">
        <ele>954.53774766567</ele>
        <time>2021-11-02T14:17:38Z</time>
      </trkpt>
      <trkpt lat="43.89507" lon="7.5703">
        <ele>954.53776798866</ele>
        <time>2021-11-02T14:17:39Z</time>
      </trkpt>
      <trkpt lat="43.89506" lon="7.57031">
        <ele>954.53783280273</ele>
        <time>2021-11-02T14:17:40Z</time>
      </trkpt>
      <trkpt lat="43.89505" lon="7.57032">
        <ele>954.53788737629</ele>
        <time>2021-11-02T14:17:41Z</time>
      </trkpt>
      <trkpt lat="43.89504" lon="7.57032">
        <ele>954.53794160825</ele>
        <time>2021-11-02T14:17:42Z</time>
      </trkpt>
      <trkpt lat="43.89503" lon="7.57032">
        <ele>954.5379954691</ele>
        <time>2021-11-02T14:17:43Z</time>
      </trkpt>
      <trkpt lat="43.89503" lon="7.57032">
        <ele>954.53799698399</ele>
        <time>2021-11-02T14:17:51Z</time>
      </trkpt>
      <trkpt lat="43.89502" lon="7.57033">
        <ele>954.53805509682</ele>
        <time>2021-11-02T14:17:52Z</time>
      </trkpt>
      <trkpt lat="43.89501" lon="7.57034">
        <ele>952.53812655681</ele>
        <time>2021-11-02T14:17:53Z</time>
      </trkpt>
      <trkpt lat="43.895" lon="7.57034">
        <ele>952.5381826511</ele>
        <time>2021-11-02T14:17:54Z</time>
      </trkpt>
      <trkpt lat="43.89499" lon="7.57034">
        <ele>952.53820375245</ele>
        <time>2021-11-02T14:17:55Z</time>
      </trkpt>
      <trkpt lat="43.89499" lon="7.57035">
        <ele>953.53823919202</ele>
        <time>2021-11-02T14:17:56Z</time>
      </trkpt>
      <trkpt lat="43.89498" lon="7.57037">
        <ele>953.53830661524</ele>
        <time>2021-11-02T14:17:57Z</time>
      </trkpt>
      <trkpt lat="43.89498" lon="7.57038">
        <ele>952.53836239296</ele>
        <time>2021-11-02T14:17:58Z</time>
      </trkpt>
      <trkpt lat="43.89497" lon="7.57038">
        <ele>952.53839469335</ele>
        <time>2021-11-02T14:17:59Z</time>
      </trkpt>
      <trkpt lat="43.89497" lon="7.57039">
        <ele>952.53842680515</ele>
        <time>2021-11-02T14:18:00Z</time>
      </trkpt>
      <trkpt lat="43.89497" lon="7.5704">
        <ele>952.53844783317</ele>
        <time>2021-11-02T14:18:05Z</time>
      </trkpt>
      <trkpt lat="43.89497" lon="7.5704">
        <ele>950.53844835278</ele>
        <time>2021-11-02T14:18:06Z</time>
      </trkpt>
      <trkpt lat="43.89496" lon="7.57041">
        <ele>949.5384967768</ele>
        <time>2021-11-02T14:18:07Z</time>
      </trkpt>
      <trkpt lat="43.89495" lon="7.57042">
        <ele>949.53853942254</ele>
        <time>2021-11-02T14:18:08Z</time>
      </trkpt>
      <trkpt lat="43.89495" lon="7.57042">
        <ele>948.53856996716</ele>
        <time>2021-11-02T14:18:09Z</time>
      </trkpt>
      <trkpt lat="43.89494" lon="7.57043">
        <ele>948.53861476011</ele>
        <time>2021-11-02T14:18:10Z</time>
      </trkpt>
      <trkpt lat="43.89494" lon="7.57044">
        <ele>948.5386493149</ele>
        <time>2021-11-02T14:18:11Z</time>
      </trkpt>
      <trkpt lat="43.89493" lon="7.57045">
        <ele>948.53870211784</ele>
        <time>2021-11-02T14:18:12Z</time>
      </trkpt>
      <trkpt lat="43.89493" lon="7.57046">
        <ele>948.5387566564</ele>
        <time>2021-11-02T14:18:13Z</time>
      </trkpt>
      <trkpt lat="43.89492" lon="7.57047">
        <ele>948.53878829141</ele>
        <time>2021-11-02T14:18:14Z</time>
      </trkpt>
      <trkpt lat="43.89491" lon="7.57047">
        <ele>948.53883412732</ele>
        <time>2021-11-02T14:18:15Z</time>
      </trkpt>
      <trkpt lat="43.89491" lon="7.57048">
        <ele>948.53887836342</ele>
        <time>2021-11-02T14:18:17Z</time>
      </trkpt>
      <trkpt lat="43.89491" lon="7.57049">
        <ele>949.53890081059</ele>
        <time>2021-11-02T14:18:18Z</time>
      </trkpt>
      <trkpt lat="43.8949" lon="7.5705">
        <ele>948.53897882848</ele>
        <time>2021-11-02T14:18:19Z</time>
      </trkpt>
      <trkpt lat="43.89487" lon="7.57052">
        <ele>947.53911377666</ele>
        <time>2021-11-02T14:18:21Z</time>
      </trkpt>
      <trkpt lat="43.89488" lon="7.57053">
        <ele>948.53909413824</ele>
        <time>2021-11-02T14:18:23Z</time>
      </trkpt>
      <trkpt lat="43.89488" lon="7.57053">
        <ele>947.53912441132</ele>
        <time>2021-11-02T14:18:24Z</time>
      </trkpt>
      <trkpt lat="43.89487" lon="7.57054">
        <ele>946.53915977234</ele>
        <time>2021-11-02T14:18:26Z</time>
      </trkpt>
      <trkpt lat="43.89487" lon="7.57055">
        <ele>946.53920250504</ele>
        <time>2021-11-02T14:18:27Z</time>
      </trkpt>
      <trkpt lat="43.89487" lon="7.57056">
        <ele>945.53923419581</ele>
        <time>2021-11-02T14:18:28Z</time>
      </trkpt>
      <trkpt lat="43.89487" lon="7.57057">
        <ele>944.53923396477</ele>
        <time>2021-11-02T14:18:29Z</time>
      </trkpt>
      <trkpt lat="43.89487" lon="7.57059">
        <ele>945.53926508998</ele>
        <time>2021-11-02T14:18:30Z</time>
      </trkpt>
      <trkpt lat="43.89486" lon="7.57059">
        <ele>944.539298202</ele>
        <time>2021-11-02T14:18:32Z</time>
      </trkpt>
      <trkpt lat="43.89486" lon="7.57061">
        <ele>944.53933053105</ele>
        <time>2021-11-02T14:18:33Z</time>
      </trkpt>
      <trkpt lat="43.89486" lon="7.57061">
        <ele>945.53934733129</ele>
        <time>2021-11-02T14:18:34Z</time>
      </trkpt>
      <trkpt lat="43.89485" lon="7.57063">
        <ele>945.53943041239</ele>
        <time>2021-11-02T14:18:36Z</time>
      </trkpt>
      <trkpt lat="43.89484" lon="7.57064">
        <ele>944.53948234323</ele>
        <time>2021-11-02T14:18:37Z</time>
      </trkpt>
      <trkpt lat="43.89483" lon="7.57064">
        <ele>944.53952797342</ele>
        <time>2021-11-02T14:18:38Z</time>
      </trkpt>
      <trkpt lat="43.89482" lon="7.57065">
        <ele>944.53959155755</ele>
        <time>2021-11-02T14:18:39Z</time>
      </trkpt>
      <trkpt lat="43.89482" lon="7.57066">
        <ele>944.53962897912</ele>
        <time>2021-11-02T14:18:40Z</time>
      </trkpt>
      <trkpt lat="43.89481" lon="7.57068">
        <ele>943.53972157472</ele>
        <time>2021-11-02T14:18:42Z</time>
      </trkpt>
      <trkpt lat="43.89481" lon="7.5707">
        <ele>943.53976495044</ele>
        <time>2021-11-02T14:18:43Z</time>
      </trkpt>
      <trkpt lat="43.8948" lon="7.57071">
        <ele>942.53980191893</ele>
        <time>2021-11-02T14:18:44Z</time>
      </trkpt>
      <trkpt lat="43.8948" lon="7.57071">
        <ele>942.53983128375</ele>
        <time>2021-11-02T14:18:45Z</time>
      </trkpt>
      <trkpt lat="43.89479" lon="7.57072">
        <ele>942.5398834102</ele>
        <time>2021-11-02T14:18:46Z</time>
      </trkpt>
      <trkpt lat="43.89478" lon="7.57075">
        <ele>941.54000060551</ele>
        <time>2021-11-02T14:18:48Z</time>
      </trkpt>
      <trkpt lat="43.89477" lon="7.57077">
        <ele>941.54006516599</ele>
        <time>2021-11-02T14:18:49Z</time>
      </trkpt>
      <trkpt lat="43.89476" lon="7.57078">
        <ele>941.54011503024</ele>
        <time>2021-11-02T14:18:50Z</time>
      </trkpt>
      <trkpt lat="43.89476" lon="7.57079">
        <ele>940.54013617379</ele>
        <time>2021-11-02T14:18:51Z</time>
      </trkpt>
      <trkpt lat="43.89476" lon="7.5708">
        <ele>940.54018954266</ele>
        <time>2021-11-02T14:18:52Z</time>
      </trkpt>
      <trkpt lat="43.89475" lon="7.57081">
        <ele>940.54025318917</ele>
        <time>2021-11-02T14:18:53Z</time>
      </trkpt>
      <trkpt lat="43.89474" lon="7.57082">
        <ele>940.54029646719</ele>
        <time>2021-11-02T14:18:54Z</time>
      </trkpt>
      <trkpt lat="43.89473" lon="7.57083">
        <ele>939.54037399905</ele>
        <time>2021-11-02T14:18:56Z</time>
      </trkpt>
      <trkpt lat="43.89473" lon="7.57084">
        <ele>939.54040432609</ele>
        <time>2021-11-02T14:18:57Z</time>
      </trkpt>
      <trkpt lat="43.89473" lon="7.57085">
        <ele>939.54044910895</ele>
        <time>2021-11-02T14:18:58Z</time>
      </trkpt>
      <trkpt lat="43.89472" lon="7.57086">
        <ele>939.54049607225</ele>
        <time>2021-11-02T14:18:59Z</time>
      </trkpt>
      <trkpt lat="43.89471" lon="7.57087">
        <ele>940.54056082168</ele>
        <time>2021-11-02T14:19:00Z</time>
      </trkpt>
      <trkpt lat="43.8947" lon="7.57087">
        <ele>940.54059029249</ele>
        <time>2021-11-02T14:19:01Z</time>
      </trkpt>
      <trkpt lat="43.8947" lon="7.57089">
        <ele>940.54063152596</ele>
        <time>2021-11-02T14:19:02Z</time>
      </trkpt>
      <trkpt lat="43.8947" lon="7.57089">
        <ele>939.54066325135</ele>
        <time>2021-11-02T14:19:03Z</time>
      </trkpt>
      <trkpt lat="43.89469" lon="7.5709">
        <ele>940.54072758563</ele>
        <time>2021-11-02T14:19:04Z</time>
      </trkpt>
      <trkpt lat="43.89468" lon="7.57091">
        <ele>939.54076551943</ele>
        <time>2021-11-02T14:19:05Z</time>
      </trkpt>
      <trkpt lat="43.89467" lon="7.57091">
        <ele>939.54080709337</ele>
        <time>2021-11-02T14:19:06Z</time>
      </trkpt>
      <trkpt lat="43.89466" lon="7.57092">
        <ele>939.5408716613</ele>
        <time>2021-11-02T14:19:07Z</time>
      </trkpt>
      <trkpt lat="43.89466" lon="7.57093">
        <ele>940.54092749728</ele>
        <time>2021-11-02T14:19:08Z</time>
      </trkpt>
      <trkpt lat="43.89465" lon="7.57094">
        <ele>940.54096338049</ele>
        <time>2021-11-02T14:19:09Z</time>
      </trkpt>
      <trkpt lat="43.89465" lon="7.57094">
        <ele>940.54099657844</ele>
        <time>2021-11-02T14:19:10Z</time>
      </trkpt>
      <trkpt lat="43.89464" lon="7.57095">
        <ele>939.54102707211</ele>
        <time>2021-11-02T14:19:11Z</time>
      </trkpt>
      <trkpt lat="43.89464" lon="7.57096">
        <ele>939.54105362807</ele>
        <time>2021-11-02T14:19:12Z</time>
      </trkpt>
      <trkpt lat="43.89463" lon="7.57097">
        <ele>939.54111835735</ele>
        <time>2021-11-02T14:19:13Z</time>
      </trkpt>
      <trkpt lat="43.89462" lon="7.57098">
        <ele>938.54117849994</ele>
        <time>2021-11-02T14:19:14Z</time>
      </trkpt>
      <trkpt lat="43.89462" lon="7.57098">
        <ele>938.54121984533</ele>
        <time>2021-11-02T14:19:15Z</time>
      </trkpt>
      <trkpt lat="43.89461" lon="7.57099">
        <ele>938.54127472918</ele>
        <time>2021-11-02T14:19:16Z</time>
      </trkpt>
      <trkpt lat="43.89458" lon="7.57101">
        <ele>937.54144370229</ele>
        <time>2021-11-02T14:19:18Z</time>
      </trkpt>
      <trkpt lat="43.89457" lon="7.57102">
        <ele>936.54153737577</ele>
        <time>2021-11-02T14:19:19Z</time>
      </trkpt>
      <trkpt lat="43.89456" lon="7.57103">
        <ele>935.54160630241</ele>
        <time>2021-11-02T14:19:20Z</time>
      </trkpt>
      <trkpt lat="43.89454" lon="7.57104">
        <ele>935.54170415122</ele>
        <time>2021-11-02T14:19:22Z</time>
      </trkpt>
      <trkpt lat="43.89454" lon="7.57105">
        <ele>934.54173961947</ele>
        <time>2021-11-02T14:19:23Z</time>
      </trkpt>
      <trkpt lat="43.89454" lon="7.57106">
        <ele>934.54174938253</ele>
        <time>2021-11-02T14:19:24Z</time>
      </trkpt>
      <trkpt lat="43.89452" lon="7.57107">
        <ele>932.54185884268</ele>
        <time>2021-11-02T14:19:26Z</time>
      </trkpt>
      <trkpt lat="43.89451" lon="7.57109">
        <ele>932.54194264109</ele>
        <time>2021-11-02T14:19:28Z</time>
      </trkpt>
      <trkpt lat="43.8945" lon="7.5711">
        <ele>932.54199220377</ele>
        <time>2021-11-02T14:19:29Z</time>
      </trkpt>
      <trkpt lat="43.8945" lon="7.5711">
        <ele>932.54204101802</ele>
        <time>2021-11-02T14:19:30Z</time>
      </trkpt>
      <trkpt lat="43.89449" lon="7.57112">
        <ele>932.54210491912</ele>
        <time>2021-11-02T14:19:31Z</time>
      </trkpt>
      <trkpt lat="43.89448" lon="7.57112">
        <ele>932.54213672647</ele>
        <time>2021-11-02T14:19:32Z</time>
      </trkpt>
      <trkpt lat="43.89448" lon="7.57114">
        <ele>932.54218448237</ele>
        <time>2021-11-02T14:19:33Z</time>
      </trkpt>
      <trkpt lat="43.89448" lon="7.57115">
        <ele>931.54221648285</ele>
        <time>2021-11-02T14:19:34Z</time>
      </trkpt>
      <trkpt lat="43.89447" lon="7.57116">
        <ele>932.54227999988</ele>
        <time>2021-11-02T14:19:35Z</time>
      </trkpt>
      <trkpt lat="43.89446" lon="7.57117">
        <ele>932.54234083091</ele>
        <time>2021-11-02T14:19:36Z</time>
      </trkpt>
      <trkpt lat="43.89445" lon="7.57118">
        <ele>931.54237930235</ele>
        <time>2021-11-02T14:19:37Z</time>
      </trkpt>
      <trkpt lat="43.89445" lon="7.57119">
        <ele>931.54243315404</ele>
        <time>2021-11-02T14:19:38Z</time>
      </trkpt>
      <trkpt lat="43.89444" lon="7.5712">
        <ele>931.54247719167</ele>
        <time>2021-11-02T14:19:39Z</time>
      </trkpt>
      <trkpt lat="43.89444" lon="7.57119">
        <ele>930.5424830674</ele>
        <time>2021-11-02T14:19:46Z</time>
      </trkpt>
      <trkpt lat="43.89443" lon="7.5712">
        <ele>930.54253566004</ele>
        <time>2021-11-02T14:19:48Z</time>
      </trkpt>
      <trkpt lat="43.89443" lon="7.5712">
        <ele>930.54254615348</ele>
        <time>2021-11-02T14:19:49Z</time>
      </trkpt>
      <trkpt lat="43.89441" lon="7.57122">
        <ele>930.5426660956</ele>
        <time>2021-11-02T14:19:51Z</time>
      </trkpt>
      <trkpt lat="43.8944" lon="7.57124">
        <ele>929.54278155887</ele>
        <time>2021-11-02T14:19:53Z</time>
      </trkpt>
      <trkpt lat="43.89439" lon="7.57125">
        <ele>929.54283541688</ele>
        <time>2021-11-02T14:19:54Z</time>
      </trkpt>
      <trkpt lat="43.89439" lon="7.57125">
        <ele>928.54285244046</ele>
        <time>2021-11-02T14:19:55Z</time>
      </trkpt>
      <trkpt lat="43.89438" lon="7.57125">
        <ele>927.54288234445</ele>
        <time>2021-11-02T14:19:57Z</time>
      </trkpt>
      <trkpt lat="43.89437" lon="7.57125">
        <ele>927.5429388073</ele>
        <time>2021-11-02T14:19:58Z</time>
      </trkpt>
      <trkpt lat="43.89437" lon="7.57125">
        <ele>927.5429388073</ele>
        <time>2021-11-02T14:20:00Z</time>
      </trkpt>
      <trkpt lat="43.89436" lon="7.57127">
        <ele>925.54302409549</ele>
        <time>2021-11-02T14:20:01Z</time>
      </trkpt>
      <trkpt lat="43.89435" lon="7.5713">
        <ele>925.54309435153</ele>
        <time>2021-11-02T14:20:03Z</time>
      </trkpt>
      <trkpt lat="43.89435" lon="7.5713">
        <ele>924.54313741341</ele>
        <time>2021-11-02T14:20:04Z</time>
      </trkpt>
      <trkpt lat="43.89434" lon="7.57131">
        <ele>924.54318980155</ele>
        <time>2021-11-02T14:20:05Z</time>
      </trkpt>
      <trkpt lat="43.89433" lon="7.57133">
        <ele>924.54327081985</ele>
        <time>2021-11-02T14:20:06Z</time>
      </trkpt>
      <trkpt lat="43.89433" lon="7.57134">
        <ele>924.54330450226</ele>
        <time>2021-11-02T14:20:07Z</time>
      </trkpt>
      <trkpt lat="43.89432" lon="7.57134">
        <ele>924.54332880306</ele>
        <time>2021-11-02T14:20:08Z</time>
      </trkpt>
      <trkpt lat="43.89432" lon="7.57135">
        <ele>924.5433673247</ele>
        <time>2021-11-02T14:20:09Z</time>
      </trkpt>
      <trkpt lat="43.89432" lon="7.57135">
        <ele>924.54339277796</ele>
        <time>2021-11-02T14:20:11Z</time>
      </trkpt>
      <trkpt lat="43.89431" lon="7.57136">
        <ele>924.54344188842</ele>
        <time>2021-11-02T14:20:12Z</time>
      </trkpt>
      <trkpt lat="43.8943" lon="7.57137">
        <ele>925.5435137134</ele>
        <time>2021-11-02T14:20:13Z</time>
      </trkpt>
      <trkpt lat="43.89429" lon="7.57139">
        <ele>925.54357525938</ele>
        <time>2021-11-02T14:20:14Z</time>
      </trkpt>
      <trkpt lat="43.89428" lon="7.5714">
        <ele>924.54363192014</ele>
        <time>2021-11-02T14:20:15Z</time>
      </trkpt>
      <trkpt lat="43.89428" lon="7.57141">
        <ele>924.5436504249</ele>
        <time>2021-11-02T14:20:16Z</time>
      </trkpt>
      <trkpt lat="43.89429" lon="7.57142">
        <ele>924.54364337189</ele>
        <time>2021-11-02T14:20:17Z</time>
      </trkpt>
      <trkpt lat="43.89429" lon="7.57143">
        <ele>924.54362499287</ele>
        <time>2021-11-02T14:20:18Z</time>
      </trkpt>
      <trkpt lat="43.8943" lon="7.57144">
        <ele>924.54363750697</ele>
        <time>2021-11-02T14:20:19Z</time>
      </trkpt>
      <trkpt lat="43.89429" lon="7.57144">
        <ele>923.5436526149</ele>
        <time>2021-11-02T14:20:20Z</time>
      </trkpt>
      <trkpt lat="43.8943" lon="7.57145">
        <ele>923.54365839063</ele>
        <time>2021-11-02T14:20:21Z</time>
      </trkpt>
      <trkpt lat="43.89429" lon="7.57146">
        <ele>922.54373623769</ele>
        <time>2021-11-02T14:20:22Z</time>
      </trkpt>
      <trkpt lat="43.89428" lon="7.57147">
        <ele>922.54379012378</ele>
        <time>2021-11-02T14:20:23Z</time>
      </trkpt>
      <trkpt lat="43.89427" lon="7.57148">
        <ele>922.54385646442</ele>
        <time>2021-11-02T14:20:24Z</time>
      </trkpt>
      <trkpt lat="43.89426" lon="7.57148">
        <ele>921.54391479303</ele>
        <time>2021-11-02T14:20:25Z</time>
      </trkpt>
      <trkpt lat="43.89424" lon="7.57149">
        <ele>920.54401928851</ele>
        <time>2021-11-02T14:20:27Z</time>
      </trkpt>
      <trkpt lat="43.89422" lon="7.57148">
        <ele>919.54411548366</ele>
        <time>2021-11-02T14:20:29Z</time>
      </trkpt>
      <trkpt lat="43.89421" lon="7.57148">
        <ele>919.54415784983</ele>
        <time>2021-11-02T14:20:30Z</time>
      </trkpt>
      <trkpt lat="43.8942" lon="7.57148">
        <ele>918.54418842025</ele>
        <time>2021-11-02T14:20:31Z</time>
      </trkpt>
      <trkpt lat="43.8942" lon="7.57149">
        <ele>917.54424552477</ele>
        <time>2021-11-02T14:20:32Z</time>
      </trkpt>
      <trkpt lat="43.89419" lon="7.5715">
        <ele>917.54430612717</ele>
        <time>2021-11-02T14:20:33Z</time>
      </trkpt>
      <trkpt lat="43.89418" lon="7.57151">
        <ele>916.5443504048</ele>
        <time>2021-11-02T14:20:34Z</time>
      </trkpt>
      <trkpt lat="43.89418" lon="7.57152">
        <ele>916.54437675411</ele>
        <time>2021-11-02T14:20:35Z</time>
      </trkpt>
      <trkpt lat="43.89418" lon="7.57153">
        <ele>917.5443955418</ele>
        <time>2021-11-02T14:20:36Z</time>
      </trkpt>
      <trkpt lat="43.89418" lon="7.57155">
        <ele>916.54442105974</ele>
        <time>2021-11-02T14:20:38Z</time>
      </trkpt>
      <trkpt lat="43.89418" lon="7.57156">
        <ele>915.54442597293</ele>
        <time>2021-11-02T14:20:39Z</time>
      </trkpt>
      <trkpt lat="43.89419" lon="7.57157">
        <ele>915.54443304269</ele>
        <time>2021-11-02T14:20:40Z</time>
      </trkpt>
      <trkpt lat="43.89418" lon="7.57158">
        <ele>914.54448602241</ele>
        <time>2021-11-02T14:20:41Z</time>
      </trkpt>
      <trkpt lat="43.89417" lon="7.57159">
        <ele>914.54453887828</ele>
        <time>2021-11-02T14:20:42Z</time>
      </trkpt>
      <trkpt lat="43.89416" lon="7.57159">
        <ele>914.54457818216</ele>
        <time>2021-11-02T14:20:43Z</time>
      </trkpt>
      <trkpt lat="43.89415" lon="7.57159">
        <ele>915.54464689041</ele>
        <time>2021-11-02T14:20:44Z</time>
      </trkpt>
      <trkpt lat="43.89414" lon="7.5716">
        <ele>914.54468567741</ele>
        <time>2021-11-02T14:20:45Z</time>
      </trkpt>
      <trkpt lat="43.89413" lon="7.57161">
        <ele>914.54479413688</ele>
        <time>2021-11-02T14:20:47Z</time>
      </trkpt>
      <trkpt lat="43.89412" lon="7.57162">
        <ele>915.54484729259</ele>
        <time>2021-11-02T14:20:48Z</time>
      </trkpt>
      <trkpt lat="43.89411" lon="7.57163">
        <ele>915.5448967827</ele>
        <time>2021-11-02T14:20:49Z</time>
      </trkpt>
      <trkpt lat="43.8941" lon="7.57165">
        <ele>915.54502119179</ele>
        <time>2021-11-02T14:20:51Z</time>
      </trkpt>
      <trkpt lat="43.89408" lon="7.57168">
        <ele>916.54514451421</ele>
        <time>2021-11-02T14:20:53Z</time>
      </trkpt>
      <trkpt lat="43.89408" lon="7.57169">
        <ele>915.54518483014</ele>
        <time>2021-11-02T14:20:54Z</time>
      </trkpt>
      <trkpt lat="43.89407" lon="7.5717">
        <ele>916.54523502297</ele>
        <time>2021-11-02T14:20:55Z</time>
      </trkpt>
      <trkpt lat="43.89406" lon="7.57171">
        <ele>916.5453324982</ele>
        <time>2021-11-02T14:20:57Z</time>
      </trkpt>
      <trkpt lat="43.89405" lon="7.57172">
        <ele>916.54538813664</ele>
        <time>2021-11-02T14:20:58Z</time>
      </trkpt>
      <trkpt lat="43.89404" lon="7.57173">
        <ele>916.54545854948</ele>
        <time>2021-11-02T14:20:59Z</time>
      </trkpt>
      <trkpt lat="43.89404" lon="7.57174">
        <ele>915.54548595645</ele>
        <time>2021-11-02T14:21:00Z</time>
      </trkpt>
      <trkpt lat="43.89403" lon="7.57174">
        <ele>915.54550438003</ele>
        <time>2021-11-02T14:21:01Z</time>
      </trkpt>
      <trkpt lat="43.89402" lon="7.57176">
        <ele>914.54557208038</ele>
        <time>2021-11-02T14:21:03Z</time>
      </trkpt>
      <trkpt lat="43.89402" lon="7.57177">
        <ele>913.54562077339</ele>
        <time>2021-11-02T14:21:04Z</time>
      </trkpt>
      <trkpt lat="43.89401" lon="7.57178">
        <ele>913.5456791371</ele>
        <time>2021-11-02T14:21:05Z</time>
      </trkpt>
      <trkpt lat="43.894" lon="7.57179">
        <ele>912.5457394785</ele>
        <time>2021-11-02T14:21:06Z</time>
      </trkpt>
      <trkpt lat="43.894" lon="7.57181">
        <ele>912.54578908467</ele>
        <time>2021-11-02T14:21:07Z</time>
      </trkpt>
      <trkpt lat="43.89399" lon="7.57182">
        <ele>912.54584602734</ele>
        <time>2021-11-02T14:21:08Z</time>
      </trkpt>
      <trkpt lat="43.89399" lon="7.57184">
        <ele>912.54591423302</ele>
        <time>2021-11-02T14:21:09Z</time>
      </trkpt>
      <trkpt lat="43.89397" lon="7.57185">
        <ele>912.54600534224</ele>
        <time>2021-11-02T14:21:10Z</time>
      </trkpt>
      <trkpt lat="43.89396" lon="7.57187">
        <ele>912.54609790395</ele>
        <time>2021-11-02T14:21:12Z</time>
      </trkpt>
      <trkpt lat="43.89396" lon="7.57189">
        <ele>912.54614608335</ele>
        <time>2021-11-02T14:21:13Z</time>
      </trkpt>
      <trkpt lat="43.89395" lon="7.5719">
        <ele>913.54620639247</ele>
        <time>2021-11-02T14:21:14Z</time>
      </trkpt>
      <trkpt lat="43.89394" lon="7.57191">
        <ele>913.54626130293</ele>
        <time>2021-11-02T14:21:15Z</time>
      </trkpt>
      <trkpt lat="43.89393" lon="7.57192">
        <ele>913.54633847342</ele>
        <time>2021-11-02T14:21:16Z</time>
      </trkpt>
      <trkpt lat="43.89392" lon="7.57193">
        <ele>913.54642996446</ele>
        <time>2021-11-02T14:21:17Z</time>
      </trkpt>
      <trkpt lat="43.89391" lon="7.57194">
        <ele>912.54647712753</ele>
        <time>2021-11-02T14:21:18Z</time>
      </trkpt>
      <trkpt lat="43.8939" lon="7.57194">
        <ele>912.54649804784</ele>
        <time>2021-11-02T14:21:19Z</time>
      </trkpt>
      <trkpt lat="43.89389" lon="7.57195">
        <ele>912.54656844507</ele>
        <time>2021-11-02T14:21:20Z</time>
      </trkpt>
      <trkpt lat="43.89389" lon="7.57196">
        <ele>912.54663211913</ele>
        <time>2021-11-02T14:21:21Z</time>
      </trkpt>
      <trkpt lat="43.89387" lon="7.57198">
        <ele>911.54676433401</ele>
        <time>2021-11-02T14:21:23Z</time>
      </trkpt>
      <trkpt lat="43.89387" lon="7.572">
        <ele>911.54680361134</ele>
        <time>2021-11-02T14:21:24Z</time>
      </trkpt>
      <trkpt lat="43.89386" lon="7.57201">
        <ele>911.54683767143</ele>
        <time>2021-11-02T14:21:25Z</time>
      </trkpt>
      <trkpt lat="43.89385" lon="7.57202">
        <ele>910.54691727156</ele>
        <time>2021-11-02T14:21:26Z</time>
      </trkpt>
      <trkpt lat="43.89384" lon="7.57204">
        <ele>909.54698180858</ele>
        <time>2021-11-02T14:21:27Z</time>
      </trkpt>
      <trkpt lat="43.89384" lon="7.57205">
        <ele>909.54703361462</ele>
        <time>2021-11-02T14:21:28Z</time>
      </trkpt>
      <trkpt lat="43.89383" lon="7.57207">
        <ele>909.54709548546</ele>
        <time>2021-11-02T14:21:29Z</time>
      </trkpt>
      <trkpt lat="43.89383" lon="7.57208">
        <ele>908.54714797349</ele>
        <time>2021-11-02T14:21:30Z</time>
      </trkpt>
      <trkpt lat="43.89382" lon="7.5721">
        <ele>909.54722832595</ele>
        <time>2021-11-02T14:21:31Z</time>
      </trkpt>
      <trkpt lat="43.89381" lon="7.57212">
        <ele>909.54729857216</ele>
        <time>2021-11-02T14:21:32Z</time>
      </trkpt>
      <trkpt lat="43.8938" lon="7.57213">
        <ele>908.54735486758</ele>
        <time>2021-11-02T14:21:33Z</time>
      </trkpt>
      <trkpt lat="43.89379" lon="7.57214">
        <ele>908.5474105318</ele>
        <time>2021-11-02T14:21:34Z</time>
      </trkpt>
      <trkpt lat="43.89378" lon="7.57217">
        <ele>908.54752675969</ele>
        <time>2021-11-02T14:21:36Z</time>
      </trkpt>
      <trkpt lat="43.89378" lon="7.57218">
        <ele>908.54757004261</ele>
        <time>2021-11-02T14:21:37Z</time>
      </trkpt>
      <trkpt lat="43.89377" lon="7.5722">
        <ele>908.54763481333</ele>
        <time>2021-11-02T14:21:38Z</time>
      </trkpt>
      <trkpt lat="43.89376" lon="7.57221">
        <ele>908.54769242946</ele>
        <time>2021-11-02T14:21:39Z</time>
      </trkpt>
      <trkpt lat="43.89375" lon="7.57222">
        <ele>907.54776387837</ele>
        <time>2021-11-02T14:21:40Z</time>
      </trkpt>
      <trkpt lat="43.89374" lon="7.57225">
        <ele>907.54789414431</ele>
        <time>2021-11-02T14:21:42Z</time>
      </trkpt>
      <trkpt lat="43.89373" lon="7.57226">
        <ele>907.54795086364</ele>
        <time>2021-11-02T14:21:43Z</time>
      </trkpt>
      <trkpt lat="43.89372" lon="7.57227">
        <ele>907.54802622051</ele>
        <time>2021-11-02T14:21:44Z</time>
      </trkpt>
      <trkpt lat="43.89371" lon="7.57228">
        <ele>906.54808965867</ele>
        <time>2021-11-02T14:21:45Z</time>
      </trkpt>
      <trkpt lat="43.8937" lon="7.57229">
        <ele>907.54815467681</ele>
        <time>2021-11-02T14:21:46Z</time>
      </trkpt>
      <trkpt lat="43.89368" lon="7.57231">
        <ele>906.54828166611</ele>
        <time>2021-11-02T14:21:48Z</time>
      </trkpt>
      <trkpt lat="43.89368" lon="7.57232">
        <ele>906.54831514527</ele>
        <time>2021-11-02T14:21:49Z</time>
      </trkpt>
      <trkpt lat="43.89368" lon="7.57233">
        <ele>906.54834640257</ele>
        <time>2021-11-02T14:21:50Z</time>
      </trkpt>
      <trkpt lat="43.89367" lon="7.57234">
        <ele>906.54838856864</ele>
        <time>2021-11-02T14:21:51Z</time>
      </trkpt>
      <trkpt lat="43.89367" lon="7.57235">
        <ele>905.54841541184</ele>
        <time>2021-11-02T14:21:52Z</time>
      </trkpt>
      <trkpt lat="43.89367" lon="7.57236">
        <ele>905.54845543247</ele>
        <time>2021-11-02T14:21:53Z</time>
      </trkpt>
      <trkpt lat="43.89366" lon="7.57237">
        <ele>904.54849201834</ele>
        <time>2021-11-02T14:21:54Z</time>
      </trkpt>
      <trkpt lat="43.89366" lon="7.57238">
        <ele>905.54852807536</ele>
        <time>2021-11-02T14:21:55Z</time>
      </trkpt>
      <trkpt lat="43.89365" lon="7.57239">
        <ele>904.5485699541</ele>
        <time>2021-11-02T14:21:56Z</time>
      </trkpt>
      <trkpt lat="43.89365" lon="7.5724">
        <ele>904.54861893723</ele>
        <time>2021-11-02T14:21:57Z</time>
      </trkpt>
      <trkpt lat="43.89364" lon="7.57241">
        <ele>904.54867285282</ele>
        <time>2021-11-02T14:21:58Z</time>
      </trkpt>
      <trkpt lat="43.89363" lon="7.57242">
        <ele>904.54874128761</ele>
        <time>2021-11-02T14:21:59Z</time>
      </trkpt>
      <trkpt lat="43.89362" lon="7.57243">
        <ele>904.54880305841</ele>
        <time>2021-11-02T14:22:00Z</time>
      </trkpt>
      <trkpt lat="43.89361" lon="7.57244">
        <ele>904.54887293121</ele>
        <time>2021-11-02T14:22:01Z</time>
      </trkpt>
      <trkpt lat="43.89361" lon="7.57245">
        <ele>904.54889598636</ele>
        <time>2021-11-02T14:22:02Z</time>
      </trkpt>
      <trkpt lat="43.8936" lon="7.57245">
        <ele>904.54891568759</ele>
        <time>2021-11-02T14:22:03Z</time>
      </trkpt>
      <trkpt lat="43.8936" lon="7.57245">
        <ele>905.54895749537</ele>
        <time>2021-11-02T14:22:04Z</time>
      </trkpt>
      <trkpt lat="43.89359" lon="7.57247">
        <ele>904.54899922554</ele>
        <time>2021-11-02T14:22:05Z</time>
      </trkpt>
      <trkpt lat="43.89357" lon="7.57249">
        <ele>905.54914569205</ele>
        <time>2021-11-02T14:22:07Z</time>
      </trkpt>
      <trkpt lat="43.89356" lon="7.5725">
        <ele>905.5492136298</ele>
        <time>2021-11-02T14:22:08Z</time>
      </trkpt>
      <trkpt lat="43.89355" lon="7.5725">
        <ele>905.54926166023</ele>
        <time>2021-11-02T14:22:09Z</time>
      </trkpt>
      <trkpt lat="43.89355" lon="7.57251">
        <ele>905.54930193914</ele>
        <time>2021-11-02T14:22:12Z</time>
      </trkpt>
      <trkpt lat="43.89355" lon="7.57252">
        <ele>905.54932093491</ele>
        <time>2021-11-02T14:22:14Z</time>
      </trkpt>
      <trkpt lat="43.89355" lon="7.57252">
        <ele>904.54929742681</ele>
        <time>2021-11-02T14:22:15Z</time>
      </trkpt>
      <trkpt lat="43.89356" lon="7.57253">
        <ele>903.54929203442</ele>
        <time>2021-11-02T14:22:16Z</time>
      </trkpt>
      <trkpt lat="43.89356" lon="7.57254">
        <ele>903.54928369113</ele>
        <time>2021-11-02T14:22:18Z</time>
      </trkpt>
      <trkpt lat="43.89356" lon="7.57254">
        <ele>903.54933006192</ele>
        <time>2021-11-02T14:22:19Z</time>
      </trkpt>
      <trkpt lat="43.89355" lon="7.57255">
        <ele>902.549377308</ele>
        <time>2021-11-02T14:22:20Z</time>
      </trkpt>
      <trkpt lat="43.89355" lon="7.57256">
        <ele>902.54940778054</ele>
        <time>2021-11-02T14:22:23Z</time>
      </trkpt>
      <trkpt lat="43.89355" lon="7.57259">
        <ele>901.54945751087</ele>
        <time>2021-11-02T14:22:24Z</time>
      </trkpt>
      <trkpt lat="43.89354" lon="7.5726">
        <ele>902.54948889832</ele>
        <time>2021-11-02T14:22:25Z</time>
      </trkpt>
      <trkpt lat="43.89355" lon="7.57261">
        <ele>902.54949575911</ele>
        <time>2021-11-02T14:22:26Z</time>
      </trkpt>
      <trkpt lat="43.89355" lon="7.57263">
        <ele>902.54951057173</ele>
        <time>2021-11-02T14:22:29Z</time>
      </trkpt>
      <trkpt lat="43.89355" lon="7.57265">
        <ele>900.54953756471</ele>
        <time>2021-11-02T14:22:30Z</time>
      </trkpt>
      <trkpt lat="43.89355" lon="7.57266">
        <ele>899.549541061</ele>
        <time>2021-11-02T14:22:38Z</time>
      </trkpt>
      <trkpt lat="43.89355" lon="7.57268">
        <ele>898.54960709163</ele>
        <time>2021-11-02T14:22:39Z</time>
      </trkpt>
      <trkpt lat="43.89355" lon="7.57269">
        <ele>898.54959063828</ele>
        <time>2021-11-02T14:22:40Z</time>
      </trkpt>
      <trkpt lat="43.89355" lon="7.57269">
        <ele>896.54963317777</ele>
        <time>2021-11-02T14:22:45Z</time>
      </trkpt>
      <trkpt lat="43.89354" lon="7.57273">
        <ele>894.54973734018</ele>
        <time>2021-11-02T14:22:46Z</time>
      </trkpt>
      <trkpt lat="43.89353" lon="7.57274">
        <ele>894.54977239102</ele>
        <time>2021-11-02T14:22:47Z</time>
      </trkpt>
      <trkpt lat="43.89353" lon="7.57275">
        <ele>894.54982072066</ele>
        <time>2021-11-02T14:22:48Z</time>
      </trkpt>
      <trkpt lat="43.89352" lon="7.57276">
        <ele>894.549902409</ele>
        <time>2021-11-02T14:22:49Z</time>
      </trkpt>
      <trkpt lat="43.8935" lon="7.57277">
        <ele>895.55000681655</ele>
        <time>2021-11-02T14:22:50Z</time>
      </trkpt>
      <trkpt lat="43.89348" lon="7.57279">
        <ele>895.55014763619</ele>
        <time>2021-11-02T14:22:52Z</time>
      </trkpt>
      <trkpt lat="43.89347" lon="7.57279">
        <ele>895.55020791327</ele>
        <time>2021-11-02T14:22:53Z</time>
      </trkpt>
      <trkpt lat="43.89346" lon="7.5728">
        <ele>896.55026456915</ele>
        <time>2021-11-02T14:22:54Z</time>
      </trkpt>
      <trkpt lat="43.89346" lon="7.57281">
        <ele>895.55029758488</ele>
        <time>2021-11-02T14:22:55Z</time>
      </trkpt>
      <trkpt lat="43.89345" lon="7.57282">
        <ele>894.55036590531</ele>
        <time>2021-11-02T14:22:57Z</time>
      </trkpt>
      <trkpt lat="43.89344" lon="7.57283">
        <ele>894.5503864858</ele>
        <time>2021-11-02T14:22:58Z</time>
      </trkpt>
      <trkpt lat="43.89344" lon="7.57284">
        <ele>894.55041105522</ele>
        <time>2021-11-02T14:22:59Z</time>
      </trkpt>
      <trkpt lat="43.89344" lon="7.57285">
        <ele>893.55046272832</ele>
        <time>2021-11-02T14:23:00Z</time>
      </trkpt>
      <trkpt lat="43.89341" lon="7.57287">
        <ele>892.55063902911</ele>
        <time>2021-11-02T14:23:02Z</time>
      </trkpt>
      <trkpt lat="43.8934" lon="7.57289">
        <ele>892.55071049685</ele>
        <time>2021-11-02T14:23:03Z</time>
      </trkpt>
      <trkpt lat="43.89339" lon="7.57291">
        <ele>892.55079379605</ele>
        <time>2021-11-02T14:23:04Z</time>
      </trkpt>
      <trkpt lat="43.89337" lon="7.57293">
        <ele>892.55095385387</ele>
        <time>2021-11-02T14:23:06Z</time>
      </trkpt>
      <trkpt lat="43.89336" lon="7.57295">
        <ele>893.55102686409</ele>
        <time>2021-11-02T14:23:07Z</time>
      </trkpt>
      <trkpt lat="43.89335" lon="7.57296">
        <ele>894.55108893935</ele>
        <time>2021-11-02T14:23:08Z</time>
      </trkpt>
      <trkpt lat="43.89334" lon="7.57295">
        <ele>894.55114622405</ele>
        <time>2021-11-02T14:23:09Z</time>
      </trkpt>
      <trkpt lat="43.89333" lon="7.57295">
        <ele>893.55118004635</ele>
        <time>2021-11-02T14:23:10Z</time>
      </trkpt>
      <trkpt lat="43.89333" lon="7.57295">
        <ele>893.55119932081</ele>
        <time>2021-11-02T14:23:11Z</time>
      </trkpt>
      <trkpt lat="43.89332" lon="7.57294">
        <ele>893.5512357287</ele>
        <time>2021-11-02T14:23:19Z</time>
      </trkpt>
      <trkpt lat="43.89331" lon="7.57295">
        <ele>893.55129793733</ele>
        <time>2021-11-02T14:23:20Z</time>
      </trkpt>
      <trkpt lat="43.89331" lon="7.57296">
        <ele>892.55133137666</ele>
        <time>2021-11-02T14:23:22Z</time>
      </trkpt>
      <trkpt lat="43.8933" lon="7.57297">
        <ele>891.55136111988</ele>
        <time>2021-11-02T14:23:26Z</time>
      </trkpt>
      <trkpt lat="43.8933" lon="7.57297">
        <ele>889.55134353525</ele>
        <time>2021-11-02T14:23:52Z</time>
      </trkpt>
      <trkpt lat="43.89331" lon="7.57296">
        <ele>889.5513054898</ele>
        <time>2021-11-02T14:26:45Z</time>
      </trkpt>
      <trkpt lat="43.89331" lon="7.57295">
        <ele>888.55127521832</ele>
        <time>2021-11-02T14:26:47Z</time>
      </trkpt>
      <trkpt lat="43.89331" lon="7.57294">
        <ele>888.55125151741</ele>
        <time>2021-11-02T14:26:48Z</time>
      </trkpt>
      <trkpt lat="43.89331" lon="7.57293">
        <ele>888.55124114608</ele>
        <time>2021-11-02T14:27:11Z</time>
      </trkpt>
      <trkpt lat="43.89331" lon="7.57292">
        <ele>888.55122792465</ele>
        <time>2021-11-02T14:27:24Z</time>
      </trkpt>
      <trkpt lat="43.89331" lon="7.57291">
        <ele>888.55123127579</ele>
        <time>2021-11-02T14:27:32Z</time>
      </trkpt>
      <trkpt lat="43.89331" lon="7.5729">
        <ele>890.55122849245</ele>
        <time>2021-11-02T14:27:38Z</time>
      </trkpt>
      <trkpt lat="43.89331" lon="7.5729">
        <ele>890.55119264091</ele>
        <time>2021-11-02T14:27:41Z</time>
      </trkpt>
      <trkpt lat="43.89329" lon="7.5729">
        <ele>890.5512785142</ele>
        <time>2021-11-02T14:27:43Z</time>
      </trkpt>
      <trkpt lat="43.8933" lon="7.57289">
        <ele>891.55125039056</ele>
        <time>2021-11-02T14:27:44Z</time>
      </trkpt>
      <trkpt lat="43.8933" lon="7.57288">
        <ele>890.55122718141</ele>
        <time>2021-11-02T14:27:46Z</time>
      </trkpt>
      <trkpt lat="43.8933" lon="7.5729">
        <ele>889.5512361404</ele>
        <time>2021-11-02T14:27:48Z</time>
      </trkpt>
      <trkpt lat="43.8933" lon="7.57291">
        <ele>889.55127899533</ele>
        <time>2021-11-02T14:27:49Z</time>
      </trkpt>
      <trkpt lat="43.8933" lon="7.57291">
        <ele>887.5512786941</ele>
        <time>2021-11-02T14:27:58Z</time>
      </trkpt>
      <trkpt lat="43.89329" lon="7.57291">
        <ele>887.55135169273</ele>
        <time>2021-11-02T14:27:59Z</time>
      </trkpt>
      <trkpt lat="43.89328" lon="7.57291">
        <ele>887.55138603663</ele>
        <time>2021-11-02T14:28:00Z</time>
      </trkpt>
      <trkpt lat="43.89327" lon="7.5729">
        <ele>886.55142167134</ele>
        <time>2021-11-02T14:28:01Z</time>
      </trkpt>
      <trkpt lat="43.89326" lon="7.57289">
        <ele>885.55142566543</ele>
        <time>2021-11-02T14:28:02Z</time>
      </trkpt>
      <trkpt lat="43.89326" lon="7.57288">
        <ele>885.55144079295</ele>
        <time>2021-11-02T14:28:03Z</time>
      </trkpt>
      <trkpt lat="43.89326" lon="7.57288">
        <ele>883.55145349142</ele>
        <time>2021-11-02T14:28:06Z</time>
      </trkpt>
      <trkpt lat="43.89325" lon="7.57287">
        <ele>883.55146739084</ele>
        <time>2021-11-02T14:28:07Z</time>
      </trkpt>
      <trkpt lat="43.89325" lon="7.57286">
        <ele>884.55145770122</ele>
        <time>2021-11-02T14:28:09Z</time>
      </trkpt>
      <trkpt lat="43.89325" lon="7.57286">
        <ele>884.55146664721</ele>
        <time>2021-11-02T14:28:10Z</time>
      </trkpt>
      <trkpt lat="43.89325" lon="7.57285">
        <ele>884.5514378742</ele>
        <time>2021-11-02T14:28:11Z</time>
      </trkpt>
      <trkpt lat="43.89325" lon="7.57283">
        <ele>884.55138953121</ele>
        <time>2021-11-02T14:28:12Z</time>
      </trkpt>
      <trkpt lat="43.89325" lon="7.57282">
        <ele>883.55134829906</ele>
        <time>2021-11-02T14:28:13Z</time>
      </trkpt>
      <trkpt lat="43.89326" lon="7.5728">
        <ele>883.55131342239</ele>
        <time>2021-11-02T14:28:14Z</time>
      </trkpt>
      <trkpt lat="43.89326" lon="7.57279">
        <ele>882.5512939992</ele>
        <time>2021-11-02T14:28:15Z</time>
      </trkpt>
      <trkpt lat="43.89326" lon="7.57278">
        <ele>882.55126898827</ele>
        <time>2021-11-02T14:28:16Z</time>
      </trkpt>
      <trkpt lat="43.89326" lon="7.57275">
        <ele>882.55122760053</ele>
        <time>2021-11-02T14:28:18Z</time>
      </trkpt>
      <trkpt lat="43.89326" lon="7.57273">
        <ele>882.55120210857</ele>
        <time>2021-11-02T14:28:19Z</time>
      </trkpt>
      <trkpt lat="43.89326" lon="7.57272">
        <ele>881.55118128096</ele>
        <time>2021-11-02T14:28:20Z</time>
      </trkpt>
      <trkpt lat="43.89325" lon="7.5727">
        <ele>880.55114822831</ele>
        <time>2021-11-02T14:28:21Z</time>
      </trkpt>
      <trkpt lat="43.89325" lon="7.57268">
        <ele>880.55115502686</ele>
        <time>2021-11-02T14:28:23Z</time>
      </trkpt>
      <trkpt lat="43.89325" lon="7.57267">
        <ele>878.55114316635</ele>
        <time>2021-11-02T14:28:25Z</time>
      </trkpt>
      <trkpt lat="43.89325" lon="7.57266">
        <ele>878.55111540605</ele>
        <time>2021-11-02T14:28:26Z</time>
      </trkpt>
      <trkpt lat="43.89325" lon="7.57265">
        <ele>877.55108099748</ele>
        <time>2021-11-02T14:28:27Z</time>
      </trkpt>
      <trkpt lat="43.89325" lon="7.57263">
        <ele>878.55105097192</ele>
        <time>2021-11-02T14:28:29Z</time>
      </trkpt>
      <trkpt lat="43.89325" lon="7.57263">
        <ele>878.55105097192</ele>
        <time>2021-11-02T14:28:30Z</time>
      </trkpt>
      <trkpt lat="43.89326" lon="7.5726">
        <ele>878.55098194019</ele>
        <time>2021-11-02T14:28:31Z</time>
      </trkpt>
      <trkpt lat="43.89327" lon="7.57258">
        <ele>878.55088138601</ele>
        <time>2021-11-02T14:28:33Z</time>
      </trkpt>
      <trkpt lat="43.89327" lon="7.57257">
        <ele>878.55086794971</ele>
        <time>2021-11-02T14:28:34Z</time>
      </trkpt>
      <trkpt lat="43.89327" lon="7.57256">
        <ele>878.55085415066</ele>
        <time>2021-11-02T14:28:35Z</time>
      </trkpt>
      <trkpt lat="43.89326" lon="7.57255">
        <ele>878.5508422375</ele>
        <time>2021-11-02T14:28:36Z</time>
      </trkpt>
      <trkpt lat="43.89327" lon="7.57253">
        <ele>878.55080213356</ele>
        <time>2021-11-02T14:28:37Z</time>
      </trkpt>
      <trkpt lat="43.89327" lon="7.57252">
        <ele>878.55078945933</ele>
        <time>2021-11-02T14:28:38Z</time>
      </trkpt>
      <trkpt lat="43.89327" lon="7.5725">
        <ele>878.5507591768</ele>
        <time>2021-11-02T14:28:39Z</time>
      </trkpt>
      <trkpt lat="43.89326" lon="7.57249">
        <ele>878.55074341309</ele>
        <time>2021-11-02T14:28:40Z</time>
      </trkpt>
      <trkpt lat="43.89326" lon="7.57247">
        <ele>878.55072449951</ele>
        <time>2021-11-02T14:28:41Z</time>
      </trkpt>
      <trkpt lat="43.89326" lon="7.57245">
        <ele>878.55068363853</ele>
        <time>2021-11-02T14:28:43Z</time>
      </trkpt>
      <trkpt lat="43.89326" lon="7.57243">
        <ele>878.550646975</ele>
        <time>2021-11-02T14:28:44Z</time>
      </trkpt>
      <trkpt lat="43.89327" lon="7.57241">
        <ele>878.55060441839</ele>
        <time>2021-11-02T14:28:45Z</time>
      </trkpt>
      <trkpt lat="43.89327" lon="7.5724">
        <ele>878.55057554724</ele>
        <time>2021-11-02T14:28:46Z</time>
      </trkpt>
      <trkpt lat="43.89327" lon="7.57237">
        <ele>879.55053299039</ele>
        <time>2021-11-02T14:28:48Z</time>
      </trkpt>
      <trkpt lat="43.89326" lon="7.57236">
        <ele>878.55053550121</ele>
        <time>2021-11-02T14:28:49Z</time>
      </trkpt>
      <trkpt lat="43.89326" lon="7.57235">
        <ele>878.55051256605</ele>
        <time>2021-11-02T14:28:50Z</time>
      </trkpt>
      <trkpt lat="43.89326" lon="7.57232">
        <ele>878.55046271415</ele>
        <time>2021-11-02T14:28:52Z</time>
      </trkpt>
      <trkpt lat="43.89327" lon="7.57231">
        <ele>878.55041733141</ele>
        <time>2021-11-02T14:28:54Z</time>
      </trkpt>
      <trkpt lat="43.89327" lon="7.57229">
        <ele>877.55038285675</ele>
        <time>2021-11-02T14:28:55Z</time>
      </trkpt>
      <trkpt lat="43.89327" lon="7.57227">
        <ele>877.5503203823</ele>
        <time>2021-11-02T14:28:56Z</time>
      </trkpt>
      <trkpt lat="43.89328" lon="7.57224">
        <ele>878.55022898963</ele>
        <time>2021-11-02T14:28:58Z</time>
      </trkpt>
      <trkpt lat="43.89329" lon="7.57223">
        <ele>877.55016489912</ele>
        <time>2021-11-02T14:28:59Z</time>
      </trkpt>
      <trkpt lat="43.8933" lon="7.57222">
        <ele>877.5501090672</ele>
        <time>2021-11-02T14:29:00Z</time>
      </trkpt>
      <trkpt lat="43.89331" lon="7.5722">
        <ele>878.55002929269</ele>
        <time>2021-11-02T14:29:02Z</time>
      </trkpt>
      <trkpt lat="43.89332" lon="7.57219">
        <ele>878.54995210424</ele>
        <time>2021-11-02T14:29:04Z</time>
      </trkpt>
      <trkpt lat="43.89333" lon="7.57218">
        <ele>878.54988702707</ele>
        <time>2021-11-02T14:29:05Z</time>
      </trkpt>
      <trkpt lat="43.89333" lon="7.57217">
        <ele>879.54983105035</ele>
        <time>2021-11-02T14:29:06Z</time>
      </trkpt>
      <trkpt lat="43.89335" lon="7.57214">
        <ele>878.54969854824</ele>
        <time>2021-11-02T14:29:08Z</time>
      </trkpt>
      <trkpt lat="43.89336" lon="7.57213">
        <ele>879.54963053086</ele>
        <time>2021-11-02T14:29:09Z</time>
      </trkpt>
      <trkpt lat="43.89337" lon="7.57211">
        <ele>879.54956462211</ele>
        <time>2021-11-02T14:29:10Z</time>
      </trkpt>
      <trkpt lat="43.89337" lon="7.5721">
        <ele>879.549516188</ele>
        <time>2021-11-02T14:29:11Z</time>
      </trkpt>
      <trkpt lat="43.89338" lon="7.57209">
        <ele>879.54947702215</ele>
        <time>2021-11-02T14:29:12Z</time>
      </trkpt>
      <trkpt lat="43.89338" lon="7.57207">
        <ele>879.54941806173</ele>
        <time>2021-11-02T14:29:13Z</time>
      </trkpt>
      <trkpt lat="43.89339" lon="7.57206">
        <ele>880.54934560777</ele>
        <time>2021-11-02T14:29:14Z</time>
      </trkpt>
      <trkpt lat="43.8934" lon="7.57205">
        <ele>880.54929393506</ele>
        <time>2021-11-02T14:29:15Z</time>
      </trkpt>
      <trkpt lat="43.8934" lon="7.57203">
        <ele>880.54925196399</ele>
        <time>2021-11-02T14:29:16Z</time>
      </trkpt>
      <trkpt lat="43.89341" lon="7.57202">
        <ele>880.54919603794</ele>
        <time>2021-11-02T14:29:17Z</time>
      </trkpt>
      <trkpt lat="43.89342" lon="7.57202">
        <ele>880.54915039117</ele>
        <time>2021-11-02T14:29:18Z</time>
      </trkpt>
      <trkpt lat="43.89342" lon="7.57201">
        <ele>879.54913860006</ele>
        <time>2021-11-02T14:29:19Z</time>
      </trkpt>
      <trkpt lat="43.89342" lon="7.572">
        <ele>880.54911070312</ele>
        <time>2021-11-02T14:29:20Z</time>
      </trkpt>
      <trkpt lat="43.89342" lon="7.57199">
        <ele>880.54908709136</ele>
        <time>2021-11-02T14:29:21Z</time>
      </trkpt>
      <trkpt lat="43.89342" lon="7.57198">
        <ele>880.54904925504</ele>
        <time>2021-11-02T14:29:22Z</time>
      </trkpt>
      <trkpt lat="43.89343" lon="7.57197">
        <ele>879.54900898066</ele>
        <time>2021-11-02T14:29:24Z</time>
      </trkpt>
      <trkpt lat="43.89343" lon="7.57196">
        <ele>879.54899497693</ele>
        <time>2021-11-02T14:29:26Z</time>
      </trkpt>
      <trkpt lat="43.89343" lon="7.57195">
        <ele>879.54898411923</ele>
        <time>2021-11-02T14:29:27Z</time>
      </trkpt>
      <trkpt lat="43.89343" lon="7.57195">
        <ele>879.54898411923</ele>
        <time>2021-11-02T14:29:30Z</time>
      </trkpt>
      <trkpt lat="43.89343" lon="7.57192">
        <ele>878.548910503</ele>
        <time>2021-11-02T14:29:32Z</time>
      </trkpt>
      <trkpt lat="43.89344" lon="7.57191">
        <ele>878.54883823452</ele>
        <time>2021-11-02T14:29:33Z</time>
      </trkpt>
      <trkpt lat="43.89344" lon="7.57189">
        <ele>879.54879512728</ele>
        <time>2021-11-02T14:29:34Z</time>
      </trkpt>
      <trkpt lat="43.89344" lon="7.57187">
        <ele>879.54876171914</ele>
        <time>2021-11-02T14:29:35Z</time>
      </trkpt>
      <trkpt lat="43.89345" lon="7.57186">
        <ele>879.54871507356</ele>
        <time>2021-11-02T14:29:36Z</time>
      </trkpt>
      <trkpt lat="43.89346" lon="7.57184">
        <ele>879.54863202012</ele>
        <time>2021-11-02T14:29:38Z</time>
      </trkpt>
      <trkpt lat="43.89346" lon="7.57182">
        <ele>879.54858435925</ele>
        <time>2021-11-02T14:29:39Z</time>
      </trkpt>
      <trkpt lat="43.89347" lon="7.57181">
        <ele>879.54852611504</ele>
        <time>2021-11-02T14:29:40Z</time>
      </trkpt>
      <trkpt lat="43.89347" lon="7.57178">
        <ele>879.54846056519</ele>
        <time>2021-11-02T14:29:42Z</time>
      </trkpt>
      <trkpt lat="43.89348" lon="7.57177">
        <ele>879.5483967414</ele>
        <time>2021-11-02T14:29:43Z</time>
      </trkpt>
      <trkpt lat="43.89348" lon="7.57176">
        <ele>879.54836991343</ele>
        <time>2021-11-02T14:29:44Z</time>
      </trkpt>
      <trkpt lat="43.89349" lon="7.57174">
        <ele>879.54831725249</ele>
        <time>2021-11-02T14:29:45Z</time>
      </trkpt>
      <trkpt lat="43.89349" lon="7.57172">
        <ele>879.54826501964</ele>
        <time>2021-11-02T14:29:46Z</time>
      </trkpt>
      <trkpt lat="43.8935" lon="7.5717">
        <ele>879.54815258813</ele>
        <time>2021-11-02T14:29:48Z</time>
      </trkpt>
      <trkpt lat="43.89351" lon="7.57168">
        <ele>879.54808859784</ele>
        <time>2021-11-02T14:29:49Z</time>
      </trkpt>
      <trkpt lat="43.89352" lon="7.57167">
        <ele>879.54801749587</ele>
        <time>2021-11-02T14:29:50Z</time>
      </trkpt>
      <trkpt lat="43.89353" lon="7.57166">
        <ele>879.54797178291</ele>
        <time>2021-11-02T14:29:51Z</time>
      </trkpt>
      <trkpt lat="43.89353" lon="7.57166">
        <ele>879.54795951565</ele>
        <time>2021-11-02T14:29:52Z</time>
      </trkpt>
      <trkpt lat="43.89354" lon="7.57164">
        <ele>878.54788989999</ele>
        <time>2021-11-02T14:29:54Z</time>
      </trkpt>
      <trkpt lat="43.89354" lon="7.57162">
        <ele>878.54783515415</ele>
        <time>2021-11-02T14:29:55Z</time>
      </trkpt>
      <trkpt lat="43.89355" lon="7.57161">
        <ele>878.54778448484</ele>
        <time>2021-11-02T14:29:56Z</time>
      </trkpt>
      <trkpt lat="43.89357" lon="7.5716">
        <ele>877.54765837491</ele>
        <time>2021-11-02T14:29:58Z</time>
      </trkpt>
      <trkpt lat="43.89358" lon="7.57158">
        <ele>877.54758230521</ele>
        <time>2021-11-02T14:29:59Z</time>
      </trkpt>
      <trkpt lat="43.89358" lon="7.57157">
        <ele>877.54751568749</ele>
        <time>2021-11-02T14:30:00Z</time>
      </trkpt>
      <trkpt lat="43.89359" lon="7.57155">
        <ele>877.54746380204</ele>
        <time>2021-11-02T14:30:01Z</time>
      </trkpt>
      <trkpt lat="43.89359" lon="7.57155">
        <ele>877.54744080277</ele>
        <time>2021-11-02T14:30:02Z</time>
      </trkpt>
      <trkpt lat="43.89359" lon="7.57153">
        <ele>876.54743912429</ele>
        <time>2021-11-02T14:30:04Z</time>
      </trkpt>
      <trkpt lat="43.89359" lon="7.57152">
        <ele>876.54741468169</ele>
        <time>2021-11-02T14:30:05Z</time>
      </trkpt>
      <trkpt lat="43.89359" lon="7.5715">
        <ele>877.54739465056</ele>
        <time>2021-11-02T14:30:06Z</time>
      </trkpt>
      <trkpt lat="43.89358" lon="7.5715">
        <ele>877.547407555</ele>
        <time>2021-11-02T14:30:07Z</time>
      </trkpt>
      <trkpt lat="43.89358" lon="7.57149">
        <ele>877.54739402094</ele>
        <time>2021-11-02T14:30:08Z</time>
      </trkpt>
      <trkpt lat="43.89357" lon="7.57147">
        <ele>877.54742056551</ele>
        <time>2021-11-02T14:30:09Z</time>
      </trkpt>
      <trkpt lat="43.89357" lon="7.57146">
        <ele>877.5474125845</ele>
        <time>2021-11-02T14:30:10Z</time>
      </trkpt>
      <trkpt lat="43.89357" lon="7.57145">
        <ele>877.54741353881</ele>
        <time>2021-11-02T14:30:12Z</time>
      </trkpt>
      <trkpt lat="43.89356" lon="7.57144">
        <ele>876.54743365315</ele>
        <time>2021-11-02T14:30:13Z</time>
      </trkpt>
      <trkpt lat="43.89355" lon="7.57144">
        <ele>877.5474706624</ele>
        <time>2021-11-02T14:30:14Z</time>
      </trkpt>
      <trkpt lat="43.89354" lon="7.57143">
        <ele>877.54748741755</ele>
        <time>2021-11-02T14:30:15Z</time>
      </trkpt>
      <trkpt lat="43.89354" lon="7.57142">
        <ele>877.54750087917</ele>
        <time>2021-11-02T14:30:16Z</time>
      </trkpt>
      <trkpt lat="43.89353" lon="7.57141">
        <ele>878.54750531959</ele>
        <time>2021-11-02T14:30:17Z</time>
      </trkpt>
      <trkpt lat="43.89353" lon="7.57139">
        <ele>878.54751056865</ele>
        <time>2021-11-02T14:30:18Z</time>
      </trkpt>
      <trkpt lat="43.89352" lon="7.57138">
        <ele>878.54751042505</ele>
        <time>2021-11-02T14:30:19Z</time>
      </trkpt>
      <trkpt lat="43.89352" lon="7.57137">
        <ele>878.54753016527</ele>
        <time>2021-11-02T14:30:20Z</time>
      </trkpt>
      <trkpt lat="43.89351" lon="7.57136">
        <ele>877.54752962914</ele>
        <time>2021-11-02T14:30:22Z</time>
      </trkpt>
      <trkpt lat="43.89351" lon="7.57135">
        <ele>877.54753409282</ele>
        <time>2021-11-02T14:30:23Z</time>
      </trkpt>
      <trkpt lat="43.89351" lon="7.57134">
        <ele>877.54752980864</ele>
        <time>2021-11-02T14:30:24Z</time>
      </trkpt>
      <trkpt lat="43.8935" lon="7.57133">
        <ele>877.54753228341</ele>
        <time>2021-11-02T14:30:25Z</time>
      </trkpt>
      <trkpt lat="43.89349" lon="7.57132">
        <ele>876.54756092959</ele>
        <time>2021-11-02T14:30:26Z</time>
      </trkpt>
      <trkpt lat="43.89349" lon="7.5713">
        <ele>876.54753693924</ele>
        <time>2021-11-02T14:30:27Z</time>
      </trkpt>
      <trkpt lat="43.89349" lon="7.57128">
        <ele>876.54752502072</ele>
        <time>2021-11-02T14:30:28Z</time>
      </trkpt>
      <trkpt lat="43.89349" lon="7.57127">
        <ele>876.5475009481</ele>
        <time>2021-11-02T14:30:29Z</time>
      </trkpt>
      <trkpt lat="43.89349" lon="7.57125">
        <ele>876.54745921824</ele>
        <time>2021-11-02T14:30:30Z</time>
      </trkpt>
      <trkpt lat="43.8935" lon="7.57123">
        <ele>875.5473508449</ele>
        <time>2021-11-02T14:30:32Z</time>
      </trkpt>
      <trkpt lat="43.89352" lon="7.5712">
        <ele>874.54722992901</ele>
        <time>2021-11-02T14:30:34Z</time>
      </trkpt>
      <trkpt lat="43.89353" lon="7.57119">
        <ele>874.54718035066</ele>
        <time>2021-11-02T14:30:35Z</time>
      </trkpt>
      <trkpt lat="43.89353" lon="7.57118">
        <ele>874.54713066015</ele>
        <time>2021-11-02T14:30:36Z</time>
      </trkpt>
      <trkpt lat="43.89354" lon="7.57117">
        <ele>874.54706120288</ele>
        <time>2021-11-02T14:30:37Z</time>
      </trkpt>
      <trkpt lat="43.89355" lon="7.57116">
        <ele>873.54701716302</ele>
        <time>2021-11-02T14:30:38Z</time>
      </trkpt>
      <trkpt lat="43.89355" lon="7.57114">
        <ele>873.54698225152</ele>
        <time>2021-11-02T14:30:39Z</time>
      </trkpt>
      <trkpt lat="43.89355" lon="7.57113">
        <ele>872.54695518001</ele>
        <time>2021-11-02T14:30:40Z</time>
      </trkpt>
      <trkpt lat="43.89355" lon="7.57112">
        <ele>872.5469579029</ele>
        <time>2021-11-02T14:30:41Z</time>
      </trkpt>
      <trkpt lat="43.89354" lon="7.5711">
        <ele>872.54694189829</ele>
        <time>2021-11-02T14:30:43Z</time>
      </trkpt>
      <trkpt lat="43.89354" lon="7.57108">
        <ele>872.54693023255</ele>
        <time>2021-11-02T14:30:44Z</time>
      </trkpt>
      <trkpt lat="43.89352" lon="7.57106">
        <ele>872.54697845395</ele>
        <time>2021-11-02T14:30:45Z</time>
      </trkpt>
      <trkpt lat="43.89351" lon="7.57104">
        <ele>872.54702680547</ele>
        <time>2021-11-02T14:30:47Z</time>
      </trkpt>
      <trkpt lat="43.89351" lon="7.57102">
        <ele>872.54697549794</ele>
        <time>2021-11-02T14:30:49Z</time>
      </trkpt>
      <trkpt lat="43.89351" lon="7.57101">
        <ele>872.54695290835</ele>
        <time>2021-11-02T14:30:50Z</time>
      </trkpt>
      <trkpt lat="43.89351" lon="7.571">
        <ele>872.54692578647</ele>
        <time>2021-11-02T14:30:51Z</time>
      </trkpt>
      <trkpt lat="43.89351" lon="7.57099">
        <ele>872.54690339385</ele>
        <time>2021-11-02T14:30:52Z</time>
      </trkpt>
      <trkpt lat="43.89351" lon="7.57097">
        <ele>872.54687570443</ele>
        <time>2021-11-02T14:30:53Z</time>
      </trkpt>
      <trkpt lat="43.89351" lon="7.57095">
        <ele>871.54686830532</ele>
        <time>2021-11-02T14:30:54Z</time>
      </trkpt>
      <trkpt lat="43.8935" lon="7.57094">
        <ele>872.54687163326</ele>
        <time>2021-11-02T14:30:55Z</time>
      </trkpt>
      <trkpt lat="43.8935" lon="7.57091">
        <ele>872.54685799795</ele>
        <time>2021-11-02T14:30:57Z</time>
      </trkpt>
      <trkpt lat="43.8935" lon="7.57087">
        <ele>872.54678985341</ele>
        <time>2021-11-02T14:30:59Z</time>
      </trkpt>
      <trkpt lat="43.8935" lon="7.57086">
        <ele>872.54676587729</ele>
        <time>2021-11-02T14:31:00Z</time>
      </trkpt>
      <trkpt lat="43.89349" lon="7.57084">
        <ele>872.54674091144</ele>
        <time>2021-11-02T14:31:01Z</time>
      </trkpt>
      <trkpt lat="43.8935" lon="7.57081">
        <ele>873.54665874419</ele>
        <time>2021-11-02T14:31:03Z</time>
      </trkpt>
      <trkpt lat="43.8935" lon="7.57079">
        <ele>873.54664972554</ele>
        <time>2021-11-02T14:31:04Z</time>
      </trkpt>
      <trkpt lat="43.8935" lon="7.57078">
        <ele>873.54660347983</ele>
        <time>2021-11-02T14:31:05Z</time>
      </trkpt>
      <trkpt lat="43.89351" lon="7.57078">
        <ele>873.54657284916</ele>
        <time>2021-11-02T14:31:10Z</time>
      </trkpt>
      <trkpt lat="43.89352" lon="7.57076">
        <ele>873.54649623756</ele>
        <time>2021-11-02T14:31:11Z</time>
      </trkpt>
      <trkpt lat="43.89351" lon="7.57075">
        <ele>872.54648025525</ele>
        <time>2021-11-02T14:31:12Z</time>
      </trkpt>
      <trkpt lat="43.89352" lon="7.57073">
        <ele>872.54644094881</ele>
        <time>2021-11-02T14:31:14Z</time>
      </trkpt>
      <trkpt lat="43.89352" lon="7.57072">
        <ele>872.54640407825</ele>
        <time>2021-11-02T14:31:16Z</time>
      </trkpt>
      <trkpt lat="43.89352" lon="7.57071">
        <ele>872.54640246508</ele>
        <time>2021-11-02T14:31:18Z</time>
      </trkpt>
      <trkpt lat="43.89351" lon="7.57071">
        <ele>871.5464352283</ele>
        <time>2021-11-02T14:31:20Z</time>
      </trkpt>
      <trkpt lat="43.8935" lon="7.57071">
        <ele>872.54645867858</ele>
        <time>2021-11-02T14:31:21Z</time>
      </trkpt>
      <trkpt lat="43.8935" lon="7.5707">
        <ele>872.54649561241</ele>
        <time>2021-11-02T14:31:25Z</time>
      </trkpt>
      <trkpt lat="43.89348" lon="7.5707">
        <ele>872.54658499686</ele>
        <time>2021-11-02T14:31:26Z</time>
      </trkpt>
      <trkpt lat="43.89347" lon="7.57069">
        <ele>872.5466100081</ele>
        <time>2021-11-02T14:31:27Z</time>
      </trkpt>
      <trkpt lat="43.89347" lon="7.57068">
        <ele>871.54657397786</ele>
        <time>2021-11-02T14:31:28Z</time>
      </trkpt>
      <trkpt lat="43.89348" lon="7.57066">
        <ele>871.54647819418</ele>
        <time>2021-11-02T14:31:29Z</time>
      </trkpt>
      <trkpt lat="43.89349" lon="7.57065">
        <ele>871.54642741765</ele>
        <time>2021-11-02T14:31:30Z</time>
      </trkpt>
      <trkpt lat="43.8935" lon="7.57064">
        <ele>871.54639363587</ele>
        <time>2021-11-02T14:31:32Z</time>
      </trkpt>
      <trkpt lat="43.89349" lon="7.57063">
        <ele>871.54638552736</ele>
        <time>2021-11-02T14:31:34Z</time>
      </trkpt>
      <trkpt lat="43.8935" lon="7.57062">
        <ele>872.54633880521</ele>
        <time>2021-11-02T14:31:35Z</time>
      </trkpt>
      <trkpt lat="43.8935" lon="7.57061">
        <ele>872.54630960565</ele>
        <time>2021-11-02T14:31:36Z</time>
      </trkpt>
      <trkpt lat="43.8935" lon="7.57059">
        <ele>871.54627606834</ele>
        <time>2021-11-02T14:31:38Z</time>
      </trkpt>
      <trkpt lat="43.89349" lon="7.57057">
        <ele>871.54628625938</ele>
        <time>2021-11-02T14:31:39Z</time>
      </trkpt>
      <trkpt lat="43.89349" lon="7.57058">
        <ele>870.54633674466</ele>
        <time>2021-11-02T14:31:42Z</time>
      </trkpt>
      <trkpt lat="43.89348" lon="7.57058">
        <ele>869.54637980955</ele>
        <time>2021-11-02T14:31:44Z</time>
      </trkpt>
      <trkpt lat="43.89348" lon="7.57057">
        <ele>868.5463251335</ele>
        <time>2021-11-02T14:31:45Z</time>
      </trkpt>
      <trkpt lat="43.89349" lon="7.57055">
        <ele>868.54625959735</ele>
        <time>2021-11-02T14:31:46Z</time>
      </trkpt>
      <trkpt lat="43.8935" lon="7.57053">
        <ele>867.54619850931</ele>
        <time>2021-11-02T14:31:48Z</time>
      </trkpt>
      <trkpt lat="43.8935" lon="7.57052">
        <ele>866.5461819624</ele>
        <time>2021-11-02T14:31:49Z</time>
      </trkpt>
      <trkpt lat="43.8935" lon="7.5705">
        <ele>866.54614485798</ele>
        <time>2021-11-02T14:31:50Z</time>
      </trkpt>
      <trkpt lat="43.8935" lon="7.5705">
        <ele>867.546113788</ele>
        <time>2021-11-02T14:31:51Z</time>
      </trkpt>
      <trkpt lat="43.8935" lon="7.57048">
        <ele>864.54609182619</ele>
        <time>2021-11-02T14:31:53Z</time>
      </trkpt>
      <trkpt lat="43.8935" lon="7.57047">
        <ele>864.54607911591</ele>
        <time>2021-11-02T14:31:54Z</time>
      </trkpt>
      <trkpt lat="43.8935" lon="7.57047">
        <ele>863.54606718534</ele>
        <time>2021-11-02T14:31:57Z</time>
      </trkpt>
      <trkpt lat="43.89351" lon="7.57044">
        <ele>862.5459877989</ele>
        <time>2021-11-02T14:31:59Z</time>
      </trkpt>
      <trkpt lat="43.89351" lon="7.57043">
        <ele>862.54596035258</ele>
        <time>2021-11-02T14:32:04Z</time>
      </trkpt>
      <trkpt lat="43.89352" lon="7.57042">
        <ele>862.54592051067</ele>
        <time>2021-11-02T14:32:06Z</time>
      </trkpt>
      <trkpt lat="43.89352" lon="7.57042">
        <ele>863.54591415637</ele>
        <time>2021-11-02T14:32:21Z</time>
      </trkpt>
      <trkpt lat="43.89351" lon="7.57041">
        <ele>862.54594475937</ele>
        <time>2021-11-02T14:32:23Z</time>
      </trkpt>
      <trkpt lat="43.89351" lon="7.5704">
        <ele>862.54592857606</ele>
        <time>2021-11-02T14:32:24Z</time>
      </trkpt>
      <trkpt lat="43.8935" lon="7.57039">
        <ele>862.54592474424</ele>
        <time>2021-11-02T14:32:25Z</time>
      </trkpt>
      <trkpt lat="43.89351" lon="7.57038">
        <ele>862.54588746637</ele>
        <time>2021-11-02T14:32:27Z</time>
      </trkpt>
      <trkpt lat="43.89352" lon="7.57036">
        <ele>862.54577171424</ele>
        <time>2021-11-02T14:32:29Z</time>
      </trkpt>
      <trkpt lat="43.89353" lon="7.57035">
        <ele>861.5457059063</ele>
        <time>2021-11-02T14:32:30Z</time>
      </trkpt>
      <trkpt lat="43.89354" lon="7.57034">
        <ele>861.54565890949</ele>
        <time>2021-11-02T14:32:31Z</time>
      </trkpt>
      <trkpt lat="43.89354" lon="7.57032">
        <ele>860.54561152967</ele>
        <time>2021-11-02T14:32:32Z</time>
      </trkpt>
      <trkpt lat="43.89354" lon="7.57031">
        <ele>860.54559531818</ele>
        <time>2021-11-02T14:32:33Z</time>
      </trkpt>
      <trkpt lat="43.89354" lon="7.57029">
        <ele>859.54555861124</ele>
        <time>2021-11-02T14:32:34Z</time>
      </trkpt>
      <trkpt lat="43.89354" lon="7.57029">
        <ele>859.54554760688</ele>
        <time>2021-11-02T14:32:35Z</time>
      </trkpt>
      <trkpt lat="43.89355" lon="7.57028">
        <ele>859.54550729127</ele>
        <time>2021-11-02T14:32:36Z</time>
      </trkpt>
      <trkpt lat="43.89355" lon="7.57026">
        <ele>859.54544052398</ele>
        <time>2021-11-02T14:32:37Z</time>
      </trkpt>
      <trkpt lat="43.89356" lon="7.57024">
        <ele>859.545397616</ele>
        <time>2021-11-02T14:32:38Z</time>
      </trkpt>
      <trkpt lat="43.89356" lon="7.57022">
        <ele>859.54536073547</ele>
        <time>2021-11-02T14:32:39Z</time>
      </trkpt>
      <trkpt lat="43.89356" lon="7.57021">
        <ele>859.54533232726</ele>
        <time>2021-11-02T14:32:40Z</time>
      </trkpt>
      <trkpt lat="43.89356" lon="7.57019">
        <ele>859.54528267508</ele>
        <time>2021-11-02T14:32:41Z</time>
      </trkpt>
      <trkpt lat="43.89357" lon="7.57017">
        <ele>858.54523658879</ele>
        <time>2021-11-02T14:32:42Z</time>
      </trkpt>
      <trkpt lat="43.89357" lon="7.57016">
        <ele>858.54517254775</ele>
        <time>2021-11-02T14:32:43Z</time>
      </trkpt>
      <trkpt lat="43.89358" lon="7.57014">
        <ele>858.54509913336</ele>
        <time>2021-11-02T14:32:44Z</time>
      </trkpt>
      <trkpt lat="43.89359" lon="7.57013">
        <ele>858.54503723371</ele>
        <time>2021-11-02T14:32:45Z</time>
      </trkpt>
      <trkpt lat="43.89359" lon="7.57012">
        <ele>857.54499463445</ele>
        <time>2021-11-02T14:32:46Z</time>
      </trkpt>
      <trkpt lat="43.8936" lon="7.57011">
        <ele>857.54495446378</ele>
        <time>2021-11-02T14:32:47Z</time>
      </trkpt>
      <trkpt lat="43.89361" lon="7.5701">
        <ele>856.54490964061</ele>
        <time>2021-11-02T14:32:48Z</time>
      </trkpt>
      <trkpt lat="43.89361" lon="7.57009">
        <ele>856.54487713392</ele>
        <time>2021-11-02T14:32:49Z</time>
      </trkpt>
      <trkpt lat="43.89361" lon="7.57008">
        <ele>856.54483676252</ele>
        <time>2021-11-02T14:32:50Z</time>
      </trkpt>
      <trkpt lat="43.89362" lon="7.57007">
        <ele>856.5447926186</ele>
        <time>2021-11-02T14:32:52Z</time>
      </trkpt>
      <trkpt lat="43.89361" lon="7.57005">
        <ele>856.54479045753</ele>
        <time>2021-11-02T14:32:54Z</time>
      </trkpt>
      <trkpt lat="43.89361" lon="7.57004">
        <ele>856.54477670414</ele>
        <time>2021-11-02T14:32:55Z</time>
      </trkpt>
      <trkpt lat="43.89361" lon="7.57004">
        <ele>856.54479611711</ele>
        <time>2021-11-02T14:32:56Z</time>
      </trkpt>
      <trkpt lat="43.8936" lon="7.57003">
        <ele>856.54483056294</ele>
        <time>2021-11-02T14:32:57Z</time>
      </trkpt>
      <trkpt lat="43.89359" lon="7.57002">
        <ele>855.54486005045</ele>
        <time>2021-11-02T14:32:58Z</time>
      </trkpt>
      <trkpt lat="43.89358" lon="7.57002">
        <ele>856.54487639179</ele>
        <time>2021-11-02T14:32:59Z</time>
      </trkpt>
      <trkpt lat="43.89358" lon="7.57001">
        <ele>855.54490232983</ele>
        <time>2021-11-02T14:33:00Z</time>
      </trkpt>
      <trkpt lat="43.89357" lon="7.56999">
        <ele>855.54490924337</ele>
        <time>2021-11-02T14:33:01Z</time>
      </trkpt>
      <trkpt lat="43.89356" lon="7.56997">
        <ele>855.54492521643</ele>
        <time>2021-11-02T14:33:03Z</time>
      </trkpt>
      <trkpt lat="43.89355" lon="7.56996">
        <ele>855.54496849764</ele>
        <time>2021-11-02T14:33:04Z</time>
      </trkpt>
      <trkpt lat="43.89354" lon="7.56995">
        <ele>855.54499391074</ele>
        <time>2021-11-02T14:33:05Z</time>
      </trkpt>
      <trkpt lat="43.89353" lon="7.56994">
        <ele>855.54504080129</ele>
        <time>2021-11-02T14:33:07Z</time>
      </trkpt>
      <trkpt lat="43.89351" lon="7.56991">
        <ele>855.54506282429</ele>
        <time>2021-11-02T14:33:09Z</time>
      </trkpt>
      <trkpt lat="43.89351" lon="7.56991">
        <ele>855.54509344038</ele>
        <time>2021-11-02T14:33:10Z</time>
      </trkpt>
      <trkpt lat="43.8935" lon="7.56989">
        <ele>855.54509147226</ele>
        <time>2021-11-02T14:33:11Z</time>
      </trkpt>
      <trkpt lat="43.89348" lon="7.56988">
        <ele>855.54516835578</ele>
        <time>2021-11-02T14:33:13Z</time>
      </trkpt>
      <trkpt lat="43.89347" lon="7.56987">
        <ele>855.5452144814</ele>
        <time>2021-11-02T14:33:14Z</time>
      </trkpt>
      <trkpt lat="43.89346" lon="7.56986">
        <ele>855.54525896668</ele>
        <time>2021-11-02T14:33:15Z</time>
      </trkpt>
      <trkpt lat="43.89345" lon="7.56985">
        <ele>856.54531309463</ele>
        <time>2021-11-02T14:33:16Z</time>
      </trkpt>
      <trkpt lat="43.89343" lon="7.56983">
        <ele>856.5453580078</ele>
        <time>2021-11-02T14:33:18Z</time>
      </trkpt>
      <trkpt lat="43.89342" lon="7.56983">
        <ele>857.54541498532</ele>
        <time>2021-11-02T14:33:19Z</time>
      </trkpt>
      <trkpt lat="43.8934" lon="7.56984">
        <ele>856.54549776711</ele>
        <time>2021-11-02T14:33:20Z</time>
      </trkpt>
      <trkpt lat="43.89339" lon="7.56984">
        <ele>856.54555824685</ele>
        <time>2021-11-02T14:33:21Z</time>
      </trkpt>
      <trkpt lat="43.89338" lon="7.56983">
        <ele>857.54560735899</ele>
        <time>2021-11-02T14:33:22Z</time>
      </trkpt>
      <trkpt lat="43.89337" lon="7.56983">
        <ele>857.54565940171</ele>
        <time>2021-11-02T14:33:23Z</time>
      </trkpt>
      <trkpt lat="43.89336" lon="7.56982">
        <ele>856.54569885929</ele>
        <time>2021-11-02T14:33:24Z</time>
      </trkpt>
      <trkpt lat="43.89335" lon="7.56982">
        <ele>856.5457539013</ele>
        <time>2021-11-02T14:33:25Z</time>
      </trkpt>
      <trkpt lat="43.89334" lon="7.56981">
        <ele>856.54577970069</ele>
        <time>2021-11-02T14:33:26Z</time>
      </trkpt>
      <trkpt lat="43.89333" lon="7.56981">
        <ele>856.54583001855</ele>
        <time>2021-11-02T14:33:27Z</time>
      </trkpt>
      <trkpt lat="43.89332" lon="7.5698">
        <ele>856.54586867721</ele>
        <time>2021-11-02T14:33:28Z</time>
      </trkpt>
      <trkpt lat="43.89331" lon="7.56978">
        <ele>856.54586014787</ele>
        <time>2021-11-02T14:33:29Z</time>
      </trkpt>
      <trkpt lat="43.89331" lon="7.56976">
        <ele>856.54584932551</ele>
        <time>2021-11-02T14:33:30Z</time>
      </trkpt>
      <trkpt lat="43.8933" lon="7.56974">
        <ele>855.54584228953</ele>
        <time>2021-11-02T14:33:31Z</time>
      </trkpt>
      <trkpt lat="43.8933" lon="7.56973">
        <ele>855.5458308234</ele>
        <time>2021-11-02T14:33:32Z</time>
      </trkpt>
      <trkpt lat="43.89329" lon="7.56972">
        <ele>854.54588755798</ele>
        <time>2021-11-02T14:33:34Z</time>
      </trkpt>
      <trkpt lat="43.89328" lon="7.56972">
        <ele>854.54594365817</ele>
        <time>2021-11-02T14:33:35Z</time>
      </trkpt>
      <trkpt lat="43.89327" lon="7.56972">
        <ele>854.5459623647</ele>
        <time>2021-11-02T14:33:36Z</time>
      </trkpt>
      <trkpt lat="43.89327" lon="7.56971">
        <ele>853.54596491223</ele>
        <time>2021-11-02T14:33:37Z</time>
      </trkpt>
      <trkpt lat="43.89326" lon="7.5697">
        <ele>853.54598496803</ele>
        <time>2021-11-02T14:33:38Z</time>
      </trkpt>
      <trkpt lat="43.89326" lon="7.56969">
        <ele>853.54598380591</ele>
        <time>2021-11-02T14:33:39Z</time>
      </trkpt>
      <trkpt lat="43.89325" lon="7.56968">
        <ele>853.54600906852</ele>
        <time>2021-11-02T14:33:40Z</time>
      </trkpt>
      <trkpt lat="43.89325" lon="7.56968">
        <ele>852.5460376498</ele>
        <time>2021-11-02T14:33:41Z</time>
      </trkpt>
      <trkpt lat="43.89324" lon="7.56968">
        <ele>851.546082525</ele>
        <time>2021-11-02T14:33:44Z</time>
      </trkpt>
      <trkpt lat="43.89323" lon="7.56968">
        <ele>851.5461076782</ele>
        <time>2021-11-02T14:33:45Z</time>
      </trkpt>
      <trkpt lat="43.89323" lon="7.56968">
        <ele>850.54614434622</ele>
        <time>2021-11-02T14:33:46Z</time>
      </trkpt>
      <trkpt lat="43.89322" lon="7.56968">
        <ele>851.54615311687</ele>
        <time>2021-11-02T14:33:47Z</time>
      </trkpt>
      <trkpt lat="43.89322" lon="7.56967">
        <ele>851.54616845178</ele>
        <time>2021-11-02T14:33:49Z</time>
      </trkpt>
      <trkpt lat="43.89322" lon="7.56966">
        <ele>851.54614954836</ele>
        <time>2021-11-02T14:33:51Z</time>
      </trkpt>
      <trkpt lat="43.89321" lon="7.56965">
        <ele>850.54617572671</ele>
        <time>2021-11-02T14:33:52Z</time>
      </trkpt>
      <trkpt lat="43.8932" lon="7.56965">
        <ele>851.54620514844</ele>
        <time>2021-11-02T14:33:54Z</time>
      </trkpt>
      <trkpt lat="43.8932" lon="7.56964">
        <ele>851.54623508265</ele>
        <time>2021-11-02T14:33:55Z</time>
      </trkpt>
      <trkpt lat="43.89319" lon="7.56964">
        <ele>851.54622318664</ele>
        <time>2021-11-02T14:33:56Z</time>
      </trkpt>
      <trkpt lat="43.8932" lon="7.56962">
        <ele>850.54619484472</ele>
        <time>2021-11-02T14:33:59Z</time>
      </trkpt>
      <trkpt lat="43.89319" lon="7.56963">
        <ele>850.54623443665</ele>
        <time>2021-11-02T14:34:01Z</time>
      </trkpt>
      <trkpt lat="43.89318" lon="7.56963">
        <ele>850.54628318869</ele>
        <time>2021-11-02T14:34:02Z</time>
      </trkpt>
      <trkpt lat="43.89318" lon="7.56963">
        <ele>850.54630633527</ele>
        <time>2021-11-02T14:34:03Z</time>
      </trkpt>
      <trkpt lat="43.89317" lon="7.56963">
        <ele>850.54634791538</ele>
        <time>2021-11-02T14:34:04Z</time>
      </trkpt>
      <trkpt lat="43.89316" lon="7.56963">
        <ele>851.5464074282</ele>
        <time>2021-11-02T14:34:05Z</time>
      </trkpt>
      <trkpt lat="43.89315" lon="7.56963">
        <ele>851.54646292481</ele>
        <time>2021-11-02T14:34:06Z</time>
      </trkpt>
      <trkpt lat="43.89314" lon="7.56963">
        <ele>850.54648497767</ele>
        <time>2021-11-02T14:34:07Z</time>
      </trkpt>
      <trkpt lat="43.89313" lon="7.56963">
        <ele>850.54654113623</ele>
        <time>2021-11-02T14:34:08Z</time>
      </trkpt>
      <trkpt lat="43.89312" lon="7.56962">
        <ele>850.54657761957</ele>
        <time>2021-11-02T14:34:09Z</time>
      </trkpt>
      <trkpt lat="43.89311" lon="7.56962">
        <ele>850.54661189034</ele>
        <time>2021-11-02T14:34:10Z</time>
      </trkpt>
      <trkpt lat="43.89311" lon="7.56961">
        <ele>850.54662277379</ele>
        <time>2021-11-02T14:34:11Z</time>
      </trkpt>
      <trkpt lat="43.8931" lon="7.5696">
        <ele>850.54662990798</ele>
        <time>2021-11-02T14:34:12Z</time>
      </trkpt>
      <trkpt lat="43.89309" lon="7.5696">
        <ele>850.54667949562</ele>
        <time>2021-11-02T14:34:13Z</time>
      </trkpt>
      <trkpt lat="43.89309" lon="7.5696">
        <ele>850.5467136938</ele>
        <time>2021-11-02T14:34:14Z</time>
      </trkpt>
      <trkpt lat="43.89308" lon="7.56959">
        <ele>850.54674823938</ele>
        <time>2021-11-02T14:34:15Z</time>
      </trkpt>
      <trkpt lat="43.89307" lon="7.56959">
        <ele>850.54677537838</ele>
        <time>2021-11-02T14:34:16Z</time>
      </trkpt>
      <trkpt lat="43.89306" lon="7.56959">
        <ele>850.54680314048</ele>
        <time>2021-11-02T14:34:17Z</time>
      </trkpt>
      <trkpt lat="43.89306" lon="7.56959">
        <ele>850.54684273317</ele>
        <time>2021-11-02T14:34:18Z</time>
      </trkpt>
      <trkpt lat="43.89305" lon="7.56958">
        <ele>850.54685620385</ele>
        <time>2021-11-02T14:34:20Z</time>
      </trkpt>
      <trkpt lat="43.89305" lon="7.56958">
        <ele>849.54689026684</ele>
        <time>2021-11-02T14:34:21Z</time>
      </trkpt>
      <trkpt lat="43.89303" lon="7.56958">
        <ele>848.54693887332</ele>
        <time>2021-11-02T14:34:22Z</time>
      </trkpt>
      <trkpt lat="43.89303" lon="7.56958">
        <ele>850.54695544469</ele>
        <time>2021-11-02T14:34:24Z</time>
      </trkpt>
      <trkpt lat="43.89302" lon="7.56958">
        <ele>850.54702065496</ele>
        <time>2021-11-02T14:34:25Z</time>
      </trkpt>
      <trkpt lat="43.89301" lon="7.56957">
        <ele>850.54707263453</ele>
        <time>2021-11-02T14:34:26Z</time>
      </trkpt>
      <trkpt lat="43.893" lon="7.56957">
        <ele>850.54710970672</ele>
        <time>2021-11-02T14:34:27Z</time>
      </trkpt>
      <trkpt lat="43.89299" lon="7.56957">
        <ele>850.54714896331</ele>
        <time>2021-11-02T14:34:28Z</time>
      </trkpt>
      <trkpt lat="43.89298" lon="7.56957">
        <ele>850.54718586764</ele>
        <time>2021-11-02T14:34:29Z</time>
      </trkpt>
      <trkpt lat="43.89298" lon="7.56956">
        <ele>850.54721230142</ele>
        <time>2021-11-02T14:34:30Z</time>
      </trkpt>
      <trkpt lat="43.89297" lon="7.56954">
        <ele>850.54720283738</ele>
        <time>2021-11-02T14:34:31Z</time>
      </trkpt>
      <trkpt lat="43.89297" lon="7.56954">
        <ele>850.54722789667</ele>
        <time>2021-11-02T14:34:32Z</time>
      </trkpt>
      <trkpt lat="43.89296" lon="7.56954">
        <ele>850.54724577612</ele>
        <time>2021-11-02T14:34:33Z</time>
      </trkpt>
      <trkpt lat="43.89296" lon="7.56953">
        <ele>851.54726974827</ele>
        <time>2021-11-02T14:34:35Z</time>
      </trkpt>
      <trkpt lat="43.89295" lon="7.56953">
        <ele>851.54730914458</ele>
        <time>2021-11-02T14:34:36Z</time>
      </trkpt>
      <trkpt lat="43.89294" lon="7.56953">
        <ele>850.54734110712</ele>
        <time>2021-11-02T14:34:37Z</time>
      </trkpt>
      <trkpt lat="43.89293" lon="7.56952">
        <ele>850.5473777416</ele>
        <time>2021-11-02T14:34:38Z</time>
      </trkpt>
      <trkpt lat="43.89292" lon="7.56951">
        <ele>851.54742530706</ele>
        <time>2021-11-02T14:34:39Z</time>
      </trkpt>
      <trkpt lat="43.89291" lon="7.56951">
        <ele>850.54747307035</ele>
        <time>2021-11-02T14:34:40Z</time>
      </trkpt>
      <trkpt lat="43.8929" lon="7.56951">
        <ele>850.54750644494</ele>
        <time>2021-11-02T14:34:41Z</time>
      </trkpt>
      <trkpt lat="43.89289" lon="7.5695">
        <ele>851.54753677268</ele>
        <time>2021-11-02T14:34:42Z</time>
      </trkpt>
      <trkpt lat="43.89288" lon="7.56949">
        <ele>851.54757440002</ele>
        <time>2021-11-02T14:34:43Z</time>
      </trkpt>
      <trkpt lat="43.89288" lon="7.56949">
        <ele>852.54760247769</ele>
        <time>2021-11-02T14:34:44Z</time>
      </trkpt>
      <trkpt lat="43.89287" lon="7.56948">
        <ele>852.54762433104</ele>
        <time>2021-11-02T14:34:45Z</time>
      </trkpt>
      <trkpt lat="43.89286" lon="7.56948">
        <ele>851.5476407905</ele>
        <time>2021-11-02T14:34:46Z</time>
      </trkpt>
      <trkpt lat="43.89286" lon="7.56947">
        <ele>851.54766095362</ele>
        <time>2021-11-02T14:34:47Z</time>
      </trkpt>
      <trkpt lat="43.89285" lon="7.56947">
        <ele>851.54769388878</ele>
        <time>2021-11-02T14:34:48Z</time>
      </trkpt>
      <trkpt lat="43.89284" lon="7.56947">
        <ele>851.54772527372</ele>
        <time>2021-11-02T14:34:49Z</time>
      </trkpt>
      <trkpt lat="43.89284" lon="7.56946">
        <ele>850.5477325492</ele>
        <time>2021-11-02T14:34:50Z</time>
      </trkpt>
      <trkpt lat="43.89284" lon="7.56945">
        <ele>850.54773180841</ele>
        <time>2021-11-02T14:34:51Z</time>
      </trkpt>
      <trkpt lat="43.89284" lon="7.56944">
        <ele>849.54770455989</ele>
        <time>2021-11-02T14:34:53Z</time>
      </trkpt>
      <trkpt lat="43.89283" lon="7.56944">
        <ele>849.54772837887</ele>
        <time>2021-11-02T14:34:55Z</time>
      </trkpt>
      <trkpt lat="43.89282" lon="7.56943">
        <ele>849.54779574403</ele>
        <time>2021-11-02T14:34:57Z</time>
      </trkpt>
      <trkpt lat="43.89281" lon="7.56943">
        <ele>849.54782095909</ele>
        <time>2021-11-02T14:34:59Z</time>
      </trkpt>
      <trkpt lat="43.8928" lon="7.56942">
        <ele>849.5478531062</ele>
        <time>2021-11-02T14:35:00Z</time>
      </trkpt>
      <trkpt lat="43.8928" lon="7.56942">
        <ele>849.54789240251</ele>
        <time>2021-11-02T14:35:01Z</time>
      </trkpt>
      <trkpt lat="43.89279" lon="7.56941">
        <ele>849.54792996337</ele>
        <time>2021-11-02T14:35:02Z</time>
      </trkpt>
      <trkpt lat="43.89278" lon="7.56941">
        <ele>849.54795260347</ele>
        <time>2021-11-02T14:35:03Z</time>
      </trkpt>
      <trkpt lat="43.89278" lon="7.5694">
        <ele>849.54796653778</ele>
        <time>2021-11-02T14:35:04Z</time>
      </trkpt>
      <trkpt lat="43.89277" lon="7.56939">
        <ele>848.54797991116</ele>
        <time>2021-11-02T14:35:05Z</time>
      </trkpt>
      <trkpt lat="43.89276" lon="7.56939">
        <ele>848.54799709848</ele>
        <time>2021-11-02T14:35:06Z</time>
      </trkpt>
      <trkpt lat="43.89276" lon="7.56937">
        <ele>848.54798724702</ele>
        <time>2021-11-02T14:35:07Z</time>
      </trkpt>
      <trkpt lat="43.89274" lon="7.56936">
        <ele>847.54807511088</ele>
        <time>2021-11-02T14:35:09Z</time>
      </trkpt>
      <trkpt lat="43.89273" lon="7.56936">
        <ele>847.54811932208</ele>
        <time>2021-11-02T14:35:10Z</time>
      </trkpt>
      <trkpt lat="43.89272" lon="7.56937">
        <ele>846.54817424468</ele>
        <time>2021-11-02T14:35:11Z</time>
      </trkpt>
      <trkpt lat="43.89272" lon="7.56937">
        <ele>846.54821675001</ele>
        <time>2021-11-02T14:35:12Z</time>
      </trkpt>
      <trkpt lat="43.89271" lon="7.56938">
        <ele>846.54826977751</ele>
        <time>2021-11-02T14:35:13Z</time>
      </trkpt>
      <trkpt lat="43.89269" lon="7.56938">
        <ele>847.54834558338</ele>
        <time>2021-11-02T14:35:14Z</time>
      </trkpt>
      <trkpt lat="43.89268" lon="7.56937">
        <ele>847.54838290834</ele>
        <time>2021-11-02T14:35:15Z</time>
      </trkpt>
      <trkpt lat="43.89268" lon="7.56936">
        <ele>847.54839156743</ele>
        <time>2021-11-02T14:35:16Z</time>
      </trkpt>
      <trkpt lat="43.89267" lon="7.56936">
        <ele>847.54843437905</ele>
        <time>2021-11-02T14:35:18Z</time>
      </trkpt>
      <trkpt lat="43.89267" lon="7.56936">
        <ele>848.54844173729</ele>
        <time>2021-11-02T14:35:19Z</time>
      </trkpt>
      <trkpt lat="43.89266" lon="7.56936">
        <ele>847.54850464897</ele>
        <time>2021-11-02T14:35:20Z</time>
      </trkpt>
      <trkpt lat="43.89265" lon="7.56937">
        <ele>848.54855419704</ele>
        <time>2021-11-02T14:35:21Z</time>
      </trkpt>
      <trkpt lat="43.89264" lon="7.56937">
        <ele>847.548608851</ele>
        <time>2021-11-02T14:35:23Z</time>
      </trkpt>
      <trkpt lat="43.89264" lon="7.56937">
        <ele>847.548608851</ele>
        <time>2021-11-02T14:35:25Z</time>
      </trkpt>
      <trkpt lat="43.89263" lon="7.56936">
        <ele>846.54866361873</ele>
        <time>2021-11-02T14:35:27Z</time>
      </trkpt>
      <trkpt lat="43.89262" lon="7.56936">
        <ele>846.54869860579</ele>
        <time>2021-11-02T14:35:28Z</time>
      </trkpt>
      <trkpt lat="43.89261" lon="7.56935">
        <ele>845.54872492943</ele>
        <time>2021-11-02T14:35:36Z</time>
      </trkpt>
      <trkpt lat="43.8926" lon="7.56937">
        <ele>845.54879523034</ele>
        <time>2021-11-02T14:35:37Z</time>
      </trkpt>
      <trkpt lat="43.89259" lon="7.56937">
        <ele>846.54884825362</ele>
        <time>2021-11-02T14:35:38Z</time>
      </trkpt>
      <trkpt lat="43.89259" lon="7.56937">
        <ele>845.54888415001</ele>
        <time>2021-11-02T14:35:39Z</time>
      </trkpt>
      <trkpt lat="43.89258" lon="7.56937">
        <ele>845.54892432156</ele>
        <time>2021-11-02T14:35:40Z</time>
      </trkpt>
      <trkpt lat="43.89256" lon="7.56935">
        <ele>844.5489650928</ele>
        <time>2021-11-02T14:35:42Z</time>
      </trkpt>
      <trkpt lat="43.89255" lon="7.56934">
        <ele>843.54900246512</ele>
        <time>2021-11-02T14:35:44Z</time>
      </trkpt>
      <trkpt lat="43.89254" lon="7.56935">
        <ele>842.54905501753</ele>
        <time>2021-11-02T14:35:45Z</time>
      </trkpt>
      <trkpt lat="43.89254" lon="7.56935">
        <ele>842.54908465091</ele>
        <time>2021-11-02T14:35:46Z</time>
      </trkpt>
      <trkpt lat="43.89253" lon="7.56937">
        <ele>841.54914162677</ele>
        <time>2021-11-02T14:35:48Z</time>
      </trkpt>
      <trkpt lat="43.89253" lon="7.56937">
        <ele>840.54917956845</ele>
        <time>2021-11-02T14:35:49Z</time>
      </trkpt>
      <trkpt lat="43.89252" lon="7.56936">
        <ele>840.54921711913</ele>
        <time>2021-11-02T14:35:50Z</time>
      </trkpt>
      <trkpt lat="43.89251" lon="7.56936">
        <ele>840.54925191392</ele>
        <time>2021-11-02T14:35:51Z</time>
      </trkpt>
      <trkpt lat="43.8925" lon="7.56936">
        <ele>840.54926938608</ele>
        <time>2021-11-02T14:35:52Z</time>
      </trkpt>
      <trkpt lat="43.89249" lon="7.56935">
        <ele>839.54932000906</ele>
        <time>2021-11-02T14:35:54Z</time>
      </trkpt>
      <trkpt lat="43.89249" lon="7.56935">
        <ele>838.54936091457</ele>
        <time>2021-11-02T14:35:56Z</time>
      </trkpt>
      <trkpt lat="43.89248" lon="7.56936">
        <ele>838.54941555553</ele>
        <time>2021-11-02T14:35:57Z</time>
      </trkpt>
      <trkpt lat="43.89247" lon="7.56935">
        <ele>838.54944176919</ele>
        <time>2021-11-02T14:35:58Z</time>
      </trkpt>
      <trkpt lat="43.89246" lon="7.56935">
        <ele>837.54947768344</ele>
        <time>2021-11-02T14:35:59Z</time>
      </trkpt>
      <trkpt lat="43.89246" lon="7.56935">
        <ele>837.54949606424</ele>
        <time>2021-11-02T14:36:00Z</time>
      </trkpt>
      <trkpt lat="43.89245" lon="7.56934">
        <ele>836.5495029239</ele>
        <time>2021-11-02T14:36:01Z</time>
      </trkpt>
      <trkpt lat="43.89245" lon="7.56934">
        <ele>836.54952006217</ele>
        <time>2021-11-02T14:36:06Z</time>
      </trkpt>
      <trkpt lat="43.89244" lon="7.56934">
        <ele>836.54955779396</ele>
        <time>2021-11-02T14:36:07Z</time>
      </trkpt>
      <trkpt lat="43.89243" lon="7.56935">
        <ele>835.54962007729</ele>
        <time>2021-11-02T14:36:09Z</time>
      </trkpt>
      <trkpt lat="43.89242" lon="7.56935">
        <ele>834.54966978662</ele>
        <time>2021-11-02T14:36:10Z</time>
      </trkpt>
      <trkpt lat="43.89241" lon="7.56934">
        <ele>834.54971695407</ele>
        <time>2021-11-02T14:36:11Z</time>
      </trkpt>
      <trkpt lat="43.8924" lon="7.56934">
        <ele>834.54975262622</ele>
        <time>2021-11-02T14:36:12Z</time>
      </trkpt>
      <trkpt lat="43.8924" lon="7.56934">
        <ele>833.54979553672</ele>
        <time>2021-11-02T14:36:13Z</time>
      </trkpt>
      <trkpt lat="43.89239" lon="7.56933">
        <ele>833.54983303653</ele>
        <time>2021-11-02T14:36:14Z</time>
      </trkpt>
      <trkpt lat="43.89237" lon="7.56933">
        <ele>833.54989560602</ele>
        <time>2021-11-02T14:36:15Z</time>
      </trkpt>
      <trkpt lat="43.89237" lon="7.56932">
        <ele>833.54992058656</ele>
        <time>2021-11-02T14:36:16Z</time>
      </trkpt>
      <trkpt lat="43.89236" lon="7.56931">
        <ele>832.54993972423</ele>
        <time>2021-11-02T14:36:18Z</time>
      </trkpt>
      <trkpt lat="43.89235" lon="7.56931">
        <ele>831.54997016899</ele>
        <time>2021-11-02T14:36:19Z</time>
      </trkpt>
      <trkpt lat="43.89234" lon="7.5693">
        <ele>831.55000590727</ele>
        <time>2021-11-02T14:36:20Z</time>
      </trkpt>
      <trkpt lat="43.89234" lon="7.5693">
        <ele>831.55001718608</ele>
        <time>2021-11-02T14:36:21Z</time>
      </trkpt>
      <trkpt lat="43.89233" lon="7.5693">
        <ele>831.55003405632</ele>
        <time>2021-11-02T14:36:22Z</time>
      </trkpt>
      <trkpt lat="43.89233" lon="7.56928">
        <ele>831.55003585849</ele>
        <time>2021-11-02T14:36:23Z</time>
      </trkpt>
      <trkpt lat="43.89232" lon="7.56928">
        <ele>831.55005853177</ele>
        <time>2021-11-02T14:36:24Z</time>
      </trkpt>
      <trkpt lat="43.89232" lon="7.56927">
        <ele>830.55008519711</ele>
        <time>2021-11-02T14:36:25Z</time>
      </trkpt>
      <trkpt lat="43.89231" lon="7.56927">
        <ele>830.5501057073</ele>
        <time>2021-11-02T14:36:26Z</time>
      </trkpt>
      <trkpt lat="43.89231" lon="7.56926">
        <ele>830.55011896328</ele>
        <time>2021-11-02T14:36:27Z</time>
      </trkpt>
      <trkpt lat="43.8923" lon="7.56926">
        <ele>831.55014053415</ele>
        <time>2021-11-02T14:36:28Z</time>
      </trkpt>
      <trkpt lat="43.8923" lon="7.56926">
        <ele>831.55016564086</ele>
        <time>2021-11-02T14:36:29Z</time>
      </trkpt>
      <trkpt lat="43.89229" lon="7.56926">
        <ele>830.55018093318</ele>
        <time>2021-11-02T14:36:30Z</time>
      </trkpt>
      <trkpt lat="43.89228" lon="7.56924">
        <ele>830.55024335345</ele>
        <time>2021-11-02T14:36:32Z</time>
      </trkpt>
      <trkpt lat="43.89226" lon="7.56924">
        <ele>830.55032033809</ele>
        <time>2021-11-02T14:36:34Z</time>
      </trkpt>
      <trkpt lat="43.89226" lon="7.56923">
        <ele>830.55032467245</ele>
        <time>2021-11-02T14:36:35Z</time>
      </trkpt>
      <trkpt lat="43.89225" lon="7.56922">
        <ele>829.55034591533</ele>
        <time>2021-11-02T14:36:36Z</time>
      </trkpt>
      <trkpt lat="43.89224" lon="7.56921">
        <ele>828.55038871869</ele>
        <time>2021-11-02T14:36:38Z</time>
      </trkpt>
      <trkpt lat="43.89223" lon="7.56921">
        <ele>828.55039620695</ele>
        <time>2021-11-02T14:36:39Z</time>
      </trkpt>
      <trkpt lat="43.89223" lon="7.5692">
        <ele>828.55041431903</ele>
        <time>2021-11-02T14:36:40Z</time>
      </trkpt>
      <trkpt lat="43.89222" lon="7.56918">
        <ele>827.5504164959</ele>
        <time>2021-11-02T14:36:42Z</time>
      </trkpt>
      <trkpt lat="43.89221" lon="7.56917">
        <ele>826.5504598971</ele>
        <time>2021-11-02T14:36:44Z</time>
      </trkpt>
      <trkpt lat="43.8922" lon="7.56916">
        <ele>826.55048509815</ele>
        <time>2021-11-02T14:36:45Z</time>
      </trkpt>
      <trkpt lat="43.89219" lon="7.56915">
        <ele>826.55052892892</ele>
        <time>2021-11-02T14:36:47Z</time>
      </trkpt>
      <trkpt lat="43.89218" lon="7.56915">
        <ele>826.55058642096</ele>
        <time>2021-11-02T14:36:48Z</time>
      </trkpt>
      <trkpt lat="43.89217" lon="7.56915">
        <ele>826.55060293998</ele>
        <time>2021-11-02T14:36:49Z</time>
      </trkpt>
      <trkpt lat="43.89217" lon="7.56915">
        <ele>826.55065042077</ele>
        <time>2021-11-02T14:36:50Z</time>
      </trkpt>
      <trkpt lat="43.89215" lon="7.56915">
        <ele>827.55073586116</ele>
        <time>2021-11-02T14:36:51Z</time>
      </trkpt>
      <trkpt lat="43.89213" lon="7.56915">
        <ele>827.55082718801</ele>
        <time>2021-11-02T14:36:52Z</time>
      </trkpt>
      <trkpt lat="43.89212" lon="7.56915">
        <ele>827.55087662915</ele>
        <time>2021-11-02T14:36:53Z</time>
      </trkpt>
      <trkpt lat="43.89211" lon="7.56916">
        <ele>827.55094135927</ele>
        <time>2021-11-02T14:36:54Z</time>
      </trkpt>
      <trkpt lat="43.8921" lon="7.56915">
        <ele>827.55097952232</ele>
        <time>2021-11-02T14:36:55Z</time>
      </trkpt>
      <trkpt lat="43.89209" lon="7.56915">
        <ele>828.55102762547</ele>
        <time>2021-11-02T14:36:56Z</time>
      </trkpt>
      <trkpt lat="43.89208" lon="7.56915">
        <ele>827.55106838862</ele>
        <time>2021-11-02T14:36:57Z</time>
      </trkpt>
      <trkpt lat="43.89208" lon="7.56915">
        <ele>827.55110869016</ele>
        <time>2021-11-02T14:36:58Z</time>
      </trkpt>
      <trkpt lat="43.89206" lon="7.56916">
        <ele>828.55118189882</ele>
        <time>2021-11-02T14:36:59Z</time>
      </trkpt>
      <trkpt lat="43.89205" lon="7.56916">
        <ele>828.5512398335</ele>
        <time>2021-11-02T14:37:00Z</time>
      </trkpt>
      <trkpt lat="43.89204" lon="7.56915">
        <ele>828.55128568734</ele>
        <time>2021-11-02T14:37:01Z</time>
      </trkpt>
      <trkpt lat="43.89204" lon="7.56914">
        <ele>828.55129237561</ele>
        <time>2021-11-02T14:37:02Z</time>
      </trkpt>
      <trkpt lat="43.89203" lon="7.56913">
        <ele>828.551320917</ele>
        <time>2021-11-02T14:37:03Z</time>
      </trkpt>
      <trkpt lat="43.89202" lon="7.56914">
        <ele>827.55136140407</ele>
        <time>2021-11-02T14:37:05Z</time>
      </trkpt>
      <trkpt lat="43.89202" lon="7.56915">
        <ele>827.55140819826</ele>
        <time>2021-11-02T14:37:06Z</time>
      </trkpt>
      <trkpt lat="43.892" lon="7.56915">
        <ele>827.5514709795</ele>
        <time>2021-11-02T14:37:07Z</time>
      </trkpt>
      <trkpt lat="43.89199" lon="7.56915">
        <ele>826.55153257037</ele>
        <time>2021-11-02T14:37:08Z</time>
      </trkpt>
      <trkpt lat="43.89198" lon="7.56915">
        <ele>826.55158565075</ele>
        <time>2021-11-02T14:37:09Z</time>
      </trkpt>
      <trkpt lat="43.89197" lon="7.56915">
        <ele>826.55162099448</ele>
        <time>2021-11-02T14:37:10Z</time>
      </trkpt>
      <trkpt lat="43.89197" lon="7.56914">
        <ele>825.55165555687</ele>
        <time>2021-11-02T14:37:11Z</time>
      </trkpt>
      <trkpt lat="43.89196" lon="7.56914">
        <ele>825.55168099425</ele>
        <time>2021-11-02T14:37:12Z</time>
      </trkpt>
      <trkpt lat="43.89195" lon="7.56914">
        <ele>825.55172493958</ele>
        <time>2021-11-02T14:37:13Z</time>
      </trkpt>
      <trkpt lat="43.89194" lon="7.56913">
        <ele>824.55174442334</ele>
        <time>2021-11-02T14:37:14Z</time>
      </trkpt>
      <trkpt lat="43.89193" lon="7.56912">
        <ele>824.55178837904</ele>
        <time>2021-11-02T14:37:15Z</time>
      </trkpt>
      <trkpt lat="43.89192" lon="7.56911">
        <ele>825.55182547629</ele>
        <time>2021-11-02T14:37:16Z</time>
      </trkpt>
      <trkpt lat="43.89191" lon="7.56911">
        <ele>824.55187206226</ele>
        <time>2021-11-02T14:37:17Z</time>
      </trkpt>
      <trkpt lat="43.8919" lon="7.56911">
        <ele>824.55194570527</ele>
        <time>2021-11-02T14:37:18Z</time>
      </trkpt>
      <trkpt lat="43.89189" lon="7.56911">
        <ele>824.55198322049</ele>
        <time>2021-11-02T14:37:19Z</time>
      </trkpt>
      <trkpt lat="43.89188" lon="7.5691">
        <ele>824.55203538734</ele>
        <time>2021-11-02T14:37:20Z</time>
      </trkpt>
      <trkpt lat="43.89187" lon="7.56909">
        <ele>824.55204973748</ele>
        <time>2021-11-02T14:37:21Z</time>
      </trkpt>
      <trkpt lat="43.89186" lon="7.56908">
        <ele>824.55208630927</ele>
        <time>2021-11-02T14:37:22Z</time>
      </trkpt>
      <trkpt lat="43.89185" lon="7.56908">
        <ele>824.55212058873</ele>
        <time>2021-11-02T14:37:23Z</time>
      </trkpt>
      <trkpt lat="43.89184" lon="7.56907">
        <ele>823.55215880355</ele>
        <time>2021-11-02T14:37:24Z</time>
      </trkpt>
      <trkpt lat="43.89183" lon="7.56907">
        <ele>823.55220611648</ele>
        <time>2021-11-02T14:37:25Z</time>
      </trkpt>
      <trkpt lat="43.89183" lon="7.56906">
        <ele>822.55223559695</ele>
        <time>2021-11-02T14:37:26Z</time>
      </trkpt>
      <trkpt lat="43.89182" lon="7.56906">
        <ele>821.55225445476</ele>
        <time>2021-11-02T14:37:27Z</time>
      </trkpt>
      <trkpt lat="43.89181" lon="7.56906">
        <ele>821.55230487178</ele>
        <time>2021-11-02T14:37:28Z</time>
      </trkpt>
      <trkpt lat="43.8918" lon="7.56906">
        <ele>820.55235915198</ele>
        <time>2021-11-02T14:37:29Z</time>
      </trkpt>
      <trkpt lat="43.89179" lon="7.56905">
        <ele>820.5523911613</ele>
        <time>2021-11-02T14:37:30Z</time>
      </trkpt>
      <trkpt lat="43.89178" lon="7.56905">
        <ele>820.55242524057</ele>
        <time>2021-11-02T14:37:31Z</time>
      </trkpt>
      <trkpt lat="43.89178" lon="7.56904">
        <ele>819.55244232858</ele>
        <time>2021-11-02T14:37:32Z</time>
      </trkpt>
      <trkpt lat="43.89178" lon="7.56904">
        <ele>819.55244303326</ele>
        <time>2021-11-02T14:37:33Z</time>
      </trkpt>
      <trkpt lat="43.89178" lon="7.56903">
        <ele>817.55241381201</ele>
        <time>2021-11-02T14:37:34Z</time>
      </trkpt>
      <trkpt lat="43.89178" lon="7.56901">
        <ele>816.55238252308</ele>
        <time>2021-11-02T14:37:35Z</time>
      </trkpt>
      <trkpt lat="43.89178" lon="7.569">
        <ele>816.55236487837</ele>
        <time>2021-11-02T14:37:36Z</time>
      </trkpt>
      <trkpt lat="43.89177" lon="7.56898">
        <ele>816.5523631374</ele>
        <time>2021-11-02T14:37:37Z</time>
      </trkpt>
      <trkpt lat="43.89176" lon="7.56898">
        <ele>815.55240387583</ele>
        <time>2021-11-02T14:37:38Z</time>
      </trkpt>
      <trkpt lat="43.89175" lon="7.56897">
        <ele>815.55246006539</ele>
        <time>2021-11-02T14:37:39Z</time>
      </trkpt>
      <trkpt lat="43.89174" lon="7.56896">
        <ele>815.55250018751</ele>
        <time>2021-11-02T14:37:40Z</time>
      </trkpt>
      <trkpt lat="43.89173" lon="7.56896">
        <ele>815.55252831435</ele>
        <time>2021-11-02T14:37:41Z</time>
      </trkpt>
      <trkpt lat="43.89173" lon="7.56894">
        <ele>815.55253117185</ele>
        <time>2021-11-02T14:37:42Z</time>
      </trkpt>
      <trkpt lat="43.89172" lon="7.56893">
        <ele>815.55254844715</ele>
        <time>2021-11-02T14:37:43Z</time>
      </trkpt>
      <trkpt lat="43.8917" lon="7.56891">
        <ele>815.55258846615</ele>
        <time>2021-11-02T14:37:44Z</time>
      </trkpt>
      <trkpt lat="43.89169" lon="7.5689">
        <ele>815.55264142772</ele>
        <time>2021-11-02T14:37:45Z</time>
      </trkpt>
      <trkpt lat="43.89168" lon="7.56889">
        <ele>815.55268542771</ele>
        <time>2021-11-02T14:37:46Z</time>
      </trkpt>
      <trkpt lat="43.89167" lon="7.56888">
        <ele>816.55270510558</ele>
        <time>2021-11-02T14:37:47Z</time>
      </trkpt>
      <trkpt lat="43.89166" lon="7.56886">
        <ele>816.55272983379</ele>
        <time>2021-11-02T14:37:48Z</time>
      </trkpt>
      <trkpt lat="43.89165" lon="7.56884">
        <ele>817.55274144859</ele>
        <time>2021-11-02T14:37:49Z</time>
      </trkpt>
      <trkpt lat="43.89164" lon="7.56883">
        <ele>817.55275579478</ele>
        <time>2021-11-02T14:37:50Z</time>
      </trkpt>
      <trkpt lat="43.89164" lon="7.56882">
        <ele>817.55277726505</ele>
        <time>2021-11-02T14:37:51Z</time>
      </trkpt>
      <trkpt lat="43.89162" lon="7.56881">
        <ele>816.55283985327</ele>
        <time>2021-11-02T14:37:52Z</time>
      </trkpt>
      <trkpt lat="43.89161" lon="7.56881">
        <ele>816.55289990038</ele>
        <time>2021-11-02T14:37:53Z</time>
      </trkpt>
      <trkpt lat="43.8916" lon="7.5688">
        <ele>817.55293926038</ele>
        <time>2021-11-02T14:37:54Z</time>
      </trkpt>
      <trkpt lat="43.89159" lon="7.56881">
        <ele>817.552999913</ele>
        <time>2021-11-02T14:37:55Z</time>
      </trkpt>
      <trkpt lat="43.89158" lon="7.5688">
        <ele>817.55303773201</ele>
        <time>2021-11-02T14:37:56Z</time>
      </trkpt>
      <trkpt lat="43.89157" lon="7.56879">
        <ele>818.55307470052</ele>
        <time>2021-11-02T14:37:57Z</time>
      </trkpt>
      <trkpt lat="43.89155" lon="7.56879">
        <ele>818.55314618243</ele>
        <time>2021-11-02T14:37:58Z</time>
      </trkpt>
      <trkpt lat="43.89154" lon="7.56879">
        <ele>818.55322650753</ele>
        <time>2021-11-02T14:37:59Z</time>
      </trkpt>
      <trkpt lat="43.89153" lon="7.56879">
        <ele>818.55327461087</ele>
        <time>2021-11-02T14:38:00Z</time>
      </trkpt>
      <trkpt lat="43.89152" lon="7.56879">
        <ele>818.5533130318</ele>
        <time>2021-11-02T14:38:01Z</time>
      </trkpt>
      <trkpt lat="43.89151" lon="7.56878">
        <ele>818.55335474431</ele>
        <time>2021-11-02T14:38:02Z</time>
      </trkpt>
      <trkpt lat="43.8915" lon="7.56878">
        <ele>818.55340341065</ele>
        <time>2021-11-02T14:38:03Z</time>
      </trkpt>
      <trkpt lat="43.89149" lon="7.56877">
        <ele>819.55344106455</ele>
        <time>2021-11-02T14:38:04Z</time>
      </trkpt>
      <trkpt lat="43.89148" lon="7.56876">
        <ele>819.55348282226</ele>
        <time>2021-11-02T14:38:05Z</time>
      </trkpt>
      <trkpt lat="43.89147" lon="7.56874">
        <ele>819.55350007204</ele>
        <time>2021-11-02T14:38:06Z</time>
      </trkpt>
      <trkpt lat="43.89146" lon="7.56874">
        <ele>819.5535481948</ele>
        <time>2021-11-02T14:38:07Z</time>
      </trkpt>
      <trkpt lat="43.89145" lon="7.56873">
        <ele>820.55359051342</ele>
        <time>2021-11-02T14:38:08Z</time>
      </trkpt>
      <trkpt lat="43.89143" lon="7.56873">
        <ele>820.55365229223</ele>
        <time>2021-11-02T14:38:09Z</time>
      </trkpt>
      <trkpt lat="43.89142" lon="7.56873">
        <ele>820.55372196877</ele>
        <time>2021-11-02T14:38:10Z</time>
      </trkpt>
      <trkpt lat="43.8914" lon="7.56872">
        <ele>821.55379293982</ele>
        <time>2021-11-02T14:38:11Z</time>
      </trkpt>
      <trkpt lat="43.89139" lon="7.56872">
        <ele>821.55383749586</ele>
        <time>2021-11-02T14:38:12Z</time>
      </trkpt>
      <trkpt lat="43.89138" lon="7.56871">
        <ele>821.55387997183</ele>
        <time>2021-11-02T14:38:13Z</time>
      </trkpt>
      <trkpt lat="43.89137" lon="7.5687">
        <ele>821.5539368684</ele>
        <time>2021-11-02T14:38:14Z</time>
      </trkpt>
      <trkpt lat="43.89136" lon="7.5687">
        <ele>822.55398868284</ele>
        <time>2021-11-02T14:38:15Z</time>
      </trkpt>
      <trkpt lat="43.89135" lon="7.56869">
        <ele>822.55402516772</ele>
        <time>2021-11-02T14:38:16Z</time>
      </trkpt>
      <trkpt lat="43.89134" lon="7.56869">
        <ele>822.5540622829</ele>
        <time>2021-11-02T14:38:17Z</time>
      </trkpt>
      <trkpt lat="43.89133" lon="7.56868">
        <ele>821.55410137606</ele>
        <time>2021-11-02T14:38:18Z</time>
      </trkpt>
      <trkpt lat="43.89132" lon="7.56868">
        <ele>821.55415206063</ele>
        <time>2021-11-02T14:38:19Z</time>
      </trkpt>
      <trkpt lat="43.89131" lon="7.56868">
        <ele>822.55420324631</ele>
        <time>2021-11-02T14:38:20Z</time>
      </trkpt>
      <trkpt lat="43.8913" lon="7.56867">
        <ele>822.55423119644</ele>
        <time>2021-11-02T14:38:21Z</time>
      </trkpt>
      <trkpt lat="43.8913" lon="7.56866">
        <ele>821.55421447622</ele>
        <time>2021-11-02T14:38:22Z</time>
      </trkpt>
      <trkpt lat="43.89129" lon="7.56865">
        <ele>822.55426799943</ele>
        <time>2021-11-02T14:38:24Z</time>
      </trkpt>
      <trkpt lat="43.89127" lon="7.56864">
        <ele>821.55431958381</ele>
        <time>2021-11-02T14:38:25Z</time>
      </trkpt>
      <trkpt lat="43.89126" lon="7.56864">
        <ele>822.55437743395</ele>
        <time>2021-11-02T14:38:27Z</time>
      </trkpt>
      <trkpt lat="43.89126" lon="7.56864">
        <ele>823.55440257504</ele>
        <time>2021-11-02T14:38:28Z</time>
      </trkpt>
      <trkpt lat="43.89125" lon="7.56865">
        <ele>823.55447448728</ele>
        <time>2021-11-02T14:38:29Z</time>
      </trkpt>
      <trkpt lat="43.89123" lon="7.56866">
        <ele>824.55456548865</ele>
        <time>2021-11-02T14:38:30Z</time>
      </trkpt>
      <trkpt lat="43.89122" lon="7.56867">
        <ele>824.55464311289</ele>
        <time>2021-11-02T14:38:31Z</time>
      </trkpt>
      <trkpt lat="43.8912" lon="7.56866">
        <ele>825.55473410936</ele>
        <time>2021-11-02T14:38:33Z</time>
      </trkpt>
      <trkpt lat="43.89118" lon="7.56864">
        <ele>826.55477657721</ele>
        <time>2021-11-02T14:38:34Z</time>
      </trkpt>
      <trkpt lat="43.89117" lon="7.56863">
        <ele>826.55480945146</ele>
        <time>2021-11-02T14:38:35Z</time>
      </trkpt>
      <trkpt lat="43.89116" lon="7.56862">
        <ele>826.55485064957</ele>
        <time>2021-11-02T14:38:36Z</time>
      </trkpt>
      <trkpt lat="43.89115" lon="7.56861">
        <ele>826.55488774473</ele>
        <time>2021-11-02T14:38:37Z</time>
      </trkpt>
      <trkpt lat="43.89113" lon="7.5686">
        <ele>826.55497682662</ele>
        <time>2021-11-02T14:38:39Z</time>
      </trkpt>
      <trkpt lat="43.89112" lon="7.56859">
        <ele>825.55499425586</ele>
        <time>2021-11-02T14:38:40Z</time>
      </trkpt>
      <trkpt lat="43.89111" lon="7.56859">
        <ele>826.55504594682</ele>
        <time>2021-11-02T14:38:41Z</time>
      </trkpt>
      <trkpt lat="43.8911" lon="7.56858">
        <ele>826.55508490495</ele>
        <time>2021-11-02T14:38:42Z</time>
      </trkpt>
      <trkpt lat="43.89109" lon="7.56859">
        <ele>827.55514154888</ele>
        <time>2021-11-02T14:38:43Z</time>
      </trkpt>
      <trkpt lat="43.89108" lon="7.56859">
        <ele>827.55522415352</ele>
        <time>2021-11-02T14:38:44Z</time>
      </trkpt>
      <trkpt lat="43.89107" lon="7.56859">
        <ele>828.55527724648</ele>
        <time>2021-11-02T14:38:45Z</time>
      </trkpt>
      <trkpt lat="43.89105" lon="7.56858">
        <ele>828.55533308741</ele>
        <time>2021-11-02T14:38:46Z</time>
      </trkpt>
      <trkpt lat="43.89103" lon="7.56856">
        <ele>828.5554015758</ele>
        <time>2021-11-02T14:38:48Z</time>
      </trkpt>
      <trkpt lat="43.89103" lon="7.56856">
        <ele>828.55544400592</ele>
        <time>2021-11-02T14:38:55Z</time>
      </trkpt>
      <trkpt lat="43.89102" lon="7.56855">
        <ele>827.5554367663</ele>
        <time>2021-11-02T14:38:57Z</time>
      </trkpt>
      <trkpt lat="43.89101" lon="7.56854">
        <ele>827.5555094238</ele>
        <time>2021-11-02T14:38:59Z</time>
      </trkpt>
      <trkpt lat="43.891" lon="7.56854">
        <ele>827.55552673556</ele>
        <time>2021-11-02T14:39:00Z</time>
      </trkpt>
      <trkpt lat="43.891" lon="7.56853">
        <ele>827.55552758495</ele>
        <time>2021-11-02T14:39:01Z</time>
      </trkpt>
      <trkpt lat="43.89098" lon="7.56852">
        <ele>826.55559277599</ele>
        <time>2021-11-02T14:39:03Z</time>
      </trkpt>
      <trkpt lat="43.89097" lon="7.56851">
        <ele>826.55561927365</ele>
        <time>2021-11-02T14:39:04Z</time>
      </trkpt>
      <trkpt lat="43.89096" lon="7.5685">
        <ele>826.55564917834</ele>
        <time>2021-11-02T14:39:05Z</time>
      </trkpt>
      <trkpt lat="43.89096" lon="7.56849">
        <ele>827.55566410218</ele>
        <time>2021-11-02T14:39:06Z</time>
      </trkpt>
      <trkpt lat="43.89093" lon="7.56848">
        <ele>827.55576921734</ele>
        <time>2021-11-02T14:39:08Z</time>
      </trkpt>
      <trkpt lat="43.89092" lon="7.56848">
        <ele>827.55582708211</ele>
        <time>2021-11-02T14:39:09Z</time>
      </trkpt>
      <trkpt lat="43.89091" lon="7.56847">
        <ele>827.55587717077</ele>
        <time>2021-11-02T14:39:10Z</time>
      </trkpt>
      <trkpt lat="43.8909" lon="7.56847">
        <ele>827.55591330041</ele>
        <time>2021-11-02T14:39:11Z</time>
      </trkpt>
      <trkpt lat="43.89089" lon="7.56846">
        <ele>828.55593978427</ele>
        <time>2021-11-02T14:39:12Z</time>
      </trkpt>
      <trkpt lat="43.89089" lon="7.56846">
        <ele>827.55596121387</ele>
        <time>2021-11-02T14:39:13Z</time>
      </trkpt>
      <trkpt lat="43.89088" lon="7.56846">
        <ele>826.55599549602</ele>
        <time>2021-11-02T14:39:14Z</time>
      </trkpt>
      <trkpt lat="43.89088" lon="7.56846">
        <ele>825.55601783477</ele>
        <time>2021-11-02T14:39:15Z</time>
      </trkpt>
      <trkpt lat="43.89087" lon="7.56846">
        <ele>825.55605604994</ele>
        <time>2021-11-02T14:39:16Z</time>
      </trkpt>
      <trkpt lat="43.89086" lon="7.56845">
        <ele>825.55610248406</ele>
        <time>2021-11-02T14:39:17Z</time>
      </trkpt>
      <trkpt lat="43.89085" lon="7.56845">
        <ele>825.55614185751</ele>
        <time>2021-11-02T14:39:18Z</time>
      </trkpt>
      <trkpt lat="43.89084" lon="7.56844">
        <ele>825.55618015025</ele>
        <time>2021-11-02T14:39:19Z</time>
      </trkpt>
      <trkpt lat="43.89083" lon="7.56843">
        <ele>826.5562211547</ele>
        <time>2021-11-02T14:39:20Z</time>
      </trkpt>
      <trkpt lat="43.89082" lon="7.56843">
        <ele>826.5562644026</ele>
        <time>2021-11-02T14:39:21Z</time>
      </trkpt>
      <trkpt lat="43.89081" lon="7.56843">
        <ele>826.55630464856</ele>
        <time>2021-11-02T14:39:22Z</time>
      </trkpt>
      <trkpt lat="43.8908" lon="7.56842">
        <ele>826.55633463152</ele>
        <time>2021-11-02T14:39:23Z</time>
      </trkpt>
      <trkpt lat="43.89079" lon="7.56842">
        <ele>826.55636622256</ele>
        <time>2021-11-02T14:39:24Z</time>
      </trkpt>
      <trkpt lat="43.89078" lon="7.5684">
        <ele>826.55640367594</ele>
        <time>2021-11-02T14:39:25Z</time>
      </trkpt>
      <trkpt lat="43.89077" lon="7.56839">
        <ele>826.55643936509</ele>
        <time>2021-11-02T14:39:26Z</time>
      </trkpt>
      <trkpt lat="43.89076" lon="7.56839">
        <ele>826.55648707382</ele>
        <time>2021-11-02T14:39:27Z</time>
      </trkpt>
      <trkpt lat="43.89075" lon="7.56838">
        <ele>825.55653968084</ele>
        <time>2021-11-02T14:39:28Z</time>
      </trkpt>
      <trkpt lat="43.89074" lon="7.56837">
        <ele>825.55658570876</ele>
        <time>2021-11-02T14:39:29Z</time>
      </trkpt>
      <trkpt lat="43.89072" lon="7.56837">
        <ele>825.55664112938</ele>
        <time>2021-11-02T14:39:30Z</time>
      </trkpt>
      <trkpt lat="43.89071" lon="7.56836">
        <ele>825.55669857846</ele>
        <time>2021-11-02T14:39:31Z</time>
      </trkpt>
      <trkpt lat="43.8907" lon="7.56836">
        <ele>825.55674170622</ele>
        <time>2021-11-02T14:39:32Z</time>
      </trkpt>
      <trkpt lat="43.89069" lon="7.56835">
        <ele>825.5568088528</ele>
        <time>2021-11-02T14:39:33Z</time>
      </trkpt>
      <trkpt lat="43.89067" lon="7.56835">
        <ele>826.55687791397</ele>
        <time>2021-11-02T14:39:34Z</time>
      </trkpt>
      <trkpt lat="43.89066" lon="7.56835">
        <ele>825.55693029776</ele>
        <time>2021-11-02T14:39:35Z</time>
      </trkpt>
      <trkpt lat="43.89065" lon="7.56834">
        <ele>824.55697073</ele>
        <time>2021-11-02T14:39:36Z</time>
      </trkpt>
      <trkpt lat="43.89064" lon="7.56834">
        <ele>825.55702335405</ele>
        <time>2021-11-02T14:39:37Z</time>
      </trkpt>
      <trkpt lat="43.89063" lon="7.56832">
        <ele>824.55705492288</ele>
        <time>2021-11-02T14:39:39Z</time>
      </trkpt>
      <trkpt lat="43.89062" lon="7.56832">
        <ele>824.55710321571</ele>
        <time>2021-11-02T14:39:40Z</time>
      </trkpt>
      <trkpt lat="43.89061" lon="7.56831">
        <ele>823.55713220743</ele>
        <time>2021-11-02T14:39:41Z</time>
      </trkpt>
      <trkpt lat="43.8906" lon="7.56831">
        <ele>824.55716599985</ele>
        <time>2021-11-02T14:39:42Z</time>
      </trkpt>
      <trkpt lat="43.89059" lon="7.5683">
        <ele>824.55720400638</ele>
        <time>2021-11-02T14:39:43Z</time>
      </trkpt>
      <trkpt lat="43.89058" lon="7.56828">
        <ele>824.55723215101</ele>
        <time>2021-11-02T14:39:44Z</time>
      </trkpt>
      <trkpt lat="43.89057" lon="7.56827">
        <ele>824.5572545837</ele>
        <time>2021-11-02T14:39:45Z</time>
      </trkpt>
      <trkpt lat="43.89055" lon="7.56826">
        <ele>824.55733619185</ele>
        <time>2021-11-02T14:39:47Z</time>
      </trkpt>
      <trkpt lat="43.89054" lon="7.56825">
        <ele>824.55738057395</ele>
        <time>2021-11-02T14:39:48Z</time>
      </trkpt>
      <trkpt lat="43.89052" lon="7.56825">
        <ele>825.55744257529</ele>
        <time>2021-11-02T14:39:49Z</time>
      </trkpt>
      <trkpt lat="43.89051" lon="7.56824">
        <ele>825.55750206473</ele>
        <time>2021-11-02T14:39:50Z</time>
      </trkpt>
      <trkpt lat="43.8905" lon="7.56823">
        <ele>825.55755902974</ele>
        <time>2021-11-02T14:39:51Z</time>
      </trkpt>
      <trkpt lat="43.89048" lon="7.56821">
        <ele>826.55759223714</ele>
        <time>2021-11-02T14:39:53Z</time>
      </trkpt>
      <trkpt lat="43.89047" lon="7.56821">
        <ele>825.55763813966</ele>
        <time>2021-11-02T14:39:54Z</time>
      </trkpt>
      <trkpt lat="43.89046" lon="7.56819">
        <ele>825.55766467313</ele>
        <time>2021-11-02T14:39:55Z</time>
      </trkpt>
      <trkpt lat="43.89046" lon="7.56818">
        <ele>825.55767698153</ele>
        <time>2021-11-02T14:39:56Z</time>
      </trkpt>
      <trkpt lat="43.89045" lon="7.56818">
        <ele>825.55771772391</ele>
        <time>2021-11-02T14:39:57Z</time>
      </trkpt>
      <trkpt lat="43.89043" lon="7.56818">
        <ele>825.55778321324</ele>
        <time>2021-11-02T14:39:58Z</time>
      </trkpt>
      <trkpt lat="43.89043" lon="7.56818">
        <ele>825.55781910887</ele>
        <time>2021-11-02T14:39:59Z</time>
      </trkpt>
      <trkpt lat="43.89041" lon="7.56817">
        <ele>825.55788912208</ele>
        <time>2021-11-02T14:40:00Z</time>
      </trkpt>
      <trkpt lat="43.8904" lon="7.56817">
        <ele>825.55794206585</ele>
        <time>2021-11-02T14:40:01Z</time>
      </trkpt>
      <trkpt lat="43.89039" lon="7.56817">
        <ele>825.55800435304</ele>
        <time>2021-11-02T14:40:02Z</time>
      </trkpt>
      <trkpt lat="43.89037" lon="7.56816">
        <ele>826.55807892358</ele>
        <time>2021-11-02T14:40:03Z</time>
      </trkpt>
      <trkpt lat="43.89036" lon="7.56816">
        <ele>826.5581626934</ele>
        <time>2021-11-02T14:40:04Z</time>
      </trkpt>
      <trkpt lat="43.89034" lon="7.56816">
        <ele>826.55822019943</ele>
        <time>2021-11-02T14:40:05Z</time>
      </trkpt>
      <trkpt lat="43.89033" lon="7.56815">
        <ele>826.55825586289</ele>
        <time>2021-11-02T14:40:06Z</time>
      </trkpt>
      <trkpt lat="43.89031" lon="7.56814">
        <ele>825.55831891168</ele>
        <time>2021-11-02T14:40:08Z</time>
      </trkpt>
      <trkpt lat="43.8903" lon="7.56813">
        <ele>825.55835866453</ele>
        <time>2021-11-02T14:40:09Z</time>
      </trkpt>
      <trkpt lat="43.8903" lon="7.56812">
        <ele>826.55839293518</ele>
        <time>2021-11-02T14:40:10Z</time>
      </trkpt>
      <trkpt lat="43.89029" lon="7.56811">
        <ele>826.55839682323</ele>
        <time>2021-11-02T14:40:12Z</time>
      </trkpt>
      <trkpt lat="43.89028" lon="7.5681">
        <ele>825.55846017311</ele>
        <time>2021-11-02T14:40:14Z</time>
      </trkpt>
      <trkpt lat="43.89026" lon="7.5681">
        <ele>825.55851220276</ele>
        <time>2021-11-02T14:40:15Z</time>
      </trkpt>
      <trkpt lat="43.89026" lon="7.5681">
        <ele>825.55855865795</ele>
        <time>2021-11-02T14:40:16Z</time>
      </trkpt>
      <trkpt lat="43.89023" lon="7.56809">
        <ele>825.55865932748</ele>
        <time>2021-11-02T14:40:18Z</time>
      </trkpt>
      <trkpt lat="43.89022" lon="7.5681">
        <ele>825.55871206063</ele>
        <time>2021-11-02T14:40:19Z</time>
      </trkpt>
      <trkpt lat="43.89021" lon="7.5681">
        <ele>826.55877880095</ele>
        <time>2021-11-02T14:40:20Z</time>
      </trkpt>
      <trkpt lat="43.8902" lon="7.5681">
        <ele>826.55883446857</ele>
        <time>2021-11-02T14:40:21Z</time>
      </trkpt>
      <trkpt lat="43.89018" lon="7.5681">
        <ele>826.55891386212</ele>
        <time>2021-11-02T14:40:22Z</time>
      </trkpt>
      <trkpt lat="43.89017" lon="7.56809">
        <ele>827.5589706603</ele>
        <time>2021-11-02T14:40:23Z</time>
      </trkpt>
      <trkpt lat="43.89017" lon="7.56809">
        <ele>827.55899681933</ele>
        <time>2021-11-02T14:40:24Z</time>
      </trkpt>
      <trkpt lat="43.89016" lon="7.56809">
        <ele>826.55903449147</ele>
        <time>2021-11-02T14:40:25Z</time>
      </trkpt>
      <trkpt lat="43.89015" lon="7.5681">
        <ele>827.55908343037</ele>
        <time>2021-11-02T14:40:26Z</time>
      </trkpt>
      <trkpt lat="43.89014" lon="7.5681">
        <ele>827.55912390672</ele>
        <time>2021-11-02T14:40:27Z</time>
      </trkpt>
      <trkpt lat="43.89013" lon="7.56809">
        <ele>827.5591661921</ele>
        <time>2021-11-02T14:40:28Z</time>
      </trkpt>
      <trkpt lat="43.89013" lon="7.56809">
        <ele>827.55919674476</ele>
        <time>2021-11-02T14:40:29Z</time>
      </trkpt>
      <trkpt lat="43.89012" lon="7.56808">
        <ele>827.55923548266</ele>
        <time>2021-11-02T14:40:30Z</time>
      </trkpt>
      <trkpt lat="43.89011" lon="7.56807">
        <ele>827.55926721085</ele>
        <time>2021-11-02T14:40:31Z</time>
      </trkpt>
      <trkpt lat="43.8901" lon="7.56806">
        <ele>827.55929832574</ele>
        <time>2021-11-02T14:40:32Z</time>
      </trkpt>
      <trkpt lat="43.89009" lon="7.56805">
        <ele>828.55932368743</ele>
        <time>2021-11-02T14:40:33Z</time>
      </trkpt>
      <trkpt lat="43.89008" lon="7.56804">
        <ele>828.55933872214</ele>
        <time>2021-11-02T14:40:34Z</time>
      </trkpt>
      <trkpt lat="43.89007" lon="7.56804">
        <ele>828.55936593106</ele>
        <time>2021-11-02T14:40:35Z</time>
      </trkpt>
      <trkpt lat="43.89007" lon="7.56803">
        <ele>828.55938737631</ele>
        <time>2021-11-02T14:40:36Z</time>
      </trkpt>
      <trkpt lat="43.89005" lon="7.56802">
        <ele>828.55945077329</ele>
        <time>2021-11-02T14:40:38Z</time>
      </trkpt>
      <trkpt lat="43.89004" lon="7.56802">
        <ele>829.55948321849</ele>
        <time>2021-11-02T14:40:39Z</time>
      </trkpt>
      <trkpt lat="43.89004" lon="7.56801">
        <ele>830.55951320872</ele>
        <time>2021-11-02T14:40:40Z</time>
      </trkpt>
      <trkpt lat="43.89001" lon="7.568">
        <ele>830.55961205723</ele>
        <time>2021-11-02T14:40:42Z</time>
      </trkpt>
      <trkpt lat="43.89" lon="7.56799">
        <ele>830.55966120481</ele>
        <time>2021-11-02T14:40:44Z</time>
      </trkpt>
      <trkpt lat="43.88999" lon="7.56799">
        <ele>831.55970593155</ele>
        <time>2021-11-02T14:40:45Z</time>
      </trkpt>
      <trkpt lat="43.88998" lon="7.56798">
        <ele>830.55976557103</ele>
        <time>2021-11-02T14:40:46Z</time>
      </trkpt>
      <trkpt lat="43.88995" lon="7.56798">
        <ele>830.55987571236</ele>
        <time>2021-11-02T14:40:48Z</time>
      </trkpt>
      <trkpt lat="43.88994" lon="7.56798">
        <ele>830.55994794451</ele>
        <time>2021-11-02T14:40:49Z</time>
      </trkpt>
      <trkpt lat="43.88993" lon="7.56798">
        <ele>830.56000033189</ele>
        <time>2021-11-02T14:40:50Z</time>
      </trkpt>
      <trkpt lat="43.88992" lon="7.56797">
        <ele>830.56002591764</ele>
        <time>2021-11-02T14:40:51Z</time>
      </trkpt>
      <trkpt lat="43.88992" lon="7.56796">
        <ele>830.56005068126</ele>
        <time>2021-11-02T14:40:52Z</time>
      </trkpt>
      <trkpt lat="43.8899" lon="7.56796">
        <ele>830.56009666602</ele>
        <time>2021-11-02T14:40:53Z</time>
      </trkpt>
      <trkpt lat="43.88989" lon="7.56796">
        <ele>830.56016487656</ele>
        <time>2021-11-02T14:40:54Z</time>
      </trkpt>
      <trkpt lat="43.88988" lon="7.56796">
        <ele>831.56022352532</ele>
        <time>2021-11-02T14:40:55Z</time>
      </trkpt>
      <trkpt lat="43.88985" lon="7.56795">
        <ele>830.56033943769</ele>
        <time>2021-11-02T14:40:57Z</time>
      </trkpt>
      <trkpt lat="43.88985" lon="7.56794">
        <ele>831.56036818872</ele>
        <time>2021-11-02T14:40:58Z</time>
      </trkpt>
      <trkpt lat="43.88983" lon="7.56794">
        <ele>831.56041724834</ele>
        <time>2021-11-02T14:40:59Z</time>
      </trkpt>
      <trkpt lat="43.88982" lon="7.56793">
        <ele>830.56045623337</ele>
        <time>2021-11-02T14:41:00Z</time>
      </trkpt>
      <trkpt lat="43.88981" lon="7.56792">
        <ele>831.56049782294</ele>
        <time>2021-11-02T14:41:02Z</time>
      </trkpt>
      <trkpt lat="43.8898" lon="7.56791">
        <ele>831.56051286753</ele>
        <time>2021-11-02T14:41:03Z</time>
      </trkpt>
      <trkpt lat="43.8898" lon="7.56791">
        <ele>830.56054848164</ele>
        <time>2021-11-02T14:41:04Z</time>
      </trkpt>
      <trkpt lat="43.88978" lon="7.5679">
        <ele>830.56060256714</ele>
        <time>2021-11-02T14:41:05Z</time>
      </trkpt>
      <trkpt lat="43.88977" lon="7.5679">
        <ele>830.56064338013</ele>
        <time>2021-11-02T14:41:06Z</time>
      </trkpt>
      <trkpt lat="43.88976" lon="7.56789">
        <ele>830.5606863366</ele>
        <time>2021-11-02T14:41:07Z</time>
      </trkpt>
      <trkpt lat="43.88975" lon="7.56788">
        <ele>829.56075453754</ele>
        <time>2021-11-02T14:41:09Z</time>
      </trkpt>
      <trkpt lat="43.88974" lon="7.56787">
        <ele>829.56078584707</ele>
        <time>2021-11-02T14:41:10Z</time>
      </trkpt>
      <trkpt lat="43.88973" lon="7.56786">
        <ele>829.56080243957</ele>
        <time>2021-11-02T14:41:11Z</time>
      </trkpt>
      <trkpt lat="43.88971" lon="7.56786">
        <ele>829.56089538709</ele>
        <time>2021-11-02T14:41:13Z</time>
      </trkpt>
      <trkpt lat="43.8897" lon="7.56786">
        <ele>830.56093633953</ele>
        <time>2021-11-02T14:41:14Z</time>
      </trkpt>
      <trkpt lat="43.88969" lon="7.56785">
        <ele>830.56099221499</ele>
        <time>2021-11-02T14:41:15Z</time>
      </trkpt>
      <trkpt lat="43.88969" lon="7.56784">
        <ele>829.56100224218</ele>
        <time>2021-11-02T14:41:16Z</time>
      </trkpt>
      <trkpt lat="43.88967" lon="7.56783">
        <ele>828.56105617115</ele>
        <time>2021-11-02T14:41:18Z</time>
      </trkpt>
      <trkpt lat="43.88966" lon="7.56782">
        <ele>829.56109404834</ele>
        <time>2021-11-02T14:41:19Z</time>
      </trkpt>
      <trkpt lat="43.88966" lon="7.56782">
        <ele>829.56110984329</ele>
        <time>2021-11-02T14:41:20Z</time>
      </trkpt>
      <trkpt lat="43.88965" lon="7.56781">
        <ele>829.56113969091</ele>
        <time>2021-11-02T14:41:21Z</time>
      </trkpt>
      <trkpt lat="43.88964" lon="7.5678">
        <ele>829.56116101184</ele>
        <time>2021-11-02T14:41:22Z</time>
      </trkpt>
      <trkpt lat="43.88962" lon="7.56778">
        <ele>829.56124262113</ele>
        <time>2021-11-02T14:41:24Z</time>
      </trkpt>
      <trkpt lat="43.88961" lon="7.56778">
        <ele>829.56125562655</ele>
        <time>2021-11-02T14:41:25Z</time>
      </trkpt>
      <trkpt lat="43.88961" lon="7.56777">
        <ele>829.56127278878</ele>
        <time>2021-11-02T14:41:26Z</time>
      </trkpt>
      <trkpt lat="43.8896" lon="7.56775">
        <ele>829.56127465125</ele>
        <time>2021-11-02T14:41:27Z</time>
      </trkpt>
      <trkpt lat="43.8896" lon="7.56774">
        <ele>828.56127872517</ele>
        <time>2021-11-02T14:41:28Z</time>
      </trkpt>
      <trkpt lat="43.8896" lon="7.56774">
        <ele>828.56127269415</ele>
        <time>2021-11-02T14:41:29Z</time>
      </trkpt>
      <trkpt lat="43.8896" lon="7.56772">
        <ele>827.56123741944</ele>
        <time>2021-11-02T14:41:30Z</time>
      </trkpt>
      <trkpt lat="43.8896" lon="7.5677">
        <ele>827.56117642891</ele>
        <time>2021-11-02T14:41:31Z</time>
      </trkpt>
      <trkpt lat="43.8896" lon="7.56769">
        <ele>826.5611617203</ele>
        <time>2021-11-02T14:41:32Z</time>
      </trkpt>
      <trkpt lat="43.8896" lon="7.56768">
        <ele>826.56115981536</ele>
        <time>2021-11-02T14:41:33Z</time>
      </trkpt>
      <trkpt lat="43.8896" lon="7.56767">
        <ele>826.5611205062</ele>
        <time>2021-11-02T14:41:34Z</time>
      </trkpt>
      <trkpt lat="43.8896" lon="7.56765">
        <ele>826.56108309136</ele>
        <time>2021-11-02T14:41:35Z</time>
      </trkpt>
      <trkpt lat="43.88961" lon="7.56764">
        <ele>825.5610583611</ele>
        <time>2021-11-02T14:41:36Z</time>
      </trkpt>
      <trkpt lat="43.88961" lon="7.56763">
        <ele>825.56102866756</ele>
        <time>2021-11-02T14:41:37Z</time>
      </trkpt>
      <trkpt lat="43.88961" lon="7.56762">
        <ele>825.56098450277</ele>
        <time>2021-11-02T14:41:38Z</time>
      </trkpt>
      <trkpt lat="43.88961" lon="7.56761">
        <ele>824.56095508897</ele>
        <time>2021-11-02T14:41:39Z</time>
      </trkpt>
      <trkpt lat="43.88962" lon="7.5676">
        <ele>824.56090521548</ele>
        <time>2021-11-02T14:41:40Z</time>
      </trkpt>
      <trkpt lat="43.88963" lon="7.56759">
        <ele>824.56086094826</ele>
        <time>2021-11-02T14:41:41Z</time>
      </trkpt>
      <trkpt lat="43.88963" lon="7.56756">
        <ele>823.56080271311</ele>
        <time>2021-11-02T14:41:43Z</time>
      </trkpt>
      <trkpt lat="43.88963" lon="7.56755">
        <ele>824.56076979559</ele>
        <time>2021-11-02T14:41:44Z</time>
      </trkpt>
      <trkpt lat="43.88963" lon="7.56753">
        <ele>824.56074065619</ele>
        <time>2021-11-02T14:41:45Z</time>
      </trkpt>
      <trkpt lat="43.88963" lon="7.56751">
        <ele>823.56068507505</ele>
        <time>2021-11-02T14:41:46Z</time>
      </trkpt>
      <trkpt lat="43.88964" lon="7.5675">
        <ele>824.56061599293</ele>
        <time>2021-11-02T14:41:47Z</time>
      </trkpt>
      <trkpt lat="43.88965" lon="7.56749">
        <ele>824.56058169201</ele>
        <time>2021-11-02T14:41:48Z</time>
      </trkpt>
      <trkpt lat="43.88965" lon="7.56748">
        <ele>824.56053115584</ele>
        <time>2021-11-02T14:41:49Z</time>
      </trkpt>
      <trkpt lat="43.88966" lon="7.56747">
        <ele>824.56046918835</ele>
        <time>2021-11-02T14:41:50Z</time>
      </trkpt>
      <trkpt lat="43.88966" lon="7.56745">
        <ele>824.56042332429</ele>
        <time>2021-11-02T14:41:51Z</time>
      </trkpt>
      <trkpt lat="43.88967" lon="7.56744">
        <ele>825.56034421711</ele>
        <time>2021-11-02T14:41:53Z</time>
      </trkpt>
      <trkpt lat="43.88968" lon="7.56743">
        <ele>825.56030570655</ele>
        <time>2021-11-02T14:41:54Z</time>
      </trkpt>
      <trkpt lat="43.88968" lon="7.56743">
        <ele>825.56030570655</ele>
        <time>2021-11-02T14:41:55Z</time>
      </trkpt>
      <trkpt lat="43.88968" lon="7.56741">
        <ele>825.56027674145</ele>
        <time>2021-11-02T14:41:57Z</time>
      </trkpt>
      <trkpt lat="43.88969" lon="7.56738">
        <ele>825.56015713032</ele>
        <time>2021-11-02T14:41:59Z</time>
      </trkpt>
      <trkpt lat="43.88969" lon="7.56737">
        <ele>825.56013596008</ele>
        <time>2021-11-02T14:42:00Z</time>
      </trkpt>
      <trkpt lat="43.88969" lon="7.56736">
        <ele>824.5601411761</ele>
        <time>2021-11-02T14:42:01Z</time>
      </trkpt>
      <trkpt lat="43.88968" lon="7.56735">
        <ele>824.56015294221</ele>
        <time>2021-11-02T14:42:03Z</time>
      </trkpt>
      <trkpt lat="43.88968" lon="7.56735">
        <ele>824.56018109021</ele>
        <time>2021-11-02T14:42:04Z</time>
      </trkpt>
      <trkpt lat="43.88967" lon="7.56734">
        <ele>823.5601854023</ele>
        <time>2021-11-02T14:42:05Z</time>
      </trkpt>
      <trkpt lat="43.88967" lon="7.56732">
        <ele>823.56017924949</ele>
        <time>2021-11-02T14:42:06Z</time>
      </trkpt>
      <trkpt lat="43.88967" lon="7.5673">
        <ele>823.56014264524</ele>
        <time>2021-11-02T14:42:07Z</time>
      </trkpt>
      <trkpt lat="43.88967" lon="7.5673">
        <ele>823.56011555362</ele>
        <time>2021-11-02T14:42:10Z</time>
      </trkpt>
      <trkpt lat="43.88966" lon="7.5673">
        <ele>825.56017402464</ele>
        <time>2021-11-02T14:42:11Z</time>
      </trkpt>
      <trkpt lat="43.88966" lon="7.5673">
        <ele>825.56017266485</ele>
        <time>2021-11-02T14:42:15Z</time>
      </trkpt>
      <trkpt lat="43.88964" lon="7.5673">
        <ele>828.56025535756</ele>
        <time>2021-11-02T14:42:17Z</time>
      </trkpt>
      <trkpt lat="43.88964" lon="7.5673">
        <ele>828.56024972474</ele>
        <time>2021-11-02T14:42:18Z</time>
      </trkpt>
      <trkpt lat="43.88964" lon="7.56728">
        <ele>828.56026142674</ele>
        <time>2021-11-02T14:42:19Z</time>
      </trkpt>
      <trkpt lat="43.88964" lon="7.56726">
        <ele>828.560227579</ele>
        <time>2021-11-02T14:42:20Z</time>
      </trkpt>
      <trkpt lat="43.88964" lon="7.56725">
        <ele>828.56020950293</ele>
        <time>2021-11-02T14:42:21Z</time>
      </trkpt>
      <trkpt lat="43.88963" lon="7.56724">
        <ele>827.56020628906</ele>
        <time>2021-11-02T14:42:22Z</time>
      </trkpt>
      <trkpt lat="43.88963" lon="7.56723">
        <ele>827.56020586025</ele>
        <time>2021-11-02T14:42:23Z</time>
      </trkpt>
      <trkpt lat="43.88963" lon="7.56722">
        <ele>827.56018541397</ele>
        <time>2021-11-02T14:42:24Z</time>
      </trkpt>
      <trkpt lat="43.88963" lon="7.5672">
        <ele>827.56016395112</ele>
        <time>2021-11-02T14:42:25Z</time>
      </trkpt>
      <trkpt lat="43.88963" lon="7.56718">
        <ele>827.56011378689</ele>
        <time>2021-11-02T14:42:27Z</time>
      </trkpt>
      <trkpt lat="43.88963" lon="7.56717">
        <ele>827.5600809993</ele>
        <time>2021-11-02T14:42:34Z</time>
      </trkpt>
      <trkpt lat="43.88963" lon="7.56716">
        <ele>826.56007991675</ele>
        <time>2021-11-02T14:42:35Z</time>
      </trkpt>
      <trkpt lat="43.88963" lon="7.56715">
        <ele>826.56005487458</ele>
        <time>2021-11-02T14:42:36Z</time>
      </trkpt>
      <trkpt lat="43.88963" lon="7.56714">
        <ele>826.56002329826</ele>
        <time>2021-11-02T14:42:37Z</time>
      </trkpt>
      <trkpt lat="43.88963" lon="7.56713">
        <ele>826.55999986808</ele>
        <time>2021-11-02T14:42:41Z</time>
      </trkpt>
      <trkpt lat="43.88964" lon="7.56712">
        <ele>826.55997433249</ele>
        <time>2021-11-02T14:42:44Z</time>
      </trkpt>
      <trkpt lat="43.88964" lon="7.5671">
        <ele>826.5599303756</ele>
        <time>2021-11-02T14:42:45Z</time>
      </trkpt>
      <trkpt lat="43.88964" lon="7.5671">
        <ele>826.55991132652</ele>
        <time>2021-11-02T14:42:46Z</time>
      </trkpt>
      <trkpt lat="43.88965" lon="7.56709">
        <ele>826.55986587631</ele>
        <time>2021-11-02T14:42:47Z</time>
      </trkpt>
      <trkpt lat="43.88966" lon="7.56709">
        <ele>826.55981946949</ele>
        <time>2021-11-02T14:42:48Z</time>
      </trkpt>
      <trkpt lat="43.88966" lon="7.56708">
        <ele>825.55978163534</ele>
        <time>2021-11-02T14:42:49Z</time>
      </trkpt>
      <trkpt lat="43.88966" lon="7.56707">
        <ele>824.55976664535</ele>
        <time>2021-11-02T14:42:51Z</time>
      </trkpt>
      <trkpt lat="43.88966" lon="7.56706">
        <ele>825.55976984056</ele>
        <time>2021-11-02T14:42:53Z</time>
      </trkpt>
      <trkpt lat="43.88965" lon="7.56706">
        <ele>824.559795082</ele>
        <time>2021-11-02T14:42:54Z</time>
      </trkpt>
      <trkpt lat="43.88965" lon="7.56705">
        <ele>824.55980790639</ele>
        <time>2021-11-02T14:42:55Z</time>
      </trkpt>
      <trkpt lat="43.88964" lon="7.56704">
        <ele>824.55980454909</ele>
        <time>2021-11-02T14:42:56Z</time>
      </trkpt>
      <trkpt lat="43.88964" lon="7.56703">
        <ele>824.55979844362</ele>
        <time>2021-11-02T14:42:57Z</time>
      </trkpt>
      <trkpt lat="43.88964" lon="7.56702">
        <ele>824.55979566311</ele>
        <time>2021-11-02T14:42:58Z</time>
      </trkpt>
      <trkpt lat="43.88963" lon="7.56701">
        <ele>823.55979258055</ele>
        <time>2021-11-02T14:42:59Z</time>
      </trkpt>
      <trkpt lat="43.88964" lon="7.567">
        <ele>823.55975720917</ele>
        <time>2021-11-02T14:43:00Z</time>
      </trkpt>
      <trkpt lat="43.88965" lon="7.56701">
        <ele>823.55970534538</ele>
        <time>2021-11-02T14:43:01Z</time>
      </trkpt>
      <trkpt lat="43.88967" lon="7.56702">
        <ele>823.55964620391</ele>
        <time>2021-11-02T14:43:03Z</time>
      </trkpt>
      <trkpt lat="43.88968" lon="7.56702">
        <ele>823.55960078844</ele>
        <time>2021-11-02T14:43:04Z</time>
      </trkpt>
      <trkpt lat="43.88968" lon="7.56702">
        <ele>823.55955989522</ele>
        <time>2021-11-02T14:43:05Z</time>
      </trkpt>
      <trkpt lat="43.8897" lon="7.56701">
        <ele>823.55947365521</ele>
        <time>2021-11-02T14:43:07Z</time>
      </trkpt>
      <trkpt lat="43.88971" lon="7.567">
        <ele>823.55941473226</ele>
        <time>2021-11-02T14:43:08Z</time>
      </trkpt>
      <trkpt lat="43.88971" lon="7.567">
        <ele>823.5593612017</ele>
        <time>2021-11-02T14:43:09Z</time>
      </trkpt>
      <trkpt lat="43.88973" lon="7.56699">
        <ele>823.55930575964</ele>
        <time>2021-11-02T14:43:10Z</time>
      </trkpt>
      <trkpt lat="43.88974" lon="7.56698">
        <ele>823.55923168589</ele>
        <time>2021-11-02T14:43:12Z</time>
      </trkpt>
      <trkpt lat="43.88974" lon="7.56698">
        <ele>822.55918090373</ele>
        <time>2021-11-02T14:43:14Z</time>
      </trkpt>
      <trkpt lat="43.88975" lon="7.56697">
        <ele>822.55912435695</ele>
        <time>2021-11-02T14:43:15Z</time>
      </trkpt>
      <trkpt lat="43.88976" lon="7.56696">
        <ele>823.55908219088</ele>
        <time>2021-11-02T14:43:16Z</time>
      </trkpt>
      <trkpt lat="43.88976" lon="7.56696">
        <ele>823.5590470763</ele>
        <time>2021-11-02T14:43:17Z</time>
      </trkpt>
      <trkpt lat="43.88977" lon="7.56695">
        <ele>822.55898387208</ele>
        <time>2021-11-02T14:43:19Z</time>
      </trkpt>
      <trkpt lat="43.88977" lon="7.56694">
        <ele>822.55896333286</ele>
        <time>2021-11-02T14:43:20Z</time>
      </trkpt>
      <trkpt lat="43.88978" lon="7.56693">
        <ele>822.55893538312</ele>
        <time>2021-11-02T14:43:21Z</time>
      </trkpt>
      <trkpt lat="43.88978" lon="7.56692">
        <ele>822.55888494586</ele>
        <time>2021-11-02T14:43:23Z</time>
      </trkpt>
      <trkpt lat="43.88977" lon="7.56692">
        <ele>818.55893009985</ele>
        <time>2021-11-02T14:43:35Z</time>
      </trkpt>
      <trkpt lat="43.88977" lon="7.56692">
        <ele>816.55891711912</ele>
        <time>2021-11-02T14:43:37Z</time>
      </trkpt>
      <trkpt lat="43.88977" lon="7.5669">
        <ele>816.55891776606</ele>
        <time>2021-11-02T14:43:39Z</time>
      </trkpt>
      <trkpt lat="43.88978" lon="7.56689">
        <ele>816.55886571335</ele>
        <time>2021-11-02T14:43:40Z</time>
      </trkpt>
      <trkpt lat="43.88978" lon="7.56688">
        <ele>816.55883947521</ele>
        <time>2021-11-02T14:43:41Z</time>
      </trkpt>
      <trkpt lat="43.88978" lon="7.56687">
        <ele>816.55882849964</ele>
        <time>2021-11-02T14:43:42Z</time>
      </trkpt>
      <trkpt lat="43.88978" lon="7.56687">
        <ele>815.55881035503</ele>
        <time>2021-11-02T14:43:45Z</time>
      </trkpt>
      <trkpt lat="43.88979" lon="7.56686">
        <ele>816.55873627552</ele>
        <time>2021-11-02T14:43:46Z</time>
      </trkpt>
      <trkpt lat="43.8898" lon="7.56685">
        <ele>815.55869034589</ele>
        <time>2021-11-02T14:43:48Z</time>
      </trkpt>
      <trkpt lat="43.8898" lon="7.56684">
        <ele>814.55866697563</ele>
        <time>2021-11-02T14:43:49Z</time>
      </trkpt>
      <trkpt lat="43.8898" lon="7.56684">
        <ele>813.55865479211</ele>
        <time>2021-11-02T14:43:50Z</time>
      </trkpt>
      <trkpt lat="43.8898" lon="7.56682">
        <ele>813.558622472</ele>
        <time>2021-11-02T14:43:51Z</time>
      </trkpt>
      <trkpt lat="43.8898" lon="7.56681">
        <ele>813.55859852107</ele>
        <time>2021-11-02T14:43:52Z</time>
      </trkpt>
      <trkpt lat="43.88981" lon="7.56681">
        <ele>813.55856780976</ele>
        <time>2021-11-02T14:43:53Z</time>
      </trkpt>
      <trkpt lat="43.88981" lon="7.5668">
        <ele>812.55853511341</ele>
        <time>2021-11-02T14:43:54Z</time>
      </trkpt>
      <trkpt lat="43.8898" lon="7.56679">
        <ele>811.55855262458</ele>
        <time>2021-11-02T14:43:56Z</time>
      </trkpt>
      <trkpt lat="43.88979" lon="7.56679">
        <ele>810.55859424109</ele>
        <time>2021-11-02T14:43:58Z</time>
      </trkpt>
      <trkpt lat="43.88979" lon="7.56679">
        <ele>810.55859848959</ele>
        <time>2021-11-02T14:44:01Z</time>
      </trkpt>
      <trkpt lat="43.88979" lon="7.56679">
        <ele>809.55862140251</ele>
        <time>2021-11-02T14:44:06Z</time>
      </trkpt>
      <trkpt lat="43.88979" lon="7.56678">
        <ele>809.55862836472</ele>
        <time>2021-11-02T14:44:08Z</time>
      </trkpt>
      <trkpt lat="43.88978" lon="7.56678">
        <ele>809.55866284902</ele>
        <time>2021-11-02T14:44:11Z</time>
      </trkpt>
      <trkpt lat="43.88977" lon="7.56676">
        <ele>807.55867893905</ele>
        <time>2021-11-02T14:44:12Z</time>
      </trkpt>
      <trkpt lat="43.88977" lon="7.56676">
        <ele>806.55865143381</ele>
        <time>2021-11-02T14:44:14Z</time>
      </trkpt>
      <trkpt lat="43.88977" lon="7.56675">
        <ele>805.55863616155</ele>
        <time>2021-11-02T14:44:16Z</time>
      </trkpt>
      <trkpt lat="43.88977" lon="7.56673">
        <ele>804.55860393486</ele>
        <time>2021-11-02T14:44:18Z</time>
      </trkpt>
      <trkpt lat="43.88977" lon="7.56671">
        <ele>804.55856706923</ele>
        <time>2021-11-02T14:44:20Z</time>
      </trkpt>
      <trkpt lat="43.88978" lon="7.5667">
        <ele>804.55853167255</ele>
        <time>2021-11-02T14:44:21Z</time>
      </trkpt>
      <trkpt lat="43.88978" lon="7.5667">
        <ele>805.55850118361</ele>
        <time>2021-11-02T14:44:22Z</time>
      </trkpt>
      <trkpt lat="43.88979" lon="7.5667">
        <ele>806.55846987922</ele>
        <time>2021-11-02T14:44:24Z</time>
      </trkpt>
      <trkpt lat="43.88979" lon="7.56669">
        <ele>806.55844630364</ele>
        <time>2021-11-02T14:44:25Z</time>
      </trkpt>
      <trkpt lat="43.8898" lon="7.56669">
        <ele>805.55840815583</ele>
        <time>2021-11-02T14:44:26Z</time>
      </trkpt>
      <trkpt lat="43.8898" lon="7.56667">
        <ele>805.55838042791</ele>
        <time>2021-11-02T14:44:28Z</time>
      </trkpt>
      <trkpt lat="43.88979" lon="7.56667">
        <ele>805.55839106207</ele>
        <time>2021-11-02T14:44:30Z</time>
      </trkpt>
      <trkpt lat="43.88978" lon="7.56666">
        <ele>804.55844645613</ele>
        <time>2021-11-02T14:44:32Z</time>
      </trkpt>
      <trkpt lat="43.88977" lon="7.56667">
        <ele>803.55848733257</ele>
        <time>2021-11-02T14:44:36Z</time>
      </trkpt>
      <trkpt lat="43.88977" lon="7.56666">
        <ele>803.55850227935</ele>
        <time>2021-11-02T14:44:37Z</time>
      </trkpt>
      <trkpt lat="43.88976" lon="7.56665">
        <ele>803.55850934972</ele>
        <time>2021-11-02T14:44:38Z</time>
      </trkpt>
      <trkpt lat="43.88976" lon="7.56664">
        <ele>803.55850517067</ele>
        <time>2021-11-02T14:44:39Z</time>
      </trkpt>
      <trkpt lat="43.88976" lon="7.56663">
        <ele>803.55848361093</ele>
        <time>2021-11-02T14:44:40Z</time>
      </trkpt>
      <trkpt lat="43.88977" lon="7.56662">
        <ele>803.55843970219</ele>
        <time>2021-11-02T14:44:41Z</time>
      </trkpt>
      <trkpt lat="43.88977" lon="7.56661">
        <ele>803.55840074569</ele>
        <time>2021-11-02T14:44:42Z</time>
      </trkpt>
      <trkpt lat="43.88978" lon="7.56661">
        <ele>803.55835413753</ele>
        <time>2021-11-02T14:44:44Z</time>
      </trkpt>
      <trkpt lat="43.88979" lon="7.56661">
        <ele>803.55831952367</ele>
        <time>2021-11-02T14:44:45Z</time>
      </trkpt>
      <trkpt lat="43.88979" lon="7.56661">
        <ele>804.55829865343</ele>
        <time>2021-11-02T14:44:47Z</time>
      </trkpt>
      <trkpt lat="43.88979" lon="7.5666">
        <ele>804.55827582987</ele>
        <time>2021-11-02T14:44:48Z</time>
      </trkpt>
      <trkpt lat="43.8898" lon="7.5666">
        <ele>804.55824711881</ele>
        <time>2021-11-02T14:44:49Z</time>
      </trkpt>
      <trkpt lat="43.8898" lon="7.56659">
        <ele>802.55822810971</ele>
        <time>2021-11-02T14:44:52Z</time>
      </trkpt>
      <trkpt lat="43.88979" lon="7.56659">
        <ele>801.55827945994</ele>
        <time>2021-11-02T14:44:53Z</time>
      </trkpt>
      <trkpt lat="43.88978" lon="7.5666">
        <ele>801.55832078269</ele>
        <time>2021-11-02T14:44:54Z</time>
      </trkpt>
      <trkpt lat="43.88978" lon="7.56661">
        <ele>800.55837076366</ele>
        <time>2021-11-02T14:44:55Z</time>
      </trkpt>
      <trkpt lat="43.88977" lon="7.56661">
        <ele>799.55841093318</ele>
        <time>2021-11-02T14:44:56Z</time>
      </trkpt>
      <trkpt lat="43.88976" lon="7.56662">
        <ele>798.55847002143</ele>
        <time>2021-11-02T14:44:57Z</time>
      </trkpt>
      <trkpt lat="43.88975" lon="7.56662">
        <ele>798.55849725786</ele>
        <time>2021-11-02T14:44:58Z</time>
      </trkpt>
      <trkpt lat="43.88975" lon="7.56661">
        <ele>798.55850954133</ele>
        <time>2021-11-02T14:44:59Z</time>
      </trkpt>
      <trkpt lat="43.88974" lon="7.5666">
        <ele>798.55851277029</ele>
        <time>2021-11-02T14:45:00Z</time>
      </trkpt>
      <trkpt lat="43.88975" lon="7.56659">
        <ele>798.55846140461</ele>
        <time>2021-11-02T14:45:01Z</time>
      </trkpt>
      <trkpt lat="43.88976" lon="7.56658">
        <ele>798.55840614869</ele>
        <time>2021-11-02T14:45:02Z</time>
      </trkpt>
      <trkpt lat="43.88977" lon="7.56657">
        <ele>798.55835090995</ele>
        <time>2021-11-02T14:45:03Z</time>
      </trkpt>
      <trkpt lat="43.88977" lon="7.56657">
        <ele>798.55830595316</ele>
        <time>2021-11-02T14:45:04Z</time>
      </trkpt>
      <trkpt lat="43.88978" lon="7.56656">
        <ele>798.55824522253</ele>
        <time>2021-11-02T14:45:05Z</time>
      </trkpt>
      <trkpt lat="43.88979" lon="7.56654">
        <ele>797.55817970402</ele>
        <time>2021-11-02T14:45:06Z</time>
      </trkpt>
      <trkpt lat="43.8898" lon="7.56654">
        <ele>798.5581259336</ele>
        <time>2021-11-02T14:45:07Z</time>
      </trkpt>
      <trkpt lat="43.8898" lon="7.56653">
        <ele>798.55808464534</ele>
        <time>2021-11-02T14:45:08Z</time>
      </trkpt>
      <trkpt lat="43.88981" lon="7.56652">
        <ele>798.55804606884</ele>
        <time>2021-11-02T14:45:11Z</time>
      </trkpt>
      <trkpt lat="43.88983" lon="7.56651">
        <ele>797.55794576166</ele>
        <time>2021-11-02T14:45:12Z</time>
      </trkpt>
      <trkpt lat="43.88984" lon="7.56651">
        <ele>797.55789598518</ele>
        <time>2021-11-02T14:45:13Z</time>
      </trkpt>
      <trkpt lat="43.88985" lon="7.56651">
        <ele>797.55783330848</ele>
        <time>2021-11-02T14:45:14Z</time>
      </trkpt>
      <trkpt lat="43.88986" lon="7.5665">
        <ele>797.55775965602</ele>
        <time>2021-11-02T14:45:15Z</time>
      </trkpt>
      <trkpt lat="43.88987" lon="7.56649">
        <ele>796.55769506628</ele>
        <time>2021-11-02T14:45:16Z</time>
      </trkpt>
      <trkpt lat="43.88987" lon="7.56649">
        <ele>796.55765843922</ele>
        <time>2021-11-02T14:45:17Z</time>
      </trkpt>
      <trkpt lat="43.88988" lon="7.56649">
        <ele>796.55760609392</ele>
        <time>2021-11-02T14:45:18Z</time>
      </trkpt>
      <trkpt lat="43.8899" lon="7.56648">
        <ele>796.55752573527</ele>
        <time>2021-11-02T14:45:19Z</time>
      </trkpt>
      <trkpt lat="43.88991" lon="7.56647">
        <ele>796.55745143883</ele>
        <time>2021-11-02T14:45:20Z</time>
      </trkpt>
      <trkpt lat="43.88992" lon="7.56647">
        <ele>796.55738917757</ele>
        <time>2021-11-02T14:45:21Z</time>
      </trkpt>
      <trkpt lat="43.88993" lon="7.56646">
        <ele>797.55732796975</ele>
        <time>2021-11-02T14:45:22Z</time>
      </trkpt>
      <trkpt lat="43.88994" lon="7.56646">
        <ele>797.55729538291</ele>
        <time>2021-11-02T14:45:23Z</time>
      </trkpt>
      <trkpt lat="43.88994" lon="7.56646">
        <ele>798.55726149506</ele>
        <time>2021-11-02T14:45:24Z</time>
      </trkpt>
      <trkpt lat="43.88995" lon="7.56646">
        <ele>797.55721810507</ele>
        <time>2021-11-02T14:45:25Z</time>
      </trkpt>
      <trkpt lat="43.88996" lon="7.56645">
        <ele>797.55717551031</ele>
        <time>2021-11-02T14:45:26Z</time>
      </trkpt>
      <trkpt lat="43.88996" lon="7.56645">
        <ele>797.55713352523</ele>
        <time>2021-11-02T14:45:27Z</time>
      </trkpt>
      <trkpt lat="43.88996" lon="7.56644">
        <ele>796.55712814117</ele>
        <time>2021-11-02T14:45:32Z</time>
      </trkpt>
      <trkpt lat="43.88995" lon="7.56643">
        <ele>795.55719491745</ele>
        <time>2021-11-02T14:45:34Z</time>
      </trkpt>
      <trkpt lat="43.88993" lon="7.56643">
        <ele>795.55726241073</ele>
        <time>2021-11-02T14:45:35Z</time>
      </trkpt>
      <trkpt lat="43.88992" lon="7.56643">
        <ele>794.55730213416</ele>
        <time>2021-11-02T14:45:36Z</time>
      </trkpt>
      <trkpt lat="43.88992" lon="7.56643">
        <ele>793.55732349025</ele>
        <time>2021-11-02T14:45:37Z</time>
      </trkpt>
      <trkpt lat="43.88991" lon="7.56643">
        <ele>793.55734843549</ele>
        <time>2021-11-02T14:45:38Z</time>
      </trkpt>
      <trkpt lat="43.88991" lon="7.56643">
        <ele>792.55737880465</ele>
        <time>2021-11-02T14:45:39Z</time>
      </trkpt>
      <trkpt lat="43.8899" lon="7.56643">
        <ele>792.5574305319</ele>
        <time>2021-11-02T14:45:40Z</time>
      </trkpt>
      <trkpt lat="43.88989" lon="7.56643">
        <ele>792.5574803743</ele>
        <time>2021-11-02T14:45:41Z</time>
      </trkpt>
      <trkpt lat="43.88988" lon="7.56642">
        <ele>791.55753941447</ele>
        <time>2021-11-02T14:45:42Z</time>
      </trkpt>
      <trkpt lat="43.88986" lon="7.56643">
        <ele>790.55762928382</ele>
        <time>2021-11-02T14:45:44Z</time>
      </trkpt>
      <trkpt lat="43.88985" lon="7.56643">
        <ele>790.55765360969</ele>
        <time>2021-11-02T14:45:45Z</time>
      </trkpt>
      <trkpt lat="43.88985" lon="7.56642">
        <ele>790.55767758872</ele>
        <time>2021-11-02T14:45:46Z</time>
      </trkpt>
      <trkpt lat="43.88985" lon="7.5664">
        <ele>790.55761484847</ele>
        <time>2021-11-02T14:45:48Z</time>
      </trkpt>
      <trkpt lat="43.88987" lon="7.56638">
        <ele>790.55751638688</ele>
        <time>2021-11-02T14:45:50Z</time>
      </trkpt>
      <trkpt lat="43.88987" lon="7.56637">
        <ele>790.55746563246</ele>
        <time>2021-11-02T14:45:51Z</time>
      </trkpt>
      <trkpt lat="43.88988" lon="7.56637">
        <ele>791.55742402594</ele>
        <time>2021-11-02T14:45:52Z</time>
      </trkpt>
      <trkpt lat="43.88989" lon="7.56635">
        <ele>791.55735655279</ele>
        <time>2021-11-02T14:45:54Z</time>
      </trkpt>
      <trkpt lat="43.88989" lon="7.56634">
        <ele>791.55732111789</ele>
        <time>2021-11-02T14:45:55Z</time>
      </trkpt>
      <trkpt lat="43.8899" lon="7.56634">
        <ele>791.55728209679</ele>
        <time>2021-11-02T14:45:56Z</time>
      </trkpt>
      <trkpt lat="43.8899" lon="7.56633">
        <ele>791.55722878638</ele>
        <time>2021-11-02T14:45:58Z</time>
      </trkpt>
      <trkpt lat="43.88992" lon="7.56632">
        <ele>791.55713047341</ele>
        <time>2021-11-02T14:46:00Z</time>
      </trkpt>
      <trkpt lat="43.88993" lon="7.56631">
        <ele>791.55709137796</ele>
        <time>2021-11-02T14:46:01Z</time>
      </trkpt>
      <trkpt lat="43.88993" lon="7.56631">
        <ele>791.55705025247</ele>
        <time>2021-11-02T14:46:02Z</time>
      </trkpt>
      <trkpt lat="43.88995" lon="7.5663">
        <ele>791.55696441069</ele>
        <time>2021-11-02T14:46:04Z</time>
      </trkpt>
      <trkpt lat="43.88995" lon="7.5663">
        <ele>791.55692736647</ele>
        <time>2021-11-02T14:46:05Z</time>
      </trkpt>
      <trkpt lat="43.88996" lon="7.5663">
        <ele>791.55689690822</ele>
        <time>2021-11-02T14:46:06Z</time>
      </trkpt>
      <trkpt lat="43.88997" lon="7.56628">
        <ele>791.55681628214</ele>
        <time>2021-11-02T14:46:08Z</time>
      </trkpt>
      <trkpt lat="43.88998" lon="7.56627">
        <ele>791.55672503854</ele>
        <time>2021-11-02T14:46:10Z</time>
      </trkpt>
      <trkpt lat="43.88999" lon="7.56626">
        <ele>791.55667695213</ele>
        <time>2021-11-02T14:46:11Z</time>
      </trkpt>
      <trkpt lat="43.88999" lon="7.56625">
        <ele>790.556637055</ele>
        <time>2021-11-02T14:46:12Z</time>
      </trkpt>
      <trkpt lat="43.89001" lon="7.56624">
        <ele>790.5565335888</ele>
        <time>2021-11-02T14:46:14Z</time>
      </trkpt>
      <trkpt lat="43.89002" lon="7.56623">
        <ele>790.55646372421</ele>
        <time>2021-11-02T14:46:15Z</time>
      </trkpt>
      <trkpt lat="43.89003" lon="7.56622">
        <ele>791.55641604327</ele>
        <time>2021-11-02T14:46:16Z</time>
      </trkpt>
      <trkpt lat="43.89002" lon="7.56619">
        <ele>790.55638041657</ele>
        <time>2021-11-02T14:46:18Z</time>
      </trkpt>
      <trkpt lat="43.89003" lon="7.56619">
        <ele>790.5563519599</ele>
        <time>2021-11-02T14:46:19Z</time>
      </trkpt>
      <trkpt lat="43.89003" lon="7.5662">
        <ele>788.5563551017</ele>
        <time>2021-11-02T14:46:29Z</time>
      </trkpt>
      <trkpt lat="43.89002" lon="7.5662">
        <ele>787.55640053082</ele>
        <time>2021-11-02T14:46:31Z</time>
      </trkpt>
      <trkpt lat="43.89002" lon="7.5662">
        <ele>787.55642307976</ele>
        <time>2021-11-02T14:46:34Z</time>
      </trkpt>
      <trkpt lat="43.89001" lon="7.5662">
        <ele>786.55645246819</ele>
        <time>2021-11-02T14:46:35Z</time>
      </trkpt>
      <trkpt lat="43.88999" lon="7.56621">
        <ele>785.55655484469</ele>
        <time>2021-11-02T14:46:37Z</time>
      </trkpt>
      <trkpt lat="43.88998" lon="7.56621">
        <ele>784.55665603321</ele>
        <time>2021-11-02T14:46:39Z</time>
      </trkpt>
      <trkpt lat="43.88997" lon="7.56621">
        <ele>783.5567117272</ele>
        <time>2021-11-02T14:46:40Z</time>
      </trkpt>
      <trkpt lat="43.88996" lon="7.56622">
        <ele>784.55675706778</ele>
        <time>2021-11-02T14:46:41Z</time>
      </trkpt>
      <trkpt lat="43.88995" lon="7.56622">
        <ele>783.55679376086</ele>
        <time>2021-11-02T14:46:42Z</time>
      </trkpt>
      <trkpt lat="43.88994" lon="7.56622">
        <ele>782.55685774524</ele>
        <time>2021-11-02T14:46:44Z</time>
      </trkpt>
      <trkpt lat="43.88993" lon="7.56622">
        <ele>782.55689528967</ele>
        <time>2021-11-02T14:46:45Z</time>
      </trkpt>
      <trkpt lat="43.88993" lon="7.56622">
        <ele>781.55692512633</ele>
        <time>2021-11-02T14:46:46Z</time>
      </trkpt>
      <trkpt lat="43.88992" lon="7.56622">
        <ele>780.55696809536</ele>
        <time>2021-11-02T14:46:48Z</time>
      </trkpt>
      <trkpt lat="43.88989" lon="7.56621">
        <ele>779.55706080329</ele>
        <time>2021-11-02T14:46:50Z</time>
      </trkpt>
      <trkpt lat="43.88988" lon="7.5662">
        <ele>780.55708999031</ele>
        <time>2021-11-02T14:46:51Z</time>
      </trkpt>
      <trkpt lat="43.88988" lon="7.56619">
        <ele>779.55711848177</ele>
        <time>2021-11-02T14:46:52Z</time>
      </trkpt>
      <trkpt lat="43.88985" lon="7.56617">
        <ele>778.55724111786</ele>
        <time>2021-11-02T14:46:54Z</time>
      </trkpt>
      <trkpt lat="43.88984" lon="7.56618">
        <ele>778.55729033529</ele>
        <time>2021-11-02T14:46:55Z</time>
      </trkpt>
      <trkpt lat="43.88983" lon="7.56619">
        <ele>778.55734746133</ele>
        <time>2021-11-02T14:46:56Z</time>
      </trkpt>
      <trkpt lat="43.88982" lon="7.56619">
        <ele>777.55740898514</ele>
        <time>2021-11-02T14:46:57Z</time>
      </trkpt>
      <trkpt lat="43.88981" lon="7.5662">
        <ele>777.55746480548</ele>
        <time>2021-11-02T14:46:58Z</time>
      </trkpt>
      <trkpt lat="43.88979" lon="7.5662">
        <ele>775.55755972317</ele>
        <time>2021-11-02T14:47:00Z</time>
      </trkpt>
      <trkpt lat="43.88978" lon="7.5662">
        <ele>774.55762143053</ele>
        <time>2021-11-02T14:47:01Z</time>
      </trkpt>
      <trkpt lat="43.88977" lon="7.56621">
        <ele>774.55769340314</ele>
        <time>2021-11-02T14:47:02Z</time>
      </trkpt>
      <trkpt lat="43.88975" lon="7.56622">
        <ele>773.55779877187</ele>
        <time>2021-11-02T14:47:04Z</time>
      </trkpt>
      <trkpt lat="43.88975" lon="7.56622">
        <ele>773.55782442298</ele>
        <time>2021-11-02T14:47:06Z</time>
      </trkpt>
      <trkpt lat="43.88973" lon="7.56621">
        <ele>773.55790266654</ele>
        <time>2021-11-02T14:47:08Z</time>
      </trkpt>
      <trkpt lat="43.88971" lon="7.5662">
        <ele>772.55797636262</ele>
        <time>2021-11-02T14:47:09Z</time>
      </trkpt>
      <trkpt lat="43.8897" lon="7.56619">
        <ele>771.55801917219</ele>
        <time>2021-11-02T14:47:10Z</time>
      </trkpt>
      <trkpt lat="43.88967" lon="7.56618">
        <ele>771.55813149309</ele>
        <time>2021-11-02T14:47:12Z</time>
      </trkpt>
      <trkpt lat="43.88965" lon="7.56616">
        <ele>771.55821147313</ele>
        <time>2021-11-02T14:47:14Z</time>
      </trkpt>
      <trkpt lat="43.88964" lon="7.56616">
        <ele>771.55824866957</ele>
        <time>2021-11-02T14:47:15Z</time>
      </trkpt>
      <trkpt lat="43.88963" lon="7.56616">
        <ele>770.55833487771</ele>
        <time>2021-11-02T14:47:16Z</time>
      </trkpt>
      <trkpt lat="43.8896" lon="7.56615">
        <ele>770.55842631152</ele>
        <time>2021-11-02T14:47:18Z</time>
      </trkpt>
      <trkpt lat="43.88958" lon="7.56613">
        <ele>770.55849469862</ele>
        <time>2021-11-02T14:47:20Z</time>
      </trkpt>
      <trkpt lat="43.88957" lon="7.56612">
        <ele>769.55852236925</ele>
        <time>2021-11-02T14:47:21Z</time>
      </trkpt>
      <trkpt lat="43.88957" lon="7.56611">
        <ele>769.55852771722</ele>
        <time>2021-11-02T14:47:22Z</time>
      </trkpt>
      <trkpt lat="43.88956" lon="7.5661">
        <ele>769.55854014586</ele>
        <time>2021-11-02T14:47:23Z</time>
      </trkpt>
      <trkpt lat="43.88956" lon="7.56609">
        <ele>769.558557951</ele>
        <time>2021-11-02T14:47:24Z</time>
      </trkpt>
      <trkpt lat="43.88955" lon="7.56609">
        <ele>769.55857187584</ele>
        <time>2021-11-02T14:47:25Z</time>
      </trkpt>
      <trkpt lat="43.88955" lon="7.56608">
        <ele>769.55858939794</ele>
        <time>2021-11-02T14:47:26Z</time>
      </trkpt>
      <trkpt lat="43.88954" lon="7.56607">
        <ele>769.5586114428</ele>
        <time>2021-11-02T14:47:28Z</time>
      </trkpt>
      <trkpt lat="43.88953" lon="7.56607">
        <ele>769.5586687745</ele>
        <time>2021-11-02T14:47:30Z</time>
      </trkpt>
      <trkpt lat="43.88953" lon="7.56607">
        <ele>769.5586687745</ele>
        <time>2021-11-02T14:47:31Z</time>
      </trkpt>
      <trkpt lat="43.88951" lon="7.56606">
        <ele>769.55875052176</ele>
        <time>2021-11-02T14:47:32Z</time>
      </trkpt>
      <trkpt lat="43.8895" lon="7.56606">
        <ele>769.55879627927</ele>
        <time>2021-11-02T14:47:33Z</time>
      </trkpt>
      <trkpt lat="43.88948" lon="7.56606">
        <ele>767.55888226015</ele>
        <time>2021-11-02T14:47:34Z</time>
      </trkpt>
      <trkpt lat="43.88947" lon="7.56607">
        <ele>766.5589506066</ele>
        <time>2021-11-02T14:47:35Z</time>
      </trkpt>
      <trkpt lat="43.88946" lon="7.56606">
        <ele>766.55898480354</ele>
        <time>2021-11-02T14:47:36Z</time>
      </trkpt>
      <trkpt lat="43.88945" lon="7.56605">
        <ele>765.5590201393</ele>
        <time>2021-11-02T14:47:37Z</time>
      </trkpt>
      <trkpt lat="43.88944" lon="7.56604">
        <ele>765.55905376238</ele>
        <time>2021-11-02T14:47:38Z</time>
      </trkpt>
      <trkpt lat="43.88944" lon="7.56604">
        <ele>765.55906755958</ele>
        <time>2021-11-02T14:47:39Z</time>
      </trkpt>
      <trkpt lat="43.88943" lon="7.56603">
        <ele>765.55908744045</ele>
        <time>2021-11-02T14:47:40Z</time>
      </trkpt>
      <trkpt lat="43.88942" lon="7.56602">
        <ele>766.55910139361</ele>
        <time>2021-11-02T14:47:41Z</time>
      </trkpt>
      <trkpt lat="43.88942" lon="7.566">
        <ele>766.55911466475</ele>
        <time>2021-11-02T14:47:42Z</time>
      </trkpt>
      <trkpt lat="43.88941" lon="7.566">
        <ele>766.55913170208</ele>
        <time>2021-11-02T14:47:43Z</time>
      </trkpt>
      <trkpt lat="43.8894" lon="7.566">
        <ele>767.55918077602</ele>
        <time>2021-11-02T14:47:45Z</time>
      </trkpt>
      <trkpt lat="43.8894" lon="7.566">
        <ele>767.55920260145</ele>
        <time>2021-11-02T14:47:46Z</time>
      </trkpt>
      <trkpt lat="43.88939" lon="7.566">
        <ele>768.55922745597</ele>
        <time>2021-11-02T14:47:47Z</time>
      </trkpt>
      <trkpt lat="43.88938" lon="7.56599">
        <ele>766.55928017182</ele>
        <time>2021-11-02T14:47:49Z</time>
      </trkpt>
      <trkpt lat="43.88937" lon="7.56599">
        <ele>766.55931593751</ele>
        <time>2021-11-02T14:47:50Z</time>
      </trkpt>
      <trkpt lat="43.88937" lon="7.56599">
        <ele>766.55934165998</ele>
        <time>2021-11-02T14:47:51Z</time>
      </trkpt>
      <trkpt lat="43.88936" lon="7.56597">
        <ele>766.55935146101</ele>
        <time>2021-11-02T14:47:53Z</time>
      </trkpt>
      <trkpt lat="43.88936" lon="7.56596">
        <ele>766.55932280856</ele>
        <time>2021-11-02T14:47:56Z</time>
      </trkpt>
      <trkpt lat="43.88935" lon="7.56595">
        <ele>767.55933268733</ele>
        <time>2021-11-02T14:47:57Z</time>
      </trkpt>
      <trkpt lat="43.88934" lon="7.56594">
        <ele>767.55937206471</ele>
        <time>2021-11-02T14:47:59Z</time>
      </trkpt>
      <trkpt lat="43.88934" lon="7.56593">
        <ele>767.55937387687</ele>
        <time>2021-11-02T14:48:00Z</time>
      </trkpt>
      <trkpt lat="43.88934" lon="7.56592">
        <ele>767.55935071977</ele>
        <time>2021-11-02T14:48:01Z</time>
      </trkpt>
      <trkpt lat="43.88933" lon="7.56591">
        <ele>767.55940501873</ele>
        <time>2021-11-02T14:48:03Z</time>
      </trkpt>
      <trkpt lat="43.88931" lon="7.5659">
        <ele>764.55945502314</ele>
        <time>2021-11-02T14:48:05Z</time>
      </trkpt>
      <trkpt lat="43.88931" lon="7.5659">
        <ele>765.55949245171</ele>
        <time>2021-11-02T14:48:06Z</time>
      </trkpt>
      <trkpt lat="43.8893" lon="7.5659">
        <ele>765.55950225567</ele>
        <time>2021-11-02T14:48:07Z</time>
      </trkpt>
      <trkpt lat="43.8893" lon="7.5659">
        <ele>765.55955189592</ele>
        <time>2021-11-02T14:48:10Z</time>
      </trkpt>
      <trkpt lat="43.88929" lon="7.56591">
        <ele>765.559590401</ele>
        <time>2021-11-02T14:48:13Z</time>
      </trkpt>
      <trkpt lat="43.88928" lon="7.5659">
        <ele>764.55961362148</ele>
        <time>2021-11-02T14:48:15Z</time>
      </trkpt>
      <trkpt lat="43.88928" lon="7.56589">
        <ele>764.55962420305</ele>
        <time>2021-11-02T14:48:16Z</time>
      </trkpt>
      <trkpt lat="43.88927" lon="7.56588">
        <ele>764.55964582754</ele>
        <time>2021-11-02T14:48:17Z</time>
      </trkpt>
      <trkpt lat="43.88926" lon="7.56587">
        <ele>764.55967856375</ele>
        <time>2021-11-02T14:48:19Z</time>
      </trkpt>
      <trkpt lat="43.88925" lon="7.56587">
        <ele>764.55970627304</ele>
        <time>2021-11-02T14:48:20Z</time>
      </trkpt>
      <trkpt lat="43.88925" lon="7.56586">
        <ele>764.55971347769</ele>
        <time>2021-11-02T14:48:21Z</time>
      </trkpt>
      <trkpt lat="43.88924" lon="7.56585">
        <ele>763.55973330146</ele>
        <time>2021-11-02T14:48:23Z</time>
      </trkpt>
      <trkpt lat="43.88923" lon="7.56585">
        <ele>764.55980651751</ele>
        <time>2021-11-02T14:48:25Z</time>
      </trkpt>
      <trkpt lat="43.88922" lon="7.56584">
        <ele>765.5598187669</ele>
        <time>2021-11-02T14:48:26Z</time>
      </trkpt>
      <trkpt lat="43.88922" lon="7.56584">
        <ele>765.55984279052</ele>
        <time>2021-11-02T14:48:27Z</time>
      </trkpt>
      <trkpt lat="43.8892" lon="7.56582">
        <ele>765.55990371931</ele>
        <time>2021-11-02T14:48:29Z</time>
      </trkpt>
      <trkpt lat="43.88919" lon="7.56582">
        <ele>764.55994366352</ele>
        <time>2021-11-02T14:48:30Z</time>
      </trkpt>
      <trkpt lat="43.88918" lon="7.56582">
        <ele>764.5599913904</ele>
        <time>2021-11-02T14:48:31Z</time>
      </trkpt>
      <trkpt lat="43.88916" lon="7.56581">
        <ele>764.56007967913</ele>
        <time>2021-11-02T14:48:33Z</time>
      </trkpt>
      <trkpt lat="43.88914" lon="7.56582">
        <ele>763.56017155521</ele>
        <time>2021-11-02T14:48:35Z</time>
      </trkpt>
      <trkpt lat="43.88914" lon="7.56582">
        <ele>763.56021583747</ele>
        <time>2021-11-02T14:48:36Z</time>
      </trkpt>
      <trkpt lat="43.88912" lon="7.56582">
        <ele>763.56026801463</ele>
        <time>2021-11-02T14:48:37Z</time>
      </trkpt>
      <trkpt lat="43.88912" lon="7.56581">
        <ele>763.56029466025</ele>
        <time>2021-11-02T14:48:38Z</time>
      </trkpt>
      <trkpt lat="43.88911" lon="7.5658">
        <ele>763.5603210569</ele>
        <time>2021-11-02T14:48:39Z</time>
      </trkpt>
      <trkpt lat="43.8891" lon="7.5658">
        <ele>763.56035097919</ele>
        <time>2021-11-02T14:48:40Z</time>
      </trkpt>
      <trkpt lat="43.8891" lon="7.56579">
        <ele>762.5603580908</ele>
        <time>2021-11-02T14:48:41Z</time>
      </trkpt>
      <trkpt lat="43.88909" lon="7.56579">
        <ele>761.56038258114</ele>
        <time>2021-11-02T14:48:42Z</time>
      </trkpt>
      <trkpt lat="43.88909" lon="7.56579">
        <ele>761.56039896873</ele>
        <time>2021-11-02T14:48:43Z</time>
      </trkpt>
      <trkpt lat="43.88908" lon="7.56578">
        <ele>761.56043169533</ele>
        <time>2021-11-02T14:48:44Z</time>
      </trkpt>
      <trkpt lat="43.88907" lon="7.56577">
        <ele>760.56047986142</ele>
        <time>2021-11-02T14:48:45Z</time>
      </trkpt>
      <trkpt lat="43.88906" lon="7.56577">
        <ele>759.56052162646</ele>
        <time>2021-11-02T14:48:46Z</time>
      </trkpt>
      <trkpt lat="43.88905" lon="7.56577">
        <ele>760.5605573535</ele>
        <time>2021-11-02T14:48:47Z</time>
      </trkpt>
      <trkpt lat="43.88904" lon="7.56577">
        <ele>759.5605902596</ele>
        <time>2021-11-02T14:48:48Z</time>
      </trkpt>
      <trkpt lat="43.88904" lon="7.56577">
        <ele>759.56063730644</ele>
        <time>2021-11-02T14:48:49Z</time>
      </trkpt>
      <trkpt lat="43.88903" lon="7.56577">
        <ele>759.56066830673</ele>
        <time>2021-11-02T14:48:50Z</time>
      </trkpt>
      <trkpt lat="43.88902" lon="7.56577">
        <ele>760.56069641021</ele>
        <time>2021-11-02T14:48:51Z</time>
      </trkpt>
      <trkpt lat="43.88902" lon="7.56577">
        <ele>760.56072050701</ele>
        <time>2021-11-02T14:48:52Z</time>
      </trkpt>
      <trkpt lat="43.889" lon="7.56575">
        <ele>759.56077598587</ele>
        <time>2021-11-02T14:48:54Z</time>
      </trkpt>
      <trkpt lat="43.88899" lon="7.56575">
        <ele>759.56084138605</ele>
        <time>2021-11-02T14:48:55Z</time>
      </trkpt>
      <trkpt lat="43.88897" lon="7.56574">
        <ele>759.56090254217</ele>
        <time>2021-11-02T14:48:56Z</time>
      </trkpt>
      <trkpt lat="43.88896" lon="7.56574">
        <ele>759.56097359761</ele>
        <time>2021-11-02T14:48:58Z</time>
      </trkpt>
      <trkpt lat="43.88894" lon="7.56574">
        <ele>758.56105143818</ele>
        <time>2021-11-02T14:49:00Z</time>
      </trkpt>
      <trkpt lat="43.88893" lon="7.56574">
        <ele>758.56108717921</ele>
        <time>2021-11-02T14:49:01Z</time>
      </trkpt>
      <trkpt lat="43.88893" lon="7.56574">
        <ele>758.56111290598</ele>
        <time>2021-11-02T14:49:02Z</time>
      </trkpt>
      <trkpt lat="43.88892" lon="7.56574">
        <ele>758.56115841002</ele>
        <time>2021-11-02T14:49:04Z</time>
      </trkpt>
      <trkpt lat="43.88891" lon="7.56574">
        <ele>758.56118103345</ele>
        <time>2021-11-02T14:49:05Z</time>
      </trkpt>
      <trkpt lat="43.8889" lon="7.56572">
        <ele>758.56121530711</ele>
        <time>2021-11-02T14:49:06Z</time>
      </trkpt>
      <trkpt lat="43.88888" lon="7.56572">
        <ele>757.56130786685</ele>
        <time>2021-11-02T14:49:08Z</time>
      </trkpt>
      <trkpt lat="43.88887" lon="7.56571">
        <ele>756.56134611608</ele>
        <time>2021-11-02T14:49:10Z</time>
      </trkpt>
      <trkpt lat="43.88887" lon="7.5657">
        <ele>755.56135570806</ele>
        <time>2021-11-02T14:49:12Z</time>
      </trkpt>
      <trkpt lat="43.88886" lon="7.5657">
        <ele>755.56139307175</ele>
        <time>2021-11-02T14:49:13Z</time>
      </trkpt>
      <trkpt lat="43.88885" lon="7.56568">
        <ele>755.56142406972</ele>
        <time>2021-11-02T14:49:14Z</time>
      </trkpt>
      <trkpt lat="43.88884" lon="7.56568">
        <ele>755.56145656072</ele>
        <time>2021-11-02T14:49:15Z</time>
      </trkpt>
      <trkpt lat="43.88883" lon="7.56567">
        <ele>756.56148013476</ele>
        <time>2021-11-02T14:49:16Z</time>
      </trkpt>
      <trkpt lat="43.88881" lon="7.56566">
        <ele>755.56156066637</ele>
        <time>2021-11-02T14:49:18Z</time>
      </trkpt>
      <trkpt lat="43.88881" lon="7.56567">
        <ele>755.56158761536</ele>
        <time>2021-11-02T14:49:20Z</time>
      </trkpt>
      <trkpt lat="43.8888" lon="7.56566">
        <ele>755.56161688851</ele>
        <time>2021-11-02T14:49:21Z</time>
      </trkpt>
      <trkpt lat="43.8888" lon="7.56566">
        <ele>754.56162993447</ele>
        <time>2021-11-02T14:49:22Z</time>
      </trkpt>
      <trkpt lat="43.88878" lon="7.56564">
        <ele>754.56167219559</ele>
        <time>2021-11-02T14:49:24Z</time>
      </trkpt>
      <trkpt lat="43.88878" lon="7.56565">
        <ele>754.56170077061</ele>
        <time>2021-11-02T14:49:25Z</time>
      </trkpt>
      <trkpt lat="43.88877" lon="7.56564">
        <ele>755.56173390397</ele>
        <time>2021-11-02T14:49:26Z</time>
      </trkpt>
      <trkpt lat="43.88877" lon="7.56565">
        <ele>755.56175823036</ele>
        <time>2021-11-02T14:49:27Z</time>
      </trkpt>
      <trkpt lat="43.88876" lon="7.56565">
        <ele>755.56178680398</ele>
        <time>2021-11-02T14:49:28Z</time>
      </trkpt>
      <trkpt lat="43.88874" lon="7.56564">
        <ele>754.56187589043</ele>
        <time>2021-11-02T14:49:30Z</time>
      </trkpt>
      <trkpt lat="43.88874" lon="7.56564">
        <ele>754.56191071302</ele>
        <time>2021-11-02T14:49:31Z</time>
      </trkpt>
      <trkpt lat="43.88873" lon="7.56565">
        <ele>754.5619647066</ele>
        <time>2021-11-02T14:49:32Z</time>
      </trkpt>
      <trkpt lat="43.88872" lon="7.56564">
        <ele>754.56201853529</ele>
        <time>2021-11-02T14:49:33Z</time>
      </trkpt>
      <trkpt lat="43.8887" lon="7.56564">
        <ele>754.56207938294</ele>
        <time>2021-11-02T14:49:34Z</time>
      </trkpt>
      <trkpt lat="43.88869" lon="7.56564">
        <ele>754.56212770233</ele>
        <time>2021-11-02T14:49:35Z</time>
      </trkpt>
      <trkpt lat="43.88869" lon="7.56564">
        <ele>755.56216338687</ele>
        <time>2021-11-02T14:49:36Z</time>
      </trkpt>
      <trkpt lat="43.88868" lon="7.56564">
        <ele>755.56219845881</ele>
        <time>2021-11-02T14:49:37Z</time>
      </trkpt>
      <trkpt lat="43.88867" lon="7.56563">
        <ele>755.56221290729</ele>
        <time>2021-11-02T14:49:38Z</time>
      </trkpt>
      <trkpt lat="43.88867" lon="7.56562">
        <ele>755.56222723915</ele>
        <time>2021-11-02T14:49:39Z</time>
      </trkpt>
      <trkpt lat="43.88865" lon="7.56561">
        <ele>755.56227459091</ele>
        <time>2021-11-02T14:49:40Z</time>
      </trkpt>
      <trkpt lat="43.88864" lon="7.56561">
        <ele>755.56232674234</ele>
        <time>2021-11-02T14:49:41Z</time>
      </trkpt>
      <trkpt lat="43.88864" lon="7.5656">
        <ele>755.5623325843</ele>
        <time>2021-11-02T14:49:42Z</time>
      </trkpt>
      <trkpt lat="43.88863" lon="7.56559">
        <ele>754.56233520275</ele>
        <time>2021-11-02T14:49:44Z</time>
      </trkpt>
      <trkpt lat="43.88863" lon="7.56559">
        <ele>755.56237145152</ele>
        <time>2021-11-02T14:49:45Z</time>
      </trkpt>
      <trkpt lat="43.88862" lon="7.56559">
        <ele>754.56241011575</ele>
        <time>2021-11-02T14:49:48Z</time>
      </trkpt>
      <trkpt lat="43.88862" lon="7.56558">
        <ele>754.56240076734</ele>
        <time>2021-11-02T14:49:49Z</time>
      </trkpt>
      <trkpt lat="43.88861" lon="7.56557">
        <ele>754.5624026589</ele>
        <time>2021-11-02T14:49:50Z</time>
      </trkpt>
      <trkpt lat="43.88861" lon="7.56556">
        <ele>754.56240976482</ele>
        <time>2021-11-02T14:49:53Z</time>
      </trkpt>
      <trkpt lat="43.88859" lon="7.56555">
        <ele>754.56248096671</ele>
        <time>2021-11-02T14:49:54Z</time>
      </trkpt>
      <trkpt lat="43.88858" lon="7.56554">
        <ele>754.56250339012</ele>
        <time>2021-11-02T14:49:55Z</time>
      </trkpt>
      <trkpt lat="43.88858" lon="7.56553">
        <ele>754.56248712833</ele>
        <time>2021-11-02T14:49:56Z</time>
      </trkpt>
      <trkpt lat="43.88858" lon="7.56552">
        <ele>754.5625013466</ele>
        <time>2021-11-02T14:49:58Z</time>
      </trkpt>
      <trkpt lat="43.88857" lon="7.56552">
        <ele>754.56253115357</ele>
        <time>2021-11-02T14:49:59Z</time>
      </trkpt>
      <trkpt lat="43.88856" lon="7.56552">
        <ele>755.56257655144</ele>
        <time>2021-11-02T14:50:00Z</time>
      </trkpt>
      <trkpt lat="43.88855" lon="7.56551">
        <ele>755.56260297672</ele>
        <time>2021-11-02T14:50:02Z</time>
      </trkpt>
      <trkpt lat="43.88855" lon="7.56551">
        <ele>755.56259911194</ele>
        <time>2021-11-02T14:50:03Z</time>
      </trkpt>
      <trkpt lat="43.88855" lon="7.5655">
        <ele>755.56257198577</ele>
        <time>2021-11-02T14:50:04Z</time>
      </trkpt>
      <trkpt lat="43.88855" lon="7.56549">
        <ele>755.56259388182</ele>
        <time>2021-11-02T14:50:05Z</time>
      </trkpt>
      <trkpt lat="43.88854" lon="7.56549">
        <ele>754.56261529934</ele>
        <time>2021-11-02T14:50:06Z</time>
      </trkpt>
      <trkpt lat="43.88854" lon="7.56549">
        <ele>754.56264643954</ele>
        <time>2021-11-02T14:50:07Z</time>
      </trkpt>
      <trkpt lat="43.88853" lon="7.56549">
        <ele>754.56267655114</ele>
        <time>2021-11-02T14:50:09Z</time>
      </trkpt>
      <trkpt lat="43.88853" lon="7.56548">
        <ele>753.56266104936</ele>
        <time>2021-11-02T14:50:11Z</time>
      </trkpt>
      <trkpt lat="43.88853" lon="7.56548">
        <ele>752.56267375597</ele>
        <time>2021-11-02T14:50:12Z</time>
      </trkpt>
      <trkpt lat="43.88852" lon="7.56547">
        <ele>752.56269644074</ele>
        <time>2021-11-02T14:50:13Z</time>
      </trkpt>
      <trkpt lat="43.88851" lon="7.56547">
        <ele>751.56274482544</ele>
        <time>2021-11-02T14:50:14Z</time>
      </trkpt>
      <trkpt lat="43.8885" lon="7.56546">
        <ele>751.56278330334</ele>
        <time>2021-11-02T14:50:15Z</time>
      </trkpt>
      <trkpt lat="43.88849" lon="7.56546">
        <ele>751.56283305418</ele>
        <time>2021-11-02T14:50:16Z</time>
      </trkpt>
      <trkpt lat="43.88848" lon="7.56547">
        <ele>751.56288447609</ele>
        <time>2021-11-02T14:50:17Z</time>
      </trkpt>
      <trkpt lat="43.88847" lon="7.56547">
        <ele>751.56292746696</ele>
        <time>2021-11-02T14:50:18Z</time>
      </trkpt>
      <trkpt lat="43.88847" lon="7.56546">
        <ele>751.56294649891</ele>
        <time>2021-11-02T14:50:19Z</time>
      </trkpt>
      <trkpt lat="43.88846" lon="7.56546">
        <ele>751.56296978596</ele>
        <time>2021-11-02T14:50:20Z</time>
      </trkpt>
      <trkpt lat="43.88846" lon="7.56546">
        <ele>751.56299166713</ele>
        <time>2021-11-02T14:50:21Z</time>
      </trkpt>
      <trkpt lat="43.88845" lon="7.56545">
        <ele>751.56303576397</ele>
        <time>2021-11-02T14:50:22Z</time>
      </trkpt>
      <trkpt lat="43.88844" lon="7.56545">
        <ele>751.56307453015</ele>
        <time>2021-11-02T14:50:23Z</time>
      </trkpt>
      <trkpt lat="43.88843" lon="7.56545">
        <ele>751.56312877817</ele>
        <time>2021-11-02T14:50:24Z</time>
      </trkpt>
      <trkpt lat="43.88842" lon="7.56545">
        <ele>752.56317647893</ele>
        <time>2021-11-02T14:50:25Z</time>
      </trkpt>
      <trkpt lat="43.88841" lon="7.56544">
        <ele>752.56320077652</ele>
        <time>2021-11-02T14:50:28Z</time>
      </trkpt>
      <trkpt lat="43.8884" lon="7.56544">
        <ele>752.56323128526</ele>
        <time>2021-11-02T14:50:29Z</time>
      </trkpt>
      <trkpt lat="43.8884" lon="7.56544">
        <ele>750.56325556531</ele>
        <time>2021-11-02T14:50:31Z</time>
      </trkpt>
      <trkpt lat="43.88839" lon="7.56543">
        <ele>751.56326770384</ele>
        <time>2021-11-02T14:50:32Z</time>
      </trkpt>
      <trkpt lat="43.88838" lon="7.56542">
        <ele>750.56330751958</ele>
        <time>2021-11-02T14:50:33Z</time>
      </trkpt>
      <trkpt lat="43.88838" lon="7.56542">
        <ele>750.56333946282</ele>
        <time>2021-11-02T14:50:34Z</time>
      </trkpt>
      <trkpt lat="43.88837" lon="7.56542">
        <ele>750.56336620991</ele>
        <time>2021-11-02T14:50:35Z</time>
      </trkpt>
      <trkpt lat="43.88836" lon="7.56542">
        <ele>749.56340145273</ele>
        <time>2021-11-02T14:50:36Z</time>
      </trkpt>
      <trkpt lat="43.88835" lon="7.56542">
        <ele>749.5634480642</ele>
        <time>2021-11-02T14:50:37Z</time>
      </trkpt>
      <trkpt lat="43.88835" lon="7.56542">
        <ele>749.56347624655</ele>
        <time>2021-11-02T14:50:38Z</time>
      </trkpt>
      <trkpt lat="43.88834" lon="7.56542">
        <ele>749.56350237225</ele>
        <time>2021-11-02T14:50:39Z</time>
      </trkpt>
      <trkpt lat="43.88834" lon="7.56543">
        <ele>749.56353627778</ele>
        <time>2021-11-02T14:50:40Z</time>
      </trkpt>
      <trkpt lat="43.88833" lon="7.56543">
        <ele>749.56357402552</ele>
        <time>2021-11-02T14:50:44Z</time>
      </trkpt>
      <trkpt lat="43.88832" lon="7.56542">
        <ele>748.56362656908</ele>
        <time>2021-11-02T14:50:45Z</time>
      </trkpt>
      <trkpt lat="43.88831" lon="7.56542">
        <ele>748.56367660154</ele>
        <time>2021-11-02T14:50:46Z</time>
      </trkpt>
      <trkpt lat="43.8883" lon="7.56542">
        <ele>748.56369324069</ele>
        <time>2021-11-02T14:50:47Z</time>
      </trkpt>
      <trkpt lat="43.8883" lon="7.56541">
        <ele>747.56367752093</ele>
        <time>2021-11-02T14:50:48Z</time>
      </trkpt>
      <trkpt lat="43.88831" lon="7.56539">
        <ele>746.56363601773</ele>
        <time>2021-11-02T14:50:49Z</time>
      </trkpt>
      <trkpt lat="43.8883" lon="7.56538">
        <ele>745.56364987032</ele>
        <time>2021-11-02T14:50:50Z</time>
      </trkpt>
      <trkpt lat="43.8883" lon="7.56538">
        <ele>745.56366240898</ele>
        <time>2021-11-02T14:50:51Z</time>
      </trkpt>
      <trkpt lat="43.88829" lon="7.56536">
        <ele>745.56364759327</ele>
        <time>2021-11-02T14:50:52Z</time>
      </trkpt>
      <trkpt lat="43.8883" lon="7.56534">
        <ele>744.56360482114</ele>
        <time>2021-11-02T14:50:53Z</time>
      </trkpt>
      <trkpt lat="43.8883" lon="7.56533">
        <ele>744.56356132935</ele>
        <time>2021-11-02T14:50:54Z</time>
      </trkpt>
      <trkpt lat="43.88831" lon="7.56533">
        <ele>744.56351428091</ele>
        <time>2021-11-02T14:50:55Z</time>
      </trkpt>
      <trkpt lat="43.88831" lon="7.56532">
        <ele>744.56348313571</ele>
        <time>2021-11-02T14:50:56Z</time>
      </trkpt>
      <trkpt lat="43.88831" lon="7.56531">
        <ele>743.56348996032</ele>
        <time>2021-11-02T14:50:58Z</time>
      </trkpt>
      <trkpt lat="43.8883" lon="7.56531">
        <ele>742.56353721658</ele>
        <time>2021-11-02T14:51:00Z</time>
      </trkpt>
      <trkpt lat="43.88829" lon="7.56531">
        <ele>742.56356965513</ele>
        <time>2021-11-02T14:51:04Z</time>
      </trkpt>
      <trkpt lat="43.88828" lon="7.56531">
        <ele>743.56361556992</ele>
        <time>2021-11-02T14:51:05Z</time>
      </trkpt>
      <trkpt lat="43.88827" lon="7.56531">
        <ele>743.56367631714</ele>
        <time>2021-11-02T14:51:06Z</time>
      </trkpt>
      <trkpt lat="43.88826" lon="7.56529">
        <ele>743.56367926449</ele>
        <time>2021-11-02T14:51:07Z</time>
      </trkpt>
      <trkpt lat="43.88826" lon="7.56529">
        <ele>742.56369134316</ele>
        <time>2021-11-02T14:51:08Z</time>
      </trkpt>
      <trkpt lat="43.88825" lon="7.56529">
        <ele>742.56371192561</ele>
        <time>2021-11-02T14:51:09Z</time>
      </trkpt>
      <trkpt lat="43.88825" lon="7.56528">
        <ele>741.56372907345</ele>
        <time>2021-11-02T14:51:10Z</time>
      </trkpt>
      <trkpt lat="43.88825" lon="7.56527">
        <ele>741.56371753021</ele>
        <time>2021-11-02T14:51:11Z</time>
      </trkpt>
      <trkpt lat="43.88824" lon="7.56526">
        <ele>740.5637152313</ele>
        <time>2021-11-02T14:51:12Z</time>
      </trkpt>
      <trkpt lat="43.88824" lon="7.56524">
        <ele>740.56368712705</ele>
        <time>2021-11-02T14:51:13Z</time>
      </trkpt>
      <trkpt lat="43.88824" lon="7.56523">
        <ele>739.56367334658</ele>
        <time>2021-11-02T14:51:14Z</time>
      </trkpt>
      <trkpt lat="43.88824" lon="7.56522">
        <ele>739.56368994545</ele>
        <time>2021-11-02T14:51:15Z</time>
      </trkpt>
      <trkpt lat="43.88823" lon="7.56522">
        <ele>738.56371885322</ele>
        <time>2021-11-02T14:51:16Z</time>
      </trkpt>
      <trkpt lat="43.88823" lon="7.56522">
        <ele>738.56373407521</ele>
        <time>2021-11-02T14:51:17Z</time>
      </trkpt>
      <trkpt lat="43.88822" lon="7.56522">
        <ele>737.56377144864</ele>
        <time>2021-11-02T14:51:18Z</time>
      </trkpt>
      <trkpt lat="43.88821" lon="7.56522">
        <ele>738.56380708151</ele>
        <time>2021-11-02T14:51:19Z</time>
      </trkpt>
      <trkpt lat="43.8882" lon="7.56521">
        <ele>737.56383245756</ele>
        <time>2021-11-02T14:51:20Z</time>
      </trkpt>
      <trkpt lat="43.8882" lon="7.56521">
        <ele>736.56385475041</ele>
        <time>2021-11-02T14:51:21Z</time>
      </trkpt>
      <trkpt lat="43.88819" lon="7.5652">
        <ele>736.56386540311</ele>
        <time>2021-11-02T14:51:22Z</time>
      </trkpt>
      <trkpt lat="43.88818" lon="7.56519">
        <ele>735.56393029904</ele>
        <time>2021-11-02T14:51:24Z</time>
      </trkpt>
      <trkpt lat="43.88817" lon="7.5652">
        <ele>736.56395690875</ele>
        <time>2021-11-02T14:51:25Z</time>
      </trkpt>
      <trkpt lat="43.88817" lon="7.5652">
        <ele>735.56399911847</ele>
        <time>2021-11-02T14:51:26Z</time>
      </trkpt>
      <trkpt lat="43.88816" lon="7.56519">
        <ele>736.56401876117</ele>
        <time>2021-11-02T14:51:27Z</time>
      </trkpt>
      <trkpt lat="43.88815" lon="7.56519">
        <ele>735.5640494206</ele>
        <time>2021-11-02T14:51:28Z</time>
      </trkpt>
      <trkpt lat="43.88814" lon="7.56519">
        <ele>735.56410176812</ele>
        <time>2021-11-02T14:51:29Z</time>
      </trkpt>
      <trkpt lat="43.88814" lon="7.56519">
        <ele>734.56413188675</ele>
        <time>2021-11-02T14:51:30Z</time>
      </trkpt>
      <trkpt lat="43.88812" lon="7.56518">
        <ele>734.56416819222</ele>
        <time>2021-11-02T14:51:31Z</time>
      </trkpt>
      <trkpt lat="43.88812" lon="7.56517">
        <ele>734.56420026359</ele>
        <time>2021-11-02T14:51:32Z</time>
      </trkpt>
      <trkpt lat="43.88811" lon="7.56517">
        <ele>734.56424491704</ele>
        <time>2021-11-02T14:51:33Z</time>
      </trkpt>
      <trkpt lat="43.8881" lon="7.56517">
        <ele>734.56426294555</ele>
        <time>2021-11-02T14:51:34Z</time>
      </trkpt>
      <trkpt lat="43.88809" lon="7.56517">
        <ele>734.56431916678</ele>
        <time>2021-11-02T14:51:35Z</time>
      </trkpt>
      <trkpt lat="43.88808" lon="7.56516">
        <ele>734.56436400576</ele>
        <time>2021-11-02T14:51:36Z</time>
      </trkpt>
      <trkpt lat="43.88807" lon="7.56516">
        <ele>733.56441238673</ele>
        <time>2021-11-02T14:51:37Z</time>
      </trkpt>
      <trkpt lat="43.88806" lon="7.56516">
        <ele>733.56444905299</ele>
        <time>2021-11-02T14:51:38Z</time>
      </trkpt>
      <trkpt lat="43.88805" lon="7.56516">
        <ele>733.56448666369</ele>
        <time>2021-11-02T14:51:39Z</time>
      </trkpt>
      <trkpt lat="43.88805" lon="7.56516">
        <ele>733.56451068827</ele>
        <time>2021-11-02T14:51:40Z</time>
      </trkpt>
      <trkpt lat="43.88804" lon="7.56515">
        <ele>733.56455512876</ele>
        <time>2021-11-02T14:51:41Z</time>
      </trkpt>
      <trkpt lat="43.88803" lon="7.56514">
        <ele>734.56457905742</ele>
        <time>2021-11-02T14:51:42Z</time>
      </trkpt>
      <trkpt lat="43.88802" lon="7.56514">
        <ele>733.56461463527</ele>
        <time>2021-11-02T14:51:43Z</time>
      </trkpt>
      <trkpt lat="43.888" lon="7.56513">
        <ele>732.56473008261</ele>
        <time>2021-11-02T14:51:45Z</time>
      </trkpt>
      <trkpt lat="43.88798" lon="7.56512">
        <ele>732.56477564766</ele>
        <time>2021-11-02T14:51:46Z</time>
      </trkpt>
      <trkpt lat="43.88798" lon="7.56511">
        <ele>731.56480696944</ele>
        <time>2021-11-02T14:51:47Z</time>
      </trkpt>
      <trkpt lat="43.88797" lon="7.5651">
        <ele>731.56480908502</ele>
        <time>2021-11-02T14:51:48Z</time>
      </trkpt>
      <trkpt lat="43.88797" lon="7.56508">
        <ele>731.56480782197</ele>
        <time>2021-11-02T14:51:49Z</time>
      </trkpt>
      <trkpt lat="43.88796" lon="7.56508">
        <ele>730.56480992454</ele>
        <time>2021-11-02T14:51:50Z</time>
      </trkpt>
      <trkpt lat="43.88796" lon="7.56507">
        <ele>730.56480923721</ele>
        <time>2021-11-02T14:51:51Z</time>
      </trkpt>
      <trkpt lat="43.88795" lon="7.56506">
        <ele>730.56482557664</ele>
        <time>2021-11-02T14:51:52Z</time>
      </trkpt>
      <trkpt lat="43.88794" lon="7.56505">
        <ele>729.564867794</ele>
        <time>2021-11-02T14:51:54Z</time>
      </trkpt>
      <trkpt lat="43.88793" lon="7.56505">
        <ele>729.56490181465</ele>
        <time>2021-11-02T14:51:55Z</time>
      </trkpt>
      <trkpt lat="43.88793" lon="7.56505">
        <ele>729.56494034751</ele>
        <time>2021-11-02T14:51:56Z</time>
      </trkpt>
      <trkpt lat="43.88792" lon="7.56505">
        <ele>729.56495536758</ele>
        <time>2021-11-02T14:51:57Z</time>
      </trkpt>
      <trkpt lat="43.88792" lon="7.56505">
        <ele>729.5649865888</ele>
        <time>2021-11-02T14:51:58Z</time>
      </trkpt>
      <trkpt lat="43.88791" lon="7.56505">
        <ele>729.56502795083</ele>
        <time>2021-11-02T14:51:59Z</time>
      </trkpt>
      <trkpt lat="43.8879" lon="7.56505">
        <ele>730.56505668921</ele>
        <time>2021-11-02T14:52:00Z</time>
      </trkpt>
      <trkpt lat="43.88789" lon="7.56504">
        <ele>730.56508490112</ele>
        <time>2021-11-02T14:52:01Z</time>
      </trkpt>
      <trkpt lat="43.88788" lon="7.56503">
        <ele>730.56512483243</ele>
        <time>2021-11-02T14:52:02Z</time>
      </trkpt>
      <trkpt lat="43.88788" lon="7.56503">
        <ele>729.56514380209</ele>
        <time>2021-11-02T14:52:03Z</time>
      </trkpt>
      <trkpt lat="43.88788" lon="7.56502">
        <ele>728.56514618021</ele>
        <time>2021-11-02T14:52:04Z</time>
      </trkpt>
      <trkpt lat="43.88787" lon="7.56501">
        <ele>728.5651433016</ele>
        <time>2021-11-02T14:52:05Z</time>
      </trkpt>
      <trkpt lat="43.88787" lon="7.56501">
        <ele>727.56515533354</ele>
        <time>2021-11-02T14:52:06Z</time>
      </trkpt>
      <trkpt lat="43.88786" lon="7.565">
        <ele>726.56517413964</ele>
        <time>2021-11-02T14:52:07Z</time>
      </trkpt>
      <trkpt lat="43.88786" lon="7.565">
        <ele>726.56517843366</ele>
        <time>2021-11-02T14:52:08Z</time>
      </trkpt>
      <trkpt lat="43.88786" lon="7.56499">
        <ele>726.56519207143</ele>
        <time>2021-11-02T14:52:09Z</time>
      </trkpt>
      <trkpt lat="43.88785" lon="7.56499">
        <ele>726.56520703981</ele>
        <time>2021-11-02T14:52:10Z</time>
      </trkpt>
      <trkpt lat="43.88784" lon="7.56499">
        <ele>725.56526008354</ele>
        <time>2021-11-02T14:52:11Z</time>
      </trkpt>
      <trkpt lat="43.88783" lon="7.56498">
        <ele>724.56529998657</ele>
        <time>2021-11-02T14:52:12Z</time>
      </trkpt>
      <trkpt lat="43.88783" lon="7.56498">
        <ele>724.56531829952</ele>
        <time>2021-11-02T14:52:13Z</time>
      </trkpt>
      <trkpt lat="43.88782" lon="7.56498">
        <ele>724.56535795197</ele>
        <time>2021-11-02T14:52:15Z</time>
      </trkpt>
      <trkpt lat="43.88781" lon="7.56498">
        <ele>723.56540692406</ele>
        <time>2021-11-02T14:52:16Z</time>
      </trkpt>
      <trkpt lat="43.88779" lon="7.56498">
        <ele>723.5654812769</ele>
        <time>2021-11-02T14:52:18Z</time>
      </trkpt>
      <trkpt lat="43.88778" lon="7.56496">
        <ele>722.56550296154</ele>
        <time>2021-11-02T14:52:19Z</time>
      </trkpt>
      <trkpt lat="43.88777" lon="7.56496">
        <ele>721.56554882354</ele>
        <time>2021-11-02T14:52:20Z</time>
      </trkpt>
      <trkpt lat="43.88776" lon="7.56496">
        <ele>721.56559748814</ele>
        <time>2021-11-02T14:52:21Z</time>
      </trkpt>
      <trkpt lat="43.88776" lon="7.56495">
        <ele>721.56559034889</ele>
        <time>2021-11-02T14:52:23Z</time>
      </trkpt>
      <trkpt lat="43.88776" lon="7.56495">
        <ele>721.56561474788</ele>
        <time>2021-11-02T14:52:26Z</time>
      </trkpt>
      <trkpt lat="43.88776" lon="7.56493">
        <ele>720.56556312419</ele>
        <time>2021-11-02T14:52:28Z</time>
      </trkpt>
      <trkpt lat="43.88776" lon="7.56492">
        <ele>720.56556385135</ele>
        <time>2021-11-02T14:52:30Z</time>
      </trkpt>
      <trkpt lat="43.88775" lon="7.56491">
        <ele>719.56556769491</ele>
        <time>2021-11-02T14:52:31Z</time>
      </trkpt>
      <trkpt lat="43.88774" lon="7.56491">
        <ele>720.56562244735</ele>
        <time>2021-11-02T14:52:33Z</time>
      </trkpt>
      <trkpt lat="43.88773" lon="7.56491">
        <ele>720.56566198163</ele>
        <time>2021-11-02T14:52:34Z</time>
      </trkpt>
      <trkpt lat="43.88773" lon="7.56491">
        <ele>719.56565082695</ele>
        <time>2021-11-02T14:52:55Z</time>
      </trkpt>
      <trkpt lat="43.88773" lon="7.56494">
        <ele>718.56573276778</ele>
        <time>2021-11-02T14:52:56Z</time>
      </trkpt>
      <trkpt lat="43.88773" lon="7.56494">
        <ele>717.56574142438</ele>
        <time>2021-11-02T14:52:57Z</time>
      </trkpt>
      <trkpt lat="43.88772" lon="7.56491">
        <ele>715.56572591477</ele>
        <time>2021-11-02T14:52:59Z</time>
      </trkpt>
      <trkpt lat="43.88773" lon="7.5649">
        <ele>715.56568408712</ele>
        <time>2021-11-02T14:53:00Z</time>
      </trkpt>
      <trkpt lat="43.88773" lon="7.56489">
        <ele>715.56566643727</ele>
        <time>2021-11-02T14:53:01Z</time>
      </trkpt>
      <trkpt lat="43.88773" lon="7.56489">
        <ele>714.56566247052</ele>
        <time>2021-11-02T14:53:02Z</time>
      </trkpt>
      <trkpt lat="43.88772" lon="7.56486">
        <ele>713.56565781706</ele>
        <time>2021-11-02T14:53:04Z</time>
      </trkpt>
      <trkpt lat="43.88771" lon="7.56484">
        <ele>713.56566659731</ele>
        <time>2021-11-02T14:53:05Z</time>
      </trkpt>
      <trkpt lat="43.8877" lon="7.56484">
        <ele>713.56569831088</ele>
        <time>2021-11-02T14:53:06Z</time>
      </trkpt>
      <trkpt lat="43.88769" lon="7.56483">
        <ele>713.5657361053</ele>
        <time>2021-11-02T14:53:07Z</time>
      </trkpt>
      <trkpt lat="43.88767" lon="7.56482">
        <ele>712.56581213604</ele>
        <time>2021-11-02T14:53:09Z</time>
      </trkpt>
      <trkpt lat="43.88766" lon="7.56481">
        <ele>712.56585234263</ele>
        <time>2021-11-02T14:53:10Z</time>
      </trkpt>
      <trkpt lat="43.88765" lon="7.56481">
        <ele>712.56588742423</ele>
        <time>2021-11-02T14:53:11Z</time>
      </trkpt>
      <trkpt lat="43.88764" lon="7.5648">
        <ele>712.56593094926</ele>
        <time>2021-11-02T14:53:12Z</time>
      </trkpt>
      <trkpt lat="43.88763" lon="7.56479">
        <ele>712.56595007369</ele>
        <time>2021-11-02T14:53:13Z</time>
      </trkpt>
      <trkpt lat="43.88763" lon="7.56478">
        <ele>711.56597628518</ele>
        <time>2021-11-02T14:53:14Z</time>
      </trkpt>
      <trkpt lat="43.88762" lon="7.56478">
        <ele>711.56598545678</ele>
        <time>2021-11-02T14:53:15Z</time>
      </trkpt>
      <trkpt lat="43.88762" lon="7.56477">
        <ele>711.56599701017</ele>
        <time>2021-11-02T14:53:16Z</time>
      </trkpt>
      <trkpt lat="43.88761" lon="7.56476">
        <ele>711.56601393044</ele>
        <time>2021-11-02T14:53:17Z</time>
      </trkpt>
      <trkpt lat="43.88761" lon="7.56475">
        <ele>710.56602846417</ele>
        <time>2021-11-02T14:53:18Z</time>
      </trkpt>
      <trkpt lat="43.8876" lon="7.56475">
        <ele>710.56603380222</ele>
        <time>2021-11-02T14:53:19Z</time>
      </trkpt>
      <trkpt lat="43.88759" lon="7.56474">
        <ele>709.56606573203</ele>
        <time>2021-11-02T14:53:20Z</time>
      </trkpt>
      <trkpt lat="43.88758" lon="7.56473">
        <ele>709.56609301639</ele>
        <time>2021-11-02T14:53:21Z</time>
      </trkpt>
      <trkpt lat="43.88758" lon="7.56472">
        <ele>709.56609183739</ele>
        <time>2021-11-02T14:53:22Z</time>
      </trkpt>
      <trkpt lat="43.88758" lon="7.56471">
        <ele>709.56609783282</ele>
        <time>2021-11-02T14:53:23Z</time>
      </trkpt>
      <trkpt lat="43.88757" lon="7.5647">
        <ele>709.56612143366</ele>
        <time>2021-11-02T14:53:24Z</time>
      </trkpt>
      <trkpt lat="43.88756" lon="7.56469">
        <ele>709.56615371348</ele>
        <time>2021-11-02T14:53:25Z</time>
      </trkpt>
      <trkpt lat="43.88755" lon="7.56469">
        <ele>709.56617689128</ele>
        <time>2021-11-02T14:53:26Z</time>
      </trkpt>
      <trkpt lat="43.88755" lon="7.56468">
        <ele>708.56618583859</ele>
        <time>2021-11-02T14:53:27Z</time>
      </trkpt>
      <trkpt lat="43.88754" lon="7.56467">
        <ele>708.56618959108</ele>
        <time>2021-11-02T14:53:29Z</time>
      </trkpt>
      <trkpt lat="43.88754" lon="7.56467">
        <ele>708.56618928945</ele>
        <time>2021-11-02T14:53:37Z</time>
      </trkpt>
      <trkpt lat="43.88753" lon="7.56468">
        <ele>708.56625633994</ele>
        <time>2021-11-02T14:53:39Z</time>
      </trkpt>
      <trkpt lat="43.88753" lon="7.56467">
        <ele>708.56623570499</ele>
        <time>2021-11-02T14:54:01Z</time>
      </trkpt>
      <trkpt lat="43.88753" lon="7.56466">
        <ele>708.56624717656</ele>
        <time>2021-11-02T14:54:02Z</time>
      </trkpt>
      <trkpt lat="43.88753" lon="7.56464">
        <ele>708.56618864746</ele>
        <time>2021-11-02T14:54:03Z</time>
      </trkpt>
      <trkpt lat="43.88754" lon="7.56463">
        <ele>707.56613519187</ele>
        <time>2021-11-02T14:54:04Z</time>
      </trkpt>
      <trkpt lat="43.88755" lon="7.56462">
        <ele>707.56607990602</ele>
        <time>2021-11-02T14:54:05Z</time>
      </trkpt>
      <trkpt lat="43.88756" lon="7.56462">
        <ele>707.56603765339</ele>
        <time>2021-11-02T14:54:06Z</time>
      </trkpt>
      <trkpt lat="43.88757" lon="7.56461">
        <ele>707.56595029246</ele>
        <time>2021-11-02T14:54:08Z</time>
      </trkpt>
      <trkpt lat="43.88756" lon="7.56459">
        <ele>707.5659585874</ele>
        <time>2021-11-02T14:54:10Z</time>
      </trkpt>
      <trkpt lat="43.88755" lon="7.56458">
        <ele>706.56597970103</ele>
        <time>2021-11-02T14:54:11Z</time>
      </trkpt>
      <trkpt lat="43.88755" lon="7.56457">
        <ele>706.56598469406</ele>
        <time>2021-11-02T14:54:12Z</time>
      </trkpt>
      <trkpt lat="43.88754" lon="7.56456">
        <ele>705.56600956158</ele>
        <time>2021-11-02T14:54:14Z</time>
      </trkpt>
      <trkpt lat="43.88754" lon="7.56457">
        <ele>704.56603542536</ele>
        <time>2021-11-02T14:54:17Z</time>
      </trkpt>
      <trkpt lat="43.88753" lon="7.56456">
        <ele>704.56606956233</ele>
        <time>2021-11-02T14:54:22Z</time>
      </trkpt>
      <trkpt lat="43.88752" lon="7.56456">
        <ele>704.56611173841</ele>
        <time>2021-11-02T14:54:23Z</time>
      </trkpt>
      <trkpt lat="43.88751" lon="7.56455">
        <ele>704.566131277</ele>
        <time>2021-11-02T14:54:24Z</time>
      </trkpt>
      <trkpt lat="43.88751" lon="7.56454">
        <ele>704.56614369844</ele>
        <time>2021-11-02T14:54:25Z</time>
      </trkpt>
      <trkpt lat="43.8875" lon="7.56453">
        <ele>704.56614629768</ele>
        <time>2021-11-02T14:54:26Z</time>
      </trkpt>
      <trkpt lat="43.8875" lon="7.56453">
        <ele>703.56615188737</ele>
        <time>2021-11-02T14:54:28Z</time>
      </trkpt>
      <trkpt lat="43.8875" lon="7.56452">
        <ele>703.56616452887</ele>
        <time>2021-11-02T14:54:30Z</time>
      </trkpt>
      <trkpt lat="43.88749" lon="7.56452">
        <ele>702.56618095569</ele>
        <time>2021-11-02T14:54:31Z</time>
      </trkpt>
      <trkpt lat="43.88748" lon="7.56451">
        <ele>702.56621248164</ele>
        <time>2021-11-02T14:54:32Z</time>
      </trkpt>
      <trkpt lat="43.88748" lon="7.5645">
        <ele>701.56620829607</ele>
        <time>2021-11-02T14:54:33Z</time>
      </trkpt>
      <trkpt lat="43.88747" lon="7.56449">
        <ele>701.56622393871</ele>
        <time>2021-11-02T14:54:35Z</time>
      </trkpt>
      <trkpt lat="43.88747" lon="7.56449">
        <ele>701.56626031856</ele>
        <time>2021-11-02T14:54:37Z</time>
      </trkpt>
      <trkpt lat="43.88746" lon="7.56448">
        <ele>700.56623616897</ele>
        <time>2021-11-02T14:54:39Z</time>
      </trkpt>
      <trkpt lat="43.88746" lon="7.56447">
        <ele>700.56627034399</ele>
        <time>2021-11-02T14:54:40Z</time>
      </trkpt>
      <trkpt lat="43.88745" lon="7.56446">
        <ele>700.56627723364</ele>
        <time>2021-11-02T14:54:42Z</time>
      </trkpt>
      <trkpt lat="43.88745" lon="7.56446">
        <ele>700.56629575844</ele>
        <time>2021-11-02T14:54:43Z</time>
      </trkpt>
      <trkpt lat="43.88743" lon="7.56444">
        <ele>699.56632539504</ele>
        <time>2021-11-02T14:54:45Z</time>
      </trkpt>
      <trkpt lat="43.88743" lon="7.56443">
        <ele>699.56632923798</ele>
        <time>2021-11-02T14:54:46Z</time>
      </trkpt>
      <trkpt lat="43.88743" lon="7.56442">
        <ele>699.56632273812</ele>
        <time>2021-11-02T14:54:47Z</time>
      </trkpt>
      <trkpt lat="43.88742" lon="7.56441">
        <ele>700.56636958069</ele>
        <time>2021-11-02T14:54:49Z</time>
      </trkpt>
      <trkpt lat="43.88742" lon="7.56441">
        <ele>700.56636958069</ele>
        <time>2021-11-02T14:54:51Z</time>
      </trkpt>
      <trkpt lat="43.88741" lon="7.5644">
        <ele>699.5663894212</ele>
        <time>2021-11-02T14:54:52Z</time>
      </trkpt>
      <trkpt lat="43.8874" lon="7.56439">
        <ele>700.56639891597</ele>
        <time>2021-11-02T14:54:54Z</time>
      </trkpt>
      <trkpt lat="43.8874" lon="7.56439">
        <ele>699.56642863814</ele>
        <time>2021-11-02T14:54:56Z</time>
      </trkpt>
      <trkpt lat="43.88738" lon="7.56438">
        <ele>699.56649506987</ele>
        <time>2021-11-02T14:54:58Z</time>
      </trkpt>
      <trkpt lat="43.88738" lon="7.56437">
        <ele>699.56648700087</ele>
        <time>2021-11-02T14:55:02Z</time>
      </trkpt>
      <trkpt lat="43.88739" lon="7.56434">
        <ele>698.56636047959</ele>
        <time>2021-11-02T14:55:04Z</time>
      </trkpt>
      <trkpt lat="43.88739" lon="7.56433">
        <ele>698.56633171832</ele>
        <time>2021-11-02T14:55:05Z</time>
      </trkpt>
      <trkpt lat="43.8874" lon="7.56433">
        <ele>698.56630413435</ele>
        <time>2021-11-02T14:55:06Z</time>
      </trkpt>
      <trkpt lat="43.8874" lon="7.56432">
        <ele>699.5662731691</ele>
        <time>2021-11-02T14:55:07Z</time>
      </trkpt>
      <trkpt lat="43.8874" lon="7.56431">
        <ele>699.56628255486</ele>
        <time>2021-11-02T14:55:18Z</time>
      </trkpt>
      <trkpt lat="43.88739" lon="7.56431">
        <ele>698.56633472604</ele>
        <time>2021-11-02T14:55:20Z</time>
      </trkpt>
      <trkpt lat="43.88738" lon="7.56431">
        <ele>698.56636221002</ele>
        <time>2021-11-02T14:55:21Z</time>
      </trkpt>
      <trkpt lat="43.88737" lon="7.5643">
        <ele>698.56638268858</ele>
        <time>2021-11-02T14:55:22Z</time>
      </trkpt>
      <trkpt lat="43.88737" lon="7.5643">
        <ele>698.56641334946</ele>
        <time>2021-11-02T14:55:23Z</time>
      </trkpt>
      <trkpt lat="43.88736" lon="7.5643">
        <ele>697.56645802542</ele>
        <time>2021-11-02T14:55:24Z</time>
      </trkpt>
      <trkpt lat="43.88736" lon="7.56429">
        <ele>698.56645707246</ele>
        <time>2021-11-02T14:55:25Z</time>
      </trkpt>
      <trkpt lat="43.88736" lon="7.56428">
        <ele>697.56643849106</ele>
        <time>2021-11-02T14:55:26Z</time>
      </trkpt>
      <trkpt lat="43.88736" lon="7.56428">
        <ele>698.56640607199</ele>
        <time>2021-11-02T14:55:27Z</time>
      </trkpt>
      <trkpt lat="43.88736" lon="7.56427">
        <ele>697.56637545152</ele>
        <time>2021-11-02T14:55:28Z</time>
      </trkpt>
      <trkpt lat="43.88737" lon="7.56426">
        <ele>697.56632394021</ele>
        <time>2021-11-02T14:55:29Z</time>
      </trkpt>
      <trkpt lat="43.88738" lon="7.56425">
        <ele>697.5662639977</ele>
        <time>2021-11-02T14:55:30Z</time>
      </trkpt>
      <trkpt lat="43.88739" lon="7.56425">
        <ele>696.56617996465</ele>
        <time>2021-11-02T14:55:31Z</time>
      </trkpt>
      <trkpt lat="43.88741" lon="7.56424">
        <ele>696.56611938335</ele>
        <time>2021-11-02T14:55:32Z</time>
      </trkpt>
      <trkpt lat="43.88741" lon="7.56424">
        <ele>697.56609110893</ele>
        <time>2021-11-02T14:55:33Z</time>
      </trkpt>
      <trkpt lat="43.88742" lon="7.56424">
        <ele>697.56605942173</ele>
        <time>2021-11-02T14:55:34Z</time>
      </trkpt>
      <trkpt lat="43.88742" lon="7.56424">
        <ele>696.56603189291</ele>
        <time>2021-11-02T14:55:35Z</time>
      </trkpt>
      <trkpt lat="43.88743" lon="7.56423">
        <ele>696.56598346824</ele>
        <time>2021-11-02T14:55:36Z</time>
      </trkpt>
      <trkpt lat="43.88743" lon="7.56422">
        <ele>695.56595936523</ele>
        <time>2021-11-02T14:55:37Z</time>
      </trkpt>
      <trkpt lat="43.88742" lon="7.56421">
        <ele>695.5659688434</ele>
        <time>2021-11-02T14:55:39Z</time>
      </trkpt>
      <trkpt lat="43.88742" lon="7.56421">
        <ele>695.56600214083</ele>
        <time>2021-11-02T14:55:40Z</time>
      </trkpt>
      <trkpt lat="43.88741" lon="7.5642">
        <ele>696.56602970994</ele>
        <time>2021-11-02T14:55:41Z</time>
      </trkpt>
      <trkpt lat="43.8874" lon="7.5642">
        <ele>694.56608610047</ele>
        <time>2021-11-02T14:55:43Z</time>
      </trkpt>
      <trkpt lat="43.88738" lon="7.56419">
        <ele>694.56614540272</ele>
        <time>2021-11-02T14:55:45Z</time>
      </trkpt>
      <trkpt lat="43.88737" lon="7.56418">
        <ele>694.56616379628</ele>
        <time>2021-11-02T14:55:46Z</time>
      </trkpt>
      <trkpt lat="43.88736" lon="7.56417">
        <ele>694.56619483558</ele>
        <time>2021-11-02T14:55:47Z</time>
      </trkpt>
      <trkpt lat="43.88735" lon="7.56416">
        <ele>692.56627217147</ele>
        <time>2021-11-02T14:55:49Z</time>
      </trkpt>
      <trkpt lat="43.88734" lon="7.56415">
        <ele>692.56630704852</ele>
        <time>2021-11-02T14:55:50Z</time>
      </trkpt>
      <trkpt lat="43.88733" lon="7.56415">
        <ele>691.56633856145</ele>
        <time>2021-11-02T14:55:51Z</time>
      </trkpt>
      <trkpt lat="43.88731" lon="7.56414">
        <ele>691.56643125239</ele>
        <time>2021-11-02T14:55:53Z</time>
      </trkpt>
      <trkpt lat="43.88729" lon="7.56413">
        <ele>691.56648347902</ele>
        <time>2021-11-02T14:55:55Z</time>
      </trkpt>
      <trkpt lat="43.88729" lon="7.56413">
        <ele>690.56651352645</ele>
        <time>2021-11-02T14:55:56Z</time>
      </trkpt>
      <trkpt lat="43.88728" lon="7.56412">
        <ele>690.56653363348</ele>
        <time>2021-11-02T14:55:57Z</time>
      </trkpt>
      <trkpt lat="43.88727" lon="7.56412">
        <ele>689.56654554669</ele>
        <time>2021-11-02T14:55:59Z</time>
      </trkpt>
      <trkpt lat="43.88727" lon="7.56411">
        <ele>689.56654712777</ele>
        <time>2021-11-02T14:56:00Z</time>
      </trkpt>
      <trkpt lat="43.88727" lon="7.5641">
        <ele>689.56654867139</ele>
        <time>2021-11-02T14:56:01Z</time>
      </trkpt>
      <trkpt lat="43.88725" lon="7.56407">
        <ele>688.56655963681</ele>
        <time>2021-11-02T14:56:03Z</time>
      </trkpt>
      <trkpt lat="43.88724" lon="7.56408">
        <ele>688.56666544101</ele>
        <time>2021-11-02T14:56:05Z</time>
      </trkpt>
      <trkpt lat="43.88723" lon="7.56407">
        <ele>689.56670469235</ele>
        <time>2021-11-02T14:56:06Z</time>
      </trkpt>
      <trkpt lat="43.88722" lon="7.56407">
        <ele>688.5667107866</ele>
        <time>2021-11-02T14:56:07Z</time>
      </trkpt>
      <trkpt lat="43.88722" lon="7.56406">
        <ele>688.56672346247</ele>
        <time>2021-11-02T14:56:08Z</time>
      </trkpt>
      <trkpt lat="43.88721" lon="7.56406">
        <ele>687.56677508751</ele>
        <time>2021-11-02T14:56:09Z</time>
      </trkpt>
      <trkpt lat="43.8872" lon="7.56407">
        <ele>687.56683559998</ele>
        <time>2021-11-02T14:56:10Z</time>
      </trkpt>
      <trkpt lat="43.8872" lon="7.56405">
        <ele>687.56682830166</ele>
        <time>2021-11-02T14:56:11Z</time>
      </trkpt>
      <trkpt lat="43.8872" lon="7.56404">
        <ele>687.56678525665</ele>
        <time>2021-11-02T14:56:12Z</time>
      </trkpt>
      <trkpt lat="43.88721" lon="7.56402">
        <ele>688.56670093222</ele>
        <time>2021-11-02T14:56:14Z</time>
      </trkpt>
      <trkpt lat="43.88721" lon="7.56401">
        <ele>687.56665552618</ele>
        <time>2021-11-02T14:56:15Z</time>
      </trkpt>
      <trkpt lat="43.88722" lon="7.564">
        <ele>687.56660777044</ele>
        <time>2021-11-02T14:56:16Z</time>
      </trkpt>
      <trkpt lat="43.88724" lon="7.56399">
        <ele>686.56651222821</ele>
        <time>2021-11-02T14:56:18Z</time>
      </trkpt>
      <trkpt lat="43.88724" lon="7.56398">
        <ele>686.56645147732</ele>
        <time>2021-11-02T14:56:19Z</time>
      </trkpt>
      <trkpt lat="43.88725" lon="7.56397">
        <ele>687.56638644733</ele>
        <time>2021-11-02T14:56:20Z</time>
      </trkpt>
      <trkpt lat="43.88726" lon="7.56396">
        <ele>686.56632546628</ele>
        <time>2021-11-02T14:56:21Z</time>
      </trkpt>
      <trkpt lat="43.88727" lon="7.56395">
        <ele>687.56626347013</ele>
        <time>2021-11-02T14:56:22Z</time>
      </trkpt>
      <trkpt lat="43.88729" lon="7.56395">
        <ele>686.56614445258</ele>
        <time>2021-11-02T14:56:24Z</time>
      </trkpt>
      <trkpt lat="43.88731" lon="7.56394">
        <ele>686.56606744656</ele>
        <time>2021-11-02T14:56:25Z</time>
      </trkpt>
      <trkpt lat="43.88732" lon="7.56394">
        <ele>686.56598656615</ele>
        <time>2021-11-02T14:56:26Z</time>
      </trkpt>
      <trkpt lat="43.88734" lon="7.56394">
        <ele>686.56590892054</ele>
        <time>2021-11-02T14:56:28Z</time>
      </trkpt>
      <trkpt lat="43.88735" lon="7.56394">
        <ele>687.56585892758</ele>
        <time>2021-11-02T14:56:29Z</time>
      </trkpt>
      <trkpt lat="43.88736" lon="7.56393">
        <ele>687.5658072411</ele>
        <time>2021-11-02T14:56:30Z</time>
      </trkpt>
      <trkpt lat="43.88737" lon="7.56393">
        <ele>687.56574538188</ele>
        <time>2021-11-02T14:56:31Z</time>
      </trkpt>
      <trkpt lat="43.88738" lon="7.56393">
        <ele>686.56567940168</ele>
        <time>2021-11-02T14:56:32Z</time>
      </trkpt>
      <trkpt lat="43.88739" lon="7.56393">
        <ele>686.56561964992</ele>
        <time>2021-11-02T14:56:33Z</time>
      </trkpt>
      <trkpt lat="43.88741" lon="7.56394">
        <ele>687.56556611582</ele>
        <time>2021-11-02T14:56:34Z</time>
      </trkpt>
      <trkpt lat="43.88742" lon="7.56393">
        <ele>686.56550741644</ele>
        <time>2021-11-02T14:56:35Z</time>
      </trkpt>
      <trkpt lat="43.88743" lon="7.56393">
        <ele>686.5654450482</ele>
        <time>2021-11-02T14:56:36Z</time>
      </trkpt>
      <trkpt lat="43.88743" lon="7.56393">
        <ele>686.56540187749</ele>
        <time>2021-11-02T14:56:37Z</time>
      </trkpt>
      <trkpt lat="43.88744" lon="7.56393">
        <ele>687.56535968919</ele>
        <time>2021-11-02T14:56:38Z</time>
      </trkpt>
      <trkpt lat="43.88745" lon="7.56393">
        <ele>687.56532659651</ele>
        <time>2021-11-02T14:56:39Z</time>
      </trkpt>
      <trkpt lat="43.88746" lon="7.56393">
        <ele>687.56527526851</ele>
        <time>2021-11-02T14:56:40Z</time>
      </trkpt>
      <trkpt lat="43.88747" lon="7.56394">
        <ele>687.56522936435</ele>
        <time>2021-11-02T14:56:41Z</time>
      </trkpt>
      <trkpt lat="43.88749" lon="7.56395">
        <ele>686.56517229644</ele>
        <time>2021-11-02T14:56:42Z</time>
      </trkpt>
      <trkpt lat="43.88751" lon="7.56396">
        <ele>686.56507887814</ele>
        <time>2021-11-02T14:56:44Z</time>
      </trkpt>
      <trkpt lat="43.88752" lon="7.56397">
        <ele>686.56504930008</ele>
        <time>2021-11-02T14:56:45Z</time>
      </trkpt>
      <trkpt lat="43.88753" lon="7.56397">
        <ele>686.56500820532</ele>
        <time>2021-11-02T14:56:46Z</time>
      </trkpt>
      <trkpt lat="43.88754" lon="7.56397">
        <ele>685.56495756455</ele>
        <time>2021-11-02T14:56:48Z</time>
      </trkpt>
      <trkpt lat="43.88754" lon="7.56397">
        <ele>685.56495756455</ele>
        <time>2021-11-02T14:56:53Z</time>
      </trkpt>
      <trkpt lat="43.88753" lon="7.56396">
        <ele>682.56496378325</ele>
        <time>2021-11-02T14:56:55Z</time>
      </trkpt>
      <trkpt lat="43.88752" lon="7.56396">
        <ele>682.56502162491</ele>
        <time>2021-11-02T14:56:56Z</time>
      </trkpt>
      <trkpt lat="43.88752" lon="7.56396">
        <ele>682.56503425814</ele>
        <time>2021-11-02T14:56:57Z</time>
      </trkpt>
      <trkpt lat="43.88751" lon="7.56394">
        <ele>681.56506278573</ele>
        <time>2021-11-02T14:56:59Z</time>
      </trkpt>
      <trkpt lat="43.8875" lon="7.56394">
        <ele>681.56506504875</ele>
        <time>2021-11-02T14:57:00Z</time>
      </trkpt>
      <trkpt lat="43.8875" lon="7.56393">
        <ele>681.56506240953</ele>
        <time>2021-11-02T14:57:01Z</time>
      </trkpt>
      <trkpt lat="43.8875" lon="7.56392">
        <ele>681.56505324052</ele>
        <time>2021-11-02T14:57:02Z</time>
      </trkpt>
      <trkpt lat="43.8875" lon="7.56391">
        <ele>680.565045688</ele>
        <time>2021-11-02T14:57:03Z</time>
      </trkpt>
      <trkpt lat="43.8875" lon="7.56389">
        <ele>681.56501142387</ele>
        <time>2021-11-02T14:57:06Z</time>
      </trkpt>
      <trkpt lat="43.8875" lon="7.56389">
        <ele>681.56501588123</ele>
        <time>2021-11-02T14:57:07Z</time>
      </trkpt>
      <trkpt lat="43.88749" lon="7.56386">
        <ele>681.56498954802</ele>
        <time>2021-11-02T14:57:09Z</time>
      </trkpt>
      <trkpt lat="43.88749" lon="7.56385">
        <ele>681.56500292294</ele>
        <time>2021-11-02T14:57:10Z</time>
      </trkpt>
      <trkpt lat="43.88748" lon="7.56385">
        <ele>681.56501752337</ele>
        <time>2021-11-02T14:57:11Z</time>
      </trkpt>
      <trkpt lat="43.88746" lon="7.56383">
        <ele>680.56507216172</ele>
        <time>2021-11-02T14:57:13Z</time>
      </trkpt>
      <trkpt lat="43.88745" lon="7.56382">
        <ele>680.56510939898</ele>
        <time>2021-11-02T14:57:14Z</time>
      </trkpt>
      <trkpt lat="43.88745" lon="7.56381">
        <ele>681.56513917613</ele>
        <time>2021-11-02T14:57:15Z</time>
      </trkpt>
      <trkpt lat="43.88744" lon="7.56381">
        <ele>681.56516904784</ele>
        <time>2021-11-02T14:57:16Z</time>
      </trkpt>
      <trkpt lat="43.88743" lon="7.5638">
        <ele>680.56521484155</ele>
        <time>2021-11-02T14:57:18Z</time>
      </trkpt>
      <trkpt lat="43.88742" lon="7.56379">
        <ele>680.56524253077</ele>
        <time>2021-11-02T14:57:19Z</time>
      </trkpt>
      <trkpt lat="43.88741" lon="7.56378">
        <ele>680.5652736056</ele>
        <time>2021-11-02T14:57:20Z</time>
      </trkpt>
      <trkpt lat="43.8874" lon="7.56377">
        <ele>680.5652902066</ele>
        <time>2021-11-02T14:57:21Z</time>
      </trkpt>
      <trkpt lat="43.88739" lon="7.56376">
        <ele>680.56531704386</ele>
        <time>2021-11-02T14:57:22Z</time>
      </trkpt>
      <trkpt lat="43.88738" lon="7.56375">
        <ele>679.56534339982</ele>
        <time>2021-11-02T14:57:23Z</time>
      </trkpt>
      <trkpt lat="43.88738" lon="7.56375">
        <ele>679.56537083686</ele>
        <time>2021-11-02T14:57:24Z</time>
      </trkpt>
      <trkpt lat="43.88737" lon="7.56375">
        <ele>679.56539854281</ele>
        <time>2021-11-02T14:57:25Z</time>
      </trkpt>
      <trkpt lat="43.88736" lon="7.56374">
        <ele>678.56541735754</ele>
        <time>2021-11-02T14:57:26Z</time>
      </trkpt>
      <trkpt lat="43.88736" lon="7.56373">
        <ele>679.56543546491</ele>
        <time>2021-11-02T14:57:30Z</time>
      </trkpt>
      <trkpt lat="43.88735" lon="7.56372">
        <ele>678.56545074985</ele>
        <time>2021-11-02T14:57:31Z</time>
      </trkpt>
      <trkpt lat="43.88734" lon="7.56371">
        <ele>678.56546065738</ele>
        <time>2021-11-02T14:57:32Z</time>
      </trkpt>
      <trkpt lat="43.88734" lon="7.56369">
        <ele>677.56545286744</ele>
        <time>2021-11-02T14:57:34Z</time>
      </trkpt>
      <trkpt lat="43.88734" lon="7.56369">
        <ele>677.56546143827</ele>
        <time>2021-11-02T14:57:35Z</time>
      </trkpt>
      <trkpt lat="43.88733" lon="7.56368">
        <ele>676.56546430868</ele>
        <time>2021-11-02T14:57:36Z</time>
      </trkpt>
      <trkpt lat="43.88733" lon="7.56368">
        <ele>676.56548547207</ele>
        <time>2021-11-02T14:57:37Z</time>
      </trkpt>
      <trkpt lat="43.88732" lon="7.56367">
        <ele>675.56551040824</ele>
        <time>2021-11-02T14:57:38Z</time>
      </trkpt>
      <trkpt lat="43.88731" lon="7.56366">
        <ele>675.56552750946</ele>
        <time>2021-11-02T14:57:39Z</time>
      </trkpt>
      <trkpt lat="43.88731" lon="7.56366">
        <ele>675.56552076954</ele>
        <time>2021-11-02T14:57:40Z</time>
      </trkpt>
      <trkpt lat="43.88731" lon="7.56365">
        <ele>675.56551884781</ele>
        <time>2021-11-02T14:57:42Z</time>
      </trkpt>
      <trkpt lat="43.8873" lon="7.56365">
        <ele>675.56558902871</ele>
        <time>2021-11-02T14:57:43Z</time>
      </trkpt>
      <trkpt lat="43.88729" lon="7.56364">
        <ele>674.56561734273</ele>
        <time>2021-11-02T14:57:44Z</time>
      </trkpt>
      <trkpt lat="43.88728" lon="7.56363">
        <ele>674.56563872147</ele>
        <time>2021-11-02T14:57:45Z</time>
      </trkpt>
      <trkpt lat="43.88727" lon="7.56363">
        <ele>674.56566816293</ele>
        <time>2021-11-02T14:57:46Z</time>
      </trkpt>
      <trkpt lat="43.88727" lon="7.56362">
        <ele>674.56567325391</ele>
        <time>2021-11-02T14:57:47Z</time>
      </trkpt>
      <trkpt lat="43.88727" lon="7.5636">
        <ele>674.56566372965</ele>
        <time>2021-11-02T14:57:49Z</time>
      </trkpt>
      <trkpt lat="43.88726" lon="7.5636">
        <ele>674.56567643032</ele>
        <time>2021-11-02T14:57:50Z</time>
      </trkpt>
      <trkpt lat="43.88726" lon="7.56359">
        <ele>674.56568977151</ele>
        <time>2021-11-02T14:57:51Z</time>
      </trkpt>
      <trkpt lat="43.88725" lon="7.56358">
        <ele>672.56572811981</ele>
        <time>2021-11-02T14:57:53Z</time>
      </trkpt>
      <trkpt lat="43.88724" lon="7.56356">
        <ele>670.56573545844</ele>
        <time>2021-11-02T14:57:55Z</time>
      </trkpt>
      <trkpt lat="43.88723" lon="7.56355">
        <ele>670.56577060506</ele>
        <time>2021-11-02T14:57:56Z</time>
      </trkpt>
      <trkpt lat="43.88722" lon="7.56354">
        <ele>670.56579047017</ele>
        <time>2021-11-02T14:57:57Z</time>
      </trkpt>
      <trkpt lat="43.88721" lon="7.56353">
        <ele>670.56581176861</ele>
        <time>2021-11-02T14:57:59Z</time>
      </trkpt>
      <trkpt lat="43.8872" lon="7.56352">
        <ele>670.56582813328</ele>
        <time>2021-11-02T14:58:00Z</time>
      </trkpt>
      <trkpt lat="43.88719" lon="7.56351">
        <ele>669.56585750711</ele>
        <time>2021-11-02T14:58:01Z</time>
      </trkpt>
      <trkpt lat="43.88719" lon="7.5635">
        <ele>668.56585138971</ele>
        <time>2021-11-02T14:58:02Z</time>
      </trkpt>
      <trkpt lat="43.88718" lon="7.56347">
        <ele>667.56585316219</ele>
        <time>2021-11-02T14:58:04Z</time>
      </trkpt>
      <trkpt lat="43.88717" lon="7.56346">
        <ele>668.56587550533</ele>
        <time>2021-11-02T14:58:05Z</time>
      </trkpt>
      <trkpt lat="43.88717" lon="7.56347">
        <ele>667.56590779931</ele>
        <time>2021-11-02T14:58:06Z</time>
      </trkpt>
      <trkpt lat="43.88715" lon="7.56345">
        <ele>667.56594976278</ele>
        <time>2021-11-02T14:58:08Z</time>
      </trkpt>
      <trkpt lat="43.88715" lon="7.56344">
        <ele>666.56596497878</ele>
        <time>2021-11-02T14:58:09Z</time>
      </trkpt>
      <trkpt lat="43.88714" lon="7.56344">
        <ele>666.56598235504</ele>
        <time>2021-11-02T14:58:10Z</time>
      </trkpt>
      <trkpt lat="43.88714" lon="7.56343">
        <ele>665.5659879098</ele>
        <time>2021-11-02T14:58:11Z</time>
      </trkpt>
      <trkpt lat="43.88713" lon="7.56342">
        <ele>666.5660065232</ele>
        <time>2021-11-02T14:58:13Z</time>
      </trkpt>
      <trkpt lat="43.88712" lon="7.5634">
        <ele>665.56601109865</ele>
        <time>2021-11-02T14:58:15Z</time>
      </trkpt>
      <trkpt lat="43.88711" lon="7.56339">
        <ele>665.56604387569</ele>
        <time>2021-11-02T14:58:16Z</time>
      </trkpt>
      <trkpt lat="43.88711" lon="7.56338">
        <ele>666.56607120954</ele>
        <time>2021-11-02T14:58:17Z</time>
      </trkpt>
      <trkpt lat="43.88709" lon="7.56337">
        <ele>665.56612691197</ele>
        <time>2021-11-02T14:58:19Z</time>
      </trkpt>
      <trkpt lat="43.88708" lon="7.56337">
        <ele>666.56614950653</ele>
        <time>2021-11-02T14:58:20Z</time>
      </trkpt>
      <trkpt lat="43.88708" lon="7.56337">
        <ele>665.5661728025</ele>
        <time>2021-11-02T14:58:21Z</time>
      </trkpt>
      <trkpt lat="43.88707" lon="7.56335">
        <ele>664.56620249468</ele>
        <time>2021-11-02T14:58:23Z</time>
      </trkpt>
      <trkpt lat="43.88705" lon="7.56334">
        <ele>664.56626505647</ele>
        <time>2021-11-02T14:58:25Z</time>
      </trkpt>
      <trkpt lat="43.88704" lon="7.56333">
        <ele>664.56630659342</ele>
        <time>2021-11-02T14:58:26Z</time>
      </trkpt>
      <trkpt lat="43.88703" lon="7.56332">
        <ele>664.56633488063</ele>
        <time>2021-11-02T14:58:27Z</time>
      </trkpt>
      <trkpt lat="43.88702" lon="7.5633">
        <ele>662.56633247851</ele>
        <time>2021-11-02T14:58:29Z</time>
      </trkpt>
      <trkpt lat="43.88702" lon="7.5633">
        <ele>662.56634581796</ele>
        <time>2021-11-02T14:58:30Z</time>
      </trkpt>
      <trkpt lat="43.88701" lon="7.56329">
        <ele>663.56636397843</ele>
        <time>2021-11-02T14:58:31Z</time>
      </trkpt>
      <trkpt lat="43.88701" lon="7.56328">
        <ele>663.56635781686</ele>
        <time>2021-11-02T14:58:32Z</time>
      </trkpt>
      <trkpt lat="43.887" lon="7.56326">
        <ele>662.56636528426</ele>
        <time>2021-11-02T14:58:34Z</time>
      </trkpt>
      <trkpt lat="43.887" lon="7.56326">
        <ele>662.56638733104</ele>
        <time>2021-11-02T14:58:35Z</time>
      </trkpt>
      <trkpt lat="43.88699" lon="7.56325">
        <ele>663.56640109916</ele>
        <time>2021-11-02T14:58:36Z</time>
      </trkpt>
      <trkpt lat="43.88699" lon="7.56325">
        <ele>663.56642778642</ele>
        <time>2021-11-02T14:58:37Z</time>
      </trkpt>
      <trkpt lat="43.88697" lon="7.56325">
        <ele>663.56650406561</ele>
        <time>2021-11-02T14:58:39Z</time>
      </trkpt>
      <trkpt lat="43.88697" lon="7.56324">
        <ele>663.56647657503</ele>
        <time>2021-11-02T14:58:40Z</time>
      </trkpt>
      <trkpt lat="43.88698" lon="7.56323">
        <ele>663.56641847395</ele>
        <time>2021-11-02T14:58:41Z</time>
      </trkpt>
      <trkpt lat="43.88698" lon="7.56322">
        <ele>662.56638675037</ele>
        <time>2021-11-02T14:58:42Z</time>
      </trkpt>
      <trkpt lat="43.88699" lon="7.56322">
        <ele>662.56636090351</ele>
        <time>2021-11-02T14:58:43Z</time>
      </trkpt>
      <trkpt lat="43.88699" lon="7.56322">
        <ele>662.56633271885</ele>
        <time>2021-11-02T14:58:47Z</time>
      </trkpt>
      <trkpt lat="43.88698" lon="7.5632">
        <ele>661.56635165608</ele>
        <time>2021-11-02T14:58:48Z</time>
      </trkpt>
      <trkpt lat="43.88698" lon="7.5632">
        <ele>660.56637163347</ele>
        <time>2021-11-02T14:58:49Z</time>
      </trkpt>
      <trkpt lat="43.88697" lon="7.5632">
        <ele>661.56640303356</ele>
        <time>2021-11-02T14:58:50Z</time>
      </trkpt>
      <trkpt lat="43.88696" lon="7.56319">
        <ele>661.5664561146</ele>
        <time>2021-11-02T14:58:51Z</time>
      </trkpt>
      <trkpt lat="43.88695" lon="7.56318">
        <ele>661.56650392146</ele>
        <time>2021-11-02T14:58:52Z</time>
      </trkpt>
      <trkpt lat="43.88694" lon="7.56317">
        <ele>660.56650595782</ele>
        <time>2021-11-02T14:58:53Z</time>
      </trkpt>
      <trkpt lat="43.88695" lon="7.56316">
        <ele>660.56645859699</ele>
        <time>2021-11-02T14:58:54Z</time>
      </trkpt>
      <trkpt lat="43.88696" lon="7.56315">
        <ele>660.56638590028</ele>
        <time>2021-11-02T14:58:55Z</time>
      </trkpt>
      <trkpt lat="43.88697" lon="7.56314">
        <ele>659.56631214594</ele>
        <time>2021-11-02T14:58:56Z</time>
      </trkpt>
      <trkpt lat="43.88698" lon="7.56314">
        <ele>658.56625994889</ele>
        <time>2021-11-02T14:58:57Z</time>
      </trkpt>
      <trkpt lat="43.88699" lon="7.56313">
        <ele>658.56620793683</ele>
        <time>2021-11-02T14:58:58Z</time>
      </trkpt>
      <trkpt lat="43.88699" lon="7.56312">
        <ele>657.56615870285</ele>
        <time>2021-11-02T14:59:00Z</time>
      </trkpt>
      <trkpt lat="43.88699" lon="7.56312">
        <ele>657.56615169506</ele>
        <time>2021-11-02T14:59:01Z</time>
      </trkpt>
      <trkpt lat="43.88698" lon="7.56311">
        <ele>657.56618480551</ele>
        <time>2021-11-02T14:59:02Z</time>
      </trkpt>
      <trkpt lat="43.88697" lon="7.56309">
        <ele>656.56621159499</ele>
        <time>2021-11-02T14:59:04Z</time>
      </trkpt>
      <trkpt lat="43.88697" lon="7.56309">
        <ele>656.56623702386</ele>
        <time>2021-11-02T14:59:05Z</time>
      </trkpt>
      <trkpt lat="43.88697" lon="7.56308">
        <ele>656.5662248142</ele>
        <time>2021-11-02T14:59:06Z</time>
      </trkpt>
      <trkpt lat="43.88696" lon="7.56307">
        <ele>655.56623357685</ele>
        <time>2021-11-02T14:59:08Z</time>
      </trkpt>
      <trkpt lat="43.88695" lon="7.56306">
        <ele>654.56626598844</ele>
        <time>2021-11-02T14:59:10Z</time>
      </trkpt>
      <trkpt lat="43.88694" lon="7.56306">
        <ele>654.56630739005</ele>
        <time>2021-11-02T14:59:11Z</time>
      </trkpt>
      <trkpt lat="43.88694" lon="7.56306">
        <ele>653.5663288841</ele>
        <time>2021-11-02T14:59:12Z</time>
      </trkpt>
      <trkpt lat="43.88692" lon="7.56306">
        <ele>653.56641156957</ele>
        <time>2021-11-02T14:59:14Z</time>
      </trkpt>
      <trkpt lat="43.88692" lon="7.56306">
        <ele>653.5664368065</ele>
        <time>2021-11-02T14:59:15Z</time>
      </trkpt>
      <trkpt lat="43.88691" lon="7.56306">
        <ele>653.56647861502</ele>
        <time>2021-11-02T14:59:16Z</time>
      </trkpt>
      <trkpt lat="43.88691" lon="7.56304">
        <ele>652.56645064803</ele>
        <time>2021-11-02T14:59:18Z</time>
      </trkpt>
      <trkpt lat="43.88691" lon="7.56303">
        <ele>652.56639820776</ele>
        <time>2021-11-02T14:59:19Z</time>
      </trkpt>
      <trkpt lat="43.88691" lon="7.56301">
        <ele>652.56635550494</ele>
        <time>2021-11-02T14:59:20Z</time>
      </trkpt>
      <trkpt lat="43.88692" lon="7.56301">
        <ele>652.56631784726</ele>
        <time>2021-11-02T14:59:21Z</time>
      </trkpt>
      <trkpt lat="43.88693" lon="7.563">
        <ele>652.56627562171</ele>
        <time>2021-11-02T14:59:22Z</time>
      </trkpt>
      <trkpt lat="43.88694" lon="7.56299">
        <ele>651.56621500723</ele>
        <time>2021-11-02T14:59:23Z</time>
      </trkpt>
      <trkpt lat="43.88693" lon="7.56299">
        <ele>651.566240922</ele>
        <time>2021-11-02T14:59:25Z</time>
      </trkpt>
      <trkpt lat="43.88692" lon="7.56297">
        <ele>651.56625651201</ele>
        <time>2021-11-02T14:59:26Z</time>
      </trkpt>
      <trkpt lat="43.88691" lon="7.56296">
        <ele>652.56626839241</ele>
        <time>2021-11-02T14:59:27Z</time>
      </trkpt>
      <trkpt lat="43.88691" lon="7.56296">
        <ele>651.56629410771</ele>
        <time>2021-11-02T14:59:28Z</time>
      </trkpt>
      <trkpt lat="43.88689" lon="7.56296">
        <ele>651.56639449739</ele>
        <time>2021-11-02T14:59:30Z</time>
      </trkpt>
      <trkpt lat="43.88688" lon="7.56296">
        <ele>651.56645528709</ele>
        <time>2021-11-02T14:59:31Z</time>
      </trkpt>
      <trkpt lat="43.88685" lon="7.56295">
        <ele>652.56656001775</ele>
        <time>2021-11-02T14:59:33Z</time>
      </trkpt>
      <trkpt lat="43.88684" lon="7.56296">
        <ele>652.56663696481</ele>
        <time>2021-11-02T14:59:34Z</time>
      </trkpt>
      <trkpt lat="43.88683" lon="7.56298">
        <ele>652.56671742535</ele>
        <time>2021-11-02T14:59:35Z</time>
      </trkpt>
      <trkpt lat="43.88682" lon="7.56297">
        <ele>653.56677404958</ele>
        <time>2021-11-02T14:59:36Z</time>
      </trkpt>
      <trkpt lat="43.8868" lon="7.56297">
        <ele>653.56683568341</ele>
        <time>2021-11-02T14:59:37Z</time>
      </trkpt>
      <trkpt lat="43.88679" lon="7.56295">
        <ele>653.5668846429</ele>
        <time>2021-11-02T14:59:39Z</time>
      </trkpt>
      <trkpt lat="43.88678" lon="7.56293">
        <ele>653.56689133989</ele>
        <time>2021-11-02T14:59:40Z</time>
      </trkpt>
      <trkpt lat="43.88677" lon="7.56291">
        <ele>653.56689526023</ele>
        <time>2021-11-02T14:59:41Z</time>
      </trkpt>
      <trkpt lat="43.88676" lon="7.5629">
        <ele>652.5669314997</ele>
        <time>2021-11-02T14:59:42Z</time>
      </trkpt>
      <trkpt lat="43.88675" lon="7.56289">
        <ele>652.56697452481</ele>
        <time>2021-11-02T14:59:43Z</time>
      </trkpt>
      <trkpt lat="43.88673" lon="7.56287">
        <ele>652.56700596168</ele>
        <time>2021-11-02T14:59:45Z</time>
      </trkpt>
      <trkpt lat="43.88672" lon="7.56286">
        <ele>652.56703709891</ele>
        <time>2021-11-02T14:59:46Z</time>
      </trkpt>
      <trkpt lat="43.88672" lon="7.56284">
        <ele>651.56703759568</ele>
        <time>2021-11-02T14:59:47Z</time>
      </trkpt>
      <trkpt lat="43.88671" lon="7.56283">
        <ele>651.56704198235</ele>
        <time>2021-11-02T14:59:48Z</time>
      </trkpt>
      <trkpt lat="43.88671" lon="7.56281">
        <ele>651.56702581047</ele>
        <time>2021-11-02T14:59:49Z</time>
      </trkpt>
      <trkpt lat="43.88671" lon="7.56281">
        <ele>651.56702900398</ele>
        <time>2021-11-02T14:59:50Z</time>
      </trkpt>
      <trkpt lat="43.8867" lon="7.56279">
        <ele>651.56703554762</ele>
        <time>2021-11-02T14:59:51Z</time>
      </trkpt>
      <trkpt lat="43.88669" lon="7.56278">
        <ele>650.56704322722</ele>
        <time>2021-11-02T14:59:52Z</time>
      </trkpt>
      <trkpt lat="43.88669" lon="7.56277">
        <ele>650.56704958997</ele>
        <time>2021-11-02T14:59:53Z</time>
      </trkpt>
      <trkpt lat="43.88669" lon="7.56275">
        <ele>650.56702150401</ele>
        <time>2021-11-02T14:59:54Z</time>
      </trkpt>
      <trkpt lat="43.88668" lon="7.56273">
        <ele>650.56701655488</ele>
        <time>2021-11-02T14:59:55Z</time>
      </trkpt>
      <trkpt lat="43.88668" lon="7.56272">
        <ele>650.56700221238</ele>
        <time>2021-11-02T14:59:56Z</time>
      </trkpt>
      <trkpt lat="43.88668" lon="7.5627">
        <ele>651.56699190256</ele>
        <time>2021-11-02T14:59:57Z</time>
      </trkpt>
      <trkpt lat="43.88667" lon="7.56269">
        <ele>651.56701356668</ele>
        <time>2021-11-02T14:59:58Z</time>
      </trkpt>
      <trkpt lat="43.88666" lon="7.56268">
        <ele>651.56703216647</ele>
        <time>2021-11-02T14:59:59Z</time>
      </trkpt>
      <trkpt lat="43.88666" lon="7.56267">
        <ele>651.56701649468</ele>
        <time>2021-11-02T15:00:00Z</time>
      </trkpt>
      <trkpt lat="43.88666" lon="7.56267">
        <ele>651.56702484968</ele>
        <time>2021-11-02T15:00:01Z</time>
      </trkpt>
      <trkpt lat="43.88665" lon="7.56265">
        <ele>650.56703028698</ele>
        <time>2021-11-02T15:00:03Z</time>
      </trkpt>
      <trkpt lat="43.88665" lon="7.56263">
        <ele>650.56700924478</ele>
        <time>2021-11-02T15:00:04Z</time>
      </trkpt>
      <trkpt lat="43.88665" lon="7.56262">
        <ele>650.56699799391</ele>
        <time>2021-11-02T15:00:05Z</time>
      </trkpt>
      <trkpt lat="43.88664" lon="7.56261">
        <ele>650.5669897237</ele>
        <time>2021-11-02T15:00:06Z</time>
      </trkpt>
      <trkpt lat="43.88664" lon="7.5626">
        <ele>650.56696577298</ele>
        <time>2021-11-02T15:00:07Z</time>
      </trkpt>
      <trkpt lat="43.88662" lon="7.56259">
        <ele>649.56703581332</ele>
        <time>2021-11-02T15:00:09Z</time>
      </trkpt>
      <trkpt lat="43.88661" lon="7.56258">
        <ele>649.5670795389</ele>
        <time>2021-11-02T15:00:10Z</time>
      </trkpt>
      <trkpt lat="43.88661" lon="7.56258">
        <ele>649.56709368083</ele>
        <time>2021-11-02T15:00:11Z</time>
      </trkpt>
      <trkpt lat="43.8866" lon="7.56257">
        <ele>648.56711319353</ele>
        <time>2021-11-02T15:00:12Z</time>
      </trkpt>
      <trkpt lat="43.8866" lon="7.56257">
        <ele>648.56714374734</ele>
        <time>2021-11-02T15:00:13Z</time>
      </trkpt>
      <trkpt lat="43.88659" lon="7.56256">
        <ele>648.56716643314</ele>
        <time>2021-11-02T15:00:14Z</time>
      </trkpt>
      <trkpt lat="43.88658" lon="7.56256">
        <ele>648.56719564716</ele>
        <time>2021-11-02T15:00:15Z</time>
      </trkpt>
      <trkpt lat="43.88657" lon="7.56256">
        <ele>649.56722864027</ele>
        <time>2021-11-02T15:00:16Z</time>
      </trkpt>
      <trkpt lat="43.88656" lon="7.56254">
        <ele>648.56725580934</ele>
        <time>2021-11-02T15:00:18Z</time>
      </trkpt>
      <trkpt lat="43.88656" lon="7.56253">
        <ele>647.56726394792</ele>
        <time>2021-11-02T15:00:19Z</time>
      </trkpt>
      <trkpt lat="43.88654" lon="7.56252">
        <ele>647.56732315126</ele>
        <time>2021-11-02T15:00:20Z</time>
      </trkpt>
      <trkpt lat="43.88654" lon="7.56251">
        <ele>647.56733478421</ele>
        <time>2021-11-02T15:00:21Z</time>
      </trkpt>
      <trkpt lat="43.88654" lon="7.5625">
        <ele>646.56732447744</ele>
        <time>2021-11-02T15:00:22Z</time>
      </trkpt>
      <trkpt lat="43.88654" lon="7.56248">
        <ele>647.56729185594</ele>
        <time>2021-11-02T15:00:23Z</time>
      </trkpt>
      <trkpt lat="43.88654" lon="7.56247">
        <ele>646.5672453867</ele>
        <time>2021-11-02T15:00:24Z</time>
      </trkpt>
      <trkpt lat="43.88655" lon="7.56246">
        <ele>646.56718622573</ele>
        <time>2021-11-02T15:00:25Z</time>
      </trkpt>
      <trkpt lat="43.88656" lon="7.56245">
        <ele>645.5671338541</ele>
        <time>2021-11-02T15:00:26Z</time>
      </trkpt>
      <trkpt lat="43.88657" lon="7.56244">
        <ele>644.5670639686</ele>
        <time>2021-11-02T15:00:27Z</time>
      </trkpt>
      <trkpt lat="43.88657" lon="7.56243">
        <ele>643.56702797369</ele>
        <time>2021-11-02T15:00:29Z</time>
      </trkpt>
      <trkpt lat="43.88656" lon="7.56242">
        <ele>643.56704349442</ele>
        <time>2021-11-02T15:00:30Z</time>
      </trkpt>
      <trkpt lat="43.88655" lon="7.56241">
        <ele>642.56706268428</ele>
        <time>2021-11-02T15:00:31Z</time>
      </trkpt>
      <trkpt lat="43.88654" lon="7.5624">
        <ele>642.56713510407</ele>
        <time>2021-11-02T15:00:33Z</time>
      </trkpt>
      <trkpt lat="43.88653" lon="7.56238">
        <ele>642.56715211727</ele>
        <time>2021-11-02T15:00:35Z</time>
      </trkpt>
      <trkpt lat="43.88652" lon="7.56237">
        <ele>643.56716074839</ele>
        <time>2021-11-02T15:00:36Z</time>
      </trkpt>
      <trkpt lat="43.88651" lon="7.56236">
        <ele>643.56717796137</ele>
        <time>2021-11-02T15:00:37Z</time>
      </trkpt>
      <trkpt lat="43.88651" lon="7.56235">
        <ele>642.56719562442</ele>
        <time>2021-11-02T15:00:38Z</time>
      </trkpt>
      <trkpt lat="43.8865" lon="7.56234">
        <ele>642.56721170518</ele>
        <time>2021-11-02T15:00:39Z</time>
      </trkpt>
      <trkpt lat="43.88649" lon="7.56233">
        <ele>642.56722995526</ele>
        <time>2021-11-02T15:00:40Z</time>
      </trkpt>
      <trkpt lat="43.88649" lon="7.56233">
        <ele>641.56725739385</ele>
        <time>2021-11-02T15:00:41Z</time>
      </trkpt>
      <trkpt lat="43.88648" lon="7.56232">
        <ele>642.56729104196</ele>
        <time>2021-11-02T15:00:42Z</time>
      </trkpt>
      <trkpt lat="43.88646" lon="7.56232">
        <ele>640.56737209001</ele>
        <time>2021-11-02T15:00:44Z</time>
      </trkpt>
      <trkpt lat="43.88645" lon="7.56233">
        <ele>640.56741481189</ele>
        <time>2021-11-02T15:00:45Z</time>
      </trkpt>
      <trkpt lat="43.88644" lon="7.56233">
        <ele>640.56746564644</ele>
        <time>2021-11-02T15:00:46Z</time>
      </trkpt>
      <trkpt lat="43.88643" lon="7.56233">
        <ele>641.56751808005</ele>
        <time>2021-11-02T15:00:47Z</time>
      </trkpt>
      <trkpt lat="43.88642" lon="7.56233">
        <ele>640.56757112347</ele>
        <time>2021-11-02T15:00:48Z</time>
      </trkpt>
      <trkpt lat="43.88641" lon="7.56232">
        <ele>640.56760674455</ele>
        <time>2021-11-02T15:00:49Z</time>
      </trkpt>
      <trkpt lat="43.8864" lon="7.56231">
        <ele>640.56764428522</ele>
        <time>2021-11-02T15:00:50Z</time>
      </trkpt>
      <trkpt lat="43.8864" lon="7.5623">
        <ele>640.56766255648</ele>
        <time>2021-11-02T15:00:51Z</time>
      </trkpt>
      <trkpt lat="43.8864" lon="7.56229">
        <ele>641.56763576001</ele>
        <time>2021-11-02T15:00:52Z</time>
      </trkpt>
      <trkpt lat="43.88639" lon="7.56225">
        <ele>641.5675901398</ele>
        <time>2021-11-02T15:00:54Z</time>
      </trkpt>
      <trkpt lat="43.88639" lon="7.56224">
        <ele>641.56759635015</ele>
        <time>2021-11-02T15:00:55Z</time>
      </trkpt>
      <trkpt lat="43.88638" lon="7.56223">
        <ele>641.56762292968</ele>
        <time>2021-11-02T15:00:56Z</time>
      </trkpt>
      <trkpt lat="43.88637" lon="7.56223">
        <ele>641.56763761858</ele>
        <time>2021-11-02T15:00:57Z</time>
      </trkpt>
      <trkpt lat="43.88637" lon="7.56222">
        <ele>641.5676700843</ele>
        <time>2021-11-02T15:00:58Z</time>
      </trkpt>
      <trkpt lat="43.88636" lon="7.56222">
        <ele>641.56769493687</ele>
        <time>2021-11-02T15:00:59Z</time>
      </trkpt>
      <trkpt lat="43.88636" lon="7.56221">
        <ele>642.56768486525</ele>
        <time>2021-11-02T15:01:00Z</time>
      </trkpt>
      <trkpt lat="43.88636" lon="7.5622">
        <ele>642.5676738632</ele>
        <time>2021-11-02T15:01:01Z</time>
      </trkpt>
      <trkpt lat="43.88635" lon="7.56218">
        <ele>641.56766294095</ele>
        <time>2021-11-02T15:01:02Z</time>
      </trkpt>
      <trkpt lat="43.88635" lon="7.56218">
        <ele>640.56768289875</ele>
        <time>2021-11-02T15:01:03Z</time>
      </trkpt>
      <trkpt lat="43.88634" lon="7.56218">
        <ele>640.5677191944</ele>
        <time>2021-11-02T15:01:04Z</time>
      </trkpt>
      <trkpt lat="43.88633" lon="7.56219">
        <ele>638.56776164715</ele>
        <time>2021-11-02T15:01:05Z</time>
      </trkpt>
      <trkpt lat="43.88632" lon="7.56218">
        <ele>638.56780004225</ele>
        <time>2021-11-02T15:01:06Z</time>
      </trkpt>
      <trkpt lat="43.88632" lon="7.56217">
        <ele>638.5678212517</ele>
        <time>2021-11-02T15:01:07Z</time>
      </trkpt>
      <trkpt lat="43.88631" lon="7.56216">
        <ele>638.56783744739</ele>
        <time>2021-11-02T15:01:08Z</time>
      </trkpt>
      <trkpt lat="43.8863" lon="7.56215">
        <ele>638.56783535497</ele>
        <time>2021-11-02T15:01:09Z</time>
      </trkpt>
      <trkpt lat="43.8863" lon="7.56213">
        <ele>638.56781277668</ele>
        <time>2021-11-02T15:01:10Z</time>
      </trkpt>
      <trkpt lat="43.8863" lon="7.56212">
        <ele>638.56779880531</ele>
        <time>2021-11-02T15:01:11Z</time>
      </trkpt>
      <trkpt lat="43.8863" lon="7.56211">
        <ele>638.56777877338</ele>
        <time>2021-11-02T15:01:12Z</time>
      </trkpt>
      <trkpt lat="43.8863" lon="7.56209">
        <ele>638.56776504904</ele>
        <time>2021-11-02T15:01:13Z</time>
      </trkpt>
      <trkpt lat="43.88631" lon="7.56207">
        <ele>638.56767431939</ele>
        <time>2021-11-02T15:01:15Z</time>
      </trkpt>
      <trkpt lat="43.88631" lon="7.56206">
        <ele>637.56763861903</ele>
        <time>2021-11-02T15:01:16Z</time>
      </trkpt>
      <trkpt lat="43.88633" lon="7.56204">
        <ele>636.56753197094</ele>
        <time>2021-11-02T15:01:18Z</time>
      </trkpt>
      <trkpt lat="43.88633" lon="7.56202">
        <ele>635.56748487985</ele>
        <time>2021-11-02T15:01:20Z</time>
      </trkpt>
      <trkpt lat="43.88632" lon="7.56201">
        <ele>635.56751214999</ele>
        <time>2021-11-02T15:01:21Z</time>
      </trkpt>
      <trkpt lat="43.88631" lon="7.562">
        <ele>635.56753363967</ele>
        <time>2021-11-02T15:01:22Z</time>
      </trkpt>
      <trkpt lat="43.88631" lon="7.56199">
        <ele>635.5675342995</ele>
        <time>2021-11-02T15:01:23Z</time>
      </trkpt>
      <trkpt lat="43.8863" lon="7.56198">
        <ele>635.56754087196</ele>
        <time>2021-11-02T15:01:24Z</time>
      </trkpt>
      <trkpt lat="43.8863" lon="7.56197">
        <ele>634.56751590148</ele>
        <time>2021-11-02T15:01:25Z</time>
      </trkpt>
      <trkpt lat="43.88631" lon="7.56196">
        <ele>634.56747913531</ele>
        <time>2021-11-02T15:01:26Z</time>
      </trkpt>
      <trkpt lat="43.8863" lon="7.56195">
        <ele>633.56748478948</ele>
        <time>2021-11-02T15:01:27Z</time>
      </trkpt>
      <trkpt lat="43.8863" lon="7.56196">
        <ele>633.56752450647</ele>
        <time>2021-11-02T15:01:29Z</time>
      </trkpt>
      <trkpt lat="43.88629" lon="7.56195">
        <ele>632.56757714744</ele>
        <time>2021-11-02T15:01:30Z</time>
      </trkpt>
      <trkpt lat="43.88628" lon="7.56194">
        <ele>633.56760546627</ele>
        <time>2021-11-02T15:01:31Z</time>
      </trkpt>
      <trkpt lat="43.88628" lon="7.56194">
        <ele>634.56759907398</ele>
        <time>2021-11-02T15:01:32Z</time>
      </trkpt>
      <trkpt lat="43.88627" lon="7.56192">
        <ele>634.56757602168</ele>
        <time>2021-11-02T15:01:33Z</time>
      </trkpt>
      <trkpt lat="43.88627" lon="7.56192">
        <ele>634.56756704936</ele>
        <time>2021-11-02T15:01:52Z</time>
      </trkpt>
      <trkpt lat="43.88628" lon="7.5619">
        <ele>635.56753274245</ele>
        <time>2021-11-02T15:01:54Z</time>
      </trkpt>
      <trkpt lat="43.88628" lon="7.56191">
        <ele>633.56751611135</ele>
        <time>2021-11-02T15:02:01Z</time>
      </trkpt>
      <trkpt lat="43.88628" lon="7.56191">
        <ele>632.56754470458</ele>
        <time>2021-11-02T15:02:18Z</time>
      </trkpt>
      <trkpt lat="43.88628" lon="7.56192">
        <ele>633.5675693245</ele>
        <time>2021-11-02T15:03:23Z</time>
      </trkpt>
      <trkpt lat="43.88628" lon="7.56192">
        <ele>633.5675693245</ele>
        <time>2021-11-02T15:03:23Z</time>
      </trkpt>
    </trkseg>
  </trk>
</gpx>